<?xml version="1.0" encoding="UTF-8" standalone="no" ?>
<gpx xmlns="http://www.topografix.com/GPX/1/1" xmlns:xsi="http://www.w3.org/2001/XMLSchema-instance" xsi:schemaLocation="http://www.topografix.com/GPX/1/1 http://www.topografix.com/GPX/1/1/gpx.xsd" version="1.1" creator="VisuGPX - https://www.visugpx.com">
  <metadata>
    <name>Randonnée Araules </name>
    <desc><![CDATA[Randonnée VTT d'Arables. Très beau parcours avec très peu de route goudronnée]]></desc>
  </metadata>
  <trk>
    <name><![CDATA[Araules Cyclisme]]></name>
    <trkseg>
      <trkpt lat="45.0905" lon="4.17275">
        <ele>1031.8000488281</ele>
        <time>2019-08-11T05:38:58.000Z</time>
      </trkpt>
      <trkpt lat="45.09047" lon="4.17276">
        <ele>1031.8000488281</ele>
        <time>2019-08-11T05:38:59.000Z</time>
      </trkpt>
      <trkpt lat="45.09045" lon="4.17277">
        <ele>1031.8000488281</ele>
        <time>2019-08-11T05:39:00.000Z</time>
      </trkpt>
      <trkpt lat="45.09035" lon="4.17282">
        <ele>1045.8000488281</ele>
        <time>2019-08-11T05:39:03.000Z</time>
      </trkpt>
      <trkpt lat="45.09032" lon="4.17284">
        <ele>1045.8000488281</ele>
        <time>2019-08-11T05:39:04.000Z</time>
      </trkpt>
      <trkpt lat="45.09" lon="4.1734">
        <ele>1043.5999755859</ele>
        <time>2019-08-11T05:39:19.000Z</time>
      </trkpt>
      <trkpt lat="45.08999" lon="4.17387">
        <ele>1043.4000244141</ele>
        <time>2019-08-11T05:39:32.000Z</time>
      </trkpt>
      <trkpt lat="45.08997" lon="4.17388">
        <ele>1043.1999511719</ele>
        <time>2019-08-11T05:39:33.000Z</time>
      </trkpt>
      <trkpt lat="45.08994" lon="4.17387">
        <ele>1043</ele>
        <time>2019-08-11T05:39:34.000Z</time>
      </trkpt>
      <trkpt lat="45.0899" lon="4.17386">
        <ele>1042.4000244141</ele>
        <time>2019-08-11T05:39:35.000Z</time>
      </trkpt>
      <trkpt lat="45.08986" lon="4.17385">
        <ele>1042</ele>
        <time>2019-08-11T05:39:36.000Z</time>
      </trkpt>
      <trkpt lat="45.08972" lon="4.17379">
        <ele>1040.5999755859</ele>
        <time>2019-08-11T05:39:39.000Z</time>
      </trkpt>
      <trkpt lat="45.08967" lon="4.17376">
        <ele>1040.1999511719</ele>
        <time>2019-08-11T05:39:40.000Z</time>
      </trkpt>
      <trkpt lat="45.08962" lon="4.17373">
        <ele>1039.8000488281</ele>
        <time>2019-08-11T05:39:41.000Z</time>
      </trkpt>
      <trkpt lat="45.08956" lon="4.1737">
        <ele>1039.5999755859</ele>
        <time>2019-08-11T05:39:42.000Z</time>
      </trkpt>
      <trkpt lat="45.08951" lon="4.17366">
        <ele>1039.1999511719</ele>
        <time>2019-08-11T05:39:43.000Z</time>
      </trkpt>
      <trkpt lat="45.08938" lon="4.17352">
        <ele>1038.5999755859</ele>
        <time>2019-08-11T05:39:46.000Z</time>
      </trkpt>
      <trkpt lat="45.08934" lon="4.17346">
        <ele>1038.4000244141</ele>
        <time>2019-08-11T05:39:47.000Z</time>
      </trkpt>
      <trkpt lat="45.08931" lon="4.1734">
        <ele>1038</ele>
        <time>2019-08-11T05:39:48.000Z</time>
      </trkpt>
      <trkpt lat="45.08928" lon="4.17333">
        <ele>1038</ele>
        <time>2019-08-11T05:39:49.000Z</time>
      </trkpt>
      <trkpt lat="45.08926" lon="4.17325">
        <ele>1037.5999755859</ele>
        <time>2019-08-11T05:39:50.000Z</time>
      </trkpt>
      <trkpt lat="45.08924" lon="4.17318">
        <ele>1037.4000244141</ele>
        <time>2019-08-11T05:39:51.000Z</time>
      </trkpt>
      <trkpt lat="45.08911" lon="4.17293">
        <ele>1037</ele>
        <time>2019-08-11T05:39:58.000Z</time>
      </trkpt>
      <trkpt lat="45.08908" lon="4.17295">
        <ele>1037</ele>
        <time>2019-08-11T05:39:59.000Z</time>
      </trkpt>
      <trkpt lat="45.08905" lon="4.17297">
        <ele>1037</ele>
        <time>2019-08-11T05:40:00.000Z</time>
      </trkpt>
      <trkpt lat="45.08902" lon="4.17298">
        <ele>1037</ele>
        <time>2019-08-11T05:40:01.000Z</time>
      </trkpt>
      <trkpt lat="45.08899" lon="4.17299">
        <ele>1036.8000488281</ele>
        <time>2019-08-11T05:40:02.000Z</time>
      </trkpt>
      <trkpt lat="45.08895" lon="4.17299">
        <ele>1036.5999755859</ele>
        <time>2019-08-11T05:40:03.000Z</time>
      </trkpt>
      <trkpt lat="45.08875" lon="4.17308">
        <ele>1035.4000244141</ele>
        <time>2019-08-11T05:40:08.000Z</time>
      </trkpt>
      <trkpt lat="45.08868" lon="4.17315">
        <ele>1034.8000488281</ele>
        <time>2019-08-11T05:40:10.000Z</time>
      </trkpt>
      <trkpt lat="45.08849" lon="4.17343">
        <ele>1033</ele>
        <time>2019-08-11T05:40:15.000Z</time>
      </trkpt>
      <trkpt lat="45.08832" lon="4.1737">
        <ele>1030.8000488281</ele>
        <time>2019-08-11T05:40:19.000Z</time>
      </trkpt>
      <trkpt lat="45.08813" lon="4.17399">
        <ele>1027.1999511719</ele>
        <time>2019-08-11T05:40:23.000Z</time>
      </trkpt>
      <trkpt lat="45.0881" lon="4.17408">
        <ele>1026.4000244141</ele>
        <time>2019-08-11T05:40:24.000Z</time>
      </trkpt>
      <trkpt lat="45.08808" lon="4.17417">
        <ele>1025.5999755859</ele>
        <time>2019-08-11T05:40:25.000Z</time>
      </trkpt>
      <trkpt lat="45.08808" lon="4.17427">
        <ele>1024.8000488281</ele>
        <time>2019-08-11T05:40:26.000Z</time>
      </trkpt>
      <trkpt lat="45.08806" lon="4.17435">
        <ele>1023.4000244141</ele>
        <time>2019-08-11T05:40:27.000Z</time>
      </trkpt>
      <trkpt lat="45.08801" lon="4.17443">
        <ele>1022.200012207</ele>
        <time>2019-08-11T05:40:28.000Z</time>
      </trkpt>
      <trkpt lat="45.08796" lon="4.17451">
        <ele>1020.799987793</ele>
        <time>2019-08-11T05:40:29.000Z</time>
      </trkpt>
      <trkpt lat="45.0879" lon="4.17458">
        <ele>1019.799987793</ele>
        <time>2019-08-11T05:40:30.000Z</time>
      </trkpt>
      <trkpt lat="45.08784" lon="4.17466">
        <ele>1018.4000244141</ele>
        <time>2019-08-11T05:40:31.000Z</time>
      </trkpt>
      <trkpt lat="45.08777" lon="4.17472">
        <ele>1017.4000244141</ele>
        <time>2019-08-11T05:40:32.000Z</time>
      </trkpt>
      <trkpt lat="45.0877" lon="4.17479">
        <ele>1016.4000244141</ele>
        <time>2019-08-11T05:40:33.000Z</time>
      </trkpt>
      <trkpt lat="45.08763" lon="4.17484">
        <ele>1015.4000244141</ele>
        <time>2019-08-11T05:40:34.000Z</time>
      </trkpt>
      <trkpt lat="45.08734" lon="4.1751">
        <ele>1011.200012207</ele>
        <time>2019-08-11T05:40:38.000Z</time>
      </trkpt>
      <trkpt lat="45.08719" lon="4.17522">
        <ele>1009</ele>
        <time>2019-08-11T05:40:40.000Z</time>
      </trkpt>
      <trkpt lat="45.08713" lon="4.17529">
        <ele>1008.4000244141</ele>
        <time>2019-08-11T05:40:41.000Z</time>
      </trkpt>
      <trkpt lat="45.08707" lon="4.17536">
        <ele>1008</ele>
        <time>2019-08-11T05:40:42.000Z</time>
      </trkpt>
      <trkpt lat="45.08699" lon="4.17548">
        <ele>1007.5999755859</ele>
        <time>2019-08-11T05:40:44.000Z</time>
      </trkpt>
      <trkpt lat="45.08691" lon="4.17557">
        <ele>1006.799987793</ele>
        <time>2019-08-11T05:40:46.000Z</time>
      </trkpt>
      <trkpt lat="45.08687" lon="4.17561">
        <ele>1006.799987793</ele>
        <time>2019-08-11T05:40:47.000Z</time>
      </trkpt>
      <trkpt lat="45.08661" lon="4.17582">
        <ele>1006.4000244141</ele>
        <time>2019-08-11T05:40:53.000Z</time>
      </trkpt>
      <trkpt lat="45.08649" lon="4.17589">
        <ele>1006.200012207</ele>
        <time>2019-08-11T05:40:55.000Z</time>
      </trkpt>
      <trkpt lat="45.08642" lon="4.17591">
        <ele>1005.799987793</ele>
        <time>2019-08-11T05:40:56.000Z</time>
      </trkpt>
      <trkpt lat="45.08635" lon="4.17592">
        <ele>1005.4000244141</ele>
        <time>2019-08-11T05:40:57.000Z</time>
      </trkpt>
      <trkpt lat="45.0863" lon="4.17592">
        <ele>1004.799987793</ele>
        <time>2019-08-11T05:40:58.000Z</time>
      </trkpt>
      <trkpt lat="45.08624" lon="4.17593">
        <ele>1004</ele>
        <time>2019-08-11T05:40:59.000Z</time>
      </trkpt>
      <trkpt lat="45.0859" lon="4.17593">
        <ele>1001.200012207</ele>
        <time>2019-08-11T05:41:05.000Z</time>
      </trkpt>
      <trkpt lat="45.08567" lon="4.17591">
        <ele>1000.200012207</ele>
        <time>2019-08-11T05:41:09.000Z</time>
      </trkpt>
      <trkpt lat="45.08562" lon="4.17592">
        <ele>999.79998779297</ele>
        <time>2019-08-11T05:41:10.000Z</time>
      </trkpt>
      <trkpt lat="45.08557" lon="4.17595">
        <ele>999.59997558594</ele>
        <time>2019-08-11T05:41:11.000Z</time>
      </trkpt>
      <trkpt lat="45.08553" lon="4.17598">
        <ele>999.20001220703</ele>
        <time>2019-08-11T05:41:12.000Z</time>
      </trkpt>
      <trkpt lat="45.08549" lon="4.17602">
        <ele>998.79998779297</ele>
        <time>2019-08-11T05:41:13.000Z</time>
      </trkpt>
      <trkpt lat="45.08542" lon="4.17609">
        <ele>997.79998779297</ele>
        <time>2019-08-11T05:41:15.000Z</time>
      </trkpt>
      <trkpt lat="45.0854" lon="4.17614">
        <ele>997.59997558594</ele>
        <time>2019-08-11T05:41:16.000Z</time>
      </trkpt>
      <trkpt lat="45.08537" lon="4.17619">
        <ele>997.40002441406</ele>
        <time>2019-08-11T05:41:17.000Z</time>
      </trkpt>
      <trkpt lat="45.08535" lon="4.17624">
        <ele>996.40002441406</ele>
        <time>2019-08-11T05:41:18.000Z</time>
      </trkpt>
      <trkpt lat="45.08534" lon="4.17628">
        <ele>996.20001220703</ele>
        <time>2019-08-11T05:41:19.000Z</time>
      </trkpt>
      <trkpt lat="45.08532" lon="4.17632">
        <ele>996</ele>
        <time>2019-08-11T05:41:20.000Z</time>
      </trkpt>
      <trkpt lat="45.08531" lon="4.17638">
        <ele>995.79998779297</ele>
        <time>2019-08-11T05:41:21.000Z</time>
      </trkpt>
      <trkpt lat="45.08531" lon="4.17644">
        <ele>995.59997558594</ele>
        <time>2019-08-11T05:41:22.000Z</time>
      </trkpt>
      <trkpt lat="45.08531" lon="4.1765">
        <ele>995.40002441406</ele>
        <time>2019-08-11T05:41:23.000Z</time>
      </trkpt>
      <trkpt lat="45.0853" lon="4.17669">
        <ele>995</ele>
        <time>2019-08-11T05:41:26.000Z</time>
      </trkpt>
      <trkpt lat="45.0853" lon="4.17682">
        <ele>995</ele>
        <time>2019-08-11T05:41:28.000Z</time>
      </trkpt>
      <trkpt lat="45.08529" lon="4.17765">
        <ele>995</ele>
        <time>2019-08-11T05:41:41.000Z</time>
      </trkpt>
      <trkpt lat="45.08528" lon="4.17806">
        <ele>995</ele>
        <time>2019-08-11T05:41:47.000Z</time>
      </trkpt>
      <trkpt lat="45.08537" lon="4.17844">
        <ele>995.40002441406</ele>
        <time>2019-08-11T05:41:54.000Z</time>
      </trkpt>
      <trkpt lat="45.0854" lon="4.17848">
        <ele>995.40002441406</ele>
        <time>2019-08-11T05:41:55.000Z</time>
      </trkpt>
      <trkpt lat="45.08554" lon="4.17861">
        <ele>995.79998779297</ele>
        <time>2019-08-11T05:41:59.000Z</time>
      </trkpt>
      <trkpt lat="45.08569" lon="4.17871">
        <ele>996.40002441406</ele>
        <time>2019-08-11T05:42:03.000Z</time>
      </trkpt>
      <trkpt lat="45.08583" lon="4.1788">
        <ele>997</ele>
        <time>2019-08-11T05:42:07.000Z</time>
      </trkpt>
      <trkpt lat="45.08608" lon="4.17894">
        <ele>998</ele>
        <time>2019-08-11T05:42:14.000Z</time>
      </trkpt>
      <trkpt lat="45.08627" lon="4.17902">
        <ele>998.79998779297</ele>
        <time>2019-08-11T05:42:19.000Z</time>
      </trkpt>
      <trkpt lat="45.08634" lon="4.1791">
        <ele>999.59997558594</ele>
        <time>2019-08-11T05:42:22.000Z</time>
      </trkpt>
      <trkpt lat="45.08639" lon="4.17917">
        <ele>1000.5999755859</ele>
        <time>2019-08-11T05:42:25.000Z</time>
      </trkpt>
      <trkpt lat="45.08647" lon="4.17924">
        <ele>1001.799987793</ele>
        <time>2019-08-11T05:42:29.000Z</time>
      </trkpt>
      <trkpt lat="45.08661" lon="4.1794">
        <ele>1003.200012207</ele>
        <time>2019-08-11T05:42:36.000Z</time>
      </trkpt>
      <trkpt lat="45.08676" lon="4.17956">
        <ele>1004.200012207</ele>
        <time>2019-08-11T05:42:43.000Z</time>
      </trkpt>
      <trkpt lat="45.08692" lon="4.17973">
        <ele>1006.200012207</ele>
        <time>2019-08-11T05:42:51.000Z</time>
      </trkpt>
      <trkpt lat="45.08722" lon="4.18">
        <ele>1009</ele>
        <time>2019-08-11T05:43:05.000Z</time>
      </trkpt>
      <trkpt lat="45.08744" lon="4.18021">
        <ele>1010.5999755859</ele>
        <time>2019-08-11T05:43:15.000Z</time>
      </trkpt>
      <trkpt lat="45.08763" lon="4.18037">
        <ele>1012.4000244141</ele>
        <time>2019-08-11T05:43:24.000Z</time>
      </trkpt>
      <trkpt lat="45.08775" lon="4.18049">
        <ele>1014.4000244141</ele>
        <time>2019-08-11T05:43:31.000Z</time>
      </trkpt>
      <trkpt lat="45.08795" lon="4.18067">
        <ele>1017.4000244141</ele>
        <time>2019-08-11T05:43:42.000Z</time>
      </trkpt>
      <trkpt lat="45.08811" lon="4.18083">
        <ele>1019.799987793</ele>
        <time>2019-08-11T05:43:52.000Z</time>
      </trkpt>
      <trkpt lat="45.0882" lon="4.18093">
        <ele>1021</ele>
        <time>2019-08-11T05:43:57.000Z</time>
      </trkpt>
      <trkpt lat="45.08823" lon="4.18097">
        <ele>1021.4000244141</ele>
        <time>2019-08-11T05:43:59.000Z</time>
      </trkpt>
      <trkpt lat="45.08849" lon="4.18138">
        <ele>1024.4000244141</ele>
        <time>2019-08-11T05:44:17.000Z</time>
      </trkpt>
      <trkpt lat="45.08876" lon="4.18194">
        <ele>1027.4000244141</ele>
        <time>2019-08-11T05:44:38.000Z</time>
      </trkpt>
      <trkpt lat="45.08911" lon="4.18256">
        <ele>1030</ele>
        <time>2019-08-11T05:45:00.000Z</time>
      </trkpt>
      <trkpt lat="45.08951" lon="4.18295">
        <ele>1033</ele>
        <time>2019-08-11T05:45:19.000Z</time>
      </trkpt>
      <trkpt lat="45.09004" lon="4.18321">
        <ele>1034.8000488281</ele>
        <time>2019-08-11T05:45:37.000Z</time>
      </trkpt>
      <trkpt lat="45.09052" lon="4.18363">
        <ele>1037.1999511719</ele>
        <time>2019-08-11T05:45:56.000Z</time>
      </trkpt>
      <trkpt lat="45.09094" lon="4.18418">
        <ele>1039.8000488281</ele>
        <time>2019-08-11T05:46:15.000Z</time>
      </trkpt>
      <trkpt lat="45.09127" lon="4.18484">
        <ele>1042</ele>
        <time>2019-08-11T05:46:34.000Z</time>
      </trkpt>
      <trkpt lat="45.09147" lon="4.1852">
        <ele>1043</ele>
        <time>2019-08-11T05:46:44.000Z</time>
      </trkpt>
      <trkpt lat="45.09178" lon="4.18586">
        <ele>1044.8000488281</ele>
        <time>2019-08-11T05:47:01.000Z</time>
      </trkpt>
      <trkpt lat="45.09206" lon="4.18654">
        <ele>1047</ele>
        <time>2019-08-11T05:47:18.000Z</time>
      </trkpt>
      <trkpt lat="45.09242" lon="4.18716">
        <ele>1048.1999511719</ele>
        <time>2019-08-11T05:47:34.000Z</time>
      </trkpt>
      <trkpt lat="45.09273" lon="4.1874">
        <ele>1049.4000244141</ele>
        <time>2019-08-11T05:47:44.000Z</time>
      </trkpt>
      <trkpt lat="45.0932" lon="4.18779">
        <ele>1052.4000244141</ele>
        <time>2019-08-11T05:48:01.000Z</time>
      </trkpt>
      <trkpt lat="45.09331" lon="4.18795">
        <ele>1053</ele>
        <time>2019-08-11T05:48:06.000Z</time>
      </trkpt>
      <trkpt lat="45.09332" lon="4.18795">
        <ele>1053.1999511719</ele>
        <time>2019-08-11T05:48:07.000Z</time>
      </trkpt>
      <trkpt lat="45.09333" lon="4.18794">
        <ele>1053.4000244141</ele>
        <time>2019-08-11T05:48:08.000Z</time>
      </trkpt>
      <trkpt lat="45.09334" lon="4.18792">
        <ele>1053.4000244141</ele>
        <time>2019-08-11T05:48:09.000Z</time>
      </trkpt>
      <trkpt lat="45.09336" lon="4.1879">
        <ele>1053.4000244141</ele>
        <time>2019-08-11T05:48:10.000Z</time>
      </trkpt>
      <trkpt lat="45.09337" lon="4.18788">
        <ele>1053.4000244141</ele>
        <time>2019-08-11T05:48:11.000Z</time>
      </trkpt>
      <trkpt lat="45.09339" lon="4.18786">
        <ele>1053.1999511719</ele>
        <time>2019-08-11T05:48:12.000Z</time>
      </trkpt>
      <trkpt lat="45.09342" lon="4.18784">
        <ele>1053</ele>
        <time>2019-08-11T05:48:13.000Z</time>
      </trkpt>
      <trkpt lat="45.09345" lon="4.18783">
        <ele>1052.8000488281</ele>
        <time>2019-08-11T05:48:14.000Z</time>
      </trkpt>
      <trkpt lat="45.09348" lon="4.18781">
        <ele>1052.5999755859</ele>
        <time>2019-08-11T05:48:15.000Z</time>
      </trkpt>
      <trkpt lat="45.09377" lon="4.18763">
        <ele>1049.4000244141</ele>
        <time>2019-08-11T05:48:22.000Z</time>
      </trkpt>
      <trkpt lat="45.09387" lon="4.18755">
        <ele>1048</ele>
        <time>2019-08-11T05:48:24.000Z</time>
      </trkpt>
      <trkpt lat="45.09394" lon="4.18751">
        <ele>1047.1999511719</ele>
        <time>2019-08-11T05:48:25.000Z</time>
      </trkpt>
      <trkpt lat="45.09418" lon="4.18743">
        <ele>1044.1999511719</ele>
        <time>2019-08-11T05:48:29.000Z</time>
      </trkpt>
      <trkpt lat="45.09422" lon="4.18742">
        <ele>1043.5999755859</ele>
        <time>2019-08-11T05:48:30.000Z</time>
      </trkpt>
      <trkpt lat="45.09426" lon="4.18741">
        <ele>1043.1999511719</ele>
        <time>2019-08-11T05:48:31.000Z</time>
      </trkpt>
      <trkpt lat="45.09428" lon="4.1874">
        <ele>1043</ele>
        <time>2019-08-11T05:48:32.000Z</time>
      </trkpt>
      <trkpt lat="45.0943" lon="4.18739">
        <ele>1042.8000488281</ele>
        <time>2019-08-11T05:48:33.000Z</time>
      </trkpt>
      <trkpt lat="45.09432" lon="4.18739">
        <ele>1042.8000488281</ele>
        <time>2019-08-11T05:48:34.000Z</time>
      </trkpt>
      <trkpt lat="45.09434" lon="4.1874">
        <ele>1042.8000488281</ele>
        <time>2019-08-11T05:48:35.000Z</time>
      </trkpt>
      <trkpt lat="45.09438" lon="4.18743">
        <ele>1042.8000488281</ele>
        <time>2019-08-11T05:48:38.000Z</time>
      </trkpt>
      <trkpt lat="45.09438" lon="4.18745">
        <ele>1042.8000488281</ele>
        <time>2019-08-11T05:48:39.000Z</time>
      </trkpt>
      <trkpt lat="45.09437" lon="4.18747">
        <ele>1043</ele>
        <time>2019-08-11T05:48:40.000Z</time>
      </trkpt>
      <trkpt lat="45.09436" lon="4.18749">
        <ele>1043</ele>
        <time>2019-08-11T05:48:41.000Z</time>
      </trkpt>
      <trkpt lat="45.09435" lon="4.18749">
        <ele>1043</ele>
        <time>2019-08-11T05:48:42.000Z</time>
      </trkpt>
      <trkpt lat="45.09435" lon="4.18748">
        <ele>1043</ele>
        <time>2019-08-11T05:48:43.000Z</time>
      </trkpt>
      <trkpt lat="45.09435" lon="4.18747">
        <ele>1043</ele>
        <time>2019-08-11T05:48:44.000Z</time>
      </trkpt>
      <trkpt lat="45.09435" lon="4.18745">
        <ele>1043.1999511719</ele>
        <time>2019-08-11T05:48:45.000Z</time>
      </trkpt>
      <trkpt lat="45.09436" lon="4.18744">
        <ele>1043.1999511719</ele>
        <time>2019-08-11T05:48:46.000Z</time>
      </trkpt>
      <trkpt lat="45.09435" lon="4.18744">
        <ele>1042.5999755859</ele>
        <time>2019-08-11T05:48:52.000Z</time>
      </trkpt>
      <trkpt lat="45.09439" lon="4.18741">
        <ele>1043</ele>
        <time>2019-08-11T05:49:18.000Z</time>
      </trkpt>
      <trkpt lat="45.09442" lon="4.18741">
        <ele>1043</ele>
        <time>2019-08-11T05:49:19.000Z</time>
      </trkpt>
      <trkpt lat="45.09444" lon="4.1874">
        <ele>1042.8000488281</ele>
        <time>2019-08-11T05:49:20.000Z</time>
      </trkpt>
      <trkpt lat="45.09465" lon="4.18741">
        <ele>1041.8000488281</ele>
        <time>2019-08-11T05:49:25.000Z</time>
      </trkpt>
      <trkpt lat="45.09501" lon="4.18735">
        <ele>1040.4000244141</ele>
        <time>2019-08-11T05:49:33.000Z</time>
      </trkpt>
      <trkpt lat="45.09506" lon="4.18734">
        <ele>1040.1999511719</ele>
        <time>2019-08-11T05:49:34.000Z</time>
      </trkpt>
      <trkpt lat="45.09526" lon="4.18729">
        <ele>1038.5999755859</ele>
        <time>2019-08-11T05:49:38.000Z</time>
      </trkpt>
      <trkpt lat="45.0953" lon="4.18728">
        <ele>1038.4000244141</ele>
        <time>2019-08-11T05:49:39.000Z</time>
      </trkpt>
      <trkpt lat="45.09533" lon="4.18726">
        <ele>1038.1999511719</ele>
        <time>2019-08-11T05:49:40.000Z</time>
      </trkpt>
      <trkpt lat="45.09535" lon="4.18726">
        <ele>1038.1999511719</ele>
        <time>2019-08-11T05:49:41.000Z</time>
      </trkpt>
      <trkpt lat="45.09536" lon="4.18727">
        <ele>1038.4000244141</ele>
        <time>2019-08-11T05:49:42.000Z</time>
      </trkpt>
      <trkpt lat="45.09535" lon="4.18729">
        <ele>1038.4000244141</ele>
        <time>2019-08-11T05:49:43.000Z</time>
      </trkpt>
      <trkpt lat="45.09534" lon="4.1873">
        <ele>1038.1999511719</ele>
        <time>2019-08-11T05:49:44.000Z</time>
      </trkpt>
      <trkpt lat="45.09533" lon="4.18732">
        <ele>1038.1999511719</ele>
        <time>2019-08-11T05:49:45.000Z</time>
      </trkpt>
      <trkpt lat="45.09531" lon="4.18735">
        <ele>1038.1999511719</ele>
        <time>2019-08-11T05:49:46.000Z</time>
      </trkpt>
      <trkpt lat="45.0953" lon="4.18738">
        <ele>1038.1999511719</ele>
        <time>2019-08-11T05:49:47.000Z</time>
      </trkpt>
      <trkpt lat="45.09529" lon="4.18742">
        <ele>1038</ele>
        <time>2019-08-11T05:49:48.000Z</time>
      </trkpt>
      <trkpt lat="45.09526" lon="4.18747">
        <ele>1037.4000244141</ele>
        <time>2019-08-11T05:49:49.000Z</time>
      </trkpt>
      <trkpt lat="45.09502" lon="4.18784">
        <ele>1035.4000244141</ele>
        <time>2019-08-11T05:49:55.000Z</time>
      </trkpt>
      <trkpt lat="45.09496" lon="4.18796">
        <ele>1035</ele>
        <time>2019-08-11T05:49:57.000Z</time>
      </trkpt>
      <trkpt lat="45.0949" lon="4.18811">
        <ele>1033.8000488281</ele>
        <time>2019-08-11T05:49:59.000Z</time>
      </trkpt>
      <trkpt lat="45.09481" lon="4.1884">
        <ele>1030.5999755859</ele>
        <time>2019-08-11T05:50:02.000Z</time>
      </trkpt>
      <trkpt lat="45.09477" lon="4.18859">
        <ele>1029.4000244141</ele>
        <time>2019-08-11T05:50:04.000Z</time>
      </trkpt>
      <trkpt lat="45.09474" lon="4.18879">
        <ele>1029.5999755859</ele>
        <time>2019-08-11T05:50:06.000Z</time>
      </trkpt>
      <trkpt lat="45.09472" lon="4.1889">
        <ele>1029.8000488281</ele>
        <time>2019-08-11T05:50:07.000Z</time>
      </trkpt>
      <trkpt lat="45.09469" lon="4.18923">
        <ele>1026.5999755859</ele>
        <time>2019-08-11T05:50:10.000Z</time>
      </trkpt>
      <trkpt lat="45.09467" lon="4.18972">
        <ele>1023.200012207</ele>
        <time>2019-08-11T05:50:14.000Z</time>
      </trkpt>
      <trkpt lat="45.09469" lon="4.18984">
        <ele>1022.5999755859</ele>
        <time>2019-08-11T05:50:15.000Z</time>
      </trkpt>
      <trkpt lat="45.09476" lon="4.18996">
        <ele>1021.799987793</ele>
        <time>2019-08-11T05:50:16.000Z</time>
      </trkpt>
      <trkpt lat="45.09482" lon="4.19006">
        <ele>1021</ele>
        <time>2019-08-11T05:50:17.000Z</time>
      </trkpt>
      <trkpt lat="45.09497" lon="4.19051">
        <ele>1018.5999755859</ele>
        <time>2019-08-11T05:50:21.000Z</time>
      </trkpt>
      <trkpt lat="45.09511" lon="4.19092">
        <ele>1018.200012207</ele>
        <time>2019-08-11T05:50:25.000Z</time>
      </trkpt>
      <trkpt lat="45.09526" lon="4.19177">
        <ele>1017.799987793</ele>
        <time>2019-08-11T05:50:34.000Z</time>
      </trkpt>
      <trkpt lat="45.09531" lon="4.19237">
        <ele>1017.4000244141</ele>
        <time>2019-08-11T05:50:43.000Z</time>
      </trkpt>
      <trkpt lat="45.0954" lon="4.19285">
        <ele>1016</ele>
        <time>2019-08-11T05:50:50.000Z</time>
      </trkpt>
      <trkpt lat="45.09547" lon="4.19329">
        <ele>1012.799987793</ele>
        <time>2019-08-11T05:50:55.000Z</time>
      </trkpt>
      <trkpt lat="45.09553" lon="4.19371">
        <ele>1009.5999755859</ele>
        <time>2019-08-11T05:50:59.000Z</time>
      </trkpt>
      <trkpt lat="45.0956" lon="4.19422">
        <ele>1008.799987793</ele>
        <time>2019-08-11T05:51:04.000Z</time>
      </trkpt>
      <trkpt lat="45.09566" lon="4.19465">
        <ele>1007.200012207</ele>
        <time>2019-08-11T05:51:08.000Z</time>
      </trkpt>
      <trkpt lat="45.09571" lon="4.19522">
        <ele>1004</ele>
        <time>2019-08-11T05:51:13.000Z</time>
      </trkpt>
      <trkpt lat="45.09572" lon="4.19533">
        <ele>1003.799987793</ele>
        <time>2019-08-11T05:51:14.000Z</time>
      </trkpt>
      <trkpt lat="45.09577" lon="4.19565">
        <ele>1003.200012207</ele>
        <time>2019-08-11T05:51:17.000Z</time>
      </trkpt>
      <trkpt lat="45.09578" lon="4.19575">
        <ele>1003.200012207</ele>
        <time>2019-08-11T05:51:18.000Z</time>
      </trkpt>
      <trkpt lat="45.09581" lon="4.19583">
        <ele>1003.4000244141</ele>
        <time>2019-08-11T05:51:19.000Z</time>
      </trkpt>
      <trkpt lat="45.09585" lon="4.196">
        <ele>1003.5999755859</ele>
        <time>2019-08-11T05:51:21.000Z</time>
      </trkpt>
      <trkpt lat="45.09588" lon="4.19607">
        <ele>1003.799987793</ele>
        <time>2019-08-11T05:51:22.000Z</time>
      </trkpt>
      <trkpt lat="45.0959" lon="4.19612">
        <ele>1004</ele>
        <time>2019-08-11T05:51:23.000Z</time>
      </trkpt>
      <trkpt lat="45.09591" lon="4.19617">
        <ele>1004.4000244141</ele>
        <time>2019-08-11T05:51:24.000Z</time>
      </trkpt>
      <trkpt lat="45.09593" lon="4.19622">
        <ele>1005.200012207</ele>
        <time>2019-08-11T05:51:25.000Z</time>
      </trkpt>
      <trkpt lat="45.09594" lon="4.19636">
        <ele>1006.5999755859</ele>
        <time>2019-08-11T05:51:28.000Z</time>
      </trkpt>
      <trkpt lat="45.09589" lon="4.19675">
        <ele>1007.5999755859</ele>
        <time>2019-08-11T05:51:36.000Z</time>
      </trkpt>
      <trkpt lat="45.09593" lon="4.19733">
        <ele>1008</ele>
        <time>2019-08-11T05:51:47.000Z</time>
      </trkpt>
      <trkpt lat="45.09596" lon="4.1975">
        <ele>1008.4000244141</ele>
        <time>2019-08-11T05:51:50.000Z</time>
      </trkpt>
      <trkpt lat="45.096" lon="4.19791">
        <ele>1009</ele>
        <time>2019-08-11T05:51:57.000Z</time>
      </trkpt>
      <trkpt lat="45.09596" lon="4.19825">
        <ele>1009.799987793</ele>
        <time>2019-08-11T05:52:04.000Z</time>
      </trkpt>
      <trkpt lat="45.09593" lon="4.19838">
        <ele>1011</ele>
        <time>2019-08-11T05:52:08.000Z</time>
      </trkpt>
      <trkpt lat="45.09591" lon="4.19846">
        <ele>1012.200012207</ele>
        <time>2019-08-11T05:52:11.000Z</time>
      </trkpt>
      <trkpt lat="45.09588" lon="4.19855">
        <ele>1012.5999755859</ele>
        <time>2019-08-11T05:52:14.000Z</time>
      </trkpt>
      <trkpt lat="45.09586" lon="4.19861">
        <ele>1013.5999755859</ele>
        <time>2019-08-11T05:52:16.000Z</time>
      </trkpt>
      <trkpt lat="45.09585" lon="4.19873">
        <ele>1014.5999755859</ele>
        <time>2019-08-11T05:52:20.000Z</time>
      </trkpt>
      <trkpt lat="45.09582" lon="4.19888">
        <ele>1015.5999755859</ele>
        <time>2019-08-11T05:52:25.000Z</time>
      </trkpt>
      <trkpt lat="45.09577" lon="4.19909">
        <ele>1017.4000244141</ele>
        <time>2019-08-11T05:52:32.000Z</time>
      </trkpt>
      <trkpt lat="45.09564" lon="4.19954">
        <ele>1020.4000244141</ele>
        <time>2019-08-11T05:52:49.000Z</time>
      </trkpt>
      <trkpt lat="45.09563" lon="4.19959">
        <ele>1020.5999755859</ele>
        <time>2019-08-11T05:52:51.000Z</time>
      </trkpt>
      <trkpt lat="45.09563" lon="4.19962">
        <ele>1021</ele>
        <time>2019-08-11T05:52:52.000Z</time>
      </trkpt>
      <trkpt lat="45.09562" lon="4.19964">
        <ele>1021.4000244141</ele>
        <time>2019-08-11T05:52:53.000Z</time>
      </trkpt>
      <trkpt lat="45.09551" lon="4.20004">
        <ele>1024.4000244141</ele>
        <time>2019-08-11T05:53:08.000Z</time>
      </trkpt>
      <trkpt lat="45.0954" lon="4.20031">
        <ele>1027.4000244141</ele>
        <time>2019-08-11T05:53:21.000Z</time>
      </trkpt>
      <trkpt lat="45.095" lon="4.2005">
        <ele>1030.1999511719</ele>
        <time>2019-08-11T05:53:44.000Z</time>
      </trkpt>
      <trkpt lat="45.09476" lon="4.20061">
        <ele>1033.4000244141</ele>
        <time>2019-08-11T05:53:58.000Z</time>
      </trkpt>
      <trkpt lat="45.09455" lon="4.20069">
        <ele>1036.4000244141</ele>
        <time>2019-08-11T05:54:10.000Z</time>
      </trkpt>
      <trkpt lat="45.09424" lon="4.20081">
        <ele>1039.5999755859</ele>
        <time>2019-08-11T05:54:28.000Z</time>
      </trkpt>
      <trkpt lat="45.09389" lon="4.20093">
        <ele>1042.5999755859</ele>
        <time>2019-08-11T05:54:47.000Z</time>
      </trkpt>
      <trkpt lat="45.09361" lon="4.20153">
        <ele>1045</ele>
        <time>2019-08-11T05:55:11.000Z</time>
      </trkpt>
      <trkpt lat="45.09353" lon="4.20231">
        <ele>1045.1999511719</ele>
        <time>2019-08-11T05:55:26.000Z</time>
      </trkpt>
      <trkpt lat="45.09333" lon="4.20261">
        <ele>1045.4000244141</ele>
        <time>2019-08-11T05:55:36.000Z</time>
      </trkpt>
      <trkpt lat="45.0931" lon="4.20278">
        <ele>1045.5999755859</ele>
        <time>2019-08-11T05:55:44.000Z</time>
      </trkpt>
      <trkpt lat="45.09302" lon="4.20286">
        <ele>1045.1999511719</ele>
        <time>2019-08-11T05:55:47.000Z</time>
      </trkpt>
      <trkpt lat="45.09297" lon="4.203">
        <ele>1045.1999511719</ele>
        <time>2019-08-11T05:55:51.000Z</time>
      </trkpt>
      <trkpt lat="45.09291" lon="4.20316">
        <ele>1045</ele>
        <time>2019-08-11T05:55:55.000Z</time>
      </trkpt>
      <trkpt lat="45.09286" lon="4.20331">
        <ele>1044.5999755859</ele>
        <time>2019-08-11T05:55:58.000Z</time>
      </trkpt>
      <trkpt lat="45.09271" lon="4.2038">
        <ele>1045</ele>
        <time>2019-08-11T05:56:06.000Z</time>
      </trkpt>
      <trkpt lat="45.0927" lon="4.20386">
        <ele>1045</ele>
        <time>2019-08-11T05:56:07.000Z</time>
      </trkpt>
      <trkpt lat="45.09269" lon="4.20392">
        <ele>1045</ele>
        <time>2019-08-11T05:56:08.000Z</time>
      </trkpt>
      <trkpt lat="45.09267" lon="4.20398">
        <ele>1045</ele>
        <time>2019-08-11T05:56:09.000Z</time>
      </trkpt>
      <trkpt lat="45.09267" lon="4.20404">
        <ele>1045</ele>
        <time>2019-08-11T05:56:10.000Z</time>
      </trkpt>
      <trkpt lat="45.09266" lon="4.20411">
        <ele>1045.1999511719</ele>
        <time>2019-08-11T05:56:11.000Z</time>
      </trkpt>
      <trkpt lat="45.09262" lon="4.20438">
        <ele>1044.8000488281</ele>
        <time>2019-08-11T05:56:15.000Z</time>
      </trkpt>
      <trkpt lat="45.09257" lon="4.20488">
        <ele>1044.4000244141</ele>
        <time>2019-08-11T05:56:23.000Z</time>
      </trkpt>
      <trkpt lat="45.09257" lon="4.20494">
        <ele>1044.4000244141</ele>
        <time>2019-08-11T05:56:24.000Z</time>
      </trkpt>
      <trkpt lat="45.09257" lon="4.20501">
        <ele>1044.4000244141</ele>
        <time>2019-08-11T05:56:25.000Z</time>
      </trkpt>
      <trkpt lat="45.09256" lon="4.20507">
        <ele>1044.1999511719</ele>
        <time>2019-08-11T05:56:26.000Z</time>
      </trkpt>
      <trkpt lat="45.09257" lon="4.20521">
        <ele>1044</ele>
        <time>2019-08-11T05:56:28.000Z</time>
      </trkpt>
      <trkpt lat="45.0926" lon="4.2057">
        <ele>1043.1999511719</ele>
        <time>2019-08-11T05:56:36.000Z</time>
      </trkpt>
      <trkpt lat="45.09261" lon="4.20582">
        <ele>1042.5999755859</ele>
        <time>2019-08-11T05:56:38.000Z</time>
      </trkpt>
      <trkpt lat="45.09261" lon="4.20588">
        <ele>1042.4000244141</ele>
        <time>2019-08-11T05:56:39.000Z</time>
      </trkpt>
      <trkpt lat="45.09261" lon="4.20594">
        <ele>1042</ele>
        <time>2019-08-11T05:56:40.000Z</time>
      </trkpt>
      <trkpt lat="45.09261" lon="4.206">
        <ele>1041.5999755859</ele>
        <time>2019-08-11T05:56:41.000Z</time>
      </trkpt>
      <trkpt lat="45.09263" lon="4.20607">
        <ele>1041.4000244141</ele>
        <time>2019-08-11T05:56:42.000Z</time>
      </trkpt>
      <trkpt lat="45.09264" lon="4.20613">
        <ele>1041.1999511719</ele>
        <time>2019-08-11T05:56:43.000Z</time>
      </trkpt>
      <trkpt lat="45.09267" lon="4.20619">
        <ele>1040.8000488281</ele>
        <time>2019-08-11T05:56:44.000Z</time>
      </trkpt>
      <trkpt lat="45.0927" lon="4.20626">
        <ele>1040.4000244141</ele>
        <time>2019-08-11T05:56:45.000Z</time>
      </trkpt>
      <trkpt lat="45.09273" lon="4.20632">
        <ele>1040</ele>
        <time>2019-08-11T05:56:46.000Z</time>
      </trkpt>
      <trkpt lat="45.09278" lon="4.20638">
        <ele>1039.5999755859</ele>
        <time>2019-08-11T05:56:47.000Z</time>
      </trkpt>
      <trkpt lat="45.09293" lon="4.2066">
        <ele>1037.4000244141</ele>
        <time>2019-08-11T05:56:50.000Z</time>
      </trkpt>
      <trkpt lat="45.09318" lon="4.20695">
        <ele>1035</ele>
        <time>2019-08-11T05:56:55.000Z</time>
      </trkpt>
      <trkpt lat="45.09324" lon="4.207">
        <ele>1034.1999511719</ele>
        <time>2019-08-11T05:56:56.000Z</time>
      </trkpt>
      <trkpt lat="45.09329" lon="4.20705">
        <ele>1033.4000244141</ele>
        <time>2019-08-11T05:56:57.000Z</time>
      </trkpt>
      <trkpt lat="45.09335" lon="4.20708">
        <ele>1032.8000488281</ele>
        <time>2019-08-11T05:56:58.000Z</time>
      </trkpt>
      <trkpt lat="45.09341" lon="4.20711">
        <ele>1032.1999511719</ele>
        <time>2019-08-11T05:56:59.000Z</time>
      </trkpt>
      <trkpt lat="45.09348" lon="4.20712">
        <ele>1031.5999755859</ele>
        <time>2019-08-11T05:57:00.000Z</time>
      </trkpt>
      <trkpt lat="45.09355" lon="4.20713">
        <ele>1031.4000244141</ele>
        <time>2019-08-11T05:57:01.000Z</time>
      </trkpt>
      <trkpt lat="45.09375" lon="4.20722">
        <ele>1030.4000244141</ele>
        <time>2019-08-11T05:57:06.000Z</time>
      </trkpt>
      <trkpt lat="45.09374" lon="4.20724">
        <ele>1030.1999511719</ele>
        <time>2019-08-11T05:57:07.000Z</time>
      </trkpt>
      <trkpt lat="45.09373" lon="4.20727">
        <ele>1030</ele>
        <time>2019-08-11T05:57:08.000Z</time>
      </trkpt>
      <trkpt lat="45.09371" lon="4.2073">
        <ele>1029.8000488281</ele>
        <time>2019-08-11T05:57:09.000Z</time>
      </trkpt>
      <trkpt lat="45.09369" lon="4.20734">
        <ele>1029.4000244141</ele>
        <time>2019-08-11T05:57:10.000Z</time>
      </trkpt>
      <trkpt lat="45.09365" lon="4.20743">
        <ele>1029</ele>
        <time>2019-08-11T05:57:12.000Z</time>
      </trkpt>
      <trkpt lat="45.09356" lon="4.20766">
        <ele>1028</ele>
        <time>2019-08-11T05:57:16.000Z</time>
      </trkpt>
      <trkpt lat="45.09352" lon="4.20772">
        <ele>1027.5999755859</ele>
        <time>2019-08-11T05:57:17.000Z</time>
      </trkpt>
      <trkpt lat="45.09348" lon="4.20778">
        <ele>1027</ele>
        <time>2019-08-11T05:57:18.000Z</time>
      </trkpt>
      <trkpt lat="45.09329" lon="4.20812">
        <ele>1024.4000244141</ele>
        <time>2019-08-11T05:57:23.000Z</time>
      </trkpt>
      <trkpt lat="45.0931" lon="4.20844">
        <ele>1021.200012207</ele>
        <time>2019-08-11T05:57:27.000Z</time>
      </trkpt>
      <trkpt lat="45.09294" lon="4.20872">
        <ele>1018</ele>
        <time>2019-08-11T05:57:30.000Z</time>
      </trkpt>
      <trkpt lat="45.09282" lon="4.20891">
        <ele>1014.799987793</ele>
        <time>2019-08-11T05:57:32.000Z</time>
      </trkpt>
      <trkpt lat="45.09259" lon="4.20919">
        <ele>1011.5999755859</ele>
        <time>2019-08-11T05:57:35.000Z</time>
      </trkpt>
      <trkpt lat="45.09234" lon="4.20945">
        <ele>1008.4000244141</ele>
        <time>2019-08-11T05:57:38.000Z</time>
      </trkpt>
      <trkpt lat="45.09189" lon="4.2098">
        <ele>1006</ele>
        <time>2019-08-11T05:57:43.000Z</time>
      </trkpt>
      <trkpt lat="45.09167" lon="4.20992">
        <ele>1004.5999755859</ele>
        <time>2019-08-11T05:57:46.000Z</time>
      </trkpt>
      <trkpt lat="45.09136" lon="4.21005">
        <ele>1002.5999755859</ele>
        <time>2019-08-11T05:57:50.000Z</time>
      </trkpt>
      <trkpt lat="45.09129" lon="4.21012">
        <ele>1001.5999755859</ele>
        <time>2019-08-11T05:57:51.000Z</time>
      </trkpt>
      <trkpt lat="45.09123" lon="4.21021">
        <ele>1000.799987793</ele>
        <time>2019-08-11T05:57:52.000Z</time>
      </trkpt>
      <trkpt lat="45.09119" lon="4.21031">
        <ele>999.59997558594</ele>
        <time>2019-08-11T05:57:53.000Z</time>
      </trkpt>
      <trkpt lat="45.09114" lon="4.21042">
        <ele>998.20001220703</ele>
        <time>2019-08-11T05:57:54.000Z</time>
      </trkpt>
      <trkpt lat="45.09113" lon="4.21053">
        <ele>997</ele>
        <time>2019-08-11T05:57:55.000Z</time>
      </trkpt>
      <trkpt lat="45.09111" lon="4.21066">
        <ele>995</ele>
        <time>2019-08-11T05:57:56.000Z</time>
      </trkpt>
      <trkpt lat="45.09106" lon="4.21091">
        <ele>991.59997558594</ele>
        <time>2019-08-11T05:57:58.000Z</time>
      </trkpt>
      <trkpt lat="45.09106" lon="4.21102">
        <ele>990.40002441406</ele>
        <time>2019-08-11T05:57:59.000Z</time>
      </trkpt>
      <trkpt lat="45.09107" lon="4.21113">
        <ele>989.40002441406</ele>
        <time>2019-08-11T05:58:00.000Z</time>
      </trkpt>
      <trkpt lat="45.09109" lon="4.21123">
        <ele>988.59997558594</ele>
        <time>2019-08-11T05:58:01.000Z</time>
      </trkpt>
      <trkpt lat="45.0911" lon="4.21134">
        <ele>988</ele>
        <time>2019-08-11T05:58:02.000Z</time>
      </trkpt>
      <trkpt lat="45.0911" lon="4.21144">
        <ele>985.59997558594</ele>
        <time>2019-08-11T05:58:03.000Z</time>
      </trkpt>
      <trkpt lat="45.09106" lon="4.21163">
        <ele>983.59997558594</ele>
        <time>2019-08-11T05:58:05.000Z</time>
      </trkpt>
      <trkpt lat="45.091" lon="4.21171">
        <ele>982.59997558594</ele>
        <time>2019-08-11T05:58:06.000Z</time>
      </trkpt>
      <trkpt lat="45.0909" lon="4.21183">
        <ele>979.79998779297</ele>
        <time>2019-08-11T05:58:08.000Z</time>
      </trkpt>
      <trkpt lat="45.09084" lon="4.21187">
        <ele>978.59997558594</ele>
        <time>2019-08-11T05:58:09.000Z</time>
      </trkpt>
      <trkpt lat="45.09075" lon="4.2119">
        <ele>976.79998779297</ele>
        <time>2019-08-11T05:58:10.000Z</time>
      </trkpt>
      <trkpt lat="45.09051" lon="4.21206">
        <ele>972.79998779297</ele>
        <time>2019-08-11T05:58:13.000Z</time>
      </trkpt>
      <trkpt lat="45.09043" lon="4.21214">
        <ele>972</ele>
        <time>2019-08-11T05:58:14.000Z</time>
      </trkpt>
      <trkpt lat="45.09022" lon="4.21237">
        <ele>970.79998779297</ele>
        <time>2019-08-11T05:58:17.000Z</time>
      </trkpt>
      <trkpt lat="45.09015" lon="4.21243">
        <ele>971</ele>
        <time>2019-08-11T05:58:18.000Z</time>
      </trkpt>
      <trkpt lat="45.09007" lon="4.21247">
        <ele>971.20001220703</ele>
        <time>2019-08-11T05:58:19.000Z</time>
      </trkpt>
      <trkpt lat="45.08988" lon="4.21254">
        <ele>972.20001220703</ele>
        <time>2019-08-11T05:58:22.000Z</time>
      </trkpt>
      <trkpt lat="45.08979" lon="4.21259">
        <ele>975.20001220703</ele>
        <time>2019-08-11T05:58:26.000Z</time>
      </trkpt>
      <trkpt lat="45.08964" lon="4.21262">
        <ele>977.79998779297</ele>
        <time>2019-08-11T05:58:35.000Z</time>
      </trkpt>
      <trkpt lat="45.08959" lon="4.21265">
        <ele>978.59997558594</ele>
        <time>2019-08-11T05:58:39.000Z</time>
      </trkpt>
      <trkpt lat="45.08959" lon="4.21266">
        <ele>978.79998779297</ele>
        <time>2019-08-11T05:58:40.000Z</time>
      </trkpt>
      <trkpt lat="45.08959" lon="4.21267">
        <ele>979</ele>
        <time>2019-08-11T05:58:41.000Z</time>
      </trkpt>
      <trkpt lat="45.08954" lon="4.21271">
        <ele>980</ele>
        <time>2019-08-11T05:58:45.000Z</time>
      </trkpt>
      <trkpt lat="45.08946" lon="4.21282">
        <ele>981.20001220703</ele>
        <time>2019-08-11T05:58:51.000Z</time>
      </trkpt>
      <trkpt lat="45.08931" lon="4.21304">
        <ele>982.79998779297</ele>
        <time>2019-08-11T05:59:01.000Z</time>
      </trkpt>
      <trkpt lat="45.0892" lon="4.21323">
        <ele>984.20001220703</ele>
        <time>2019-08-11T05:59:09.000Z</time>
      </trkpt>
      <trkpt lat="45.08911" lon="4.21336">
        <ele>985.79998779297</ele>
        <time>2019-08-11T05:59:15.000Z</time>
      </trkpt>
      <trkpt lat="45.08902" lon="4.21352">
        <ele>987.20001220703</ele>
        <time>2019-08-11T05:59:22.000Z</time>
      </trkpt>
      <trkpt lat="45.08885" lon="4.21385">
        <ele>989.59997558594</ele>
        <time>2019-08-11T05:59:36.000Z</time>
      </trkpt>
      <trkpt lat="45.08862" lon="4.21459">
        <ele>992.40002441406</ele>
        <time>2019-08-11T06:00:00.000Z</time>
      </trkpt>
      <trkpt lat="45.0884" lon="4.21534">
        <ele>994.59997558594</ele>
        <time>2019-08-11T06:00:23.000Z</time>
      </trkpt>
      <trkpt lat="45.08822" lon="4.21595">
        <ele>995.20001220703</ele>
        <time>2019-08-11T06:00:36.000Z</time>
      </trkpt>
      <trkpt lat="45.08808" lon="4.21675">
        <ele>995.40002441406</ele>
        <time>2019-08-11T06:00:53.000Z</time>
      </trkpt>
      <trkpt lat="45.08804" lon="4.21708">
        <ele>995.79998779297</ele>
        <time>2019-08-11T06:01:00.000Z</time>
      </trkpt>
      <trkpt lat="45.08795" lon="4.2174">
        <ele>996.20001220703</ele>
        <time>2019-08-11T06:01:06.000Z</time>
      </trkpt>
      <trkpt lat="45.08745" lon="4.21761">
        <ele>996.79998779297</ele>
        <time>2019-08-11T06:01:24.000Z</time>
      </trkpt>
      <trkpt lat="45.0874" lon="4.2176">
        <ele>996.40002441406</ele>
        <time>2019-08-11T06:01:25.000Z</time>
      </trkpt>
      <trkpt lat="45.08735" lon="4.21759">
        <ele>996</ele>
        <time>2019-08-11T06:01:26.000Z</time>
      </trkpt>
      <trkpt lat="45.0873" lon="4.2176">
        <ele>995.59997558594</ele>
        <time>2019-08-11T06:01:27.000Z</time>
      </trkpt>
      <trkpt lat="45.08725" lon="4.21765">
        <ele>994.79998779297</ele>
        <time>2019-08-11T06:01:28.000Z</time>
      </trkpt>
      <trkpt lat="45.08721" lon="4.21773">
        <ele>994</ele>
        <time>2019-08-11T06:01:29.000Z</time>
      </trkpt>
      <trkpt lat="45.08719" lon="4.21782">
        <ele>993.59997558594</ele>
        <time>2019-08-11T06:01:30.000Z</time>
      </trkpt>
      <trkpt lat="45.08716" lon="4.2179">
        <ele>993.40002441406</ele>
        <time>2019-08-11T06:01:31.000Z</time>
      </trkpt>
      <trkpt lat="45.08714" lon="4.21798">
        <ele>993.40002441406</ele>
        <time>2019-08-11T06:01:32.000Z</time>
      </trkpt>
      <trkpt lat="45.08712" lon="4.21806">
        <ele>993.40002441406</ele>
        <time>2019-08-11T06:01:33.000Z</time>
      </trkpt>
      <trkpt lat="45.0871" lon="4.21813">
        <ele>993.59997558594</ele>
        <time>2019-08-11T06:01:34.000Z</time>
      </trkpt>
      <trkpt lat="45.08697" lon="4.21852">
        <ele>994.59997558594</ele>
        <time>2019-08-11T06:01:40.000Z</time>
      </trkpt>
      <trkpt lat="45.08695" lon="4.21857">
        <ele>994.59997558594</ele>
        <time>2019-08-11T06:01:41.000Z</time>
      </trkpt>
      <trkpt lat="45.08692" lon="4.21862">
        <ele>994.79998779297</ele>
        <time>2019-08-11T06:01:42.000Z</time>
      </trkpt>
      <trkpt lat="45.08689" lon="4.21865">
        <ele>995</ele>
        <time>2019-08-11T06:01:43.000Z</time>
      </trkpt>
      <trkpt lat="45.08686" lon="4.21869">
        <ele>995.20001220703</ele>
        <time>2019-08-11T06:01:44.000Z</time>
      </trkpt>
      <trkpt lat="45.08684" lon="4.21871">
        <ele>995.40002441406</ele>
        <time>2019-08-11T06:01:45.000Z</time>
      </trkpt>
      <trkpt lat="45.08666" lon="4.21891">
        <ele>998.79998779297</ele>
        <time>2019-08-11T06:01:54.000Z</time>
      </trkpt>
      <trkpt lat="45.08658" lon="4.21895">
        <ele>1000.5999755859</ele>
        <time>2019-08-11T06:02:00.000Z</time>
      </trkpt>
      <trkpt lat="45.08647" lon="4.21908">
        <ele>1003.799987793</ele>
        <time>2019-08-11T06:02:10.000Z</time>
      </trkpt>
      <trkpt lat="45.08626" lon="4.21927">
        <ele>1005.5999755859</ele>
        <time>2019-08-11T06:02:17.000Z</time>
      </trkpt>
      <trkpt lat="45.08611" lon="4.2195">
        <ele>1008.200012207</ele>
        <time>2019-08-11T06:02:28.000Z</time>
      </trkpt>
      <trkpt lat="45.08595" lon="4.21969">
        <ele>1011.4000244141</ele>
        <time>2019-08-11T06:02:42.000Z</time>
      </trkpt>
      <trkpt lat="45.0859" lon="4.21975">
        <ele>1012.5999755859</ele>
        <time>2019-08-11T06:02:48.000Z</time>
      </trkpt>
      <trkpt lat="45.08571" lon="4.2199">
        <ele>1015.5999755859</ele>
        <time>2019-08-11T06:03:05.000Z</time>
      </trkpt>
      <trkpt lat="45.08559" lon="4.21997">
        <ele>1018.200012207</ele>
        <time>2019-08-11T06:03:17.000Z</time>
      </trkpt>
      <trkpt lat="45.08554" lon="4.21998">
        <ele>1018.799987793</ele>
        <time>2019-08-11T06:03:20.000Z</time>
      </trkpt>
      <trkpt lat="45.08514" lon="4.22019">
        <ele>1022</ele>
        <time>2019-08-11T06:03:37.000Z</time>
      </trkpt>
      <trkpt lat="45.0847" lon="4.22047">
        <ele>1025.1999511719</ele>
        <time>2019-08-11T06:03:59.000Z</time>
      </trkpt>
      <trkpt lat="45.08418" lon="4.22097">
        <ele>1027.5999755859</ele>
        <time>2019-08-11T06:04:21.000Z</time>
      </trkpt>
      <trkpt lat="45.0837" lon="4.22154">
        <ele>1030.5999755859</ele>
        <time>2019-08-11T06:04:45.000Z</time>
      </trkpt>
      <trkpt lat="45.08331" lon="4.222">
        <ele>1034</ele>
        <time>2019-08-11T06:05:04.000Z</time>
      </trkpt>
      <trkpt lat="45.08301" lon="4.22235">
        <ele>1037.1999511719</ele>
        <time>2019-08-11T06:05:19.000Z</time>
      </trkpt>
      <trkpt lat="45.08261" lon="4.22298">
        <ele>1039.4000244141</ele>
        <time>2019-08-11T06:05:39.000Z</time>
      </trkpt>
      <trkpt lat="45.08241" lon="4.22322">
        <ele>1039.1999511719</ele>
        <time>2019-08-11T06:05:48.000Z</time>
      </trkpt>
      <trkpt lat="45.08241" lon="4.22325">
        <ele>1039.1999511719</ele>
        <time>2019-08-11T06:05:49.000Z</time>
      </trkpt>
      <trkpt lat="45.08242" lon="4.22329">
        <ele>1039.4000244141</ele>
        <time>2019-08-11T06:05:50.000Z</time>
      </trkpt>
      <trkpt lat="45.08244" lon="4.22332">
        <ele>1039.1999511719</ele>
        <time>2019-08-11T06:05:51.000Z</time>
      </trkpt>
      <trkpt lat="45.08246" lon="4.22334">
        <ele>1039</ele>
        <time>2019-08-11T06:05:52.000Z</time>
      </trkpt>
      <trkpt lat="45.08249" lon="4.22335">
        <ele>1038.8000488281</ele>
        <time>2019-08-11T06:05:53.000Z</time>
      </trkpt>
      <trkpt lat="45.08253" lon="4.22336">
        <ele>1038.5999755859</ele>
        <time>2019-08-11T06:05:54.000Z</time>
      </trkpt>
      <trkpt lat="45.08257" lon="4.22338">
        <ele>1038.1999511719</ele>
        <time>2019-08-11T06:05:55.000Z</time>
      </trkpt>
      <trkpt lat="45.08261" lon="4.2234">
        <ele>1037.5999755859</ele>
        <time>2019-08-11T06:05:56.000Z</time>
      </trkpt>
      <trkpt lat="45.08265" lon="4.22344">
        <ele>1037.4000244141</ele>
        <time>2019-08-11T06:05:57.000Z</time>
      </trkpt>
      <trkpt lat="45.08269" lon="4.22348">
        <ele>1037.1999511719</ele>
        <time>2019-08-11T06:05:58.000Z</time>
      </trkpt>
      <trkpt lat="45.08273" lon="4.22352">
        <ele>1037.1999511719</ele>
        <time>2019-08-11T06:05:59.000Z</time>
      </trkpt>
      <trkpt lat="45.08282" lon="4.22361">
        <ele>1037</ele>
        <time>2019-08-11T06:06:01.000Z</time>
      </trkpt>
      <trkpt lat="45.08315" lon="4.22382">
        <ele>1037.4000244141</ele>
        <time>2019-08-11T06:06:08.000Z</time>
      </trkpt>
      <trkpt lat="45.08364" lon="4.22383">
        <ele>1038.8000488281</ele>
        <time>2019-08-11T06:06:20.000Z</time>
      </trkpt>
      <trkpt lat="45.08385" lon="4.22384">
        <ele>1038.1999511719</ele>
        <time>2019-08-11T06:06:24.000Z</time>
      </trkpt>
      <trkpt lat="45.08444" lon="4.22394">
        <ele>1037</ele>
        <time>2019-08-11T06:06:36.000Z</time>
      </trkpt>
      <trkpt lat="45.08449" lon="4.22397">
        <ele>1036.8000488281</ele>
        <time>2019-08-11T06:06:37.000Z</time>
      </trkpt>
      <trkpt lat="45.08505" lon="4.2243">
        <ele>1034</ele>
        <time>2019-08-11T06:06:47.000Z</time>
      </trkpt>
      <trkpt lat="45.08551" lon="4.22457">
        <ele>1033.8000488281</ele>
        <time>2019-08-11T06:06:55.000Z</time>
      </trkpt>
      <trkpt lat="45.08567" lon="4.22465">
        <ele>1034.4000244141</ele>
        <time>2019-08-11T06:06:58.000Z</time>
      </trkpt>
      <trkpt lat="45.08573" lon="4.22466">
        <ele>1034.8000488281</ele>
        <time>2019-08-11T06:06:59.000Z</time>
      </trkpt>
      <trkpt lat="45.08615" lon="4.22477">
        <ele>1031.8000488281</ele>
        <time>2019-08-11T06:07:06.000Z</time>
      </trkpt>
      <trkpt lat="45.08635" lon="4.22484">
        <ele>1030.4000244141</ele>
        <time>2019-08-11T06:07:09.000Z</time>
      </trkpt>
      <trkpt lat="45.08641" lon="4.22488">
        <ele>1030.1999511719</ele>
        <time>2019-08-11T06:07:10.000Z</time>
      </trkpt>
      <trkpt lat="45.08648" lon="4.22493">
        <ele>1030</ele>
        <time>2019-08-11T06:07:11.000Z</time>
      </trkpt>
      <trkpt lat="45.08707" lon="4.22541">
        <ele>1027.8000488281</ele>
        <time>2019-08-11T06:07:20.000Z</time>
      </trkpt>
      <trkpt lat="45.08718" lon="4.22553">
        <ele>1027.1999511719</ele>
        <time>2019-08-11T06:07:22.000Z</time>
      </trkpt>
      <trkpt lat="45.08763" lon="4.22605">
        <ele>1026.4000244141</ele>
        <time>2019-08-11T06:07:31.000Z</time>
      </trkpt>
      <trkpt lat="45.08767" lon="4.22611">
        <ele>1026.4000244141</ele>
        <time>2019-08-11T06:07:32.000Z</time>
      </trkpt>
      <trkpt lat="45.08773" lon="4.22617">
        <ele>1026.4000244141</ele>
        <time>2019-08-11T06:07:33.000Z</time>
      </trkpt>
      <trkpt lat="45.08837" lon="4.22685">
        <ele>1025.8000488281</ele>
        <time>2019-08-11T06:07:43.000Z</time>
      </trkpt>
      <trkpt lat="45.08844" lon="4.22692">
        <ele>1025.5999755859</ele>
        <time>2019-08-11T06:07:44.000Z</time>
      </trkpt>
      <trkpt lat="45.08864" lon="4.22718">
        <ele>1025.5999755859</ele>
        <time>2019-08-11T06:07:48.000Z</time>
      </trkpt>
      <trkpt lat="45.08868" lon="4.22724">
        <ele>1025.4000244141</ele>
        <time>2019-08-11T06:07:49.000Z</time>
      </trkpt>
      <trkpt lat="45.08872" lon="4.2273">
        <ele>1025.4000244141</ele>
        <time>2019-08-11T06:07:50.000Z</time>
      </trkpt>
      <trkpt lat="45.08874" lon="4.22737">
        <ele>1025.4000244141</ele>
        <time>2019-08-11T06:07:51.000Z</time>
      </trkpt>
      <trkpt lat="45.08874" lon="4.22742">
        <ele>1025.1999511719</ele>
        <time>2019-08-11T06:07:52.000Z</time>
      </trkpt>
      <trkpt lat="45.08873" lon="4.22747">
        <ele>1025.1999511719</ele>
        <time>2019-08-11T06:07:53.000Z</time>
      </trkpt>
      <trkpt lat="45.08871" lon="4.22752">
        <ele>1025.1999511719</ele>
        <time>2019-08-11T06:07:54.000Z</time>
      </trkpt>
      <trkpt lat="45.08869" lon="4.22757">
        <ele>1025</ele>
        <time>2019-08-11T06:07:55.000Z</time>
      </trkpt>
      <trkpt lat="45.08867" lon="4.22762">
        <ele>1024.5999755859</ele>
        <time>2019-08-11T06:07:56.000Z</time>
      </trkpt>
      <trkpt lat="45.08865" lon="4.22767">
        <ele>1024.4000244141</ele>
        <time>2019-08-11T06:07:57.000Z</time>
      </trkpt>
      <trkpt lat="45.08843" lon="4.22833">
        <ele>1023.4000244141</ele>
        <time>2019-08-11T06:08:07.000Z</time>
      </trkpt>
      <trkpt lat="45.08815" lon="4.22909">
        <ele>1024</ele>
        <time>2019-08-11T06:08:18.000Z</time>
      </trkpt>
      <trkpt lat="45.08784" lon="4.22984">
        <ele>1024.8000488281</ele>
        <time>2019-08-11T06:08:30.000Z</time>
      </trkpt>
      <trkpt lat="45.08776" lon="4.23007">
        <ele>1025</ele>
        <time>2019-08-11T06:08:34.000Z</time>
      </trkpt>
      <trkpt lat="45.08774" lon="4.23013">
        <ele>1024.8000488281</ele>
        <time>2019-08-11T06:08:35.000Z</time>
      </trkpt>
      <trkpt lat="45.08759" lon="4.23058">
        <ele>1025</ele>
        <time>2019-08-11T06:08:42.000Z</time>
      </trkpt>
      <trkpt lat="45.08744" lon="4.23096">
        <ele>1024.5999755859</ele>
        <time>2019-08-11T06:08:48.000Z</time>
      </trkpt>
      <trkpt lat="45.08739" lon="4.23107">
        <ele>1025</ele>
        <time>2019-08-11T06:08:50.000Z</time>
      </trkpt>
      <trkpt lat="45.0872" lon="4.23159">
        <ele>1025.4000244141</ele>
        <time>2019-08-11T06:08:59.000Z</time>
      </trkpt>
      <trkpt lat="45.08715" lon="4.23175">
        <ele>1025.4000244141</ele>
        <time>2019-08-11T06:09:02.000Z</time>
      </trkpt>
      <trkpt lat="45.08696" lon="4.23253">
        <ele>1026.1999511719</ele>
        <time>2019-08-11T06:09:17.000Z</time>
      </trkpt>
      <trkpt lat="45.08697" lon="4.23287">
        <ele>1025.5999755859</ele>
        <time>2019-08-11T06:09:24.000Z</time>
      </trkpt>
      <trkpt lat="45.08696" lon="4.23312">
        <ele>1024.5999755859</ele>
        <time>2019-08-11T06:09:29.000Z</time>
      </trkpt>
      <trkpt lat="45.08694" lon="4.23328">
        <ele>1023.200012207</ele>
        <time>2019-08-11T06:09:32.000Z</time>
      </trkpt>
      <trkpt lat="45.08693" lon="4.23339">
        <ele>1022</ele>
        <time>2019-08-11T06:09:35.000Z</time>
      </trkpt>
      <trkpt lat="45.08691" lon="4.2334">
        <ele>1021.799987793</ele>
        <time>2019-08-11T06:09:36.000Z</time>
      </trkpt>
      <trkpt lat="45.0869" lon="4.23342">
        <ele>1021.4000244141</ele>
        <time>2019-08-11T06:09:37.000Z</time>
      </trkpt>
      <trkpt lat="45.08688" lon="4.23342">
        <ele>1021.4000244141</ele>
        <time>2019-08-11T06:09:38.000Z</time>
      </trkpt>
      <trkpt lat="45.08686" lon="4.23342">
        <ele>1021.4000244141</ele>
        <time>2019-08-11T06:09:39.000Z</time>
      </trkpt>
      <trkpt lat="45.08683" lon="4.23342">
        <ele>1021.4000244141</ele>
        <time>2019-08-11T06:09:40.000Z</time>
      </trkpt>
      <trkpt lat="45.0863" lon="4.23353">
        <ele>1019.799987793</ele>
        <time>2019-08-11T06:09:55.000Z</time>
      </trkpt>
      <trkpt lat="45.08626" lon="4.23357">
        <ele>1019.200012207</ele>
        <time>2019-08-11T06:09:56.000Z</time>
      </trkpt>
      <trkpt lat="45.08621" lon="4.23361">
        <ele>1018.5999755859</ele>
        <time>2019-08-11T06:09:57.000Z</time>
      </trkpt>
      <trkpt lat="45.08615" lon="4.23366">
        <ele>1018.4000244141</ele>
        <time>2019-08-11T06:09:58.000Z</time>
      </trkpt>
      <trkpt lat="45.08597" lon="4.23383">
        <ele>1018</ele>
        <time>2019-08-11T06:10:02.000Z</time>
      </trkpt>
      <trkpt lat="45.08591" lon="4.23392">
        <ele>1018</ele>
        <time>2019-08-11T06:10:04.000Z</time>
      </trkpt>
      <trkpt lat="45.08589" lon="4.23397">
        <ele>1018</ele>
        <time>2019-08-11T06:10:05.000Z</time>
      </trkpt>
      <trkpt lat="45.08588" lon="4.23402">
        <ele>1018</ele>
        <time>2019-08-11T06:10:06.000Z</time>
      </trkpt>
      <trkpt lat="45.08589" lon="4.23406">
        <ele>1018</ele>
        <time>2019-08-11T06:10:07.000Z</time>
      </trkpt>
      <trkpt lat="45.08589" lon="4.2341">
        <ele>1017.799987793</ele>
        <time>2019-08-11T06:10:08.000Z</time>
      </trkpt>
      <trkpt lat="45.08589" lon="4.23415">
        <ele>1017.799987793</ele>
        <time>2019-08-11T06:10:09.000Z</time>
      </trkpt>
      <trkpt lat="45.08587" lon="4.2342">
        <ele>1017.5999755859</ele>
        <time>2019-08-11T06:10:10.000Z</time>
      </trkpt>
      <trkpt lat="45.08585" lon="4.23423">
        <ele>1017.4000244141</ele>
        <time>2019-08-11T06:10:11.000Z</time>
      </trkpt>
      <trkpt lat="45.08582" lon="4.23427">
        <ele>1017.200012207</ele>
        <time>2019-08-11T06:10:12.000Z</time>
      </trkpt>
      <trkpt lat="45.08579" lon="4.2343">
        <ele>1017</ele>
        <time>2019-08-11T06:10:13.000Z</time>
      </trkpt>
      <trkpt lat="45.08576" lon="4.23433">
        <ele>1017</ele>
        <time>2019-08-11T06:10:14.000Z</time>
      </trkpt>
      <trkpt lat="45.08573" lon="4.23437">
        <ele>1017</ele>
        <time>2019-08-11T06:10:15.000Z</time>
      </trkpt>
      <trkpt lat="45.08523" lon="4.23482">
        <ele>1016</ele>
        <time>2019-08-11T06:10:31.000Z</time>
      </trkpt>
      <trkpt lat="45.08499" lon="4.23506">
        <ele>1012.5999755859</ele>
        <time>2019-08-11T06:10:37.000Z</time>
      </trkpt>
      <trkpt lat="45.08494" lon="4.2351">
        <ele>1012</ele>
        <time>2019-08-11T06:10:38.000Z</time>
      </trkpt>
      <trkpt lat="45.08488" lon="4.23513">
        <ele>1011.799987793</ele>
        <time>2019-08-11T06:10:39.000Z</time>
      </trkpt>
      <trkpt lat="45.08481" lon="4.23515">
        <ele>1010.5999755859</ele>
        <time>2019-08-11T06:10:40.000Z</time>
      </trkpt>
      <trkpt lat="45.08475" lon="4.23516">
        <ele>1009.4000244141</ele>
        <time>2019-08-11T06:10:41.000Z</time>
      </trkpt>
      <trkpt lat="45.08469" lon="4.23516">
        <ele>1008.4000244141</ele>
        <time>2019-08-11T06:10:42.000Z</time>
      </trkpt>
      <trkpt lat="45.08464" lon="4.23516">
        <ele>1008</ele>
        <time>2019-08-11T06:10:43.000Z</time>
      </trkpt>
      <trkpt lat="45.0846" lon="4.23514">
        <ele>1007.799987793</ele>
        <time>2019-08-11T06:10:44.000Z</time>
      </trkpt>
      <trkpt lat="45.08455" lon="4.23511">
        <ele>1007.4000244141</ele>
        <time>2019-08-11T06:10:45.000Z</time>
      </trkpt>
      <trkpt lat="45.08452" lon="4.2351">
        <ele>1007</ele>
        <time>2019-08-11T06:10:46.000Z</time>
      </trkpt>
      <trkpt lat="45.08448" lon="4.2351">
        <ele>1006.5999755859</ele>
        <time>2019-08-11T06:10:47.000Z</time>
      </trkpt>
      <trkpt lat="45.08444" lon="4.23513">
        <ele>1006</ele>
        <time>2019-08-11T06:10:48.000Z</time>
      </trkpt>
      <trkpt lat="45.08441" lon="4.23518">
        <ele>1004.799987793</ele>
        <time>2019-08-11T06:10:49.000Z</time>
      </trkpt>
      <trkpt lat="45.08438" lon="4.23525">
        <ele>1003.4000244141</ele>
        <time>2019-08-11T06:10:50.000Z</time>
      </trkpt>
      <trkpt lat="45.08436" lon="4.23531">
        <ele>1002.200012207</ele>
        <time>2019-08-11T06:10:51.000Z</time>
      </trkpt>
      <trkpt lat="45.08435" lon="4.23539">
        <ele>1001.4000244141</ele>
        <time>2019-08-11T06:10:52.000Z</time>
      </trkpt>
      <trkpt lat="45.08434" lon="4.23547">
        <ele>1000.799987793</ele>
        <time>2019-08-11T06:10:53.000Z</time>
      </trkpt>
      <trkpt lat="45.08433" lon="4.23554">
        <ele>1000</ele>
        <time>2019-08-11T06:10:54.000Z</time>
      </trkpt>
      <trkpt lat="45.08431" lon="4.23562">
        <ele>999.40002441406</ele>
        <time>2019-08-11T06:10:55.000Z</time>
      </trkpt>
      <trkpt lat="45.08428" lon="4.23569">
        <ele>999</ele>
        <time>2019-08-11T06:10:56.000Z</time>
      </trkpt>
      <trkpt lat="45.08424" lon="4.23576">
        <ele>998.79998779297</ele>
        <time>2019-08-11T06:10:57.000Z</time>
      </trkpt>
      <trkpt lat="45.0842" lon="4.23581">
        <ele>998.40002441406</ele>
        <time>2019-08-11T06:10:58.000Z</time>
      </trkpt>
      <trkpt lat="45.08416" lon="4.23584">
        <ele>998.40002441406</ele>
        <time>2019-08-11T06:10:59.000Z</time>
      </trkpt>
      <trkpt lat="45.08412" lon="4.23587">
        <ele>998.79998779297</ele>
        <time>2019-08-11T06:11:00.000Z</time>
      </trkpt>
      <trkpt lat="45.08398" lon="4.23598">
        <ele>1001.200012207</ele>
        <time>2019-08-11T06:11:05.000Z</time>
      </trkpt>
      <trkpt lat="45.08391" lon="4.23601">
        <ele>1002.4000244141</ele>
        <time>2019-08-11T06:11:08.000Z</time>
      </trkpt>
      <trkpt lat="45.0838" lon="4.23605">
        <ele>1003.4000244141</ele>
        <time>2019-08-11T06:11:12.000Z</time>
      </trkpt>
      <trkpt lat="45.08373" lon="4.23609">
        <ele>1003.5999755859</ele>
        <time>2019-08-11T06:11:15.000Z</time>
      </trkpt>
      <trkpt lat="45.08367" lon="4.23613">
        <ele>1004.200012207</ele>
        <time>2019-08-11T06:11:18.000Z</time>
      </trkpt>
      <trkpt lat="45.0836" lon="4.23618">
        <ele>1005.5999755859</ele>
        <time>2019-08-11T06:11:22.000Z</time>
      </trkpt>
      <trkpt lat="45.08356" lon="4.23625">
        <ele>1006.4000244141</ele>
        <time>2019-08-11T06:11:26.000Z</time>
      </trkpt>
      <trkpt lat="45.08352" lon="4.23631">
        <ele>1007.4000244141</ele>
        <time>2019-08-11T06:11:29.000Z</time>
      </trkpt>
      <trkpt lat="45.08349" lon="4.23637">
        <ele>1008.4000244141</ele>
        <time>2019-08-11T06:11:33.000Z</time>
      </trkpt>
      <trkpt lat="45.08345" lon="4.23644">
        <ele>1008.799987793</ele>
        <time>2019-08-11T06:11:37.000Z</time>
      </trkpt>
      <trkpt lat="45.08342" lon="4.23653">
        <ele>1009.4000244141</ele>
        <time>2019-08-11T06:11:41.000Z</time>
      </trkpt>
      <trkpt lat="45.08338" lon="4.23667">
        <ele>1011</ele>
        <time>2019-08-11T06:11:49.000Z</time>
      </trkpt>
      <trkpt lat="45.08335" lon="4.23697">
        <ele>1014</ele>
        <time>2019-08-11T06:12:04.000Z</time>
      </trkpt>
      <trkpt lat="45.08325" lon="4.23726">
        <ele>1017.200012207</ele>
        <time>2019-08-11T06:12:20.000Z</time>
      </trkpt>
      <trkpt lat="45.08321" lon="4.23734">
        <ele>1018</ele>
        <time>2019-08-11T06:12:25.000Z</time>
      </trkpt>
      <trkpt lat="45.0832" lon="4.23736">
        <ele>1018.200012207</ele>
        <time>2019-08-11T06:12:26.000Z</time>
      </trkpt>
      <trkpt lat="45.0832" lon="4.23738">
        <ele>1018.200012207</ele>
        <time>2019-08-11T06:12:27.000Z</time>
      </trkpt>
      <trkpt lat="45.08286" lon="4.23811">
        <ele>1021.200012207</ele>
        <time>2019-08-11T06:12:57.000Z</time>
      </trkpt>
      <trkpt lat="45.08272" lon="4.23861">
        <ele>1024.4000244141</ele>
        <time>2019-08-11T06:13:15.000Z</time>
      </trkpt>
      <trkpt lat="45.08282" lon="4.23944">
        <ele>1026.8000488281</ele>
        <time>2019-08-11T06:13:37.000Z</time>
      </trkpt>
      <trkpt lat="45.0828" lon="4.23989">
        <ele>1028.1999511719</ele>
        <time>2019-08-11T06:13:50.000Z</time>
      </trkpt>
      <trkpt lat="45.08277" lon="4.24019">
        <ele>1031.5999755859</ele>
        <time>2019-08-11T06:14:04.000Z</time>
      </trkpt>
      <trkpt lat="45.0828" lon="4.24044">
        <ele>1034.5999755859</ele>
        <time>2019-08-11T06:14:16.000Z</time>
      </trkpt>
      <trkpt lat="45.08274" lon="4.24066">
        <ele>1037.8000488281</ele>
        <time>2019-08-11T06:14:28.000Z</time>
      </trkpt>
      <trkpt lat="45.08267" lon="4.24077">
        <ele>1039.5999755859</ele>
        <time>2019-08-11T06:14:35.000Z</time>
      </trkpt>
      <trkpt lat="45.08265" lon="4.24081">
        <ele>1040</ele>
        <time>2019-08-11T06:14:38.000Z</time>
      </trkpt>
      <trkpt lat="45.08262" lon="4.24103">
        <ele>1043.1999511719</ele>
        <time>2019-08-11T06:14:53.000Z</time>
      </trkpt>
      <trkpt lat="45.0826" lon="4.24113">
        <ele>1044.1999511719</ele>
        <time>2019-08-11T06:14:58.000Z</time>
      </trkpt>
      <trkpt lat="45.08243" lon="4.2414">
        <ele>1046.5999755859</ele>
        <time>2019-08-11T06:15:12.000Z</time>
      </trkpt>
      <trkpt lat="45.08242" lon="4.24141">
        <ele>1047</ele>
        <time>2019-08-11T06:15:13.000Z</time>
      </trkpt>
      <trkpt lat="45.08242" lon="4.24143">
        <ele>1047.1999511719</ele>
        <time>2019-08-11T06:15:14.000Z</time>
      </trkpt>
      <trkpt lat="45.08242" lon="4.24144">
        <ele>1047.4000244141</ele>
        <time>2019-08-11T06:15:15.000Z</time>
      </trkpt>
      <trkpt lat="45.08241" lon="4.24146">
        <ele>1047.5999755859</ele>
        <time>2019-08-11T06:15:16.000Z</time>
      </trkpt>
      <trkpt lat="45.0824" lon="4.24149">
        <ele>1047.8000488281</ele>
        <time>2019-08-11T06:15:17.000Z</time>
      </trkpt>
      <trkpt lat="45.08239" lon="4.24151">
        <ele>1048</ele>
        <time>2019-08-11T06:15:18.000Z</time>
      </trkpt>
      <trkpt lat="45.08237" lon="4.24153">
        <ele>1048.1999511719</ele>
        <time>2019-08-11T06:15:19.000Z</time>
      </trkpt>
      <trkpt lat="45.08237" lon="4.24154">
        <ele>1048.1999511719</ele>
        <time>2019-08-11T06:15:20.000Z</time>
      </trkpt>
      <trkpt lat="45.08237" lon="4.24157">
        <ele>1048.4000244141</ele>
        <time>2019-08-11T06:15:21.000Z</time>
      </trkpt>
      <trkpt lat="45.08227" lon="4.24182">
        <ele>1050.4000244141</ele>
        <time>2019-08-11T06:15:33.000Z</time>
      </trkpt>
      <trkpt lat="45.08227" lon="4.24184">
        <ele>1050.5999755859</ele>
        <time>2019-08-11T06:15:34.000Z</time>
      </trkpt>
      <trkpt lat="45.08226" lon="4.24187">
        <ele>1050.8000488281</ele>
        <time>2019-08-11T06:15:35.000Z</time>
      </trkpt>
      <trkpt lat="45.08226" lon="4.24189">
        <ele>1051</ele>
        <time>2019-08-11T06:15:36.000Z</time>
      </trkpt>
      <trkpt lat="45.08226" lon="4.24192">
        <ele>1051.1999511719</ele>
        <time>2019-08-11T06:15:37.000Z</time>
      </trkpt>
      <trkpt lat="45.08227" lon="4.24194">
        <ele>1051.1999511719</ele>
        <time>2019-08-11T06:15:38.000Z</time>
      </trkpt>
      <trkpt lat="45.08238" lon="4.2427">
        <ele>1054.4000244141</ele>
        <time>2019-08-11T06:16:06.000Z</time>
      </trkpt>
      <trkpt lat="45.08212" lon="4.24346">
        <ele>1055.1999511719</ele>
        <time>2019-08-11T06:16:24.000Z</time>
      </trkpt>
      <trkpt lat="45.08194" lon="4.24402">
        <ele>1055.1999511719</ele>
        <time>2019-08-11T06:16:37.000Z</time>
      </trkpt>
      <trkpt lat="45.08169" lon="4.24441">
        <ele>1054.8000488281</ele>
        <time>2019-08-11T06:16:46.000Z</time>
      </trkpt>
      <trkpt lat="45.08121" lon="4.24489">
        <ele>1055.5999755859</ele>
        <time>2019-08-11T06:17:00.000Z</time>
      </trkpt>
      <trkpt lat="45.08085" lon="4.2455">
        <ele>1058.4000244141</ele>
        <time>2019-08-11T06:17:19.000Z</time>
      </trkpt>
      <trkpt lat="45.08056" lon="4.24622">
        <ele>1061.4000244141</ele>
        <time>2019-08-11T06:17:41.000Z</time>
      </trkpt>
      <trkpt lat="45.08024" lon="4.24685">
        <ele>1064.4000244141</ele>
        <time>2019-08-11T06:18:00.000Z</time>
      </trkpt>
      <trkpt lat="45.07986" lon="4.2475">
        <ele>1067</ele>
        <time>2019-08-11T06:18:21.000Z</time>
      </trkpt>
      <trkpt lat="45.07925" lon="4.24747">
        <ele>1069.5999755859</ele>
        <time>2019-08-11T06:18:43.000Z</time>
      </trkpt>
      <trkpt lat="45.07869" lon="4.24737">
        <ele>1072.5999755859</ele>
        <time>2019-08-11T06:19:04.000Z</time>
      </trkpt>
      <trkpt lat="45.07856" lon="4.24744">
        <ele>1073</ele>
        <time>2019-08-11T06:19:10.000Z</time>
      </trkpt>
      <trkpt lat="45.07854" lon="4.24744">
        <ele>1073.1999511719</ele>
        <time>2019-08-11T06:19:11.000Z</time>
      </trkpt>
      <trkpt lat="45.07852" lon="4.24744">
        <ele>1073.4000244141</ele>
        <time>2019-08-11T06:19:12.000Z</time>
      </trkpt>
      <trkpt lat="45.0785" lon="4.24743">
        <ele>1073.4000244141</ele>
        <time>2019-08-11T06:19:13.000Z</time>
      </trkpt>
      <trkpt lat="45.07848" lon="4.24742">
        <ele>1073.4000244141</ele>
        <time>2019-08-11T06:19:14.000Z</time>
      </trkpt>
      <trkpt lat="45.07829" lon="4.24738">
        <ele>1074.1999511719</ele>
        <time>2019-08-11T06:19:24.000Z</time>
      </trkpt>
      <trkpt lat="45.07826" lon="4.24741">
        <ele>1074.1999511719</ele>
        <time>2019-08-11T06:19:25.000Z</time>
      </trkpt>
      <trkpt lat="45.07819" lon="4.24761">
        <ele>1075.1999511719</ele>
        <time>2019-08-11T06:19:32.000Z</time>
      </trkpt>
      <trkpt lat="45.07844" lon="4.24846">
        <ele>1076.5999755859</ele>
        <time>2019-08-11T06:19:54.000Z</time>
      </trkpt>
      <trkpt lat="45.07836" lon="4.24933">
        <ele>1078.8000488281</ele>
        <time>2019-08-11T06:20:13.000Z</time>
      </trkpt>
      <trkpt lat="45.07845" lon="4.24969">
        <ele>1076.8000488281</ele>
        <time>2019-08-11T06:20:21.000Z</time>
      </trkpt>
      <trkpt lat="45.07849" lon="4.24978">
        <ele>1075.1999511719</ele>
        <time>2019-08-11T06:20:22.000Z</time>
      </trkpt>
      <trkpt lat="45.07858" lon="4.24998">
        <ele>1071.5999755859</ele>
        <time>2019-08-11T06:20:24.000Z</time>
      </trkpt>
      <trkpt lat="45.0787" lon="4.25019">
        <ele>1067.8000488281</ele>
        <time>2019-08-11T06:20:26.000Z</time>
      </trkpt>
      <trkpt lat="45.07881" lon="4.25042">
        <ele>1065.8000488281</ele>
        <time>2019-08-11T06:20:28.000Z</time>
      </trkpt>
      <trkpt lat="45.07884" lon="4.25054">
        <ele>1065.8000488281</ele>
        <time>2019-08-11T06:20:29.000Z</time>
      </trkpt>
      <trkpt lat="45.07891" lon="4.25076">
        <ele>1066</ele>
        <time>2019-08-11T06:20:31.000Z</time>
      </trkpt>
      <trkpt lat="45.07897" lon="4.25085">
        <ele>1065.8000488281</ele>
        <time>2019-08-11T06:20:32.000Z</time>
      </trkpt>
      <trkpt lat="45.07903" lon="4.25093">
        <ele>1065.8000488281</ele>
        <time>2019-08-11T06:20:33.000Z</time>
      </trkpt>
      <trkpt lat="45.07909" lon="4.251">
        <ele>1065.5999755859</ele>
        <time>2019-08-11T06:20:34.000Z</time>
      </trkpt>
      <trkpt lat="45.07914" lon="4.25107">
        <ele>1065.5999755859</ele>
        <time>2019-08-11T06:20:35.000Z</time>
      </trkpt>
      <trkpt lat="45.07918" lon="4.25116">
        <ele>1065.8000488281</ele>
        <time>2019-08-11T06:20:36.000Z</time>
      </trkpt>
      <trkpt lat="45.0792" lon="4.25125">
        <ele>1066.4000244141</ele>
        <time>2019-08-11T06:20:37.000Z</time>
      </trkpt>
      <trkpt lat="45.07922" lon="4.25134">
        <ele>1066.5999755859</ele>
        <time>2019-08-11T06:20:38.000Z</time>
      </trkpt>
      <trkpt lat="45.07922" lon="4.25141">
        <ele>1066.5999755859</ele>
        <time>2019-08-11T06:20:39.000Z</time>
      </trkpt>
      <trkpt lat="45.07921" lon="4.25149">
        <ele>1066.8000488281</ele>
        <time>2019-08-11T06:20:40.000Z</time>
      </trkpt>
      <trkpt lat="45.07921" lon="4.25156">
        <ele>1067.1999511719</ele>
        <time>2019-08-11T06:20:41.000Z</time>
      </trkpt>
      <trkpt lat="45.07919" lon="4.25169">
        <ele>1067.5999755859</ele>
        <time>2019-08-11T06:20:43.000Z</time>
      </trkpt>
      <trkpt lat="45.07921" lon="4.252">
        <ele>1068.8000488281</ele>
        <time>2019-08-11T06:20:49.000Z</time>
      </trkpt>
      <trkpt lat="45.07931" lon="4.25276">
        <ele>1071.1999511719</ele>
        <time>2019-08-11T06:21:07.000Z</time>
      </trkpt>
      <trkpt lat="45.07937" lon="4.25308">
        <ele>1070.8000488281</ele>
        <time>2019-08-11T06:21:13.000Z</time>
      </trkpt>
      <trkpt lat="45.07938" lon="4.25313">
        <ele>1070.5999755859</ele>
        <time>2019-08-11T06:21:14.000Z</time>
      </trkpt>
      <trkpt lat="45.07944" lon="4.25377">
        <ele>1067.1999511719</ele>
        <time>2019-08-11T06:21:23.000Z</time>
      </trkpt>
      <trkpt lat="45.0795" lon="4.25427">
        <ele>1063.5999755859</ele>
        <time>2019-08-11T06:21:29.000Z</time>
      </trkpt>
      <trkpt lat="45.07951" lon="4.25435">
        <ele>1063</ele>
        <time>2019-08-11T06:21:30.000Z</time>
      </trkpt>
      <trkpt lat="45.07951" lon="4.25444">
        <ele>1062.4000244141</ele>
        <time>2019-08-11T06:21:31.000Z</time>
      </trkpt>
      <trkpt lat="45.0795" lon="4.25454">
        <ele>1061</ele>
        <time>2019-08-11T06:21:32.000Z</time>
      </trkpt>
      <trkpt lat="45.07951" lon="4.25464">
        <ele>1059.8000488281</ele>
        <time>2019-08-11T06:21:33.000Z</time>
      </trkpt>
      <trkpt lat="45.07951" lon="4.25474">
        <ele>1059.1999511719</ele>
        <time>2019-08-11T06:21:34.000Z</time>
      </trkpt>
      <trkpt lat="45.07953" lon="4.25485">
        <ele>1057.8000488281</ele>
        <time>2019-08-11T06:21:35.000Z</time>
      </trkpt>
      <trkpt lat="45.07958" lon="4.25533">
        <ele>1054.4000244141</ele>
        <time>2019-08-11T06:21:39.000Z</time>
      </trkpt>
      <trkpt lat="45.0796" lon="4.25546">
        <ele>1054.1999511719</ele>
        <time>2019-08-11T06:21:40.000Z</time>
      </trkpt>
      <trkpt lat="45.07964" lon="4.25595">
        <ele>1052.4000244141</ele>
        <time>2019-08-11T06:21:44.000Z</time>
      </trkpt>
      <trkpt lat="45.07965" lon="4.25621">
        <ele>1052.5999755859</ele>
        <time>2019-08-11T06:21:47.000Z</time>
      </trkpt>
      <trkpt lat="45.07965" lon="4.25634">
        <ele>1052.4000244141</ele>
        <time>2019-08-11T06:21:49.000Z</time>
      </trkpt>
      <trkpt lat="45.07964" lon="4.2564">
        <ele>1052.4000244141</ele>
        <time>2019-08-11T06:21:50.000Z</time>
      </trkpt>
      <trkpt lat="45.07962" lon="4.25646">
        <ele>1051.8000488281</ele>
        <time>2019-08-11T06:21:51.000Z</time>
      </trkpt>
      <trkpt lat="45.07959" lon="4.2565">
        <ele>1051.5999755859</ele>
        <time>2019-08-11T06:21:52.000Z</time>
      </trkpt>
      <trkpt lat="45.07956" lon="4.25655">
        <ele>1051.4000244141</ele>
        <time>2019-08-11T06:21:53.000Z</time>
      </trkpt>
      <trkpt lat="45.07949" lon="4.25664">
        <ele>1051.1999511719</ele>
        <time>2019-08-11T06:21:55.000Z</time>
      </trkpt>
      <trkpt lat="45.07947" lon="4.25669">
        <ele>1051</ele>
        <time>2019-08-11T06:21:56.000Z</time>
      </trkpt>
      <trkpt lat="45.07944" lon="4.25675">
        <ele>1050.5999755859</ele>
        <time>2019-08-11T06:21:57.000Z</time>
      </trkpt>
      <trkpt lat="45.07942" lon="4.25681">
        <ele>1050.1999511719</ele>
        <time>2019-08-11T06:21:58.000Z</time>
      </trkpt>
      <trkpt lat="45.07941" lon="4.25689">
        <ele>1049.8000488281</ele>
        <time>2019-08-11T06:21:59.000Z</time>
      </trkpt>
      <trkpt lat="45.0794" lon="4.25697">
        <ele>1049.4000244141</ele>
        <time>2019-08-11T06:22:00.000Z</time>
      </trkpt>
      <trkpt lat="45.0794" lon="4.25706">
        <ele>1049.1999511719</ele>
        <time>2019-08-11T06:22:01.000Z</time>
      </trkpt>
      <trkpt lat="45.0794" lon="4.25715">
        <ele>1049</ele>
        <time>2019-08-11T06:22:02.000Z</time>
      </trkpt>
      <trkpt lat="45.07941" lon="4.25724">
        <ele>1048.5999755859</ele>
        <time>2019-08-11T06:22:03.000Z</time>
      </trkpt>
      <trkpt lat="45.07944" lon="4.25731">
        <ele>1048.4000244141</ele>
        <time>2019-08-11T06:22:04.000Z</time>
      </trkpt>
      <trkpt lat="45.07948" lon="4.25738">
        <ele>1048.1999511719</ele>
        <time>2019-08-11T06:22:05.000Z</time>
      </trkpt>
      <trkpt lat="45.07952" lon="4.25744">
        <ele>1048</ele>
        <time>2019-08-11T06:22:06.000Z</time>
      </trkpt>
      <trkpt lat="45.07967" lon="4.25767">
        <ele>1046.5999755859</ele>
        <time>2019-08-11T06:22:10.000Z</time>
      </trkpt>
      <trkpt lat="45.07969" lon="4.25773">
        <ele>1046.1999511719</ele>
        <time>2019-08-11T06:22:11.000Z</time>
      </trkpt>
      <trkpt lat="45.07969" lon="4.25778">
        <ele>1046</ele>
        <time>2019-08-11T06:22:12.000Z</time>
      </trkpt>
      <trkpt lat="45.07971" lon="4.25783">
        <ele>1045.5999755859</ele>
        <time>2019-08-11T06:22:13.000Z</time>
      </trkpt>
      <trkpt lat="45.07973" lon="4.25788">
        <ele>1045</ele>
        <time>2019-08-11T06:22:14.000Z</time>
      </trkpt>
      <trkpt lat="45.07977" lon="4.25791">
        <ele>1044.4000244141</ele>
        <time>2019-08-11T06:22:15.000Z</time>
      </trkpt>
      <trkpt lat="45.07982" lon="4.25793">
        <ele>1043.8000488281</ele>
        <time>2019-08-11T06:22:16.000Z</time>
      </trkpt>
      <trkpt lat="45.07987" lon="4.25795">
        <ele>1043.1999511719</ele>
        <time>2019-08-11T06:22:17.000Z</time>
      </trkpt>
      <trkpt lat="45.07993" lon="4.25795">
        <ele>1042.8000488281</ele>
        <time>2019-08-11T06:22:18.000Z</time>
      </trkpt>
      <trkpt lat="45.08021" lon="4.25804">
        <ele>1041.8000488281</ele>
        <time>2019-08-11T06:22:23.000Z</time>
      </trkpt>
      <trkpt lat="45.08027" lon="4.25807">
        <ele>1041.5999755859</ele>
        <time>2019-08-11T06:22:24.000Z</time>
      </trkpt>
      <trkpt lat="45.08036" lon="4.25815">
        <ele>1042.1999511719</ele>
        <time>2019-08-11T06:22:26.000Z</time>
      </trkpt>
      <trkpt lat="45.08056" lon="4.25831">
        <ele>1042.5999755859</ele>
        <time>2019-08-11T06:22:31.000Z</time>
      </trkpt>
      <trkpt lat="45.08066" lon="4.25842">
        <ele>1043</ele>
        <time>2019-08-11T06:22:34.000Z</time>
      </trkpt>
      <trkpt lat="45.08075" lon="4.25852">
        <ele>1044.4000244141</ele>
        <time>2019-08-11T06:22:37.000Z</time>
      </trkpt>
      <trkpt lat="45.08082" lon="4.25862">
        <ele>1045.1999511719</ele>
        <time>2019-08-11T06:22:40.000Z</time>
      </trkpt>
      <trkpt lat="45.08086" lon="4.25872">
        <ele>1045.8000488281</ele>
        <time>2019-08-11T06:22:43.000Z</time>
      </trkpt>
      <trkpt lat="45.08085" lon="4.25884">
        <ele>1046.5999755859</ele>
        <time>2019-08-11T06:22:46.000Z</time>
      </trkpt>
      <trkpt lat="45.08082" lon="4.25897">
        <ele>1047.4000244141</ele>
        <time>2019-08-11T06:22:49.000Z</time>
      </trkpt>
      <trkpt lat="45.0808" lon="4.25909">
        <ele>1048.1999511719</ele>
        <time>2019-08-11T06:22:52.000Z</time>
      </trkpt>
      <trkpt lat="45.08077" lon="4.25928">
        <ele>1049.1999511719</ele>
        <time>2019-08-11T06:22:57.000Z</time>
      </trkpt>
      <trkpt lat="45.08076" lon="4.25948">
        <ele>1050</ele>
        <time>2019-08-11T06:23:02.000Z</time>
      </trkpt>
      <trkpt lat="45.0808" lon="4.25973">
        <ele>1051.1999511719</ele>
        <time>2019-08-11T06:23:08.000Z</time>
      </trkpt>
      <trkpt lat="45.08085" lon="4.26035">
        <ele>1051</ele>
        <time>2019-08-11T06:23:22.000Z</time>
      </trkpt>
      <trkpt lat="45.08087" lon="4.26045">
        <ele>1050.5999755859</ele>
        <time>2019-08-11T06:23:24.000Z</time>
      </trkpt>
      <trkpt lat="45.08092" lon="4.26069">
        <ele>1049.5999755859</ele>
        <time>2019-08-11T06:23:28.000Z</time>
      </trkpt>
      <trkpt lat="45.08094" lon="4.26075">
        <ele>1049.4000244141</ele>
        <time>2019-08-11T06:23:29.000Z</time>
      </trkpt>
      <trkpt lat="45.08102" lon="4.26095">
        <ele>1048.5999755859</ele>
        <time>2019-08-11T06:23:32.000Z</time>
      </trkpt>
      <trkpt lat="45.08114" lon="4.26128">
        <ele>1046.8000488281</ele>
        <time>2019-08-11T06:23:37.000Z</time>
      </trkpt>
      <trkpt lat="45.08115" lon="4.26132">
        <ele>1046.5999755859</ele>
        <time>2019-08-11T06:23:38.000Z</time>
      </trkpt>
      <trkpt lat="45.08117" lon="4.26143">
        <ele>1046</ele>
        <time>2019-08-11T06:23:43.000Z</time>
      </trkpt>
      <trkpt lat="45.08121" lon="4.26156">
        <ele>1045.4000244141</ele>
        <time>2019-08-11T06:23:46.000Z</time>
      </trkpt>
      <trkpt lat="45.0813" lon="4.26177">
        <ele>1044.5999755859</ele>
        <time>2019-08-11T06:23:50.000Z</time>
      </trkpt>
      <trkpt lat="45.08141" lon="4.26202">
        <ele>1044.1999511719</ele>
        <time>2019-08-11T06:23:54.000Z</time>
      </trkpt>
      <trkpt lat="45.08171" lon="4.26269">
        <ele>1044</ele>
        <time>2019-08-11T06:24:05.000Z</time>
      </trkpt>
      <trkpt lat="45.08178" lon="4.26286">
        <ele>1044.1999511719</ele>
        <time>2019-08-11T06:24:08.000Z</time>
      </trkpt>
      <trkpt lat="45.08183" lon="4.26297">
        <ele>1044.1999511719</ele>
        <time>2019-08-11T06:24:10.000Z</time>
      </trkpt>
      <trkpt lat="45.08186" lon="4.26302">
        <ele>1044.1999511719</ele>
        <time>2019-08-11T06:24:11.000Z</time>
      </trkpt>
      <trkpt lat="45.08188" lon="4.26306">
        <ele>1044.1999511719</ele>
        <time>2019-08-11T06:24:12.000Z</time>
      </trkpt>
      <trkpt lat="45.08191" lon="4.26312">
        <ele>1044.4000244141</ele>
        <time>2019-08-11T06:24:13.000Z</time>
      </trkpt>
      <trkpt lat="45.08193" lon="4.26317">
        <ele>1044.1999511719</ele>
        <time>2019-08-11T06:24:14.000Z</time>
      </trkpt>
      <trkpt lat="45.08195" lon="4.26323">
        <ele>1044</ele>
        <time>2019-08-11T06:24:15.000Z</time>
      </trkpt>
      <trkpt lat="45.08198" lon="4.26329">
        <ele>1044</ele>
        <time>2019-08-11T06:24:16.000Z</time>
      </trkpt>
      <trkpt lat="45.082" lon="4.26335">
        <ele>1044</ele>
        <time>2019-08-11T06:24:17.000Z</time>
      </trkpt>
      <trkpt lat="45.08201" lon="4.26341">
        <ele>1043.8000488281</ele>
        <time>2019-08-11T06:24:18.000Z</time>
      </trkpt>
      <trkpt lat="45.08202" lon="4.26347">
        <ele>1043.8000488281</ele>
        <time>2019-08-11T06:24:19.000Z</time>
      </trkpt>
      <trkpt lat="45.08203" lon="4.26354">
        <ele>1043.5999755859</ele>
        <time>2019-08-11T06:24:20.000Z</time>
      </trkpt>
      <trkpt lat="45.08215" lon="4.26437">
        <ele>1042.5999755859</ele>
        <time>2019-08-11T06:24:33.000Z</time>
      </trkpt>
      <trkpt lat="45.08229" lon="4.26473">
        <ele>1042.8000488281</ele>
        <time>2019-08-11T06:24:41.000Z</time>
      </trkpt>
      <trkpt lat="45.0823" lon="4.26479">
        <ele>1042.4000244141</ele>
        <time>2019-08-11T06:24:42.000Z</time>
      </trkpt>
      <trkpt lat="45.08239" lon="4.26524">
        <ele>1038.5999755859</ele>
        <time>2019-08-11T06:24:48.000Z</time>
      </trkpt>
      <trkpt lat="45.08242" lon="4.26541">
        <ele>1036.8000488281</ele>
        <time>2019-08-11T06:24:50.000Z</time>
      </trkpt>
      <trkpt lat="45.08243" lon="4.26566">
        <ele>1033.5999755859</ele>
        <time>2019-08-11T06:24:53.000Z</time>
      </trkpt>
      <trkpt lat="45.08244" lon="4.26575">
        <ele>1033</ele>
        <time>2019-08-11T06:24:54.000Z</time>
      </trkpt>
      <trkpt lat="45.08246" lon="4.26584">
        <ele>1032.5999755859</ele>
        <time>2019-08-11T06:24:55.000Z</time>
      </trkpt>
      <trkpt lat="45.08247" lon="4.26592">
        <ele>1032</ele>
        <time>2019-08-11T06:24:56.000Z</time>
      </trkpt>
      <trkpt lat="45.08249" lon="4.26601">
        <ele>1031.5999755859</ele>
        <time>2019-08-11T06:24:57.000Z</time>
      </trkpt>
      <trkpt lat="45.08253" lon="4.2661">
        <ele>1030.8000488281</ele>
        <time>2019-08-11T06:24:58.000Z</time>
      </trkpt>
      <trkpt lat="45.08256" lon="4.26618">
        <ele>1030.5999755859</ele>
        <time>2019-08-11T06:24:59.000Z</time>
      </trkpt>
      <trkpt lat="45.08259" lon="4.26626">
        <ele>1030.5999755859</ele>
        <time>2019-08-11T06:25:00.000Z</time>
      </trkpt>
      <trkpt lat="45.08264" lon="4.2664">
        <ele>1031</ele>
        <time>2019-08-11T06:25:02.000Z</time>
      </trkpt>
      <trkpt lat="45.08264" lon="4.26646">
        <ele>1031</ele>
        <time>2019-08-11T06:25:03.000Z</time>
      </trkpt>
      <trkpt lat="45.08264" lon="4.26652">
        <ele>1030.8000488281</ele>
        <time>2019-08-11T06:25:04.000Z</time>
      </trkpt>
      <trkpt lat="45.08263" lon="4.26658">
        <ele>1030.8000488281</ele>
        <time>2019-08-11T06:25:05.000Z</time>
      </trkpt>
      <trkpt lat="45.08261" lon="4.26664">
        <ele>1030.8000488281</ele>
        <time>2019-08-11T06:25:06.000Z</time>
      </trkpt>
      <trkpt lat="45.0826" lon="4.26669">
        <ele>1031</ele>
        <time>2019-08-11T06:25:07.000Z</time>
      </trkpt>
      <trkpt lat="45.08258" lon="4.26674">
        <ele>1031</ele>
        <time>2019-08-11T06:25:08.000Z</time>
      </trkpt>
      <trkpt lat="45.08256" lon="4.26679">
        <ele>1031</ele>
        <time>2019-08-11T06:25:09.000Z</time>
      </trkpt>
      <trkpt lat="45.08237" lon="4.26754">
        <ele>1030</ele>
        <time>2019-08-11T06:25:22.000Z</time>
      </trkpt>
      <trkpt lat="45.08237" lon="4.26761">
        <ele>1029.8000488281</ele>
        <time>2019-08-11T06:25:23.000Z</time>
      </trkpt>
      <trkpt lat="45.08236" lon="4.26847">
        <ele>1027.4000244141</ele>
        <time>2019-08-11T06:25:35.000Z</time>
      </trkpt>
      <trkpt lat="45.08235" lon="4.26895">
        <ele>1026.8000488281</ele>
        <time>2019-08-11T06:25:41.000Z</time>
      </trkpt>
      <trkpt lat="45.08236" lon="4.26948">
        <ele>1027</ele>
        <time>2019-08-11T06:25:48.000Z</time>
      </trkpt>
      <trkpt lat="45.08249" lon="4.27001">
        <ele>1023.200012207</ele>
        <time>2019-08-11T06:25:55.000Z</time>
      </trkpt>
      <trkpt lat="45.08266" lon="4.27042">
        <ele>1019</ele>
        <time>2019-08-11T06:26:00.000Z</time>
      </trkpt>
      <trkpt lat="45.08274" lon="4.27059">
        <ele>1017.200012207</ele>
        <time>2019-08-11T06:26:03.000Z</time>
      </trkpt>
      <trkpt lat="45.08276" lon="4.27065">
        <ele>1017.200012207</ele>
        <time>2019-08-11T06:26:04.000Z</time>
      </trkpt>
      <trkpt lat="45.08283" lon="4.27084">
        <ele>1013</ele>
        <time>2019-08-11T06:26:07.000Z</time>
      </trkpt>
      <trkpt lat="45.0829" lon="4.27104">
        <ele>1009.200012207</ele>
        <time>2019-08-11T06:26:10.000Z</time>
      </trkpt>
      <trkpt lat="45.08291" lon="4.27112">
        <ele>1007.799987793</ele>
        <time>2019-08-11T06:26:11.000Z</time>
      </trkpt>
      <trkpt lat="45.08293" lon="4.2712">
        <ele>1006.5999755859</ele>
        <time>2019-08-11T06:26:12.000Z</time>
      </trkpt>
      <trkpt lat="45.08297" lon="4.27141">
        <ele>1002.799987793</ele>
        <time>2019-08-11T06:26:15.000Z</time>
      </trkpt>
      <trkpt lat="45.08297" lon="4.27148">
        <ele>1001.799987793</ele>
        <time>2019-08-11T06:26:16.000Z</time>
      </trkpt>
      <trkpt lat="45.08296" lon="4.27155">
        <ele>1001.200012207</ele>
        <time>2019-08-11T06:26:17.000Z</time>
      </trkpt>
      <trkpt lat="45.08292" lon="4.2716">
        <ele>1001.200012207</ele>
        <time>2019-08-11T06:26:18.000Z</time>
      </trkpt>
      <trkpt lat="45.08289" lon="4.27166">
        <ele>1001.5999755859</ele>
        <time>2019-08-11T06:26:19.000Z</time>
      </trkpt>
      <trkpt lat="45.08287" lon="4.2717">
        <ele>1001.5999755859</ele>
        <time>2019-08-11T06:26:20.000Z</time>
      </trkpt>
      <trkpt lat="45.08269" lon="4.27221">
        <ele>998.40002441406</ele>
        <time>2019-08-11T06:26:32.000Z</time>
      </trkpt>
      <trkpt lat="45.08262" lon="4.27241">
        <ele>996.79998779297</ele>
        <time>2019-08-11T06:26:35.000Z</time>
      </trkpt>
      <trkpt lat="45.08258" lon="4.27249">
        <ele>996.59997558594</ele>
        <time>2019-08-11T06:26:36.000Z</time>
      </trkpt>
      <trkpt lat="45.0825" lon="4.27271">
        <ele>994.20001220703</ele>
        <time>2019-08-11T06:26:38.000Z</time>
      </trkpt>
      <trkpt lat="45.08247" lon="4.27282">
        <ele>993.20001220703</ele>
        <time>2019-08-11T06:26:39.000Z</time>
      </trkpt>
      <trkpt lat="45.08238" lon="4.27318">
        <ele>990.79998779297</ele>
        <time>2019-08-11T06:26:42.000Z</time>
      </trkpt>
      <trkpt lat="45.08234" lon="4.27329">
        <ele>990</ele>
        <time>2019-08-11T06:26:43.000Z</time>
      </trkpt>
      <trkpt lat="45.08228" lon="4.27339">
        <ele>989.20001220703</ele>
        <time>2019-08-11T06:26:44.000Z</time>
      </trkpt>
      <trkpt lat="45.08221" lon="4.27346">
        <ele>988.59997558594</ele>
        <time>2019-08-11T06:26:45.000Z</time>
      </trkpt>
      <trkpt lat="45.08215" lon="4.27353">
        <ele>988.59997558594</ele>
        <time>2019-08-11T06:26:46.000Z</time>
      </trkpt>
      <trkpt lat="45.08205" lon="4.27361">
        <ele>989</ele>
        <time>2019-08-11T06:26:48.000Z</time>
      </trkpt>
      <trkpt lat="45.08202" lon="4.27362">
        <ele>989.40002441406</ele>
        <time>2019-08-11T06:26:49.000Z</time>
      </trkpt>
      <trkpt lat="45.082" lon="4.27363">
        <ele>989.59997558594</ele>
        <time>2019-08-11T06:26:50.000Z</time>
      </trkpt>
      <trkpt lat="45.08199" lon="4.27365">
        <ele>989.59997558594</ele>
        <time>2019-08-11T06:26:51.000Z</time>
      </trkpt>
      <trkpt lat="45.08198" lon="4.27368">
        <ele>989.79998779297</ele>
        <time>2019-08-11T06:26:52.000Z</time>
      </trkpt>
      <trkpt lat="45.08199" lon="4.27372">
        <ele>989.59997558594</ele>
        <time>2019-08-11T06:26:53.000Z</time>
      </trkpt>
      <trkpt lat="45.082" lon="4.27375">
        <ele>989.40002441406</ele>
        <time>2019-08-11T06:26:54.000Z</time>
      </trkpt>
      <trkpt lat="45.08202" lon="4.27379">
        <ele>989</ele>
        <time>2019-08-11T06:26:55.000Z</time>
      </trkpt>
      <trkpt lat="45.08204" lon="4.27382">
        <ele>988.59997558594</ele>
        <time>2019-08-11T06:26:56.000Z</time>
      </trkpt>
      <trkpt lat="45.08208" lon="4.27386">
        <ele>988</ele>
        <time>2019-08-11T06:26:57.000Z</time>
      </trkpt>
      <trkpt lat="45.08211" lon="4.27391">
        <ele>987.40002441406</ele>
        <time>2019-08-11T06:26:58.000Z</time>
      </trkpt>
      <trkpt lat="45.08217" lon="4.27398">
        <ele>986.79998779297</ele>
        <time>2019-08-11T06:27:00.000Z</time>
      </trkpt>
      <trkpt lat="45.0822" lon="4.27402">
        <ele>986.59997558594</ele>
        <time>2019-08-11T06:27:01.000Z</time>
      </trkpt>
      <trkpt lat="45.08222" lon="4.27407">
        <ele>986.20001220703</ele>
        <time>2019-08-11T06:27:02.000Z</time>
      </trkpt>
      <trkpt lat="45.08224" lon="4.27412">
        <ele>985.79998779297</ele>
        <time>2019-08-11T06:27:03.000Z</time>
      </trkpt>
      <trkpt lat="45.08227" lon="4.27426">
        <ele>984.40002441406</ele>
        <time>2019-08-11T06:27:06.000Z</time>
      </trkpt>
      <trkpt lat="45.08218" lon="4.27448">
        <ele>982.20001220703</ele>
        <time>2019-08-11T06:27:12.000Z</time>
      </trkpt>
      <trkpt lat="45.08207" lon="4.27483">
        <ele>978.79998779297</ele>
        <time>2019-08-11T06:27:20.000Z</time>
      </trkpt>
      <trkpt lat="45.08209" lon="4.27486">
        <ele>978.20001220703</ele>
        <time>2019-08-11T06:27:21.000Z</time>
      </trkpt>
      <trkpt lat="45.08212" lon="4.2749">
        <ele>978</ele>
        <time>2019-08-11T06:27:22.000Z</time>
      </trkpt>
      <trkpt lat="45.08226" lon="4.27517">
        <ele>975.20001220703</ele>
        <time>2019-08-11T06:27:28.000Z</time>
      </trkpt>
      <trkpt lat="45.08228" lon="4.27524">
        <ele>974.59997558594</ele>
        <time>2019-08-11T06:27:29.000Z</time>
      </trkpt>
      <trkpt lat="45.08229" lon="4.2753">
        <ele>974.40002441406</ele>
        <time>2019-08-11T06:27:30.000Z</time>
      </trkpt>
      <trkpt lat="45.08228" lon="4.27535">
        <ele>974.59997558594</ele>
        <time>2019-08-11T06:27:31.000Z</time>
      </trkpt>
      <trkpt lat="45.08228" lon="4.2754">
        <ele>975</ele>
        <time>2019-08-11T06:27:32.000Z</time>
      </trkpt>
      <trkpt lat="45.08228" lon="4.27544">
        <ele>975.20001220703</ele>
        <time>2019-08-11T06:27:33.000Z</time>
      </trkpt>
      <trkpt lat="45.0823" lon="4.27548">
        <ele>975.40002441406</ele>
        <time>2019-08-11T06:27:34.000Z</time>
      </trkpt>
      <trkpt lat="45.08231" lon="4.27552">
        <ele>975.40002441406</ele>
        <time>2019-08-11T06:27:35.000Z</time>
      </trkpt>
      <trkpt lat="45.08234" lon="4.27558">
        <ele>975.40002441406</ele>
        <time>2019-08-11T06:27:36.000Z</time>
      </trkpt>
      <trkpt lat="45.08254" lon="4.276">
        <ele>976</ele>
        <time>2019-08-11T06:27:44.000Z</time>
      </trkpt>
      <trkpt lat="45.08257" lon="4.27652">
        <ele>976.40002441406</ele>
        <time>2019-08-11T06:27:53.000Z</time>
      </trkpt>
      <trkpt lat="45.08258" lon="4.27658">
        <ele>976.40002441406</ele>
        <time>2019-08-11T06:27:54.000Z</time>
      </trkpt>
      <trkpt lat="45.08258" lon="4.27664">
        <ele>976.40002441406</ele>
        <time>2019-08-11T06:27:55.000Z</time>
      </trkpt>
      <trkpt lat="45.08258" lon="4.27684">
        <ele>976.40002441406</ele>
        <time>2019-08-11T06:27:58.000Z</time>
      </trkpt>
      <trkpt lat="45.08262" lon="4.27705">
        <ele>976.40002441406</ele>
        <time>2019-08-11T06:28:01.000Z</time>
      </trkpt>
      <trkpt lat="45.08272" lon="4.27726">
        <ele>976</ele>
        <time>2019-08-11T06:28:04.000Z</time>
      </trkpt>
      <trkpt lat="45.08283" lon="4.2775">
        <ele>975.79998779297</ele>
        <time>2019-08-11T06:28:08.000Z</time>
      </trkpt>
      <trkpt lat="45.08289" lon="4.27769">
        <ele>975.40002441406</ele>
        <time>2019-08-11T06:28:11.000Z</time>
      </trkpt>
      <trkpt lat="45.08294" lon="4.27798">
        <ele>974.59997558594</ele>
        <time>2019-08-11T06:28:15.000Z</time>
      </trkpt>
      <trkpt lat="45.08295" lon="4.27814">
        <ele>974.40002441406</ele>
        <time>2019-08-11T06:28:17.000Z</time>
      </trkpt>
      <trkpt lat="45.08295" lon="4.27822">
        <ele>974.20001220703</ele>
        <time>2019-08-11T06:28:18.000Z</time>
      </trkpt>
      <trkpt lat="45.08292" lon="4.27875">
        <ele>974.20001220703</ele>
        <time>2019-08-11T06:28:26.000Z</time>
      </trkpt>
      <trkpt lat="45.0829" lon="4.27887">
        <ele>974.20001220703</ele>
        <time>2019-08-11T06:28:28.000Z</time>
      </trkpt>
      <trkpt lat="45.08287" lon="4.27893">
        <ele>974</ele>
        <time>2019-08-11T06:28:29.000Z</time>
      </trkpt>
      <trkpt lat="45.08278" lon="4.27919">
        <ele>973.40002441406</ele>
        <time>2019-08-11T06:28:33.000Z</time>
      </trkpt>
      <trkpt lat="45.08271" lon="4.27944">
        <ele>973.40002441406</ele>
        <time>2019-08-11T06:28:37.000Z</time>
      </trkpt>
      <trkpt lat="45.08267" lon="4.27957">
        <ele>973.20001220703</ele>
        <time>2019-08-11T06:28:39.000Z</time>
      </trkpt>
      <trkpt lat="45.08265" lon="4.27964">
        <ele>973.20001220703</ele>
        <time>2019-08-11T06:28:40.000Z</time>
      </trkpt>
      <trkpt lat="45.08262" lon="4.2797">
        <ele>973</ele>
        <time>2019-08-11T06:28:41.000Z</time>
      </trkpt>
      <trkpt lat="45.08258" lon="4.27976">
        <ele>973</ele>
        <time>2019-08-11T06:28:42.000Z</time>
      </trkpt>
      <trkpt lat="45.08253" lon="4.27981">
        <ele>972.79998779297</ele>
        <time>2019-08-11T06:28:43.000Z</time>
      </trkpt>
      <trkpt lat="45.08248" lon="4.27986">
        <ele>972.40002441406</ele>
        <time>2019-08-11T06:28:44.000Z</time>
      </trkpt>
      <trkpt lat="45.08243" lon="4.27989">
        <ele>972</ele>
        <time>2019-08-11T06:28:45.000Z</time>
      </trkpt>
      <trkpt lat="45.08238" lon="4.27992">
        <ele>971.59997558594</ele>
        <time>2019-08-11T06:28:46.000Z</time>
      </trkpt>
      <trkpt lat="45.08233" lon="4.27994">
        <ele>970.20001220703</ele>
        <time>2019-08-11T06:28:47.000Z</time>
      </trkpt>
      <trkpt lat="45.08228" lon="4.27996">
        <ele>969</ele>
        <time>2019-08-11T06:28:48.000Z</time>
      </trkpt>
      <trkpt lat="45.08223" lon="4.27999">
        <ele>968.40002441406</ele>
        <time>2019-08-11T06:28:49.000Z</time>
      </trkpt>
      <trkpt lat="45.08219" lon="4.28004">
        <ele>967.40002441406</ele>
        <time>2019-08-11T06:28:50.000Z</time>
      </trkpt>
      <trkpt lat="45.08214" lon="4.2801">
        <ele>966.59997558594</ele>
        <time>2019-08-11T06:28:51.000Z</time>
      </trkpt>
      <trkpt lat="45.08209" lon="4.28016">
        <ele>965.79998779297</ele>
        <time>2019-08-11T06:28:52.000Z</time>
      </trkpt>
      <trkpt lat="45.08204" lon="4.28023">
        <ele>964.79998779297</ele>
        <time>2019-08-11T06:28:53.000Z</time>
      </trkpt>
      <trkpt lat="45.08199" lon="4.2803">
        <ele>964</ele>
        <time>2019-08-11T06:28:54.000Z</time>
      </trkpt>
      <trkpt lat="45.08194" lon="4.28038">
        <ele>963.59997558594</ele>
        <time>2019-08-11T06:28:55.000Z</time>
      </trkpt>
      <trkpt lat="45.08189" lon="4.28045">
        <ele>963.40002441406</ele>
        <time>2019-08-11T06:28:56.000Z</time>
      </trkpt>
      <trkpt lat="45.08181" lon="4.28061">
        <ele>963.20001220703</ele>
        <time>2019-08-11T06:28:58.000Z</time>
      </trkpt>
      <trkpt lat="45.08156" lon="4.28119">
        <ele>961.59997558594</ele>
        <time>2019-08-11T06:29:05.000Z</time>
      </trkpt>
      <trkpt lat="45.08141" lon="4.28146">
        <ele>961.79998779297</ele>
        <time>2019-08-11T06:29:10.000Z</time>
      </trkpt>
      <trkpt lat="45.08137" lon="4.2815">
        <ele>961.59997558594</ele>
        <time>2019-08-11T06:29:11.000Z</time>
      </trkpt>
      <trkpt lat="45.08133" lon="4.28154">
        <ele>961.20001220703</ele>
        <time>2019-08-11T06:29:12.000Z</time>
      </trkpt>
      <trkpt lat="45.08129" lon="4.28156">
        <ele>960.79998779297</ele>
        <time>2019-08-11T06:29:13.000Z</time>
      </trkpt>
      <trkpt lat="45.08125" lon="4.28158">
        <ele>960.40002441406</ele>
        <time>2019-08-11T06:29:14.000Z</time>
      </trkpt>
      <trkpt lat="45.08121" lon="4.28159">
        <ele>959.79998779297</ele>
        <time>2019-08-11T06:29:15.000Z</time>
      </trkpt>
      <trkpt lat="45.08118" lon="4.28159">
        <ele>959</ele>
        <time>2019-08-11T06:29:16.000Z</time>
      </trkpt>
      <trkpt lat="45.08114" lon="4.2816">
        <ele>958.40002441406</ele>
        <time>2019-08-11T06:29:17.000Z</time>
      </trkpt>
      <trkpt lat="45.08109" lon="4.2816">
        <ele>957.79998779297</ele>
        <time>2019-08-11T06:29:18.000Z</time>
      </trkpt>
      <trkpt lat="45.08095" lon="4.2816">
        <ele>956.40002441406</ele>
        <time>2019-08-11T06:29:21.000Z</time>
      </trkpt>
      <trkpt lat="45.0809" lon="4.28161">
        <ele>955.79998779297</ele>
        <time>2019-08-11T06:29:22.000Z</time>
      </trkpt>
      <trkpt lat="45.08068" lon="4.28167">
        <ele>951.79998779297</ele>
        <time>2019-08-11T06:29:25.000Z</time>
      </trkpt>
      <trkpt lat="45.0804" lon="4.28171">
        <ele>949.40002441406</ele>
        <time>2019-08-11T06:29:29.000Z</time>
      </trkpt>
      <trkpt lat="45.08033" lon="4.28173">
        <ele>949.20001220703</ele>
        <time>2019-08-11T06:29:30.000Z</time>
      </trkpt>
      <trkpt lat="45.08" lon="4.28188">
        <ele>946.40002441406</ele>
        <time>2019-08-11T06:29:35.000Z</time>
      </trkpt>
      <trkpt lat="45.07994" lon="4.28191">
        <ele>945.79998779297</ele>
        <time>2019-08-11T06:29:36.000Z</time>
      </trkpt>
      <trkpt lat="45.07989" lon="4.28194">
        <ele>945.20001220703</ele>
        <time>2019-08-11T06:29:37.000Z</time>
      </trkpt>
      <trkpt lat="45.07984" lon="4.28197">
        <ele>944.40002441406</ele>
        <time>2019-08-11T06:29:38.000Z</time>
      </trkpt>
      <trkpt lat="45.0798" lon="4.282">
        <ele>944</ele>
        <time>2019-08-11T06:29:39.000Z</time>
      </trkpt>
      <trkpt lat="45.07977" lon="4.28202">
        <ele>943.79998779297</ele>
        <time>2019-08-11T06:29:40.000Z</time>
      </trkpt>
      <trkpt lat="45.07964" lon="4.28211">
        <ele>943.79998779297</ele>
        <time>2019-08-11T06:29:43.000Z</time>
      </trkpt>
      <trkpt lat="45.07949" lon="4.28224">
        <ele>942.59997558594</ele>
        <time>2019-08-11T06:29:47.000Z</time>
      </trkpt>
      <trkpt lat="45.07945" lon="4.28227">
        <ele>942.59997558594</ele>
        <time>2019-08-11T06:29:48.000Z</time>
      </trkpt>
      <trkpt lat="45.07936" lon="4.28232">
        <ele>941</ele>
        <time>2019-08-11T06:29:50.000Z</time>
      </trkpt>
      <trkpt lat="45.0792" lon="4.28241">
        <ele>938.79998779297</ele>
        <time>2019-08-11T06:29:53.000Z</time>
      </trkpt>
      <trkpt lat="45.07909" lon="4.28245">
        <ele>937.20001220703</ele>
        <time>2019-08-11T06:29:55.000Z</time>
      </trkpt>
      <trkpt lat="45.07889" lon="4.28252">
        <ele>934.79998779297</ele>
        <time>2019-08-11T06:29:59.000Z</time>
      </trkpt>
      <trkpt lat="45.07884" lon="4.28254">
        <ele>934.59997558594</ele>
        <time>2019-08-11T06:30:00.000Z</time>
      </trkpt>
      <trkpt lat="45.07869" lon="4.28262">
        <ele>933</ele>
        <time>2019-08-11T06:30:04.000Z</time>
      </trkpt>
      <trkpt lat="45.0786" lon="4.28267">
        <ele>931.59997558594</ele>
        <time>2019-08-11T06:30:06.000Z</time>
      </trkpt>
      <trkpt lat="45.07855" lon="4.28272">
        <ele>931.20001220703</ele>
        <time>2019-08-11T06:30:07.000Z</time>
      </trkpt>
      <trkpt lat="45.0785" lon="4.28277">
        <ele>930.59997558594</ele>
        <time>2019-08-11T06:30:08.000Z</time>
      </trkpt>
      <trkpt lat="45.07835" lon="4.28295">
        <ele>929.20001220703</ele>
        <time>2019-08-11T06:30:11.000Z</time>
      </trkpt>
      <trkpt lat="45.07819" lon="4.28316">
        <ele>927.59997558594</ele>
        <time>2019-08-11T06:30:15.000Z</time>
      </trkpt>
      <trkpt lat="45.0781" lon="4.28326">
        <ele>926.59997558594</ele>
        <time>2019-08-11T06:30:17.000Z</time>
      </trkpt>
      <trkpt lat="45.07806" lon="4.28331">
        <ele>925.59997558594</ele>
        <time>2019-08-11T06:30:18.000Z</time>
      </trkpt>
      <trkpt lat="45.07798" lon="4.2834">
        <ele>923.79998779297</ele>
        <time>2019-08-11T06:30:20.000Z</time>
      </trkpt>
      <trkpt lat="45.07795" lon="4.28347">
        <ele>922.40002441406</ele>
        <time>2019-08-11T06:30:21.000Z</time>
      </trkpt>
      <trkpt lat="45.07785" lon="4.28365">
        <ele>918.79998779297</ele>
        <time>2019-08-11T06:30:23.000Z</time>
      </trkpt>
      <trkpt lat="45.07773" lon="4.28383">
        <ele>914.20001220703</ele>
        <time>2019-08-11T06:30:25.000Z</time>
      </trkpt>
      <trkpt lat="45.07767" lon="4.28389">
        <ele>912.79998779297</ele>
        <time>2019-08-11T06:30:26.000Z</time>
      </trkpt>
      <trkpt lat="45.0776" lon="4.28394">
        <ele>911.79998779297</ele>
        <time>2019-08-11T06:30:27.000Z</time>
      </trkpt>
      <trkpt lat="45.07751" lon="4.28399">
        <ele>909.40002441406</ele>
        <time>2019-08-11T06:30:28.000Z</time>
      </trkpt>
      <trkpt lat="45.07743" lon="4.28406">
        <ele>907.40002441406</ele>
        <time>2019-08-11T06:30:29.000Z</time>
      </trkpt>
      <trkpt lat="45.07736" lon="4.28413">
        <ele>905.40002441406</ele>
        <time>2019-08-11T06:30:30.000Z</time>
      </trkpt>
      <trkpt lat="45.07729" lon="4.28421">
        <ele>904</ele>
        <time>2019-08-11T06:30:31.000Z</time>
      </trkpt>
      <trkpt lat="45.07723" lon="4.28428">
        <ele>902.79998779297</ele>
        <time>2019-08-11T06:30:32.000Z</time>
      </trkpt>
      <trkpt lat="45.07713" lon="4.28437">
        <ele>901.79998779297</ele>
        <time>2019-08-11T06:30:34.000Z</time>
      </trkpt>
      <trkpt lat="45.0771" lon="4.28439">
        <ele>901.59997558594</ele>
        <time>2019-08-11T06:30:35.000Z</time>
      </trkpt>
      <trkpt lat="45.07707" lon="4.2844">
        <ele>901.59997558594</ele>
        <time>2019-08-11T06:30:36.000Z</time>
      </trkpt>
      <trkpt lat="45.07702" lon="4.28441">
        <ele>901.59997558594</ele>
        <time>2019-08-11T06:30:37.000Z</time>
      </trkpt>
      <trkpt lat="45.077" lon="4.28439">
        <ele>901.59997558594</ele>
        <time>2019-08-11T06:30:38.000Z</time>
      </trkpt>
      <trkpt lat="45.07697" lon="4.28436">
        <ele>901.59997558594</ele>
        <time>2019-08-11T06:30:39.000Z</time>
      </trkpt>
      <trkpt lat="45.07696" lon="4.28432">
        <ele>901.40002441406</ele>
        <time>2019-08-11T06:30:40.000Z</time>
      </trkpt>
      <trkpt lat="45.07696" lon="4.28428">
        <ele>901.59997558594</ele>
        <time>2019-08-11T06:30:41.000Z</time>
      </trkpt>
      <trkpt lat="45.07696" lon="4.28425">
        <ele>901.79998779297</ele>
        <time>2019-08-11T06:30:42.000Z</time>
      </trkpt>
      <trkpt lat="45.07695" lon="4.28421">
        <ele>902</ele>
        <time>2019-08-11T06:30:43.000Z</time>
      </trkpt>
      <trkpt lat="45.0768" lon="4.28379">
        <ele>900.20001220703</ele>
        <time>2019-08-11T06:30:53.000Z</time>
      </trkpt>
      <trkpt lat="45.07673" lon="4.2837">
        <ele>899.40002441406</ele>
        <time>2019-08-11T06:30:55.000Z</time>
      </trkpt>
      <trkpt lat="45.07668" lon="4.28367">
        <ele>899</ele>
        <time>2019-08-11T06:30:56.000Z</time>
      </trkpt>
      <trkpt lat="45.07664" lon="4.28364">
        <ele>898.59997558594</ele>
        <time>2019-08-11T06:30:57.000Z</time>
      </trkpt>
      <trkpt lat="45.07659" lon="4.28363">
        <ele>898.20001220703</ele>
        <time>2019-08-11T06:30:58.000Z</time>
      </trkpt>
      <trkpt lat="45.07655" lon="4.28364">
        <ele>898.20001220703</ele>
        <time>2019-08-11T06:30:59.000Z</time>
      </trkpt>
      <trkpt lat="45.0765" lon="4.28364">
        <ele>898.20001220703</ele>
        <time>2019-08-11T06:31:00.000Z</time>
      </trkpt>
      <trkpt lat="45.07633" lon="4.28364">
        <ele>898</ele>
        <time>2019-08-11T06:31:03.000Z</time>
      </trkpt>
      <trkpt lat="45.07582" lon="4.28376">
        <ele>898.40002441406</ele>
        <time>2019-08-11T06:31:14.000Z</time>
      </trkpt>
      <trkpt lat="45.07567" lon="4.28389">
        <ele>898.20001220703</ele>
        <time>2019-08-11T06:31:18.000Z</time>
      </trkpt>
      <trkpt lat="45.07563" lon="4.28393">
        <ele>898.20001220703</ele>
        <time>2019-08-11T06:31:19.000Z</time>
      </trkpt>
      <trkpt lat="45.0756" lon="4.28396">
        <ele>898</ele>
        <time>2019-08-11T06:31:20.000Z</time>
      </trkpt>
      <trkpt lat="45.07538" lon="4.28422">
        <ele>899.59997558594</ele>
        <time>2019-08-11T06:31:28.000Z</time>
      </trkpt>
      <trkpt lat="45.07537" lon="4.28425">
        <ele>899.79998779297</ele>
        <time>2019-08-11T06:31:29.000Z</time>
      </trkpt>
      <trkpt lat="45.07532" lon="4.28431">
        <ele>900.20001220703</ele>
        <time>2019-08-11T06:31:31.000Z</time>
      </trkpt>
      <trkpt lat="45.07526" lon="4.2844">
        <ele>901</ele>
        <time>2019-08-11T06:31:34.000Z</time>
      </trkpt>
      <trkpt lat="45.07518" lon="4.28453">
        <ele>902.59997558594</ele>
        <time>2019-08-11T06:31:38.000Z</time>
      </trkpt>
      <trkpt lat="45.07491" lon="4.28475">
        <ele>904.40002441406</ele>
        <time>2019-08-11T06:31:47.000Z</time>
      </trkpt>
      <trkpt lat="45.07471" lon="4.28501">
        <ele>904.20001220703</ele>
        <time>2019-08-11T06:31:54.000Z</time>
      </trkpt>
      <trkpt lat="45.07462" lon="4.28515">
        <ele>904.20001220703</ele>
        <time>2019-08-11T06:31:58.000Z</time>
      </trkpt>
      <trkpt lat="45.07456" lon="4.28524">
        <ele>904</ele>
        <time>2019-08-11T06:32:02.000Z</time>
      </trkpt>
      <trkpt lat="45.07456" lon="4.28525">
        <ele>904</ele>
        <time>2019-08-11T06:32:03.000Z</time>
      </trkpt>
      <trkpt lat="45.07456" lon="4.28527">
        <ele>904</ele>
        <time>2019-08-11T06:32:04.000Z</time>
      </trkpt>
      <trkpt lat="45.07456" lon="4.28528">
        <ele>904</ele>
        <time>2019-08-11T06:32:05.000Z</time>
      </trkpt>
      <trkpt lat="45.07457" lon="4.2853">
        <ele>904</ele>
        <time>2019-08-11T06:32:06.000Z</time>
      </trkpt>
      <trkpt lat="45.07456" lon="4.28531">
        <ele>904.20001220703</ele>
        <time>2019-08-11T06:32:07.000Z</time>
      </trkpt>
      <trkpt lat="45.07456" lon="4.28528">
        <ele>904.40002441406</ele>
        <time>2019-08-11T06:32:15.000Z</time>
      </trkpt>
      <trkpt lat="45.07456" lon="4.28527">
        <ele>904.40002441406</ele>
        <time>2019-08-11T06:32:16.000Z</time>
      </trkpt>
      <trkpt lat="45.07456" lon="4.28527">
        <ele>904.40002441406</ele>
        <time>2019-08-11T06:32:17.000Z</time>
      </trkpt>
      <trkpt lat="45.07456" lon="4.28526">
        <ele>904.40002441406</ele>
        <time>2019-08-11T06:32:18.000Z</time>
      </trkpt>
      <trkpt lat="45.07456" lon="4.28526">
        <ele>904.40002441406</ele>
        <time>2019-08-11T06:32:19.000Z</time>
      </trkpt>
      <trkpt lat="45.07454" lon="4.28524">
        <ele>904.20001220703</ele>
        <time>2019-08-11T06:32:23.000Z</time>
      </trkpt>
      <trkpt lat="45.07453" lon="4.28524">
        <ele>904.40002441406</ele>
        <time>2019-08-11T06:32:25.000Z</time>
      </trkpt>
      <trkpt lat="45.07457" lon="4.2853">
        <ele>904.59997558594</ele>
        <time>2019-08-11T06:39:10.000Z</time>
      </trkpt>
      <trkpt lat="45.07459" lon="4.2853">
        <ele>904.59997558594</ele>
        <time>2019-08-11T06:39:11.000Z</time>
      </trkpt>
      <trkpt lat="45.0746" lon="4.28532">
        <ele>904.59997558594</ele>
        <time>2019-08-11T06:39:12.000Z</time>
      </trkpt>
      <trkpt lat="45.07462" lon="4.28534">
        <ele>904.40002441406</ele>
        <time>2019-08-11T06:39:13.000Z</time>
      </trkpt>
      <trkpt lat="45.07464" lon="4.28536">
        <ele>904.20001220703</ele>
        <time>2019-08-11T06:39:14.000Z</time>
      </trkpt>
      <trkpt lat="45.07467" lon="4.28539">
        <ele>904.20001220703</ele>
        <time>2019-08-11T06:39:15.000Z</time>
      </trkpt>
      <trkpt lat="45.07498" lon="4.28565">
        <ele>902.59997558594</ele>
        <time>2019-08-11T06:39:26.000Z</time>
      </trkpt>
      <trkpt lat="45.07506" lon="4.28571">
        <ele>902.40002441406</ele>
        <time>2019-08-11T06:39:29.000Z</time>
      </trkpt>
      <trkpt lat="45.07551" lon="4.28572">
        <ele>903</ele>
        <time>2019-08-11T06:39:43.000Z</time>
      </trkpt>
      <trkpt lat="45.07554" lon="4.28573">
        <ele>903</ele>
        <time>2019-08-11T06:39:44.000Z</time>
      </trkpt>
      <trkpt lat="45.07564" lon="4.28581">
        <ele>903.79998779297</ele>
        <time>2019-08-11T06:39:48.000Z</time>
      </trkpt>
      <trkpt lat="45.07569" lon="4.28592">
        <ele>904.79998779297</ele>
        <time>2019-08-11T06:39:52.000Z</time>
      </trkpt>
      <trkpt lat="45.07571" lon="4.28601">
        <ele>905.59997558594</ele>
        <time>2019-08-11T06:39:55.000Z</time>
      </trkpt>
      <trkpt lat="45.07573" lon="4.28607">
        <ele>906</ele>
        <time>2019-08-11T06:39:57.000Z</time>
      </trkpt>
      <trkpt lat="45.07575" lon="4.28616">
        <ele>906.59997558594</ele>
        <time>2019-08-11T06:40:00.000Z</time>
      </trkpt>
      <trkpt lat="45.07576" lon="4.28625">
        <ele>907.40002441406</ele>
        <time>2019-08-11T06:40:03.000Z</time>
      </trkpt>
      <trkpt lat="45.0758" lon="4.28632">
        <ele>908</ele>
        <time>2019-08-11T06:40:06.000Z</time>
      </trkpt>
      <trkpt lat="45.07587" lon="4.28645">
        <ele>909</ele>
        <time>2019-08-11T06:40:11.000Z</time>
      </trkpt>
      <trkpt lat="45.07592" lon="4.28652">
        <ele>909.59997558594</ele>
        <time>2019-08-11T06:40:14.000Z</time>
      </trkpt>
      <trkpt lat="45.07598" lon="4.28661">
        <ele>910.40002441406</ele>
        <time>2019-08-11T06:40:18.000Z</time>
      </trkpt>
      <trkpt lat="45.07599" lon="4.28663">
        <ele>910.59997558594</ele>
        <time>2019-08-11T06:40:19.000Z</time>
      </trkpt>
      <trkpt lat="45.07599" lon="4.28684">
        <ele>911.59997558594</ele>
        <time>2019-08-11T06:40:25.000Z</time>
      </trkpt>
      <trkpt lat="45.07597" lon="4.28702">
        <ele>912.40002441406</ele>
        <time>2019-08-11T06:40:30.000Z</time>
      </trkpt>
      <trkpt lat="45.07588" lon="4.28721">
        <ele>913.40002441406</ele>
        <time>2019-08-11T06:40:37.000Z</time>
      </trkpt>
      <trkpt lat="45.07581" lon="4.28746">
        <ele>914.79998779297</ele>
        <time>2019-08-11T06:40:46.000Z</time>
      </trkpt>
      <trkpt lat="45.07596" lon="4.28775">
        <ele>918</ele>
        <time>2019-08-11T06:40:59.000Z</time>
      </trkpt>
      <trkpt lat="45.07602" lon="4.28787">
        <ele>919.40002441406</ele>
        <time>2019-08-11T06:41:05.000Z</time>
      </trkpt>
      <trkpt lat="45.07605" lon="4.28806">
        <ele>920.79998779297</ele>
        <time>2019-08-11T06:41:13.000Z</time>
      </trkpt>
      <trkpt lat="45.07606" lon="4.28806">
        <ele>921</ele>
        <time>2019-08-11T06:41:14.000Z</time>
      </trkpt>
      <trkpt lat="45.07607" lon="4.28806">
        <ele>921.40002441406</ele>
        <time>2019-08-11T06:41:15.000Z</time>
      </trkpt>
      <trkpt lat="45.07608" lon="4.28806">
        <ele>921.40002441406</ele>
        <time>2019-08-11T06:41:16.000Z</time>
      </trkpt>
      <trkpt lat="45.0761" lon="4.28805">
        <ele>921.59997558594</ele>
        <time>2019-08-11T06:41:17.000Z</time>
      </trkpt>
      <trkpt lat="45.07611" lon="4.28804">
        <ele>921.59997558594</ele>
        <time>2019-08-11T06:41:18.000Z</time>
      </trkpt>
      <trkpt lat="45.07613" lon="4.28803">
        <ele>922</ele>
        <time>2019-08-11T06:41:19.000Z</time>
      </trkpt>
      <trkpt lat="45.07615" lon="4.28802">
        <ele>922.20001220703</ele>
        <time>2019-08-11T06:41:20.000Z</time>
      </trkpt>
      <trkpt lat="45.07623" lon="4.28798">
        <ele>923</ele>
        <time>2019-08-11T06:41:26.000Z</time>
      </trkpt>
      <trkpt lat="45.07639" lon="4.28802">
        <ele>925.40002441406</ele>
        <time>2019-08-11T06:41:36.000Z</time>
      </trkpt>
      <trkpt lat="45.0764" lon="4.28803">
        <ele>925.59997558594</ele>
        <time>2019-08-11T06:41:37.000Z</time>
      </trkpt>
      <trkpt lat="45.07643" lon="4.28812">
        <ele>926.79998779297</ele>
        <time>2019-08-11T06:41:41.000Z</time>
      </trkpt>
      <trkpt lat="45.07658" lon="4.28856">
        <ele>930</ele>
        <time>2019-08-11T06:41:59.000Z</time>
      </trkpt>
      <trkpt lat="45.07688" lon="4.28935">
        <ele>931</ele>
        <time>2019-08-11T06:42:20.000Z</time>
      </trkpt>
      <trkpt lat="45.07709" lon="4.29015">
        <ele>931.79998779297</ele>
        <time>2019-08-11T06:42:40.000Z</time>
      </trkpt>
      <trkpt lat="45.07711" lon="4.2902">
        <ele>931.20001220703</ele>
        <time>2019-08-11T06:42:41.000Z</time>
      </trkpt>
      <trkpt lat="45.07726" lon="4.29053">
        <ele>927.79998779297</ele>
        <time>2019-08-11T06:42:45.000Z</time>
      </trkpt>
      <trkpt lat="45.0774" lon="4.29082">
        <ele>924.20001220703</ele>
        <time>2019-08-11T06:42:48.000Z</time>
      </trkpt>
      <trkpt lat="45.07752" lon="4.2911">
        <ele>922.40002441406</ele>
        <time>2019-08-11T06:42:51.000Z</time>
      </trkpt>
      <trkpt lat="45.07754" lon="4.2912">
        <ele>922.20001220703</ele>
        <time>2019-08-11T06:42:52.000Z</time>
      </trkpt>
      <trkpt lat="45.07755" lon="4.29128">
        <ele>922</ele>
        <time>2019-08-11T06:42:53.000Z</time>
      </trkpt>
      <trkpt lat="45.07757" lon="4.29141">
        <ele>921</ele>
        <time>2019-08-11T06:42:55.000Z</time>
      </trkpt>
      <trkpt lat="45.0776" lon="4.29147">
        <ele>920.59997558594</ele>
        <time>2019-08-11T06:42:56.000Z</time>
      </trkpt>
      <trkpt lat="45.07762" lon="4.29152">
        <ele>920.40002441406</ele>
        <time>2019-08-11T06:42:57.000Z</time>
      </trkpt>
      <trkpt lat="45.07764" lon="4.29155">
        <ele>920.40002441406</ele>
        <time>2019-08-11T06:42:58.000Z</time>
      </trkpt>
      <trkpt lat="45.07767" lon="4.29157">
        <ele>920.40002441406</ele>
        <time>2019-08-11T06:42:59.000Z</time>
      </trkpt>
      <trkpt lat="45.0777" lon="4.29158">
        <ele>920.20001220703</ele>
        <time>2019-08-11T06:43:00.000Z</time>
      </trkpt>
      <trkpt lat="45.07773" lon="4.29159">
        <ele>920.40002441406</ele>
        <time>2019-08-11T06:43:01.000Z</time>
      </trkpt>
      <trkpt lat="45.07776" lon="4.2916">
        <ele>920.40002441406</ele>
        <time>2019-08-11T06:43:02.000Z</time>
      </trkpt>
      <trkpt lat="45.07779" lon="4.2916">
        <ele>920.40002441406</ele>
        <time>2019-08-11T06:43:03.000Z</time>
      </trkpt>
      <trkpt lat="45.07782" lon="4.2916">
        <ele>920.20001220703</ele>
        <time>2019-08-11T06:43:04.000Z</time>
      </trkpt>
      <trkpt lat="45.07785" lon="4.29159">
        <ele>920</ele>
        <time>2019-08-11T06:43:05.000Z</time>
      </trkpt>
      <trkpt lat="45.07788" lon="4.29156">
        <ele>920</ele>
        <time>2019-08-11T06:43:06.000Z</time>
      </trkpt>
      <trkpt lat="45.07791" lon="4.29152">
        <ele>920.20001220703</ele>
        <time>2019-08-11T06:43:07.000Z</time>
      </trkpt>
      <trkpt lat="45.07793" lon="4.29147">
        <ele>920.40002441406</ele>
        <time>2019-08-11T06:43:08.000Z</time>
      </trkpt>
      <trkpt lat="45.07796" lon="4.29141">
        <ele>920.59997558594</ele>
        <time>2019-08-11T06:43:09.000Z</time>
      </trkpt>
      <trkpt lat="45.07798" lon="4.29136">
        <ele>920.59997558594</ele>
        <time>2019-08-11T06:43:10.000Z</time>
      </trkpt>
      <trkpt lat="45.07807" lon="4.29113">
        <ele>922.59997558594</ele>
        <time>2019-08-11T06:43:18.000Z</time>
      </trkpt>
      <trkpt lat="45.07808" lon="4.29113">
        <ele>922.59997558594</ele>
        <time>2019-08-11T06:43:19.000Z</time>
      </trkpt>
      <trkpt lat="45.07808" lon="4.29114">
        <ele>922.79998779297</ele>
        <time>2019-08-11T06:43:20.000Z</time>
      </trkpt>
      <trkpt lat="45.07809" lon="4.29116">
        <ele>923.20001220703</ele>
        <time>2019-08-11T06:43:21.000Z</time>
      </trkpt>
      <trkpt lat="45.07809" lon="4.29117">
        <ele>923.20001220703</ele>
        <time>2019-08-11T06:43:22.000Z</time>
      </trkpt>
      <trkpt lat="45.0781" lon="4.2912">
        <ele>923.40002441406</ele>
        <time>2019-08-11T06:43:23.000Z</time>
      </trkpt>
      <trkpt lat="45.07813" lon="4.29125">
        <ele>924.40002441406</ele>
        <time>2019-08-11T06:43:27.000Z</time>
      </trkpt>
      <trkpt lat="45.07815" lon="4.29125">
        <ele>924.59997558594</ele>
        <time>2019-08-11T06:43:28.000Z</time>
      </trkpt>
      <trkpt lat="45.07816" lon="4.29124">
        <ele>925</ele>
        <time>2019-08-11T06:43:29.000Z</time>
      </trkpt>
      <trkpt lat="45.07817" lon="4.29122">
        <ele>925.20001220703</ele>
        <time>2019-08-11T06:43:30.000Z</time>
      </trkpt>
      <trkpt lat="45.07818" lon="4.2912">
        <ele>925.40002441406</ele>
        <time>2019-08-11T06:43:31.000Z</time>
      </trkpt>
      <trkpt lat="45.07819" lon="4.29118">
        <ele>925.79998779297</ele>
        <time>2019-08-11T06:43:32.000Z</time>
      </trkpt>
      <trkpt lat="45.07819" lon="4.29116">
        <ele>926.20001220703</ele>
        <time>2019-08-11T06:43:33.000Z</time>
      </trkpt>
      <trkpt lat="45.07821" lon="4.29113">
        <ele>926.59997558594</ele>
        <time>2019-08-11T06:43:35.000Z</time>
      </trkpt>
      <trkpt lat="45.07828" lon="4.29103">
        <ele>928</ele>
        <time>2019-08-11T06:43:41.000Z</time>
      </trkpt>
      <trkpt lat="45.07856" lon="4.29079">
        <ele>931.20001220703</ele>
        <time>2019-08-11T06:44:01.000Z</time>
      </trkpt>
      <trkpt lat="45.07864" lon="4.29082">
        <ele>932.79998779297</ele>
        <time>2019-08-11T06:44:07.000Z</time>
      </trkpt>
      <trkpt lat="45.07882" lon="4.29091">
        <ele>936</ele>
        <time>2019-08-11T06:44:20.000Z</time>
      </trkpt>
      <trkpt lat="45.07886" lon="4.29095">
        <ele>936.59997558594</ele>
        <time>2019-08-11T06:44:25.000Z</time>
      </trkpt>
      <trkpt lat="45.07887" lon="4.29097">
        <ele>936.79998779297</ele>
        <time>2019-08-11T06:44:26.000Z</time>
      </trkpt>
      <trkpt lat="45.07888" lon="4.29098">
        <ele>936.79998779297</ele>
        <time>2019-08-11T06:44:27.000Z</time>
      </trkpt>
      <trkpt lat="45.07889" lon="4.29099">
        <ele>937</ele>
        <time>2019-08-11T06:44:28.000Z</time>
      </trkpt>
      <trkpt lat="45.0789" lon="4.29099">
        <ele>937</ele>
        <time>2019-08-11T06:44:29.000Z</time>
      </trkpt>
      <trkpt lat="45.07922" lon="4.29128">
        <ele>940</ele>
        <time>2019-08-11T06:44:53.000Z</time>
      </trkpt>
      <trkpt lat="45.07934" lon="4.29134">
        <ele>941.40002441406</ele>
        <time>2019-08-11T06:45:00.000Z</time>
      </trkpt>
      <trkpt lat="45.07935" lon="4.2914">
        <ele>942.40002441406</ele>
        <time>2019-08-11T06:45:04.000Z</time>
      </trkpt>
      <trkpt lat="45.07935" lon="4.29141">
        <ele>942.79998779297</ele>
        <time>2019-08-11T06:45:05.000Z</time>
      </trkpt>
      <trkpt lat="45.07934" lon="4.29142">
        <ele>943.20001220703</ele>
        <time>2019-08-11T06:45:06.000Z</time>
      </trkpt>
      <trkpt lat="45.07931" lon="4.29142">
        <ele>944.40002441406</ele>
        <time>2019-08-11T06:45:11.000Z</time>
      </trkpt>
      <trkpt lat="45.0793" lon="4.29143">
        <ele>944.40002441406</ele>
        <time>2019-08-11T06:45:12.000Z</time>
      </trkpt>
      <trkpt lat="45.07929" lon="4.29144">
        <ele>944.59997558594</ele>
        <time>2019-08-11T06:45:13.000Z</time>
      </trkpt>
      <trkpt lat="45.07928" lon="4.29144">
        <ele>945</ele>
        <time>2019-08-11T06:45:14.000Z</time>
      </trkpt>
      <trkpt lat="45.07926" lon="4.29144">
        <ele>945.20001220703</ele>
        <time>2019-08-11T06:45:15.000Z</time>
      </trkpt>
      <trkpt lat="45.0792" lon="4.29145">
        <ele>946</ele>
        <time>2019-08-11T06:45:21.000Z</time>
      </trkpt>
      <trkpt lat="45.07918" lon="4.29145">
        <ele>946.20001220703</ele>
        <time>2019-08-11T06:45:22.000Z</time>
      </trkpt>
      <trkpt lat="45.07917" lon="4.29145">
        <ele>946.20001220703</ele>
        <time>2019-08-11T06:45:23.000Z</time>
      </trkpt>
      <trkpt lat="45.07916" lon="4.29146">
        <ele>946.40002441406</ele>
        <time>2019-08-11T06:45:24.000Z</time>
      </trkpt>
      <trkpt lat="45.07914" lon="4.29146">
        <ele>946.40002441406</ele>
        <time>2019-08-11T06:45:25.000Z</time>
      </trkpt>
      <trkpt lat="45.07912" lon="4.29146">
        <ele>946.40002441406</ele>
        <time>2019-08-11T06:45:26.000Z</time>
      </trkpt>
      <trkpt lat="45.07911" lon="4.29146">
        <ele>946.59997558594</ele>
        <time>2019-08-11T06:45:27.000Z</time>
      </trkpt>
      <trkpt lat="45.0791" lon="4.29145">
        <ele>946.79998779297</ele>
        <time>2019-08-11T06:45:28.000Z</time>
      </trkpt>
      <trkpt lat="45.07908" lon="4.29145">
        <ele>946.79998779297</ele>
        <time>2019-08-11T06:45:29.000Z</time>
      </trkpt>
      <trkpt lat="45.07906" lon="4.29145">
        <ele>946.79998779297</ele>
        <time>2019-08-11T06:45:30.000Z</time>
      </trkpt>
      <trkpt lat="45.07905" lon="4.29145">
        <ele>947</ele>
        <time>2019-08-11T06:45:31.000Z</time>
      </trkpt>
      <trkpt lat="45.07903" lon="4.29145">
        <ele>947.20001220703</ele>
        <time>2019-08-11T06:45:32.000Z</time>
      </trkpt>
      <trkpt lat="45.07902" lon="4.29144">
        <ele>947.40002441406</ele>
        <time>2019-08-11T06:45:33.000Z</time>
      </trkpt>
      <trkpt lat="45.07901" lon="4.29144">
        <ele>947.59997558594</ele>
        <time>2019-08-11T06:45:34.000Z</time>
      </trkpt>
      <trkpt lat="45.07899" lon="4.29143">
        <ele>947.59997558594</ele>
        <time>2019-08-11T06:45:35.000Z</time>
      </trkpt>
      <trkpt lat="45.07898" lon="4.29143">
        <ele>947.79998779297</ele>
        <time>2019-08-11T06:45:36.000Z</time>
      </trkpt>
      <trkpt lat="45.07883" lon="4.29141">
        <ele>948.79998779297</ele>
        <time>2019-08-11T06:45:44.000Z</time>
      </trkpt>
      <trkpt lat="45.07868" lon="4.29164">
        <ele>951.40002441406</ele>
        <time>2019-08-11T06:46:00.000Z</time>
      </trkpt>
      <trkpt lat="45.07868" lon="4.29166">
        <ele>951.79998779297</ele>
        <time>2019-08-11T06:46:01.000Z</time>
      </trkpt>
      <trkpt lat="45.07868" lon="4.29168">
        <ele>952</ele>
        <time>2019-08-11T06:46:02.000Z</time>
      </trkpt>
      <trkpt lat="45.07876" lon="4.29185">
        <ele>954.40002441406</ele>
        <time>2019-08-11T06:46:16.000Z</time>
      </trkpt>
      <trkpt lat="45.07878" lon="4.29187">
        <ele>954.79998779297</ele>
        <time>2019-08-11T06:46:18.000Z</time>
      </trkpt>
      <trkpt lat="45.0788" lon="4.29187">
        <ele>954.79998779297</ele>
        <time>2019-08-11T06:46:19.000Z</time>
      </trkpt>
      <trkpt lat="45.07881" lon="4.29188">
        <ele>955</ele>
        <time>2019-08-11T06:46:20.000Z</time>
      </trkpt>
      <trkpt lat="45.07883" lon="4.2919">
        <ele>955.20001220703</ele>
        <time>2019-08-11T06:46:21.000Z</time>
      </trkpt>
      <trkpt lat="45.07884" lon="4.29191">
        <ele>955.40002441406</ele>
        <time>2019-08-11T06:46:22.000Z</time>
      </trkpt>
      <trkpt lat="45.07886" lon="4.29192">
        <ele>955.40002441406</ele>
        <time>2019-08-11T06:46:23.000Z</time>
      </trkpt>
      <trkpt lat="45.07888" lon="4.29193">
        <ele>955.59997558594</ele>
        <time>2019-08-11T06:46:24.000Z</time>
      </trkpt>
      <trkpt lat="45.07889" lon="4.29194">
        <ele>955.79998779297</ele>
        <time>2019-08-11T06:46:25.000Z</time>
      </trkpt>
      <trkpt lat="45.07891" lon="4.29194">
        <ele>956</ele>
        <time>2019-08-11T06:46:26.000Z</time>
      </trkpt>
      <trkpt lat="45.07892" lon="4.29195">
        <ele>956.20001220703</ele>
        <time>2019-08-11T06:46:27.000Z</time>
      </trkpt>
      <trkpt lat="45.07893" lon="4.29196">
        <ele>956.40002441406</ele>
        <time>2019-08-11T06:46:28.000Z</time>
      </trkpt>
      <trkpt lat="45.07894" lon="4.29197">
        <ele>956.59997558594</ele>
        <time>2019-08-11T06:46:29.000Z</time>
      </trkpt>
      <trkpt lat="45.07895" lon="4.29198">
        <ele>956.79998779297</ele>
        <time>2019-08-11T06:46:30.000Z</time>
      </trkpt>
      <trkpt lat="45.07896" lon="4.29199">
        <ele>957</ele>
        <time>2019-08-11T06:46:31.000Z</time>
      </trkpt>
      <trkpt lat="45.07897" lon="4.29199">
        <ele>957</ele>
        <time>2019-08-11T06:46:32.000Z</time>
      </trkpt>
      <trkpt lat="45.07899" lon="4.292">
        <ele>957.40002441406</ele>
        <time>2019-08-11T06:46:33.000Z</time>
      </trkpt>
      <trkpt lat="45.079" lon="4.29201">
        <ele>957.59997558594</ele>
        <time>2019-08-11T06:46:34.000Z</time>
      </trkpt>
      <trkpt lat="45.07918" lon="4.29208">
        <ele>960.20001220703</ele>
        <time>2019-08-11T06:46:47.000Z</time>
      </trkpt>
      <trkpt lat="45.07939" lon="4.29221">
        <ele>962.20001220703</ele>
        <time>2019-08-11T06:47:00.000Z</time>
      </trkpt>
      <trkpt lat="45.0794" lon="4.29221">
        <ele>962.20001220703</ele>
        <time>2019-08-11T06:47:01.000Z</time>
      </trkpt>
      <trkpt lat="45.07942" lon="4.29222">
        <ele>962.40002441406</ele>
        <time>2019-08-11T06:47:02.000Z</time>
      </trkpt>
      <trkpt lat="45.07971" lon="4.29259">
        <ele>965.40002441406</ele>
        <time>2019-08-11T06:47:24.000Z</time>
      </trkpt>
      <trkpt lat="45.07983" lon="4.29279">
        <ele>966.79998779297</ele>
        <time>2019-08-11T06:47:34.000Z</time>
      </trkpt>
      <trkpt lat="45.07983" lon="4.29283">
        <ele>966.59997558594</ele>
        <time>2019-08-11T06:47:35.000Z</time>
      </trkpt>
      <trkpt lat="45.07983" lon="4.29288">
        <ele>966.20001220703</ele>
        <time>2019-08-11T06:47:36.000Z</time>
      </trkpt>
      <trkpt lat="45.07984" lon="4.29293">
        <ele>965.59997558594</ele>
        <time>2019-08-11T06:47:37.000Z</time>
      </trkpt>
      <trkpt lat="45.07984" lon="4.29298">
        <ele>965.20001220703</ele>
        <time>2019-08-11T06:47:38.000Z</time>
      </trkpt>
      <trkpt lat="45.07984" lon="4.29302">
        <ele>965.59997558594</ele>
        <time>2019-08-11T06:47:39.000Z</time>
      </trkpt>
      <trkpt lat="45.07985" lon="4.29306">
        <ele>966.20001220703</ele>
        <time>2019-08-11T06:47:40.000Z</time>
      </trkpt>
      <trkpt lat="45.07985" lon="4.29308">
        <ele>966.59997558594</ele>
        <time>2019-08-11T06:47:41.000Z</time>
      </trkpt>
      <trkpt lat="45.07985" lon="4.29326">
        <ele>969.59997558594</ele>
        <time>2019-08-11T06:47:50.000Z</time>
      </trkpt>
      <trkpt lat="45.07986" lon="4.29333">
        <ele>970.20001220703</ele>
        <time>2019-08-11T06:47:53.000Z</time>
      </trkpt>
      <trkpt lat="45.07986" lon="4.29342">
        <ele>970.59997558594</ele>
        <time>2019-08-11T06:47:58.000Z</time>
      </trkpt>
      <trkpt lat="45.07986" lon="4.29349">
        <ele>971</ele>
        <time>2019-08-11T06:48:01.000Z</time>
      </trkpt>
      <trkpt lat="45.07987" lon="4.29351">
        <ele>971</ele>
        <time>2019-08-11T06:48:02.000Z</time>
      </trkpt>
      <trkpt lat="45.07987" lon="4.29353">
        <ele>971.20001220703</ele>
        <time>2019-08-11T06:48:03.000Z</time>
      </trkpt>
      <trkpt lat="45.07986" lon="4.29357">
        <ele>971.40002441406</ele>
        <time>2019-08-11T06:48:04.000Z</time>
      </trkpt>
      <trkpt lat="45.07987" lon="4.2936">
        <ele>971.59997558594</ele>
        <time>2019-08-11T06:48:05.000Z</time>
      </trkpt>
      <trkpt lat="45.07993" lon="4.29385">
        <ele>973.20001220703</ele>
        <time>2019-08-11T06:48:17.000Z</time>
      </trkpt>
      <trkpt lat="45.07995" lon="4.29385">
        <ele>973.59997558594</ele>
        <time>2019-08-11T06:48:18.000Z</time>
      </trkpt>
      <trkpt lat="45.07997" lon="4.29385">
        <ele>973.59997558594</ele>
        <time>2019-08-11T06:48:19.000Z</time>
      </trkpt>
      <trkpt lat="45.07998" lon="4.29385">
        <ele>973.79998779297</ele>
        <time>2019-08-11T06:48:20.000Z</time>
      </trkpt>
      <trkpt lat="45.07999" lon="4.29385">
        <ele>974</ele>
        <time>2019-08-11T06:48:21.000Z</time>
      </trkpt>
      <trkpt lat="45.08001" lon="4.29385">
        <ele>974.20001220703</ele>
        <time>2019-08-11T06:48:22.000Z</time>
      </trkpt>
      <trkpt lat="45.08002" lon="4.29385">
        <ele>974.40002441406</ele>
        <time>2019-08-11T06:48:23.000Z</time>
      </trkpt>
      <trkpt lat="45.08004" lon="4.29385">
        <ele>974.59997558594</ele>
        <time>2019-08-11T06:48:24.000Z</time>
      </trkpt>
      <trkpt lat="45.08005" lon="4.29386">
        <ele>974.59997558594</ele>
        <time>2019-08-11T06:48:25.000Z</time>
      </trkpt>
      <trkpt lat="45.08006" lon="4.29387">
        <ele>975</ele>
        <time>2019-08-11T06:48:26.000Z</time>
      </trkpt>
      <trkpt lat="45.08008" lon="4.29389">
        <ele>975.20001220703</ele>
        <time>2019-08-11T06:48:27.000Z</time>
      </trkpt>
      <trkpt lat="45.08008" lon="4.29391">
        <ele>975.40002441406</ele>
        <time>2019-08-11T06:48:28.000Z</time>
      </trkpt>
      <trkpt lat="45.08009" lon="4.29393">
        <ele>975.59997558594</ele>
        <time>2019-08-11T06:48:29.000Z</time>
      </trkpt>
      <trkpt lat="45.0801" lon="4.29395">
        <ele>975.79998779297</ele>
        <time>2019-08-11T06:48:30.000Z</time>
      </trkpt>
      <trkpt lat="45.08009" lon="4.29398">
        <ele>975.79998779297</ele>
        <time>2019-08-11T06:48:31.000Z</time>
      </trkpt>
      <trkpt lat="45.08009" lon="4.294">
        <ele>975.79998779297</ele>
        <time>2019-08-11T06:48:32.000Z</time>
      </trkpt>
      <trkpt lat="45.08008" lon="4.29402">
        <ele>975.79998779297</ele>
        <time>2019-08-11T06:48:33.000Z</time>
      </trkpt>
      <trkpt lat="45.08007" lon="4.29405">
        <ele>976</ele>
        <time>2019-08-11T06:48:34.000Z</time>
      </trkpt>
      <trkpt lat="45.08006" lon="4.29407">
        <ele>975.79998779297</ele>
        <time>2019-08-11T06:48:35.000Z</time>
      </trkpt>
      <trkpt lat="45.08006" lon="4.2941">
        <ele>975.79998779297</ele>
        <time>2019-08-11T06:48:36.000Z</time>
      </trkpt>
      <trkpt lat="45.08005" lon="4.29413">
        <ele>975.79998779297</ele>
        <time>2019-08-11T06:48:37.000Z</time>
      </trkpt>
      <trkpt lat="45.08004" lon="4.29416">
        <ele>975.79998779297</ele>
        <time>2019-08-11T06:48:38.000Z</time>
      </trkpt>
      <trkpt lat="45.08003" lon="4.2942">
        <ele>975.79998779297</ele>
        <time>2019-08-11T06:48:39.000Z</time>
      </trkpt>
      <trkpt lat="45.08002" lon="4.29423">
        <ele>975.59997558594</ele>
        <time>2019-08-11T06:48:40.000Z</time>
      </trkpt>
      <trkpt lat="45.08003" lon="4.29452">
        <ele>975</ele>
        <time>2019-08-11T06:48:48.000Z</time>
      </trkpt>
      <trkpt lat="45.08032" lon="4.29455">
        <ele>978.20001220703</ele>
        <time>2019-08-11T06:49:05.000Z</time>
      </trkpt>
      <trkpt lat="45.08071" lon="4.29451">
        <ele>981.20001220703</ele>
        <time>2019-08-11T06:49:26.000Z</time>
      </trkpt>
      <trkpt lat="45.08096" lon="4.29448">
        <ele>982.20001220703</ele>
        <time>2019-08-11T06:49:38.000Z</time>
      </trkpt>
      <trkpt lat="45.08153" lon="4.29432">
        <ele>983.20001220703</ele>
        <time>2019-08-11T06:49:58.000Z</time>
      </trkpt>
      <trkpt lat="45.0819" lon="4.29415">
        <ele>986.20001220703</ele>
        <time>2019-08-11T06:50:12.000Z</time>
      </trkpt>
      <trkpt lat="45.08211" lon="4.29404">
        <ele>988.20001220703</ele>
        <time>2019-08-11T06:50:23.000Z</time>
      </trkpt>
      <trkpt lat="45.08227" lon="4.29392">
        <ele>991.20001220703</ele>
        <time>2019-08-11T06:50:33.000Z</time>
      </trkpt>
      <trkpt lat="45.08238" lon="4.29384">
        <ele>992.59997558594</ele>
        <time>2019-08-11T06:50:40.000Z</time>
      </trkpt>
      <trkpt lat="45.0824" lon="4.29383">
        <ele>992.79998779297</ele>
        <time>2019-08-11T06:50:41.000Z</time>
      </trkpt>
      <trkpt lat="45.08241" lon="4.29382">
        <ele>992.79998779297</ele>
        <time>2019-08-11T06:50:42.000Z</time>
      </trkpt>
      <trkpt lat="45.08242" lon="4.29382">
        <ele>993</ele>
        <time>2019-08-11T06:50:43.000Z</time>
      </trkpt>
      <trkpt lat="45.08244" lon="4.29381">
        <ele>993.20001220703</ele>
        <time>2019-08-11T06:50:44.000Z</time>
      </trkpt>
      <trkpt lat="45.08295" lon="4.29369">
        <ele>995.59997558594</ele>
        <time>2019-08-11T06:51:10.000Z</time>
      </trkpt>
      <trkpt lat="45.08314" lon="4.29366">
        <ele>995</ele>
        <time>2019-08-11T06:51:17.000Z</time>
      </trkpt>
      <trkpt lat="45.08331" lon="4.29359">
        <ele>992.79998779297</ele>
        <time>2019-08-11T06:51:22.000Z</time>
      </trkpt>
      <trkpt lat="45.08342" lon="4.29356">
        <ele>991</ele>
        <time>2019-08-11T06:51:24.000Z</time>
      </trkpt>
      <trkpt lat="45.0836" lon="4.29353">
        <ele>989.40002441406</ele>
        <time>2019-08-11T06:51:27.000Z</time>
      </trkpt>
      <trkpt lat="45.08366" lon="4.29353">
        <ele>988.59997558594</ele>
        <time>2019-08-11T06:51:28.000Z</time>
      </trkpt>
      <trkpt lat="45.08371" lon="4.29353">
        <ele>987.59997558594</ele>
        <time>2019-08-11T06:51:29.000Z</time>
      </trkpt>
      <trkpt lat="45.08391" lon="4.29354">
        <ele>985</ele>
        <time>2019-08-11T06:51:33.000Z</time>
      </trkpt>
      <trkpt lat="45.08396" lon="4.29357">
        <ele>984.40002441406</ele>
        <time>2019-08-11T06:51:34.000Z</time>
      </trkpt>
      <trkpt lat="45.08399" lon="4.29362">
        <ele>984</ele>
        <time>2019-08-11T06:51:35.000Z</time>
      </trkpt>
      <trkpt lat="45.08402" lon="4.29368">
        <ele>983.59997558594</ele>
        <time>2019-08-11T06:51:36.000Z</time>
      </trkpt>
      <trkpt lat="45.08405" lon="4.29372">
        <ele>983.40002441406</ele>
        <time>2019-08-11T06:51:37.000Z</time>
      </trkpt>
      <trkpt lat="45.08408" lon="4.29377">
        <ele>983.59997558594</ele>
        <time>2019-08-11T06:51:38.000Z</time>
      </trkpt>
      <trkpt lat="45.0843" lon="4.29423">
        <ele>986.59997558594</ele>
        <time>2019-08-11T06:51:50.000Z</time>
      </trkpt>
      <trkpt lat="45.08433" lon="4.2945">
        <ele>988.59997558594</ele>
        <time>2019-08-11T06:51:59.000Z</time>
      </trkpt>
      <trkpt lat="45.08435" lon="4.29451">
        <ele>988.79998779297</ele>
        <time>2019-08-11T06:52:00.000Z</time>
      </trkpt>
      <trkpt lat="45.08461" lon="4.29489">
        <ele>991</ele>
        <time>2019-08-11T06:52:13.000Z</time>
      </trkpt>
      <trkpt lat="45.08481" lon="4.29509">
        <ele>993</ele>
        <time>2019-08-11T06:52:23.000Z</time>
      </trkpt>
      <trkpt lat="45.08507" lon="4.29514">
        <ele>996.20001220703</ele>
        <time>2019-08-11T06:52:35.000Z</time>
      </trkpt>
      <trkpt lat="45.0853" lon="4.29498">
        <ele>996.79998779297</ele>
        <time>2019-08-11T06:52:45.000Z</time>
      </trkpt>
      <trkpt lat="45.08566" lon="4.29486">
        <ele>998.79998779297</ele>
        <time>2019-08-11T06:52:58.000Z</time>
      </trkpt>
      <trkpt lat="45.0862" lon="4.29483">
        <ele>1002</ele>
        <time>2019-08-11T06:53:19.000Z</time>
      </trkpt>
      <trkpt lat="45.08662" lon="4.29517">
        <ele>1001.200012207</ele>
        <time>2019-08-11T06:53:37.000Z</time>
      </trkpt>
      <trkpt lat="45.08671" lon="4.2952">
        <ele>1000</ele>
        <time>2019-08-11T06:53:39.000Z</time>
      </trkpt>
      <trkpt lat="45.08676" lon="4.29524">
        <ele>999.20001220703</ele>
        <time>2019-08-11T06:53:40.000Z</time>
      </trkpt>
      <trkpt lat="45.0868" lon="4.29529">
        <ele>998.59997558594</ele>
        <time>2019-08-11T06:53:41.000Z</time>
      </trkpt>
      <trkpt lat="45.08682" lon="4.29537">
        <ele>997.79998779297</ele>
        <time>2019-08-11T06:53:42.000Z</time>
      </trkpt>
      <trkpt lat="45.08683" lon="4.29545">
        <ele>997.40002441406</ele>
        <time>2019-08-11T06:53:43.000Z</time>
      </trkpt>
      <trkpt lat="45.08685" lon="4.29553">
        <ele>997</ele>
        <time>2019-08-11T06:53:44.000Z</time>
      </trkpt>
      <trkpt lat="45.08686" lon="4.29559">
        <ele>996.79998779297</ele>
        <time>2019-08-11T06:53:45.000Z</time>
      </trkpt>
      <trkpt lat="45.08689" lon="4.2958">
        <ele>996.59997558594</ele>
        <time>2019-08-11T06:53:48.000Z</time>
      </trkpt>
      <trkpt lat="45.08691" lon="4.29585">
        <ele>996.40002441406</ele>
        <time>2019-08-11T06:53:49.000Z</time>
      </trkpt>
      <trkpt lat="45.08694" lon="4.29591">
        <ele>996</ele>
        <time>2019-08-11T06:53:50.000Z</time>
      </trkpt>
      <trkpt lat="45.08701" lon="4.29608">
        <ele>994.79998779297</ele>
        <time>2019-08-11T06:53:53.000Z</time>
      </trkpt>
      <trkpt lat="45.08702" lon="4.29613">
        <ele>994.59997558594</ele>
        <time>2019-08-11T06:53:54.000Z</time>
      </trkpt>
      <trkpt lat="45.08702" lon="4.29617">
        <ele>994.79998779297</ele>
        <time>2019-08-11T06:53:55.000Z</time>
      </trkpt>
      <trkpt lat="45.08705" lon="4.29632">
        <ele>995.20001220703</ele>
        <time>2019-08-11T06:53:59.000Z</time>
      </trkpt>
      <trkpt lat="45.08713" lon="4.29661">
        <ele>991.79998779297</ele>
        <time>2019-08-11T06:54:03.000Z</time>
      </trkpt>
      <trkpt lat="45.08716" lon="4.29679">
        <ele>990.40002441406</ele>
        <time>2019-08-11T06:54:05.000Z</time>
      </trkpt>
      <trkpt lat="45.08717" lon="4.29688">
        <ele>990.20001220703</ele>
        <time>2019-08-11T06:54:06.000Z</time>
      </trkpt>
      <trkpt lat="45.08719" lon="4.29704">
        <ele>991.20001220703</ele>
        <time>2019-08-11T06:54:08.000Z</time>
      </trkpt>
      <trkpt lat="45.0872" lon="4.29711">
        <ele>991.79998779297</ele>
        <time>2019-08-11T06:54:09.000Z</time>
      </trkpt>
      <trkpt lat="45.08725" lon="4.29717">
        <ele>991.40002441406</ele>
        <time>2019-08-11T06:54:10.000Z</time>
      </trkpt>
      <trkpt lat="45.08746" lon="4.29749">
        <ele>987.79998779297</ele>
        <time>2019-08-11T06:54:15.000Z</time>
      </trkpt>
      <trkpt lat="45.08753" lon="4.29759">
        <ele>986</ele>
        <time>2019-08-11T06:54:17.000Z</time>
      </trkpt>
      <trkpt lat="45.08756" lon="4.29761">
        <ele>985.59997558594</ele>
        <time>2019-08-11T06:54:18.000Z</time>
      </trkpt>
      <trkpt lat="45.08761" lon="4.29763">
        <ele>984.59997558594</ele>
        <time>2019-08-11T06:54:19.000Z</time>
      </trkpt>
      <trkpt lat="45.08766" lon="4.29764">
        <ele>983</ele>
        <time>2019-08-11T06:54:20.000Z</time>
      </trkpt>
      <trkpt lat="45.08772" lon="4.29765">
        <ele>981.79998779297</ele>
        <time>2019-08-11T06:54:21.000Z</time>
      </trkpt>
      <trkpt lat="45.0878" lon="4.29766">
        <ele>980.40002441406</ele>
        <time>2019-08-11T06:54:22.000Z</time>
      </trkpt>
      <trkpt lat="45.08792" lon="4.29767">
        <ele>977.40002441406</ele>
        <time>2019-08-11T06:54:24.000Z</time>
      </trkpt>
      <trkpt lat="45.08803" lon="4.2977">
        <ele>976.20001220703</ele>
        <time>2019-08-11T06:54:26.000Z</time>
      </trkpt>
      <trkpt lat="45.08807" lon="4.29773">
        <ele>975.20001220703</ele>
        <time>2019-08-11T06:54:27.000Z</time>
      </trkpt>
      <trkpt lat="45.0881" lon="4.29777">
        <ele>974.59997558594</ele>
        <time>2019-08-11T06:54:28.000Z</time>
      </trkpt>
      <trkpt lat="45.08811" lon="4.2978">
        <ele>974.40002441406</ele>
        <time>2019-08-11T06:54:29.000Z</time>
      </trkpt>
      <trkpt lat="45.08812" lon="4.29783">
        <ele>974.59997558594</ele>
        <time>2019-08-11T06:54:30.000Z</time>
      </trkpt>
      <trkpt lat="45.08812" lon="4.29785">
        <ele>974.59997558594</ele>
        <time>2019-08-11T06:54:31.000Z</time>
      </trkpt>
      <trkpt lat="45.08813" lon="4.29786">
        <ele>974.59997558594</ele>
        <time>2019-08-11T06:54:32.000Z</time>
      </trkpt>
      <trkpt lat="45.0882" lon="4.29803">
        <ele>975.20001220703</ele>
        <time>2019-08-11T06:54:44.000Z</time>
      </trkpt>
      <trkpt lat="45.0882" lon="4.29806">
        <ele>975</ele>
        <time>2019-08-11T06:54:45.000Z</time>
      </trkpt>
      <trkpt lat="45.08821" lon="4.29809">
        <ele>975</ele>
        <time>2019-08-11T06:54:46.000Z</time>
      </trkpt>
      <trkpt lat="45.08821" lon="4.29813">
        <ele>974.79998779297</ele>
        <time>2019-08-11T06:54:47.000Z</time>
      </trkpt>
      <trkpt lat="45.08822" lon="4.29817">
        <ele>974.59997558594</ele>
        <time>2019-08-11T06:54:48.000Z</time>
      </trkpt>
      <trkpt lat="45.08823" lon="4.29821">
        <ele>974.40002441406</ele>
        <time>2019-08-11T06:54:49.000Z</time>
      </trkpt>
      <trkpt lat="45.08824" lon="4.29824">
        <ele>974.40002441406</ele>
        <time>2019-08-11T06:54:50.000Z</time>
      </trkpt>
      <trkpt lat="45.08824" lon="4.29827">
        <ele>974.40002441406</ele>
        <time>2019-08-11T06:54:51.000Z</time>
      </trkpt>
      <trkpt lat="45.08821" lon="4.29866">
        <ele>976.20001220703</ele>
        <time>2019-08-11T06:55:02.000Z</time>
      </trkpt>
      <trkpt lat="45.08817" lon="4.29877">
        <ele>978</ele>
        <time>2019-08-11T06:55:06.000Z</time>
      </trkpt>
      <trkpt lat="45.08815" lon="4.29887">
        <ele>979</ele>
        <time>2019-08-11T06:55:10.000Z</time>
      </trkpt>
      <trkpt lat="45.08814" lon="4.299">
        <ele>979.79998779297</ele>
        <time>2019-08-11T06:55:14.000Z</time>
      </trkpt>
      <trkpt lat="45.08812" lon="4.29923">
        <ele>981.20001220703</ele>
        <time>2019-08-11T06:55:23.000Z</time>
      </trkpt>
      <trkpt lat="45.08812" lon="4.29925">
        <ele>981.20001220703</ele>
        <time>2019-08-11T06:55:24.000Z</time>
      </trkpt>
      <trkpt lat="45.08812" lon="4.29929">
        <ele>981.40002441406</ele>
        <time>2019-08-11T06:55:25.000Z</time>
      </trkpt>
      <trkpt lat="45.08812" lon="4.29932">
        <ele>981.59997558594</ele>
        <time>2019-08-11T06:55:26.000Z</time>
      </trkpt>
      <trkpt lat="45.08812" lon="4.29934">
        <ele>981.59997558594</ele>
        <time>2019-08-11T06:55:27.000Z</time>
      </trkpt>
      <trkpt lat="45.08812" lon="4.29937">
        <ele>981.79998779297</ele>
        <time>2019-08-11T06:55:28.000Z</time>
      </trkpt>
      <trkpt lat="45.08812" lon="4.2994">
        <ele>982</ele>
        <time>2019-08-11T06:55:29.000Z</time>
      </trkpt>
      <trkpt lat="45.08813" lon="4.29949">
        <ele>982.40002441406</ele>
        <time>2019-08-11T06:55:33.000Z</time>
      </trkpt>
      <trkpt lat="45.08813" lon="4.29952">
        <ele>982.79998779297</ele>
        <time>2019-08-11T06:55:34.000Z</time>
      </trkpt>
      <trkpt lat="45.08813" lon="4.29955">
        <ele>983</ele>
        <time>2019-08-11T06:55:35.000Z</time>
      </trkpt>
      <trkpt lat="45.0881" lon="4.29973">
        <ele>983.40002441406</ele>
        <time>2019-08-11T06:55:41.000Z</time>
      </trkpt>
      <trkpt lat="45.088" lon="4.29996">
        <ele>982.40002441406</ele>
        <time>2019-08-11T06:55:46.000Z</time>
      </trkpt>
      <trkpt lat="45.08779" lon="4.30075">
        <ele>978.59997558594</ele>
        <time>2019-08-11T06:55:56.000Z</time>
      </trkpt>
      <trkpt lat="45.08775" lon="4.30115">
        <ele>975.20001220703</ele>
        <time>2019-08-11T06:56:00.000Z</time>
      </trkpt>
      <trkpt lat="45.08771" lon="4.30135">
        <ele>974</ele>
        <time>2019-08-11T06:56:02.000Z</time>
      </trkpt>
      <trkpt lat="45.08768" lon="4.30144">
        <ele>973.59997558594</ele>
        <time>2019-08-11T06:56:03.000Z</time>
      </trkpt>
      <trkpt lat="45.08765" lon="4.30154">
        <ele>973.79998779297</ele>
        <time>2019-08-11T06:56:04.000Z</time>
      </trkpt>
      <trkpt lat="45.08761" lon="4.30163">
        <ele>973.79998779297</ele>
        <time>2019-08-11T06:56:05.000Z</time>
      </trkpt>
      <trkpt lat="45.08758" lon="4.30172">
        <ele>974</ele>
        <time>2019-08-11T06:56:06.000Z</time>
      </trkpt>
      <trkpt lat="45.08755" lon="4.30181">
        <ele>974</ele>
        <time>2019-08-11T06:56:07.000Z</time>
      </trkpt>
      <trkpt lat="45.08745" lon="4.30211">
        <ele>974.79998779297</ele>
        <time>2019-08-11T06:56:11.000Z</time>
      </trkpt>
      <trkpt lat="45.08733" lon="4.30248">
        <ele>975.59997558594</ele>
        <time>2019-08-11T06:56:16.000Z</time>
      </trkpt>
      <trkpt lat="45.08728" lon="4.30262">
        <ele>975.59997558594</ele>
        <time>2019-08-11T06:56:18.000Z</time>
      </trkpt>
      <trkpt lat="45.08724" lon="4.30268">
        <ele>975.59997558594</ele>
        <time>2019-08-11T06:56:19.000Z</time>
      </trkpt>
      <trkpt lat="45.08721" lon="4.30273">
        <ele>975.79998779297</ele>
        <time>2019-08-11T06:56:20.000Z</time>
      </trkpt>
      <trkpt lat="45.08719" lon="4.30279">
        <ele>975.79998779297</ele>
        <time>2019-08-11T06:56:21.000Z</time>
      </trkpt>
      <trkpt lat="45.08717" lon="4.30283">
        <ele>976.20001220703</ele>
        <time>2019-08-11T06:56:22.000Z</time>
      </trkpt>
      <trkpt lat="45.08715" lon="4.30288">
        <ele>976.79998779297</ele>
        <time>2019-08-11T06:56:23.000Z</time>
      </trkpt>
      <trkpt lat="45.08706" lon="4.30311">
        <ele>977.40002441406</ele>
        <time>2019-08-11T06:56:28.000Z</time>
      </trkpt>
      <trkpt lat="45.0869" lon="4.30336">
        <ele>976.79998779297</ele>
        <time>2019-08-11T06:56:34.000Z</time>
      </trkpt>
      <trkpt lat="45.08669" lon="4.30353">
        <ele>978.59997558594</ele>
        <time>2019-08-11T06:56:42.000Z</time>
      </trkpt>
      <trkpt lat="45.08639" lon="4.30377">
        <ele>980.40002441406</ele>
        <time>2019-08-11T06:56:52.000Z</time>
      </trkpt>
      <trkpt lat="45.08605" lon="4.30405">
        <ele>981.79998779297</ele>
        <time>2019-08-11T06:57:04.000Z</time>
      </trkpt>
      <trkpt lat="45.08572" lon="4.30433">
        <ele>983</ele>
        <time>2019-08-11T06:57:15.000Z</time>
      </trkpt>
      <trkpt lat="45.08514" lon="4.30451">
        <ele>984.20001220703</ele>
        <time>2019-08-11T06:57:34.000Z</time>
      </trkpt>
      <trkpt lat="45.0848" lon="4.30482">
        <ele>984.79998779297</ele>
        <time>2019-08-11T06:57:45.000Z</time>
      </trkpt>
      <trkpt lat="45.08461" lon="4.30514">
        <ele>987.40002441406</ele>
        <time>2019-08-11T06:57:54.000Z</time>
      </trkpt>
      <trkpt lat="45.08419" lon="4.30571">
        <ele>990.40002441406</ele>
        <time>2019-08-11T06:58:15.000Z</time>
      </trkpt>
      <trkpt lat="45.08402" lon="4.30586">
        <ele>991.79998779297</ele>
        <time>2019-08-11T06:58:23.000Z</time>
      </trkpt>
      <trkpt lat="45.08373" lon="4.30601">
        <ele>994.20001220703</ele>
        <time>2019-08-11T06:58:37.000Z</time>
      </trkpt>
      <trkpt lat="45.08332" lon="4.30599">
        <ele>997.20001220703</ele>
        <time>2019-08-11T06:58:57.000Z</time>
      </trkpt>
      <trkpt lat="45.08281" lon="4.30555">
        <ele>998.79998779297</ele>
        <time>2019-08-11T06:59:17.000Z</time>
      </trkpt>
      <trkpt lat="45.08248" lon="4.30525">
        <ele>999.20001220703</ele>
        <time>2019-08-11T06:59:28.000Z</time>
      </trkpt>
      <trkpt lat="45.08221" lon="4.30498">
        <ele>999</ele>
        <time>2019-08-11T06:59:37.000Z</time>
      </trkpt>
      <trkpt lat="45.08206" lon="4.30487">
        <ele>998.79998779297</ele>
        <time>2019-08-11T06:59:42.000Z</time>
      </trkpt>
      <trkpt lat="45.08206" lon="4.3049">
        <ele>998.59997558594</ele>
        <time>2019-08-11T06:59:45.000Z</time>
      </trkpt>
      <trkpt lat="45.08206" lon="4.30492">
        <ele>998.40002441406</ele>
        <time>2019-08-11T06:59:46.000Z</time>
      </trkpt>
      <trkpt lat="45.08206" lon="4.30499">
        <ele>998.40002441406</ele>
        <time>2019-08-11T06:59:49.000Z</time>
      </trkpt>
      <trkpt lat="45.08208" lon="4.30511">
        <ele>997.79998779297</ele>
        <time>2019-08-11T06:59:52.000Z</time>
      </trkpt>
      <trkpt lat="45.08208" lon="4.30521">
        <ele>997.59997558594</ele>
        <time>2019-08-11T06:59:54.000Z</time>
      </trkpt>
      <trkpt lat="45.08209" lon="4.30543">
        <ele>996.59997558594</ele>
        <time>2019-08-11T06:59:58.000Z</time>
      </trkpt>
      <trkpt lat="45.0821" lon="4.30567">
        <ele>996.20001220703</ele>
        <time>2019-08-11T07:00:02.000Z</time>
      </trkpt>
      <trkpt lat="45.0821" lon="4.30573">
        <ele>996</ele>
        <time>2019-08-11T07:00:03.000Z</time>
      </trkpt>
      <trkpt lat="45.08211" lon="4.3058">
        <ele>995.79998779297</ele>
        <time>2019-08-11T07:00:04.000Z</time>
      </trkpt>
      <trkpt lat="45.08213" lon="4.30586">
        <ele>995.40002441406</ele>
        <time>2019-08-11T07:00:05.000Z</time>
      </trkpt>
      <trkpt lat="45.0822" lon="4.30614">
        <ele>995.20001220703</ele>
        <time>2019-08-11T07:00:09.000Z</time>
      </trkpt>
      <trkpt lat="45.08223" lon="4.30626">
        <ele>995.20001220703</ele>
        <time>2019-08-11T07:00:11.000Z</time>
      </trkpt>
      <trkpt lat="45.08243" lon="4.30708">
        <ele>993.79998779297</ele>
        <time>2019-08-11T07:00:24.000Z</time>
      </trkpt>
      <trkpt lat="45.08258" lon="4.30745">
        <ele>993.40002441406</ele>
        <time>2019-08-11T07:00:30.000Z</time>
      </trkpt>
      <trkpt lat="45.08269" lon="4.30769">
        <ele>993</ele>
        <time>2019-08-11T07:00:34.000Z</time>
      </trkpt>
      <trkpt lat="45.08296" lon="4.30827">
        <ele>993</ele>
        <time>2019-08-11T07:00:44.000Z</time>
      </trkpt>
      <trkpt lat="45.08299" lon="4.30832">
        <ele>992.79998779297</ele>
        <time>2019-08-11T07:00:45.000Z</time>
      </trkpt>
      <trkpt lat="45.08314" lon="4.30867">
        <ele>989.40002441406</ele>
        <time>2019-08-11T07:00:51.000Z</time>
      </trkpt>
      <trkpt lat="45.08336" lon="4.30915">
        <ele>986.20001220703</ele>
        <time>2019-08-11T07:00:58.000Z</time>
      </trkpt>
      <trkpt lat="45.0835" lon="4.30944">
        <ele>983.79998779297</ele>
        <time>2019-08-11T07:01:02.000Z</time>
      </trkpt>
      <trkpt lat="45.08352" lon="4.30952">
        <ele>983.59997558594</ele>
        <time>2019-08-11T07:01:03.000Z</time>
      </trkpt>
      <trkpt lat="45.08369" lon="4.30985">
        <ele>981.20001220703</ele>
        <time>2019-08-11T07:01:08.000Z</time>
      </trkpt>
      <trkpt lat="45.08372" lon="4.30992">
        <ele>980.79998779297</ele>
        <time>2019-08-11T07:01:09.000Z</time>
      </trkpt>
      <trkpt lat="45.08376" lon="4.30999">
        <ele>980</ele>
        <time>2019-08-11T07:01:10.000Z</time>
      </trkpt>
      <trkpt lat="45.08381" lon="4.31004">
        <ele>979.59997558594</ele>
        <time>2019-08-11T07:01:11.000Z</time>
      </trkpt>
      <trkpt lat="45.08382" lon="4.31011">
        <ele>979.20001220703</ele>
        <time>2019-08-11T07:01:12.000Z</time>
      </trkpt>
      <trkpt lat="45.08384" lon="4.31018">
        <ele>979</ele>
        <time>2019-08-11T07:01:13.000Z</time>
      </trkpt>
      <trkpt lat="45.08386" lon="4.31024">
        <ele>978.40002441406</ele>
        <time>2019-08-11T07:01:14.000Z</time>
      </trkpt>
      <trkpt lat="45.08387" lon="4.3103">
        <ele>977.79998779297</ele>
        <time>2019-08-11T07:01:15.000Z</time>
      </trkpt>
      <trkpt lat="45.08389" lon="4.31035">
        <ele>977.40002441406</ele>
        <time>2019-08-11T07:01:16.000Z</time>
      </trkpt>
      <trkpt lat="45.08389" lon="4.3104">
        <ele>977</ele>
        <time>2019-08-11T07:01:17.000Z</time>
      </trkpt>
      <trkpt lat="45.08387" lon="4.31051">
        <ele>976</ele>
        <time>2019-08-11T07:01:19.000Z</time>
      </trkpt>
      <trkpt lat="45.08384" lon="4.31057">
        <ele>974.79998779297</ele>
        <time>2019-08-11T07:01:20.000Z</time>
      </trkpt>
      <trkpt lat="45.08377" lon="4.3107">
        <ele>972.59997558594</ele>
        <time>2019-08-11T07:01:22.000Z</time>
      </trkpt>
      <trkpt lat="45.08373" lon="4.3108">
        <ele>971.59997558594</ele>
        <time>2019-08-11T07:01:24.000Z</time>
      </trkpt>
      <trkpt lat="45.08375" lon="4.31086">
        <ele>970.79998779297</ele>
        <time>2019-08-11T07:01:25.000Z</time>
      </trkpt>
      <trkpt lat="45.08378" lon="4.3109">
        <ele>970.20001220703</ele>
        <time>2019-08-11T07:01:26.000Z</time>
      </trkpt>
      <trkpt lat="45.0838" lon="4.31093">
        <ele>970.20001220703</ele>
        <time>2019-08-11T07:01:27.000Z</time>
      </trkpt>
      <trkpt lat="45.08382" lon="4.31094">
        <ele>970</ele>
        <time>2019-08-11T07:01:28.000Z</time>
      </trkpt>
      <trkpt lat="45.08384" lon="4.31096">
        <ele>970</ele>
        <time>2019-08-11T07:01:29.000Z</time>
      </trkpt>
      <trkpt lat="45.08386" lon="4.31096">
        <ele>969.79998779297</ele>
        <time>2019-08-11T07:01:30.000Z</time>
      </trkpt>
      <trkpt lat="45.08389" lon="4.31095">
        <ele>969.79998779297</ele>
        <time>2019-08-11T07:01:31.000Z</time>
      </trkpt>
      <trkpt lat="45.08402" lon="4.31097">
        <ele>969.40002441406</ele>
        <time>2019-08-11T07:01:35.000Z</time>
      </trkpt>
      <trkpt lat="45.08411" lon="4.31096">
        <ele>969.59997558594</ele>
        <time>2019-08-11T07:01:39.000Z</time>
      </trkpt>
      <trkpt lat="45.08419" lon="4.31098">
        <ele>969.79998779297</ele>
        <time>2019-08-11T07:01:42.000Z</time>
      </trkpt>
      <trkpt lat="45.0842" lon="4.31101">
        <ele>970.20001220703</ele>
        <time>2019-08-11T07:01:43.000Z</time>
      </trkpt>
      <trkpt lat="45.0842" lon="4.31104">
        <ele>970.20001220703</ele>
        <time>2019-08-11T07:01:44.000Z</time>
      </trkpt>
      <trkpt lat="45.0842" lon="4.31108">
        <ele>970.20001220703</ele>
        <time>2019-08-11T07:01:45.000Z</time>
      </trkpt>
      <trkpt lat="45.0842" lon="4.31112">
        <ele>970.40002441406</ele>
        <time>2019-08-11T07:01:46.000Z</time>
      </trkpt>
      <trkpt lat="45.08418" lon="4.31115">
        <ele>970.59997558594</ele>
        <time>2019-08-11T07:01:47.000Z</time>
      </trkpt>
      <trkpt lat="45.08416" lon="4.31117">
        <ele>970.79998779297</ele>
        <time>2019-08-11T07:01:48.000Z</time>
      </trkpt>
      <trkpt lat="45.08415" lon="4.3112">
        <ele>971</ele>
        <time>2019-08-11T07:01:49.000Z</time>
      </trkpt>
      <trkpt lat="45.08413" lon="4.31122">
        <ele>971</ele>
        <time>2019-08-11T07:01:50.000Z</time>
      </trkpt>
      <trkpt lat="45.08412" lon="4.31125">
        <ele>971.59997558594</ele>
        <time>2019-08-11T07:01:51.000Z</time>
      </trkpt>
      <trkpt lat="45.0841" lon="4.31127">
        <ele>972</ele>
        <time>2019-08-11T07:01:52.000Z</time>
      </trkpt>
      <trkpt lat="45.08406" lon="4.31135">
        <ele>973.59997558594</ele>
        <time>2019-08-11T07:01:55.000Z</time>
      </trkpt>
      <trkpt lat="45.08403" lon="4.31141">
        <ele>974.59997558594</ele>
        <time>2019-08-11T07:01:58.000Z</time>
      </trkpt>
      <trkpt lat="45.084" lon="4.31151">
        <ele>975.59997558594</ele>
        <time>2019-08-11T07:02:02.000Z</time>
      </trkpt>
      <trkpt lat="45.08397" lon="4.31164">
        <ele>976.40002441406</ele>
        <time>2019-08-11T07:02:06.000Z</time>
      </trkpt>
      <trkpt lat="45.08395" lon="4.31176">
        <ele>977</ele>
        <time>2019-08-11T07:02:10.000Z</time>
      </trkpt>
      <trkpt lat="45.08395" lon="4.31188">
        <ele>978.40002441406</ele>
        <time>2019-08-11T07:02:15.000Z</time>
      </trkpt>
      <trkpt lat="45.08395" lon="4.31191">
        <ele>978.79998779297</ele>
        <time>2019-08-11T07:02:16.000Z</time>
      </trkpt>
      <trkpt lat="45.08395" lon="4.31194">
        <ele>979</ele>
        <time>2019-08-11T07:02:17.000Z</time>
      </trkpt>
      <trkpt lat="45.08395" lon="4.31197">
        <ele>979.40002441406</ele>
        <time>2019-08-11T07:02:18.000Z</time>
      </trkpt>
      <trkpt lat="45.08395" lon="4.31199">
        <ele>979.79998779297</ele>
        <time>2019-08-11T07:02:19.000Z</time>
      </trkpt>
      <trkpt lat="45.08395" lon="4.31201">
        <ele>980</ele>
        <time>2019-08-11T07:02:20.000Z</time>
      </trkpt>
      <trkpt lat="45.08395" lon="4.31203">
        <ele>980.20001220703</ele>
        <time>2019-08-11T07:02:21.000Z</time>
      </trkpt>
      <trkpt lat="45.08395" lon="4.31206">
        <ele>980.40002441406</ele>
        <time>2019-08-11T07:02:22.000Z</time>
      </trkpt>
      <trkpt lat="45.08395" lon="4.31208">
        <ele>980.59997558594</ele>
        <time>2019-08-11T07:02:23.000Z</time>
      </trkpt>
      <trkpt lat="45.08397" lon="4.31238">
        <ele>983.40002441406</ele>
        <time>2019-08-11T07:02:35.000Z</time>
      </trkpt>
      <trkpt lat="45.08399" lon="4.3125">
        <ele>984.40002441406</ele>
        <time>2019-08-11T07:02:40.000Z</time>
      </trkpt>
      <trkpt lat="45.08399" lon="4.31252">
        <ele>984.59997558594</ele>
        <time>2019-08-11T07:02:41.000Z</time>
      </trkpt>
      <trkpt lat="45.08399" lon="4.31254">
        <ele>984.79998779297</ele>
        <time>2019-08-11T07:02:42.000Z</time>
      </trkpt>
      <trkpt lat="45.084" lon="4.31256">
        <ele>985</ele>
        <time>2019-08-11T07:02:43.000Z</time>
      </trkpt>
      <trkpt lat="45.084" lon="4.31258">
        <ele>985.40002441406</ele>
        <time>2019-08-11T07:02:44.000Z</time>
      </trkpt>
      <trkpt lat="45.08401" lon="4.3126">
        <ele>985.59997558594</ele>
        <time>2019-08-11T07:02:45.000Z</time>
      </trkpt>
      <trkpt lat="45.08401" lon="4.31262">
        <ele>986</ele>
        <time>2019-08-11T07:02:46.000Z</time>
      </trkpt>
      <trkpt lat="45.08402" lon="4.31264">
        <ele>986.20001220703</ele>
        <time>2019-08-11T07:02:47.000Z</time>
      </trkpt>
      <trkpt lat="45.08406" lon="4.3129">
        <ele>988.59997558594</ele>
        <time>2019-08-11T07:02:58.000Z</time>
      </trkpt>
      <trkpt lat="45.08407" lon="4.31292">
        <ele>988.79998779297</ele>
        <time>2019-08-11T07:02:59.000Z</time>
      </trkpt>
      <trkpt lat="45.08407" lon="4.31294">
        <ele>989</ele>
        <time>2019-08-11T07:03:00.000Z</time>
      </trkpt>
      <trkpt lat="45.08408" lon="4.31296">
        <ele>989.20001220703</ele>
        <time>2019-08-11T07:03:01.000Z</time>
      </trkpt>
      <trkpt lat="45.08409" lon="4.31297">
        <ele>989.40002441406</ele>
        <time>2019-08-11T07:03:02.000Z</time>
      </trkpt>
      <trkpt lat="45.0841" lon="4.31299">
        <ele>989.59997558594</ele>
        <time>2019-08-11T07:03:03.000Z</time>
      </trkpt>
      <trkpt lat="45.08414" lon="4.31307">
        <ele>990.59997558594</ele>
        <time>2019-08-11T07:03:09.000Z</time>
      </trkpt>
      <trkpt lat="45.08415" lon="4.31307">
        <ele>991</ele>
        <time>2019-08-11T07:03:10.000Z</time>
      </trkpt>
      <trkpt lat="45.08416" lon="4.31306">
        <ele>991.20001220703</ele>
        <time>2019-08-11T07:03:11.000Z</time>
      </trkpt>
      <trkpt lat="45.0843" lon="4.31327">
        <ele>994.40002441406</ele>
        <time>2019-08-11T07:03:27.000Z</time>
      </trkpt>
      <trkpt lat="45.08436" lon="4.31415">
        <ele>997.59997558594</ele>
        <time>2019-08-11T07:03:56.000Z</time>
      </trkpt>
      <trkpt lat="45.08448" lon="4.31444">
        <ele>1000.5999755859</ele>
        <time>2019-08-11T07:04:10.000Z</time>
      </trkpt>
      <trkpt lat="45.08466" lon="4.3147">
        <ele>1003.5999755859</ele>
        <time>2019-08-11T07:04:25.000Z</time>
      </trkpt>
      <trkpt lat="45.08487" lon="4.31509">
        <ele>1006.5999755859</ele>
        <time>2019-08-11T07:04:42.000Z</time>
      </trkpt>
      <trkpt lat="45.08504" lon="4.31579">
        <ele>1009.799987793</ele>
        <time>2019-08-11T07:05:05.000Z</time>
      </trkpt>
      <trkpt lat="45.08462" lon="4.31609">
        <ele>1012.200012207</ele>
        <time>2019-08-11T07:05:27.000Z</time>
      </trkpt>
      <trkpt lat="45.08443" lon="4.31631">
        <ele>1015.5999755859</ele>
        <time>2019-08-11T07:05:43.000Z</time>
      </trkpt>
      <trkpt lat="45.08424" lon="4.3166">
        <ele>1018.799987793</ele>
        <time>2019-08-11T07:05:59.000Z</time>
      </trkpt>
      <trkpt lat="45.08422" lon="4.3166">
        <ele>1019</ele>
        <time>2019-08-11T07:06:00.000Z</time>
      </trkpt>
      <trkpt lat="45.08393" lon="4.31667">
        <ele>1022</ele>
        <time>2019-08-11T07:06:17.000Z</time>
      </trkpt>
      <trkpt lat="45.0834" lon="4.31686">
        <ele>1021.200012207</ele>
        <time>2019-08-11T07:06:33.000Z</time>
      </trkpt>
      <trkpt lat="45.08328" lon="4.31694">
        <ele>1020.200012207</ele>
        <time>2019-08-11T07:06:36.000Z</time>
      </trkpt>
      <trkpt lat="45.08325" lon="4.317">
        <ele>1019.799987793</ele>
        <time>2019-08-11T07:06:37.000Z</time>
      </trkpt>
      <trkpt lat="45.08322" lon="4.31707">
        <ele>1019.200012207</ele>
        <time>2019-08-11T07:06:38.000Z</time>
      </trkpt>
      <trkpt lat="45.08319" lon="4.31715">
        <ele>1018</ele>
        <time>2019-08-11T07:06:39.000Z</time>
      </trkpt>
      <trkpt lat="45.08316" lon="4.31723">
        <ele>1017</ele>
        <time>2019-08-11T07:06:40.000Z</time>
      </trkpt>
      <trkpt lat="45.08304" lon="4.31756">
        <ele>1016.4000244141</ele>
        <time>2019-08-11T07:06:44.000Z</time>
      </trkpt>
      <trkpt lat="45.08297" lon="4.31788">
        <ele>1015.799987793</ele>
        <time>2019-08-11T07:06:48.000Z</time>
      </trkpt>
      <trkpt lat="45.08284" lon="4.31861">
        <ele>1012.799987793</ele>
        <time>2019-08-11T07:06:56.000Z</time>
      </trkpt>
      <trkpt lat="45.08281" lon="4.31882">
        <ele>1012</ele>
        <time>2019-08-11T07:06:58.000Z</time>
      </trkpt>
      <trkpt lat="45.08277" lon="4.31913">
        <ele>1011.4000244141</ele>
        <time>2019-08-11T07:07:01.000Z</time>
      </trkpt>
      <trkpt lat="45.08273" lon="4.31931">
        <ele>1011.5999755859</ele>
        <time>2019-08-11T07:07:03.000Z</time>
      </trkpt>
      <trkpt lat="45.08271" lon="4.31938">
        <ele>1011.799987793</ele>
        <time>2019-08-11T07:07:04.000Z</time>
      </trkpt>
      <trkpt lat="45.08267" lon="4.3195">
        <ele>1012.799987793</ele>
        <time>2019-08-11T07:07:06.000Z</time>
      </trkpt>
      <trkpt lat="45.08264" lon="4.31955">
        <ele>1013.200012207</ele>
        <time>2019-08-11T07:07:07.000Z</time>
      </trkpt>
      <trkpt lat="45.08261" lon="4.31959">
        <ele>1013.799987793</ele>
        <time>2019-08-11T07:07:08.000Z</time>
      </trkpt>
      <trkpt lat="45.08258" lon="4.31962">
        <ele>1014.200012207</ele>
        <time>2019-08-11T07:07:09.000Z</time>
      </trkpt>
      <trkpt lat="45.08254" lon="4.31964">
        <ele>1014.4000244141</ele>
        <time>2019-08-11T07:07:10.000Z</time>
      </trkpt>
      <trkpt lat="45.08251" lon="4.31965">
        <ele>1014.799987793</ele>
        <time>2019-08-11T07:07:11.000Z</time>
      </trkpt>
      <trkpt lat="45.08247" lon="4.31966">
        <ele>1014.799987793</ele>
        <time>2019-08-11T07:07:12.000Z</time>
      </trkpt>
      <trkpt lat="45.08243" lon="4.31967">
        <ele>1015</ele>
        <time>2019-08-11T07:07:13.000Z</time>
      </trkpt>
      <trkpt lat="45.08228" lon="4.31975">
        <ele>1015.200012207</ele>
        <time>2019-08-11T07:07:18.000Z</time>
      </trkpt>
      <trkpt lat="45.08199" lon="4.32018">
        <ele>1018.4000244141</ele>
        <time>2019-08-11T07:07:34.000Z</time>
      </trkpt>
      <trkpt lat="45.08201" lon="4.32042">
        <ele>1020.200012207</ele>
        <time>2019-08-11T07:07:42.000Z</time>
      </trkpt>
      <trkpt lat="45.08216" lon="4.32082">
        <ele>1022.799987793</ele>
        <time>2019-08-11T07:07:56.000Z</time>
      </trkpt>
      <trkpt lat="45.08242" lon="4.32152">
        <ele>1024.5999755859</ele>
        <time>2019-08-11T07:08:19.000Z</time>
      </trkpt>
      <trkpt lat="45.08294" lon="4.32188">
        <ele>1027.1999511719</ele>
        <time>2019-08-11T07:08:41.000Z</time>
      </trkpt>
      <trkpt lat="45.08304" lon="4.32219">
        <ele>1028.5999755859</ele>
        <time>2019-08-11T07:08:52.000Z</time>
      </trkpt>
      <trkpt lat="45.08305" lon="4.32244">
        <ele>1028.8000488281</ele>
        <time>2019-08-11T07:08:59.000Z</time>
      </trkpt>
      <trkpt lat="45.08306" lon="4.32283">
        <ele>1029.4000244141</ele>
        <time>2019-08-11T07:09:09.000Z</time>
      </trkpt>
      <trkpt lat="45.08307" lon="4.32314">
        <ele>1029.8000488281</ele>
        <time>2019-08-11T07:09:17.000Z</time>
      </trkpt>
      <trkpt lat="45.08288" lon="4.32388">
        <ele>1031.1999511719</ele>
        <time>2019-08-11T07:09:34.000Z</time>
      </trkpt>
      <trkpt lat="45.08241" lon="4.32426">
        <ele>1033.4000244141</ele>
        <time>2019-08-11T07:09:53.000Z</time>
      </trkpt>
      <trkpt lat="45.08227" lon="4.32434">
        <ele>1034.4000244141</ele>
        <time>2019-08-11T07:09:59.000Z</time>
      </trkpt>
      <trkpt lat="45.08219" lon="4.32441">
        <ele>1035.4000244141</ele>
        <time>2019-08-11T07:10:03.000Z</time>
      </trkpt>
      <trkpt lat="45.08211" lon="4.32456">
        <ele>1036.4000244141</ele>
        <time>2019-08-11T07:10:08.000Z</time>
      </trkpt>
      <trkpt lat="45.08205" lon="4.32473">
        <ele>1037.5999755859</ele>
        <time>2019-08-11T07:10:14.000Z</time>
      </trkpt>
      <trkpt lat="45.08197" lon="4.32489">
        <ele>1039.4000244141</ele>
        <time>2019-08-11T07:10:22.000Z</time>
      </trkpt>
      <trkpt lat="45.08191" lon="4.32506">
        <ele>1041.5999755859</ele>
        <time>2019-08-11T07:10:30.000Z</time>
      </trkpt>
      <trkpt lat="45.0819" lon="4.32508">
        <ele>1041.8000488281</ele>
        <time>2019-08-11T07:10:31.000Z</time>
      </trkpt>
      <trkpt lat="45.08189" lon="4.3251">
        <ele>1042</ele>
        <time>2019-08-11T07:10:32.000Z</time>
      </trkpt>
      <trkpt lat="45.08188" lon="4.32511">
        <ele>1042</ele>
        <time>2019-08-11T07:10:33.000Z</time>
      </trkpt>
      <trkpt lat="45.08188" lon="4.32513">
        <ele>1042.4000244141</ele>
        <time>2019-08-11T07:10:34.000Z</time>
      </trkpt>
      <trkpt lat="45.08187" lon="4.32514">
        <ele>1042.5999755859</ele>
        <time>2019-08-11T07:10:35.000Z</time>
      </trkpt>
      <trkpt lat="45.08176" lon="4.32528">
        <ele>1045.4000244141</ele>
        <time>2019-08-11T07:10:46.000Z</time>
      </trkpt>
      <trkpt lat="45.08159" lon="4.32536">
        <ele>1048.4000244141</ele>
        <time>2019-08-11T07:11:00.000Z</time>
      </trkpt>
      <trkpt lat="45.08147" lon="4.32549">
        <ele>1050.5999755859</ele>
        <time>2019-08-11T07:11:12.000Z</time>
      </trkpt>
      <trkpt lat="45.08146" lon="4.3255">
        <ele>1050.8000488281</ele>
        <time>2019-08-11T07:11:13.000Z</time>
      </trkpt>
      <trkpt lat="45.08145" lon="4.32551">
        <ele>1051</ele>
        <time>2019-08-11T07:11:14.000Z</time>
      </trkpt>
      <trkpt lat="45.08122" lon="4.32563">
        <ele>1054</ele>
        <time>2019-08-11T07:11:32.000Z</time>
      </trkpt>
      <trkpt lat="45.08103" lon="4.32579">
        <ele>1057.1999511719</ele>
        <time>2019-08-11T07:11:49.000Z</time>
      </trkpt>
      <trkpt lat="45.08101" lon="4.3258">
        <ele>1057.4000244141</ele>
        <time>2019-08-11T07:11:50.000Z</time>
      </trkpt>
      <trkpt lat="45.081" lon="4.32581">
        <ele>1057.4000244141</ele>
        <time>2019-08-11T07:11:51.000Z</time>
      </trkpt>
      <trkpt lat="45.08098" lon="4.32582">
        <ele>1057.5999755859</ele>
        <time>2019-08-11T07:11:52.000Z</time>
      </trkpt>
      <trkpt lat="45.08097" lon="4.32583">
        <ele>1057.8000488281</ele>
        <time>2019-08-11T07:11:53.000Z</time>
      </trkpt>
      <trkpt lat="45.08068" lon="4.32603">
        <ele>1060.8000488281</ele>
        <time>2019-08-11T07:12:14.000Z</time>
      </trkpt>
      <trkpt lat="45.08037" lon="4.32612">
        <ele>1064</ele>
        <time>2019-08-11T07:12:32.000Z</time>
      </trkpt>
      <trkpt lat="45.08027" lon="4.3269">
        <ele>1067.1999511719</ele>
        <time>2019-08-11T07:12:57.000Z</time>
      </trkpt>
      <trkpt lat="45.08023" lon="4.32736">
        <ele>1070.4000244141</ele>
        <time>2019-08-11T07:13:15.000Z</time>
      </trkpt>
      <trkpt lat="45.08007" lon="4.32786">
        <ele>1073.4000244141</ele>
        <time>2019-08-11T07:13:36.000Z</time>
      </trkpt>
      <trkpt lat="45.07985" lon="4.32862">
        <ele>1076.1999511719</ele>
        <time>2019-08-11T07:14:00.000Z</time>
      </trkpt>
      <trkpt lat="45.07972" lon="4.32931">
        <ele>1079.4000244141</ele>
        <time>2019-08-11T07:14:20.000Z</time>
      </trkpt>
      <trkpt lat="45.07964" lon="4.32973">
        <ele>1082.4000244141</ele>
        <time>2019-08-11T07:14:34.000Z</time>
      </trkpt>
      <trkpt lat="45.07964" lon="4.33042">
        <ele>1085.5999755859</ele>
        <time>2019-08-11T07:14:54.000Z</time>
      </trkpt>
      <trkpt lat="45.07965" lon="4.33049">
        <ele>1086</ele>
        <time>2019-08-11T07:14:56.000Z</time>
      </trkpt>
      <trkpt lat="45.07967" lon="4.33057">
        <ele>1086.1999511719</ele>
        <time>2019-08-11T07:14:58.000Z</time>
      </trkpt>
      <trkpt lat="45.07969" lon="4.33122">
        <ele>1088.5999755859</ele>
        <time>2019-08-11T07:15:18.000Z</time>
      </trkpt>
      <trkpt lat="45.07967" lon="4.33188">
        <ele>1090.1999511719</ele>
        <time>2019-08-11T07:15:36.000Z</time>
      </trkpt>
      <trkpt lat="45.07959" lon="4.33267">
        <ele>1091</ele>
        <time>2019-08-11T07:15:54.000Z</time>
      </trkpt>
      <trkpt lat="45.07947" lon="4.33326">
        <ele>1092</ele>
        <time>2019-08-11T07:16:08.000Z</time>
      </trkpt>
      <trkpt lat="45.07926" lon="4.33385">
        <ele>1095</ele>
        <time>2019-08-11T07:16:26.000Z</time>
      </trkpt>
      <trkpt lat="45.07905" lon="4.33428">
        <ele>1098.1999511719</ele>
        <time>2019-08-11T07:16:42.000Z</time>
      </trkpt>
      <trkpt lat="45.07912" lon="4.33469">
        <ele>1101.4000244141</ele>
        <time>2019-08-11T07:16:59.000Z</time>
      </trkpt>
      <trkpt lat="45.07914" lon="4.33478">
        <ele>1102.5999755859</ele>
        <time>2019-08-11T07:17:03.000Z</time>
      </trkpt>
      <trkpt lat="45.0793" lon="4.33522">
        <ele>1105.5999755859</ele>
        <time>2019-08-11T07:17:25.000Z</time>
      </trkpt>
      <trkpt lat="45.07958" lon="4.33551">
        <ele>1106.1999511719</ele>
        <time>2019-08-11T07:17:39.000Z</time>
      </trkpt>
      <trkpt lat="45.07956" lon="4.33554">
        <ele>1106.1999511719</ele>
        <time>2019-08-11T07:17:40.000Z</time>
      </trkpt>
      <trkpt lat="45.07955" lon="4.33556">
        <ele>1106.4000244141</ele>
        <time>2019-08-11T07:17:41.000Z</time>
      </trkpt>
      <trkpt lat="45.07924" lon="4.33604">
        <ele>1109.4000244141</ele>
        <time>2019-08-11T07:18:03.000Z</time>
      </trkpt>
      <trkpt lat="45.07905" lon="4.3367">
        <ele>1112.4000244141</ele>
        <time>2019-08-11T07:18:24.000Z</time>
      </trkpt>
      <trkpt lat="45.07893" lon="4.33737">
        <ele>1113.1999511719</ele>
        <time>2019-08-11T07:18:41.000Z</time>
      </trkpt>
      <trkpt lat="45.07889" lon="4.33796">
        <ele>1109.8000488281</ele>
        <time>2019-08-11T07:18:49.000Z</time>
      </trkpt>
      <trkpt lat="45.07887" lon="4.33813">
        <ele>1109</ele>
        <time>2019-08-11T07:18:51.000Z</time>
      </trkpt>
      <trkpt lat="45.07885" lon="4.33822">
        <ele>1108.5999755859</ele>
        <time>2019-08-11T07:18:52.000Z</time>
      </trkpt>
      <trkpt lat="45.07877" lon="4.33859">
        <ele>1105.4000244141</ele>
        <time>2019-08-11T07:18:56.000Z</time>
      </trkpt>
      <trkpt lat="45.07871" lon="4.33885">
        <ele>1103.5999755859</ele>
        <time>2019-08-11T07:18:59.000Z</time>
      </trkpt>
      <trkpt lat="45.07868" lon="4.33893">
        <ele>1102.4000244141</ele>
        <time>2019-08-11T07:19:00.000Z</time>
      </trkpt>
      <trkpt lat="45.07862" lon="4.3391">
        <ele>1101.5999755859</ele>
        <time>2019-08-11T07:19:02.000Z</time>
      </trkpt>
      <trkpt lat="45.07853" lon="4.33936">
        <ele>1099.5999755859</ele>
        <time>2019-08-11T07:19:05.000Z</time>
      </trkpt>
      <trkpt lat="45.07839" lon="4.33967">
        <ele>1099.1999511719</ele>
        <time>2019-08-11T07:19:09.000Z</time>
      </trkpt>
      <trkpt lat="45.07825" lon="4.33992">
        <ele>1098.1999511719</ele>
        <time>2019-08-11T07:19:13.000Z</time>
      </trkpt>
      <trkpt lat="45.07804" lon="4.3402">
        <ele>1098.4000244141</ele>
        <time>2019-08-11T07:19:19.000Z</time>
      </trkpt>
      <trkpt lat="45.07768" lon="4.34049">
        <ele>1100.4000244141</ele>
        <time>2019-08-11T07:19:30.000Z</time>
      </trkpt>
      <trkpt lat="45.0772" lon="4.34069">
        <ele>1103</ele>
        <time>2019-08-11T07:19:45.000Z</time>
      </trkpt>
      <trkpt lat="45.07692" lon="4.3408">
        <ele>1104.8000488281</ele>
        <time>2019-08-11T07:19:54.000Z</time>
      </trkpt>
      <trkpt lat="45.07662" lon="4.34093">
        <ele>1105.5999755859</ele>
        <time>2019-08-11T07:20:03.000Z</time>
      </trkpt>
      <trkpt lat="45.07604" lon="4.34104">
        <ele>1103</ele>
        <time>2019-08-11T07:20:17.000Z</time>
      </trkpt>
      <trkpt lat="45.0757" lon="4.34097">
        <ele>1099.8000488281</ele>
        <time>2019-08-11T07:20:22.000Z</time>
      </trkpt>
      <trkpt lat="45.07563" lon="4.34097">
        <ele>1099.8000488281</ele>
        <time>2019-08-11T07:20:23.000Z</time>
      </trkpt>
      <trkpt lat="45.07556" lon="4.34098">
        <ele>1099.8000488281</ele>
        <time>2019-08-11T07:20:24.000Z</time>
      </trkpt>
      <trkpt lat="45.0755" lon="4.34101">
        <ele>1099.8000488281</ele>
        <time>2019-08-11T07:20:25.000Z</time>
      </trkpt>
      <trkpt lat="45.07544" lon="4.34104">
        <ele>1100</ele>
        <time>2019-08-11T07:20:26.000Z</time>
      </trkpt>
      <trkpt lat="45.07539" lon="4.34107">
        <ele>1100.1999511719</ele>
        <time>2019-08-11T07:20:27.000Z</time>
      </trkpt>
      <trkpt lat="45.07515" lon="4.34125">
        <ele>1099.1999511719</ele>
        <time>2019-08-11T07:20:32.000Z</time>
      </trkpt>
      <trkpt lat="45.07511" lon="4.34128">
        <ele>1098.8000488281</ele>
        <time>2019-08-11T07:20:33.000Z</time>
      </trkpt>
      <trkpt lat="45.07502" lon="4.34134">
        <ele>1097.8000488281</ele>
        <time>2019-08-11T07:20:35.000Z</time>
      </trkpt>
      <trkpt lat="45.07497" lon="4.34136">
        <ele>1097.5999755859</ele>
        <time>2019-08-11T07:20:36.000Z</time>
      </trkpt>
      <trkpt lat="45.07476" lon="4.34151">
        <ele>1097.4000244141</ele>
        <time>2019-08-11T07:20:41.000Z</time>
      </trkpt>
      <trkpt lat="45.0745" lon="4.3417">
        <ele>1098</ele>
        <time>2019-08-11T07:20:48.000Z</time>
      </trkpt>
      <trkpt lat="45.07395" lon="4.34224">
        <ele>1098.4000244141</ele>
        <time>2019-08-11T07:21:02.000Z</time>
      </trkpt>
      <trkpt lat="45.07345" lon="4.34277">
        <ele>1099.5999755859</ele>
        <time>2019-08-11T07:21:16.000Z</time>
      </trkpt>
      <trkpt lat="45.07291" lon="4.34306">
        <ele>1101.8000488281</ele>
        <time>2019-08-11T07:21:32.000Z</time>
      </trkpt>
      <trkpt lat="45.07276" lon="4.34307">
        <ele>1103.1999511719</ele>
        <time>2019-08-11T07:21:37.000Z</time>
      </trkpt>
      <trkpt lat="45.07265" lon="4.3431">
        <ele>1104</ele>
        <time>2019-08-11T07:21:41.000Z</time>
      </trkpt>
      <trkpt lat="45.0725" lon="4.34312">
        <ele>1104.4000244141</ele>
        <time>2019-08-11T07:21:46.000Z</time>
      </trkpt>
      <trkpt lat="45.0723" lon="4.34318">
        <ele>1105</ele>
        <time>2019-08-11T07:21:52.000Z</time>
      </trkpt>
      <trkpt lat="45.07171" lon="4.34331">
        <ele>1105.5999755859</ele>
        <time>2019-08-11T07:22:08.000Z</time>
      </trkpt>
      <trkpt lat="45.07127" lon="4.34334">
        <ele>1104.5999755859</ele>
        <time>2019-08-11T07:22:18.000Z</time>
      </trkpt>
      <trkpt lat="45.07122" lon="4.34334">
        <ele>1104.4000244141</ele>
        <time>2019-08-11T07:22:19.000Z</time>
      </trkpt>
      <trkpt lat="45.07111" lon="4.34334">
        <ele>1103.4000244141</ele>
        <time>2019-08-11T07:22:21.000Z</time>
      </trkpt>
      <trkpt lat="45.07094" lon="4.34335">
        <ele>1102</ele>
        <time>2019-08-11T07:22:24.000Z</time>
      </trkpt>
      <trkpt lat="45.07072" lon="4.34335">
        <ele>1099.4000244141</ele>
        <time>2019-08-11T07:22:27.000Z</time>
      </trkpt>
      <trkpt lat="45.07065" lon="4.34333">
        <ele>1099</ele>
        <time>2019-08-11T07:22:28.000Z</time>
      </trkpt>
      <trkpt lat="45.07059" lon="4.34329">
        <ele>1098.8000488281</ele>
        <time>2019-08-11T07:22:29.000Z</time>
      </trkpt>
      <trkpt lat="45.07054" lon="4.34323">
        <ele>1098.5999755859</ele>
        <time>2019-08-11T07:22:30.000Z</time>
      </trkpt>
      <trkpt lat="45.07051" lon="4.34316">
        <ele>1098.8000488281</ele>
        <time>2019-08-11T07:22:31.000Z</time>
      </trkpt>
      <trkpt lat="45.07048" lon="4.3431">
        <ele>1098.8000488281</ele>
        <time>2019-08-11T07:22:32.000Z</time>
      </trkpt>
      <trkpt lat="45.07044" lon="4.34305">
        <ele>1099</ele>
        <time>2019-08-11T07:22:33.000Z</time>
      </trkpt>
      <trkpt lat="45.07041" lon="4.343">
        <ele>1099</ele>
        <time>2019-08-11T07:22:34.000Z</time>
      </trkpt>
      <trkpt lat="45.07035" lon="4.34292">
        <ele>1099.1999511719</ele>
        <time>2019-08-11T07:22:36.000Z</time>
      </trkpt>
      <trkpt lat="45.07021" lon="4.34279">
        <ele>1100.1999511719</ele>
        <time>2019-08-11T07:22:40.000Z</time>
      </trkpt>
      <trkpt lat="45.07012" lon="4.34273">
        <ele>1100.8000488281</ele>
        <time>2019-08-11T07:22:43.000Z</time>
      </trkpt>
      <trkpt lat="45.06968" lon="4.34252">
        <ele>1102</ele>
        <time>2019-08-11T07:22:56.000Z</time>
      </trkpt>
      <trkpt lat="45.06963" lon="4.34256">
        <ele>1102</ele>
        <time>2019-08-11T07:22:58.000Z</time>
      </trkpt>
      <trkpt lat="45.06961" lon="4.34259">
        <ele>1101.8000488281</ele>
        <time>2019-08-11T07:22:59.000Z</time>
      </trkpt>
      <trkpt lat="45.06959" lon="4.34263">
        <ele>1101.8000488281</ele>
        <time>2019-08-11T07:23:00.000Z</time>
      </trkpt>
      <trkpt lat="45.06957" lon="4.34267">
        <ele>1101.8000488281</ele>
        <time>2019-08-11T07:23:01.000Z</time>
      </trkpt>
      <trkpt lat="45.06955" lon="4.34272">
        <ele>1101.5999755859</ele>
        <time>2019-08-11T07:23:02.000Z</time>
      </trkpt>
      <trkpt lat="45.06954" lon="4.34276">
        <ele>1101.5999755859</ele>
        <time>2019-08-11T07:23:03.000Z</time>
      </trkpt>
      <trkpt lat="45.06945" lon="4.34297">
        <ele>1100.1999511719</ele>
        <time>2019-08-11T07:23:07.000Z</time>
      </trkpt>
      <trkpt lat="45.06936" lon="4.34316">
        <ele>1098.8000488281</ele>
        <time>2019-08-11T07:23:10.000Z</time>
      </trkpt>
      <trkpt lat="45.06925" lon="4.3434">
        <ele>1097</ele>
        <time>2019-08-11T07:23:13.000Z</time>
      </trkpt>
      <trkpt lat="45.06918" lon="4.34357">
        <ele>1096</ele>
        <time>2019-08-11T07:23:15.000Z</time>
      </trkpt>
      <trkpt lat="45.06909" lon="4.34377">
        <ele>1094.4000244141</ele>
        <time>2019-08-11T07:23:18.000Z</time>
      </trkpt>
      <trkpt lat="45.06897" lon="4.34404">
        <ele>1092</ele>
        <time>2019-08-11T07:23:22.000Z</time>
      </trkpt>
      <trkpt lat="45.06891" lon="4.34425">
        <ele>1090.8000488281</ele>
        <time>2019-08-11T07:23:25.000Z</time>
      </trkpt>
      <trkpt lat="45.06887" lon="4.34437">
        <ele>1090.1999511719</ele>
        <time>2019-08-11T07:23:27.000Z</time>
      </trkpt>
      <trkpt lat="45.06885" lon="4.34443">
        <ele>1089.8000488281</ele>
        <time>2019-08-11T07:23:28.000Z</time>
      </trkpt>
      <trkpt lat="45.06883" lon="4.34451">
        <ele>1089</ele>
        <time>2019-08-11T07:23:29.000Z</time>
      </trkpt>
      <trkpt lat="45.06881" lon="4.34459">
        <ele>1088</ele>
        <time>2019-08-11T07:23:30.000Z</time>
      </trkpt>
      <trkpt lat="45.0688" lon="4.34467">
        <ele>1087.5999755859</ele>
        <time>2019-08-11T07:23:31.000Z</time>
      </trkpt>
      <trkpt lat="45.06873" lon="4.34507">
        <ele>1084</ele>
        <time>2019-08-11T07:23:36.000Z</time>
      </trkpt>
      <trkpt lat="45.0687" lon="4.34522">
        <ele>1082.8000488281</ele>
        <time>2019-08-11T07:23:38.000Z</time>
      </trkpt>
      <trkpt lat="45.06867" lon="4.34534">
        <ele>1081.5999755859</ele>
        <time>2019-08-11T07:23:40.000Z</time>
      </trkpt>
      <trkpt lat="45.06862" lon="4.34547">
        <ele>1081.1999511719</ele>
        <time>2019-08-11T07:23:42.000Z</time>
      </trkpt>
      <trkpt lat="45.06858" lon="4.34553">
        <ele>1080</ele>
        <time>2019-08-11T07:23:43.000Z</time>
      </trkpt>
      <trkpt lat="45.06845" lon="4.34577">
        <ele>1077.1999511719</ele>
        <time>2019-08-11T07:23:47.000Z</time>
      </trkpt>
      <trkpt lat="45.06839" lon="4.34595">
        <ele>1075.8000488281</ele>
        <time>2019-08-11T07:23:51.000Z</time>
      </trkpt>
      <trkpt lat="45.06839" lon="4.34602">
        <ele>1075.4000244141</ele>
        <time>2019-08-11T07:23:52.000Z</time>
      </trkpt>
      <trkpt lat="45.06834" lon="4.3468">
        <ele>1074</ele>
        <time>2019-08-11T07:24:00.000Z</time>
      </trkpt>
      <trkpt lat="45.06832" lon="4.34713">
        <ele>1072.5999755859</ele>
        <time>2019-08-11T07:24:03.000Z</time>
      </trkpt>
      <trkpt lat="45.06829" lon="4.34802">
        <ele>1073.5999755859</ele>
        <time>2019-08-11T07:24:12.000Z</time>
      </trkpt>
      <trkpt lat="45.06828" lon="4.3482">
        <ele>1073.1999511719</ele>
        <time>2019-08-11T07:24:14.000Z</time>
      </trkpt>
      <trkpt lat="45.06827" lon="4.34839">
        <ele>1072.8000488281</ele>
        <time>2019-08-11T07:24:16.000Z</time>
      </trkpt>
      <trkpt lat="45.06826" lon="4.34866">
        <ele>1072.5999755859</ele>
        <time>2019-08-11T07:24:19.000Z</time>
      </trkpt>
      <trkpt lat="45.06826" lon="4.34884">
        <ele>1072.1999511719</ele>
        <time>2019-08-11T07:24:21.000Z</time>
      </trkpt>
      <trkpt lat="45.06827" lon="4.34912">
        <ele>1071.5999755859</ele>
        <time>2019-08-11T07:24:24.000Z</time>
      </trkpt>
      <trkpt lat="45.06827" lon="4.34921">
        <ele>1071.5999755859</ele>
        <time>2019-08-11T07:24:25.000Z</time>
      </trkpt>
      <trkpt lat="45.06827" lon="4.34937">
        <ele>1071.4000244141</ele>
        <time>2019-08-11T07:24:27.000Z</time>
      </trkpt>
      <trkpt lat="45.06824" lon="4.35004">
        <ele>1070.4000244141</ele>
        <time>2019-08-11T07:24:36.000Z</time>
      </trkpt>
      <trkpt lat="45.06828" lon="4.35039">
        <ele>1069.1999511719</ele>
        <time>2019-08-11T07:24:42.000Z</time>
      </trkpt>
      <trkpt lat="45.06834" lon="4.35046">
        <ele>1069.1999511719</ele>
        <time>2019-08-11T07:24:45.000Z</time>
      </trkpt>
      <trkpt lat="45.06836" lon="4.35045">
        <ele>1069.4000244141</ele>
        <time>2019-08-11T07:24:46.000Z</time>
      </trkpt>
      <trkpt lat="45.06839" lon="4.35044">
        <ele>1069.5999755859</ele>
        <time>2019-08-11T07:24:47.000Z</time>
      </trkpt>
      <trkpt lat="45.06869" lon="4.35028">
        <ele>1069.5999755859</ele>
        <time>2019-08-11T07:24:56.000Z</time>
      </trkpt>
      <trkpt lat="45.06883" lon="4.35022">
        <ele>1069.5999755859</ele>
        <time>2019-08-11T07:24:59.000Z</time>
      </trkpt>
      <trkpt lat="45.06912" lon="4.35012">
        <ele>1069.1999511719</ele>
        <time>2019-08-11T07:25:05.000Z</time>
      </trkpt>
      <trkpt lat="45.06955" lon="4.35">
        <ele>1069</ele>
        <time>2019-08-11T07:25:13.000Z</time>
      </trkpt>
      <trkpt lat="45.07006" lon="4.34994">
        <ele>1069.1999511719</ele>
        <time>2019-08-11T07:25:23.000Z</time>
      </trkpt>
      <trkpt lat="45.07024" lon="4.34991">
        <ele>1069.1999511719</ele>
        <time>2019-08-11T07:25:27.000Z</time>
      </trkpt>
      <trkpt lat="45.07029" lon="4.34989">
        <ele>1069.1999511719</ele>
        <time>2019-08-11T07:25:28.000Z</time>
      </trkpt>
      <trkpt lat="45.0706" lon="4.34971">
        <ele>1069.4000244141</ele>
        <time>2019-08-11T07:25:35.000Z</time>
      </trkpt>
      <trkpt lat="45.07091" lon="4.34953">
        <ele>1069.4000244141</ele>
        <time>2019-08-11T07:25:49.000Z</time>
      </trkpt>
      <trkpt lat="45.0709" lon="4.34951">
        <ele>1069.1999511719</ele>
        <time>2019-08-11T07:25:51.000Z</time>
      </trkpt>
      <trkpt lat="45.0709" lon="4.34949">
        <ele>1069.4000244141</ele>
        <time>2019-08-11T07:25:52.000Z</time>
      </trkpt>
      <trkpt lat="45.07091" lon="4.34946">
        <ele>1069.1999511719</ele>
        <time>2019-08-11T07:25:53.000Z</time>
      </trkpt>
      <trkpt lat="45.07093" lon="4.34943">
        <ele>1069</ele>
        <time>2019-08-11T07:25:54.000Z</time>
      </trkpt>
      <trkpt lat="45.07096" lon="4.3494">
        <ele>1068.4000244141</ele>
        <time>2019-08-11T07:25:55.000Z</time>
      </trkpt>
      <trkpt lat="45.07098" lon="4.34936">
        <ele>1068</ele>
        <time>2019-08-11T07:25:56.000Z</time>
      </trkpt>
      <trkpt lat="45.07102" lon="4.34932">
        <ele>1067.4000244141</ele>
        <time>2019-08-11T07:25:57.000Z</time>
      </trkpt>
      <trkpt lat="45.07105" lon="4.34927">
        <ele>1067</ele>
        <time>2019-08-11T07:25:58.000Z</time>
      </trkpt>
      <trkpt lat="45.07151" lon="4.34877">
        <ele>1063.8000488281</ele>
        <time>2019-08-11T07:26:09.000Z</time>
      </trkpt>
      <trkpt lat="45.07183" lon="4.34853">
        <ele>1062</ele>
        <time>2019-08-11T07:26:15.000Z</time>
      </trkpt>
      <trkpt lat="45.07205" lon="4.34837">
        <ele>1060.5999755859</ele>
        <time>2019-08-11T07:26:19.000Z</time>
      </trkpt>
      <trkpt lat="45.0725" lon="4.34821">
        <ele>1058</ele>
        <time>2019-08-11T07:26:26.000Z</time>
      </trkpt>
      <trkpt lat="45.07284" lon="4.3482">
        <ele>1057.1999511719</ele>
        <time>2019-08-11T07:26:31.000Z</time>
      </trkpt>
      <trkpt lat="45.07303" lon="4.34822">
        <ele>1056.4000244141</ele>
        <time>2019-08-11T07:26:34.000Z</time>
      </trkpt>
      <trkpt lat="45.07309" lon="4.34822">
        <ele>1056.1999511719</ele>
        <time>2019-08-11T07:26:35.000Z</time>
      </trkpt>
      <trkpt lat="45.07315" lon="4.3482">
        <ele>1056.5999755859</ele>
        <time>2019-08-11T07:26:36.000Z</time>
      </trkpt>
      <trkpt lat="45.0732" lon="4.34817">
        <ele>1056.1999511719</ele>
        <time>2019-08-11T07:26:37.000Z</time>
      </trkpt>
      <trkpt lat="45.07323" lon="4.34812">
        <ele>1056</ele>
        <time>2019-08-11T07:26:38.000Z</time>
      </trkpt>
      <trkpt lat="45.07326" lon="4.34807">
        <ele>1056.1999511719</ele>
        <time>2019-08-11T07:26:39.000Z</time>
      </trkpt>
      <trkpt lat="45.07335" lon="4.3479">
        <ele>1056.5999755859</ele>
        <time>2019-08-11T07:26:46.000Z</time>
      </trkpt>
      <trkpt lat="45.07335" lon="4.34788">
        <ele>1056.5999755859</ele>
        <time>2019-08-11T07:26:47.000Z</time>
      </trkpt>
      <trkpt lat="45.07336" lon="4.34786">
        <ele>1056.5999755859</ele>
        <time>2019-08-11T07:26:48.000Z</time>
      </trkpt>
      <trkpt lat="45.07337" lon="4.34784">
        <ele>1056.4000244141</ele>
        <time>2019-08-11T07:26:49.000Z</time>
      </trkpt>
      <trkpt lat="45.07338" lon="4.34782">
        <ele>1056.1999511719</ele>
        <time>2019-08-11T07:26:50.000Z</time>
      </trkpt>
      <trkpt lat="45.07339" lon="4.3478">
        <ele>1056.1999511719</ele>
        <time>2019-08-11T07:26:51.000Z</time>
      </trkpt>
      <trkpt lat="45.07386" lon="4.34729">
        <ele>1054</ele>
        <time>2019-08-11T07:27:08.000Z</time>
      </trkpt>
      <trkpt lat="45.07418" lon="4.3471">
        <ele>1052.5999755859</ele>
        <time>2019-08-11T07:27:15.000Z</time>
      </trkpt>
      <trkpt lat="45.07428" lon="4.34705">
        <ele>1052.4000244141</ele>
        <time>2019-08-11T07:27:17.000Z</time>
      </trkpt>
      <trkpt lat="45.07439" lon="4.34701">
        <ele>1051.1999511719</ele>
        <time>2019-08-11T07:27:19.000Z</time>
      </trkpt>
      <trkpt lat="45.07445" lon="4.347">
        <ele>1050.5999755859</ele>
        <time>2019-08-11T07:27:20.000Z</time>
      </trkpt>
      <trkpt lat="45.0745" lon="4.34698">
        <ele>1050</ele>
        <time>2019-08-11T07:27:21.000Z</time>
      </trkpt>
      <trkpt lat="45.07456" lon="4.34697">
        <ele>1049.5999755859</ele>
        <time>2019-08-11T07:27:22.000Z</time>
      </trkpt>
      <trkpt lat="45.07462" lon="4.34697">
        <ele>1049.5999755859</ele>
        <time>2019-08-11T07:27:23.000Z</time>
      </trkpt>
      <trkpt lat="45.07468" lon="4.34697">
        <ele>1049.5999755859</ele>
        <time>2019-08-11T07:27:24.000Z</time>
      </trkpt>
      <trkpt lat="45.07474" lon="4.34698">
        <ele>1049.4000244141</ele>
        <time>2019-08-11T07:27:25.000Z</time>
      </trkpt>
      <trkpt lat="45.0748" lon="4.347">
        <ele>1049</ele>
        <time>2019-08-11T07:27:26.000Z</time>
      </trkpt>
      <trkpt lat="45.07486" lon="4.34702">
        <ele>1048.8000488281</ele>
        <time>2019-08-11T07:27:27.000Z</time>
      </trkpt>
      <trkpt lat="45.07542" lon="4.3472">
        <ele>1045.4000244141</ele>
        <time>2019-08-11T07:27:36.000Z</time>
      </trkpt>
      <trkpt lat="45.07561" lon="4.34725">
        <ele>1044</ele>
        <time>2019-08-11T07:27:39.000Z</time>
      </trkpt>
      <trkpt lat="45.0758" lon="4.34734">
        <ele>1042.4000244141</ele>
        <time>2019-08-11T07:27:42.000Z</time>
      </trkpt>
      <trkpt lat="45.07587" lon="4.34735">
        <ele>1042.1999511719</ele>
        <time>2019-08-11T07:27:43.000Z</time>
      </trkpt>
      <trkpt lat="45.07599" lon="4.34738">
        <ele>1041.4000244141</ele>
        <time>2019-08-11T07:27:45.000Z</time>
      </trkpt>
      <trkpt lat="45.07605" lon="4.34742">
        <ele>1041.1999511719</ele>
        <time>2019-08-11T07:27:46.000Z</time>
      </trkpt>
      <trkpt lat="45.07611" lon="4.34747">
        <ele>1040.4000244141</ele>
        <time>2019-08-11T07:27:47.000Z</time>
      </trkpt>
      <trkpt lat="45.07622" lon="4.34758">
        <ele>1039.1999511719</ele>
        <time>2019-08-11T07:27:49.000Z</time>
      </trkpt>
      <trkpt lat="45.07627" lon="4.34764">
        <ele>1039</ele>
        <time>2019-08-11T07:27:50.000Z</time>
      </trkpt>
      <trkpt lat="45.07631" lon="4.34772">
        <ele>1038.5999755859</ele>
        <time>2019-08-11T07:27:51.000Z</time>
      </trkpt>
      <trkpt lat="45.07634" lon="4.3478">
        <ele>1037.8000488281</ele>
        <time>2019-08-11T07:27:52.000Z</time>
      </trkpt>
      <trkpt lat="45.07636" lon="4.34789">
        <ele>1037.1999511719</ele>
        <time>2019-08-11T07:27:53.000Z</time>
      </trkpt>
      <trkpt lat="45.07639" lon="4.348">
        <ele>1036.5999755859</ele>
        <time>2019-08-11T07:27:54.000Z</time>
      </trkpt>
      <trkpt lat="45.07639" lon="4.34811">
        <ele>1035.5999755859</ele>
        <time>2019-08-11T07:27:55.000Z</time>
      </trkpt>
      <trkpt lat="45.07641" lon="4.34821">
        <ele>1034.8000488281</ele>
        <time>2019-08-11T07:27:56.000Z</time>
      </trkpt>
      <trkpt lat="45.07642" lon="4.34856">
        <ele>1033.5999755859</ele>
        <time>2019-08-11T07:27:59.000Z</time>
      </trkpt>
      <trkpt lat="45.07643" lon="4.34886">
        <ele>1033.1999511719</ele>
        <time>2019-08-11T07:28:02.000Z</time>
      </trkpt>
      <trkpt lat="45.0764" lon="4.34914">
        <ele>1033</ele>
        <time>2019-08-11T07:28:05.000Z</time>
      </trkpt>
      <trkpt lat="45.07638" lon="4.34921">
        <ele>1033</ele>
        <time>2019-08-11T07:28:06.000Z</time>
      </trkpt>
      <trkpt lat="45.07636" lon="4.34926">
        <ele>1033.1999511719</ele>
        <time>2019-08-11T07:28:07.000Z</time>
      </trkpt>
      <trkpt lat="45.07635" lon="4.34929">
        <ele>1033.1999511719</ele>
        <time>2019-08-11T07:28:08.000Z</time>
      </trkpt>
      <trkpt lat="45.07634" lon="4.34932">
        <ele>1033.1999511719</ele>
        <time>2019-08-11T07:28:09.000Z</time>
      </trkpt>
      <trkpt lat="45.07633" lon="4.34934">
        <ele>1033.1999511719</ele>
        <time>2019-08-11T07:28:10.000Z</time>
      </trkpt>
      <trkpt lat="45.07631" lon="4.34938">
        <ele>1033.1999511719</ele>
        <time>2019-08-11T07:28:11.000Z</time>
      </trkpt>
      <trkpt lat="45.07629" lon="4.34942">
        <ele>1033.1999511719</ele>
        <time>2019-08-11T07:28:12.000Z</time>
      </trkpt>
      <trkpt lat="45.07626" lon="4.34945">
        <ele>1033.4000244141</ele>
        <time>2019-08-11T07:28:13.000Z</time>
      </trkpt>
      <trkpt lat="45.07623" lon="4.34948">
        <ele>1033.4000244141</ele>
        <time>2019-08-11T07:28:14.000Z</time>
      </trkpt>
      <trkpt lat="45.07617" lon="4.34955">
        <ele>1033.8000488281</ele>
        <time>2019-08-11T07:28:17.000Z</time>
      </trkpt>
      <trkpt lat="45.07613" lon="4.34961">
        <ele>1034.1999511719</ele>
        <time>2019-08-11T07:28:20.000Z</time>
      </trkpt>
      <trkpt lat="45.07608" lon="4.34967">
        <ele>1034.8000488281</ele>
        <time>2019-08-11T07:28:23.000Z</time>
      </trkpt>
      <trkpt lat="45.07602" lon="4.34972">
        <ele>1035.8000488281</ele>
        <time>2019-08-11T07:28:26.000Z</time>
      </trkpt>
      <trkpt lat="45.07601" lon="4.34974">
        <ele>1036</ele>
        <time>2019-08-11T07:28:27.000Z</time>
      </trkpt>
      <trkpt lat="45.07597" lon="4.34977">
        <ele>1036.1999511719</ele>
        <time>2019-08-11T07:28:30.000Z</time>
      </trkpt>
      <trkpt lat="45.07596" lon="4.34978">
        <ele>1036.4000244141</ele>
        <time>2019-08-11T07:28:31.000Z</time>
      </trkpt>
      <trkpt lat="45.07592" lon="4.3498">
        <ele>1036.8000488281</ele>
        <time>2019-08-11T07:28:34.000Z</time>
      </trkpt>
      <trkpt lat="45.07591" lon="4.34982">
        <ele>1037</ele>
        <time>2019-08-11T07:28:35.000Z</time>
      </trkpt>
      <trkpt lat="45.07589" lon="4.34983">
        <ele>1037</ele>
        <time>2019-08-11T07:28:36.000Z</time>
      </trkpt>
      <trkpt lat="45.07587" lon="4.34984">
        <ele>1037</ele>
        <time>2019-08-11T07:28:37.000Z</time>
      </trkpt>
      <trkpt lat="45.07585" lon="4.34985">
        <ele>1037.4000244141</ele>
        <time>2019-08-11T07:28:38.000Z</time>
      </trkpt>
      <trkpt lat="45.07583" lon="4.34986">
        <ele>1037.8000488281</ele>
        <time>2019-08-11T07:28:39.000Z</time>
      </trkpt>
      <trkpt lat="45.07581" lon="4.34988">
        <ele>1037.8000488281</ele>
        <time>2019-08-11T07:28:40.000Z</time>
      </trkpt>
      <trkpt lat="45.0758" lon="4.3499">
        <ele>1038</ele>
        <time>2019-08-11T07:28:41.000Z</time>
      </trkpt>
      <trkpt lat="45.07574" lon="4.34994">
        <ele>1038.5999755859</ele>
        <time>2019-08-11T07:28:44.000Z</time>
      </trkpt>
      <trkpt lat="45.07569" lon="4.34998">
        <ele>1039.1999511719</ele>
        <time>2019-08-11T07:28:47.000Z</time>
      </trkpt>
      <trkpt lat="45.07565" lon="4.35002">
        <ele>1040</ele>
        <time>2019-08-11T07:28:50.000Z</time>
      </trkpt>
      <trkpt lat="45.07558" lon="4.35008">
        <ele>1040.5999755859</ele>
        <time>2019-08-11T07:28:54.000Z</time>
      </trkpt>
      <trkpt lat="45.0755" lon="4.35017">
        <ele>1041.5999755859</ele>
        <time>2019-08-11T07:29:00.000Z</time>
      </trkpt>
      <trkpt lat="45.07541" lon="4.35034">
        <ele>1042.4000244141</ele>
        <time>2019-08-11T07:29:08.000Z</time>
      </trkpt>
      <trkpt lat="45.07531" lon="4.35053">
        <ele>1043.5999755859</ele>
        <time>2019-08-11T07:29:16.000Z</time>
      </trkpt>
      <trkpt lat="45.07531" lon="4.35055">
        <ele>1043.8000488281</ele>
        <time>2019-08-11T07:29:17.000Z</time>
      </trkpt>
      <trkpt lat="45.0753" lon="4.35058">
        <ele>1044</ele>
        <time>2019-08-11T07:29:18.000Z</time>
      </trkpt>
      <trkpt lat="45.07528" lon="4.3506">
        <ele>1044.1999511719</ele>
        <time>2019-08-11T07:29:19.000Z</time>
      </trkpt>
      <trkpt lat="45.07527" lon="4.35062">
        <ele>1044.4000244141</ele>
        <time>2019-08-11T07:29:20.000Z</time>
      </trkpt>
      <trkpt lat="45.07527" lon="4.35064">
        <ele>1044.5999755859</ele>
        <time>2019-08-11T07:29:21.000Z</time>
      </trkpt>
      <trkpt lat="45.07527" lon="4.35066">
        <ele>1044.8000488281</ele>
        <time>2019-08-11T07:29:22.000Z</time>
      </trkpt>
      <trkpt lat="45.07526" lon="4.35069">
        <ele>1044.8000488281</ele>
        <time>2019-08-11T07:29:23.000Z</time>
      </trkpt>
      <trkpt lat="45.07526" lon="4.35071">
        <ele>1045</ele>
        <time>2019-08-11T07:29:24.000Z</time>
      </trkpt>
      <trkpt lat="45.07525" lon="4.35074">
        <ele>1045</ele>
        <time>2019-08-11T07:29:25.000Z</time>
      </trkpt>
      <trkpt lat="45.07525" lon="4.35076">
        <ele>1045.1999511719</ele>
        <time>2019-08-11T07:29:26.000Z</time>
      </trkpt>
      <trkpt lat="45.07528" lon="4.35151">
        <ele>1046</ele>
        <time>2019-08-11T07:29:43.000Z</time>
      </trkpt>
      <trkpt lat="45.0754" lon="4.35237">
        <ele>1046.8000488281</ele>
        <time>2019-08-11T07:30:02.000Z</time>
      </trkpt>
      <trkpt lat="45.07526" lon="4.35304">
        <ele>1048.8000488281</ele>
        <time>2019-08-11T07:30:22.000Z</time>
      </trkpt>
      <trkpt lat="45.075" lon="4.35316">
        <ele>1051.8000488281</ele>
        <time>2019-08-11T07:30:35.000Z</time>
      </trkpt>
      <trkpt lat="45.07486" lon="4.35321">
        <ele>1053.4000244141</ele>
        <time>2019-08-11T07:30:43.000Z</time>
      </trkpt>
      <trkpt lat="45.07462" lon="4.35331">
        <ele>1056.5999755859</ele>
        <time>2019-08-11T07:30:57.000Z</time>
      </trkpt>
      <trkpt lat="45.07419" lon="4.3539">
        <ele>1057.8000488281</ele>
        <time>2019-08-11T07:31:20.000Z</time>
      </trkpt>
      <trkpt lat="45.07401" lon="4.35423">
        <ele>1059.5999755859</ele>
        <time>2019-08-11T07:31:33.000Z</time>
      </trkpt>
      <trkpt lat="45.07399" lon="4.35424">
        <ele>1059.5999755859</ele>
        <time>2019-08-11T07:31:34.000Z</time>
      </trkpt>
      <trkpt lat="45.07397" lon="4.35424">
        <ele>1059.5999755859</ele>
        <time>2019-08-11T07:31:35.000Z</time>
      </trkpt>
      <trkpt lat="45.07396" lon="4.35424">
        <ele>1059.8000488281</ele>
        <time>2019-08-11T07:31:36.000Z</time>
      </trkpt>
      <trkpt lat="45.07394" lon="4.35423">
        <ele>1059.8000488281</ele>
        <time>2019-08-11T07:31:37.000Z</time>
      </trkpt>
      <trkpt lat="45.07393" lon="4.35422">
        <ele>1060</ele>
        <time>2019-08-11T07:31:38.000Z</time>
      </trkpt>
      <trkpt lat="45.07391" lon="4.3542">
        <ele>1060.1999511719</ele>
        <time>2019-08-11T07:31:39.000Z</time>
      </trkpt>
      <trkpt lat="45.0739" lon="4.35418">
        <ele>1060.4000244141</ele>
        <time>2019-08-11T07:31:40.000Z</time>
      </trkpt>
      <trkpt lat="45.07389" lon="4.35417">
        <ele>1060.5999755859</ele>
        <time>2019-08-11T07:31:41.000Z</time>
      </trkpt>
      <trkpt lat="45.07388" lon="4.35416">
        <ele>1060.8000488281</ele>
        <time>2019-08-11T07:31:42.000Z</time>
      </trkpt>
      <trkpt lat="45.07371" lon="4.35425">
        <ele>1063.5999755859</ele>
        <time>2019-08-11T07:31:56.000Z</time>
      </trkpt>
      <trkpt lat="45.07349" lon="4.35462">
        <ele>1066.5999755859</ele>
        <time>2019-08-11T07:32:13.000Z</time>
      </trkpt>
      <trkpt lat="45.07333" lon="4.35501">
        <ele>1069.8000488281</ele>
        <time>2019-08-11T07:32:29.000Z</time>
      </trkpt>
      <trkpt lat="45.07318" lon="4.35535">
        <ele>1072.8000488281</ele>
        <time>2019-08-11T07:32:42.000Z</time>
      </trkpt>
      <trkpt lat="45.07299" lon="4.35589">
        <ele>1076</ele>
        <time>2019-08-11T07:33:00.000Z</time>
      </trkpt>
      <trkpt lat="45.07273" lon="4.35647">
        <ele>1079.1999511719</ele>
        <time>2019-08-11T07:33:20.000Z</time>
      </trkpt>
      <trkpt lat="45.07246" lon="4.35704">
        <ele>1080.4000244141</ele>
        <time>2019-08-11T07:33:36.000Z</time>
      </trkpt>
      <trkpt lat="45.07216" lon="4.35775">
        <ele>1078.5999755859</ele>
        <time>2019-08-11T07:33:48.000Z</time>
      </trkpt>
      <trkpt lat="45.07196" lon="4.35824">
        <ele>1078.5999755859</ele>
        <time>2019-08-11T07:33:55.000Z</time>
      </trkpt>
      <trkpt lat="45.07191" lon="4.35846">
        <ele>1078.4000244141</ele>
        <time>2019-08-11T07:33:58.000Z</time>
      </trkpt>
      <trkpt lat="45.0719" lon="4.35853">
        <ele>1078.5999755859</ele>
        <time>2019-08-11T07:33:59.000Z</time>
      </trkpt>
      <trkpt lat="45.0719" lon="4.3586">
        <ele>1078.5999755859</ele>
        <time>2019-08-11T07:34:00.000Z</time>
      </trkpt>
      <trkpt lat="45.07191" lon="4.35868">
        <ele>1078.5999755859</ele>
        <time>2019-08-11T07:34:01.000Z</time>
      </trkpt>
      <trkpt lat="45.07192" lon="4.35875">
        <ele>1078.8000488281</ele>
        <time>2019-08-11T07:34:02.000Z</time>
      </trkpt>
      <trkpt lat="45.07193" lon="4.35883">
        <ele>1079</ele>
        <time>2019-08-11T07:34:03.000Z</time>
      </trkpt>
      <trkpt lat="45.07201" lon="4.35965">
        <ele>1080</ele>
        <time>2019-08-11T07:34:16.000Z</time>
      </trkpt>
      <trkpt lat="45.07201" lon="4.35971">
        <ele>1080.1999511719</ele>
        <time>2019-08-11T07:34:17.000Z</time>
      </trkpt>
      <trkpt lat="45.07201" lon="4.35978">
        <ele>1080.4000244141</ele>
        <time>2019-08-11T07:34:18.000Z</time>
      </trkpt>
      <trkpt lat="45.07204" lon="4.3603">
        <ele>1080.5999755859</ele>
        <time>2019-08-11T07:34:25.000Z</time>
      </trkpt>
      <trkpt lat="45.07204" lon="4.36068">
        <ele>1080.4000244141</ele>
        <time>2019-08-11T07:34:30.000Z</time>
      </trkpt>
      <trkpt lat="45.07202" lon="4.36111">
        <ele>1080.8000488281</ele>
        <time>2019-08-11T07:34:36.000Z</time>
      </trkpt>
      <trkpt lat="45.07201" lon="4.36132">
        <ele>1080.8000488281</ele>
        <time>2019-08-11T07:34:39.000Z</time>
      </trkpt>
      <trkpt lat="45.07199" lon="4.36151">
        <ele>1080.5999755859</ele>
        <time>2019-08-11T07:34:42.000Z</time>
      </trkpt>
      <trkpt lat="45.07186" lon="4.36232">
        <ele>1081.8000488281</ele>
        <time>2019-08-11T07:34:56.000Z</time>
      </trkpt>
      <trkpt lat="45.07185" lon="4.36244">
        <ele>1082.1999511719</ele>
        <time>2019-08-11T07:34:58.000Z</time>
      </trkpt>
      <trkpt lat="45.07185" lon="4.36298">
        <ele>1082.1999511719</ele>
        <time>2019-08-11T07:35:08.000Z</time>
      </trkpt>
      <trkpt lat="45.07183" lon="4.36301">
        <ele>1082.1999511719</ele>
        <time>2019-08-11T07:35:09.000Z</time>
      </trkpt>
      <trkpt lat="45.0718" lon="4.36302">
        <ele>1082.1999511719</ele>
        <time>2019-08-11T07:35:10.000Z</time>
      </trkpt>
      <trkpt lat="45.07177" lon="4.36303">
        <ele>1082.1999511719</ele>
        <time>2019-08-11T07:35:11.000Z</time>
      </trkpt>
      <trkpt lat="45.07173" lon="4.36303">
        <ele>1082.1999511719</ele>
        <time>2019-08-11T07:35:12.000Z</time>
      </trkpt>
      <trkpt lat="45.0717" lon="4.36303">
        <ele>1081.8000488281</ele>
        <time>2019-08-11T07:35:13.000Z</time>
      </trkpt>
      <trkpt lat="45.07145" lon="4.36305">
        <ele>1078.5999755859</ele>
        <time>2019-08-11T07:35:18.000Z</time>
      </trkpt>
      <trkpt lat="45.07118" lon="4.36303">
        <ele>1075.8000488281</ele>
        <time>2019-08-11T07:35:22.000Z</time>
      </trkpt>
      <trkpt lat="45.07081" lon="4.363">
        <ele>1072.1999511719</ele>
        <time>2019-08-11T07:35:27.000Z</time>
      </trkpt>
      <trkpt lat="45.07073" lon="4.36299">
        <ele>1072</ele>
        <time>2019-08-11T07:35:28.000Z</time>
      </trkpt>
      <trkpt lat="45.07065" lon="4.36296">
        <ele>1072.1999511719</ele>
        <time>2019-08-11T07:35:29.000Z</time>
      </trkpt>
      <trkpt lat="45.07058" lon="4.36292">
        <ele>1072</ele>
        <time>2019-08-11T07:35:30.000Z</time>
      </trkpt>
      <trkpt lat="45.07051" lon="4.36286">
        <ele>1071.8000488281</ele>
        <time>2019-08-11T07:35:31.000Z</time>
      </trkpt>
      <trkpt lat="45.07043" lon="4.36281">
        <ele>1072</ele>
        <time>2019-08-11T07:35:32.000Z</time>
      </trkpt>
      <trkpt lat="45.07021" lon="4.36263">
        <ele>1070.5999755859</ele>
        <time>2019-08-11T07:35:35.000Z</time>
      </trkpt>
      <trkpt lat="45.06998" lon="4.36246">
        <ele>1068.1999511719</ele>
        <time>2019-08-11T07:35:38.000Z</time>
      </trkpt>
      <trkpt lat="45.06991" lon="4.3624">
        <ele>1068</ele>
        <time>2019-08-11T07:35:39.000Z</time>
      </trkpt>
      <trkpt lat="45.06962" lon="4.36218">
        <ele>1066.1999511719</ele>
        <time>2019-08-11T07:35:43.000Z</time>
      </trkpt>
      <trkpt lat="45.06954" lon="4.36215">
        <ele>1065.5999755859</ele>
        <time>2019-08-11T07:35:44.000Z</time>
      </trkpt>
      <trkpt lat="45.06938" lon="4.36211">
        <ele>1064.4000244141</ele>
        <time>2019-08-11T07:35:46.000Z</time>
      </trkpt>
      <trkpt lat="45.06889" lon="4.36205">
        <ele>1062</ele>
        <time>2019-08-11T07:35:52.000Z</time>
      </trkpt>
      <trkpt lat="45.06849" lon="4.36199">
        <ele>1060</ele>
        <time>2019-08-11T07:35:57.000Z</time>
      </trkpt>
      <trkpt lat="45.06819" lon="4.36195">
        <ele>1059.5999755859</ele>
        <time>2019-08-11T07:36:01.000Z</time>
      </trkpt>
      <trkpt lat="45.06798" lon="4.36195">
        <ele>1059.1999511719</ele>
        <time>2019-08-11T07:36:04.000Z</time>
      </trkpt>
      <trkpt lat="45.0679" lon="4.36193">
        <ele>1058.5999755859</ele>
        <time>2019-08-11T07:36:05.000Z</time>
      </trkpt>
      <trkpt lat="45.06783" lon="4.36189">
        <ele>1056.5999755859</ele>
        <time>2019-08-11T07:36:06.000Z</time>
      </trkpt>
      <trkpt lat="45.06767" lon="4.36182">
        <ele>1054.4000244141</ele>
        <time>2019-08-11T07:36:08.000Z</time>
      </trkpt>
      <trkpt lat="45.06759" lon="4.36183">
        <ele>1053.8000488281</ele>
        <time>2019-08-11T07:36:09.000Z</time>
      </trkpt>
      <trkpt lat="45.06751" lon="4.36186">
        <ele>1053</ele>
        <time>2019-08-11T07:36:10.000Z</time>
      </trkpt>
      <trkpt lat="45.06745" lon="4.36191">
        <ele>1052.5999755859</ele>
        <time>2019-08-11T07:36:11.000Z</time>
      </trkpt>
      <trkpt lat="45.06739" lon="4.36196">
        <ele>1052.8000488281</ele>
        <time>2019-08-11T07:36:12.000Z</time>
      </trkpt>
      <trkpt lat="45.06734" lon="4.36201">
        <ele>1053.1999511719</ele>
        <time>2019-08-11T07:36:13.000Z</time>
      </trkpt>
      <trkpt lat="45.0673" lon="4.36206">
        <ele>1053.1999511719</ele>
        <time>2019-08-11T07:36:14.000Z</time>
      </trkpt>
      <trkpt lat="45.06721" lon="4.36215">
        <ele>1052.5999755859</ele>
        <time>2019-08-11T07:36:16.000Z</time>
      </trkpt>
      <trkpt lat="45.06716" lon="4.36218">
        <ele>1052.8000488281</ele>
        <time>2019-08-11T07:36:17.000Z</time>
      </trkpt>
      <trkpt lat="45.0671" lon="4.3622">
        <ele>1053</ele>
        <time>2019-08-11T07:36:18.000Z</time>
      </trkpt>
      <trkpt lat="45.067" lon="4.36222">
        <ele>1054.1999511719</ele>
        <time>2019-08-11T07:36:20.000Z</time>
      </trkpt>
      <trkpt lat="45.06696" lon="4.36221">
        <ele>1054.5999755859</ele>
        <time>2019-08-11T07:36:21.000Z</time>
      </trkpt>
      <trkpt lat="45.06693" lon="4.36221">
        <ele>1055</ele>
        <time>2019-08-11T07:36:22.000Z</time>
      </trkpt>
      <trkpt lat="45.06692" lon="4.36221">
        <ele>1055.1999511719</ele>
        <time>2019-08-11T07:36:23.000Z</time>
      </trkpt>
      <trkpt lat="45.06692" lon="4.36224">
        <ele>1055.1999511719</ele>
        <time>2019-08-11T07:36:24.000Z</time>
      </trkpt>
      <trkpt lat="45.06692" lon="4.36226">
        <ele>1055.1999511719</ele>
        <time>2019-08-11T07:36:25.000Z</time>
      </trkpt>
      <trkpt lat="45.06694" lon="4.36227">
        <ele>1055.4000244141</ele>
        <time>2019-08-11T07:36:26.000Z</time>
      </trkpt>
      <trkpt lat="45.06697" lon="4.36229">
        <ele>1055.5999755859</ele>
        <time>2019-08-11T07:36:27.000Z</time>
      </trkpt>
      <trkpt lat="45.06699" lon="4.36231">
        <ele>1056.1999511719</ele>
        <time>2019-08-11T07:36:28.000Z</time>
      </trkpt>
      <trkpt lat="45.06702" lon="4.36233">
        <ele>1056.4000244141</ele>
        <time>2019-08-11T07:36:29.000Z</time>
      </trkpt>
      <trkpt lat="45.06715" lon="4.36245">
        <ele>1057.4000244141</ele>
        <time>2019-08-11T07:36:35.000Z</time>
      </trkpt>
      <trkpt lat="45.06725" lon="4.36263">
        <ele>1058.8000488281</ele>
        <time>2019-08-11T07:36:42.000Z</time>
      </trkpt>
      <trkpt lat="45.06729" lon="4.36273">
        <ele>1060</ele>
        <time>2019-08-11T07:36:46.000Z</time>
      </trkpt>
      <trkpt lat="45.06729" lon="4.36276">
        <ele>1060.1999511719</ele>
        <time>2019-08-11T07:36:47.000Z</time>
      </trkpt>
      <trkpt lat="45.06728" lon="4.36279">
        <ele>1060.4000244141</ele>
        <time>2019-08-11T07:36:48.000Z</time>
      </trkpt>
      <trkpt lat="45.06726" lon="4.36283">
        <ele>1060.8000488281</ele>
        <time>2019-08-11T07:36:50.000Z</time>
      </trkpt>
      <trkpt lat="45.0672" lon="4.36293">
        <ele>1061.8000488281</ele>
        <time>2019-08-11T07:36:55.000Z</time>
      </trkpt>
      <trkpt lat="45.06713" lon="4.36304">
        <ele>1063</ele>
        <time>2019-08-11T07:37:01.000Z</time>
      </trkpt>
      <trkpt lat="45.06707" lon="4.36318">
        <ele>1064.5999755859</ele>
        <time>2019-08-11T07:37:08.000Z</time>
      </trkpt>
      <trkpt lat="45.06702" lon="4.3633">
        <ele>1065.1999511719</ele>
        <time>2019-08-11T07:37:13.000Z</time>
      </trkpt>
      <trkpt lat="45.06695" lon="4.3635">
        <ele>1066.5999755859</ele>
        <time>2019-08-11T07:37:22.000Z</time>
      </trkpt>
      <trkpt lat="45.06671" lon="4.364">
        <ele>1068.5999755859</ele>
        <time>2019-08-11T07:37:43.000Z</time>
      </trkpt>
      <trkpt lat="45.06645" lon="4.36473">
        <ele>1071.5999755859</ele>
        <time>2019-08-11T07:38:09.000Z</time>
      </trkpt>
      <trkpt lat="45.06638" lon="4.36508">
        <ele>1074.5999755859</ele>
        <time>2019-08-11T07:38:23.000Z</time>
      </trkpt>
      <trkpt lat="45.06627" lon="4.36545">
        <ele>1077.5999755859</ele>
        <time>2019-08-11T07:38:40.000Z</time>
      </trkpt>
      <trkpt lat="45.06623" lon="4.36591">
        <ele>1080.8000488281</ele>
        <time>2019-08-11T07:38:59.000Z</time>
      </trkpt>
      <trkpt lat="45.06622" lon="4.36639">
        <ele>1083.5999755859</ele>
        <time>2019-08-11T07:39:19.000Z</time>
      </trkpt>
      <trkpt lat="45.06622" lon="4.36641">
        <ele>1083.8000488281</ele>
        <time>2019-08-11T07:39:20.000Z</time>
      </trkpt>
      <trkpt lat="45.06613" lon="4.36683">
        <ele>1087</ele>
        <time>2019-08-11T07:39:39.000Z</time>
      </trkpt>
      <trkpt lat="45.066" lon="4.36744">
        <ele>1090</ele>
        <time>2019-08-11T07:40:02.000Z</time>
      </trkpt>
      <trkpt lat="45.06592" lon="4.36782">
        <ele>1092</ele>
        <time>2019-08-11T07:40:15.000Z</time>
      </trkpt>
      <trkpt lat="45.06579" lon="4.36861">
        <ele>1094.5999755859</ele>
        <time>2019-08-11T07:40:39.000Z</time>
      </trkpt>
      <trkpt lat="45.06571" lon="4.36942">
        <ele>1095.8000488281</ele>
        <time>2019-08-11T07:40:57.000Z</time>
      </trkpt>
      <trkpt lat="45.0657" lon="4.36949">
        <ele>1095.4000244141</ele>
        <time>2019-08-11T07:40:58.000Z</time>
      </trkpt>
      <trkpt lat="45.06571" lon="4.36956">
        <ele>1095</ele>
        <time>2019-08-11T07:40:59.000Z</time>
      </trkpt>
      <trkpt lat="45.06572" lon="4.36963">
        <ele>1094.5999755859</ele>
        <time>2019-08-11T07:41:00.000Z</time>
      </trkpt>
      <trkpt lat="45.06574" lon="4.3697">
        <ele>1094.1999511719</ele>
        <time>2019-08-11T07:41:01.000Z</time>
      </trkpt>
      <trkpt lat="45.06574" lon="4.36977">
        <ele>1093.8000488281</ele>
        <time>2019-08-11T07:41:02.000Z</time>
      </trkpt>
      <trkpt lat="45.06573" lon="4.36984">
        <ele>1093.5999755859</ele>
        <time>2019-08-11T07:41:03.000Z</time>
      </trkpt>
      <trkpt lat="45.06571" lon="4.3699">
        <ele>1093.1999511719</ele>
        <time>2019-08-11T07:41:04.000Z</time>
      </trkpt>
      <trkpt lat="45.06567" lon="4.36996">
        <ele>1093</ele>
        <time>2019-08-11T07:41:05.000Z</time>
      </trkpt>
      <trkpt lat="45.06564" lon="4.37001">
        <ele>1092.5999755859</ele>
        <time>2019-08-11T07:41:06.000Z</time>
      </trkpt>
      <trkpt lat="45.0656" lon="4.37005">
        <ele>1092.5999755859</ele>
        <time>2019-08-11T07:41:07.000Z</time>
      </trkpt>
      <trkpt lat="45.06556" lon="4.3701">
        <ele>1092.4000244141</ele>
        <time>2019-08-11T07:41:08.000Z</time>
      </trkpt>
      <trkpt lat="45.06553" lon="4.37015">
        <ele>1092.8000488281</ele>
        <time>2019-08-11T07:41:09.000Z</time>
      </trkpt>
      <trkpt lat="45.06551" lon="4.37021">
        <ele>1093</ele>
        <time>2019-08-11T07:41:10.000Z</time>
      </trkpt>
      <trkpt lat="45.06552" lon="4.37028">
        <ele>1093.1999511719</ele>
        <time>2019-08-11T07:41:11.000Z</time>
      </trkpt>
      <trkpt lat="45.06553" lon="4.37033">
        <ele>1093.4000244141</ele>
        <time>2019-08-11T07:41:12.000Z</time>
      </trkpt>
      <trkpt lat="45.06555" lon="4.37037">
        <ele>1093.8000488281</ele>
        <time>2019-08-11T07:41:13.000Z</time>
      </trkpt>
      <trkpt lat="45.06556" lon="4.37041">
        <ele>1094.1999511719</ele>
        <time>2019-08-11T07:41:14.000Z</time>
      </trkpt>
      <trkpt lat="45.06557" lon="4.37044">
        <ele>1094.1999511719</ele>
        <time>2019-08-11T07:41:15.000Z</time>
      </trkpt>
      <trkpt lat="45.06558" lon="4.37048">
        <ele>1094.4000244141</ele>
        <time>2019-08-11T07:41:16.000Z</time>
      </trkpt>
      <trkpt lat="45.06559" lon="4.37053">
        <ele>1094.5999755859</ele>
        <time>2019-08-11T07:41:17.000Z</time>
      </trkpt>
      <trkpt lat="45.06568" lon="4.37092">
        <ele>1097.5999755859</ele>
        <time>2019-08-11T07:41:29.000Z</time>
      </trkpt>
      <trkpt lat="45.06583" lon="4.37147">
        <ele>1100.8000488281</ele>
        <time>2019-08-11T07:41:49.000Z</time>
      </trkpt>
      <trkpt lat="45.06589" lon="4.37169">
        <ele>1102.4000244141</ele>
        <time>2019-08-11T07:41:59.000Z</time>
      </trkpt>
      <trkpt lat="45.0659" lon="4.37171">
        <ele>1102.5999755859</ele>
        <time>2019-08-11T07:42:00.000Z</time>
      </trkpt>
      <trkpt lat="45.06591" lon="4.37197">
        <ele>1105</ele>
        <time>2019-08-11T07:42:12.000Z</time>
      </trkpt>
      <trkpt lat="45.06592" lon="4.37252">
        <ele>1108</ele>
        <time>2019-08-11T07:42:33.000Z</time>
      </trkpt>
      <trkpt lat="45.06608" lon="4.37326">
        <ele>1110.1999511719</ele>
        <time>2019-08-11T07:42:55.000Z</time>
      </trkpt>
      <trkpt lat="45.06635" lon="4.374">
        <ele>1111.5999755859</ele>
        <time>2019-08-11T07:43:12.000Z</time>
      </trkpt>
      <trkpt lat="45.06666" lon="4.37449">
        <ele>1112</ele>
        <time>2019-08-11T07:43:25.000Z</time>
      </trkpt>
      <trkpt lat="45.06668" lon="4.37453">
        <ele>1112.1999511719</ele>
        <time>2019-08-11T07:43:26.000Z</time>
      </trkpt>
      <trkpt lat="45.06672" lon="4.37467">
        <ele>1112.1999511719</ele>
        <time>2019-08-11T07:43:30.000Z</time>
      </trkpt>
      <trkpt lat="45.06673" lon="4.37467">
        <ele>1112.8000488281</ele>
        <time>2019-08-11T07:43:34.000Z</time>
      </trkpt>
      <trkpt lat="45.06673" lon="4.37467">
        <ele>1112.5999755859</ele>
        <time>2019-08-11T07:43:38.000Z</time>
      </trkpt>
      <trkpt lat="45.06674" lon="4.37476">
        <ele>1112.5999755859</ele>
        <time>2019-08-11T07:44:13.000Z</time>
      </trkpt>
      <trkpt lat="45.06673" lon="4.3748">
        <ele>1112.5999755859</ele>
        <time>2019-08-11T07:44:14.000Z</time>
      </trkpt>
      <trkpt lat="45.06673" lon="4.37485">
        <ele>1112.1999511719</ele>
        <time>2019-08-11T07:44:15.000Z</time>
      </trkpt>
      <trkpt lat="45.06673" lon="4.3749">
        <ele>1111.5999755859</ele>
        <time>2019-08-11T07:44:16.000Z</time>
      </trkpt>
      <trkpt lat="45.06672" lon="4.37497">
        <ele>1110.1999511719</ele>
        <time>2019-08-11T07:44:17.000Z</time>
      </trkpt>
      <trkpt lat="45.06669" lon="4.37503">
        <ele>1109.4000244141</ele>
        <time>2019-08-11T07:44:18.000Z</time>
      </trkpt>
      <trkpt lat="45.06665" lon="4.37508">
        <ele>1108.8000488281</ele>
        <time>2019-08-11T07:44:19.000Z</time>
      </trkpt>
      <trkpt lat="45.0666" lon="4.37513">
        <ele>1108.4000244141</ele>
        <time>2019-08-11T07:44:20.000Z</time>
      </trkpt>
      <trkpt lat="45.06655" lon="4.37518">
        <ele>1108.4000244141</ele>
        <time>2019-08-11T07:44:21.000Z</time>
      </trkpt>
      <trkpt lat="45.06649" lon="4.37522">
        <ele>1108.4000244141</ele>
        <time>2019-08-11T07:44:22.000Z</time>
      </trkpt>
      <trkpt lat="45.06643" lon="4.37525">
        <ele>1108.1999511719</ele>
        <time>2019-08-11T07:44:23.000Z</time>
      </trkpt>
      <trkpt lat="45.06637" lon="4.37526">
        <ele>1107.8000488281</ele>
        <time>2019-08-11T07:44:24.000Z</time>
      </trkpt>
      <trkpt lat="45.06627" lon="4.37527">
        <ele>1108.5999755859</ele>
        <time>2019-08-11T07:44:26.000Z</time>
      </trkpt>
      <trkpt lat="45.0662" lon="4.37526">
        <ele>1109.5999755859</ele>
        <time>2019-08-11T07:44:28.000Z</time>
      </trkpt>
      <trkpt lat="45.06614" lon="4.37525">
        <ele>1109.8000488281</ele>
        <time>2019-08-11T07:44:30.000Z</time>
      </trkpt>
      <trkpt lat="45.06605" lon="4.37524">
        <ele>1111</ele>
        <time>2019-08-11T07:44:33.000Z</time>
      </trkpt>
      <trkpt lat="45.06597" lon="4.37522">
        <ele>1111.8000488281</ele>
        <time>2019-08-11T07:44:36.000Z</time>
      </trkpt>
      <trkpt lat="45.06582" lon="4.3752">
        <ele>1112.1999511719</ele>
        <time>2019-08-11T07:44:41.000Z</time>
      </trkpt>
      <trkpt lat="45.06568" lon="4.37522">
        <ele>1113.4000244141</ele>
        <time>2019-08-11T07:44:47.000Z</time>
      </trkpt>
      <trkpt lat="45.0656" lon="4.37526">
        <ele>1114.8000488281</ele>
        <time>2019-08-11T07:44:51.000Z</time>
      </trkpt>
      <trkpt lat="45.06554" lon="4.37531">
        <ele>1115.8000488281</ele>
        <time>2019-08-11T07:44:55.000Z</time>
      </trkpt>
      <trkpt lat="45.06552" lon="4.37537">
        <ele>1117.1999511719</ele>
        <time>2019-08-11T07:44:59.000Z</time>
      </trkpt>
      <trkpt lat="45.06553" lon="4.37541">
        <ele>1118.1999511719</ele>
        <time>2019-08-11T07:45:02.000Z</time>
      </trkpt>
      <trkpt lat="45.06554" lon="4.37547">
        <ele>1119.1999511719</ele>
        <time>2019-08-11T07:45:06.000Z</time>
      </trkpt>
      <trkpt lat="45.06553" lon="4.37548">
        <ele>1119.4000244141</ele>
        <time>2019-08-11T07:45:07.000Z</time>
      </trkpt>
      <trkpt lat="45.06554" lon="4.37551">
        <ele>1119.8000488281</ele>
        <time>2019-08-11T07:45:08.000Z</time>
      </trkpt>
      <trkpt lat="45.06557" lon="4.37578">
        <ele>1123</ele>
        <time>2019-08-11T07:45:24.000Z</time>
      </trkpt>
      <trkpt lat="45.06556" lon="4.37583">
        <ele>1123.4000244141</ele>
        <time>2019-08-11T07:45:27.000Z</time>
      </trkpt>
      <trkpt lat="45.06556" lon="4.37584">
        <ele>1123.4000244141</ele>
        <time>2019-08-11T07:45:28.000Z</time>
      </trkpt>
      <trkpt lat="45.06553" lon="4.37604">
        <ele>1125.4000244141</ele>
        <time>2019-08-11T07:45:40.000Z</time>
      </trkpt>
      <trkpt lat="45.06547" lon="4.37624">
        <ele>1126.5999755859</ele>
        <time>2019-08-11T07:45:51.000Z</time>
      </trkpt>
      <trkpt lat="45.06547" lon="4.37626">
        <ele>1126.8000488281</ele>
        <time>2019-08-11T07:45:52.000Z</time>
      </trkpt>
      <trkpt lat="45.06546" lon="4.37631">
        <ele>1127</ele>
        <time>2019-08-11T07:45:54.000Z</time>
      </trkpt>
      <trkpt lat="45.06546" lon="4.37633">
        <ele>1127</ele>
        <time>2019-08-11T07:45:55.000Z</time>
      </trkpt>
      <trkpt lat="45.06545" lon="4.37635">
        <ele>1127</ele>
        <time>2019-08-11T07:45:56.000Z</time>
      </trkpt>
      <trkpt lat="45.06531" lon="4.37713">
        <ele>1129</ele>
        <time>2019-08-11T07:46:20.000Z</time>
      </trkpt>
      <trkpt lat="45.06523" lon="4.37797">
        <ele>1126</ele>
        <time>2019-08-11T07:46:33.000Z</time>
      </trkpt>
      <trkpt lat="45.06521" lon="4.37882">
        <ele>1125.1999511719</ele>
        <time>2019-08-11T07:46:44.000Z</time>
      </trkpt>
      <trkpt lat="45.06524" lon="4.37905">
        <ele>1125</ele>
        <time>2019-08-11T07:46:50.000Z</time>
      </trkpt>
      <trkpt lat="45.06528" lon="4.3793">
        <ele>1124.1999511719</ele>
        <time>2019-08-11T07:46:55.000Z</time>
      </trkpt>
      <trkpt lat="45.06559" lon="4.37997">
        <ele>1127.1999511719</ele>
        <time>2019-08-11T07:47:10.000Z</time>
      </trkpt>
      <trkpt lat="45.06601" lon="4.38054">
        <ele>1130</ele>
        <time>2019-08-11T07:47:26.000Z</time>
      </trkpt>
      <trkpt lat="45.06625" lon="4.38086">
        <ele>1131</ele>
        <time>2019-08-11T07:47:35.000Z</time>
      </trkpt>
      <trkpt lat="45.06663" lon="4.3813">
        <ele>1131.5999755859</ele>
        <time>2019-08-11T07:47:46.000Z</time>
      </trkpt>
      <trkpt lat="45.06706" lon="4.38186">
        <ele>1133.1999511719</ele>
        <time>2019-08-11T07:47:59.000Z</time>
      </trkpt>
      <trkpt lat="45.06712" lon="4.38201">
        <ele>1133.8000488281</ele>
        <time>2019-08-11T07:48:02.000Z</time>
      </trkpt>
      <trkpt lat="45.06714" lon="4.38207">
        <ele>1134</ele>
        <time>2019-08-11T07:48:03.000Z</time>
      </trkpt>
      <trkpt lat="45.06715" lon="4.38213">
        <ele>1134.4000244141</ele>
        <time>2019-08-11T07:48:04.000Z</time>
      </trkpt>
      <trkpt lat="45.06716" lon="4.38219">
        <ele>1134.4000244141</ele>
        <time>2019-08-11T07:48:05.000Z</time>
      </trkpt>
      <trkpt lat="45.06716" lon="4.38225">
        <ele>1134.4000244141</ele>
        <time>2019-08-11T07:48:06.000Z</time>
      </trkpt>
      <trkpt lat="45.06716" lon="4.38236">
        <ele>1134.8000488281</ele>
        <time>2019-08-11T07:48:08.000Z</time>
      </trkpt>
      <trkpt lat="45.06713" lon="4.38279">
        <ele>1135.5999755859</ele>
        <time>2019-08-11T07:48:15.000Z</time>
      </trkpt>
      <trkpt lat="45.06716" lon="4.38297">
        <ele>1135.8000488281</ele>
        <time>2019-08-11T07:48:18.000Z</time>
      </trkpt>
      <trkpt lat="45.06735" lon="4.38373">
        <ele>1137.5999755859</ele>
        <time>2019-08-11T07:48:32.000Z</time>
      </trkpt>
      <trkpt lat="45.06753" lon="4.3845">
        <ele>1138.8000488281</ele>
        <time>2019-08-11T07:48:46.000Z</time>
      </trkpt>
      <trkpt lat="45.06784" lon="4.3852">
        <ele>1141</ele>
        <time>2019-08-11T07:49:02.000Z</time>
      </trkpt>
      <trkpt lat="45.06807" lon="4.3857">
        <ele>1141.8000488281</ele>
        <time>2019-08-11T07:49:14.000Z</time>
      </trkpt>
      <trkpt lat="45.06809" lon="4.38575">
        <ele>1141.8000488281</ele>
        <time>2019-08-11T07:49:15.000Z</time>
      </trkpt>
      <trkpt lat="45.0681" lon="4.3858">
        <ele>1141.5999755859</ele>
        <time>2019-08-11T07:49:16.000Z</time>
      </trkpt>
      <trkpt lat="45.0681" lon="4.38586">
        <ele>1141.8000488281</ele>
        <time>2019-08-11T07:49:17.000Z</time>
      </trkpt>
      <trkpt lat="45.0681" lon="4.38592">
        <ele>1141.8000488281</ele>
        <time>2019-08-11T07:49:18.000Z</time>
      </trkpt>
      <trkpt lat="45.06809" lon="4.38598">
        <ele>1141.5999755859</ele>
        <time>2019-08-11T07:49:19.000Z</time>
      </trkpt>
      <trkpt lat="45.06808" lon="4.38605">
        <ele>1141.5999755859</ele>
        <time>2019-08-11T07:49:20.000Z</time>
      </trkpt>
      <trkpt lat="45.06806" lon="4.38611">
        <ele>1141.4000244141</ele>
        <time>2019-08-11T07:49:21.000Z</time>
      </trkpt>
      <trkpt lat="45.06805" lon="4.38617">
        <ele>1141</ele>
        <time>2019-08-11T07:49:22.000Z</time>
      </trkpt>
      <trkpt lat="45.06789" lon="4.38667">
        <ele>1140.8000488281</ele>
        <time>2019-08-11T07:49:30.000Z</time>
      </trkpt>
      <trkpt lat="45.06788" lon="4.38673">
        <ele>1140.8000488281</ele>
        <time>2019-08-11T07:49:31.000Z</time>
      </trkpt>
      <trkpt lat="45.06787" lon="4.38679">
        <ele>1140.8000488281</ele>
        <time>2019-08-11T07:49:32.000Z</time>
      </trkpt>
      <trkpt lat="45.06787" lon="4.38684">
        <ele>1141</ele>
        <time>2019-08-11T07:49:33.000Z</time>
      </trkpt>
      <trkpt lat="45.06787" lon="4.38689">
        <ele>1141</ele>
        <time>2019-08-11T07:49:34.000Z</time>
      </trkpt>
      <trkpt lat="45.06788" lon="4.38694">
        <ele>1141</ele>
        <time>2019-08-11T07:49:35.000Z</time>
      </trkpt>
      <trkpt lat="45.06789" lon="4.38698">
        <ele>1141.1999511719</ele>
        <time>2019-08-11T07:49:36.000Z</time>
      </trkpt>
      <trkpt lat="45.0679" lon="4.38702">
        <ele>1141.4000244141</ele>
        <time>2019-08-11T07:49:37.000Z</time>
      </trkpt>
      <trkpt lat="45.06797" lon="4.38737">
        <ele>1144.5999755859</ele>
        <time>2019-08-11T07:49:48.000Z</time>
      </trkpt>
      <trkpt lat="45.06804" lon="4.3877">
        <ele>1147.5999755859</ele>
        <time>2019-08-11T07:50:00.000Z</time>
      </trkpt>
      <trkpt lat="45.06804" lon="4.38785">
        <ele>1149</ele>
        <time>2019-08-11T07:50:07.000Z</time>
      </trkpt>
      <trkpt lat="45.06802" lon="4.38786">
        <ele>1149.1999511719</ele>
        <time>2019-08-11T07:50:08.000Z</time>
      </trkpt>
      <trkpt lat="45.06784" lon="4.38795">
        <ele>1148.8000488281</ele>
        <time>2019-08-11T07:50:14.000Z</time>
      </trkpt>
      <trkpt lat="45.06777" lon="4.388">
        <ele>1148.4000244141</ele>
        <time>2019-08-11T07:50:16.000Z</time>
      </trkpt>
      <trkpt lat="45.06773" lon="4.38802">
        <ele>1148.1999511719</ele>
        <time>2019-08-11T07:50:17.000Z</time>
      </trkpt>
      <trkpt lat="45.06765" lon="4.38805">
        <ele>1147.8000488281</ele>
        <time>2019-08-11T07:50:19.000Z</time>
      </trkpt>
      <trkpt lat="45.0676" lon="4.38807">
        <ele>1148.4000244141</ele>
        <time>2019-08-11T07:50:20.000Z</time>
      </trkpt>
      <trkpt lat="45.06756" lon="4.38808">
        <ele>1148.5999755859</ele>
        <time>2019-08-11T07:50:21.000Z</time>
      </trkpt>
      <trkpt lat="45.06719" lon="4.38817">
        <ele>1147.4000244141</ele>
        <time>2019-08-11T07:50:28.000Z</time>
      </trkpt>
      <trkpt lat="45.06708" lon="4.38821">
        <ele>1147</ele>
        <time>2019-08-11T07:50:30.000Z</time>
      </trkpt>
      <trkpt lat="45.06703" lon="4.38824">
        <ele>1147</ele>
        <time>2019-08-11T07:50:31.000Z</time>
      </trkpt>
      <trkpt lat="45.06662" lon="4.38857">
        <ele>1145.5999755859</ele>
        <time>2019-08-11T07:50:39.000Z</time>
      </trkpt>
      <trkpt lat="45.06655" lon="4.38861">
        <ele>1144.8000488281</ele>
        <time>2019-08-11T07:50:41.000Z</time>
      </trkpt>
      <trkpt lat="45.06651" lon="4.38862">
        <ele>1144</ele>
        <time>2019-08-11T07:50:43.000Z</time>
      </trkpt>
      <trkpt lat="45.06649" lon="4.38863">
        <ele>1144</ele>
        <time>2019-08-11T07:50:45.000Z</time>
      </trkpt>
      <trkpt lat="45.06645" lon="4.38866">
        <ele>1143.8000488281</ele>
        <time>2019-08-11T07:50:48.000Z</time>
      </trkpt>
      <trkpt lat="45.06639" lon="4.38868">
        <ele>1144</ele>
        <time>2019-08-11T07:50:51.000Z</time>
      </trkpt>
      <trkpt lat="45.06633" lon="4.3887">
        <ele>1143.5999755859</ele>
        <time>2019-08-11T07:50:54.000Z</time>
      </trkpt>
      <trkpt lat="45.06628" lon="4.38872">
        <ele>1143.4000244141</ele>
        <time>2019-08-11T07:50:56.000Z</time>
      </trkpt>
      <trkpt lat="45.0661" lon="4.3888">
        <ele>1143</ele>
        <time>2019-08-11T07:51:03.000Z</time>
      </trkpt>
      <trkpt lat="45.06603" lon="4.38885">
        <ele>1142.5999755859</ele>
        <time>2019-08-11T07:51:07.000Z</time>
      </trkpt>
      <trkpt lat="45.066" lon="4.38888">
        <ele>1142.4000244141</ele>
        <time>2019-08-11T07:51:10.000Z</time>
      </trkpt>
      <trkpt lat="45.06599" lon="4.38889">
        <ele>1142.4000244141</ele>
        <time>2019-08-11T07:51:11.000Z</time>
      </trkpt>
      <trkpt lat="45.06599" lon="4.3889">
        <ele>1142.8000488281</ele>
        <time>2019-08-11T07:51:12.000Z</time>
      </trkpt>
      <trkpt lat="45.06598" lon="4.3889">
        <ele>1143</ele>
        <time>2019-08-11T07:51:13.000Z</time>
      </trkpt>
      <trkpt lat="45.06597" lon="4.38891">
        <ele>1143.1999511719</ele>
        <time>2019-08-11T07:51:14.000Z</time>
      </trkpt>
      <trkpt lat="45.06597" lon="4.38892">
        <ele>1143.1999511719</ele>
        <time>2019-08-11T07:51:15.000Z</time>
      </trkpt>
      <trkpt lat="45.06596" lon="4.38894">
        <ele>1143</ele>
        <time>2019-08-11T07:51:17.000Z</time>
      </trkpt>
      <trkpt lat="45.06597" lon="4.38895">
        <ele>1142.8000488281</ele>
        <time>2019-08-11T07:51:18.000Z</time>
      </trkpt>
      <trkpt lat="45.06598" lon="4.38895">
        <ele>1142.8000488281</ele>
        <time>2019-08-11T07:51:19.000Z</time>
      </trkpt>
      <trkpt lat="45.06608" lon="4.38889">
        <ele>1142.5999755859</ele>
        <time>2019-08-11T07:51:24.000Z</time>
      </trkpt>
      <trkpt lat="45.06634" lon="4.38876">
        <ele>1143.8000488281</ele>
        <time>2019-08-11T07:51:35.000Z</time>
      </trkpt>
      <trkpt lat="45.06648" lon="4.38869">
        <ele>1144.4000244141</ele>
        <time>2019-08-11T07:51:40.000Z</time>
      </trkpt>
      <trkpt lat="45.06668" lon="4.38859">
        <ele>1145</ele>
        <time>2019-08-11T07:51:47.000Z</time>
      </trkpt>
      <trkpt lat="45.06679" lon="4.38849">
        <ele>1145.4000244141</ele>
        <time>2019-08-11T07:51:51.000Z</time>
      </trkpt>
      <trkpt lat="45.06693" lon="4.38838">
        <ele>1146.1999511719</ele>
        <time>2019-08-11T07:51:56.000Z</time>
      </trkpt>
      <trkpt lat="45.0674" lon="4.38816">
        <ele>1147.4000244141</ele>
        <time>2019-08-11T07:52:13.000Z</time>
      </trkpt>
      <trkpt lat="45.06796" lon="4.38803">
        <ele>1150</ele>
        <time>2019-08-11T07:52:32.000Z</time>
      </trkpt>
      <trkpt lat="45.06797" lon="4.38806">
        <ele>1150</ele>
        <time>2019-08-11T07:52:33.000Z</time>
      </trkpt>
      <trkpt lat="45.06796" lon="4.38809">
        <ele>1150.1999511719</ele>
        <time>2019-08-11T07:52:34.000Z</time>
      </trkpt>
      <trkpt lat="45.06794" lon="4.38832">
        <ele>1151.8000488281</ele>
        <time>2019-08-11T07:52:43.000Z</time>
      </trkpt>
      <trkpt lat="45.06793" lon="4.38835">
        <ele>1152</ele>
        <time>2019-08-11T07:52:44.000Z</time>
      </trkpt>
      <trkpt lat="45.06794" lon="4.38837">
        <ele>1152.4000244141</ele>
        <time>2019-08-11T07:52:45.000Z</time>
      </trkpt>
      <trkpt lat="45.06793" lon="4.38839">
        <ele>1152.5999755859</ele>
        <time>2019-08-11T07:52:46.000Z</time>
      </trkpt>
      <trkpt lat="45.06793" lon="4.38841">
        <ele>1153</ele>
        <time>2019-08-11T07:52:47.000Z</time>
      </trkpt>
      <trkpt lat="45.06792" lon="4.38843">
        <ele>1153.1999511719</ele>
        <time>2019-08-11T07:52:48.000Z</time>
      </trkpt>
      <trkpt lat="45.06791" lon="4.38845">
        <ele>1153.5999755859</ele>
        <time>2019-08-11T07:52:49.000Z</time>
      </trkpt>
      <trkpt lat="45.06791" lon="4.38848">
        <ele>1153.8000488281</ele>
        <time>2019-08-11T07:52:50.000Z</time>
      </trkpt>
      <trkpt lat="45.06791" lon="4.38851">
        <ele>1154</ele>
        <time>2019-08-11T07:52:51.000Z</time>
      </trkpt>
      <trkpt lat="45.06795" lon="4.38865">
        <ele>1155.4000244141</ele>
        <time>2019-08-11T07:52:58.000Z</time>
      </trkpt>
      <trkpt lat="45.06807" lon="4.38874">
        <ele>1156.8000488281</ele>
        <time>2019-08-11T07:53:04.000Z</time>
      </trkpt>
      <trkpt lat="45.0681" lon="4.38877">
        <ele>1157.1999511719</ele>
        <time>2019-08-11T07:53:06.000Z</time>
      </trkpt>
      <trkpt lat="45.06811" lon="4.3888">
        <ele>1157.4000244141</ele>
        <time>2019-08-11T07:53:07.000Z</time>
      </trkpt>
      <trkpt lat="45.06812" lon="4.38882">
        <ele>1157.5999755859</ele>
        <time>2019-08-11T07:53:08.000Z</time>
      </trkpt>
      <trkpt lat="45.06815" lon="4.38899">
        <ele>1159.1999511719</ele>
        <time>2019-08-11T07:53:15.000Z</time>
      </trkpt>
      <trkpt lat="45.06812" lon="4.3893">
        <ele>1162.4000244141</ele>
        <time>2019-08-11T07:53:29.000Z</time>
      </trkpt>
      <trkpt lat="45.06805" lon="4.3895">
        <ele>1164.4000244141</ele>
        <time>2019-08-11T07:53:39.000Z</time>
      </trkpt>
      <trkpt lat="45.06796" lon="4.38982">
        <ele>1167.5999755859</ele>
        <time>2019-08-11T07:53:55.000Z</time>
      </trkpt>
      <trkpt lat="45.0679" lon="4.39013">
        <ele>1168.5999755859</ele>
        <time>2019-08-11T07:54:07.000Z</time>
      </trkpt>
      <trkpt lat="45.0679" lon="4.39015">
        <ele>1168.8000488281</ele>
        <time>2019-08-11T07:54:08.000Z</time>
      </trkpt>
      <trkpt lat="45.06786" lon="4.39053">
        <ele>1171.8000488281</ele>
        <time>2019-08-11T07:54:23.000Z</time>
      </trkpt>
      <trkpt lat="45.06765" lon="4.39125">
        <ele>1174</ele>
        <time>2019-08-11T07:54:46.000Z</time>
      </trkpt>
      <trkpt lat="45.06757" lon="4.39152">
        <ele>1174.4000244141</ele>
        <time>2019-08-11T07:54:52.000Z</time>
      </trkpt>
      <trkpt lat="45.06744" lon="4.39188">
        <ele>1174.1999511719</ele>
        <time>2019-08-11T07:55:00.000Z</time>
      </trkpt>
      <trkpt lat="45.06721" lon="4.39264">
        <ele>1173.4000244141</ele>
        <time>2019-08-11T07:55:11.000Z</time>
      </trkpt>
      <trkpt lat="45.06717" lon="4.39277">
        <ele>1173</ele>
        <time>2019-08-11T07:55:13.000Z</time>
      </trkpt>
      <trkpt lat="45.06711" lon="4.3929">
        <ele>1173.1999511719</ele>
        <time>2019-08-11T07:55:15.000Z</time>
      </trkpt>
      <trkpt lat="45.06704" lon="4.39311">
        <ele>1172.4000244141</ele>
        <time>2019-08-11T07:55:18.000Z</time>
      </trkpt>
      <trkpt lat="45.06699" lon="4.39325">
        <ele>1171.8000488281</ele>
        <time>2019-08-11T07:55:20.000Z</time>
      </trkpt>
      <trkpt lat="45.06688" lon="4.39361">
        <ele>1170</ele>
        <time>2019-08-11T07:55:25.000Z</time>
      </trkpt>
      <trkpt lat="45.06666" lon="4.39433">
        <ele>1170.4000244141</ele>
        <time>2019-08-11T07:55:35.000Z</time>
      </trkpt>
      <trkpt lat="45.0666" lon="4.39473">
        <ele>1170.1999511719</ele>
        <time>2019-08-11T07:55:40.000Z</time>
      </trkpt>
      <trkpt lat="45.06658" lon="4.39511">
        <ele>1169.4000244141</ele>
        <time>2019-08-11T07:55:45.000Z</time>
      </trkpt>
      <trkpt lat="45.06656" lon="4.39518">
        <ele>1168.8000488281</ele>
        <time>2019-08-11T07:55:46.000Z</time>
      </trkpt>
      <trkpt lat="45.06653" lon="4.39523">
        <ele>1168.4000244141</ele>
        <time>2019-08-11T07:55:47.000Z</time>
      </trkpt>
      <trkpt lat="45.0665" lon="4.39528">
        <ele>1167.8000488281</ele>
        <time>2019-08-11T07:55:48.000Z</time>
      </trkpt>
      <trkpt lat="45.06645" lon="4.3953">
        <ele>1167.8000488281</ele>
        <time>2019-08-11T07:55:49.000Z</time>
      </trkpt>
      <trkpt lat="45.0664" lon="4.39531">
        <ele>1167.5999755859</ele>
        <time>2019-08-11T07:55:50.000Z</time>
      </trkpt>
      <trkpt lat="45.06634" lon="4.39532">
        <ele>1166.8000488281</ele>
        <time>2019-08-11T07:55:51.000Z</time>
      </trkpt>
      <trkpt lat="45.06608" lon="4.39534">
        <ele>1163.1999511719</ele>
        <time>2019-08-11T07:55:55.000Z</time>
      </trkpt>
      <trkpt lat="45.06576" lon="4.39533">
        <ele>1161</ele>
        <time>2019-08-11T07:55:59.000Z</time>
      </trkpt>
      <trkpt lat="45.06558" lon="4.39529">
        <ele>1159</ele>
        <time>2019-08-11T07:56:01.000Z</time>
      </trkpt>
      <trkpt lat="45.06548" lon="4.39526">
        <ele>1157.1999511719</ele>
        <time>2019-08-11T07:56:02.000Z</time>
      </trkpt>
      <trkpt lat="45.06538" lon="4.39525">
        <ele>1155.8000488281</ele>
        <time>2019-08-11T07:56:03.000Z</time>
      </trkpt>
      <trkpt lat="45.06528" lon="4.39526">
        <ele>1154</ele>
        <time>2019-08-11T07:56:04.000Z</time>
      </trkpt>
      <trkpt lat="45.06518" lon="4.39528">
        <ele>1152.4000244141</ele>
        <time>2019-08-11T07:56:05.000Z</time>
      </trkpt>
      <trkpt lat="45.06508" lon="4.39533">
        <ele>1149.8000488281</ele>
        <time>2019-08-11T07:56:06.000Z</time>
      </trkpt>
      <trkpt lat="45.06499" lon="4.39537">
        <ele>1148.8000488281</ele>
        <time>2019-08-11T07:56:07.000Z</time>
      </trkpt>
      <trkpt lat="45.06441" lon="4.39558">
        <ele>1146</ele>
        <time>2019-08-11T07:56:14.000Z</time>
      </trkpt>
      <trkpt lat="45.06433" lon="4.39557">
        <ele>1145.1999511719</ele>
        <time>2019-08-11T07:56:15.000Z</time>
      </trkpt>
      <trkpt lat="45.06424" lon="4.39556">
        <ele>1144.5999755859</ele>
        <time>2019-08-11T07:56:16.000Z</time>
      </trkpt>
      <trkpt lat="45.06416" lon="4.39555">
        <ele>1144</ele>
        <time>2019-08-11T07:56:17.000Z</time>
      </trkpt>
      <trkpt lat="45.06391" lon="4.39547">
        <ele>1141</ele>
        <time>2019-08-11T07:56:20.000Z</time>
      </trkpt>
      <trkpt lat="45.06349" lon="4.39536">
        <ele>1137.8000488281</ele>
        <time>2019-08-11T07:56:25.000Z</time>
      </trkpt>
      <trkpt lat="45.06312" lon="4.3953">
        <ele>1134.5999755859</ele>
        <time>2019-08-11T07:56:29.000Z</time>
      </trkpt>
      <trkpt lat="45.06274" lon="4.39527">
        <ele>1132.8000488281</ele>
        <time>2019-08-11T07:56:33.000Z</time>
      </trkpt>
      <trkpt lat="45.06229" lon="4.39531">
        <ele>1129.5999755859</ele>
        <time>2019-08-11T07:56:38.000Z</time>
      </trkpt>
      <trkpt lat="45.06182" lon="4.39534">
        <ele>1126.5999755859</ele>
        <time>2019-08-11T07:56:43.000Z</time>
      </trkpt>
      <trkpt lat="45.06174" lon="4.39531">
        <ele>1126.5999755859</ele>
        <time>2019-08-11T07:56:44.000Z</time>
      </trkpt>
      <trkpt lat="45.06166" lon="4.39526">
        <ele>1126</ele>
        <time>2019-08-11T07:56:45.000Z</time>
      </trkpt>
      <trkpt lat="45.06138" lon="4.39505">
        <ele>1126</ele>
        <time>2019-08-11T07:56:49.000Z</time>
      </trkpt>
      <trkpt lat="45.06126" lon="4.39497">
        <ele>1126.1999511719</ele>
        <time>2019-08-11T07:56:51.000Z</time>
      </trkpt>
      <trkpt lat="45.06104" lon="4.39475">
        <ele>1126.4000244141</ele>
        <time>2019-08-11T07:56:56.000Z</time>
      </trkpt>
      <trkpt lat="45.06075" lon="4.39449">
        <ele>1126.1999511719</ele>
        <time>2019-08-11T07:57:02.000Z</time>
      </trkpt>
      <trkpt lat="45.06053" lon="4.39433">
        <ele>1126.1999511719</ele>
        <time>2019-08-11T07:57:06.000Z</time>
      </trkpt>
      <trkpt lat="45.06006" lon="4.39399">
        <ele>1127</ele>
        <time>2019-08-11T07:57:15.000Z</time>
      </trkpt>
      <trkpt lat="45.05993" lon="4.3939">
        <ele>1127.4000244141</ele>
        <time>2019-08-11T07:57:18.000Z</time>
      </trkpt>
      <trkpt lat="45.05989" lon="4.39388">
        <ele>1127.5999755859</ele>
        <time>2019-08-11T07:57:19.000Z</time>
      </trkpt>
      <trkpt lat="45.05985" lon="4.39386">
        <ele>1127.8000488281</ele>
        <time>2019-08-11T07:57:20.000Z</time>
      </trkpt>
      <trkpt lat="45.05982" lon="4.39384">
        <ele>1127.8000488281</ele>
        <time>2019-08-11T07:57:21.000Z</time>
      </trkpt>
      <trkpt lat="45.05978" lon="4.39382">
        <ele>1127.8000488281</ele>
        <time>2019-08-11T07:57:22.000Z</time>
      </trkpt>
      <trkpt lat="45.05974" lon="4.39381">
        <ele>1127.8000488281</ele>
        <time>2019-08-11T07:57:23.000Z</time>
      </trkpt>
      <trkpt lat="45.05945" lon="4.3937">
        <ele>1126.8000488281</ele>
        <time>2019-08-11T07:57:29.000Z</time>
      </trkpt>
      <trkpt lat="45.05939" lon="4.39371">
        <ele>1126.4000244141</ele>
        <time>2019-08-11T07:57:30.000Z</time>
      </trkpt>
      <trkpt lat="45.05933" lon="4.39373">
        <ele>1126.1999511719</ele>
        <time>2019-08-11T07:57:31.000Z</time>
      </trkpt>
      <trkpt lat="45.05927" lon="4.39376">
        <ele>1126</ele>
        <time>2019-08-11T07:57:32.000Z</time>
      </trkpt>
      <trkpt lat="45.05922" lon="4.39381">
        <ele>1125.5999755859</ele>
        <time>2019-08-11T07:57:33.000Z</time>
      </trkpt>
      <trkpt lat="45.05917" lon="4.39386">
        <ele>1124.1999511719</ele>
        <time>2019-08-11T07:57:34.000Z</time>
      </trkpt>
      <trkpt lat="45.05912" lon="4.39391">
        <ele>1123.5999755859</ele>
        <time>2019-08-11T07:57:35.000Z</time>
      </trkpt>
      <trkpt lat="45.05906" lon="4.39396">
        <ele>1123.4000244141</ele>
        <time>2019-08-11T07:57:36.000Z</time>
      </trkpt>
      <trkpt lat="45.059" lon="4.39401">
        <ele>1123.1999511719</ele>
        <time>2019-08-11T07:57:37.000Z</time>
      </trkpt>
      <trkpt lat="45.05894" lon="4.39406">
        <ele>1122.8000488281</ele>
        <time>2019-08-11T07:57:38.000Z</time>
      </trkpt>
      <trkpt lat="45.05889" lon="4.39411">
        <ele>1122.5999755859</ele>
        <time>2019-08-11T07:57:39.000Z</time>
      </trkpt>
      <trkpt lat="45.05854" lon="4.39469">
        <ele>1119.4000244141</ele>
        <time>2019-08-11T07:57:46.000Z</time>
      </trkpt>
      <trkpt lat="45.05841" lon="4.39498">
        <ele>1117.8000488281</ele>
        <time>2019-08-11T07:57:49.000Z</time>
      </trkpt>
      <trkpt lat="45.05822" lon="4.3954">
        <ele>1114.5999755859</ele>
        <time>2019-08-11T07:57:53.000Z</time>
      </trkpt>
      <trkpt lat="45.05785" lon="4.39604">
        <ele>1113.5999755859</ele>
        <time>2019-08-11T07:58:01.000Z</time>
      </trkpt>
      <trkpt lat="45.0578" lon="4.39615">
        <ele>1114.1999511719</ele>
        <time>2019-08-11T07:58:05.000Z</time>
      </trkpt>
      <trkpt lat="45.05779" lon="4.39617">
        <ele>1114.4000244141</ele>
        <time>2019-08-11T07:58:11.000Z</time>
      </trkpt>
      <trkpt lat="45.05777" lon="4.39614">
        <ele>1114.5999755859</ele>
        <time>2019-08-11T07:58:19.000Z</time>
      </trkpt>
      <trkpt lat="45.05773" lon="4.39624">
        <ele>1114.8000488281</ele>
        <time>2019-08-11T08:05:51.000Z</time>
      </trkpt>
      <trkpt lat="45.05773" lon="4.39626">
        <ele>1114.8000488281</ele>
        <time>2019-08-11T08:05:52.000Z</time>
      </trkpt>
      <trkpt lat="45.05772" lon="4.39627">
        <ele>1114.8000488281</ele>
        <time>2019-08-11T08:05:53.000Z</time>
      </trkpt>
      <trkpt lat="45.05769" lon="4.39634">
        <ele>1114.5999755859</ele>
        <time>2019-08-11T08:06:02.000Z</time>
      </trkpt>
      <trkpt lat="45.05762" lon="4.39635">
        <ele>1114.5999755859</ele>
        <time>2019-08-11T08:06:22.000Z</time>
      </trkpt>
      <trkpt lat="45.05761" lon="4.39636">
        <ele>1114.5999755859</ele>
        <time>2019-08-11T08:06:23.000Z</time>
      </trkpt>
      <trkpt lat="45.05753" lon="4.39644">
        <ele>1114.8000488281</ele>
        <time>2019-08-11T08:06:28.000Z</time>
      </trkpt>
      <trkpt lat="45.05729" lon="4.39673">
        <ele>1115.8000488281</ele>
        <time>2019-08-11T08:06:40.000Z</time>
      </trkpt>
      <trkpt lat="45.05722" lon="4.39684">
        <ele>1116.1999511719</ele>
        <time>2019-08-11T08:06:44.000Z</time>
      </trkpt>
      <trkpt lat="45.05714" lon="4.39695">
        <ele>1117.1999511719</ele>
        <time>2019-08-11T08:06:48.000Z</time>
      </trkpt>
      <trkpt lat="45.05704" lon="4.39709">
        <ele>1117.5999755859</ele>
        <time>2019-08-11T08:06:53.000Z</time>
      </trkpt>
      <trkpt lat="45.05688" lon="4.39732">
        <ele>1115.4000244141</ele>
        <time>2019-08-11T08:06:59.000Z</time>
      </trkpt>
      <trkpt lat="45.05668" lon="4.39761">
        <ele>1112.5999755859</ele>
        <time>2019-08-11T08:07:04.000Z</time>
      </trkpt>
      <trkpt lat="45.05649" lon="4.39795">
        <ele>1112.8000488281</ele>
        <time>2019-08-11T08:07:10.000Z</time>
      </trkpt>
      <trkpt lat="45.05627" lon="4.39828">
        <ele>1110.4000244141</ele>
        <time>2019-08-11T08:07:16.000Z</time>
      </trkpt>
      <trkpt lat="45.05622" lon="4.39833">
        <ele>1110.4000244141</ele>
        <time>2019-08-11T08:07:17.000Z</time>
      </trkpt>
      <trkpt lat="45.05613" lon="4.39842">
        <ele>1110.5999755859</ele>
        <time>2019-08-11T08:07:19.000Z</time>
      </trkpt>
      <trkpt lat="45.05609" lon="4.39848">
        <ele>1110</ele>
        <time>2019-08-11T08:07:20.000Z</time>
      </trkpt>
      <trkpt lat="45.0559" lon="4.39871">
        <ele>1107.8000488281</ele>
        <time>2019-08-11T08:07:24.000Z</time>
      </trkpt>
      <trkpt lat="45.05574" lon="4.39889">
        <ele>1106.5999755859</ele>
        <time>2019-08-11T08:07:27.000Z</time>
      </trkpt>
      <trkpt lat="45.05568" lon="4.39896">
        <ele>1106</ele>
        <time>2019-08-11T08:07:28.000Z</time>
      </trkpt>
      <trkpt lat="45.05563" lon="4.39904">
        <ele>1106</ele>
        <time>2019-08-11T08:07:29.000Z</time>
      </trkpt>
      <trkpt lat="45.05538" lon="4.39943">
        <ele>1103.1999511719</ele>
        <time>2019-08-11T08:07:34.000Z</time>
      </trkpt>
      <trkpt lat="45.05534" lon="4.39948">
        <ele>1103</ele>
        <time>2019-08-11T08:07:35.000Z</time>
      </trkpt>
      <trkpt lat="45.05521" lon="4.39965">
        <ele>1102.4000244141</ele>
        <time>2019-08-11T08:07:38.000Z</time>
      </trkpt>
      <trkpt lat="45.05518" lon="4.3997">
        <ele>1102.1999511719</ele>
        <time>2019-08-11T08:07:39.000Z</time>
      </trkpt>
      <trkpt lat="45.05515" lon="4.39975">
        <ele>1102.1999511719</ele>
        <time>2019-08-11T08:07:40.000Z</time>
      </trkpt>
      <trkpt lat="45.0551" lon="4.39985">
        <ele>1103</ele>
        <time>2019-08-11T08:07:42.000Z</time>
      </trkpt>
      <trkpt lat="45.05504" lon="4.39994">
        <ele>1102.5999755859</ele>
        <time>2019-08-11T08:07:44.000Z</time>
      </trkpt>
      <trkpt lat="45.055" lon="4.40006">
        <ele>1102.1999511719</ele>
        <time>2019-08-11T08:07:46.000Z</time>
      </trkpt>
      <trkpt lat="45.05486" lon="4.40048">
        <ele>1101</ele>
        <time>2019-08-11T08:07:52.000Z</time>
      </trkpt>
      <trkpt lat="45.05469" lon="4.40085">
        <ele>1100.5999755859</ele>
        <time>2019-08-11T08:07:58.000Z</time>
      </trkpt>
      <trkpt lat="45.05467" lon="4.4009">
        <ele>1100.5999755859</ele>
        <time>2019-08-11T08:07:59.000Z</time>
      </trkpt>
      <trkpt lat="45.05466" lon="4.40094">
        <ele>1100.1999511719</ele>
        <time>2019-08-11T08:08:00.000Z</time>
      </trkpt>
      <trkpt lat="45.05466" lon="4.40097">
        <ele>1100.1999511719</ele>
        <time>2019-08-11T08:08:01.000Z</time>
      </trkpt>
      <trkpt lat="45.05467" lon="4.40097">
        <ele>1100.4000244141</ele>
        <time>2019-08-11T08:08:02.000Z</time>
      </trkpt>
      <trkpt lat="45.05469" lon="4.40096">
        <ele>1100.5999755859</ele>
        <time>2019-08-11T08:08:03.000Z</time>
      </trkpt>
      <trkpt lat="45.0547" lon="4.40094">
        <ele>1101</ele>
        <time>2019-08-11T08:08:04.000Z</time>
      </trkpt>
      <trkpt lat="45.05473" lon="4.40091">
        <ele>1101</ele>
        <time>2019-08-11T08:08:05.000Z</time>
      </trkpt>
      <trkpt lat="45.05476" lon="4.4009">
        <ele>1101</ele>
        <time>2019-08-11T08:08:06.000Z</time>
      </trkpt>
      <trkpt lat="45.0548" lon="4.4009">
        <ele>1101.1999511719</ele>
        <time>2019-08-11T08:08:07.000Z</time>
      </trkpt>
      <trkpt lat="45.05484" lon="4.40093">
        <ele>1101</ele>
        <time>2019-08-11T08:08:08.000Z</time>
      </trkpt>
      <trkpt lat="45.05488" lon="4.40096">
        <ele>1100.5999755859</ele>
        <time>2019-08-11T08:08:09.000Z</time>
      </trkpt>
      <trkpt lat="45.055" lon="4.40106">
        <ele>1099.1999511719</ele>
        <time>2019-08-11T08:08:12.000Z</time>
      </trkpt>
      <trkpt lat="45.05514" lon="4.40116">
        <ele>1098</ele>
        <time>2019-08-11T08:08:15.000Z</time>
      </trkpt>
      <trkpt lat="45.05522" lon="4.40121">
        <ele>1097.8000488281</ele>
        <time>2019-08-11T08:08:17.000Z</time>
      </trkpt>
      <trkpt lat="45.05525" lon="4.40126">
        <ele>1097.5999755859</ele>
        <time>2019-08-11T08:08:18.000Z</time>
      </trkpt>
      <trkpt lat="45.05528" lon="4.40134">
        <ele>1096.5999755859</ele>
        <time>2019-08-11T08:08:19.000Z</time>
      </trkpt>
      <trkpt lat="45.05529" lon="4.40142">
        <ele>1096.1999511719</ele>
        <time>2019-08-11T08:08:20.000Z</time>
      </trkpt>
      <trkpt lat="45.0553" lon="4.4015">
        <ele>1096</ele>
        <time>2019-08-11T08:08:21.000Z</time>
      </trkpt>
      <trkpt lat="45.05531" lon="4.40157">
        <ele>1095.5999755859</ele>
        <time>2019-08-11T08:08:22.000Z</time>
      </trkpt>
      <trkpt lat="45.05532" lon="4.40163">
        <ele>1095.5999755859</ele>
        <time>2019-08-11T08:08:23.000Z</time>
      </trkpt>
      <trkpt lat="45.05535" lon="4.40167">
        <ele>1095.8000488281</ele>
        <time>2019-08-11T08:08:24.000Z</time>
      </trkpt>
      <trkpt lat="45.0556" lon="4.40188">
        <ele>1092</ele>
        <time>2019-08-11T08:08:29.000Z</time>
      </trkpt>
      <trkpt lat="45.05569" lon="4.40197">
        <ele>1091</ele>
        <time>2019-08-11T08:08:31.000Z</time>
      </trkpt>
      <trkpt lat="45.05578" lon="4.40206">
        <ele>1089.8000488281</ele>
        <time>2019-08-11T08:08:33.000Z</time>
      </trkpt>
      <trkpt lat="45.05587" lon="4.40215">
        <ele>1087.1999511719</ele>
        <time>2019-08-11T08:08:35.000Z</time>
      </trkpt>
      <trkpt lat="45.05592" lon="4.40219">
        <ele>1086.5999755859</ele>
        <time>2019-08-11T08:08:36.000Z</time>
      </trkpt>
      <trkpt lat="45.05606" lon="4.40231">
        <ele>1083.4000244141</ele>
        <time>2019-08-11T08:08:39.000Z</time>
      </trkpt>
      <trkpt lat="45.05618" lon="4.40245">
        <ele>1079.8000488281</ele>
        <time>2019-08-11T08:08:42.000Z</time>
      </trkpt>
      <trkpt lat="45.05631" lon="4.40262">
        <ele>1076.4000244141</ele>
        <time>2019-08-11T08:08:45.000Z</time>
      </trkpt>
      <trkpt lat="45.05644" lon="4.40279">
        <ele>1073</ele>
        <time>2019-08-11T08:08:48.000Z</time>
      </trkpt>
      <trkpt lat="45.05657" lon="4.40298">
        <ele>1070.4000244141</ele>
        <time>2019-08-11T08:08:51.000Z</time>
      </trkpt>
      <trkpt lat="45.05662" lon="4.40309">
        <ele>1069.4000244141</ele>
        <time>2019-08-11T08:08:53.000Z</time>
      </trkpt>
      <trkpt lat="45.05665" lon="4.40314">
        <ele>1069</ele>
        <time>2019-08-11T08:08:54.000Z</time>
      </trkpt>
      <trkpt lat="45.05679" lon="4.40339">
        <ele>1065</ele>
        <time>2019-08-11T08:08:58.000Z</time>
      </trkpt>
      <trkpt lat="45.05687" lon="4.40357">
        <ele>1060.8000488281</ele>
        <time>2019-08-11T08:09:00.000Z</time>
      </trkpt>
      <trkpt lat="45.05701" lon="4.4039">
        <ele>1056.8000488281</ele>
        <time>2019-08-11T08:09:03.000Z</time>
      </trkpt>
      <trkpt lat="45.05712" lon="4.40423">
        <ele>1053.5999755859</ele>
        <time>2019-08-11T08:09:06.000Z</time>
      </trkpt>
      <trkpt lat="45.05717" lon="4.40435">
        <ele>1053.4000244141</ele>
        <time>2019-08-11T08:09:07.000Z</time>
      </trkpt>
      <trkpt lat="45.05742" lon="4.40507">
        <ele>1053.8000488281</ele>
        <time>2019-08-11T08:09:14.000Z</time>
      </trkpt>
      <trkpt lat="45.05743" lon="4.40516">
        <ele>1054.1999511719</ele>
        <time>2019-08-11T08:09:15.000Z</time>
      </trkpt>
      <trkpt lat="45.05746" lon="4.40535">
        <ele>1054</ele>
        <time>2019-08-11T08:09:17.000Z</time>
      </trkpt>
      <trkpt lat="45.05747" lon="4.40544">
        <ele>1053.5999755859</ele>
        <time>2019-08-11T08:09:18.000Z</time>
      </trkpt>
      <trkpt lat="45.05745" lon="4.40573">
        <ele>1052.5999755859</ele>
        <time>2019-08-11T08:09:21.000Z</time>
      </trkpt>
      <trkpt lat="45.05739" lon="4.4061">
        <ele>1049.4000244141</ele>
        <time>2019-08-11T08:09:25.000Z</time>
      </trkpt>
      <trkpt lat="45.05737" lon="4.40633">
        <ele>1046.1999511719</ele>
        <time>2019-08-11T08:09:27.000Z</time>
      </trkpt>
      <trkpt lat="45.05737" lon="4.40664">
        <ele>1043</ele>
        <time>2019-08-11T08:09:30.000Z</time>
      </trkpt>
      <trkpt lat="45.05739" lon="4.40698">
        <ele>1039.5999755859</ele>
        <time>2019-08-11T08:09:33.000Z</time>
      </trkpt>
      <trkpt lat="45.05743" lon="4.40735">
        <ele>1035.4000244141</ele>
        <time>2019-08-11T08:09:36.000Z</time>
      </trkpt>
      <trkpt lat="45.05746" lon="4.40761">
        <ele>1032.1999511719</ele>
        <time>2019-08-11T08:09:38.000Z</time>
      </trkpt>
      <trkpt lat="45.05747" lon="4.40798">
        <ele>1028.1999511719</ele>
        <time>2019-08-11T08:09:41.000Z</time>
      </trkpt>
      <trkpt lat="45.05748" lon="4.40841">
        <ele>1024.4000244141</ele>
        <time>2019-08-11T08:09:45.000Z</time>
      </trkpt>
      <trkpt lat="45.05747" lon="4.40862">
        <ele>1021.200012207</ele>
        <time>2019-08-11T08:09:47.000Z</time>
      </trkpt>
      <trkpt lat="45.05746" lon="4.40871">
        <ele>1019.799987793</ele>
        <time>2019-08-11T08:09:48.000Z</time>
      </trkpt>
      <trkpt lat="45.05743" lon="4.40887">
        <ele>1018.5999755859</ele>
        <time>2019-08-11T08:09:50.000Z</time>
      </trkpt>
      <trkpt lat="45.05735" lon="4.40918">
        <ele>1015.200012207</ele>
        <time>2019-08-11T08:09:54.000Z</time>
      </trkpt>
      <trkpt lat="45.05733" lon="4.40934">
        <ele>1013.799987793</ele>
        <time>2019-08-11T08:09:56.000Z</time>
      </trkpt>
      <trkpt lat="45.05732" lon="4.40959">
        <ele>1009.5999755859</ele>
        <time>2019-08-11T08:09:59.000Z</time>
      </trkpt>
      <trkpt lat="45.0573" lon="4.40985">
        <ele>1006.200012207</ele>
        <time>2019-08-11T08:10:02.000Z</time>
      </trkpt>
      <trkpt lat="45.0573" lon="4.40994">
        <ele>1004.799987793</ele>
        <time>2019-08-11T08:10:03.000Z</time>
      </trkpt>
      <trkpt lat="45.05731" lon="4.41024">
        <ele>1001.4000244141</ele>
        <time>2019-08-11T08:10:06.000Z</time>
      </trkpt>
      <trkpt lat="45.05734" lon="4.41058">
        <ele>998.20001220703</ele>
        <time>2019-08-11T08:10:10.000Z</time>
      </trkpt>
      <trkpt lat="45.05735" lon="4.41067">
        <ele>997.59997558594</ele>
        <time>2019-08-11T08:10:11.000Z</time>
      </trkpt>
      <trkpt lat="45.05735" lon="4.41076">
        <ele>996.40002441406</ele>
        <time>2019-08-11T08:10:12.000Z</time>
      </trkpt>
      <trkpt lat="45.05736" lon="4.41101">
        <ele>995</ele>
        <time>2019-08-11T08:10:15.000Z</time>
      </trkpt>
      <trkpt lat="45.05733" lon="4.41181">
        <ele>991.79998779297</ele>
        <time>2019-08-11T08:10:24.000Z</time>
      </trkpt>
      <trkpt lat="45.05732" lon="4.41189">
        <ele>991</ele>
        <time>2019-08-11T08:10:25.000Z</time>
      </trkpt>
      <trkpt lat="45.05725" lon="4.41207">
        <ele>990.20001220703</ele>
        <time>2019-08-11T08:10:28.000Z</time>
      </trkpt>
      <trkpt lat="45.0572" lon="4.41218">
        <ele>988.59997558594</ele>
        <time>2019-08-11T08:10:30.000Z</time>
      </trkpt>
      <trkpt lat="45.05719" lon="4.41225">
        <ele>988</ele>
        <time>2019-08-11T08:10:31.000Z</time>
      </trkpt>
      <trkpt lat="45.0572" lon="4.41232">
        <ele>987.20001220703</ele>
        <time>2019-08-11T08:10:32.000Z</time>
      </trkpt>
      <trkpt lat="45.05723" lon="4.4126">
        <ele>983.20001220703</ele>
        <time>2019-08-11T08:10:36.000Z</time>
      </trkpt>
      <trkpt lat="45.05726" lon="4.41272">
        <ele>981</ele>
        <time>2019-08-11T08:10:39.000Z</time>
      </trkpt>
      <trkpt lat="45.05728" lon="4.41275">
        <ele>980.79998779297</ele>
        <time>2019-08-11T08:10:40.000Z</time>
      </trkpt>
      <trkpt lat="45.0573" lon="4.41278">
        <ele>980.20001220703</ele>
        <time>2019-08-11T08:10:41.000Z</time>
      </trkpt>
      <trkpt lat="45.05733" lon="4.4128">
        <ele>979</ele>
        <time>2019-08-11T08:10:42.000Z</time>
      </trkpt>
      <trkpt lat="45.05736" lon="4.41281">
        <ele>978</ele>
        <time>2019-08-11T08:10:43.000Z</time>
      </trkpt>
      <trkpt lat="45.05739" lon="4.41281">
        <ele>977.20001220703</ele>
        <time>2019-08-11T08:10:44.000Z</time>
      </trkpt>
      <trkpt lat="45.05742" lon="4.4128">
        <ele>976.79998779297</ele>
        <time>2019-08-11T08:10:45.000Z</time>
      </trkpt>
      <trkpt lat="45.05744" lon="4.41278">
        <ele>976.20001220703</ele>
        <time>2019-08-11T08:10:46.000Z</time>
      </trkpt>
      <trkpt lat="45.0575" lon="4.41275">
        <ele>975.40002441406</ele>
        <time>2019-08-11T08:10:48.000Z</time>
      </trkpt>
      <trkpt lat="45.0576" lon="4.4127">
        <ele>971.59997558594</ele>
        <time>2019-08-11T08:10:52.000Z</time>
      </trkpt>
      <trkpt lat="45.05765" lon="4.41267">
        <ele>970.20001220703</ele>
        <time>2019-08-11T08:10:53.000Z</time>
      </trkpt>
      <trkpt lat="45.05776" lon="4.41258">
        <ele>967.20001220703</ele>
        <time>2019-08-11T08:10:56.000Z</time>
      </trkpt>
      <trkpt lat="45.05787" lon="4.41247">
        <ele>964.20001220703</ele>
        <time>2019-08-11T08:11:01.000Z</time>
      </trkpt>
      <trkpt lat="45.05797" lon="4.4124">
        <ele>961</ele>
        <time>2019-08-11T08:11:05.000Z</time>
      </trkpt>
      <trkpt lat="45.05811" lon="4.41226">
        <ele>957.40002441406</ele>
        <time>2019-08-11T08:11:10.000Z</time>
      </trkpt>
      <trkpt lat="45.05821" lon="4.41215">
        <ele>954</ele>
        <time>2019-08-11T08:11:14.000Z</time>
      </trkpt>
      <trkpt lat="45.05833" lon="4.41199">
        <ele>950.79998779297</ele>
        <time>2019-08-11T08:11:19.000Z</time>
      </trkpt>
      <trkpt lat="45.05843" lon="4.4118">
        <ele>947.59997558594</ele>
        <time>2019-08-11T08:11:23.000Z</time>
      </trkpt>
      <trkpt lat="45.05854" lon="4.41165">
        <ele>944.20001220703</ele>
        <time>2019-08-11T08:11:27.000Z</time>
      </trkpt>
      <trkpt lat="45.05867" lon="4.41144">
        <ele>940.79998779297</ele>
        <time>2019-08-11T08:11:32.000Z</time>
      </trkpt>
      <trkpt lat="45.05881" lon="4.41135">
        <ele>939.59997558594</ele>
        <time>2019-08-11T08:11:37.000Z</time>
      </trkpt>
      <trkpt lat="45.05885" lon="4.41137">
        <ele>939.40002441406</ele>
        <time>2019-08-11T08:11:38.000Z</time>
      </trkpt>
      <trkpt lat="45.05888" lon="4.41138">
        <ele>939</ele>
        <time>2019-08-11T08:11:39.000Z</time>
      </trkpt>
      <trkpt lat="45.05896" lon="4.4114">
        <ele>937</ele>
        <time>2019-08-11T08:11:41.000Z</time>
      </trkpt>
      <trkpt lat="45.05907" lon="4.41144">
        <ele>934.40002441406</ele>
        <time>2019-08-11T08:11:43.000Z</time>
      </trkpt>
      <trkpt lat="45.05913" lon="4.41149">
        <ele>933</ele>
        <time>2019-08-11T08:11:44.000Z</time>
      </trkpt>
      <trkpt lat="45.05927" lon="4.41161">
        <ele>929.79998779297</ele>
        <time>2019-08-11T08:11:46.000Z</time>
      </trkpt>
      <trkpt lat="45.05936" lon="4.41169">
        <ele>928.40002441406</ele>
        <time>2019-08-11T08:11:47.000Z</time>
      </trkpt>
      <trkpt lat="45.05957" lon="4.41193">
        <ele>926.20001220703</ele>
        <time>2019-08-11T08:11:50.000Z</time>
      </trkpt>
      <trkpt lat="45.05962" lon="4.412">
        <ele>926</ele>
        <time>2019-08-11T08:11:51.000Z</time>
      </trkpt>
      <trkpt lat="45.05967" lon="4.41208">
        <ele>925.20001220703</ele>
        <time>2019-08-11T08:11:52.000Z</time>
      </trkpt>
      <trkpt lat="45.05971" lon="4.41217">
        <ele>924.20001220703</ele>
        <time>2019-08-11T08:11:53.000Z</time>
      </trkpt>
      <trkpt lat="45.0598" lon="4.41236">
        <ele>920.79998779297</ele>
        <time>2019-08-11T08:11:55.000Z</time>
      </trkpt>
      <trkpt lat="45.05991" lon="4.41268">
        <ele>916.40002441406</ele>
        <time>2019-08-11T08:11:58.000Z</time>
      </trkpt>
      <trkpt lat="45.06002" lon="4.41304">
        <ele>914.20001220703</ele>
        <time>2019-08-11T08:12:01.000Z</time>
      </trkpt>
      <trkpt lat="45.06024" lon="4.41359">
        <ele>913.59997558594</ele>
        <time>2019-08-11T08:12:06.000Z</time>
      </trkpt>
      <trkpt lat="45.06032" lon="4.41388">
        <ele>916</ele>
        <time>2019-08-11T08:12:09.000Z</time>
      </trkpt>
      <trkpt lat="45.06032" lon="4.41395">
        <ele>916.40002441406</ele>
        <time>2019-08-11T08:12:10.000Z</time>
      </trkpt>
      <trkpt lat="45.06033" lon="4.41402">
        <ele>917.59997558594</ele>
        <time>2019-08-11T08:12:11.000Z</time>
      </trkpt>
      <trkpt lat="45.06035" lon="4.41407">
        <ele>918.59997558594</ele>
        <time>2019-08-11T08:12:12.000Z</time>
      </trkpt>
      <trkpt lat="45.06036" lon="4.41412">
        <ele>919.59997558594</ele>
        <time>2019-08-11T08:12:13.000Z</time>
      </trkpt>
      <trkpt lat="45.06037" lon="4.41417">
        <ele>920.59997558594</ele>
        <time>2019-08-11T08:12:14.000Z</time>
      </trkpt>
      <trkpt lat="45.06039" lon="4.41429">
        <ele>922.40002441406</ele>
        <time>2019-08-11T08:12:17.000Z</time>
      </trkpt>
      <trkpt lat="45.06039" lon="4.41432">
        <ele>922.59997558594</ele>
        <time>2019-08-11T08:12:18.000Z</time>
      </trkpt>
      <trkpt lat="45.06041" lon="4.41447">
        <ele>922.59997558594</ele>
        <time>2019-08-11T08:12:22.000Z</time>
      </trkpt>
      <trkpt lat="45.06044" lon="4.41458">
        <ele>922.59997558594</ele>
        <time>2019-08-11T08:12:24.000Z</time>
      </trkpt>
      <trkpt lat="45.06045" lon="4.41463">
        <ele>922.40002441406</ele>
        <time>2019-08-11T08:12:25.000Z</time>
      </trkpt>
      <trkpt lat="45.06046" lon="4.41469">
        <ele>921.79998779297</ele>
        <time>2019-08-11T08:12:26.000Z</time>
      </trkpt>
      <trkpt lat="45.06048" lon="4.41475">
        <ele>921.20001220703</ele>
        <time>2019-08-11T08:12:27.000Z</time>
      </trkpt>
      <trkpt lat="45.06049" lon="4.41482">
        <ele>921</ele>
        <time>2019-08-11T08:12:28.000Z</time>
      </trkpt>
      <trkpt lat="45.06053" lon="4.41496">
        <ele>920.40002441406</ele>
        <time>2019-08-11T08:12:30.000Z</time>
      </trkpt>
      <trkpt lat="45.06069" lon="4.41542">
        <ele>917.79998779297</ele>
        <time>2019-08-11T08:12:36.000Z</time>
      </trkpt>
      <trkpt lat="45.06072" lon="4.4155">
        <ele>917.59997558594</ele>
        <time>2019-08-11T08:12:37.000Z</time>
      </trkpt>
      <trkpt lat="45.06106" lon="4.41624">
        <ele>916</ele>
        <time>2019-08-11T08:12:47.000Z</time>
      </trkpt>
      <trkpt lat="45.06146" lon="4.41691">
        <ele>914.40002441406</ele>
        <time>2019-08-11T08:12:57.000Z</time>
      </trkpt>
      <trkpt lat="45.06175" lon="4.41721">
        <ele>910.40002441406</ele>
        <time>2019-08-11T08:13:02.000Z</time>
      </trkpt>
      <trkpt lat="45.06194" lon="4.41745">
        <ele>907.59997558594</ele>
        <time>2019-08-11T08:13:05.000Z</time>
      </trkpt>
      <trkpt lat="45.06201" lon="4.41754">
        <ele>907.40002441406</ele>
        <time>2019-08-11T08:13:06.000Z</time>
      </trkpt>
      <trkpt lat="45.0624" lon="4.41823">
        <ele>904.20001220703</ele>
        <time>2019-08-11T08:13:14.000Z</time>
      </trkpt>
      <trkpt lat="45.06271" lon="4.41879">
        <ele>902.20001220703</ele>
        <time>2019-08-11T08:13:20.000Z</time>
      </trkpt>
      <trkpt lat="45.06313" lon="4.41944">
        <ele>902.79998779297</ele>
        <time>2019-08-11T08:13:29.000Z</time>
      </trkpt>
      <trkpt lat="45.06322" lon="4.41955">
        <ele>903.40002441406</ele>
        <time>2019-08-11T08:13:31.000Z</time>
      </trkpt>
      <trkpt lat="45.06335" lon="4.41966">
        <ele>903.59997558594</ele>
        <time>2019-08-11T08:13:34.000Z</time>
      </trkpt>
      <trkpt lat="45.06338" lon="4.4197">
        <ele>903.79998779297</ele>
        <time>2019-08-11T08:13:35.000Z</time>
      </trkpt>
      <trkpt lat="45.06342" lon="4.41974">
        <ele>904</ele>
        <time>2019-08-11T08:13:36.000Z</time>
      </trkpt>
      <trkpt lat="45.06345" lon="4.41978">
        <ele>903.79998779297</ele>
        <time>2019-08-11T08:13:37.000Z</time>
      </trkpt>
      <trkpt lat="45.06347" lon="4.41983">
        <ele>903.40002441406</ele>
        <time>2019-08-11T08:13:38.000Z</time>
      </trkpt>
      <trkpt lat="45.06357" lon="4.41998">
        <ele>902</ele>
        <time>2019-08-11T08:13:41.000Z</time>
      </trkpt>
      <trkpt lat="45.06373" lon="4.42022">
        <ele>900.59997558594</ele>
        <time>2019-08-11T08:13:45.000Z</time>
      </trkpt>
      <trkpt lat="45.06376" lon="4.42029">
        <ele>899.79998779297</ele>
        <time>2019-08-11T08:13:46.000Z</time>
      </trkpt>
      <trkpt lat="45.06379" lon="4.42037">
        <ele>898.79998779297</ele>
        <time>2019-08-11T08:13:47.000Z</time>
      </trkpt>
      <trkpt lat="45.06382" lon="4.42046">
        <ele>897.79998779297</ele>
        <time>2019-08-11T08:13:48.000Z</time>
      </trkpt>
      <trkpt lat="45.06385" lon="4.42055">
        <ele>896.20001220703</ele>
        <time>2019-08-11T08:13:49.000Z</time>
      </trkpt>
      <trkpt lat="45.06391" lon="4.42076">
        <ele>893.79998779297</ele>
        <time>2019-08-11T08:13:51.000Z</time>
      </trkpt>
      <trkpt lat="45.06393" lon="4.42087">
        <ele>893.20001220703</ele>
        <time>2019-08-11T08:13:52.000Z</time>
      </trkpt>
      <trkpt lat="45.06394" lon="4.42112">
        <ele>890.79998779297</ele>
        <time>2019-08-11T08:13:54.000Z</time>
      </trkpt>
      <trkpt lat="45.06395" lon="4.42133">
        <ele>889.79998779297</ele>
        <time>2019-08-11T08:13:56.000Z</time>
      </trkpt>
      <trkpt lat="45.06394" lon="4.4214">
        <ele>889.79998779297</ele>
        <time>2019-08-11T08:13:57.000Z</time>
      </trkpt>
      <trkpt lat="45.06392" lon="4.42146">
        <ele>889.79998779297</ele>
        <time>2019-08-11T08:13:58.000Z</time>
      </trkpt>
      <trkpt lat="45.06389" lon="4.42151">
        <ele>888.59997558594</ele>
        <time>2019-08-11T08:13:59.000Z</time>
      </trkpt>
      <trkpt lat="45.06386" lon="4.42156">
        <ele>887.20001220703</ele>
        <time>2019-08-11T08:14:00.000Z</time>
      </trkpt>
      <trkpt lat="45.06384" lon="4.42162">
        <ele>886.20001220703</ele>
        <time>2019-08-11T08:14:01.000Z</time>
      </trkpt>
      <trkpt lat="45.06385" lon="4.42168">
        <ele>885.40002441406</ele>
        <time>2019-08-11T08:14:02.000Z</time>
      </trkpt>
      <trkpt lat="45.06388" lon="4.42173">
        <ele>885.20001220703</ele>
        <time>2019-08-11T08:14:03.000Z</time>
      </trkpt>
      <trkpt lat="45.06392" lon="4.42176">
        <ele>884.79998779297</ele>
        <time>2019-08-11T08:14:04.000Z</time>
      </trkpt>
      <trkpt lat="45.06397" lon="4.42175">
        <ele>884.40002441406</ele>
        <time>2019-08-11T08:14:05.000Z</time>
      </trkpt>
      <trkpt lat="45.06401" lon="4.42172">
        <ele>884.40002441406</ele>
        <time>2019-08-11T08:14:06.000Z</time>
      </trkpt>
      <trkpt lat="45.06406" lon="4.42168">
        <ele>884.20001220703</ele>
        <time>2019-08-11T08:14:07.000Z</time>
      </trkpt>
      <trkpt lat="45.0641" lon="4.42163">
        <ele>883.59997558594</ele>
        <time>2019-08-11T08:14:08.000Z</time>
      </trkpt>
      <trkpt lat="45.06414" lon="4.42157">
        <ele>883</ele>
        <time>2019-08-11T08:14:09.000Z</time>
      </trkpt>
      <trkpt lat="45.06418" lon="4.4215">
        <ele>882.40002441406</ele>
        <time>2019-08-11T08:14:10.000Z</time>
      </trkpt>
      <trkpt lat="45.06424" lon="4.42133">
        <ele>880.40002441406</ele>
        <time>2019-08-11T08:14:12.000Z</time>
      </trkpt>
      <trkpt lat="45.06427" lon="4.42122">
        <ele>880</ele>
        <time>2019-08-11T08:14:13.000Z</time>
      </trkpt>
      <trkpt lat="45.06434" lon="4.42093">
        <ele>878.79998779297</ele>
        <time>2019-08-11T08:14:16.000Z</time>
      </trkpt>
      <trkpt lat="45.0644" lon="4.42059">
        <ele>879.40002441406</ele>
        <time>2019-08-11T08:14:21.000Z</time>
      </trkpt>
      <trkpt lat="45.06446" lon="4.42011">
        <ele>876.59997558594</ele>
        <time>2019-08-11T08:14:32.000Z</time>
      </trkpt>
      <trkpt lat="45.06447" lon="4.42004">
        <ele>876.20001220703</ele>
        <time>2019-08-11T08:14:33.000Z</time>
      </trkpt>
      <trkpt lat="45.06447" lon="4.41996">
        <ele>875.79998779297</ele>
        <time>2019-08-11T08:14:34.000Z</time>
      </trkpt>
      <trkpt lat="45.06447" lon="4.41988">
        <ele>875.20001220703</ele>
        <time>2019-08-11T08:14:35.000Z</time>
      </trkpt>
      <trkpt lat="45.06446" lon="4.41979">
        <ele>874.59997558594</ele>
        <time>2019-08-11T08:14:36.000Z</time>
      </trkpt>
      <trkpt lat="45.06444" lon="4.41968">
        <ele>873.40002441406</ele>
        <time>2019-08-11T08:14:37.000Z</time>
      </trkpt>
      <trkpt lat="45.06441" lon="4.41957">
        <ele>872.20001220703</ele>
        <time>2019-08-11T08:14:38.000Z</time>
      </trkpt>
      <trkpt lat="45.06429" lon="4.41926">
        <ele>868.20001220703</ele>
        <time>2019-08-11T08:14:41.000Z</time>
      </trkpt>
      <trkpt lat="45.06422" lon="4.41916">
        <ele>866.59997558594</ele>
        <time>2019-08-11T08:14:42.000Z</time>
      </trkpt>
      <trkpt lat="45.06403" lon="4.41884">
        <ele>863.40002441406</ele>
        <time>2019-08-11T08:14:45.000Z</time>
      </trkpt>
      <trkpt lat="45.06398" lon="4.41871">
        <ele>863.20001220703</ele>
        <time>2019-08-11T08:14:46.000Z</time>
      </trkpt>
      <trkpt lat="45.06394" lon="4.41858">
        <ele>862.40002441406</ele>
        <time>2019-08-11T08:14:47.000Z</time>
      </trkpt>
      <trkpt lat="45.06372" lon="4.41798">
        <ele>859</ele>
        <time>2019-08-11T08:14:52.000Z</time>
      </trkpt>
      <trkpt lat="45.06353" lon="4.41754">
        <ele>855.20001220703</ele>
        <time>2019-08-11T08:14:56.000Z</time>
      </trkpt>
      <trkpt lat="45.0635" lon="4.41741">
        <ele>853.79998779297</ele>
        <time>2019-08-11T08:14:57.000Z</time>
      </trkpt>
      <trkpt lat="45.06345" lon="4.41728">
        <ele>851.79998779297</ele>
        <time>2019-08-11T08:14:58.000Z</time>
      </trkpt>
      <trkpt lat="45.06338" lon="4.41701">
        <ele>848</ele>
        <time>2019-08-11T08:15:00.000Z</time>
      </trkpt>
      <trkpt lat="45.06324" lon="4.41662">
        <ele>846.20001220703</ele>
        <time>2019-08-11T08:15:03.000Z</time>
      </trkpt>
      <trkpt lat="45.0631" lon="4.41608">
        <ele>843.20001220703</ele>
        <time>2019-08-11T08:15:07.000Z</time>
      </trkpt>
      <trkpt lat="45.06308" lon="4.41593">
        <ele>840.79998779297</ele>
        <time>2019-08-11T08:15:08.000Z</time>
      </trkpt>
      <trkpt lat="45.06304" lon="4.41578">
        <ele>838.79998779297</ele>
        <time>2019-08-11T08:15:09.000Z</time>
      </trkpt>
      <trkpt lat="45.06297" lon="4.41549">
        <ele>835.40002441406</ele>
        <time>2019-08-11T08:15:11.000Z</time>
      </trkpt>
      <trkpt lat="45.06292" lon="4.41536">
        <ele>834.40002441406</ele>
        <time>2019-08-11T08:15:12.000Z</time>
      </trkpt>
      <trkpt lat="45.06286" lon="4.41523">
        <ele>833.59997558594</ele>
        <time>2019-08-11T08:15:13.000Z</time>
      </trkpt>
      <trkpt lat="45.0627" lon="4.41485">
        <ele>829.40002441406</ele>
        <time>2019-08-11T08:15:16.000Z</time>
      </trkpt>
      <trkpt lat="45.06254" lon="4.41446">
        <ele>826.20001220703</ele>
        <time>2019-08-11T08:15:19.000Z</time>
      </trkpt>
      <trkpt lat="45.06248" lon="4.41437">
        <ele>826.40002441406</ele>
        <time>2019-08-11T08:15:20.000Z</time>
      </trkpt>
      <trkpt lat="45.06241" lon="4.41429">
        <ele>827</ele>
        <time>2019-08-11T08:15:21.000Z</time>
      </trkpt>
      <trkpt lat="45.06235" lon="4.41424">
        <ele>827.79998779297</ele>
        <time>2019-08-11T08:15:22.000Z</time>
      </trkpt>
      <trkpt lat="45.0623" lon="4.41419">
        <ele>828.40002441406</ele>
        <time>2019-08-11T08:15:23.000Z</time>
      </trkpt>
      <trkpt lat="45.06224" lon="4.41414">
        <ele>829.20001220703</ele>
        <time>2019-08-11T08:15:24.000Z</time>
      </trkpt>
      <trkpt lat="45.06208" lon="4.41397">
        <ele>832.20001220703</ele>
        <time>2019-08-11T08:15:28.000Z</time>
      </trkpt>
      <trkpt lat="45.06205" lon="4.41393">
        <ele>833</ele>
        <time>2019-08-11T08:15:29.000Z</time>
      </trkpt>
      <trkpt lat="45.06202" lon="4.41391">
        <ele>833.79998779297</ele>
        <time>2019-08-11T08:15:30.000Z</time>
      </trkpt>
      <trkpt lat="45.06198" lon="4.41386">
        <ele>834.79998779297</ele>
        <time>2019-08-11T08:15:32.000Z</time>
      </trkpt>
      <trkpt lat="45.06196" lon="4.41369">
        <ele>835.20001220703</ele>
        <time>2019-08-11T08:15:36.000Z</time>
      </trkpt>
      <trkpt lat="45.06197" lon="4.41366">
        <ele>835.20001220703</ele>
        <time>2019-08-11T08:15:37.000Z</time>
      </trkpt>
      <trkpt lat="45.06198" lon="4.41363">
        <ele>835</ele>
        <time>2019-08-11T08:15:38.000Z</time>
      </trkpt>
      <trkpt lat="45.062" lon="4.4136">
        <ele>835</ele>
        <time>2019-08-11T08:15:39.000Z</time>
      </trkpt>
      <trkpt lat="45.06201" lon="4.41358">
        <ele>835.20001220703</ele>
        <time>2019-08-11T08:15:40.000Z</time>
      </trkpt>
      <trkpt lat="45.06202" lon="4.41347">
        <ele>835.20001220703</ele>
        <time>2019-08-11T08:15:44.000Z</time>
      </trkpt>
      <trkpt lat="45.06206" lon="4.41346">
        <ele>835.40002441406</ele>
        <time>2019-08-11T08:15:46.000Z</time>
      </trkpt>
      <trkpt lat="45.0621" lon="4.41347">
        <ele>835.59997558594</ele>
        <time>2019-08-11T08:15:47.000Z</time>
      </trkpt>
      <trkpt lat="45.0623" lon="4.41356">
        <ele>836.20001220703</ele>
        <time>2019-08-11T08:15:54.000Z</time>
      </trkpt>
      <trkpt lat="45.06243" lon="4.41367">
        <ele>836.79998779297</ele>
        <time>2019-08-11T08:15:58.000Z</time>
      </trkpt>
      <trkpt lat="45.06252" lon="4.41372">
        <ele>837</ele>
        <time>2019-08-11T08:16:01.000Z</time>
      </trkpt>
      <trkpt lat="45.06261" lon="4.41379">
        <ele>837.59997558594</ele>
        <time>2019-08-11T08:16:05.000Z</time>
      </trkpt>
      <trkpt lat="45.06271" lon="4.41386">
        <ele>837.79998779297</ele>
        <time>2019-08-11T08:16:10.000Z</time>
      </trkpt>
      <trkpt lat="45.06296" lon="4.41396">
        <ele>838.79998779297</ele>
        <time>2019-08-11T08:16:20.000Z</time>
      </trkpt>
      <trkpt lat="45.06329" lon="4.41415">
        <ele>840.20001220703</ele>
        <time>2019-08-11T08:16:34.000Z</time>
      </trkpt>
      <trkpt lat="45.06355" lon="4.41442">
        <ele>841.79998779297</ele>
        <time>2019-08-11T08:16:47.000Z</time>
      </trkpt>
      <trkpt lat="45.06359" lon="4.41445">
        <ele>842</ele>
        <time>2019-08-11T08:16:49.000Z</time>
      </trkpt>
      <trkpt lat="45.06364" lon="4.41448">
        <ele>842.40002441406</ele>
        <time>2019-08-11T08:16:51.000Z</time>
      </trkpt>
      <trkpt lat="45.06372" lon="4.41456">
        <ele>842.79998779297</ele>
        <time>2019-08-11T08:16:55.000Z</time>
      </trkpt>
      <trkpt lat="45.06374" lon="4.41458">
        <ele>843</ele>
        <time>2019-08-11T08:16:56.000Z</time>
      </trkpt>
      <trkpt lat="45.06416" lon="4.41509">
        <ele>845.79998779297</ele>
        <time>2019-08-11T08:17:18.000Z</time>
      </trkpt>
      <trkpt lat="45.06444" lon="4.41539">
        <ele>847.20001220703</ele>
        <time>2019-08-11T08:17:33.000Z</time>
      </trkpt>
      <trkpt lat="45.06472" lon="4.41518">
        <ele>848.79998779297</ele>
        <time>2019-08-11T08:17:47.000Z</time>
      </trkpt>
      <trkpt lat="45.06502" lon="4.41457">
        <ele>851.79998779297</ele>
        <time>2019-08-11T08:18:12.000Z</time>
      </trkpt>
      <trkpt lat="45.06513" lon="4.41375">
        <ele>855</ele>
        <time>2019-08-11T08:18:37.000Z</time>
      </trkpt>
      <trkpt lat="45.06512" lon="4.41373">
        <ele>855</ele>
        <time>2019-08-11T08:18:38.000Z</time>
      </trkpt>
      <trkpt lat="45.06513" lon="4.41369">
        <ele>855</ele>
        <time>2019-08-11T08:18:39.000Z</time>
      </trkpt>
      <trkpt lat="45.06513" lon="4.41366">
        <ele>855.20001220703</ele>
        <time>2019-08-11T08:18:40.000Z</time>
      </trkpt>
      <trkpt lat="45.06514" lon="4.41363">
        <ele>855.20001220703</ele>
        <time>2019-08-11T08:18:41.000Z</time>
      </trkpt>
      <trkpt lat="45.06515" lon="4.41359">
        <ele>855.40002441406</ele>
        <time>2019-08-11T08:18:42.000Z</time>
      </trkpt>
      <trkpt lat="45.06516" lon="4.41355">
        <ele>855.59997558594</ele>
        <time>2019-08-11T08:18:43.000Z</time>
      </trkpt>
      <trkpt lat="45.06558" lon="4.41287">
        <ele>858.59997558594</ele>
        <time>2019-08-11T08:19:09.000Z</time>
      </trkpt>
      <trkpt lat="45.06563" lon="4.41283">
        <ele>859</ele>
        <time>2019-08-11T08:19:13.000Z</time>
      </trkpt>
      <trkpt lat="45.06564" lon="4.41283">
        <ele>859</ele>
        <time>2019-08-11T08:19:14.000Z</time>
      </trkpt>
      <trkpt lat="45.06565" lon="4.41282">
        <ele>859</ele>
        <time>2019-08-11T08:19:15.000Z</time>
      </trkpt>
      <trkpt lat="45.06564" lon="4.41281">
        <ele>859.20001220703</ele>
        <time>2019-08-11T08:19:23.000Z</time>
      </trkpt>
      <trkpt lat="45.06569" lon="4.41279">
        <ele>859.20001220703</ele>
        <time>2019-08-11T08:19:29.000Z</time>
      </trkpt>
      <trkpt lat="45.0657" lon="4.41277">
        <ele>859.20001220703</ele>
        <time>2019-08-11T08:19:31.000Z</time>
      </trkpt>
      <trkpt lat="45.06571" lon="4.41276">
        <ele>859.20001220703</ele>
        <time>2019-08-11T08:19:32.000Z</time>
      </trkpt>
      <trkpt lat="45.06575" lon="4.41275">
        <ele>859</ele>
        <time>2019-08-11T08:19:41.000Z</time>
      </trkpt>
      <trkpt lat="45.06577" lon="4.41282">
        <ele>859.20001220703</ele>
        <time>2019-08-11T08:20:00.000Z</time>
      </trkpt>
      <trkpt lat="45.06579" lon="4.41284">
        <ele>859.20001220703</ele>
        <time>2019-08-11T08:20:01.000Z</time>
      </trkpt>
      <trkpt lat="45.0658" lon="4.41286">
        <ele>859.20001220703</ele>
        <time>2019-08-11T08:20:02.000Z</time>
      </trkpt>
      <trkpt lat="45.06581" lon="4.41288">
        <ele>859.40002441406</ele>
        <time>2019-08-11T08:20:03.000Z</time>
      </trkpt>
      <trkpt lat="45.06583" lon="4.4129">
        <ele>859.40002441406</ele>
        <time>2019-08-11T08:20:04.000Z</time>
      </trkpt>
      <trkpt lat="45.06584" lon="4.41294">
        <ele>859.40002441406</ele>
        <time>2019-08-11T08:20:05.000Z</time>
      </trkpt>
      <trkpt lat="45.06585" lon="4.41297">
        <ele>859.59997558594</ele>
        <time>2019-08-11T08:20:06.000Z</time>
      </trkpt>
      <trkpt lat="45.06618" lon="4.41346">
        <ele>862.59997558594</ele>
        <time>2019-08-11T08:20:29.000Z</time>
      </trkpt>
      <trkpt lat="45.06631" lon="4.41353">
        <ele>863.20001220703</ele>
        <time>2019-08-11T08:20:35.000Z</time>
      </trkpt>
      <trkpt lat="45.06637" lon="4.41366">
        <ele>864.20001220703</ele>
        <time>2019-08-11T08:20:39.000Z</time>
      </trkpt>
      <trkpt lat="45.06637" lon="4.41382">
        <ele>864.79998779297</ele>
        <time>2019-08-11T08:20:44.000Z</time>
      </trkpt>
      <trkpt lat="45.06638" lon="4.41403">
        <ele>865.59997558594</ele>
        <time>2019-08-11T08:20:50.000Z</time>
      </trkpt>
      <trkpt lat="45.06641" lon="4.41433">
        <ele>866.59997558594</ele>
        <time>2019-08-11T08:20:58.000Z</time>
      </trkpt>
      <trkpt lat="45.06645" lon="4.41466">
        <ele>867.79998779297</ele>
        <time>2019-08-11T08:21:07.000Z</time>
      </trkpt>
      <trkpt lat="45.06672" lon="4.41488">
        <ele>869.59997558594</ele>
        <time>2019-08-11T08:21:21.000Z</time>
      </trkpt>
      <trkpt lat="45.06695" lon="4.41486">
        <ele>871.40002441406</ele>
        <time>2019-08-11T08:21:31.000Z</time>
      </trkpt>
      <trkpt lat="45.06708" lon="4.41502">
        <ele>872.20001220703</ele>
        <time>2019-08-11T08:21:38.000Z</time>
      </trkpt>
      <trkpt lat="45.0671" lon="4.41508">
        <ele>872.40002441406</ele>
        <time>2019-08-11T08:21:40.000Z</time>
      </trkpt>
      <trkpt lat="45.06756" lon="4.41548">
        <ele>875.40002441406</ele>
        <time>2019-08-11T08:22:04.000Z</time>
      </trkpt>
      <trkpt lat="45.06805" lon="4.41581">
        <ele>878.59997558594</ele>
        <time>2019-08-11T08:22:28.000Z</time>
      </trkpt>
      <trkpt lat="45.06834" lon="4.41653">
        <ele>881.79998779297</ele>
        <time>2019-08-11T08:22:55.000Z</time>
      </trkpt>
      <trkpt lat="45.06863" lon="4.41728">
        <ele>884.79998779297</ele>
        <time>2019-08-11T08:23:19.000Z</time>
      </trkpt>
      <trkpt lat="45.06886" lon="4.41744">
        <ele>886.79998779297</ele>
        <time>2019-08-11T08:23:29.000Z</time>
      </trkpt>
      <trkpt lat="45.06897" lon="4.41756">
        <ele>888</ele>
        <time>2019-08-11T08:23:37.000Z</time>
      </trkpt>
      <trkpt lat="45.06926" lon="4.41836">
        <ele>891.20001220703</ele>
        <time>2019-08-11T08:24:01.000Z</time>
      </trkpt>
      <trkpt lat="45.06912" lon="4.41871">
        <ele>891.79998779297</ele>
        <time>2019-08-11T08:24:11.000Z</time>
      </trkpt>
      <trkpt lat="45.06912" lon="4.41925">
        <ele>893.79998779297</ele>
        <time>2019-08-11T08:24:26.000Z</time>
      </trkpt>
      <trkpt lat="45.06925" lon="4.41972">
        <ele>896.79998779297</ele>
        <time>2019-08-11T08:24:41.000Z</time>
      </trkpt>
      <trkpt lat="45.06937" lon="4.42001">
        <ele>898.40002441406</ele>
        <time>2019-08-11T08:24:51.000Z</time>
      </trkpt>
      <trkpt lat="45.06955" lon="4.42076">
        <ele>901.59997558594</ele>
        <time>2019-08-11T08:25:13.000Z</time>
      </trkpt>
      <trkpt lat="45.06953" lon="4.42153">
        <ele>904.59997558594</ele>
        <time>2019-08-11T08:25:36.000Z</time>
      </trkpt>
      <trkpt lat="45.06967" lon="4.42184">
        <ele>905.79998779297</ele>
        <time>2019-08-11T08:25:46.000Z</time>
      </trkpt>
      <trkpt lat="45.07007" lon="4.42238">
        <ele>908.40002441406</ele>
        <time>2019-08-11T08:26:08.000Z</time>
      </trkpt>
      <trkpt lat="45.07056" lon="4.42229">
        <ele>911.40002441406</ele>
        <time>2019-08-11T08:26:30.000Z</time>
      </trkpt>
      <trkpt lat="45.07061" lon="4.42223">
        <ele>911.79998779297</ele>
        <time>2019-08-11T08:26:33.000Z</time>
      </trkpt>
      <trkpt lat="45.07063" lon="4.42225">
        <ele>912</ele>
        <time>2019-08-11T08:26:34.000Z</time>
      </trkpt>
      <trkpt lat="45.07064" lon="4.42228">
        <ele>912.20001220703</ele>
        <time>2019-08-11T08:26:35.000Z</time>
      </trkpt>
      <trkpt lat="45.07064" lon="4.42233">
        <ele>911.79998779297</ele>
        <time>2019-08-11T08:26:36.000Z</time>
      </trkpt>
      <trkpt lat="45.07065" lon="4.42238">
        <ele>911.20001220703</ele>
        <time>2019-08-11T08:26:37.000Z</time>
      </trkpt>
      <trkpt lat="45.07066" lon="4.42266">
        <ele>908</ele>
        <time>2019-08-11T08:26:41.000Z</time>
      </trkpt>
      <trkpt lat="45.07068" lon="4.42274">
        <ele>907.40002441406</ele>
        <time>2019-08-11T08:26:42.000Z</time>
      </trkpt>
      <trkpt lat="45.07072" lon="4.42293">
        <ele>905.40002441406</ele>
        <time>2019-08-11T08:26:44.000Z</time>
      </trkpt>
      <trkpt lat="45.07075" lon="4.42301">
        <ele>904.59997558594</ele>
        <time>2019-08-11T08:26:45.000Z</time>
      </trkpt>
      <trkpt lat="45.07079" lon="4.4231">
        <ele>903.59997558594</ele>
        <time>2019-08-11T08:26:46.000Z</time>
      </trkpt>
      <trkpt lat="45.0709" lon="4.42326">
        <ele>901.40002441406</ele>
        <time>2019-08-11T08:26:48.000Z</time>
      </trkpt>
      <trkpt lat="45.07106" lon="4.42354">
        <ele>897.79998779297</ele>
        <time>2019-08-11T08:26:51.000Z</time>
      </trkpt>
      <trkpt lat="45.0711" lon="4.42363">
        <ele>897</ele>
        <time>2019-08-11T08:26:52.000Z</time>
      </trkpt>
      <trkpt lat="45.07117" lon="4.42377">
        <ele>896.20001220703</ele>
        <time>2019-08-11T08:26:54.000Z</time>
      </trkpt>
      <trkpt lat="45.07118" lon="4.42384">
        <ele>895.79998779297</ele>
        <time>2019-08-11T08:26:55.000Z</time>
      </trkpt>
      <trkpt lat="45.0712" lon="4.42389">
        <ele>895.20001220703</ele>
        <time>2019-08-11T08:26:56.000Z</time>
      </trkpt>
      <trkpt lat="45.07122" lon="4.42392">
        <ele>894.79998779297</ele>
        <time>2019-08-11T08:26:57.000Z</time>
      </trkpt>
      <trkpt lat="45.07125" lon="4.42392">
        <ele>894.59997558594</ele>
        <time>2019-08-11T08:26:58.000Z</time>
      </trkpt>
      <trkpt lat="45.07128" lon="4.42391">
        <ele>894.59997558594</ele>
        <time>2019-08-11T08:26:59.000Z</time>
      </trkpt>
      <trkpt lat="45.07131" lon="4.42389">
        <ele>894.20001220703</ele>
        <time>2019-08-11T08:27:00.000Z</time>
      </trkpt>
      <trkpt lat="45.07134" lon="4.42386">
        <ele>894</ele>
        <time>2019-08-11T08:27:01.000Z</time>
      </trkpt>
      <trkpt lat="45.07137" lon="4.42383">
        <ele>894</ele>
        <time>2019-08-11T08:27:02.000Z</time>
      </trkpt>
      <trkpt lat="45.0714" lon="4.42379">
        <ele>894</ele>
        <time>2019-08-11T08:27:03.000Z</time>
      </trkpt>
      <trkpt lat="45.07159" lon="4.42352">
        <ele>891.40002441406</ele>
        <time>2019-08-11T08:27:10.000Z</time>
      </trkpt>
      <trkpt lat="45.07173" lon="4.42327">
        <ele>889.59997558594</ele>
        <time>2019-08-11T08:27:15.000Z</time>
      </trkpt>
      <trkpt lat="45.07175" lon="4.42321">
        <ele>889.20001220703</ele>
        <time>2019-08-11T08:27:16.000Z</time>
      </trkpt>
      <trkpt lat="45.07185" lon="4.42294">
        <ele>886</ele>
        <time>2019-08-11T08:27:20.000Z</time>
      </trkpt>
      <trkpt lat="45.07187" lon="4.42286">
        <ele>885.40002441406</ele>
        <time>2019-08-11T08:27:21.000Z</time>
      </trkpt>
      <trkpt lat="45.07189" lon="4.42279">
        <ele>884.79998779297</ele>
        <time>2019-08-11T08:27:22.000Z</time>
      </trkpt>
      <trkpt lat="45.07194" lon="4.42266">
        <ele>883.59997558594</ele>
        <time>2019-08-11T08:27:24.000Z</time>
      </trkpt>
      <trkpt lat="45.07204" lon="4.42237">
        <ele>880.59997558594</ele>
        <time>2019-08-11T08:27:29.000Z</time>
      </trkpt>
      <trkpt lat="45.07214" lon="4.42213">
        <ele>878.40002441406</ele>
        <time>2019-08-11T08:27:33.000Z</time>
      </trkpt>
      <trkpt lat="45.07222" lon="4.4218">
        <ele>875.20001220703</ele>
        <time>2019-08-11T08:27:39.000Z</time>
      </trkpt>
      <trkpt lat="45.07223" lon="4.42174">
        <ele>874.59997558594</ele>
        <time>2019-08-11T08:27:40.000Z</time>
      </trkpt>
      <trkpt lat="45.07229" lon="4.42147">
        <ele>871.59997558594</ele>
        <time>2019-08-11T08:27:45.000Z</time>
      </trkpt>
      <trkpt lat="45.07231" lon="4.4209">
        <ele>868</ele>
        <time>2019-08-11T08:27:53.000Z</time>
      </trkpt>
      <trkpt lat="45.07229" lon="4.4208">
        <ele>867.59997558594</ele>
        <time>2019-08-11T08:27:54.000Z</time>
      </trkpt>
      <trkpt lat="45.07227" lon="4.42072">
        <ele>867</ele>
        <time>2019-08-11T08:27:55.000Z</time>
      </trkpt>
      <trkpt lat="45.0722" lon="4.42038">
        <ele>863.59997558594</ele>
        <time>2019-08-11T08:28:02.000Z</time>
      </trkpt>
      <trkpt lat="45.07219" lon="4.4204">
        <ele>862.20001220703</ele>
        <time>2019-08-11T08:28:05.000Z</time>
      </trkpt>
      <trkpt lat="45.07221" lon="4.42045">
        <ele>861.59997558594</ele>
        <time>2019-08-11T08:28:06.000Z</time>
      </trkpt>
      <trkpt lat="45.07222" lon="4.42048">
        <ele>861</ele>
        <time>2019-08-11T08:28:07.000Z</time>
      </trkpt>
      <trkpt lat="45.07227" lon="4.42065">
        <ele>858.20001220703</ele>
        <time>2019-08-11T08:28:12.000Z</time>
      </trkpt>
      <trkpt lat="45.07231" lon="4.42091">
        <ele>855.59997558594</ele>
        <time>2019-08-11T08:28:18.000Z</time>
      </trkpt>
      <trkpt lat="45.07236" lon="4.42126">
        <ele>852.40002441406</ele>
        <time>2019-08-11T08:28:23.000Z</time>
      </trkpt>
      <trkpt lat="45.0724" lon="4.42166">
        <ele>849.40002441406</ele>
        <time>2019-08-11T08:28:29.000Z</time>
      </trkpt>
      <trkpt lat="45.07244" lon="4.42193">
        <ele>846</ele>
        <time>2019-08-11T08:28:32.000Z</time>
      </trkpt>
      <trkpt lat="45.07252" lon="4.42234">
        <ele>841.59997558594</ele>
        <time>2019-08-11T08:28:36.000Z</time>
      </trkpt>
      <trkpt lat="45.07258" lon="4.42255">
        <ele>838.20001220703</ele>
        <time>2019-08-11T08:28:38.000Z</time>
      </trkpt>
      <trkpt lat="45.0726" lon="4.4228">
        <ele>835.59997558594</ele>
        <time>2019-08-11T08:28:40.000Z</time>
      </trkpt>
      <trkpt lat="45.07271" lon="4.42328">
        <ele>833.79998779297</ele>
        <time>2019-08-11T08:28:45.000Z</time>
      </trkpt>
      <trkpt lat="45.0728" lon="4.42355">
        <ele>831.20001220703</ele>
        <time>2019-08-11T08:28:48.000Z</time>
      </trkpt>
      <trkpt lat="45.07282" lon="4.42365">
        <ele>830.40002441406</ele>
        <time>2019-08-11T08:28:49.000Z</time>
      </trkpt>
      <trkpt lat="45.07282" lon="4.42375">
        <ele>829.59997558594</ele>
        <time>2019-08-11T08:28:50.000Z</time>
      </trkpt>
      <trkpt lat="45.07282" lon="4.42383">
        <ele>829.59997558594</ele>
        <time>2019-08-11T08:28:51.000Z</time>
      </trkpt>
      <trkpt lat="45.0728" lon="4.42397">
        <ele>830.40002441406</ele>
        <time>2019-08-11T08:28:53.000Z</time>
      </trkpt>
      <trkpt lat="45.07281" lon="4.42402">
        <ele>830.79998779297</ele>
        <time>2019-08-11T08:28:54.000Z</time>
      </trkpt>
      <trkpt lat="45.0728" lon="4.42406">
        <ele>831</ele>
        <time>2019-08-11T08:28:55.000Z</time>
      </trkpt>
      <trkpt lat="45.07279" lon="4.4241">
        <ele>831.20001220703</ele>
        <time>2019-08-11T08:28:56.000Z</time>
      </trkpt>
      <trkpt lat="45.07277" lon="4.42413">
        <ele>831.79998779297</ele>
        <time>2019-08-11T08:28:57.000Z</time>
      </trkpt>
      <trkpt lat="45.07276" lon="4.42417">
        <ele>832</ele>
        <time>2019-08-11T08:28:58.000Z</time>
      </trkpt>
      <trkpt lat="45.07276" lon="4.42421">
        <ele>832.20001220703</ele>
        <time>2019-08-11T08:28:59.000Z</time>
      </trkpt>
      <trkpt lat="45.07276" lon="4.42424">
        <ele>832.40002441406</ele>
        <time>2019-08-11T08:29:00.000Z</time>
      </trkpt>
      <trkpt lat="45.0726" lon="4.42496">
        <ele>832.79998779297</ele>
        <time>2019-08-11T08:29:18.000Z</time>
      </trkpt>
      <trkpt lat="45.07256" lon="4.42511">
        <ele>832.79998779297</ele>
        <time>2019-08-11T08:29:22.000Z</time>
      </trkpt>
      <trkpt lat="45.0725" lon="4.42559">
        <ele>830.40002441406</ele>
        <time>2019-08-11T08:29:33.000Z</time>
      </trkpt>
      <trkpt lat="45.07251" lon="4.4256">
        <ele>830</ele>
        <time>2019-08-11T08:29:34.000Z</time>
      </trkpt>
      <trkpt lat="45.07257" lon="4.42558">
        <ele>829.59997558594</ele>
        <time>2019-08-11T08:29:35.000Z</time>
      </trkpt>
      <trkpt lat="45.07283" lon="4.42547">
        <ele>825.20001220703</ele>
        <time>2019-08-11T08:29:39.000Z</time>
      </trkpt>
      <trkpt lat="45.07299" lon="4.42539">
        <ele>821.20001220703</ele>
        <time>2019-08-11T08:29:41.000Z</time>
      </trkpt>
      <trkpt lat="45.07314" lon="4.42528">
        <ele>817.79998779297</ele>
        <time>2019-08-11T08:29:43.000Z</time>
      </trkpt>
      <trkpt lat="45.07332" lon="4.42505">
        <ele>814.20001220703</ele>
        <time>2019-08-11T08:29:47.000Z</time>
      </trkpt>
      <trkpt lat="45.0735" lon="4.42481">
        <ele>809.20001220703</ele>
        <time>2019-08-11T08:29:51.000Z</time>
      </trkpt>
      <trkpt lat="45.07358" lon="4.42466">
        <ele>806</ele>
        <time>2019-08-11T08:29:53.000Z</time>
      </trkpt>
      <trkpt lat="45.0736" lon="4.42458">
        <ele>804.20001220703</ele>
        <time>2019-08-11T08:29:54.000Z</time>
      </trkpt>
      <trkpt lat="45.07358" lon="4.42446">
        <ele>802.59997558594</ele>
        <time>2019-08-11T08:29:55.000Z</time>
      </trkpt>
      <trkpt lat="45.0736" lon="4.4244">
        <ele>801.20001220703</ele>
        <time>2019-08-11T08:29:56.000Z</time>
      </trkpt>
      <trkpt lat="45.07363" lon="4.42435">
        <ele>800.40002441406</ele>
        <time>2019-08-11T08:29:57.000Z</time>
      </trkpt>
      <trkpt lat="45.07364" lon="4.42431">
        <ele>800</ele>
        <time>2019-08-11T08:29:58.000Z</time>
      </trkpt>
      <trkpt lat="45.07367" lon="4.4243">
        <ele>799.59997558594</ele>
        <time>2019-08-11T08:29:59.000Z</time>
      </trkpt>
      <trkpt lat="45.07371" lon="4.4243">
        <ele>799</ele>
        <time>2019-08-11T08:30:00.000Z</time>
      </trkpt>
      <trkpt lat="45.07376" lon="4.42434">
        <ele>798.40002441406</ele>
        <time>2019-08-11T08:30:01.000Z</time>
      </trkpt>
      <trkpt lat="45.0738" lon="4.42438">
        <ele>797.20001220703</ele>
        <time>2019-08-11T08:30:02.000Z</time>
      </trkpt>
      <trkpt lat="45.0738" lon="4.42443">
        <ele>796</ele>
        <time>2019-08-11T08:30:03.000Z</time>
      </trkpt>
      <trkpt lat="45.07381" lon="4.42446">
        <ele>794.40002441406</ele>
        <time>2019-08-11T08:30:04.000Z</time>
      </trkpt>
      <trkpt lat="45.07385" lon="4.42461">
        <ele>791</ele>
        <time>2019-08-11T08:30:09.000Z</time>
      </trkpt>
      <trkpt lat="45.07388" lon="4.42476">
        <ele>789</ele>
        <time>2019-08-11T08:30:12.000Z</time>
      </trkpt>
      <trkpt lat="45.07395" lon="4.42502">
        <ele>785.59997558594</ele>
        <time>2019-08-11T08:30:17.000Z</time>
      </trkpt>
      <trkpt lat="45.07398" lon="4.42521">
        <ele>782.40002441406</ele>
        <time>2019-08-11T08:30:23.000Z</time>
      </trkpt>
      <trkpt lat="45.07395" lon="4.42526">
        <ele>781.59997558594</ele>
        <time>2019-08-11T08:30:27.000Z</time>
      </trkpt>
      <trkpt lat="45.07394" lon="4.42528">
        <ele>781.20001220703</ele>
        <time>2019-08-11T08:30:29.000Z</time>
      </trkpt>
      <trkpt lat="45.07394" lon="4.42529">
        <ele>781.40002441406</ele>
        <time>2019-08-11T08:30:30.000Z</time>
      </trkpt>
      <trkpt lat="45.07392" lon="4.42529">
        <ele>782.20001220703</ele>
        <time>2019-08-11T08:30:32.000Z</time>
      </trkpt>
      <trkpt lat="45.07391" lon="4.4253">
        <ele>783</ele>
        <time>2019-08-11T08:30:34.000Z</time>
      </trkpt>
      <trkpt lat="45.0739" lon="4.4253">
        <ele>783.20001220703</ele>
        <time>2019-08-11T08:30:35.000Z</time>
      </trkpt>
      <trkpt lat="45.07389" lon="4.42531">
        <ele>783.59997558594</ele>
        <time>2019-08-11T08:30:36.000Z</time>
      </trkpt>
      <trkpt lat="45.07389" lon="4.42531">
        <ele>784</ele>
        <time>2019-08-11T08:30:38.000Z</time>
      </trkpt>
      <trkpt lat="45.0739" lon="4.42532">
        <ele>784.59997558594</ele>
        <time>2019-08-11T08:30:41.000Z</time>
      </trkpt>
      <trkpt lat="45.0739" lon="4.42536">
        <ele>785.20001220703</ele>
        <time>2019-08-11T08:30:43.000Z</time>
      </trkpt>
      <trkpt lat="45.0739" lon="4.42542">
        <ele>786</ele>
        <time>2019-08-11T08:30:46.000Z</time>
      </trkpt>
      <trkpt lat="45.0739" lon="4.42549">
        <ele>787.20001220703</ele>
        <time>2019-08-11T08:30:50.000Z</time>
      </trkpt>
      <trkpt lat="45.07391" lon="4.42558">
        <ele>788.40002441406</ele>
        <time>2019-08-11T08:30:54.000Z</time>
      </trkpt>
      <trkpt lat="45.07391" lon="4.42563">
        <ele>789.20001220703</ele>
        <time>2019-08-11T08:30:57.000Z</time>
      </trkpt>
      <trkpt lat="45.07392" lon="4.4257">
        <ele>790.40002441406</ele>
        <time>2019-08-11T08:31:02.000Z</time>
      </trkpt>
      <trkpt lat="45.07392" lon="4.42571">
        <ele>790.59997558594</ele>
        <time>2019-08-11T08:31:03.000Z</time>
      </trkpt>
      <trkpt lat="45.07394" lon="4.42578">
        <ele>792</ele>
        <time>2019-08-11T08:31:10.000Z</time>
      </trkpt>
      <trkpt lat="45.07394" lon="4.42583">
        <ele>792.59997558594</ele>
        <time>2019-08-11T08:31:13.000Z</time>
      </trkpt>
      <trkpt lat="45.07392" lon="4.42612">
        <ele>794.59997558594</ele>
        <time>2019-08-11T08:31:28.000Z</time>
      </trkpt>
      <trkpt lat="45.07392" lon="4.42614">
        <ele>794.79998779297</ele>
        <time>2019-08-11T08:31:29.000Z</time>
      </trkpt>
      <trkpt lat="45.07391" lon="4.42617">
        <ele>794.79998779297</ele>
        <time>2019-08-11T08:31:30.000Z</time>
      </trkpt>
      <trkpt lat="45.07392" lon="4.42621">
        <ele>795</ele>
        <time>2019-08-11T08:31:31.000Z</time>
      </trkpt>
      <trkpt lat="45.07392" lon="4.42624">
        <ele>795.20001220703</ele>
        <time>2019-08-11T08:31:32.000Z</time>
      </trkpt>
      <trkpt lat="45.07393" lon="4.42626">
        <ele>795.40002441406</ele>
        <time>2019-08-11T08:31:33.000Z</time>
      </trkpt>
      <trkpt lat="45.07393" lon="4.42648">
        <ele>796.79998779297</ele>
        <time>2019-08-11T08:31:43.000Z</time>
      </trkpt>
      <trkpt lat="45.07393" lon="4.4265">
        <ele>796.79998779297</ele>
        <time>2019-08-11T08:31:44.000Z</time>
      </trkpt>
      <trkpt lat="45.07392" lon="4.42652">
        <ele>797</ele>
        <time>2019-08-11T08:31:45.000Z</time>
      </trkpt>
      <trkpt lat="45.07387" lon="4.42671">
        <ele>798.40002441406</ele>
        <time>2019-08-11T08:31:56.000Z</time>
      </trkpt>
      <trkpt lat="45.07386" lon="4.42672">
        <ele>798.59997558594</ele>
        <time>2019-08-11T08:31:57.000Z</time>
      </trkpt>
      <trkpt lat="45.07382" lon="4.4269">
        <ele>800.20001220703</ele>
        <time>2019-08-11T08:32:09.000Z</time>
      </trkpt>
      <trkpt lat="45.07382" lon="4.42693">
        <ele>800.40002441406</ele>
        <time>2019-08-11T08:32:11.000Z</time>
      </trkpt>
      <trkpt lat="45.07383" lon="4.42711">
        <ele>802.20001220703</ele>
        <time>2019-08-11T08:32:21.000Z</time>
      </trkpt>
      <trkpt lat="45.0738" lon="4.42716">
        <ele>803.20001220703</ele>
        <time>2019-08-11T08:32:27.000Z</time>
      </trkpt>
      <trkpt lat="45.07378" lon="4.42722">
        <ele>803.79998779297</ele>
        <time>2019-08-11T08:32:31.000Z</time>
      </trkpt>
      <trkpt lat="45.07377" lon="4.42727">
        <ele>804.20001220703</ele>
        <time>2019-08-11T08:32:34.000Z</time>
      </trkpt>
      <trkpt lat="45.07369" lon="4.42755">
        <ele>806.79998779297</ele>
        <time>2019-08-11T08:32:51.000Z</time>
      </trkpt>
      <trkpt lat="45.07369" lon="4.42757">
        <ele>807</ele>
        <time>2019-08-11T08:32:52.000Z</time>
      </trkpt>
      <trkpt lat="45.07369" lon="4.4276">
        <ele>807.20001220703</ele>
        <time>2019-08-11T08:32:53.000Z</time>
      </trkpt>
      <trkpt lat="45.07369" lon="4.42762">
        <ele>807.40002441406</ele>
        <time>2019-08-11T08:32:54.000Z</time>
      </trkpt>
      <trkpt lat="45.07368" lon="4.42764">
        <ele>807.59997558594</ele>
        <time>2019-08-11T08:32:55.000Z</time>
      </trkpt>
      <trkpt lat="45.07368" lon="4.42766">
        <ele>807.59997558594</ele>
        <time>2019-08-11T08:32:56.000Z</time>
      </trkpt>
      <trkpt lat="45.07317" lon="4.4284">
        <ele>808</ele>
        <time>2019-08-11T08:33:26.000Z</time>
      </trkpt>
      <trkpt lat="45.07311" lon="4.42849">
        <ele>810.20001220703</ele>
        <time>2019-08-11T08:33:31.000Z</time>
      </trkpt>
      <trkpt lat="45.0731" lon="4.4285">
        <ele>810.40002441406</ele>
        <time>2019-08-11T08:33:32.000Z</time>
      </trkpt>
      <trkpt lat="45.07309" lon="4.42851">
        <ele>810.79998779297</ele>
        <time>2019-08-11T08:33:33.000Z</time>
      </trkpt>
      <trkpt lat="45.07308" lon="4.42852">
        <ele>811</ele>
        <time>2019-08-11T08:33:34.000Z</time>
      </trkpt>
      <trkpt lat="45.07307" lon="4.42853">
        <ele>811</ele>
        <time>2019-08-11T08:33:35.000Z</time>
      </trkpt>
      <trkpt lat="45.07306" lon="4.42855">
        <ele>811.20001220703</ele>
        <time>2019-08-11T08:33:36.000Z</time>
      </trkpt>
      <trkpt lat="45.07291" lon="4.4287">
        <ele>811.20001220703</ele>
        <time>2019-08-11T08:33:46.000Z</time>
      </trkpt>
      <trkpt lat="45.07268" lon="4.42898">
        <ele>808.59997558594</ele>
        <time>2019-08-11T08:33:52.000Z</time>
      </trkpt>
      <trkpt lat="45.07246" lon="4.42927">
        <ele>806.20001220703</ele>
        <time>2019-08-11T08:33:56.000Z</time>
      </trkpt>
      <trkpt lat="45.07226" lon="4.42947">
        <ele>802.79998779297</ele>
        <time>2019-08-11T08:33:59.000Z</time>
      </trkpt>
      <trkpt lat="45.0722" lon="4.42954">
        <ele>802.59997558594</ele>
        <time>2019-08-11T08:34:00.000Z</time>
      </trkpt>
      <trkpt lat="45.07209" lon="4.4297">
        <ele>801.59997558594</ele>
        <time>2019-08-11T08:34:02.000Z</time>
      </trkpt>
      <trkpt lat="45.07204" lon="4.42979">
        <ele>800.59997558594</ele>
        <time>2019-08-11T08:34:03.000Z</time>
      </trkpt>
      <trkpt lat="45.07183" lon="4.43022">
        <ele>796</ele>
        <time>2019-08-11T08:34:07.000Z</time>
      </trkpt>
      <trkpt lat="45.07169" lon="4.4307">
        <ele>792.59997558594</ele>
        <time>2019-08-11T08:34:11.000Z</time>
      </trkpt>
      <trkpt lat="45.07159" lon="4.43118">
        <ele>790.79998779297</ele>
        <time>2019-08-11T08:34:15.000Z</time>
      </trkpt>
      <trkpt lat="45.07152" lon="4.43133">
        <ele>790.20001220703</ele>
        <time>2019-08-11T08:34:17.000Z</time>
      </trkpt>
      <trkpt lat="45.07148" lon="4.43139">
        <ele>789.79998779297</ele>
        <time>2019-08-11T08:34:18.000Z</time>
      </trkpt>
      <trkpt lat="45.07141" lon="4.43148">
        <ele>788.40002441406</ele>
        <time>2019-08-11T08:34:20.000Z</time>
      </trkpt>
      <trkpt lat="45.07134" lon="4.43154">
        <ele>787.59997558594</ele>
        <time>2019-08-11T08:34:22.000Z</time>
      </trkpt>
      <trkpt lat="45.07129" lon="4.43161">
        <ele>786.59997558594</ele>
        <time>2019-08-11T08:34:25.000Z</time>
      </trkpt>
      <trkpt lat="45.0713" lon="4.43163">
        <ele>786.20001220703</ele>
        <time>2019-08-11T08:34:26.000Z</time>
      </trkpt>
      <trkpt lat="45.07131" lon="4.43164">
        <ele>785.79998779297</ele>
        <time>2019-08-11T08:34:27.000Z</time>
      </trkpt>
      <trkpt lat="45.07133" lon="4.43165">
        <ele>785.79998779297</ele>
        <time>2019-08-11T08:34:28.000Z</time>
      </trkpt>
      <trkpt lat="45.07134" lon="4.43164">
        <ele>785.79998779297</ele>
        <time>2019-08-11T08:34:29.000Z</time>
      </trkpt>
      <trkpt lat="45.07136" lon="4.43163">
        <ele>785.79998779297</ele>
        <time>2019-08-11T08:34:30.000Z</time>
      </trkpt>
      <trkpt lat="45.07137" lon="4.43163">
        <ele>786</ele>
        <time>2019-08-11T08:34:31.000Z</time>
      </trkpt>
      <trkpt lat="45.07141" lon="4.43159">
        <ele>786.40002441406</ele>
        <time>2019-08-11T08:34:34.000Z</time>
      </trkpt>
      <trkpt lat="45.07151" lon="4.43154">
        <ele>787.59997558594</ele>
        <time>2019-08-11T08:34:40.000Z</time>
      </trkpt>
      <trkpt lat="45.07161" lon="4.43149">
        <ele>788.59997558594</ele>
        <time>2019-08-11T08:34:47.000Z</time>
      </trkpt>
      <trkpt lat="45.07166" lon="4.43147">
        <ele>789.40002441406</ele>
        <time>2019-08-11T08:34:51.000Z</time>
      </trkpt>
      <trkpt lat="45.0717" lon="4.43143">
        <ele>790.20001220703</ele>
        <time>2019-08-11T08:34:55.000Z</time>
      </trkpt>
      <trkpt lat="45.07171" lon="4.43141">
        <ele>790.40002441406</ele>
        <time>2019-08-11T08:34:56.000Z</time>
      </trkpt>
      <trkpt lat="45.07171" lon="4.43139">
        <ele>790.59997558594</ele>
        <time>2019-08-11T08:34:57.000Z</time>
      </trkpt>
      <trkpt lat="45.07171" lon="4.43137">
        <ele>790.59997558594</ele>
        <time>2019-08-11T08:34:58.000Z</time>
      </trkpt>
      <trkpt lat="45.07172" lon="4.43135">
        <ele>790.79998779297</ele>
        <time>2019-08-11T08:34:59.000Z</time>
      </trkpt>
      <trkpt lat="45.07172" lon="4.43134">
        <ele>791</ele>
        <time>2019-08-11T08:35:00.000Z</time>
      </trkpt>
      <trkpt lat="45.07176" lon="4.43127">
        <ele>791.79998779297</ele>
        <time>2019-08-11T08:35:04.000Z</time>
      </trkpt>
      <trkpt lat="45.07179" lon="4.43107">
        <ele>793.40002441406</ele>
        <time>2019-08-11T08:35:15.000Z</time>
      </trkpt>
      <trkpt lat="45.0718" lon="4.43105">
        <ele>793.59997558594</ele>
        <time>2019-08-11T08:35:16.000Z</time>
      </trkpt>
      <trkpt lat="45.07181" lon="4.43104">
        <ele>793.59997558594</ele>
        <time>2019-08-11T08:35:17.000Z</time>
      </trkpt>
      <trkpt lat="45.07182" lon="4.43102">
        <ele>794</ele>
        <time>2019-08-11T08:35:18.000Z</time>
      </trkpt>
      <trkpt lat="45.07182" lon="4.43101">
        <ele>794.40002441406</ele>
        <time>2019-08-11T08:35:19.000Z</time>
      </trkpt>
      <trkpt lat="45.07183" lon="4.43099">
        <ele>794.79998779297</ele>
        <time>2019-08-11T08:35:20.000Z</time>
      </trkpt>
      <trkpt lat="45.07183" lon="4.43097">
        <ele>795</ele>
        <time>2019-08-11T08:35:21.000Z</time>
      </trkpt>
      <trkpt lat="45.07183" lon="4.43096">
        <ele>795.40002441406</ele>
        <time>2019-08-11T08:35:22.000Z</time>
      </trkpt>
      <trkpt lat="45.07183" lon="4.43094">
        <ele>795.59997558594</ele>
        <time>2019-08-11T08:35:23.000Z</time>
      </trkpt>
      <trkpt lat="45.07184" lon="4.43087">
        <ele>796.40002441406</ele>
        <time>2019-08-11T08:35:28.000Z</time>
      </trkpt>
      <trkpt lat="45.07185" lon="4.43084">
        <ele>796.59997558594</ele>
        <time>2019-08-11T08:35:29.000Z</time>
      </trkpt>
      <trkpt lat="45.07185" lon="4.43082">
        <ele>796.79998779297</ele>
        <time>2019-08-11T08:35:30.000Z</time>
      </trkpt>
      <trkpt lat="45.07185" lon="4.4308">
        <ele>796.79998779297</ele>
        <time>2019-08-11T08:35:31.000Z</time>
      </trkpt>
      <trkpt lat="45.07185" lon="4.43079">
        <ele>797.20001220703</ele>
        <time>2019-08-11T08:35:32.000Z</time>
      </trkpt>
      <trkpt lat="45.07186" lon="4.43077">
        <ele>797.40002441406</ele>
        <time>2019-08-11T08:35:33.000Z</time>
      </trkpt>
      <trkpt lat="45.07186" lon="4.43076">
        <ele>797.59997558594</ele>
        <time>2019-08-11T08:35:34.000Z</time>
      </trkpt>
      <trkpt lat="45.07186" lon="4.43074">
        <ele>797.79998779297</ele>
        <time>2019-08-11T08:35:35.000Z</time>
      </trkpt>
      <trkpt lat="45.07186" lon="4.43073">
        <ele>798</ele>
        <time>2019-08-11T08:35:36.000Z</time>
      </trkpt>
      <trkpt lat="45.07187" lon="4.43071">
        <ele>798</ele>
        <time>2019-08-11T08:35:37.000Z</time>
      </trkpt>
      <trkpt lat="45.07187" lon="4.4307">
        <ele>798.20001220703</ele>
        <time>2019-08-11T08:35:38.000Z</time>
      </trkpt>
      <trkpt lat="45.07187" lon="4.43068">
        <ele>798.40002441406</ele>
        <time>2019-08-11T08:35:39.000Z</time>
      </trkpt>
      <trkpt lat="45.07188" lon="4.43067">
        <ele>798.59997558594</ele>
        <time>2019-08-11T08:35:40.000Z</time>
      </trkpt>
      <trkpt lat="45.07188" lon="4.43065">
        <ele>798.79998779297</ele>
        <time>2019-08-11T08:35:41.000Z</time>
      </trkpt>
      <trkpt lat="45.07188" lon="4.43064">
        <ele>799</ele>
        <time>2019-08-11T08:35:42.000Z</time>
      </trkpt>
      <trkpt lat="45.07189" lon="4.43062">
        <ele>799.20001220703</ele>
        <time>2019-08-11T08:35:43.000Z</time>
      </trkpt>
      <trkpt lat="45.0719" lon="4.43059">
        <ele>799.40002441406</ele>
        <time>2019-08-11T08:35:45.000Z</time>
      </trkpt>
      <trkpt lat="45.07191" lon="4.43054">
        <ele>800.40002441406</ele>
        <time>2019-08-11T08:35:49.000Z</time>
      </trkpt>
      <trkpt lat="45.07196" lon="4.43037">
        <ele>802</ele>
        <time>2019-08-11T08:36:01.000Z</time>
      </trkpt>
      <trkpt lat="45.07197" lon="4.43036">
        <ele>802.20001220703</ele>
        <time>2019-08-11T08:36:02.000Z</time>
      </trkpt>
      <trkpt lat="45.07197" lon="4.43035">
        <ele>802.20001220703</ele>
        <time>2019-08-11T08:36:03.000Z</time>
      </trkpt>
      <trkpt lat="45.07198" lon="4.43033">
        <ele>802.40002441406</ele>
        <time>2019-08-11T08:36:04.000Z</time>
      </trkpt>
      <trkpt lat="45.07198" lon="4.43032">
        <ele>802.59997558594</ele>
        <time>2019-08-11T08:36:05.000Z</time>
      </trkpt>
      <trkpt lat="45.07204" lon="4.43022">
        <ele>804</ele>
        <time>2019-08-11T08:36:15.000Z</time>
      </trkpt>
      <trkpt lat="45.07205" lon="4.43021">
        <ele>804</ele>
        <time>2019-08-11T08:36:16.000Z</time>
      </trkpt>
      <trkpt lat="45.07208" lon="4.43011">
        <ele>805.20001220703</ele>
        <time>2019-08-11T08:36:23.000Z</time>
      </trkpt>
      <trkpt lat="45.07209" lon="4.4301">
        <ele>805.40002441406</ele>
        <time>2019-08-11T08:36:24.000Z</time>
      </trkpt>
      <trkpt lat="45.0721" lon="4.43009">
        <ele>805.59997558594</ele>
        <time>2019-08-11T08:36:25.000Z</time>
      </trkpt>
      <trkpt lat="45.07211" lon="4.43008">
        <ele>805.79998779297</ele>
        <time>2019-08-11T08:36:26.000Z</time>
      </trkpt>
      <trkpt lat="45.07211" lon="4.43006">
        <ele>806</ele>
        <time>2019-08-11T08:36:27.000Z</time>
      </trkpt>
      <trkpt lat="45.07212" lon="4.43005">
        <ele>806.20001220703</ele>
        <time>2019-08-11T08:36:28.000Z</time>
      </trkpt>
      <trkpt lat="45.07222" lon="4.42997">
        <ele>808</ele>
        <time>2019-08-11T08:36:38.000Z</time>
      </trkpt>
      <trkpt lat="45.07223" lon="4.42996">
        <ele>808.20001220703</ele>
        <time>2019-08-11T08:36:39.000Z</time>
      </trkpt>
      <trkpt lat="45.07228" lon="4.42992">
        <ele>809.20001220703</ele>
        <time>2019-08-11T08:36:46.000Z</time>
      </trkpt>
      <trkpt lat="45.07228" lon="4.4299">
        <ele>809.40002441406</ele>
        <time>2019-08-11T08:36:47.000Z</time>
      </trkpt>
      <trkpt lat="45.07229" lon="4.42988">
        <ele>809.59997558594</ele>
        <time>2019-08-11T08:36:48.000Z</time>
      </trkpt>
      <trkpt lat="45.07234" lon="4.42983">
        <ele>810.59997558594</ele>
        <time>2019-08-11T08:36:54.000Z</time>
      </trkpt>
      <trkpt lat="45.07236" lon="4.42983">
        <ele>810.79998779297</ele>
        <time>2019-08-11T08:36:55.000Z</time>
      </trkpt>
      <trkpt lat="45.07236" lon="4.42982">
        <ele>811</ele>
        <time>2019-08-11T08:36:56.000Z</time>
      </trkpt>
      <trkpt lat="45.07242" lon="4.42979">
        <ele>812.79998779297</ele>
        <time>2019-08-11T08:37:04.000Z</time>
      </trkpt>
      <trkpt lat="45.07243" lon="4.42979">
        <ele>813</ele>
        <time>2019-08-11T08:37:05.000Z</time>
      </trkpt>
      <trkpt lat="45.07245" lon="4.42978">
        <ele>813.40002441406</ele>
        <time>2019-08-11T08:37:07.000Z</time>
      </trkpt>
      <trkpt lat="45.07246" lon="4.42977">
        <ele>813.59997558594</ele>
        <time>2019-08-11T08:37:08.000Z</time>
      </trkpt>
      <trkpt lat="45.07255" lon="4.42972">
        <ele>815.20001220703</ele>
        <time>2019-08-11T08:37:18.000Z</time>
      </trkpt>
      <trkpt lat="45.07256" lon="4.42971">
        <ele>815.40002441406</ele>
        <time>2019-08-11T08:37:19.000Z</time>
      </trkpt>
      <trkpt lat="45.0726" lon="4.42969">
        <ele>816</ele>
        <time>2019-08-11T08:37:22.000Z</time>
      </trkpt>
      <trkpt lat="45.07261" lon="4.42968">
        <ele>816.20001220703</ele>
        <time>2019-08-11T08:37:23.000Z</time>
      </trkpt>
      <trkpt lat="45.07262" lon="4.42968">
        <ele>816.40002441406</ele>
        <time>2019-08-11T08:37:24.000Z</time>
      </trkpt>
      <trkpt lat="45.0727" lon="4.42963">
        <ele>817.40002441406</ele>
        <time>2019-08-11T08:37:32.000Z</time>
      </trkpt>
      <trkpt lat="45.07271" lon="4.42962">
        <ele>817.59997558594</ele>
        <time>2019-08-11T08:37:34.000Z</time>
      </trkpt>
      <trkpt lat="45.07272" lon="4.42961">
        <ele>818</ele>
        <time>2019-08-11T08:37:35.000Z</time>
      </trkpt>
      <trkpt lat="45.07273" lon="4.4296">
        <ele>818.20001220703</ele>
        <time>2019-08-11T08:37:36.000Z</time>
      </trkpt>
      <trkpt lat="45.07274" lon="4.42959">
        <ele>818.20001220703</ele>
        <time>2019-08-11T08:37:37.000Z</time>
      </trkpt>
      <trkpt lat="45.07275" lon="4.42958">
        <ele>818.40002441406</ele>
        <time>2019-08-11T08:37:38.000Z</time>
      </trkpt>
      <trkpt lat="45.07289" lon="4.42948">
        <ele>821.59997558594</ele>
        <time>2019-08-11T08:37:54.000Z</time>
      </trkpt>
      <trkpt lat="45.07291" lon="4.42946">
        <ele>821.79998779297</ele>
        <time>2019-08-11T08:37:56.000Z</time>
      </trkpt>
      <trkpt lat="45.07297" lon="4.42943">
        <ele>822.79998779297</ele>
        <time>2019-08-11T08:38:00.000Z</time>
      </trkpt>
      <trkpt lat="45.07301" lon="4.42938">
        <ele>823.79998779297</ele>
        <time>2019-08-11T08:38:05.000Z</time>
      </trkpt>
      <trkpt lat="45.07302" lon="4.42937">
        <ele>824</ele>
        <time>2019-08-11T08:38:06.000Z</time>
      </trkpt>
      <trkpt lat="45.07311" lon="4.42932">
        <ele>825.79998779297</ele>
        <time>2019-08-11T08:38:15.000Z</time>
      </trkpt>
      <trkpt lat="45.07312" lon="4.42931">
        <ele>826.20001220703</ele>
        <time>2019-08-11T08:38:17.000Z</time>
      </trkpt>
      <trkpt lat="45.07313" lon="4.4293">
        <ele>826.59997558594</ele>
        <time>2019-08-11T08:38:18.000Z</time>
      </trkpt>
      <trkpt lat="45.07314" lon="4.4293">
        <ele>826.79998779297</ele>
        <time>2019-08-11T08:38:19.000Z</time>
      </trkpt>
      <trkpt lat="45.07327" lon="4.4292">
        <ele>828.79998779297</ele>
        <time>2019-08-11T08:38:33.000Z</time>
      </trkpt>
      <trkpt lat="45.07329" lon="4.42916">
        <ele>829.20001220703</ele>
        <time>2019-08-11T08:38:36.000Z</time>
      </trkpt>
      <trkpt lat="45.07329" lon="4.42914">
        <ele>829.20001220703</ele>
        <time>2019-08-11T08:38:37.000Z</time>
      </trkpt>
      <trkpt lat="45.07342" lon="4.42902">
        <ele>831.20001220703</ele>
        <time>2019-08-11T08:38:51.000Z</time>
      </trkpt>
      <trkpt lat="45.07353" lon="4.42901">
        <ele>832.79998779297</ele>
        <time>2019-08-11T08:39:01.000Z</time>
      </trkpt>
      <trkpt lat="45.07354" lon="4.42901">
        <ele>833</ele>
        <time>2019-08-11T08:39:02.000Z</time>
      </trkpt>
      <trkpt lat="45.07355" lon="4.429">
        <ele>833</ele>
        <time>2019-08-11T08:39:03.000Z</time>
      </trkpt>
      <trkpt lat="45.07356" lon="4.42899">
        <ele>833</ele>
        <time>2019-08-11T08:39:04.000Z</time>
      </trkpt>
      <trkpt lat="45.07357" lon="4.42899">
        <ele>833.20001220703</ele>
        <time>2019-08-11T08:39:05.000Z</time>
      </trkpt>
      <trkpt lat="45.07358" lon="4.42898">
        <ele>833.20001220703</ele>
        <time>2019-08-11T08:39:06.000Z</time>
      </trkpt>
      <trkpt lat="45.0736" lon="4.42894">
        <ele>833.59997558594</ele>
        <time>2019-08-11T08:39:09.000Z</time>
      </trkpt>
      <trkpt lat="45.07361" lon="4.42893">
        <ele>833.79998779297</ele>
        <time>2019-08-11T08:39:10.000Z</time>
      </trkpt>
      <trkpt lat="45.07362" lon="4.42892">
        <ele>834</ele>
        <time>2019-08-11T08:39:11.000Z</time>
      </trkpt>
      <trkpt lat="45.07363" lon="4.42891">
        <ele>834</ele>
        <time>2019-08-11T08:39:12.000Z</time>
      </trkpt>
      <trkpt lat="45.07364" lon="4.4289">
        <ele>834</ele>
        <time>2019-08-11T08:39:13.000Z</time>
      </trkpt>
      <trkpt lat="45.07365" lon="4.4289">
        <ele>834.20001220703</ele>
        <time>2019-08-11T08:39:14.000Z</time>
      </trkpt>
      <trkpt lat="45.07366" lon="4.42889">
        <ele>834.20001220703</ele>
        <time>2019-08-11T08:39:15.000Z</time>
      </trkpt>
      <trkpt lat="45.07367" lon="4.42888">
        <ele>834.40002441406</ele>
        <time>2019-08-11T08:39:16.000Z</time>
      </trkpt>
      <trkpt lat="45.07367" lon="4.42887">
        <ele>834.59997558594</ele>
        <time>2019-08-11T08:39:17.000Z</time>
      </trkpt>
      <trkpt lat="45.07368" lon="4.42884">
        <ele>834.79998779297</ele>
        <time>2019-08-11T08:39:18.000Z</time>
      </trkpt>
      <trkpt lat="45.07383" lon="4.42864">
        <ele>836.40002441406</ele>
        <time>2019-08-11T08:39:33.000Z</time>
      </trkpt>
      <trkpt lat="45.07384" lon="4.42862">
        <ele>836.40002441406</ele>
        <time>2019-08-11T08:39:34.000Z</time>
      </trkpt>
      <trkpt lat="45.07385" lon="4.42859">
        <ele>836.59997558594</ele>
        <time>2019-08-11T08:39:35.000Z</time>
      </trkpt>
      <trkpt lat="45.07386" lon="4.42858">
        <ele>836.59997558594</ele>
        <time>2019-08-11T08:39:36.000Z</time>
      </trkpt>
      <trkpt lat="45.07387" lon="4.42856">
        <ele>836.79998779297</ele>
        <time>2019-08-11T08:39:37.000Z</time>
      </trkpt>
      <trkpt lat="45.07388" lon="4.42854">
        <ele>836.79998779297</ele>
        <time>2019-08-11T08:39:38.000Z</time>
      </trkpt>
      <trkpt lat="45.07388" lon="4.42853">
        <ele>837</ele>
        <time>2019-08-11T08:39:39.000Z</time>
      </trkpt>
      <trkpt lat="45.07389" lon="4.42851">
        <ele>837.20001220703</ele>
        <time>2019-08-11T08:39:40.000Z</time>
      </trkpt>
      <trkpt lat="45.0739" lon="4.4285">
        <ele>837.20001220703</ele>
        <time>2019-08-11T08:39:41.000Z</time>
      </trkpt>
      <trkpt lat="45.07392" lon="4.42848">
        <ele>837.59997558594</ele>
        <time>2019-08-11T08:39:42.000Z</time>
      </trkpt>
      <trkpt lat="45.07393" lon="4.42846">
        <ele>837.79998779297</ele>
        <time>2019-08-11T08:39:43.000Z</time>
      </trkpt>
      <trkpt lat="45.07394" lon="4.42844">
        <ele>837.79998779297</ele>
        <time>2019-08-11T08:39:44.000Z</time>
      </trkpt>
      <trkpt lat="45.07395" lon="4.42842">
        <ele>837.79998779297</ele>
        <time>2019-08-11T08:39:45.000Z</time>
      </trkpt>
      <trkpt lat="45.07396" lon="4.42841">
        <ele>838</ele>
        <time>2019-08-11T08:39:46.000Z</time>
      </trkpt>
      <trkpt lat="45.07397" lon="4.4284">
        <ele>838.20001220703</ele>
        <time>2019-08-11T08:39:47.000Z</time>
      </trkpt>
      <trkpt lat="45.07398" lon="4.42839">
        <ele>838.20001220703</ele>
        <time>2019-08-11T08:39:48.000Z</time>
      </trkpt>
      <trkpt lat="45.07413" lon="4.42823">
        <ele>840.20001220703</ele>
        <time>2019-08-11T08:40:01.000Z</time>
      </trkpt>
      <trkpt lat="45.07414" lon="4.42821">
        <ele>840.40002441406</ele>
        <time>2019-08-11T08:40:02.000Z</time>
      </trkpt>
      <trkpt lat="45.07415" lon="4.4282">
        <ele>840.59997558594</ele>
        <time>2019-08-11T08:40:03.000Z</time>
      </trkpt>
      <trkpt lat="45.07417" lon="4.42818">
        <ele>840.59997558594</ele>
        <time>2019-08-11T08:40:04.000Z</time>
      </trkpt>
      <trkpt lat="45.07418" lon="4.42817">
        <ele>840.59997558594</ele>
        <time>2019-08-11T08:40:05.000Z</time>
      </trkpt>
      <trkpt lat="45.07419" lon="4.42816">
        <ele>841.20001220703</ele>
        <time>2019-08-11T08:40:06.000Z</time>
      </trkpt>
      <trkpt lat="45.07427" lon="4.42801">
        <ele>843.20001220703</ele>
        <time>2019-08-11T08:40:18.000Z</time>
      </trkpt>
      <trkpt lat="45.07428" lon="4.428">
        <ele>843.40002441406</ele>
        <time>2019-08-11T08:40:19.000Z</time>
      </trkpt>
      <trkpt lat="45.0743" lon="4.42797">
        <ele>843.59997558594</ele>
        <time>2019-08-11T08:40:21.000Z</time>
      </trkpt>
      <trkpt lat="45.07431" lon="4.42795">
        <ele>843.59997558594</ele>
        <time>2019-08-11T08:40:22.000Z</time>
      </trkpt>
      <trkpt lat="45.07432" lon="4.42794">
        <ele>843.79998779297</ele>
        <time>2019-08-11T08:40:23.000Z</time>
      </trkpt>
      <trkpt lat="45.07432" lon="4.42792">
        <ele>844</ele>
        <time>2019-08-11T08:40:24.000Z</time>
      </trkpt>
      <trkpt lat="45.07433" lon="4.42791">
        <ele>844.20001220703</ele>
        <time>2019-08-11T08:40:25.000Z</time>
      </trkpt>
      <trkpt lat="45.07439" lon="4.42779">
        <ele>845.40002441406</ele>
        <time>2019-08-11T08:40:33.000Z</time>
      </trkpt>
      <trkpt lat="45.0746" lon="4.42728">
        <ele>848.40002441406</ele>
        <time>2019-08-11T08:41:03.000Z</time>
      </trkpt>
      <trkpt lat="45.07461" lon="4.42726">
        <ele>848.40002441406</ele>
        <time>2019-08-11T08:41:04.000Z</time>
      </trkpt>
      <trkpt lat="45.07473" lon="4.42702">
        <ele>850.59997558594</ele>
        <time>2019-08-11T08:41:19.000Z</time>
      </trkpt>
      <trkpt lat="45.07474" lon="4.42701">
        <ele>850.59997558594</ele>
        <time>2019-08-11T08:41:20.000Z</time>
      </trkpt>
      <trkpt lat="45.07474" lon="4.42699">
        <ele>850.79998779297</ele>
        <time>2019-08-11T08:41:22.000Z</time>
      </trkpt>
      <trkpt lat="45.07475" lon="4.42697">
        <ele>851</ele>
        <time>2019-08-11T08:41:23.000Z</time>
      </trkpt>
      <trkpt lat="45.07481" lon="4.42674">
        <ele>853</ele>
        <time>2019-08-11T08:41:38.000Z</time>
      </trkpt>
      <trkpt lat="45.07482" lon="4.42672">
        <ele>853.40002441406</ele>
        <time>2019-08-11T08:41:39.000Z</time>
      </trkpt>
      <trkpt lat="45.07492" lon="4.42644">
        <ele>856.40002441406</ele>
        <time>2019-08-11T08:41:55.000Z</time>
      </trkpt>
      <trkpt lat="45.07494" lon="4.42641">
        <ele>857</ele>
        <time>2019-08-11T08:41:58.000Z</time>
      </trkpt>
      <trkpt lat="45.07495" lon="4.42639">
        <ele>857.40002441406</ele>
        <time>2019-08-11T08:41:59.000Z</time>
      </trkpt>
      <trkpt lat="45.07496" lon="4.42637">
        <ele>857.59997558594</ele>
        <time>2019-08-11T08:42:00.000Z</time>
      </trkpt>
      <trkpt lat="45.07497" lon="4.42636">
        <ele>857.79998779297</ele>
        <time>2019-08-11T08:42:01.000Z</time>
      </trkpt>
      <trkpt lat="45.07498" lon="4.42634">
        <ele>857.79998779297</ele>
        <time>2019-08-11T08:42:02.000Z</time>
      </trkpt>
      <trkpt lat="45.075" lon="4.42633">
        <ele>858</ele>
        <time>2019-08-11T08:42:03.000Z</time>
      </trkpt>
      <trkpt lat="45.07501" lon="4.42631">
        <ele>858.20001220703</ele>
        <time>2019-08-11T08:42:04.000Z</time>
      </trkpt>
      <trkpt lat="45.07509" lon="4.4262">
        <ele>860</ele>
        <time>2019-08-11T08:42:13.000Z</time>
      </trkpt>
      <trkpt lat="45.07518" lon="4.42609">
        <ele>861.79998779297</ele>
        <time>2019-08-11T08:42:21.000Z</time>
      </trkpt>
      <trkpt lat="45.07519" lon="4.42608">
        <ele>862</ele>
        <time>2019-08-11T08:42:22.000Z</time>
      </trkpt>
      <trkpt lat="45.0752" lon="4.42607">
        <ele>862.20001220703</ele>
        <time>2019-08-11T08:42:23.000Z</time>
      </trkpt>
      <trkpt lat="45.07524" lon="4.42595">
        <ele>863.20001220703</ele>
        <time>2019-08-11T08:42:32.000Z</time>
      </trkpt>
      <trkpt lat="45.07524" lon="4.42593">
        <ele>863.20001220703</ele>
        <time>2019-08-11T08:42:33.000Z</time>
      </trkpt>
      <trkpt lat="45.07523" lon="4.42591">
        <ele>863.40002441406</ele>
        <time>2019-08-11T08:42:34.000Z</time>
      </trkpt>
      <trkpt lat="45.07524" lon="4.42589">
        <ele>863.40002441406</ele>
        <time>2019-08-11T08:42:35.000Z</time>
      </trkpt>
      <trkpt lat="45.07524" lon="4.42587">
        <ele>863.40002441406</ele>
        <time>2019-08-11T08:42:36.000Z</time>
      </trkpt>
      <trkpt lat="45.07524" lon="4.42584">
        <ele>863.59997558594</ele>
        <time>2019-08-11T08:42:37.000Z</time>
      </trkpt>
      <trkpt lat="45.0753" lon="4.42543">
        <ele>866.59997558594</ele>
        <time>2019-08-11T08:42:59.000Z</time>
      </trkpt>
      <trkpt lat="45.07535" lon="4.42508">
        <ele>869.59997558594</ele>
        <time>2019-08-11T08:43:17.000Z</time>
      </trkpt>
      <trkpt lat="45.07536" lon="4.42507">
        <ele>869.79998779297</ele>
        <time>2019-08-11T08:43:18.000Z</time>
      </trkpt>
      <trkpt lat="45.07537" lon="4.42505">
        <ele>869.79998779297</ele>
        <time>2019-08-11T08:43:19.000Z</time>
      </trkpt>
      <trkpt lat="45.07537" lon="4.42504">
        <ele>870.20001220703</ele>
        <time>2019-08-11T08:43:20.000Z</time>
      </trkpt>
      <trkpt lat="45.07538" lon="4.42502">
        <ele>870.20001220703</ele>
        <time>2019-08-11T08:43:21.000Z</time>
      </trkpt>
      <trkpt lat="45.07538" lon="4.425">
        <ele>870.40002441406</ele>
        <time>2019-08-11T08:43:22.000Z</time>
      </trkpt>
      <trkpt lat="45.07539" lon="4.42498">
        <ele>870.40002441406</ele>
        <time>2019-08-11T08:43:23.000Z</time>
      </trkpt>
      <trkpt lat="45.0754" lon="4.42497">
        <ele>870.59997558594</ele>
        <time>2019-08-11T08:43:24.000Z</time>
      </trkpt>
      <trkpt lat="45.0754" lon="4.42495">
        <ele>870.59997558594</ele>
        <time>2019-08-11T08:43:25.000Z</time>
      </trkpt>
      <trkpt lat="45.07541" lon="4.42493">
        <ele>870.59997558594</ele>
        <time>2019-08-11T08:43:26.000Z</time>
      </trkpt>
      <trkpt lat="45.07542" lon="4.42492">
        <ele>870.79998779297</ele>
        <time>2019-08-11T08:43:27.000Z</time>
      </trkpt>
      <trkpt lat="45.07544" lon="4.4249">
        <ele>870.79998779297</ele>
        <time>2019-08-11T08:43:28.000Z</time>
      </trkpt>
      <trkpt lat="45.07546" lon="4.42489">
        <ele>871</ele>
        <time>2019-08-11T08:43:29.000Z</time>
      </trkpt>
      <trkpt lat="45.07547" lon="4.42487">
        <ele>871.20001220703</ele>
        <time>2019-08-11T08:43:30.000Z</time>
      </trkpt>
      <trkpt lat="45.07548" lon="4.42485">
        <ele>871.40002441406</ele>
        <time>2019-08-11T08:43:31.000Z</time>
      </trkpt>
      <trkpt lat="45.07549" lon="4.42484">
        <ele>871.59997558594</ele>
        <time>2019-08-11T08:43:32.000Z</time>
      </trkpt>
      <trkpt lat="45.0755" lon="4.42482">
        <ele>871.59997558594</ele>
        <time>2019-08-11T08:43:33.000Z</time>
      </trkpt>
      <trkpt lat="45.0755" lon="4.4248">
        <ele>871.59997558594</ele>
        <time>2019-08-11T08:43:34.000Z</time>
      </trkpt>
      <trkpt lat="45.07552" lon="4.42479">
        <ele>871.59997558594</ele>
        <time>2019-08-11T08:43:35.000Z</time>
      </trkpt>
      <trkpt lat="45.07553" lon="4.42477">
        <ele>872</ele>
        <time>2019-08-11T08:43:36.000Z</time>
      </trkpt>
      <trkpt lat="45.07563" lon="4.42464">
        <ele>874</ele>
        <time>2019-08-11T08:43:46.000Z</time>
      </trkpt>
      <trkpt lat="45.07563" lon="4.42463">
        <ele>874.20001220703</ele>
        <time>2019-08-11T08:43:47.000Z</time>
      </trkpt>
      <trkpt lat="45.07563" lon="4.42461">
        <ele>874.40002441406</ele>
        <time>2019-08-11T08:43:48.000Z</time>
      </trkpt>
      <trkpt lat="45.07561" lon="4.42457">
        <ele>874.79998779297</ele>
        <time>2019-08-11T08:43:51.000Z</time>
      </trkpt>
      <trkpt lat="45.0756" lon="4.42456">
        <ele>875</ele>
        <time>2019-08-11T08:43:52.000Z</time>
      </trkpt>
      <trkpt lat="45.07559" lon="4.42455">
        <ele>875</ele>
        <time>2019-08-11T08:43:53.000Z</time>
      </trkpt>
      <trkpt lat="45.07556" lon="4.4245">
        <ele>875.59997558594</ele>
        <time>2019-08-11T08:43:58.000Z</time>
      </trkpt>
      <trkpt lat="45.07553" lon="4.42446">
        <ele>876.20001220703</ele>
        <time>2019-08-11T08:44:01.000Z</time>
      </trkpt>
      <trkpt lat="45.07553" lon="4.42443">
        <ele>876.40002441406</ele>
        <time>2019-08-11T08:44:02.000Z</time>
      </trkpt>
      <trkpt lat="45.07552" lon="4.42441">
        <ele>876.40002441406</ele>
        <time>2019-08-11T08:44:03.000Z</time>
      </trkpt>
      <trkpt lat="45.07552" lon="4.42438">
        <ele>876.59997558594</ele>
        <time>2019-08-11T08:44:04.000Z</time>
      </trkpt>
      <trkpt lat="45.07551" lon="4.42437">
        <ele>876.59997558594</ele>
        <time>2019-08-11T08:44:05.000Z</time>
      </trkpt>
      <trkpt lat="45.07541" lon="4.42395">
        <ele>879.59997558594</ele>
        <time>2019-08-11T08:44:28.000Z</time>
      </trkpt>
      <trkpt lat="45.07537" lon="4.42371">
        <ele>882.79998779297</ele>
        <time>2019-08-11T08:44:43.000Z</time>
      </trkpt>
      <trkpt lat="45.07537" lon="4.42368">
        <ele>883.40002441406</ele>
        <time>2019-08-11T08:44:45.000Z</time>
      </trkpt>
      <trkpt lat="45.07537" lon="4.42366">
        <ele>883.59997558594</ele>
        <time>2019-08-11T08:44:46.000Z</time>
      </trkpt>
      <trkpt lat="45.07538" lon="4.42365">
        <ele>883.79998779297</ele>
        <time>2019-08-11T08:44:47.000Z</time>
      </trkpt>
      <trkpt lat="45.07539" lon="4.42348">
        <ele>886.59997558594</ele>
        <time>2019-08-11T08:44:59.000Z</time>
      </trkpt>
      <trkpt lat="45.07542" lon="4.4233">
        <ele>887.79998779297</ele>
        <time>2019-08-11T08:45:11.000Z</time>
      </trkpt>
      <trkpt lat="45.07542" lon="4.42326">
        <ele>888</ele>
        <time>2019-08-11T08:45:14.000Z</time>
      </trkpt>
      <trkpt lat="45.07542" lon="4.42322">
        <ele>888.40002441406</ele>
        <time>2019-08-11T08:45:17.000Z</time>
      </trkpt>
      <trkpt lat="45.07542" lon="4.42321">
        <ele>888.40002441406</ele>
        <time>2019-08-11T08:45:18.000Z</time>
      </trkpt>
      <trkpt lat="45.07543" lon="4.4232">
        <ele>888.40002441406</ele>
        <time>2019-08-11T08:45:19.000Z</time>
      </trkpt>
      <trkpt lat="45.07551" lon="4.42289">
        <ele>891.20001220703</ele>
        <time>2019-08-11T08:45:39.000Z</time>
      </trkpt>
      <trkpt lat="45.07551" lon="4.42288">
        <ele>891.20001220703</ele>
        <time>2019-08-11T08:45:40.000Z</time>
      </trkpt>
      <trkpt lat="45.07551" lon="4.42286">
        <ele>891.40002441406</ele>
        <time>2019-08-11T08:45:41.000Z</time>
      </trkpt>
      <trkpt lat="45.07551" lon="4.42284">
        <ele>891.40002441406</ele>
        <time>2019-08-11T08:45:42.000Z</time>
      </trkpt>
      <trkpt lat="45.07551" lon="4.42283">
        <ele>891.59997558594</ele>
        <time>2019-08-11T08:45:43.000Z</time>
      </trkpt>
      <trkpt lat="45.07564" lon="4.42256">
        <ele>894.59997558594</ele>
        <time>2019-08-11T08:46:04.000Z</time>
      </trkpt>
      <trkpt lat="45.07568" lon="4.42249">
        <ele>895.59997558594</ele>
        <time>2019-08-11T08:46:10.000Z</time>
      </trkpt>
      <trkpt lat="45.07568" lon="4.42247">
        <ele>895.79998779297</ele>
        <time>2019-08-11T08:46:11.000Z</time>
      </trkpt>
      <trkpt lat="45.07569" lon="4.42246">
        <ele>896.20001220703</ele>
        <time>2019-08-11T08:46:12.000Z</time>
      </trkpt>
      <trkpt lat="45.0757" lon="4.42245">
        <ele>896.40002441406</ele>
        <time>2019-08-11T08:46:13.000Z</time>
      </trkpt>
      <trkpt lat="45.07571" lon="4.42244">
        <ele>896.40002441406</ele>
        <time>2019-08-11T08:46:14.000Z</time>
      </trkpt>
      <trkpt lat="45.07572" lon="4.42243">
        <ele>896.59997558594</ele>
        <time>2019-08-11T08:46:15.000Z</time>
      </trkpt>
      <trkpt lat="45.07573" lon="4.42243">
        <ele>896.79998779297</ele>
        <time>2019-08-11T08:46:16.000Z</time>
      </trkpt>
      <trkpt lat="45.07577" lon="4.42232">
        <ele>898.40002441406</ele>
        <time>2019-08-11T08:46:25.000Z</time>
      </trkpt>
      <trkpt lat="45.07577" lon="4.42231">
        <ele>898.40002441406</ele>
        <time>2019-08-11T08:46:26.000Z</time>
      </trkpt>
      <trkpt lat="45.07578" lon="4.4223">
        <ele>898.59997558594</ele>
        <time>2019-08-11T08:46:27.000Z</time>
      </trkpt>
      <trkpt lat="45.07579" lon="4.4223">
        <ele>898.79998779297</ele>
        <time>2019-08-11T08:46:28.000Z</time>
      </trkpt>
      <trkpt lat="45.0758" lon="4.42228">
        <ele>899</ele>
        <time>2019-08-11T08:46:29.000Z</time>
      </trkpt>
      <trkpt lat="45.07581" lon="4.42224">
        <ele>899.40002441406</ele>
        <time>2019-08-11T08:46:32.000Z</time>
      </trkpt>
      <trkpt lat="45.07581" lon="4.42222">
        <ele>899.59997558594</ele>
        <time>2019-08-11T08:46:33.000Z</time>
      </trkpt>
      <trkpt lat="45.07582" lon="4.4222">
        <ele>899.79998779297</ele>
        <time>2019-08-11T08:46:34.000Z</time>
      </trkpt>
      <trkpt lat="45.07587" lon="4.42194">
        <ele>902.20001220703</ele>
        <time>2019-08-11T08:46:52.000Z</time>
      </trkpt>
      <trkpt lat="45.07593" lon="4.42186">
        <ele>903.59997558594</ele>
        <time>2019-08-11T08:47:02.000Z</time>
      </trkpt>
      <trkpt lat="45.07597" lon="4.42185">
        <ele>904</ele>
        <time>2019-08-11T08:47:05.000Z</time>
      </trkpt>
      <trkpt lat="45.07603" lon="4.42169">
        <ele>906</ele>
        <time>2019-08-11T08:47:18.000Z</time>
      </trkpt>
      <trkpt lat="45.07619" lon="4.42146">
        <ele>909</ele>
        <time>2019-08-11T08:47:41.000Z</time>
      </trkpt>
      <trkpt lat="45.07627" lon="4.42132">
        <ele>910.40002441406</ele>
        <time>2019-08-11T08:47:51.000Z</time>
      </trkpt>
      <trkpt lat="45.07628" lon="4.4213">
        <ele>910.40002441406</ele>
        <time>2019-08-11T08:47:52.000Z</time>
      </trkpt>
      <trkpt lat="45.07629" lon="4.42128">
        <ele>910.59997558594</ele>
        <time>2019-08-11T08:47:53.000Z</time>
      </trkpt>
      <trkpt lat="45.07629" lon="4.42126">
        <ele>910.79998779297</ele>
        <time>2019-08-11T08:47:54.000Z</time>
      </trkpt>
      <trkpt lat="45.07631" lon="4.42125">
        <ele>910.79998779297</ele>
        <time>2019-08-11T08:47:55.000Z</time>
      </trkpt>
      <trkpt lat="45.07634" lon="4.42121">
        <ele>911.59997558594</ele>
        <time>2019-08-11T08:47:59.000Z</time>
      </trkpt>
      <trkpt lat="45.07635" lon="4.4212">
        <ele>911.79998779297</ele>
        <time>2019-08-11T08:48:00.000Z</time>
      </trkpt>
      <trkpt lat="45.07637" lon="4.42119">
        <ele>911.79998779297</ele>
        <time>2019-08-11T08:48:01.000Z</time>
      </trkpt>
      <trkpt lat="45.07644" lon="4.42096">
        <ele>913.40002441406</ele>
        <time>2019-08-11T08:48:13.000Z</time>
      </trkpt>
      <trkpt lat="45.07641" lon="4.42081">
        <ele>914</ele>
        <time>2019-08-11T08:48:20.000Z</time>
      </trkpt>
      <trkpt lat="45.0764" lon="4.42079">
        <ele>914.20001220703</ele>
        <time>2019-08-11T08:48:21.000Z</time>
      </trkpt>
      <trkpt lat="45.0764" lon="4.42075">
        <ele>914.40002441406</ele>
        <time>2019-08-11T08:48:24.000Z</time>
      </trkpt>
      <trkpt lat="45.07627" lon="4.42047">
        <ele>917.40002441406</ele>
        <time>2019-08-11T08:48:40.000Z</time>
      </trkpt>
      <trkpt lat="45.07623" lon="4.42015">
        <ele>920.59997558594</ele>
        <time>2019-08-11T08:49:01.000Z</time>
      </trkpt>
      <trkpt lat="45.07624" lon="4.42012">
        <ele>920.79998779297</ele>
        <time>2019-08-11T08:49:03.000Z</time>
      </trkpt>
      <trkpt lat="45.07624" lon="4.4201">
        <ele>920.79998779297</ele>
        <time>2019-08-11T08:49:04.000Z</time>
      </trkpt>
      <trkpt lat="45.07626" lon="4.42002">
        <ele>921.20001220703</ele>
        <time>2019-08-11T08:49:09.000Z</time>
      </trkpt>
      <trkpt lat="45.07631" lon="4.41961">
        <ele>923.40002441406</ele>
        <time>2019-08-11T08:49:28.000Z</time>
      </trkpt>
      <trkpt lat="45.07636" lon="4.41948">
        <ele>924.20001220703</ele>
        <time>2019-08-11T08:49:34.000Z</time>
      </trkpt>
      <trkpt lat="45.07637" lon="4.41948">
        <ele>924.20001220703</ele>
        <time>2019-08-11T08:49:35.000Z</time>
      </trkpt>
      <trkpt lat="45.07638" lon="4.4195">
        <ele>924.59997558594</ele>
        <time>2019-08-11T08:49:36.000Z</time>
      </trkpt>
      <trkpt lat="45.07639" lon="4.41952">
        <ele>924.79998779297</ele>
        <time>2019-08-11T08:49:37.000Z</time>
      </trkpt>
      <trkpt lat="45.07639" lon="4.41953">
        <ele>925.20001220703</ele>
        <time>2019-08-11T08:49:38.000Z</time>
      </trkpt>
      <trkpt lat="45.07638" lon="4.41954">
        <ele>925.40002441406</ele>
        <time>2019-08-11T08:49:39.000Z</time>
      </trkpt>
      <trkpt lat="45.07637" lon="4.41955">
        <ele>925.59997558594</ele>
        <time>2019-08-11T08:49:40.000Z</time>
      </trkpt>
      <trkpt lat="45.07637" lon="4.41956">
        <ele>925.79998779297</ele>
        <time>2019-08-11T08:49:41.000Z</time>
      </trkpt>
      <trkpt lat="45.07636" lon="4.41958">
        <ele>926</ele>
        <time>2019-08-11T08:49:42.000Z</time>
      </trkpt>
      <trkpt lat="45.07636" lon="4.4196">
        <ele>926.20001220703</ele>
        <time>2019-08-11T08:49:43.000Z</time>
      </trkpt>
      <trkpt lat="45.07636" lon="4.41961">
        <ele>926.20001220703</ele>
        <time>2019-08-11T08:49:44.000Z</time>
      </trkpt>
      <trkpt lat="45.07637" lon="4.41965">
        <ele>926.40002441406</ele>
        <time>2019-08-11T08:49:46.000Z</time>
      </trkpt>
      <trkpt lat="45.0764" lon="4.41972">
        <ele>927.40002441406</ele>
        <time>2019-08-11T08:49:51.000Z</time>
      </trkpt>
      <trkpt lat="45.0764" lon="4.41973">
        <ele>927.59997558594</ele>
        <time>2019-08-11T08:49:52.000Z</time>
      </trkpt>
      <trkpt lat="45.0764" lon="4.41975">
        <ele>927.79998779297</ele>
        <time>2019-08-11T08:49:53.000Z</time>
      </trkpt>
      <trkpt lat="45.07644" lon="4.41986">
        <ele>929</ele>
        <time>2019-08-11T08:50:01.000Z</time>
      </trkpt>
      <trkpt lat="45.07645" lon="4.41987">
        <ele>929</ele>
        <time>2019-08-11T08:50:02.000Z</time>
      </trkpt>
      <trkpt lat="45.07645" lon="4.41988">
        <ele>929</ele>
        <time>2019-08-11T08:50:03.000Z</time>
      </trkpt>
      <trkpt lat="45.07646" lon="4.41989">
        <ele>929.20001220703</ele>
        <time>2019-08-11T08:50:04.000Z</time>
      </trkpt>
      <trkpt lat="45.07658" lon="4.42019">
        <ele>932.40002441406</ele>
        <time>2019-08-11T08:50:26.000Z</time>
      </trkpt>
      <trkpt lat="45.07679" lon="4.42034">
        <ele>934.59997558594</ele>
        <time>2019-08-11T08:50:47.000Z</time>
      </trkpt>
      <trkpt lat="45.07679" lon="4.42032">
        <ele>934.79998779297</ele>
        <time>2019-08-11T08:50:49.000Z</time>
      </trkpt>
      <trkpt lat="45.07678" lon="4.42031">
        <ele>935</ele>
        <time>2019-08-11T08:50:50.000Z</time>
      </trkpt>
      <trkpt lat="45.07678" lon="4.4203">
        <ele>935</ele>
        <time>2019-08-11T08:50:51.000Z</time>
      </trkpt>
      <trkpt lat="45.07673" lon="4.41993">
        <ele>938.20001220703</ele>
        <time>2019-08-11T08:51:12.000Z</time>
      </trkpt>
      <trkpt lat="45.07681" lon="4.41948">
        <ele>941.20001220703</ele>
        <time>2019-08-11T08:51:33.000Z</time>
      </trkpt>
      <trkpt lat="45.07698" lon="4.41876">
        <ele>944.20001220703</ele>
        <time>2019-08-11T08:52:00.000Z</time>
      </trkpt>
      <trkpt lat="45.07712" lon="4.41838">
        <ele>947.40002441406</ele>
        <time>2019-08-11T08:52:20.000Z</time>
      </trkpt>
      <trkpt lat="45.07729" lon="4.41767">
        <ele>950.40002441406</ele>
        <time>2019-08-11T08:52:50.000Z</time>
      </trkpt>
      <trkpt lat="45.07732" lon="4.41755">
        <ele>951.20001220703</ele>
        <time>2019-08-11T08:52:56.000Z</time>
      </trkpt>
      <trkpt lat="45.07735" lon="4.41701">
        <ele>954.20001220703</ele>
        <time>2019-08-11T08:53:21.000Z</time>
      </trkpt>
      <trkpt lat="45.07722" lon="4.41669">
        <ele>957.20001220703</ele>
        <time>2019-08-11T08:53:39.000Z</time>
      </trkpt>
      <trkpt lat="45.0772" lon="4.41646">
        <ele>959.20001220703</ele>
        <time>2019-08-11T08:53:49.000Z</time>
      </trkpt>
      <trkpt lat="45.07722" lon="4.41642">
        <ele>959.40002441406</ele>
        <time>2019-08-11T08:53:53.000Z</time>
      </trkpt>
      <trkpt lat="45.07724" lon="4.41641">
        <ele>959.59997558594</ele>
        <time>2019-08-11T08:53:54.000Z</time>
      </trkpt>
      <trkpt lat="45.07725" lon="4.4164">
        <ele>959.59997558594</ele>
        <time>2019-08-11T08:53:55.000Z</time>
      </trkpt>
      <trkpt lat="45.07726" lon="4.41639">
        <ele>959.59997558594</ele>
        <time>2019-08-11T08:53:56.000Z</time>
      </trkpt>
      <trkpt lat="45.07727" lon="4.41639">
        <ele>960</ele>
        <time>2019-08-11T08:53:57.000Z</time>
      </trkpt>
      <trkpt lat="45.07728" lon="4.41638">
        <ele>960.20001220703</ele>
        <time>2019-08-11T08:53:58.000Z</time>
      </trkpt>
      <trkpt lat="45.07729" lon="4.41637">
        <ele>960.40002441406</ele>
        <time>2019-08-11T08:53:59.000Z</time>
      </trkpt>
      <trkpt lat="45.0773" lon="4.41637">
        <ele>960.59997558594</ele>
        <time>2019-08-11T08:54:00.000Z</time>
      </trkpt>
      <trkpt lat="45.0773" lon="4.41637">
        <ele>960.79998779297</ele>
        <time>2019-08-11T08:54:01.000Z</time>
      </trkpt>
      <trkpt lat="45.07743" lon="4.41634">
        <ele>963.20001220703</ele>
        <time>2019-08-11T08:54:14.000Z</time>
      </trkpt>
      <trkpt lat="45.07753" lon="4.41628">
        <ele>965.59997558594</ele>
        <time>2019-08-11T08:54:26.000Z</time>
      </trkpt>
      <trkpt lat="45.07758" lon="4.41624">
        <ele>966</ele>
        <time>2019-08-11T08:54:32.000Z</time>
      </trkpt>
      <trkpt lat="45.07759" lon="4.41624">
        <ele>966</ele>
        <time>2019-08-11T08:54:33.000Z</time>
      </trkpt>
      <trkpt lat="45.07773" lon="4.41616">
        <ele>968.40002441406</ele>
        <time>2019-08-11T08:54:47.000Z</time>
      </trkpt>
      <trkpt lat="45.07774" lon="4.41615">
        <ele>968.79998779297</ele>
        <time>2019-08-11T08:54:48.000Z</time>
      </trkpt>
      <trkpt lat="45.07775" lon="4.41614">
        <ele>969</ele>
        <time>2019-08-11T08:54:49.000Z</time>
      </trkpt>
      <trkpt lat="45.07775" lon="4.41612">
        <ele>969</ele>
        <time>2019-08-11T08:54:50.000Z</time>
      </trkpt>
      <trkpt lat="45.07794" lon="4.41601">
        <ele>972.20001220703</ele>
        <time>2019-08-11T08:55:09.000Z</time>
      </trkpt>
      <trkpt lat="45.07795" lon="4.416">
        <ele>972.40002441406</ele>
        <time>2019-08-11T08:55:10.000Z</time>
      </trkpt>
      <trkpt lat="45.07796" lon="4.416">
        <ele>972.40002441406</ele>
        <time>2019-08-11T08:55:11.000Z</time>
      </trkpt>
      <trkpt lat="45.07797" lon="4.41599">
        <ele>972.59997558594</ele>
        <time>2019-08-11T08:55:12.000Z</time>
      </trkpt>
      <trkpt lat="45.07799" lon="4.41599">
        <ele>972.79998779297</ele>
        <time>2019-08-11T08:55:14.000Z</time>
      </trkpt>
      <trkpt lat="45.078" lon="4.41597">
        <ele>972.79998779297</ele>
        <time>2019-08-11T08:55:15.000Z</time>
      </trkpt>
      <trkpt lat="45.07801" lon="4.41597">
        <ele>973</ele>
        <time>2019-08-11T08:55:16.000Z</time>
      </trkpt>
      <trkpt lat="45.07804" lon="4.41585">
        <ele>973.59997558594</ele>
        <time>2019-08-11T08:55:25.000Z</time>
      </trkpt>
      <trkpt lat="45.07804" lon="4.41584">
        <ele>973.79998779297</ele>
        <time>2019-08-11T08:55:26.000Z</time>
      </trkpt>
      <trkpt lat="45.07803" lon="4.41583">
        <ele>974</ele>
        <time>2019-08-11T08:55:27.000Z</time>
      </trkpt>
      <trkpt lat="45.07802" lon="4.41581">
        <ele>974.20001220703</ele>
        <time>2019-08-11T08:55:28.000Z</time>
      </trkpt>
      <trkpt lat="45.07801" lon="4.4158">
        <ele>974.40002441406</ele>
        <time>2019-08-11T08:55:29.000Z</time>
      </trkpt>
      <trkpt lat="45.078" lon="4.41578">
        <ele>974.59997558594</ele>
        <time>2019-08-11T08:55:30.000Z</time>
      </trkpt>
      <trkpt lat="45.078" lon="4.41577">
        <ele>974.79998779297</ele>
        <time>2019-08-11T08:55:31.000Z</time>
      </trkpt>
      <trkpt lat="45.0778" lon="4.41546">
        <ele>977.79998779297</ele>
        <time>2019-08-11T08:55:52.000Z</time>
      </trkpt>
      <trkpt lat="45.07772" lon="4.41503">
        <ele>980.79998779297</ele>
        <time>2019-08-11T08:56:15.000Z</time>
      </trkpt>
      <trkpt lat="45.07769" lon="4.41464">
        <ele>984</ele>
        <time>2019-08-11T08:56:36.000Z</time>
      </trkpt>
      <trkpt lat="45.07762" lon="4.41429">
        <ele>987</ele>
        <time>2019-08-11T08:56:55.000Z</time>
      </trkpt>
      <trkpt lat="45.07751" lon="4.41392">
        <ele>990.20001220703</ele>
        <time>2019-08-11T08:57:18.000Z</time>
      </trkpt>
      <trkpt lat="45.07749" lon="4.41383">
        <ele>990.79998779297</ele>
        <time>2019-08-11T08:57:24.000Z</time>
      </trkpt>
      <trkpt lat="45.07749" lon="4.41369">
        <ele>992.40002441406</ele>
        <time>2019-08-11T08:57:32.000Z</time>
      </trkpt>
      <trkpt lat="45.0775" lon="4.41367">
        <ele>992.59997558594</ele>
        <time>2019-08-11T08:57:33.000Z</time>
      </trkpt>
      <trkpt lat="45.0775" lon="4.41366">
        <ele>992.79998779297</ele>
        <time>2019-08-11T08:57:34.000Z</time>
      </trkpt>
      <trkpt lat="45.07749" lon="4.41362">
        <ele>993</ele>
        <time>2019-08-11T08:57:36.000Z</time>
      </trkpt>
      <trkpt lat="45.07749" lon="4.41361">
        <ele>993.20001220703</ele>
        <time>2019-08-11T08:57:37.000Z</time>
      </trkpt>
      <trkpt lat="45.07748" lon="4.41359">
        <ele>993.40002441406</ele>
        <time>2019-08-11T08:57:38.000Z</time>
      </trkpt>
      <trkpt lat="45.07747" lon="4.41358">
        <ele>993.59997558594</ele>
        <time>2019-08-11T08:57:39.000Z</time>
      </trkpt>
      <trkpt lat="45.07746" lon="4.41356">
        <ele>993.79998779297</ele>
        <time>2019-08-11T08:57:40.000Z</time>
      </trkpt>
      <trkpt lat="45.07746" lon="4.41355">
        <ele>993.79998779297</ele>
        <time>2019-08-11T08:57:41.000Z</time>
      </trkpt>
      <trkpt lat="45.07745" lon="4.41354">
        <ele>994</ele>
        <time>2019-08-11T08:57:42.000Z</time>
      </trkpt>
      <trkpt lat="45.07738" lon="4.41346">
        <ele>996.20001220703</ele>
        <time>2019-08-11T08:57:51.000Z</time>
      </trkpt>
      <trkpt lat="45.07737" lon="4.41345">
        <ele>996.79998779297</ele>
        <time>2019-08-11T08:57:54.000Z</time>
      </trkpt>
      <trkpt lat="45.07736" lon="4.41344">
        <ele>997</ele>
        <time>2019-08-11T08:57:55.000Z</time>
      </trkpt>
      <trkpt lat="45.07736" lon="4.41343">
        <ele>997.20001220703</ele>
        <time>2019-08-11T08:57:56.000Z</time>
      </trkpt>
      <trkpt lat="45.07727" lon="4.41334">
        <ele>999</ele>
        <time>2019-08-11T08:58:04.000Z</time>
      </trkpt>
      <trkpt lat="45.07726" lon="4.41333">
        <ele>999.40002441406</ele>
        <time>2019-08-11T08:58:05.000Z</time>
      </trkpt>
      <trkpt lat="45.07724" lon="4.41332">
        <ele>999.59997558594</ele>
        <time>2019-08-11T08:58:06.000Z</time>
      </trkpt>
      <trkpt lat="45.07715" lon="4.41322">
        <ele>1001.799987793</ele>
        <time>2019-08-11T08:58:22.000Z</time>
      </trkpt>
      <trkpt lat="45.07712" lon="4.41318">
        <ele>1002.4000244141</ele>
        <time>2019-08-11T08:58:26.000Z</time>
      </trkpt>
      <trkpt lat="45.07711" lon="4.41318">
        <ele>1002.5999755859</ele>
        <time>2019-08-11T08:58:27.000Z</time>
      </trkpt>
      <trkpt lat="45.07709" lon="4.41316">
        <ele>1003</ele>
        <time>2019-08-11T08:58:30.000Z</time>
      </trkpt>
      <trkpt lat="45.07708" lon="4.41315">
        <ele>1003.200012207</ele>
        <time>2019-08-11T08:58:31.000Z</time>
      </trkpt>
      <trkpt lat="45.07693" lon="4.41297">
        <ele>1006.200012207</ele>
        <time>2019-08-11T08:58:52.000Z</time>
      </trkpt>
      <trkpt lat="45.07681" lon="4.4129">
        <ele>1008</ele>
        <time>2019-08-11T08:59:04.000Z</time>
      </trkpt>
      <trkpt lat="45.07664" lon="4.41274">
        <ele>1011</ele>
        <time>2019-08-11T08:59:22.000Z</time>
      </trkpt>
      <trkpt lat="45.07658" lon="4.4127">
        <ele>1012</ele>
        <time>2019-08-11T08:59:29.000Z</time>
      </trkpt>
      <trkpt lat="45.0765" lon="4.41266">
        <ele>1013.5999755859</ele>
        <time>2019-08-11T08:59:38.000Z</time>
      </trkpt>
      <trkpt lat="45.07645" lon="4.4126">
        <ele>1014</ele>
        <time>2019-08-11T08:59:42.000Z</time>
      </trkpt>
      <trkpt lat="45.07644" lon="4.41259">
        <ele>1014</ele>
        <time>2019-08-11T08:59:43.000Z</time>
      </trkpt>
      <trkpt lat="45.07643" lon="4.41257">
        <ele>1014.200012207</ele>
        <time>2019-08-11T08:59:44.000Z</time>
      </trkpt>
      <trkpt lat="45.07642" lon="4.41256">
        <ele>1014.4000244141</ele>
        <time>2019-08-11T08:59:45.000Z</time>
      </trkpt>
      <trkpt lat="45.07641" lon="4.41254">
        <ele>1014.5999755859</ele>
        <time>2019-08-11T08:59:46.000Z</time>
      </trkpt>
      <trkpt lat="45.07632" lon="4.41244">
        <ele>1016.4000244141</ele>
        <time>2019-08-11T08:59:57.000Z</time>
      </trkpt>
      <trkpt lat="45.0763" lon="4.41242">
        <ele>1016.799987793</ele>
        <time>2019-08-11T08:59:59.000Z</time>
      </trkpt>
      <trkpt lat="45.07625" lon="4.41229">
        <ele>1017.799987793</ele>
        <time>2019-08-11T09:00:08.000Z</time>
      </trkpt>
      <trkpt lat="45.07622" lon="4.41223">
        <ele>1018.4000244141</ele>
        <time>2019-08-11T09:00:11.000Z</time>
      </trkpt>
      <trkpt lat="45.07621" lon="4.4122">
        <ele>1018.5999755859</ele>
        <time>2019-08-11T09:00:13.000Z</time>
      </trkpt>
      <trkpt lat="45.07604" lon="4.41189">
        <ele>1021.5999755859</ele>
        <time>2019-08-11T09:00:35.000Z</time>
      </trkpt>
      <trkpt lat="45.07589" lon="4.41169">
        <ele>1023.200012207</ele>
        <time>2019-08-11T09:00:50.000Z</time>
      </trkpt>
      <trkpt lat="45.07588" lon="4.41167">
        <ele>1023.4000244141</ele>
        <time>2019-08-11T09:00:51.000Z</time>
      </trkpt>
      <trkpt lat="45.07588" lon="4.41166">
        <ele>1023.5999755859</ele>
        <time>2019-08-11T09:00:52.000Z</time>
      </trkpt>
      <trkpt lat="45.07582" lon="4.41144">
        <ele>1026.5999755859</ele>
        <time>2019-08-11T09:01:10.000Z</time>
      </trkpt>
      <trkpt lat="45.07562" lon="4.41104">
        <ele>1029.8000488281</ele>
        <time>2019-08-11T09:01:30.000Z</time>
      </trkpt>
      <trkpt lat="45.07564" lon="4.41094">
        <ele>1031.1999511719</ele>
        <time>2019-08-11T09:01:37.000Z</time>
      </trkpt>
      <trkpt lat="45.07564" lon="4.41092">
        <ele>1031.4000244141</ele>
        <time>2019-08-11T09:01:38.000Z</time>
      </trkpt>
      <trkpt lat="45.07564" lon="4.41091">
        <ele>1031.5999755859</ele>
        <time>2019-08-11T09:01:39.000Z</time>
      </trkpt>
      <trkpt lat="45.07564" lon="4.41089">
        <ele>1031.8000488281</ele>
        <time>2019-08-11T09:01:40.000Z</time>
      </trkpt>
      <trkpt lat="45.07563" lon="4.41082">
        <ele>1032.5999755859</ele>
        <time>2019-08-11T09:01:45.000Z</time>
      </trkpt>
      <trkpt lat="45.07563" lon="4.4108">
        <ele>1032.8000488281</ele>
        <time>2019-08-11T09:01:46.000Z</time>
      </trkpt>
      <trkpt lat="45.07563" lon="4.41078">
        <ele>1033</ele>
        <time>2019-08-11T09:01:47.000Z</time>
      </trkpt>
      <trkpt lat="45.07563" lon="4.41076">
        <ele>1033.1999511719</ele>
        <time>2019-08-11T09:01:48.000Z</time>
      </trkpt>
      <trkpt lat="45.07564" lon="4.41074">
        <ele>1033.4000244141</ele>
        <time>2019-08-11T09:01:49.000Z</time>
      </trkpt>
      <trkpt lat="45.07564" lon="4.41072">
        <ele>1033.5999755859</ele>
        <time>2019-08-11T09:01:50.000Z</time>
      </trkpt>
      <trkpt lat="45.07564" lon="4.4107">
        <ele>1033.5999755859</ele>
        <time>2019-08-11T09:01:51.000Z</time>
      </trkpt>
      <trkpt lat="45.07564" lon="4.41069">
        <ele>1033.8000488281</ele>
        <time>2019-08-11T09:01:52.000Z</time>
      </trkpt>
      <trkpt lat="45.07564" lon="4.41067">
        <ele>1034</ele>
        <time>2019-08-11T09:01:53.000Z</time>
      </trkpt>
      <trkpt lat="45.07559" lon="4.41038">
        <ele>1037.4000244141</ele>
        <time>2019-08-11T09:02:12.000Z</time>
      </trkpt>
      <trkpt lat="45.07558" lon="4.41017">
        <ele>1039.5999755859</ele>
        <time>2019-08-11T09:02:24.000Z</time>
      </trkpt>
      <trkpt lat="45.07558" lon="4.41016">
        <ele>1039.8000488281</ele>
        <time>2019-08-11T09:02:25.000Z</time>
      </trkpt>
      <trkpt lat="45.07558" lon="4.41014">
        <ele>1040.1999511719</ele>
        <time>2019-08-11T09:02:26.000Z</time>
      </trkpt>
      <trkpt lat="45.07557" lon="4.41013">
        <ele>1040.1999511719</ele>
        <time>2019-08-11T09:02:27.000Z</time>
      </trkpt>
      <trkpt lat="45.07558" lon="4.41011">
        <ele>1040.4000244141</ele>
        <time>2019-08-11T09:02:28.000Z</time>
      </trkpt>
      <trkpt lat="45.07558" lon="4.4101">
        <ele>1040.4000244141</ele>
        <time>2019-08-11T09:02:29.000Z</time>
      </trkpt>
      <trkpt lat="45.07557" lon="4.41001">
        <ele>1041.8000488281</ele>
        <time>2019-08-11T09:02:36.000Z</time>
      </trkpt>
      <trkpt lat="45.07557" lon="4.40999">
        <ele>1042.1999511719</ele>
        <time>2019-08-11T09:02:38.000Z</time>
      </trkpt>
      <trkpt lat="45.07559" lon="4.40994">
        <ele>1043.1999511719</ele>
        <time>2019-08-11T09:02:44.000Z</time>
      </trkpt>
      <trkpt lat="45.0756" lon="4.40993">
        <ele>1043.4000244141</ele>
        <time>2019-08-11T09:02:45.000Z</time>
      </trkpt>
      <trkpt lat="45.07568" lon="4.40975">
        <ele>1046.5999755859</ele>
        <time>2019-08-11T09:03:01.000Z</time>
      </trkpt>
      <trkpt lat="45.0757" lon="4.40972">
        <ele>1047.4000244141</ele>
        <time>2019-08-11T09:03:05.000Z</time>
      </trkpt>
      <trkpt lat="45.07575" lon="4.40955">
        <ele>1050</ele>
        <time>2019-08-11T09:03:21.000Z</time>
      </trkpt>
      <trkpt lat="45.07575" lon="4.40943">
        <ele>1051</ele>
        <time>2019-08-11T09:03:30.000Z</time>
      </trkpt>
      <trkpt lat="45.07576" lon="4.40942">
        <ele>1051.1999511719</ele>
        <time>2019-08-11T09:03:31.000Z</time>
      </trkpt>
      <trkpt lat="45.07577" lon="4.40935">
        <ele>1052</ele>
        <time>2019-08-11T09:03:36.000Z</time>
      </trkpt>
      <trkpt lat="45.07579" lon="4.40931">
        <ele>1052.5999755859</ele>
        <time>2019-08-11T09:03:39.000Z</time>
      </trkpt>
      <trkpt lat="45.0758" lon="4.40928">
        <ele>1053</ele>
        <time>2019-08-11T09:03:41.000Z</time>
      </trkpt>
      <trkpt lat="45.0758" lon="4.40908">
        <ele>1055.1999511719</ele>
        <time>2019-08-11T09:03:54.000Z</time>
      </trkpt>
      <trkpt lat="45.0758" lon="4.40906">
        <ele>1055.4000244141</ele>
        <time>2019-08-11T09:03:55.000Z</time>
      </trkpt>
      <trkpt lat="45.0758" lon="4.40904">
        <ele>1055.4000244141</ele>
        <time>2019-08-11T09:03:56.000Z</time>
      </trkpt>
      <trkpt lat="45.0758" lon="4.40903">
        <ele>1055.5999755859</ele>
        <time>2019-08-11T09:03:57.000Z</time>
      </trkpt>
      <trkpt lat="45.07581" lon="4.40901">
        <ele>1056</ele>
        <time>2019-08-11T09:03:58.000Z</time>
      </trkpt>
      <trkpt lat="45.07582" lon="4.409">
        <ele>1056.1999511719</ele>
        <time>2019-08-11T09:03:59.000Z</time>
      </trkpt>
      <trkpt lat="45.07582" lon="4.40899">
        <ele>1056.4000244141</ele>
        <time>2019-08-11T09:04:00.000Z</time>
      </trkpt>
      <trkpt lat="45.07584" lon="4.40898">
        <ele>1056.5999755859</ele>
        <time>2019-08-11T09:04:01.000Z</time>
      </trkpt>
      <trkpt lat="45.07585" lon="4.40898">
        <ele>1056.8000488281</ele>
        <time>2019-08-11T09:04:02.000Z</time>
      </trkpt>
      <trkpt lat="45.07586" lon="4.40898">
        <ele>1057</ele>
        <time>2019-08-11T09:04:03.000Z</time>
      </trkpt>
      <trkpt lat="45.07587" lon="4.40898">
        <ele>1057.4000244141</ele>
        <time>2019-08-11T09:04:04.000Z</time>
      </trkpt>
      <trkpt lat="45.0759" lon="4.409">
        <ele>1058.4000244141</ele>
        <time>2019-08-11T09:04:08.000Z</time>
      </trkpt>
      <trkpt lat="45.0759" lon="4.40901">
        <ele>1058.8000488281</ele>
        <time>2019-08-11T09:04:09.000Z</time>
      </trkpt>
      <trkpt lat="45.0759" lon="4.40903">
        <ele>1058.8000488281</ele>
        <time>2019-08-11T09:04:10.000Z</time>
      </trkpt>
      <trkpt lat="45.0759" lon="4.40905">
        <ele>1059</ele>
        <time>2019-08-11T09:04:11.000Z</time>
      </trkpt>
      <trkpt lat="45.0759" lon="4.40906">
        <ele>1059.1999511719</ele>
        <time>2019-08-11T09:04:12.000Z</time>
      </trkpt>
      <trkpt lat="45.076" lon="4.40924">
        <ele>1061.1999511719</ele>
        <time>2019-08-11T09:04:28.000Z</time>
      </trkpt>
      <trkpt lat="45.07602" lon="4.40927">
        <ele>1061.8000488281</ele>
        <time>2019-08-11T09:04:32.000Z</time>
      </trkpt>
      <trkpt lat="45.07603" lon="4.40928">
        <ele>1061.8000488281</ele>
        <time>2019-08-11T09:04:33.000Z</time>
      </trkpt>
      <trkpt lat="45.07606" lon="4.4093">
        <ele>1062.1999511719</ele>
        <time>2019-08-11T09:04:36.000Z</time>
      </trkpt>
      <trkpt lat="45.07611" lon="4.40934">
        <ele>1063.1999511719</ele>
        <time>2019-08-11T09:04:42.000Z</time>
      </trkpt>
      <trkpt lat="45.07612" lon="4.40936">
        <ele>1063.4000244141</ele>
        <time>2019-08-11T09:04:43.000Z</time>
      </trkpt>
      <trkpt lat="45.07616" lon="4.40942">
        <ele>1064.4000244141</ele>
        <time>2019-08-11T09:04:48.000Z</time>
      </trkpt>
      <trkpt lat="45.07618" lon="4.40946">
        <ele>1064.8000488281</ele>
        <time>2019-08-11T09:04:52.000Z</time>
      </trkpt>
      <trkpt lat="45.07619" lon="4.40947">
        <ele>1065</ele>
        <time>2019-08-11T09:04:53.000Z</time>
      </trkpt>
      <trkpt lat="45.07624" lon="4.40953">
        <ele>1066.8000488281</ele>
        <time>2019-08-11T09:05:01.000Z</time>
      </trkpt>
      <trkpt lat="45.07638" lon="4.40962">
        <ele>1069.8000488281</ele>
        <time>2019-08-11T09:05:19.000Z</time>
      </trkpt>
      <trkpt lat="45.0765" lon="4.40973">
        <ele>1072.1999511719</ele>
        <time>2019-08-11T09:05:35.000Z</time>
      </trkpt>
      <trkpt lat="45.07651" lon="4.40973">
        <ele>1072.4000244141</ele>
        <time>2019-08-11T09:05:36.000Z</time>
      </trkpt>
      <trkpt lat="45.07652" lon="4.40974">
        <ele>1072.5999755859</ele>
        <time>2019-08-11T09:05:37.000Z</time>
      </trkpt>
      <trkpt lat="45.07653" lon="4.40974">
        <ele>1072.8000488281</ele>
        <time>2019-08-11T09:05:38.000Z</time>
      </trkpt>
      <trkpt lat="45.07654" lon="4.40975">
        <ele>1073</ele>
        <time>2019-08-11T09:05:39.000Z</time>
      </trkpt>
      <trkpt lat="45.07655" lon="4.40976">
        <ele>1073.1999511719</ele>
        <time>2019-08-11T09:05:40.000Z</time>
      </trkpt>
      <trkpt lat="45.07656" lon="4.40976">
        <ele>1073.4000244141</ele>
        <time>2019-08-11T09:05:41.000Z</time>
      </trkpt>
      <trkpt lat="45.07657" lon="4.40977">
        <ele>1073.5999755859</ele>
        <time>2019-08-11T09:05:42.000Z</time>
      </trkpt>
      <trkpt lat="45.07658" lon="4.40977">
        <ele>1073.5999755859</ele>
        <time>2019-08-11T09:05:43.000Z</time>
      </trkpt>
      <trkpt lat="45.07672" lon="4.40982">
        <ele>1076.8000488281</ele>
        <time>2019-08-11T09:05:59.000Z</time>
      </trkpt>
      <trkpt lat="45.07688" lon="4.40982">
        <ele>1079</ele>
        <time>2019-08-11T09:06:15.000Z</time>
      </trkpt>
      <trkpt lat="45.07711" lon="4.40973">
        <ele>1082</ele>
        <time>2019-08-11T09:06:37.000Z</time>
      </trkpt>
      <trkpt lat="45.07724" lon="4.4096">
        <ele>1083.5999755859</ele>
        <time>2019-08-11T09:06:50.000Z</time>
      </trkpt>
      <trkpt lat="45.07751" lon="4.40946">
        <ele>1086.5999755859</ele>
        <time>2019-08-11T09:07:11.000Z</time>
      </trkpt>
      <trkpt lat="45.0777" lon="4.40932">
        <ele>1089.8000488281</ele>
        <time>2019-08-11T09:07:30.000Z</time>
      </trkpt>
      <trkpt lat="45.07783" lon="4.40917">
        <ele>1091</ele>
        <time>2019-08-11T09:07:40.000Z</time>
      </trkpt>
      <trkpt lat="45.07827" lon="4.40866">
        <ele>1092.5999755859</ele>
        <time>2019-08-11T09:08:04.000Z</time>
      </trkpt>
      <trkpt lat="45.07869" lon="4.4084">
        <ele>1093.8000488281</ele>
        <time>2019-08-11T09:08:25.000Z</time>
      </trkpt>
      <trkpt lat="45.0789" lon="4.4082">
        <ele>1096.1999511719</ele>
        <time>2019-08-11T09:08:36.000Z</time>
      </trkpt>
      <trkpt lat="45.0789" lon="4.40818">
        <ele>1096.1999511719</ele>
        <time>2019-08-11T09:08:37.000Z</time>
      </trkpt>
      <trkpt lat="45.07893" lon="4.40814">
        <ele>1096.1999511719</ele>
        <time>2019-08-11T09:08:44.000Z</time>
      </trkpt>
      <trkpt lat="45.07892" lon="4.40812">
        <ele>1096</ele>
        <time>2019-08-11T09:08:47.000Z</time>
      </trkpt>
      <trkpt lat="45.07911" lon="4.408">
        <ele>1095.8000488281</ele>
        <time>2019-08-11T09:10:25.000Z</time>
      </trkpt>
      <trkpt lat="45.07913" lon="4.40799">
        <ele>1095.8000488281</ele>
        <time>2019-08-11T09:10:26.000Z</time>
      </trkpt>
      <trkpt lat="45.0792" lon="4.40795">
        <ele>1095.8000488281</ele>
        <time>2019-08-11T09:10:30.000Z</time>
      </trkpt>
      <trkpt lat="45.07931" lon="4.40788">
        <ele>1095.8000488281</ele>
        <time>2019-08-11T09:10:35.000Z</time>
      </trkpt>
      <trkpt lat="45.07968" lon="4.40762">
        <ele>1097.1999511719</ele>
        <time>2019-08-11T09:10:55.000Z</time>
      </trkpt>
      <trkpt lat="45.07975" lon="4.40754">
        <ele>1097.8000488281</ele>
        <time>2019-08-11T09:10:59.000Z</time>
      </trkpt>
      <trkpt lat="45.07985" lon="4.4074">
        <ele>1099.5999755859</ele>
        <time>2019-08-11T09:11:08.000Z</time>
      </trkpt>
      <trkpt lat="45.07991" lon="4.40736">
        <ele>1100.5999755859</ele>
        <time>2019-08-11T09:11:12.000Z</time>
      </trkpt>
      <trkpt lat="45.07994" lon="4.40735">
        <ele>1101.1999511719</ele>
        <time>2019-08-11T09:11:14.000Z</time>
      </trkpt>
      <trkpt lat="45.07997" lon="4.40732">
        <ele>1101.8000488281</ele>
        <time>2019-08-11T09:11:17.000Z</time>
      </trkpt>
      <trkpt lat="45.07999" lon="4.4073">
        <ele>1102.4000244141</ele>
        <time>2019-08-11T09:11:20.000Z</time>
      </trkpt>
      <trkpt lat="45.08" lon="4.40729">
        <ele>1102.5999755859</ele>
        <time>2019-08-11T09:11:21.000Z</time>
      </trkpt>
      <trkpt lat="45.08001" lon="4.40728">
        <ele>1103</ele>
        <time>2019-08-11T09:11:22.000Z</time>
      </trkpt>
      <trkpt lat="45.08001" lon="4.40727">
        <ele>1103</ele>
        <time>2019-08-11T09:11:23.000Z</time>
      </trkpt>
      <trkpt lat="45.08002" lon="4.40726">
        <ele>1103.1999511719</ele>
        <time>2019-08-11T09:11:24.000Z</time>
      </trkpt>
      <trkpt lat="45.08003" lon="4.40725">
        <ele>1103.4000244141</ele>
        <time>2019-08-11T09:11:25.000Z</time>
      </trkpt>
      <trkpt lat="45.08005" lon="4.40722">
        <ele>1104.4000244141</ele>
        <time>2019-08-11T09:11:29.000Z</time>
      </trkpt>
      <trkpt lat="45.08006" lon="4.40721">
        <ele>1104.5999755859</ele>
        <time>2019-08-11T09:11:30.000Z</time>
      </trkpt>
      <trkpt lat="45.08007" lon="4.40721">
        <ele>1104.8000488281</ele>
        <time>2019-08-11T09:11:31.000Z</time>
      </trkpt>
      <trkpt lat="45.08008" lon="4.4072">
        <ele>1105</ele>
        <time>2019-08-11T09:11:32.000Z</time>
      </trkpt>
      <trkpt lat="45.08009" lon="4.40719">
        <ele>1105.1999511719</ele>
        <time>2019-08-11T09:11:33.000Z</time>
      </trkpt>
      <trkpt lat="45.0801" lon="4.40719">
        <ele>1105.4000244141</ele>
        <time>2019-08-11T09:11:34.000Z</time>
      </trkpt>
      <trkpt lat="45.08012" lon="4.40718">
        <ele>1105.5999755859</ele>
        <time>2019-08-11T09:11:35.000Z</time>
      </trkpt>
      <trkpt lat="45.08017" lon="4.40712">
        <ele>1107.1999511719</ele>
        <time>2019-08-11T09:11:42.000Z</time>
      </trkpt>
      <trkpt lat="45.08018" lon="4.4071">
        <ele>1107.8000488281</ele>
        <time>2019-08-11T09:11:44.000Z</time>
      </trkpt>
      <trkpt lat="45.0802" lon="4.40709">
        <ele>1108.1999511719</ele>
        <time>2019-08-11T09:11:47.000Z</time>
      </trkpt>
      <trkpt lat="45.08021" lon="4.40708">
        <ele>1108.4000244141</ele>
        <time>2019-08-11T09:11:48.000Z</time>
      </trkpt>
      <trkpt lat="45.08032" lon="4.40701">
        <ele>1110.1999511719</ele>
        <time>2019-08-11T09:12:00.000Z</time>
      </trkpt>
      <trkpt lat="45.08034" lon="4.40695">
        <ele>1111.1999511719</ele>
        <time>2019-08-11T09:12:06.000Z</time>
      </trkpt>
      <trkpt lat="45.08036" lon="4.40694">
        <ele>1111.4000244141</ele>
        <time>2019-08-11T09:12:07.000Z</time>
      </trkpt>
      <trkpt lat="45.08037" lon="4.40693">
        <ele>1111.5999755859</ele>
        <time>2019-08-11T09:12:08.000Z</time>
      </trkpt>
      <trkpt lat="45.08038" lon="4.40692">
        <ele>1111.8000488281</ele>
        <time>2019-08-11T09:12:09.000Z</time>
      </trkpt>
      <trkpt lat="45.08039" lon="4.40691">
        <ele>1112</ele>
        <time>2019-08-11T09:12:10.000Z</time>
      </trkpt>
      <trkpt lat="45.0804" lon="4.4069">
        <ele>1112.1999511719</ele>
        <time>2019-08-11T09:12:11.000Z</time>
      </trkpt>
      <trkpt lat="45.0804" lon="4.40688">
        <ele>1112.4000244141</ele>
        <time>2019-08-11T09:12:12.000Z</time>
      </trkpt>
      <trkpt lat="45.08056" lon="4.40672">
        <ele>1115.4000244141</ele>
        <time>2019-08-11T09:12:30.000Z</time>
      </trkpt>
      <trkpt lat="45.0807" lon="4.40655">
        <ele>1118.4000244141</ele>
        <time>2019-08-11T09:12:49.000Z</time>
      </trkpt>
      <trkpt lat="45.0807" lon="4.40654">
        <ele>1118.5999755859</ele>
        <time>2019-08-11T09:12:50.000Z</time>
      </trkpt>
      <trkpt lat="45.08071" lon="4.40651">
        <ele>1119.1999511719</ele>
        <time>2019-08-11T09:12:52.000Z</time>
      </trkpt>
      <trkpt lat="45.08071" lon="4.40649">
        <ele>1119.4000244141</ele>
        <time>2019-08-11T09:12:53.000Z</time>
      </trkpt>
      <trkpt lat="45.08073" lon="4.4064">
        <ele>1120.5999755859</ele>
        <time>2019-08-11T09:12:59.000Z</time>
      </trkpt>
      <trkpt lat="45.08069" lon="4.40632">
        <ele>1122</ele>
        <time>2019-08-11T09:13:06.000Z</time>
      </trkpt>
      <trkpt lat="45.08069" lon="4.4063">
        <ele>1122.1999511719</ele>
        <time>2019-08-11T09:13:07.000Z</time>
      </trkpt>
      <trkpt lat="45.08068" lon="4.40629">
        <ele>1122.4000244141</ele>
        <time>2019-08-11T09:13:08.000Z</time>
      </trkpt>
      <trkpt lat="45.08068" lon="4.40628">
        <ele>1122.5999755859</ele>
        <time>2019-08-11T09:13:09.000Z</time>
      </trkpt>
      <trkpt lat="45.08068" lon="4.40626">
        <ele>1122.8000488281</ele>
        <time>2019-08-11T09:13:10.000Z</time>
      </trkpt>
      <trkpt lat="45.08068" lon="4.40624">
        <ele>1123</ele>
        <time>2019-08-11T09:13:12.000Z</time>
      </trkpt>
      <trkpt lat="45.08068" lon="4.40623">
        <ele>1123.1999511719</ele>
        <time>2019-08-11T09:13:13.000Z</time>
      </trkpt>
      <trkpt lat="45.08068" lon="4.40619">
        <ele>1124</ele>
        <time>2019-08-11T09:13:17.000Z</time>
      </trkpt>
      <trkpt lat="45.08068" lon="4.40618">
        <ele>1124.1999511719</ele>
        <time>2019-08-11T09:13:18.000Z</time>
      </trkpt>
      <trkpt lat="45.08068" lon="4.40616">
        <ele>1124.1999511719</ele>
        <time>2019-08-11T09:13:19.000Z</time>
      </trkpt>
      <trkpt lat="45.08068" lon="4.40615">
        <ele>1124.5999755859</ele>
        <time>2019-08-11T09:13:20.000Z</time>
      </trkpt>
      <trkpt lat="45.08066" lon="4.40605">
        <ele>1125.8000488281</ele>
        <time>2019-08-11T09:13:28.000Z</time>
      </trkpt>
      <trkpt lat="45.08066" lon="4.40604">
        <ele>1126</ele>
        <time>2019-08-11T09:13:29.000Z</time>
      </trkpt>
      <trkpt lat="45.08065" lon="4.40602">
        <ele>1126.1999511719</ele>
        <time>2019-08-11T09:13:30.000Z</time>
      </trkpt>
      <trkpt lat="45.08065" lon="4.40601">
        <ele>1126.4000244141</ele>
        <time>2019-08-11T09:13:31.000Z</time>
      </trkpt>
      <trkpt lat="45.08065" lon="4.406">
        <ele>1126.5999755859</ele>
        <time>2019-08-11T09:13:32.000Z</time>
      </trkpt>
      <trkpt lat="45.08065" lon="4.40593">
        <ele>1127.8000488281</ele>
        <time>2019-08-11T09:13:40.000Z</time>
      </trkpt>
      <trkpt lat="45.08065" lon="4.40591">
        <ele>1128</ele>
        <time>2019-08-11T09:13:41.000Z</time>
      </trkpt>
      <trkpt lat="45.08064" lon="4.40588">
        <ele>1128.1999511719</ele>
        <time>2019-08-11T09:13:42.000Z</time>
      </trkpt>
      <trkpt lat="45.08064" lon="4.40586">
        <ele>1128.4000244141</ele>
        <time>2019-08-11T09:13:43.000Z</time>
      </trkpt>
      <trkpt lat="45.08064" lon="4.40584">
        <ele>1128.5999755859</ele>
        <time>2019-08-11T09:13:44.000Z</time>
      </trkpt>
      <trkpt lat="45.08057" lon="4.40572">
        <ele>1130.8000488281</ele>
        <time>2019-08-11T09:13:54.000Z</time>
      </trkpt>
      <trkpt lat="45.08056" lon="4.40571">
        <ele>1131</ele>
        <time>2019-08-11T09:13:55.000Z</time>
      </trkpt>
      <trkpt lat="45.08055" lon="4.40569">
        <ele>1131.1999511719</ele>
        <time>2019-08-11T09:13:57.000Z</time>
      </trkpt>
      <trkpt lat="45.08055" lon="4.40568">
        <ele>1131.4000244141</ele>
        <time>2019-08-11T09:13:58.000Z</time>
      </trkpt>
      <trkpt lat="45.08055" lon="4.40565">
        <ele>1131.5999755859</ele>
        <time>2019-08-11T09:14:00.000Z</time>
      </trkpt>
      <trkpt lat="45.08055" lon="4.40561">
        <ele>1132.1999511719</ele>
        <time>2019-08-11T09:14:04.000Z</time>
      </trkpt>
      <trkpt lat="45.08054" lon="4.4056">
        <ele>1132.1999511719</ele>
        <time>2019-08-11T09:14:05.000Z</time>
      </trkpt>
      <trkpt lat="45.08047" lon="4.40544">
        <ele>1133.8000488281</ele>
        <time>2019-08-11T09:14:17.000Z</time>
      </trkpt>
      <trkpt lat="45.08045" lon="4.40537">
        <ele>1134.4000244141</ele>
        <time>2019-08-11T09:14:21.000Z</time>
      </trkpt>
      <trkpt lat="45.08044" lon="4.40531">
        <ele>1134.8000488281</ele>
        <time>2019-08-11T09:14:25.000Z</time>
      </trkpt>
      <trkpt lat="45.08044" lon="4.40529">
        <ele>1135</ele>
        <time>2019-08-11T09:14:26.000Z</time>
      </trkpt>
      <trkpt lat="45.08044" lon="4.40527">
        <ele>1135.1999511719</ele>
        <time>2019-08-11T09:14:27.000Z</time>
      </trkpt>
      <trkpt lat="45.08044" lon="4.40526">
        <ele>1135.4000244141</ele>
        <time>2019-08-11T09:14:28.000Z</time>
      </trkpt>
      <trkpt lat="45.08043" lon="4.40524">
        <ele>1135.4000244141</ele>
        <time>2019-08-11T09:14:29.000Z</time>
      </trkpt>
      <trkpt lat="45.08043" lon="4.40522">
        <ele>1135.5999755859</ele>
        <time>2019-08-11T09:14:30.000Z</time>
      </trkpt>
      <trkpt lat="45.08042" lon="4.40521">
        <ele>1135.5999755859</ele>
        <time>2019-08-11T09:14:31.000Z</time>
      </trkpt>
      <trkpt lat="45.08042" lon="4.4052">
        <ele>1135.8000488281</ele>
        <time>2019-08-11T09:14:32.000Z</time>
      </trkpt>
      <trkpt lat="45.08041" lon="4.40519">
        <ele>1136</ele>
        <time>2019-08-11T09:14:33.000Z</time>
      </trkpt>
      <trkpt lat="45.0804" lon="4.40512">
        <ele>1137</ele>
        <time>2019-08-11T09:14:39.000Z</time>
      </trkpt>
      <trkpt lat="45.0804" lon="4.40509">
        <ele>1137.1999511719</ele>
        <time>2019-08-11T09:14:40.000Z</time>
      </trkpt>
      <trkpt lat="45.0804" lon="4.40507">
        <ele>1137.4000244141</ele>
        <time>2019-08-11T09:14:41.000Z</time>
      </trkpt>
      <trkpt lat="45.08039" lon="4.40505">
        <ele>1137.4000244141</ele>
        <time>2019-08-11T09:14:42.000Z</time>
      </trkpt>
      <trkpt lat="45.08038" lon="4.40503">
        <ele>1137.5999755859</ele>
        <time>2019-08-11T09:14:43.000Z</time>
      </trkpt>
      <trkpt lat="45.08038" lon="4.40501">
        <ele>1137.8000488281</ele>
        <time>2019-08-11T09:14:44.000Z</time>
      </trkpt>
      <trkpt lat="45.08038" lon="4.40499">
        <ele>1137.8000488281</ele>
        <time>2019-08-11T09:14:45.000Z</time>
      </trkpt>
      <trkpt lat="45.08037" lon="4.40497">
        <ele>1138</ele>
        <time>2019-08-11T09:14:46.000Z</time>
      </trkpt>
      <trkpt lat="45.08036" lon="4.40495">
        <ele>1138.1999511719</ele>
        <time>2019-08-11T09:14:47.000Z</time>
      </trkpt>
      <trkpt lat="45.0804" lon="4.40455">
        <ele>1140.5999755859</ele>
        <time>2019-08-11T09:15:03.000Z</time>
      </trkpt>
      <trkpt lat="45.08053" lon="4.40411">
        <ele>1143</ele>
        <time>2019-08-11T09:15:22.000Z</time>
      </trkpt>
      <trkpt lat="45.08078" lon="4.40356">
        <ele>1145</ele>
        <time>2019-08-11T09:15:48.000Z</time>
      </trkpt>
      <trkpt lat="45.08098" lon="4.40308">
        <ele>1148</ele>
        <time>2019-08-11T09:16:10.000Z</time>
      </trkpt>
      <trkpt lat="45.0811" lon="4.40275">
        <ele>1151.1999511719</ele>
        <time>2019-08-11T09:16:25.000Z</time>
      </trkpt>
      <trkpt lat="45.08115" lon="4.40254">
        <ele>1153.5999755859</ele>
        <time>2019-08-11T09:16:37.000Z</time>
      </trkpt>
      <trkpt lat="45.08115" lon="4.40252">
        <ele>1153.5999755859</ele>
        <time>2019-08-11T09:16:38.000Z</time>
      </trkpt>
      <trkpt lat="45.08115" lon="4.4025">
        <ele>1153.8000488281</ele>
        <time>2019-08-11T09:16:39.000Z</time>
      </trkpt>
      <trkpt lat="45.08116" lon="4.40248">
        <ele>1154</ele>
        <time>2019-08-11T09:16:40.000Z</time>
      </trkpt>
      <trkpt lat="45.08116" lon="4.40246">
        <ele>1154.1999511719</ele>
        <time>2019-08-11T09:16:41.000Z</time>
      </trkpt>
      <trkpt lat="45.08116" lon="4.40244">
        <ele>1154.4000244141</ele>
        <time>2019-08-11T09:16:42.000Z</time>
      </trkpt>
      <trkpt lat="45.08116" lon="4.40242">
        <ele>1154.4000244141</ele>
        <time>2019-08-11T09:16:43.000Z</time>
      </trkpt>
      <trkpt lat="45.08116" lon="4.4024">
        <ele>1154.5999755859</ele>
        <time>2019-08-11T09:16:44.000Z</time>
      </trkpt>
      <trkpt lat="45.08115" lon="4.40238">
        <ele>1155</ele>
        <time>2019-08-11T09:16:45.000Z</time>
      </trkpt>
      <trkpt lat="45.08115" lon="4.40235">
        <ele>1155</ele>
        <time>2019-08-11T09:16:46.000Z</time>
      </trkpt>
      <trkpt lat="45.08115" lon="4.40233">
        <ele>1155.1999511719</ele>
        <time>2019-08-11T09:16:47.000Z</time>
      </trkpt>
      <trkpt lat="45.08116" lon="4.40231">
        <ele>1155.4000244141</ele>
        <time>2019-08-11T09:16:48.000Z</time>
      </trkpt>
      <trkpt lat="45.08116" lon="4.40229">
        <ele>1155.5999755859</ele>
        <time>2019-08-11T09:16:49.000Z</time>
      </trkpt>
      <trkpt lat="45.08116" lon="4.40228">
        <ele>1155.8000488281</ele>
        <time>2019-08-11T09:16:50.000Z</time>
      </trkpt>
      <trkpt lat="45.08116" lon="4.40226">
        <ele>1155.8000488281</ele>
        <time>2019-08-11T09:16:51.000Z</time>
      </trkpt>
      <trkpt lat="45.08117" lon="4.40224">
        <ele>1155.8000488281</ele>
        <time>2019-08-11T09:16:52.000Z</time>
      </trkpt>
      <trkpt lat="45.08117" lon="4.40222">
        <ele>1156</ele>
        <time>2019-08-11T09:16:53.000Z</time>
      </trkpt>
      <trkpt lat="45.08117" lon="4.4022">
        <ele>1156.1999511719</ele>
        <time>2019-08-11T09:16:54.000Z</time>
      </trkpt>
      <trkpt lat="45.08123" lon="4.40183">
        <ele>1159.4000244141</ele>
        <time>2019-08-11T09:17:13.000Z</time>
      </trkpt>
      <trkpt lat="45.08125" lon="4.40148">
        <ele>1161.8000488281</ele>
        <time>2019-08-11T09:17:30.000Z</time>
      </trkpt>
      <trkpt lat="45.08125" lon="4.40146">
        <ele>1162</ele>
        <time>2019-08-11T09:17:31.000Z</time>
      </trkpt>
      <trkpt lat="45.08125" lon="4.40143">
        <ele>1162</ele>
        <time>2019-08-11T09:17:32.000Z</time>
      </trkpt>
      <trkpt lat="45.08126" lon="4.4014">
        <ele>1162.1999511719</ele>
        <time>2019-08-11T09:17:33.000Z</time>
      </trkpt>
      <trkpt lat="45.08127" lon="4.40138">
        <ele>1162.1999511719</ele>
        <time>2019-08-11T09:17:34.000Z</time>
      </trkpt>
      <trkpt lat="45.08135" lon="4.40076">
        <ele>1165.4000244141</ele>
        <time>2019-08-11T09:18:00.000Z</time>
      </trkpt>
      <trkpt lat="45.08145" lon="4.40046">
        <ele>1166.1999511719</ele>
        <time>2019-08-11T09:18:11.000Z</time>
      </trkpt>
      <trkpt lat="45.08171" lon="4.39967">
        <ele>1168.4000244141</ele>
        <time>2019-08-11T09:18:35.000Z</time>
      </trkpt>
      <trkpt lat="45.08202" lon="4.39897">
        <ele>1170.5999755859</ele>
        <time>2019-08-11T09:18:54.000Z</time>
      </trkpt>
      <trkpt lat="45.08239" lon="4.39835">
        <ele>1172.5999755859</ele>
        <time>2019-08-11T09:19:13.000Z</time>
      </trkpt>
      <trkpt lat="45.08258" lon="4.39757">
        <ele>1175</ele>
        <time>2019-08-11T09:19:34.000Z</time>
      </trkpt>
      <trkpt lat="45.08263" lon="4.39675">
        <ele>1177</ele>
        <time>2019-08-11T09:19:55.000Z</time>
      </trkpt>
      <trkpt lat="45.08254" lon="4.39593">
        <ele>1178</ele>
        <time>2019-08-11T09:20:12.000Z</time>
      </trkpt>
      <trkpt lat="45.08252" lon="4.39581">
        <ele>1177.8000488281</ele>
        <time>2019-08-11T09:20:14.000Z</time>
      </trkpt>
      <trkpt lat="45.0825" lon="4.39556">
        <ele>1178</ele>
        <time>2019-08-11T09:20:18.000Z</time>
      </trkpt>
      <trkpt lat="45.08249" lon="4.3955">
        <ele>1178</ele>
        <time>2019-08-11T09:20:19.000Z</time>
      </trkpt>
      <trkpt lat="45.08243" lon="4.39526">
        <ele>1178</ele>
        <time>2019-08-11T09:20:23.000Z</time>
      </trkpt>
      <trkpt lat="45.08241" lon="4.3952">
        <ele>1178</ele>
        <time>2019-08-11T09:20:24.000Z</time>
      </trkpt>
      <trkpt lat="45.08237" lon="4.3951">
        <ele>1178.1999511719</ele>
        <time>2019-08-11T09:20:26.000Z</time>
      </trkpt>
      <trkpt lat="45.08234" lon="4.39506">
        <ele>1178.1999511719</ele>
        <time>2019-08-11T09:20:27.000Z</time>
      </trkpt>
      <trkpt lat="45.08225" lon="4.39493">
        <ele>1178.1999511719</ele>
        <time>2019-08-11T09:20:30.000Z</time>
      </trkpt>
      <trkpt lat="45.08222" lon="4.3949">
        <ele>1178.4000244141</ele>
        <time>2019-08-11T09:20:31.000Z</time>
      </trkpt>
      <trkpt lat="45.08219" lon="4.39483">
        <ele>1178.8000488281</ele>
        <time>2019-08-11T09:20:34.000Z</time>
      </trkpt>
      <trkpt lat="45.0822" lon="4.39482">
        <ele>1178.8000488281</ele>
        <time>2019-08-11T09:20:35.000Z</time>
      </trkpt>
      <trkpt lat="45.08222" lon="4.39483">
        <ele>1178.8000488281</ele>
        <time>2019-08-11T09:20:36.000Z</time>
      </trkpt>
      <trkpt lat="45.08222" lon="4.39484">
        <ele>1178.8000488281</ele>
        <time>2019-08-11T09:20:37.000Z</time>
      </trkpt>
      <trkpt lat="45.08222" lon="4.39486">
        <ele>1178.8000488281</ele>
        <time>2019-08-11T09:20:38.000Z</time>
      </trkpt>
      <trkpt lat="45.08221" lon="4.39488">
        <ele>1178.8000488281</ele>
        <time>2019-08-11T09:20:39.000Z</time>
      </trkpt>
      <trkpt lat="45.08219" lon="4.39488">
        <ele>1178.8000488281</ele>
        <time>2019-08-11T09:20:40.000Z</time>
      </trkpt>
      <trkpt lat="45.08218" lon="4.39489">
        <ele>1178.8000488281</ele>
        <time>2019-08-11T09:20:41.000Z</time>
      </trkpt>
      <trkpt lat="45.08201" lon="4.3949">
        <ele>1181.4000244141</ele>
        <time>2019-08-11T09:20:52.000Z</time>
      </trkpt>
      <trkpt lat="45.08195" lon="4.3949">
        <ele>1183.1999511719</ele>
        <time>2019-08-11T09:20:58.000Z</time>
      </trkpt>
      <trkpt lat="45.08165" lon="4.39478">
        <ele>1185.1999511719</ele>
        <time>2019-08-11T09:21:16.000Z</time>
      </trkpt>
      <trkpt lat="45.08121" lon="4.39466">
        <ele>1186.5999755859</ele>
        <time>2019-08-11T09:21:41.000Z</time>
      </trkpt>
      <trkpt lat="45.08062" lon="4.39445">
        <ele>1185.8000488281</ele>
        <time>2019-08-11T09:22:04.000Z</time>
      </trkpt>
      <trkpt lat="45.08057" lon="4.39442">
        <ele>1185.5999755859</ele>
        <time>2019-08-11T09:22:05.000Z</time>
      </trkpt>
      <trkpt lat="45.08005" lon="4.39416">
        <ele>1184</ele>
        <time>2019-08-11T09:22:17.000Z</time>
      </trkpt>
      <trkpt lat="45.07983" lon="4.39407">
        <ele>1184</ele>
        <time>2019-08-11T09:22:22.000Z</time>
      </trkpt>
      <trkpt lat="45.07978" lon="4.39404">
        <ele>1183.8000488281</ele>
        <time>2019-08-11T09:22:23.000Z</time>
      </trkpt>
      <trkpt lat="45.07973" lon="4.39402">
        <ele>1183.8000488281</ele>
        <time>2019-08-11T09:22:24.000Z</time>
      </trkpt>
      <trkpt lat="45.07963" lon="4.39398">
        <ele>1183.5999755859</ele>
        <time>2019-08-11T09:22:26.000Z</time>
      </trkpt>
      <trkpt lat="45.07958" lon="4.39395">
        <ele>1183.4000244141</ele>
        <time>2019-08-11T09:22:27.000Z</time>
      </trkpt>
      <trkpt lat="45.07945" lon="4.39387">
        <ele>1183</ele>
        <time>2019-08-11T09:22:30.000Z</time>
      </trkpt>
      <trkpt lat="45.07933" lon="4.39378">
        <ele>1182</ele>
        <time>2019-08-11T09:22:33.000Z</time>
      </trkpt>
      <trkpt lat="45.07916" lon="4.39366">
        <ele>1181</ele>
        <time>2019-08-11T09:22:37.000Z</time>
      </trkpt>
      <trkpt lat="45.07907" lon="4.39362">
        <ele>1180.4000244141</ele>
        <time>2019-08-11T09:22:40.000Z</time>
      </trkpt>
      <trkpt lat="45.07902" lon="4.39359">
        <ele>1180.1999511719</ele>
        <time>2019-08-11T09:22:43.000Z</time>
      </trkpt>
      <trkpt lat="45.07879" lon="4.39339">
        <ele>1179</ele>
        <time>2019-08-11T09:22:53.000Z</time>
      </trkpt>
      <trkpt lat="45.07869" lon="4.39333">
        <ele>1178.5999755859</ele>
        <time>2019-08-11T09:22:56.000Z</time>
      </trkpt>
      <trkpt lat="45.07858" lon="4.39327">
        <ele>1177.4000244141</ele>
        <time>2019-08-11T09:22:59.000Z</time>
      </trkpt>
      <trkpt lat="45.07854" lon="4.39325">
        <ele>1177.1999511719</ele>
        <time>2019-08-11T09:23:00.000Z</time>
      </trkpt>
      <trkpt lat="45.07828" lon="4.39313">
        <ele>1175.4000244141</ele>
        <time>2019-08-11T09:23:07.000Z</time>
      </trkpt>
      <trkpt lat="45.07771" lon="4.3929">
        <ele>1173.8000488281</ele>
        <time>2019-08-11T09:23:22.000Z</time>
      </trkpt>
      <trkpt lat="45.07717" lon="4.39254">
        <ele>1171.1999511719</ele>
        <time>2019-08-11T09:23:33.000Z</time>
      </trkpt>
      <trkpt lat="45.07664" lon="4.39216">
        <ele>1171.5999755859</ele>
        <time>2019-08-11T09:23:48.000Z</time>
      </trkpt>
      <trkpt lat="45.07648" lon="4.39206">
        <ele>1172</ele>
        <time>2019-08-11T09:23:52.000Z</time>
      </trkpt>
      <trkpt lat="45.07645" lon="4.39204">
        <ele>1172</ele>
        <time>2019-08-11T09:23:53.000Z</time>
      </trkpt>
      <trkpt lat="45.07641" lon="4.39203">
        <ele>1172.1999511719</ele>
        <time>2019-08-11T09:23:54.000Z</time>
      </trkpt>
      <trkpt lat="45.07637" lon="4.39201">
        <ele>1172.1999511719</ele>
        <time>2019-08-11T09:23:55.000Z</time>
      </trkpt>
      <trkpt lat="45.07633" lon="4.392">
        <ele>1172.1999511719</ele>
        <time>2019-08-11T09:23:56.000Z</time>
      </trkpt>
      <trkpt lat="45.07611" lon="4.39192">
        <ele>1172.1999511719</ele>
        <time>2019-08-11T09:24:01.000Z</time>
      </trkpt>
      <trkpt lat="45.07583" lon="4.39188">
        <ele>1172.4000244141</ele>
        <time>2019-08-11T09:24:08.000Z</time>
      </trkpt>
      <trkpt lat="45.07579" lon="4.39191">
        <ele>1172.4000244141</ele>
        <time>2019-08-11T09:24:09.000Z</time>
      </trkpt>
      <trkpt lat="45.07546" lon="4.39196">
        <ele>1173.1999511719</ele>
        <time>2019-08-11T09:24:17.000Z</time>
      </trkpt>
      <trkpt lat="45.07533" lon="4.39202">
        <ele>1173.4000244141</ele>
        <time>2019-08-11T09:24:21.000Z</time>
      </trkpt>
      <trkpt lat="45.07525" lon="4.39205">
        <ele>1173.4000244141</ele>
        <time>2019-08-11T09:24:23.000Z</time>
      </trkpt>
      <trkpt lat="45.07502" lon="4.39214">
        <ele>1173.8000488281</ele>
        <time>2019-08-11T09:24:29.000Z</time>
      </trkpt>
      <trkpt lat="45.07478" lon="4.3922">
        <ele>1175.4000244141</ele>
        <time>2019-08-11T09:24:36.000Z</time>
      </trkpt>
      <trkpt lat="45.07441" lon="4.39226">
        <ele>1176</ele>
        <time>2019-08-11T09:24:49.000Z</time>
      </trkpt>
      <trkpt lat="45.07395" lon="4.39226">
        <ele>1179.1999511719</ele>
        <time>2019-08-11T09:25:07.000Z</time>
      </trkpt>
      <trkpt lat="45.07338" lon="4.39215">
        <ele>1181.1999511719</ele>
        <time>2019-08-11T09:25:28.000Z</time>
      </trkpt>
      <trkpt lat="45.07287" lon="4.39195">
        <ele>1179.8000488281</ele>
        <time>2019-08-11T09:25:41.000Z</time>
      </trkpt>
      <trkpt lat="45.07277" lon="4.39193">
        <ele>1179.5999755859</ele>
        <time>2019-08-11T09:25:43.000Z</time>
      </trkpt>
      <trkpt lat="45.07223" lon="4.39169">
        <ele>1176.8000488281</ele>
        <time>2019-08-11T09:25:53.000Z</time>
      </trkpt>
      <trkpt lat="45.07189" lon="4.39162">
        <ele>1174.4000244141</ele>
        <time>2019-08-11T09:25:58.000Z</time>
      </trkpt>
      <trkpt lat="45.07183" lon="4.39158">
        <ele>1174.4000244141</ele>
        <time>2019-08-11T09:25:59.000Z</time>
      </trkpt>
      <trkpt lat="45.07178" lon="4.39155">
        <ele>1174.4000244141</ele>
        <time>2019-08-11T09:26:00.000Z</time>
      </trkpt>
      <trkpt lat="45.07172" lon="4.39152">
        <ele>1174.1999511719</ele>
        <time>2019-08-11T09:26:01.000Z</time>
      </trkpt>
      <trkpt lat="45.07164" lon="4.39146">
        <ele>1174.1999511719</ele>
        <time>2019-08-11T09:26:04.000Z</time>
      </trkpt>
      <trkpt lat="45.07162" lon="4.39147">
        <ele>1174</ele>
        <time>2019-08-11T09:26:05.000Z</time>
      </trkpt>
      <trkpt lat="45.0716" lon="4.3915">
        <ele>1173.8000488281</ele>
        <time>2019-08-11T09:26:06.000Z</time>
      </trkpt>
      <trkpt lat="45.0716" lon="4.39154">
        <ele>1173.8000488281</ele>
        <time>2019-08-11T09:26:07.000Z</time>
      </trkpt>
      <trkpt lat="45.0716" lon="4.39158">
        <ele>1173.8000488281</ele>
        <time>2019-08-11T09:26:08.000Z</time>
      </trkpt>
      <trkpt lat="45.07159" lon="4.39162">
        <ele>1173.8000488281</ele>
        <time>2019-08-11T09:26:09.000Z</time>
      </trkpt>
      <trkpt lat="45.07158" lon="4.39178">
        <ele>1174</ele>
        <time>2019-08-11T09:26:12.000Z</time>
      </trkpt>
      <trkpt lat="45.07149" lon="4.39232">
        <ele>1173.5999755859</ele>
        <time>2019-08-11T09:26:22.000Z</time>
      </trkpt>
      <trkpt lat="45.07146" lon="4.39236">
        <ele>1173.5999755859</ele>
        <time>2019-08-11T09:26:23.000Z</time>
      </trkpt>
      <trkpt lat="45.07143" lon="4.3924">
        <ele>1173.8000488281</ele>
        <time>2019-08-11T09:26:24.000Z</time>
      </trkpt>
      <trkpt lat="45.07139" lon="4.39244">
        <ele>1173.8000488281</ele>
        <time>2019-08-11T09:26:25.000Z</time>
      </trkpt>
      <trkpt lat="45.07135" lon="4.39246">
        <ele>1173.8000488281</ele>
        <time>2019-08-11T09:26:26.000Z</time>
      </trkpt>
      <trkpt lat="45.07131" lon="4.39249">
        <ele>1173.5999755859</ele>
        <time>2019-08-11T09:26:27.000Z</time>
      </trkpt>
      <trkpt lat="45.07128" lon="4.39251">
        <ele>1173.5999755859</ele>
        <time>2019-08-11T09:26:28.000Z</time>
      </trkpt>
      <trkpt lat="45.07124" lon="4.39253">
        <ele>1173.5999755859</ele>
        <time>2019-08-11T09:26:29.000Z</time>
      </trkpt>
      <trkpt lat="45.0707" lon="4.39285">
        <ele>1174.1999511719</ele>
        <time>2019-08-11T09:26:44.000Z</time>
      </trkpt>
      <trkpt lat="45.07042" lon="4.39306">
        <ele>1175.5999755859</ele>
        <time>2019-08-11T09:26:52.000Z</time>
      </trkpt>
      <trkpt lat="45.06998" lon="4.39356">
        <ele>1176</ele>
        <time>2019-08-11T09:27:07.000Z</time>
      </trkpt>
      <trkpt lat="45.06988" lon="4.39371">
        <ele>1175.8000488281</ele>
        <time>2019-08-11T09:27:11.000Z</time>
      </trkpt>
      <trkpt lat="45.06986" lon="4.39377">
        <ele>1175.8000488281</ele>
        <time>2019-08-11T09:27:12.000Z</time>
      </trkpt>
      <trkpt lat="45.06985" lon="4.39383">
        <ele>1175.5999755859</ele>
        <time>2019-08-11T09:27:13.000Z</time>
      </trkpt>
      <trkpt lat="45.06984" lon="4.3939">
        <ele>1175.1999511719</ele>
        <time>2019-08-11T09:27:14.000Z</time>
      </trkpt>
      <trkpt lat="45.06983" lon="4.39398">
        <ele>1174.8000488281</ele>
        <time>2019-08-11T09:27:15.000Z</time>
      </trkpt>
      <trkpt lat="45.06974" lon="4.39464">
        <ele>1171.8000488281</ele>
        <time>2019-08-11T09:27:23.000Z</time>
      </trkpt>
      <trkpt lat="45.06958" lon="4.39548">
        <ele>1169.1999511719</ele>
        <time>2019-08-11T09:27:32.000Z</time>
      </trkpt>
      <trkpt lat="45.06949" lon="4.39585">
        <ele>1168.1999511719</ele>
        <time>2019-08-11T09:27:36.000Z</time>
      </trkpt>
      <trkpt lat="45.06945" lon="4.3963">
        <ele>1167.4000244141</ele>
        <time>2019-08-11T09:27:41.000Z</time>
      </trkpt>
      <trkpt lat="45.06941" lon="4.39656">
        <ele>1167.1999511719</ele>
        <time>2019-08-11T09:27:46.000Z</time>
      </trkpt>
      <trkpt lat="45.06942" lon="4.39656">
        <ele>1167.4000244141</ele>
        <time>2019-08-11T09:27:50.000Z</time>
      </trkpt>
      <trkpt lat="45.06942" lon="4.39653">
        <ele>1167.5999755859</ele>
        <time>2019-08-11T09:27:52.000Z</time>
      </trkpt>
      <trkpt lat="45.06942" lon="4.39651">
        <ele>1167.5999755859</ele>
        <time>2019-08-11T09:27:53.000Z</time>
      </trkpt>
      <trkpt lat="45.06942" lon="4.39648">
        <ele>1167.5999755859</ele>
        <time>2019-08-11T09:27:54.000Z</time>
      </trkpt>
      <trkpt lat="45.06942" lon="4.39646">
        <ele>1167.5999755859</ele>
        <time>2019-08-11T09:27:55.000Z</time>
      </trkpt>
      <trkpt lat="45.06942" lon="4.39644">
        <ele>1167.5999755859</ele>
        <time>2019-08-11T09:27:56.000Z</time>
      </trkpt>
      <trkpt lat="45.06941" lon="4.39642">
        <ele>1167.5999755859</ele>
        <time>2019-08-11T09:27:57.000Z</time>
      </trkpt>
      <trkpt lat="45.06939" lon="4.39641">
        <ele>1167.8000488281</ele>
        <time>2019-08-11T09:27:58.000Z</time>
      </trkpt>
      <trkpt lat="45.06938" lon="4.3964">
        <ele>1167.8000488281</ele>
        <time>2019-08-11T09:27:59.000Z</time>
      </trkpt>
      <trkpt lat="45.06935" lon="4.3964">
        <ele>1167.5999755859</ele>
        <time>2019-08-11T09:28:00.000Z</time>
      </trkpt>
      <trkpt lat="45.06932" lon="4.3964">
        <ele>1167.4000244141</ele>
        <time>2019-08-11T09:28:01.000Z</time>
      </trkpt>
      <trkpt lat="45.06929" lon="4.3964">
        <ele>1167</ele>
        <time>2019-08-11T09:28:02.000Z</time>
      </trkpt>
      <trkpt lat="45.06926" lon="4.39638">
        <ele>1166.8000488281</ele>
        <time>2019-08-11T09:28:03.000Z</time>
      </trkpt>
      <trkpt lat="45.06922" lon="4.39635">
        <ele>1166.5999755859</ele>
        <time>2019-08-11T09:28:04.000Z</time>
      </trkpt>
      <trkpt lat="45.06919" lon="4.39631">
        <ele>1166.4000244141</ele>
        <time>2019-08-11T09:28:05.000Z</time>
      </trkpt>
      <trkpt lat="45.06917" lon="4.39626">
        <ele>1166.1999511719</ele>
        <time>2019-08-11T09:28:06.000Z</time>
      </trkpt>
      <trkpt lat="45.06915" lon="4.39621">
        <ele>1166</ele>
        <time>2019-08-11T09:28:07.000Z</time>
      </trkpt>
      <trkpt lat="45.06912" lon="4.39615">
        <ele>1166</ele>
        <time>2019-08-11T09:28:08.000Z</time>
      </trkpt>
      <trkpt lat="45.069" lon="4.39584">
        <ele>1165.8000488281</ele>
        <time>2019-08-11T09:28:13.000Z</time>
      </trkpt>
      <trkpt lat="45.06885" lon="4.39529">
        <ele>1165.1999511719</ele>
        <time>2019-08-11T09:28:21.000Z</time>
      </trkpt>
      <trkpt lat="45.06883" lon="4.39522">
        <ele>1165.4000244141</ele>
        <time>2019-08-11T09:28:22.000Z</time>
      </trkpt>
      <trkpt lat="45.06866" lon="4.39484">
        <ele>1165.8000488281</ele>
        <time>2019-08-11T09:28:29.000Z</time>
      </trkpt>
      <trkpt lat="45.06863" lon="4.39481">
        <ele>1165.8000488281</ele>
        <time>2019-08-11T09:28:30.000Z</time>
      </trkpt>
      <trkpt lat="45.06859" lon="4.39479">
        <ele>1166</ele>
        <time>2019-08-11T09:28:31.000Z</time>
      </trkpt>
      <trkpt lat="45.06855" lon="4.39478">
        <ele>1166.1999511719</ele>
        <time>2019-08-11T09:28:32.000Z</time>
      </trkpt>
      <trkpt lat="45.06851" lon="4.39478">
        <ele>1166</ele>
        <time>2019-08-11T09:28:33.000Z</time>
      </trkpt>
      <trkpt lat="45.06846" lon="4.3948">
        <ele>1165.8000488281</ele>
        <time>2019-08-11T09:28:34.000Z</time>
      </trkpt>
      <trkpt lat="45.06842" lon="4.39482">
        <ele>1165.5999755859</ele>
        <time>2019-08-11T09:28:35.000Z</time>
      </trkpt>
      <trkpt lat="45.06838" lon="4.39484">
        <ele>1165.8000488281</ele>
        <time>2019-08-11T09:28:36.000Z</time>
      </trkpt>
      <trkpt lat="45.06834" lon="4.39488">
        <ele>1165.8000488281</ele>
        <time>2019-08-11T09:28:37.000Z</time>
      </trkpt>
      <trkpt lat="45.06831" lon="4.39492">
        <ele>1165.8000488281</ele>
        <time>2019-08-11T09:28:38.000Z</time>
      </trkpt>
      <trkpt lat="45.06827" lon="4.39496">
        <ele>1165.8000488281</ele>
        <time>2019-08-11T09:28:39.000Z</time>
      </trkpt>
      <trkpt lat="45.06823" lon="4.395">
        <ele>1165.8000488281</ele>
        <time>2019-08-11T09:28:40.000Z</time>
      </trkpt>
      <trkpt lat="45.06815" lon="4.39505">
        <ele>1166</ele>
        <time>2019-08-11T09:28:42.000Z</time>
      </trkpt>
      <trkpt lat="45.0681" lon="4.39507">
        <ele>1165.8000488281</ele>
        <time>2019-08-11T09:28:43.000Z</time>
      </trkpt>
      <trkpt lat="45.06769" lon="4.39521">
        <ele>1163.4000244141</ele>
        <time>2019-08-11T09:28:52.000Z</time>
      </trkpt>
      <trkpt lat="45.06741" lon="4.39524">
        <ele>1161.5999755859</ele>
        <time>2019-08-11T09:28:58.000Z</time>
      </trkpt>
      <trkpt lat="45.06689" lon="4.39521">
        <ele>1160.4000244141</ele>
        <time>2019-08-11T09:29:07.000Z</time>
      </trkpt>
      <trkpt lat="45.06682" lon="4.39523">
        <ele>1160.1999511719</ele>
        <time>2019-08-11T09:29:08.000Z</time>
      </trkpt>
      <trkpt lat="45.06623" lon="4.39531">
        <ele>1157</ele>
        <time>2019-08-11T09:29:17.000Z</time>
      </trkpt>
      <trkpt lat="45.0659" lon="4.39534">
        <ele>1153.1999511719</ele>
        <time>2019-08-11T09:29:21.000Z</time>
      </trkpt>
      <trkpt lat="45.06559" lon="4.39529">
        <ele>1149.8000488281</ele>
        <time>2019-08-11T09:29:25.000Z</time>
      </trkpt>
      <trkpt lat="45.06553" lon="4.39526">
        <ele>1149.1999511719</ele>
        <time>2019-08-11T09:29:26.000Z</time>
      </trkpt>
      <trkpt lat="45.06544" lon="4.39525">
        <ele>1149.1999511719</ele>
        <time>2019-08-11T09:29:28.000Z</time>
      </trkpt>
      <trkpt lat="45.06522" lon="4.39527">
        <ele>1146.8000488281</ele>
        <time>2019-08-11T09:29:32.000Z</time>
      </trkpt>
      <trkpt lat="45.06516" lon="4.39532">
        <ele>1146</ele>
        <time>2019-08-11T09:29:33.000Z</time>
      </trkpt>
      <trkpt lat="45.06492" lon="4.39545">
        <ele>1141.5999755859</ele>
        <time>2019-08-11T09:29:36.000Z</time>
      </trkpt>
      <trkpt lat="45.06465" lon="4.39555">
        <ele>1138.4000244141</ele>
        <time>2019-08-11T09:29:39.000Z</time>
      </trkpt>
      <trkpt lat="45.06429" lon="4.3956">
        <ele>1135.1999511719</ele>
        <time>2019-08-11T09:29:43.000Z</time>
      </trkpt>
      <trkpt lat="45.0642" lon="4.39558">
        <ele>1134.5999755859</ele>
        <time>2019-08-11T09:29:44.000Z</time>
      </trkpt>
      <trkpt lat="45.06412" lon="4.39556">
        <ele>1133.8000488281</ele>
        <time>2019-08-11T09:29:45.000Z</time>
      </trkpt>
      <trkpt lat="45.06386" lon="4.39548">
        <ele>1131.5999755859</ele>
        <time>2019-08-11T09:29:48.000Z</time>
      </trkpt>
      <trkpt lat="45.06349" lon="4.39537">
        <ele>1128.1999511719</ele>
        <time>2019-08-11T09:29:52.000Z</time>
      </trkpt>
      <trkpt lat="45.06329" lon="4.39532">
        <ele>1126.1999511719</ele>
        <time>2019-08-11T09:29:54.000Z</time>
      </trkpt>
      <trkpt lat="45.0631" lon="4.3953">
        <ele>1124.4000244141</ele>
        <time>2019-08-11T09:29:56.000Z</time>
      </trkpt>
      <trkpt lat="45.06281" lon="4.39527">
        <ele>1122.4000244141</ele>
        <time>2019-08-11T09:29:59.000Z</time>
      </trkpt>
      <trkpt lat="45.06251" lon="4.39529">
        <ele>1121</ele>
        <time>2019-08-11T09:30:02.000Z</time>
      </trkpt>
      <trkpt lat="45.06195" lon="4.39535">
        <ele>1118</ele>
        <time>2019-08-11T09:30:08.000Z</time>
      </trkpt>
      <trkpt lat="45.06186" lon="4.39534">
        <ele>1117.4000244141</ele>
        <time>2019-08-11T09:30:09.000Z</time>
      </trkpt>
      <trkpt lat="45.06177" lon="4.3953">
        <ele>1116.5999755859</ele>
        <time>2019-08-11T09:30:10.000Z</time>
      </trkpt>
      <trkpt lat="45.06163" lon="4.39519">
        <ele>1115.5999755859</ele>
        <time>2019-08-11T09:30:12.000Z</time>
      </trkpt>
      <trkpt lat="45.06118" lon="4.39484">
        <ele>1117.5999755859</ele>
        <time>2019-08-11T09:30:19.000Z</time>
      </trkpt>
      <trkpt lat="45.06068" lon="4.3944">
        <ele>1119.4000244141</ele>
        <time>2019-08-11T09:30:28.000Z</time>
      </trkpt>
      <trkpt lat="45.06018" lon="4.39402">
        <ele>1119</ele>
        <time>2019-08-11T09:30:38.000Z</time>
      </trkpt>
      <trkpt lat="45.05998" lon="4.39391">
        <ele>1120</ele>
        <time>2019-08-11T09:30:43.000Z</time>
      </trkpt>
      <trkpt lat="45.05976" lon="4.39382">
        <ele>1120.5999755859</ele>
        <time>2019-08-11T09:30:49.000Z</time>
      </trkpt>
      <trkpt lat="45.05941" lon="4.39369">
        <ele>1119.5999755859</ele>
        <time>2019-08-11T09:30:56.000Z</time>
      </trkpt>
      <trkpt lat="45.05935" lon="4.39371">
        <ele>1119.5999755859</ele>
        <time>2019-08-11T09:30:57.000Z</time>
      </trkpt>
      <trkpt lat="45.05929" lon="4.39374">
        <ele>1119.1999511719</ele>
        <time>2019-08-11T09:30:58.000Z</time>
      </trkpt>
      <trkpt lat="45.05924" lon="4.39378">
        <ele>1118.5999755859</ele>
        <time>2019-08-11T09:30:59.000Z</time>
      </trkpt>
      <trkpt lat="45.05918" lon="4.39382">
        <ele>1117.8000488281</ele>
        <time>2019-08-11T09:31:00.000Z</time>
      </trkpt>
      <trkpt lat="45.05913" lon="4.39388">
        <ele>1117.4000244141</ele>
        <time>2019-08-11T09:31:01.000Z</time>
      </trkpt>
      <trkpt lat="45.05885" lon="4.39421">
        <ele>1115.4000244141</ele>
        <time>2019-08-11T09:31:07.000Z</time>
      </trkpt>
      <trkpt lat="45.05882" lon="4.39428">
        <ele>1115</ele>
        <time>2019-08-11T09:31:08.000Z</time>
      </trkpt>
      <trkpt lat="45.05878" lon="4.39436">
        <ele>1115</ele>
        <time>2019-08-11T09:31:09.000Z</time>
      </trkpt>
      <trkpt lat="45.05863" lon="4.39467">
        <ele>1114.5999755859</ele>
        <time>2019-08-11T09:31:13.000Z</time>
      </trkpt>
      <trkpt lat="45.05847" lon="4.39501">
        <ele>1111</ele>
        <time>2019-08-11T09:31:17.000Z</time>
      </trkpt>
      <trkpt lat="45.05832" lon="4.39529">
        <ele>1107.4000244141</ele>
        <time>2019-08-11T09:31:20.000Z</time>
      </trkpt>
      <trkpt lat="45.05793" lon="4.39598">
        <ele>1106.1999511719</ele>
        <time>2019-08-11T09:31:28.000Z</time>
      </trkpt>
      <trkpt lat="45.05782" lon="4.39616">
        <ele>1106.4000244141</ele>
        <time>2019-08-11T09:31:32.000Z</time>
      </trkpt>
      <trkpt lat="45.05782" lon="4.39618">
        <ele>1106.5999755859</ele>
        <time>2019-08-11T09:31:33.000Z</time>
      </trkpt>
      <trkpt lat="45.05782" lon="4.39624">
        <ele>1106.4000244141</ele>
        <time>2019-08-11T09:31:39.000Z</time>
      </trkpt>
      <trkpt lat="45.05782" lon="4.39625">
        <ele>1106.4000244141</ele>
        <time>2019-08-11T09:31:40.000Z</time>
      </trkpt>
      <trkpt lat="45.05782" lon="4.39622">
        <ele>1106.5999755859</ele>
        <time>2019-08-11T09:31:49.000Z</time>
      </trkpt>
      <trkpt lat="45.05782" lon="4.39621">
        <ele>1106.8000488281</ele>
        <time>2019-08-11T09:31:51.000Z</time>
      </trkpt>
      <trkpt lat="45.05773" lon="4.39628">
        <ele>1107</ele>
        <time>2019-08-11T09:42:44.000Z</time>
      </trkpt>
      <trkpt lat="45.05772" lon="4.39627">
        <ele>1106.8000488281</ele>
        <time>2019-08-11T09:42:45.000Z</time>
      </trkpt>
      <trkpt lat="45.05771" lon="4.39625">
        <ele>1106.8000488281</ele>
        <time>2019-08-11T09:42:46.000Z</time>
      </trkpt>
      <trkpt lat="45.0577" lon="4.39624">
        <ele>1106.8000488281</ele>
        <time>2019-08-11T09:42:47.000Z</time>
      </trkpt>
      <trkpt lat="45.05769" lon="4.39622">
        <ele>1106.5999755859</ele>
        <time>2019-08-11T09:42:48.000Z</time>
      </trkpt>
      <trkpt lat="45.05767" lon="4.39621">
        <ele>1106.5999755859</ele>
        <time>2019-08-11T09:42:49.000Z</time>
      </trkpt>
      <trkpt lat="45.05766" lon="4.3962">
        <ele>1106.5999755859</ele>
        <time>2019-08-11T09:42:50.000Z</time>
      </trkpt>
      <trkpt lat="45.05764" lon="4.39619">
        <ele>1106.4000244141</ele>
        <time>2019-08-11T09:42:51.000Z</time>
      </trkpt>
      <trkpt lat="45.05761" lon="4.39617">
        <ele>1106.4000244141</ele>
        <time>2019-08-11T09:42:52.000Z</time>
      </trkpt>
      <trkpt lat="45.05758" lon="4.39615">
        <ele>1106.1999511719</ele>
        <time>2019-08-11T09:42:53.000Z</time>
      </trkpt>
      <trkpt lat="45.05756" lon="4.39614">
        <ele>1106</ele>
        <time>2019-08-11T09:42:54.000Z</time>
      </trkpt>
      <trkpt lat="45.05754" lon="4.39613">
        <ele>1106.1999511719</ele>
        <time>2019-08-11T09:42:55.000Z</time>
      </trkpt>
      <trkpt lat="45.05753" lon="4.39613">
        <ele>1107.1999511719</ele>
        <time>2019-08-11T09:42:57.000Z</time>
      </trkpt>
      <trkpt lat="45.05752" lon="4.39614">
        <ele>1107.5999755859</ele>
        <time>2019-08-11T09:42:58.000Z</time>
      </trkpt>
      <trkpt lat="45.0575" lon="4.39613">
        <ele>1107.5999755859</ele>
        <time>2019-08-11T09:42:59.000Z</time>
      </trkpt>
      <trkpt lat="45.05748" lon="4.39611">
        <ele>1107</ele>
        <time>2019-08-11T09:43:00.000Z</time>
      </trkpt>
      <trkpt lat="45.05746" lon="4.39608">
        <ele>1106.4000244141</ele>
        <time>2019-08-11T09:43:01.000Z</time>
      </trkpt>
      <trkpt lat="45.05738" lon="4.39601">
        <ele>1104.4000244141</ele>
        <time>2019-08-11T09:43:04.000Z</time>
      </trkpt>
      <trkpt lat="45.05733" lon="4.39598">
        <ele>1103.8000488281</ele>
        <time>2019-08-11T09:43:05.000Z</time>
      </trkpt>
      <trkpt lat="45.05703" lon="4.39584">
        <ele>1102.4000244141</ele>
        <time>2019-08-11T09:43:11.000Z</time>
      </trkpt>
      <trkpt lat="45.05698" lon="4.39582">
        <ele>1102</ele>
        <time>2019-08-11T09:43:12.000Z</time>
      </trkpt>
      <trkpt lat="45.05692" lon="4.39579">
        <ele>1101.5999755859</ele>
        <time>2019-08-11T09:43:13.000Z</time>
      </trkpt>
      <trkpt lat="45.05686" lon="4.39577">
        <ele>1101.4000244141</ele>
        <time>2019-08-11T09:43:14.000Z</time>
      </trkpt>
      <trkpt lat="45.0568" lon="4.39576">
        <ele>1101</ele>
        <time>2019-08-11T09:43:15.000Z</time>
      </trkpt>
      <trkpt lat="45.05674" lon="4.39575">
        <ele>1101</ele>
        <time>2019-08-11T09:43:16.000Z</time>
      </trkpt>
      <trkpt lat="45.05668" lon="4.39572">
        <ele>1100.1999511719</ele>
        <time>2019-08-11T09:43:17.000Z</time>
      </trkpt>
      <trkpt lat="45.0565" lon="4.39566">
        <ele>1098.4000244141</ele>
        <time>2019-08-11T09:43:20.000Z</time>
      </trkpt>
      <trkpt lat="45.05609" lon="4.39562">
        <ele>1094.8000488281</ele>
        <time>2019-08-11T09:43:26.000Z</time>
      </trkpt>
      <trkpt lat="45.05594" lon="4.39566">
        <ele>1093.4000244141</ele>
        <time>2019-08-11T09:43:28.000Z</time>
      </trkpt>
      <trkpt lat="45.05588" lon="4.39568">
        <ele>1093</ele>
        <time>2019-08-11T09:43:29.000Z</time>
      </trkpt>
      <trkpt lat="45.0556" lon="4.3958">
        <ele>1091</ele>
        <time>2019-08-11T09:43:33.000Z</time>
      </trkpt>
      <trkpt lat="45.05546" lon="4.39584">
        <ele>1091</ele>
        <time>2019-08-11T09:43:35.000Z</time>
      </trkpt>
      <trkpt lat="45.05539" lon="4.39583">
        <ele>1090.8000488281</ele>
        <time>2019-08-11T09:43:36.000Z</time>
      </trkpt>
      <trkpt lat="45.05532" lon="4.39581">
        <ele>1091</ele>
        <time>2019-08-11T09:43:37.000Z</time>
      </trkpt>
      <trkpt lat="45.05527" lon="4.39576">
        <ele>1091.1999511719</ele>
        <time>2019-08-11T09:43:38.000Z</time>
      </trkpt>
      <trkpt lat="45.05522" lon="4.39569">
        <ele>1091.1999511719</ele>
        <time>2019-08-11T09:43:39.000Z</time>
      </trkpt>
      <trkpt lat="45.05519" lon="4.39561">
        <ele>1091.1999511719</ele>
        <time>2019-08-11T09:43:40.000Z</time>
      </trkpt>
      <trkpt lat="45.05516" lon="4.39553">
        <ele>1090.8000488281</ele>
        <time>2019-08-11T09:43:41.000Z</time>
      </trkpt>
      <trkpt lat="45.05514" lon="4.39545">
        <ele>1090.1999511719</ele>
        <time>2019-08-11T09:43:42.000Z</time>
      </trkpt>
      <trkpt lat="45.05511" lon="4.39537">
        <ele>1089.8000488281</ele>
        <time>2019-08-11T09:43:43.000Z</time>
      </trkpt>
      <trkpt lat="45.05507" lon="4.3953">
        <ele>1089.4000244141</ele>
        <time>2019-08-11T09:43:44.000Z</time>
      </trkpt>
      <trkpt lat="45.05503" lon="4.39524">
        <ele>1089.4000244141</ele>
        <time>2019-08-11T09:43:45.000Z</time>
      </trkpt>
      <trkpt lat="45.05492" lon="4.39507">
        <ele>1088.4000244141</ele>
        <time>2019-08-11T09:43:48.000Z</time>
      </trkpt>
      <trkpt lat="45.05486" lon="4.39496">
        <ele>1089</ele>
        <time>2019-08-11T09:43:50.000Z</time>
      </trkpt>
      <trkpt lat="45.05485" lon="4.3949">
        <ele>1089.1999511719</ele>
        <time>2019-08-11T09:43:51.000Z</time>
      </trkpt>
      <trkpt lat="45.05484" lon="4.39485">
        <ele>1089</ele>
        <time>2019-08-11T09:43:52.000Z</time>
      </trkpt>
      <trkpt lat="45.05484" lon="4.39481">
        <ele>1088.5999755859</ele>
        <time>2019-08-11T09:43:53.000Z</time>
      </trkpt>
      <trkpt lat="45.05484" lon="4.39477">
        <ele>1088.4000244141</ele>
        <time>2019-08-11T09:43:54.000Z</time>
      </trkpt>
      <trkpt lat="45.05483" lon="4.39463">
        <ele>1088.8000488281</ele>
        <time>2019-08-11T09:44:06.000Z</time>
      </trkpt>
      <trkpt lat="45.05483" lon="4.39462">
        <ele>1088.8000488281</ele>
        <time>2019-08-11T09:44:07.000Z</time>
      </trkpt>
      <trkpt lat="45.05484" lon="4.39462">
        <ele>1088.5999755859</ele>
        <time>2019-08-11T09:44:09.000Z</time>
      </trkpt>
      <trkpt lat="45.05486" lon="4.39459">
        <ele>1088.4000244141</ele>
        <time>2019-08-11T09:44:15.000Z</time>
      </trkpt>
      <trkpt lat="45.05486" lon="4.39456">
        <ele>1088.5999755859</ele>
        <time>2019-08-11T09:44:17.000Z</time>
      </trkpt>
      <trkpt lat="45.05486" lon="4.39454">
        <ele>1088.4000244141</ele>
        <time>2019-08-11T09:44:18.000Z</time>
      </trkpt>
      <trkpt lat="45.05486" lon="4.39451">
        <ele>1088.4000244141</ele>
        <time>2019-08-11T09:44:19.000Z</time>
      </trkpt>
      <trkpt lat="45.05487" lon="4.39448">
        <ele>1088.4000244141</ele>
        <time>2019-08-11T09:44:20.000Z</time>
      </trkpt>
      <trkpt lat="45.05487" lon="4.39444">
        <ele>1088.1999511719</ele>
        <time>2019-08-11T09:44:21.000Z</time>
      </trkpt>
      <trkpt lat="45.05487" lon="4.3944">
        <ele>1088</ele>
        <time>2019-08-11T09:44:22.000Z</time>
      </trkpt>
      <trkpt lat="45.05488" lon="4.39435">
        <ele>1087.5999755859</ele>
        <time>2019-08-11T09:44:23.000Z</time>
      </trkpt>
      <trkpt lat="45.05488" lon="4.39429">
        <ele>1087.1999511719</ele>
        <time>2019-08-11T09:44:24.000Z</time>
      </trkpt>
      <trkpt lat="45.05489" lon="4.39423">
        <ele>1086.5999755859</ele>
        <time>2019-08-11T09:44:25.000Z</time>
      </trkpt>
      <trkpt lat="45.05496" lon="4.39374">
        <ele>1083.1999511719</ele>
        <time>2019-08-11T09:44:31.000Z</time>
      </trkpt>
      <trkpt lat="45.05497" lon="4.39364">
        <ele>1082.5999755859</ele>
        <time>2019-08-11T09:44:32.000Z</time>
      </trkpt>
      <trkpt lat="45.05497" lon="4.39355">
        <ele>1082</ele>
        <time>2019-08-11T09:44:33.000Z</time>
      </trkpt>
      <trkpt lat="45.05496" lon="4.39345">
        <ele>1081.5999755859</ele>
        <time>2019-08-11T09:44:34.000Z</time>
      </trkpt>
      <trkpt lat="45.05494" lon="4.39326">
        <ele>1081</ele>
        <time>2019-08-11T09:44:36.000Z</time>
      </trkpt>
      <trkpt lat="45.05491" lon="4.39318">
        <ele>1080.5999755859</ele>
        <time>2019-08-11T09:44:37.000Z</time>
      </trkpt>
      <trkpt lat="45.05488" lon="4.39312">
        <ele>1080.4000244141</ele>
        <time>2019-08-11T09:44:38.000Z</time>
      </trkpt>
      <trkpt lat="45.05484" lon="4.39307">
        <ele>1080.4000244141</ele>
        <time>2019-08-11T09:44:39.000Z</time>
      </trkpt>
      <trkpt lat="45.0548" lon="4.39303">
        <ele>1080.5999755859</ele>
        <time>2019-08-11T09:44:40.000Z</time>
      </trkpt>
      <trkpt lat="45.05475" lon="4.393">
        <ele>1080.1999511719</ele>
        <time>2019-08-11T09:44:41.000Z</time>
      </trkpt>
      <trkpt lat="45.0547" lon="4.39297">
        <ele>1080.1999511719</ele>
        <time>2019-08-11T09:44:42.000Z</time>
      </trkpt>
      <trkpt lat="45.05464" lon="4.39295">
        <ele>1080.1999511719</ele>
        <time>2019-08-11T09:44:43.000Z</time>
      </trkpt>
      <trkpt lat="45.05447" lon="4.39288">
        <ele>1079.8000488281</ele>
        <time>2019-08-11T09:44:46.000Z</time>
      </trkpt>
      <trkpt lat="45.05408" lon="4.3928">
        <ele>1077.5999755859</ele>
        <time>2019-08-11T09:44:52.000Z</time>
      </trkpt>
      <trkpt lat="45.05402" lon="4.39278">
        <ele>1077</ele>
        <time>2019-08-11T09:44:53.000Z</time>
      </trkpt>
      <trkpt lat="45.05395" lon="4.39277">
        <ele>1076.8000488281</ele>
        <time>2019-08-11T09:44:54.000Z</time>
      </trkpt>
      <trkpt lat="45.05383" lon="4.39275">
        <ele>1076.5999755859</ele>
        <time>2019-08-11T09:44:56.000Z</time>
      </trkpt>
      <trkpt lat="45.05361" lon="4.39276">
        <ele>1076.8000488281</ele>
        <time>2019-08-11T09:45:00.000Z</time>
      </trkpt>
      <trkpt lat="45.05352" lon="4.39276">
        <ele>1076.4000244141</ele>
        <time>2019-08-11T09:45:02.000Z</time>
      </trkpt>
      <trkpt lat="45.05294" lon="4.39286">
        <ele>1077.1999511719</ele>
        <time>2019-08-11T09:45:13.000Z</time>
      </trkpt>
      <trkpt lat="45.05282" lon="4.39289">
        <ele>1077</ele>
        <time>2019-08-11T09:45:15.000Z</time>
      </trkpt>
      <trkpt lat="45.05272" lon="4.39292">
        <ele>1077.4000244141</ele>
        <time>2019-08-11T09:45:17.000Z</time>
      </trkpt>
      <trkpt lat="45.05268" lon="4.39293">
        <ele>1077.1999511719</ele>
        <time>2019-08-11T09:45:18.000Z</time>
      </trkpt>
      <trkpt lat="45.05264" lon="4.39295">
        <ele>1077.1999511719</ele>
        <time>2019-08-11T09:45:19.000Z</time>
      </trkpt>
      <trkpt lat="45.05248" lon="4.39304">
        <ele>1077.4000244141</ele>
        <time>2019-08-11T09:45:23.000Z</time>
      </trkpt>
      <trkpt lat="45.05234" lon="4.39315">
        <ele>1077.4000244141</ele>
        <time>2019-08-11T09:45:27.000Z</time>
      </trkpt>
      <trkpt lat="45.05224" lon="4.39325">
        <ele>1077.5999755859</ele>
        <time>2019-08-11T09:45:30.000Z</time>
      </trkpt>
      <trkpt lat="45.05212" lon="4.39345">
        <ele>1078.5999755859</ele>
        <time>2019-08-11T09:45:35.000Z</time>
      </trkpt>
      <trkpt lat="45.05205" lon="4.39367">
        <ele>1079</ele>
        <time>2019-08-11T09:45:39.000Z</time>
      </trkpt>
      <trkpt lat="45.05195" lon="4.39399">
        <ele>1079.5999755859</ele>
        <time>2019-08-11T09:45:46.000Z</time>
      </trkpt>
      <trkpt lat="45.05189" lon="4.39424">
        <ele>1079.8000488281</ele>
        <time>2019-08-11T09:45:52.000Z</time>
      </trkpt>
      <trkpt lat="45.05181" lon="4.39454">
        <ele>1080.1999511719</ele>
        <time>2019-08-11T09:45:59.000Z</time>
      </trkpt>
      <trkpt lat="45.05176" lon="4.39488">
        <ele>1081.1999511719</ele>
        <time>2019-08-11T09:46:08.000Z</time>
      </trkpt>
      <trkpt lat="45.05187" lon="4.39537">
        <ele>1083</ele>
        <time>2019-08-11T09:46:23.000Z</time>
      </trkpt>
      <trkpt lat="45.0519" lon="4.39544">
        <ele>1083.4000244141</ele>
        <time>2019-08-11T09:46:27.000Z</time>
      </trkpt>
      <trkpt lat="45.0519" lon="4.39547">
        <ele>1083.4000244141</ele>
        <time>2019-08-11T09:46:28.000Z</time>
      </trkpt>
      <trkpt lat="45.05189" lon="4.39549">
        <ele>1083.4000244141</ele>
        <time>2019-08-11T09:46:29.000Z</time>
      </trkpt>
      <trkpt lat="45.05187" lon="4.39551">
        <ele>1083.4000244141</ele>
        <time>2019-08-11T09:46:30.000Z</time>
      </trkpt>
      <trkpt lat="45.05185" lon="4.39552">
        <ele>1083.1999511719</ele>
        <time>2019-08-11T09:46:31.000Z</time>
      </trkpt>
      <trkpt lat="45.05171" lon="4.39566">
        <ele>1082.4000244141</ele>
        <time>2019-08-11T09:46:37.000Z</time>
      </trkpt>
      <trkpt lat="45.05163" lon="4.39572">
        <ele>1081.8000488281</ele>
        <time>2019-08-11T09:46:39.000Z</time>
      </trkpt>
      <trkpt lat="45.05158" lon="4.39575">
        <ele>1081.4000244141</ele>
        <time>2019-08-11T09:46:40.000Z</time>
      </trkpt>
      <trkpt lat="45.05153" lon="4.39578">
        <ele>1081</ele>
        <time>2019-08-11T09:46:41.000Z</time>
      </trkpt>
      <trkpt lat="45.05148" lon="4.3958">
        <ele>1080.5999755859</ele>
        <time>2019-08-11T09:46:42.000Z</time>
      </trkpt>
      <trkpt lat="45.05143" lon="4.39583">
        <ele>1080.1999511719</ele>
        <time>2019-08-11T09:46:43.000Z</time>
      </trkpt>
      <trkpt lat="45.05128" lon="4.39588">
        <ele>1079.4000244141</ele>
        <time>2019-08-11T09:46:46.000Z</time>
      </trkpt>
      <trkpt lat="45.05117" lon="4.39594">
        <ele>1079.1999511719</ele>
        <time>2019-08-11T09:46:49.000Z</time>
      </trkpt>
      <trkpt lat="45.05112" lon="4.39597">
        <ele>1079</ele>
        <time>2019-08-11T09:46:51.000Z</time>
      </trkpt>
      <trkpt lat="45.05104" lon="4.39602">
        <ele>1078.5999755859</ele>
        <time>2019-08-11T09:47:02.000Z</time>
      </trkpt>
      <trkpt lat="45.05097" lon="4.3961">
        <ele>1078.8000488281</ele>
        <time>2019-08-11T09:47:18.000Z</time>
      </trkpt>
      <trkpt lat="45.05096" lon="4.39611">
        <ele>1078.8000488281</ele>
        <time>2019-08-11T09:47:19.000Z</time>
      </trkpt>
      <trkpt lat="45.05095" lon="4.39613">
        <ele>1078.5999755859</ele>
        <time>2019-08-11T09:47:20.000Z</time>
      </trkpt>
      <trkpt lat="45.05081" lon="4.39626">
        <ele>1078.1999511719</ele>
        <time>2019-08-11T09:47:25.000Z</time>
      </trkpt>
      <trkpt lat="45.05061" lon="4.39643">
        <ele>1078</ele>
        <time>2019-08-11T09:47:31.000Z</time>
      </trkpt>
      <trkpt lat="45.05039" lon="4.39662">
        <ele>1077.4000244141</ele>
        <time>2019-08-11T09:47:38.000Z</time>
      </trkpt>
      <trkpt lat="45.05036" lon="4.39665">
        <ele>1077.4000244141</ele>
        <time>2019-08-11T09:47:39.000Z</time>
      </trkpt>
      <trkpt lat="45.05033" lon="4.39668">
        <ele>1077.4000244141</ele>
        <time>2019-08-11T09:47:40.000Z</time>
      </trkpt>
      <trkpt lat="45.05029" lon="4.3967">
        <ele>1077.1999511719</ele>
        <time>2019-08-11T09:47:41.000Z</time>
      </trkpt>
      <trkpt lat="45.05026" lon="4.39672">
        <ele>1077.1999511719</ele>
        <time>2019-08-11T09:47:42.000Z</time>
      </trkpt>
      <trkpt lat="45.05022" lon="4.39674">
        <ele>1077.4000244141</ele>
        <time>2019-08-11T09:47:43.000Z</time>
      </trkpt>
      <trkpt lat="45.04996" lon="4.39689">
        <ele>1077.8000488281</ele>
        <time>2019-08-11T09:47:51.000Z</time>
      </trkpt>
      <trkpt lat="45.04959" lon="4.39663">
        <ele>1077.4000244141</ele>
        <time>2019-08-11T09:48:01.000Z</time>
      </trkpt>
      <trkpt lat="45.04956" lon="4.39657">
        <ele>1077.5999755859</ele>
        <time>2019-08-11T09:48:02.000Z</time>
      </trkpt>
      <trkpt lat="45.04953" lon="4.39651">
        <ele>1078</ele>
        <time>2019-08-11T09:48:03.000Z</time>
      </trkpt>
      <trkpt lat="45.04952" lon="4.39645">
        <ele>1078.1999511719</ele>
        <time>2019-08-11T09:48:04.000Z</time>
      </trkpt>
      <trkpt lat="45.04952" lon="4.39639">
        <ele>1078.1999511719</ele>
        <time>2019-08-11T09:48:05.000Z</time>
      </trkpt>
      <trkpt lat="45.04952" lon="4.39635">
        <ele>1078.5999755859</ele>
        <time>2019-08-11T09:48:06.000Z</time>
      </trkpt>
      <trkpt lat="45.04949" lon="4.39612">
        <ele>1079.4000244141</ele>
        <time>2019-08-11T09:48:10.000Z</time>
      </trkpt>
      <trkpt lat="45.04952" lon="4.39587">
        <ele>1079.4000244141</ele>
        <time>2019-08-11T09:48:19.000Z</time>
      </trkpt>
      <trkpt lat="45.04949" lon="4.39501">
        <ele>1079.1999511719</ele>
        <time>2019-08-11T09:48:40.000Z</time>
      </trkpt>
      <trkpt lat="45.04941" lon="4.39444">
        <ele>1079.5999755859</ele>
        <time>2019-08-11T09:48:50.000Z</time>
      </trkpt>
      <trkpt lat="45.04938" lon="4.39438">
        <ele>1079.4000244141</ele>
        <time>2019-08-11T09:48:51.000Z</time>
      </trkpt>
      <trkpt lat="45.04935" lon="4.39433">
        <ele>1079.1999511719</ele>
        <time>2019-08-11T09:48:52.000Z</time>
      </trkpt>
      <trkpt lat="45.04932" lon="4.39429">
        <ele>1079</ele>
        <time>2019-08-11T09:48:53.000Z</time>
      </trkpt>
      <trkpt lat="45.04927" lon="4.39426">
        <ele>1079.1999511719</ele>
        <time>2019-08-11T09:48:54.000Z</time>
      </trkpt>
      <trkpt lat="45.04922" lon="4.39424">
        <ele>1079.1999511719</ele>
        <time>2019-08-11T09:48:55.000Z</time>
      </trkpt>
      <trkpt lat="45.04917" lon="4.39422">
        <ele>1079</ele>
        <time>2019-08-11T09:48:56.000Z</time>
      </trkpt>
      <trkpt lat="45.04893" lon="4.39415">
        <ele>1078</ele>
        <time>2019-08-11T09:49:00.000Z</time>
      </trkpt>
      <trkpt lat="45.04886" lon="4.39415">
        <ele>1077.8000488281</ele>
        <time>2019-08-11T09:49:01.000Z</time>
      </trkpt>
      <trkpt lat="45.04867" lon="4.3942">
        <ele>1077.4000244141</ele>
        <time>2019-08-11T09:49:04.000Z</time>
      </trkpt>
      <trkpt lat="45.0483" lon="4.39424">
        <ele>1077.5999755859</ele>
        <time>2019-08-11T09:49:10.000Z</time>
      </trkpt>
      <trkpt lat="45.0479" lon="4.39426">
        <ele>1077.4000244141</ele>
        <time>2019-08-11T09:49:17.000Z</time>
      </trkpt>
      <trkpt lat="45.04734" lon="4.39411">
        <ele>1077.4000244141</ele>
        <time>2019-08-11T09:49:27.000Z</time>
      </trkpt>
      <trkpt lat="45.04711" lon="4.39401">
        <ele>1077.5999755859</ele>
        <time>2019-08-11T09:49:31.000Z</time>
      </trkpt>
      <trkpt lat="45.04702" lon="4.39396">
        <ele>1078.1999511719</ele>
        <time>2019-08-11T09:49:33.000Z</time>
      </trkpt>
      <trkpt lat="45.04698" lon="4.39395">
        <ele>1078.4000244141</ele>
        <time>2019-08-11T09:49:34.000Z</time>
      </trkpt>
      <trkpt lat="45.04693" lon="4.39395">
        <ele>1078.5999755859</ele>
        <time>2019-08-11T09:49:35.000Z</time>
      </trkpt>
      <trkpt lat="45.04689" lon="4.39393">
        <ele>1078.4000244141</ele>
        <time>2019-08-11T09:49:36.000Z</time>
      </trkpt>
      <trkpt lat="45.04685" lon="4.39391">
        <ele>1078.4000244141</ele>
        <time>2019-08-11T09:49:37.000Z</time>
      </trkpt>
      <trkpt lat="45.04682" lon="4.39386">
        <ele>1078.4000244141</ele>
        <time>2019-08-11T09:49:38.000Z</time>
      </trkpt>
      <trkpt lat="45.04681" lon="4.39381">
        <ele>1078.5999755859</ele>
        <time>2019-08-11T09:49:39.000Z</time>
      </trkpt>
      <trkpt lat="45.0468" lon="4.39376">
        <ele>1079</ele>
        <time>2019-08-11T09:49:40.000Z</time>
      </trkpt>
      <trkpt lat="45.0468" lon="4.39371">
        <ele>1079.1999511719</ele>
        <time>2019-08-11T09:49:41.000Z</time>
      </trkpt>
      <trkpt lat="45.0468" lon="4.39366">
        <ele>1079.1999511719</ele>
        <time>2019-08-11T09:49:42.000Z</time>
      </trkpt>
      <trkpt lat="45.04681" lon="4.39361">
        <ele>1079.4000244141</ele>
        <time>2019-08-11T09:49:43.000Z</time>
      </trkpt>
      <trkpt lat="45.04682" lon="4.39281">
        <ele>1079.8000488281</ele>
        <time>2019-08-11T09:49:56.000Z</time>
      </trkpt>
      <trkpt lat="45.04684" lon="4.39199">
        <ele>1079.8000488281</ele>
        <time>2019-08-11T09:50:08.000Z</time>
      </trkpt>
      <trkpt lat="45.04687" lon="4.39155">
        <ele>1079.4000244141</ele>
        <time>2019-08-11T09:50:21.000Z</time>
      </trkpt>
      <trkpt lat="45.04688" lon="4.39147">
        <ele>1079.1999511719</ele>
        <time>2019-08-11T09:50:25.000Z</time>
      </trkpt>
      <trkpt lat="45.04691" lon="4.39133">
        <ele>1079.1999511719</ele>
        <time>2019-08-11T09:50:29.000Z</time>
      </trkpt>
      <trkpt lat="45.04697" lon="4.39113">
        <ele>1079</ele>
        <time>2019-08-11T09:50:34.000Z</time>
      </trkpt>
      <trkpt lat="45.04704" lon="4.39097">
        <ele>1079</ele>
        <time>2019-08-11T09:50:39.000Z</time>
      </trkpt>
      <trkpt lat="45.04705" lon="4.39096">
        <ele>1079</ele>
        <time>2019-08-11T09:50:40.000Z</time>
      </trkpt>
      <trkpt lat="45.04736" lon="4.39081">
        <ele>1079</ele>
        <time>2019-08-11T09:50:51.000Z</time>
      </trkpt>
      <trkpt lat="45.0474" lon="4.39079">
        <ele>1078.8000488281</ele>
        <time>2019-08-11T09:50:52.000Z</time>
      </trkpt>
      <trkpt lat="45.04744" lon="4.39077">
        <ele>1078.8000488281</ele>
        <time>2019-08-11T09:50:53.000Z</time>
      </trkpt>
      <trkpt lat="45.04752" lon="4.39071">
        <ele>1078.8000488281</ele>
        <time>2019-08-11T09:50:55.000Z</time>
      </trkpt>
      <trkpt lat="45.04755" lon="4.39067">
        <ele>1078.8000488281</ele>
        <time>2019-08-11T09:50:56.000Z</time>
      </trkpt>
      <trkpt lat="45.04759" lon="4.39062">
        <ele>1078.8000488281</ele>
        <time>2019-08-11T09:50:57.000Z</time>
      </trkpt>
      <trkpt lat="45.04761" lon="4.39057">
        <ele>1079</ele>
        <time>2019-08-11T09:50:58.000Z</time>
      </trkpt>
      <trkpt lat="45.04764" lon="4.3905">
        <ele>1079</ele>
        <time>2019-08-11T09:50:59.000Z</time>
      </trkpt>
      <trkpt lat="45.04767" lon="4.39045">
        <ele>1079</ele>
        <time>2019-08-11T09:51:00.000Z</time>
      </trkpt>
      <trkpt lat="45.04769" lon="4.39039">
        <ele>1079.1999511719</ele>
        <time>2019-08-11T09:51:01.000Z</time>
      </trkpt>
      <trkpt lat="45.0477" lon="4.39033">
        <ele>1079.4000244141</ele>
        <time>2019-08-11T09:51:02.000Z</time>
      </trkpt>
      <trkpt lat="45.04771" lon="4.39029">
        <ele>1079.8000488281</ele>
        <time>2019-08-11T09:51:03.000Z</time>
      </trkpt>
      <trkpt lat="45.04772" lon="4.39014">
        <ele>1081</ele>
        <time>2019-08-11T09:51:07.000Z</time>
      </trkpt>
      <trkpt lat="45.04765" lon="4.38998">
        <ele>1081.8000488281</ele>
        <time>2019-08-11T09:51:12.000Z</time>
      </trkpt>
      <trkpt lat="45.0476" lon="4.38972">
        <ele>1083.4000244141</ele>
        <time>2019-08-11T09:51:20.000Z</time>
      </trkpt>
      <trkpt lat="45.04757" lon="4.38953">
        <ele>1084.5999755859</ele>
        <time>2019-08-11T09:51:26.000Z</time>
      </trkpt>
      <trkpt lat="45.04755" lon="4.38937">
        <ele>1085.5999755859</ele>
        <time>2019-08-11T09:51:31.000Z</time>
      </trkpt>
      <trkpt lat="45.04753" lon="4.38921">
        <ele>1086.1999511719</ele>
        <time>2019-08-11T09:51:36.000Z</time>
      </trkpt>
      <trkpt lat="45.04753" lon="4.38915">
        <ele>1086.5999755859</ele>
        <time>2019-08-11T09:51:43.000Z</time>
      </trkpt>
      <trkpt lat="45.04753" lon="4.38915">
        <ele>1086.4000244141</ele>
        <time>2019-08-11T09:51:45.000Z</time>
      </trkpt>
      <trkpt lat="45.0475" lon="4.38904">
        <ele>1087</ele>
        <time>2019-08-11T09:51:58.000Z</time>
      </trkpt>
      <trkpt lat="45.04748" lon="4.38897">
        <ele>1087.1999511719</ele>
        <time>2019-08-11T09:52:02.000Z</time>
      </trkpt>
      <trkpt lat="45.04747" lon="4.38895">
        <ele>1087.1999511719</ele>
        <time>2019-08-11T09:52:03.000Z</time>
      </trkpt>
      <trkpt lat="45.04737" lon="4.38848">
        <ele>1088.5999755859</ele>
        <time>2019-08-11T09:52:16.000Z</time>
      </trkpt>
      <trkpt lat="45.04729" lon="4.38769">
        <ele>1090.5999755859</ele>
        <time>2019-08-11T09:52:38.000Z</time>
      </trkpt>
      <trkpt lat="45.04702" lon="4.38696">
        <ele>1092.1999511719</ele>
        <time>2019-08-11T09:52:55.000Z</time>
      </trkpt>
      <trkpt lat="45.04687" lon="4.38661">
        <ele>1092.1999511719</ele>
        <time>2019-08-11T09:53:01.000Z</time>
      </trkpt>
      <trkpt lat="45.04666" lon="4.38621">
        <ele>1091.8000488281</ele>
        <time>2019-08-11T09:53:08.000Z</time>
      </trkpt>
      <trkpt lat="45.0466" lon="4.38602">
        <ele>1091.8000488281</ele>
        <time>2019-08-11T09:53:11.000Z</time>
      </trkpt>
      <trkpt lat="45.04659" lon="4.38595">
        <ele>1091.8000488281</ele>
        <time>2019-08-11T09:53:12.000Z</time>
      </trkpt>
      <trkpt lat="45.04659" lon="4.38588">
        <ele>1092</ele>
        <time>2019-08-11T09:53:13.000Z</time>
      </trkpt>
      <trkpt lat="45.04659" lon="4.38582">
        <ele>1091.8000488281</ele>
        <time>2019-08-11T09:53:14.000Z</time>
      </trkpt>
      <trkpt lat="45.04658" lon="4.38575">
        <ele>1091.8000488281</ele>
        <time>2019-08-11T09:53:15.000Z</time>
      </trkpt>
      <trkpt lat="45.04658" lon="4.38569">
        <ele>1091.5999755859</ele>
        <time>2019-08-11T09:53:16.000Z</time>
      </trkpt>
      <trkpt lat="45.04658" lon="4.38563">
        <ele>1091.5999755859</ele>
        <time>2019-08-11T09:53:17.000Z</time>
      </trkpt>
      <trkpt lat="45.04657" lon="4.3853">
        <ele>1090</ele>
        <time>2019-08-11T09:53:22.000Z</time>
      </trkpt>
      <trkpt lat="45.04657" lon="4.3848">
        <ele>1091</ele>
        <time>2019-08-11T09:53:31.000Z</time>
      </trkpt>
      <trkpt lat="45.0462" lon="4.38433">
        <ele>1094.4000244141</ele>
        <time>2019-08-11T09:53:47.000Z</time>
      </trkpt>
      <trkpt lat="45.04606" lon="4.38409">
        <ele>1097</ele>
        <time>2019-08-11T09:53:55.000Z</time>
      </trkpt>
      <trkpt lat="45.04588" lon="4.3836">
        <ele>1100.4000244141</ele>
        <time>2019-08-11T09:54:14.000Z</time>
      </trkpt>
      <trkpt lat="45.04583" lon="4.38338">
        <ele>1100.8000488281</ele>
        <time>2019-08-11T09:54:20.000Z</time>
      </trkpt>
      <trkpt lat="45.04584" lon="4.38327">
        <ele>1101.1999511719</ele>
        <time>2019-08-11T09:54:23.000Z</time>
      </trkpt>
      <trkpt lat="45.04586" lon="4.38325">
        <ele>1101.4000244141</ele>
        <time>2019-08-11T09:54:24.000Z</time>
      </trkpt>
      <trkpt lat="45.04596" lon="4.38311">
        <ele>1102.8000488281</ele>
        <time>2019-08-11T09:54:30.000Z</time>
      </trkpt>
      <trkpt lat="45.04597" lon="4.38308">
        <ele>1102.8000488281</ele>
        <time>2019-08-11T09:54:31.000Z</time>
      </trkpt>
      <trkpt lat="45.04598" lon="4.38305">
        <ele>1103</ele>
        <time>2019-08-11T09:54:32.000Z</time>
      </trkpt>
      <trkpt lat="45.04599" lon="4.38302">
        <ele>1103</ele>
        <time>2019-08-11T09:54:33.000Z</time>
      </trkpt>
      <trkpt lat="45.04599" lon="4.38298">
        <ele>1103.1999511719</ele>
        <time>2019-08-11T09:54:34.000Z</time>
      </trkpt>
      <trkpt lat="45.04599" lon="4.38295">
        <ele>1103.4000244141</ele>
        <time>2019-08-11T09:54:35.000Z</time>
      </trkpt>
      <trkpt lat="45.04599" lon="4.38213">
        <ele>1103.4000244141</ele>
        <time>2019-08-11T09:54:54.000Z</time>
      </trkpt>
      <trkpt lat="45.04596" lon="4.38204">
        <ele>1103.4000244141</ele>
        <time>2019-08-11T09:54:55.000Z</time>
      </trkpt>
      <trkpt lat="45.04596" lon="4.38197">
        <ele>1103.4000244141</ele>
        <time>2019-08-11T09:54:56.000Z</time>
      </trkpt>
      <trkpt lat="45.04596" lon="4.38191">
        <ele>1103.5999755859</ele>
        <time>2019-08-11T09:54:57.000Z</time>
      </trkpt>
      <trkpt lat="45.04596" lon="4.38186">
        <ele>1103.5999755859</ele>
        <time>2019-08-11T09:54:58.000Z</time>
      </trkpt>
      <trkpt lat="45.04596" lon="4.38181">
        <ele>1103.5999755859</ele>
        <time>2019-08-11T09:54:59.000Z</time>
      </trkpt>
      <trkpt lat="45.04601" lon="4.38124">
        <ele>1100.5999755859</ele>
        <time>2019-08-11T09:55:07.000Z</time>
      </trkpt>
      <trkpt lat="45.04602" lon="4.38115">
        <ele>1099.8000488281</ele>
        <time>2019-08-11T09:55:08.000Z</time>
      </trkpt>
      <trkpt lat="45.04602" lon="4.38106">
        <ele>1099.5999755859</ele>
        <time>2019-08-11T09:55:09.000Z</time>
      </trkpt>
      <trkpt lat="45.04604" lon="4.38098">
        <ele>1099.1999511719</ele>
        <time>2019-08-11T09:55:10.000Z</time>
      </trkpt>
      <trkpt lat="45.04607" lon="4.3809">
        <ele>1098.8000488281</ele>
        <time>2019-08-11T09:55:11.000Z</time>
      </trkpt>
      <trkpt lat="45.0461" lon="4.38082">
        <ele>1098.4000244141</ele>
        <time>2019-08-11T09:55:12.000Z</time>
      </trkpt>
      <trkpt lat="45.04614" lon="4.38073">
        <ele>1098.1999511719</ele>
        <time>2019-08-11T09:55:13.000Z</time>
      </trkpt>
      <trkpt lat="45.04623" lon="4.38046">
        <ele>1097.4000244141</ele>
        <time>2019-08-11T09:55:16.000Z</time>
      </trkpt>
      <trkpt lat="45.04637" lon="4.38007">
        <ele>1095.1999511719</ele>
        <time>2019-08-11T09:55:20.000Z</time>
      </trkpt>
      <trkpt lat="45.04648" lon="4.37979">
        <ele>1091.5999755859</ele>
        <time>2019-08-11T09:55:23.000Z</time>
      </trkpt>
      <trkpt lat="45.04653" lon="4.37971">
        <ele>1090.8000488281</ele>
        <time>2019-08-11T09:55:24.000Z</time>
      </trkpt>
      <trkpt lat="45.04659" lon="4.37963">
        <ele>1090</ele>
        <time>2019-08-11T09:55:25.000Z</time>
      </trkpt>
      <trkpt lat="45.04666" lon="4.37956">
        <ele>1089.8000488281</ele>
        <time>2019-08-11T09:55:26.000Z</time>
      </trkpt>
      <trkpt lat="45.04672" lon="4.37949">
        <ele>1089.1999511719</ele>
        <time>2019-08-11T09:55:27.000Z</time>
      </trkpt>
      <trkpt lat="45.04679" lon="4.37943">
        <ele>1088.4000244141</ele>
        <time>2019-08-11T09:55:28.000Z</time>
      </trkpt>
      <trkpt lat="45.04691" lon="4.37931">
        <ele>1087.8000488281</ele>
        <time>2019-08-11T09:55:30.000Z</time>
      </trkpt>
      <trkpt lat="45.04725" lon="4.37899">
        <ele>1085.8000488281</ele>
        <time>2019-08-11T09:55:36.000Z</time>
      </trkpt>
      <trkpt lat="45.04743" lon="4.37885">
        <ele>1087</ele>
        <time>2019-08-11T09:55:39.000Z</time>
      </trkpt>
      <trkpt lat="45.04778" lon="4.37854">
        <ele>1087</ele>
        <time>2019-08-11T09:55:46.000Z</time>
      </trkpt>
      <trkpt lat="45.04792" lon="4.37844">
        <ele>1086.5999755859</ele>
        <time>2019-08-11T09:55:49.000Z</time>
      </trkpt>
      <trkpt lat="45.04842" lon="4.37801">
        <ele>1086</ele>
        <time>2019-08-11T09:56:00.000Z</time>
      </trkpt>
      <trkpt lat="45.04882" lon="4.37754">
        <ele>1085.1999511719</ele>
        <time>2019-08-11T09:56:10.000Z</time>
      </trkpt>
      <trkpt lat="45.04891" lon="4.37735">
        <ele>1084.5999755859</ele>
        <time>2019-08-11T09:56:13.000Z</time>
      </trkpt>
      <trkpt lat="45.04894" lon="4.37728">
        <ele>1084</ele>
        <time>2019-08-11T09:56:14.000Z</time>
      </trkpt>
      <trkpt lat="45.04897" lon="4.3772">
        <ele>1083.1999511719</ele>
        <time>2019-08-11T09:56:15.000Z</time>
      </trkpt>
      <trkpt lat="45.04901" lon="4.37714">
        <ele>1082.4000244141</ele>
        <time>2019-08-11T09:56:16.000Z</time>
      </trkpt>
      <trkpt lat="45.04905" lon="4.37708">
        <ele>1082</ele>
        <time>2019-08-11T09:56:17.000Z</time>
      </trkpt>
      <trkpt lat="45.04946" lon="4.37651">
        <ele>1081.1999511719</ele>
        <time>2019-08-11T09:56:27.000Z</time>
      </trkpt>
      <trkpt lat="45.04952" lon="4.37643">
        <ele>1081</ele>
        <time>2019-08-11T09:56:32.000Z</time>
      </trkpt>
      <trkpt lat="45.04952" lon="4.37642">
        <ele>1081</ele>
        <time>2019-08-11T09:56:34.000Z</time>
      </trkpt>
      <trkpt lat="45.04952" lon="4.3764">
        <ele>1081</ele>
        <time>2019-08-11T09:56:35.000Z</time>
      </trkpt>
      <trkpt lat="45.04954" lon="4.37638">
        <ele>1081</ele>
        <time>2019-08-11T09:56:36.000Z</time>
      </trkpt>
      <trkpt lat="45.04955" lon="4.37635">
        <ele>1080.8000488281</ele>
        <time>2019-08-11T09:56:37.000Z</time>
      </trkpt>
      <trkpt lat="45.04956" lon="4.37632">
        <ele>1080.8000488281</ele>
        <time>2019-08-11T09:56:38.000Z</time>
      </trkpt>
      <trkpt lat="45.04969" lon="4.37607">
        <ele>1078.8000488281</ele>
        <time>2019-08-11T09:56:43.000Z</time>
      </trkpt>
      <trkpt lat="45.04972" lon="4.376">
        <ele>1078</ele>
        <time>2019-08-11T09:56:44.000Z</time>
      </trkpt>
      <trkpt lat="45.04977" lon="4.37583">
        <ele>1076.1999511719</ele>
        <time>2019-08-11T09:56:46.000Z</time>
      </trkpt>
      <trkpt lat="45.04987" lon="4.37533">
        <ele>1077.1999511719</ele>
        <time>2019-08-11T09:56:53.000Z</time>
      </trkpt>
      <trkpt lat="45.04987" lon="4.37527">
        <ele>1077.1999511719</ele>
        <time>2019-08-11T09:56:54.000Z</time>
      </trkpt>
      <trkpt lat="45.04988" lon="4.37503">
        <ele>1078.1999511719</ele>
        <time>2019-08-11T09:56:58.000Z</time>
      </trkpt>
      <trkpt lat="45.0499" lon="4.37491">
        <ele>1079.1999511719</ele>
        <time>2019-08-11T09:57:00.000Z</time>
      </trkpt>
      <trkpt lat="45.04994" lon="4.37473">
        <ele>1079.4000244141</ele>
        <time>2019-08-11T09:57:03.000Z</time>
      </trkpt>
      <trkpt lat="45.04995" lon="4.37467">
        <ele>1079.4000244141</ele>
        <time>2019-08-11T09:57:04.000Z</time>
      </trkpt>
      <trkpt lat="45.04998" lon="4.37434">
        <ele>1080.1999511719</ele>
        <time>2019-08-11T09:57:10.000Z</time>
      </trkpt>
      <trkpt lat="45.05001" lon="4.37406">
        <ele>1078.5999755859</ele>
        <time>2019-08-11T09:57:16.000Z</time>
      </trkpt>
      <trkpt lat="45.05003" lon="4.3738">
        <ele>1077.8000488281</ele>
        <time>2019-08-11T09:57:20.000Z</time>
      </trkpt>
      <trkpt lat="45.05002" lon="4.37372">
        <ele>1077</ele>
        <time>2019-08-11T09:57:21.000Z</time>
      </trkpt>
      <trkpt lat="45.05001" lon="4.37364">
        <ele>1076.5999755859</ele>
        <time>2019-08-11T09:57:22.000Z</time>
      </trkpt>
      <trkpt lat="45.05" lon="4.37356">
        <ele>1075.5999755859</ele>
        <time>2019-08-11T09:57:23.000Z</time>
      </trkpt>
      <trkpt lat="45.04998" lon="4.37347">
        <ele>1074.8000488281</ele>
        <time>2019-08-11T09:57:24.000Z</time>
      </trkpt>
      <trkpt lat="45.04996" lon="4.37339">
        <ele>1074.4000244141</ele>
        <time>2019-08-11T09:57:25.000Z</time>
      </trkpt>
      <trkpt lat="45.04974" lon="4.37263">
        <ele>1074.4000244141</ele>
        <time>2019-08-11T09:57:33.000Z</time>
      </trkpt>
      <trkpt lat="45.04972" lon="4.37253">
        <ele>1072.8000488281</ele>
        <time>2019-08-11T09:57:34.000Z</time>
      </trkpt>
      <trkpt lat="45.04971" lon="4.37242">
        <ele>1072</ele>
        <time>2019-08-11T09:57:35.000Z</time>
      </trkpt>
      <trkpt lat="45.04971" lon="4.37231">
        <ele>1071.5999755859</ele>
        <time>2019-08-11T09:57:36.000Z</time>
      </trkpt>
      <trkpt lat="45.04973" lon="4.37185">
        <ele>1069.5999755859</ele>
        <time>2019-08-11T09:57:40.000Z</time>
      </trkpt>
      <trkpt lat="45.04977" lon="4.37148">
        <ele>1069</ele>
        <time>2019-08-11T09:57:43.000Z</time>
      </trkpt>
      <trkpt lat="45.04978" lon="4.37135">
        <ele>1068.1999511719</ele>
        <time>2019-08-11T09:57:44.000Z</time>
      </trkpt>
      <trkpt lat="45.04978" lon="4.37123">
        <ele>1067.4000244141</ele>
        <time>2019-08-11T09:57:45.000Z</time>
      </trkpt>
      <trkpt lat="45.04975" lon="4.3711">
        <ele>1066.4000244141</ele>
        <time>2019-08-11T09:57:46.000Z</time>
      </trkpt>
      <trkpt lat="45.0497" lon="4.37099">
        <ele>1065.8000488281</ele>
        <time>2019-08-11T09:57:47.000Z</time>
      </trkpt>
      <trkpt lat="45.04964" lon="4.3709">
        <ele>1064.8000488281</ele>
        <time>2019-08-11T09:57:48.000Z</time>
      </trkpt>
      <trkpt lat="45.04956" lon="4.37082">
        <ele>1064.1999511719</ele>
        <time>2019-08-11T09:57:49.000Z</time>
      </trkpt>
      <trkpt lat="45.04949" lon="4.37074">
        <ele>1063.5999755859</ele>
        <time>2019-08-11T09:57:50.000Z</time>
      </trkpt>
      <trkpt lat="45.04899" lon="4.37019">
        <ele>1063.8000488281</ele>
        <time>2019-08-11T09:57:58.000Z</time>
      </trkpt>
      <trkpt lat="45.04895" lon="4.37011">
        <ele>1063.5999755859</ele>
        <time>2019-08-11T09:57:59.000Z</time>
      </trkpt>
      <trkpt lat="45.04892" lon="4.37003">
        <ele>1063.5999755859</ele>
        <time>2019-08-11T09:58:00.000Z</time>
      </trkpt>
      <trkpt lat="45.04884" lon="4.36978">
        <ele>1064.1999511719</ele>
        <time>2019-08-11T09:58:03.000Z</time>
      </trkpt>
      <trkpt lat="45.04873" lon="4.36928">
        <ele>1062</ele>
        <time>2019-08-11T09:58:09.000Z</time>
      </trkpt>
      <trkpt lat="45.04871" lon="4.36904">
        <ele>1061</ele>
        <time>2019-08-11T09:58:12.000Z</time>
      </trkpt>
      <trkpt lat="45.0487" lon="4.36816">
        <ele>1060.8000488281</ele>
        <time>2019-08-11T09:58:22.000Z</time>
      </trkpt>
      <trkpt lat="45.0487" lon="4.36799">
        <ele>1060.4000244141</ele>
        <time>2019-08-11T09:58:24.000Z</time>
      </trkpt>
      <trkpt lat="45.04868" lon="4.36773">
        <ele>1059</ele>
        <time>2019-08-11T09:58:27.000Z</time>
      </trkpt>
      <trkpt lat="45.04868" lon="4.36764">
        <ele>1058.8000488281</ele>
        <time>2019-08-11T09:58:28.000Z</time>
      </trkpt>
      <trkpt lat="45.04871" lon="4.3669">
        <ele>1060.5999755859</ele>
        <time>2019-08-11T09:58:37.000Z</time>
      </trkpt>
      <trkpt lat="45.04874" lon="4.36663">
        <ele>1061.5999755859</ele>
        <time>2019-08-11T09:58:41.000Z</time>
      </trkpt>
      <trkpt lat="45.04891" lon="4.36609">
        <ele>1063.4000244141</ele>
        <time>2019-08-11T09:58:50.000Z</time>
      </trkpt>
      <trkpt lat="45.04893" lon="4.36603">
        <ele>1063</ele>
        <time>2019-08-11T09:58:51.000Z</time>
      </trkpt>
      <trkpt lat="45.04914" lon="4.36544">
        <ele>1062.8000488281</ele>
        <time>2019-08-11T09:59:00.000Z</time>
      </trkpt>
      <trkpt lat="45.04917" lon="4.3654">
        <ele>1063</ele>
        <time>2019-08-11T09:59:01.000Z</time>
      </trkpt>
      <trkpt lat="45.0492" lon="4.36538">
        <ele>1063.1999511719</ele>
        <time>2019-08-11T09:59:02.000Z</time>
      </trkpt>
      <trkpt lat="45.04944" lon="4.3651">
        <ele>1062.4000244141</ele>
        <time>2019-08-11T09:59:10.000Z</time>
      </trkpt>
      <trkpt lat="45.04949" lon="4.36508">
        <ele>1062.1999511719</ele>
        <time>2019-08-11T09:59:11.000Z</time>
      </trkpt>
      <trkpt lat="45.04975" lon="4.36491">
        <ele>1061.8000488281</ele>
        <time>2019-08-11T09:59:16.000Z</time>
      </trkpt>
      <trkpt lat="45.05031" lon="4.36473">
        <ele>1059.5999755859</ele>
        <time>2019-08-11T09:59:26.000Z</time>
      </trkpt>
      <trkpt lat="45.05037" lon="4.36471">
        <ele>1059.4000244141</ele>
        <time>2019-08-11T09:59:27.000Z</time>
      </trkpt>
      <trkpt lat="45.05049" lon="4.36468">
        <ele>1059</ele>
        <time>2019-08-11T09:59:29.000Z</time>
      </trkpt>
      <trkpt lat="45.05067" lon="4.36465">
        <ele>1058.5999755859</ele>
        <time>2019-08-11T09:59:32.000Z</time>
      </trkpt>
      <trkpt lat="45.05073" lon="4.36462">
        <ele>1058.1999511719</ele>
        <time>2019-08-11T09:59:33.000Z</time>
      </trkpt>
      <trkpt lat="45.05109" lon="4.36442">
        <ele>1056.4000244141</ele>
        <time>2019-08-11T09:59:40.000Z</time>
      </trkpt>
      <trkpt lat="45.05161" lon="4.36427">
        <ele>1053.1999511719</ele>
        <time>2019-08-11T09:59:49.000Z</time>
      </trkpt>
      <trkpt lat="45.05167" lon="4.36427">
        <ele>1053</ele>
        <time>2019-08-11T09:59:50.000Z</time>
      </trkpt>
      <trkpt lat="45.05172" lon="4.36428">
        <ele>1052.8000488281</ele>
        <time>2019-08-11T09:59:51.000Z</time>
      </trkpt>
      <trkpt lat="45.05223" lon="4.36456">
        <ele>1052.1999511719</ele>
        <time>2019-08-11T10:00:01.000Z</time>
      </trkpt>
      <trkpt lat="45.05226" lon="4.36459">
        <ele>1052.5999755859</ele>
        <time>2019-08-11T10:00:02.000Z</time>
      </trkpt>
      <trkpt lat="45.05229" lon="4.36461">
        <ele>1052.8000488281</ele>
        <time>2019-08-11T10:00:03.000Z</time>
      </trkpt>
      <trkpt lat="45.05266" lon="4.36484">
        <ele>1052.1999511719</ele>
        <time>2019-08-11T10:00:16.000Z</time>
      </trkpt>
      <trkpt lat="45.05275" lon="4.36482">
        <ele>1052.4000244141</ele>
        <time>2019-08-11T10:00:18.000Z</time>
      </trkpt>
      <trkpt lat="45.05295" lon="4.3648">
        <ele>1054.4000244141</ele>
        <time>2019-08-11T10:00:23.000Z</time>
      </trkpt>
      <trkpt lat="45.05301" lon="4.36479">
        <ele>1055</ele>
        <time>2019-08-11T10:00:25.000Z</time>
      </trkpt>
      <trkpt lat="45.05312" lon="4.36476">
        <ele>1056.1999511719</ele>
        <time>2019-08-11T10:00:29.000Z</time>
      </trkpt>
      <trkpt lat="45.05323" lon="4.36473">
        <ele>1056.5999755859</ele>
        <time>2019-08-11T10:00:33.000Z</time>
      </trkpt>
      <trkpt lat="45.05336" lon="4.36471">
        <ele>1057.1999511719</ele>
        <time>2019-08-11T10:00:38.000Z</time>
      </trkpt>
      <trkpt lat="45.05346" lon="4.36469">
        <ele>1057.4000244141</ele>
        <time>2019-08-11T10:00:42.000Z</time>
      </trkpt>
      <trkpt lat="45.05358" lon="4.36465">
        <ele>1057.4000244141</ele>
        <time>2019-08-11T10:00:46.000Z</time>
      </trkpt>
      <trkpt lat="45.05372" lon="4.36455">
        <ele>1058.1999511719</ele>
        <time>2019-08-11T10:00:51.000Z</time>
      </trkpt>
      <trkpt lat="45.05387" lon="4.36442">
        <ele>1059.1999511719</ele>
        <time>2019-08-11T10:00:57.000Z</time>
      </trkpt>
      <trkpt lat="45.05403" lon="4.36414">
        <ele>1060.8000488281</ele>
        <time>2019-08-11T10:01:07.000Z</time>
      </trkpt>
      <trkpt lat="45.05407" lon="4.36406">
        <ele>1061.4000244141</ele>
        <time>2019-08-11T10:01:10.000Z</time>
      </trkpt>
      <trkpt lat="45.0541" lon="4.36401">
        <ele>1061.8000488281</ele>
        <time>2019-08-11T10:01:12.000Z</time>
      </trkpt>
      <trkpt lat="45.05442" lon="4.36335">
        <ele>1064.8000488281</ele>
        <time>2019-08-11T10:01:36.000Z</time>
      </trkpt>
      <trkpt lat="45.05468" lon="4.36278">
        <ele>1066.8000488281</ele>
        <time>2019-08-11T10:01:53.000Z</time>
      </trkpt>
      <trkpt lat="45.055" lon="4.36211">
        <ele>1069</ele>
        <time>2019-08-11T10:02:11.000Z</time>
      </trkpt>
      <trkpt lat="45.05525" lon="4.36136">
        <ele>1070</ele>
        <time>2019-08-11T10:02:28.000Z</time>
      </trkpt>
      <trkpt lat="45.05531" lon="4.36114">
        <ele>1070.4000244141</ele>
        <time>2019-08-11T10:02:33.000Z</time>
      </trkpt>
      <trkpt lat="45.05536" lon="4.36101">
        <ele>1070.4000244141</ele>
        <time>2019-08-11T10:02:37.000Z</time>
      </trkpt>
      <trkpt lat="45.0555" lon="4.36054">
        <ele>1070.8000488281</ele>
        <time>2019-08-11T10:02:49.000Z</time>
      </trkpt>
      <trkpt lat="45.05568" lon="4.36002">
        <ele>1074</ele>
        <time>2019-08-11T10:03:04.000Z</time>
      </trkpt>
      <trkpt lat="45.05588" lon="4.35954">
        <ele>1073</ele>
        <time>2019-08-11T10:03:16.000Z</time>
      </trkpt>
      <trkpt lat="45.05591" lon="4.3595">
        <ele>1073</ele>
        <time>2019-08-11T10:03:17.000Z</time>
      </trkpt>
      <trkpt lat="45.0562" lon="4.35913">
        <ele>1069.8000488281</ele>
        <time>2019-08-11T10:03:24.000Z</time>
      </trkpt>
      <trkpt lat="45.05642" lon="4.35889">
        <ele>1065.8000488281</ele>
        <time>2019-08-11T10:03:28.000Z</time>
      </trkpt>
      <trkpt lat="45.05662" lon="4.35871">
        <ele>1062.8000488281</ele>
        <time>2019-08-11T10:03:31.000Z</time>
      </trkpt>
      <trkpt lat="45.05677" lon="4.35859">
        <ele>1062</ele>
        <time>2019-08-11T10:03:33.000Z</time>
      </trkpt>
      <trkpt lat="45.05694" lon="4.35847">
        <ele>1061.4000244141</ele>
        <time>2019-08-11T10:03:35.000Z</time>
      </trkpt>
      <trkpt lat="45.05722" lon="4.35819">
        <ele>1060</ele>
        <time>2019-08-11T10:03:39.000Z</time>
      </trkpt>
      <trkpt lat="45.05746" lon="4.35793">
        <ele>1057.8000488281</ele>
        <time>2019-08-11T10:03:43.000Z</time>
      </trkpt>
      <trkpt lat="45.05762" lon="4.35769">
        <ele>1058.8000488281</ele>
        <time>2019-08-11T10:03:49.000Z</time>
      </trkpt>
      <trkpt lat="45.05762" lon="4.35764">
        <ele>1058.5999755859</ele>
        <time>2019-08-11T10:03:50.000Z</time>
      </trkpt>
      <trkpt lat="45.05762" lon="4.3576">
        <ele>1058.1999511719</ele>
        <time>2019-08-11T10:03:51.000Z</time>
      </trkpt>
      <trkpt lat="45.05762" lon="4.35754">
        <ele>1057.8000488281</ele>
        <time>2019-08-11T10:03:52.000Z</time>
      </trkpt>
      <trkpt lat="45.05762" lon="4.35748">
        <ele>1057.4000244141</ele>
        <time>2019-08-11T10:03:53.000Z</time>
      </trkpt>
      <trkpt lat="45.05765" lon="4.35725">
        <ele>1054.1999511719</ele>
        <time>2019-08-11T10:03:56.000Z</time>
      </trkpt>
      <trkpt lat="45.05767" lon="4.357">
        <ele>1051</ele>
        <time>2019-08-11T10:03:59.000Z</time>
      </trkpt>
      <trkpt lat="45.05767" lon="4.35674">
        <ele>1047.8000488281</ele>
        <time>2019-08-11T10:04:02.000Z</time>
      </trkpt>
      <trkpt lat="45.05766" lon="4.35665">
        <ele>1046</ele>
        <time>2019-08-11T10:04:03.000Z</time>
      </trkpt>
      <trkpt lat="45.05764" lon="4.35655">
        <ele>1045</ele>
        <time>2019-08-11T10:04:04.000Z</time>
      </trkpt>
      <trkpt lat="45.05761" lon="4.35646">
        <ele>1043.8000488281</ele>
        <time>2019-08-11T10:04:05.000Z</time>
      </trkpt>
      <trkpt lat="45.05757" lon="4.35638">
        <ele>1042.5999755859</ele>
        <time>2019-08-11T10:04:06.000Z</time>
      </trkpt>
      <trkpt lat="45.05752" lon="4.35628">
        <ele>1041.5999755859</ele>
        <time>2019-08-11T10:04:07.000Z</time>
      </trkpt>
      <trkpt lat="45.05744" lon="4.3561">
        <ele>1040</ele>
        <time>2019-08-11T10:04:09.000Z</time>
      </trkpt>
      <trkpt lat="45.05739" lon="4.35604">
        <ele>1039</ele>
        <time>2019-08-11T10:04:10.000Z</time>
      </trkpt>
      <trkpt lat="45.05733" lon="4.35599">
        <ele>1038.1999511719</ele>
        <time>2019-08-11T10:04:11.000Z</time>
      </trkpt>
      <trkpt lat="45.05728" lon="4.35595">
        <ele>1037.5999755859</ele>
        <time>2019-08-11T10:04:12.000Z</time>
      </trkpt>
      <trkpt lat="45.05722" lon="4.35592">
        <ele>1036.5999755859</ele>
        <time>2019-08-11T10:04:13.000Z</time>
      </trkpt>
      <trkpt lat="45.05697" lon="4.35576">
        <ele>1033.5999755859</ele>
        <time>2019-08-11T10:04:17.000Z</time>
      </trkpt>
      <trkpt lat="45.05669" lon="4.35555">
        <ele>1029</ele>
        <time>2019-08-11T10:04:22.000Z</time>
      </trkpt>
      <trkpt lat="45.05663" lon="4.35548">
        <ele>1028.1999511719</ele>
        <time>2019-08-11T10:04:23.000Z</time>
      </trkpt>
      <trkpt lat="45.05658" lon="4.35541">
        <ele>1027.1999511719</ele>
        <time>2019-08-11T10:04:24.000Z</time>
      </trkpt>
      <trkpt lat="45.05644" lon="4.35522">
        <ele>1023.5999755859</ele>
        <time>2019-08-11T10:04:27.000Z</time>
      </trkpt>
      <trkpt lat="45.05636" lon="4.35507">
        <ele>1021.799987793</ele>
        <time>2019-08-11T10:04:29.000Z</time>
      </trkpt>
      <trkpt lat="45.05634" lon="4.35496">
        <ele>1020</ele>
        <time>2019-08-11T10:04:30.000Z</time>
      </trkpt>
      <trkpt lat="45.05632" lon="4.35488">
        <ele>1018.5999755859</ele>
        <time>2019-08-11T10:04:31.000Z</time>
      </trkpt>
      <trkpt lat="45.05624" lon="4.3546">
        <ele>1015</ele>
        <time>2019-08-11T10:04:35.000Z</time>
      </trkpt>
      <trkpt lat="45.05621" lon="4.35446">
        <ele>1013.5999755859</ele>
        <time>2019-08-11T10:04:37.000Z</time>
      </trkpt>
      <trkpt lat="45.05621" lon="4.35439">
        <ele>1012.200012207</ele>
        <time>2019-08-11T10:04:38.000Z</time>
      </trkpt>
      <trkpt lat="45.05623" lon="4.35433">
        <ele>1011.200012207</ele>
        <time>2019-08-11T10:04:39.000Z</time>
      </trkpt>
      <trkpt lat="45.05626" lon="4.35426">
        <ele>1010.5999755859</ele>
        <time>2019-08-11T10:04:40.000Z</time>
      </trkpt>
      <trkpt lat="45.05629" lon="4.3542">
        <ele>1010</ele>
        <time>2019-08-11T10:04:41.000Z</time>
      </trkpt>
      <trkpt lat="45.05632" lon="4.35413">
        <ele>1009.799987793</ele>
        <time>2019-08-11T10:04:42.000Z</time>
      </trkpt>
      <trkpt lat="45.05634" lon="4.35406">
        <ele>1009.5999755859</ele>
        <time>2019-08-11T10:04:43.000Z</time>
      </trkpt>
      <trkpt lat="45.05635" lon="4.354">
        <ele>1009.200012207</ele>
        <time>2019-08-11T10:04:44.000Z</time>
      </trkpt>
      <trkpt lat="45.05636" lon="4.35393">
        <ele>1009.200012207</ele>
        <time>2019-08-11T10:04:45.000Z</time>
      </trkpt>
      <trkpt lat="45.05635" lon="4.35386">
        <ele>1009.4000244141</ele>
        <time>2019-08-11T10:04:46.000Z</time>
      </trkpt>
      <trkpt lat="45.05635" lon="4.35379">
        <ele>1009.799987793</ele>
        <time>2019-08-11T10:04:47.000Z</time>
      </trkpt>
      <trkpt lat="45.05633" lon="4.35355">
        <ele>1010.5999755859</ele>
        <time>2019-08-11T10:04:51.000Z</time>
      </trkpt>
      <trkpt lat="45.05632" lon="4.35349">
        <ele>1010.5999755859</ele>
        <time>2019-08-11T10:04:52.000Z</time>
      </trkpt>
      <trkpt lat="45.05624" lon="4.35289">
        <ele>1013.799987793</ele>
        <time>2019-08-11T10:05:12.000Z</time>
      </trkpt>
      <trkpt lat="45.05622" lon="4.35277">
        <ele>1015</ele>
        <time>2019-08-11T10:05:17.000Z</time>
      </trkpt>
      <trkpt lat="45.0562" lon="4.35269">
        <ele>1016</ele>
        <time>2019-08-11T10:05:21.000Z</time>
      </trkpt>
      <trkpt lat="45.0562" lon="4.35253">
        <ele>1018.200012207</ele>
        <time>2019-08-11T10:05:29.000Z</time>
      </trkpt>
      <trkpt lat="45.05621" lon="4.35242">
        <ele>1019</ele>
        <time>2019-08-11T10:05:34.000Z</time>
      </trkpt>
      <trkpt lat="45.05621" lon="4.35241">
        <ele>1019.200012207</ele>
        <time>2019-08-11T10:05:35.000Z</time>
      </trkpt>
      <trkpt lat="45.05621" lon="4.35238">
        <ele>1019.200012207</ele>
        <time>2019-08-11T10:05:36.000Z</time>
      </trkpt>
      <trkpt lat="45.05621" lon="4.35236">
        <ele>1019.4000244141</ele>
        <time>2019-08-11T10:05:37.000Z</time>
      </trkpt>
      <trkpt lat="45.05621" lon="4.35234">
        <ele>1019.4000244141</ele>
        <time>2019-08-11T10:05:38.000Z</time>
      </trkpt>
      <trkpt lat="45.05621" lon="4.35228">
        <ele>1019.4000244141</ele>
        <time>2019-08-11T10:05:40.000Z</time>
      </trkpt>
      <trkpt lat="45.0562" lon="4.35214">
        <ele>1019.4000244141</ele>
        <time>2019-08-11T10:05:44.000Z</time>
      </trkpt>
      <trkpt lat="45.05623" lon="4.35156">
        <ele>1019</ele>
        <time>2019-08-11T10:05:57.000Z</time>
      </trkpt>
      <trkpt lat="45.05626" lon="4.35155">
        <ele>1019.200012207</ele>
        <time>2019-08-11T10:05:58.000Z</time>
      </trkpt>
      <trkpt lat="45.05628" lon="4.35156">
        <ele>1019.5999755859</ele>
        <time>2019-08-11T10:05:59.000Z</time>
      </trkpt>
      <trkpt lat="45.05631" lon="4.35157">
        <ele>1019.799987793</ele>
        <time>2019-08-11T10:06:00.000Z</time>
      </trkpt>
      <trkpt lat="45.05633" lon="4.3516">
        <ele>1020.200012207</ele>
        <time>2019-08-11T10:06:01.000Z</time>
      </trkpt>
      <trkpt lat="45.05635" lon="4.35161">
        <ele>1020.200012207</ele>
        <time>2019-08-11T10:06:02.000Z</time>
      </trkpt>
      <trkpt lat="45.05636" lon="4.35161">
        <ele>1020.5999755859</ele>
        <time>2019-08-11T10:06:03.000Z</time>
      </trkpt>
      <trkpt lat="45.05637" lon="4.3516">
        <ele>1020.5999755859</ele>
        <time>2019-08-11T10:06:04.000Z</time>
      </trkpt>
      <trkpt lat="45.05638" lon="4.35158">
        <ele>1020.799987793</ele>
        <time>2019-08-11T10:06:05.000Z</time>
      </trkpt>
      <trkpt lat="45.05639" lon="4.35156">
        <ele>1020.5999755859</ele>
        <time>2019-08-11T10:06:06.000Z</time>
      </trkpt>
      <trkpt lat="45.05658" lon="4.35135">
        <ele>1020.799987793</ele>
        <time>2019-08-11T10:06:16.000Z</time>
      </trkpt>
      <trkpt lat="45.05673" lon="4.35117">
        <ele>1021.200012207</ele>
        <time>2019-08-11T10:06:24.000Z</time>
      </trkpt>
      <trkpt lat="45.05711" lon="4.35056">
        <ele>1022</ele>
        <time>2019-08-11T10:06:45.000Z</time>
      </trkpt>
      <trkpt lat="45.05722" lon="4.35036">
        <ele>1023</ele>
        <time>2019-08-11T10:06:53.000Z</time>
      </trkpt>
      <trkpt lat="45.05726" lon="4.35032">
        <ele>1023.4000244141</ele>
        <time>2019-08-11T10:06:56.000Z</time>
      </trkpt>
      <trkpt lat="45.05737" lon="4.35001">
        <ele>1026.4000244141</ele>
        <time>2019-08-11T10:07:10.000Z</time>
      </trkpt>
      <trkpt lat="45.05738" lon="4.34983">
        <ele>1028</ele>
        <time>2019-08-11T10:07:18.000Z</time>
      </trkpt>
      <trkpt lat="45.05737" lon="4.3497">
        <ele>1029</ele>
        <time>2019-08-11T10:07:24.000Z</time>
      </trkpt>
      <trkpt lat="45.05736" lon="4.34968">
        <ele>1029.4000244141</ele>
        <time>2019-08-11T10:07:25.000Z</time>
      </trkpt>
      <trkpt lat="45.05736" lon="4.34966">
        <ele>1029.4000244141</ele>
        <time>2019-08-11T10:07:26.000Z</time>
      </trkpt>
      <trkpt lat="45.05736" lon="4.34963">
        <ele>1029.5999755859</ele>
        <time>2019-08-11T10:07:27.000Z</time>
      </trkpt>
      <trkpt lat="45.05736" lon="4.34961">
        <ele>1029.5999755859</ele>
        <time>2019-08-11T10:07:28.000Z</time>
      </trkpt>
      <trkpt lat="45.05735" lon="4.34959">
        <ele>1029.8000488281</ele>
        <time>2019-08-11T10:07:29.000Z</time>
      </trkpt>
      <trkpt lat="45.05735" lon="4.34957">
        <ele>1030</ele>
        <time>2019-08-11T10:07:30.000Z</time>
      </trkpt>
      <trkpt lat="45.05735" lon="4.34954">
        <ele>1030.1999511719</ele>
        <time>2019-08-11T10:07:31.000Z</time>
      </trkpt>
      <trkpt lat="45.05733" lon="4.3492">
        <ele>1033.1999511719</ele>
        <time>2019-08-11T10:07:46.000Z</time>
      </trkpt>
      <trkpt lat="45.05734" lon="4.34893">
        <ele>1035.8000488281</ele>
        <time>2019-08-11T10:08:02.000Z</time>
      </trkpt>
      <trkpt lat="45.05734" lon="4.34891">
        <ele>1036.1999511719</ele>
        <time>2019-08-11T10:08:03.000Z</time>
      </trkpt>
      <trkpt lat="45.05734" lon="4.34848">
        <ele>1039.1999511719</ele>
        <time>2019-08-11T10:08:26.000Z</time>
      </trkpt>
      <trkpt lat="45.05735" lon="4.34847">
        <ele>1039.4000244141</ele>
        <time>2019-08-11T10:08:27.000Z</time>
      </trkpt>
      <trkpt lat="45.05735" lon="4.34845">
        <ele>1039.8000488281</ele>
        <time>2019-08-11T10:08:28.000Z</time>
      </trkpt>
      <trkpt lat="45.05735" lon="4.34843">
        <ele>1040.1999511719</ele>
        <time>2019-08-11T10:08:29.000Z</time>
      </trkpt>
      <trkpt lat="45.05735" lon="4.3484">
        <ele>1040.4000244141</ele>
        <time>2019-08-11T10:08:30.000Z</time>
      </trkpt>
      <trkpt lat="45.05736" lon="4.34805">
        <ele>1041.4000244141</ele>
        <time>2019-08-11T10:08:46.000Z</time>
      </trkpt>
      <trkpt lat="45.05736" lon="4.34803">
        <ele>1041.4000244141</ele>
        <time>2019-08-11T10:08:47.000Z</time>
      </trkpt>
      <trkpt lat="45.05735" lon="4.34779">
        <ele>1043</ele>
        <time>2019-08-11T10:08:56.000Z</time>
      </trkpt>
      <trkpt lat="45.05735" lon="4.34767">
        <ele>1043.1999511719</ele>
        <time>2019-08-11T10:09:01.000Z</time>
      </trkpt>
      <trkpt lat="45.05733" lon="4.34741">
        <ele>1044.5999755859</ele>
        <time>2019-08-11T10:09:11.000Z</time>
      </trkpt>
      <trkpt lat="45.05729" lon="4.34698">
        <ele>1047.5999755859</ele>
        <time>2019-08-11T10:09:31.000Z</time>
      </trkpt>
      <trkpt lat="45.05726" lon="4.34684">
        <ele>1049</ele>
        <time>2019-08-11T10:09:37.000Z</time>
      </trkpt>
      <trkpt lat="45.05723" lon="4.34677">
        <ele>1049.8000488281</ele>
        <time>2019-08-11T10:09:41.000Z</time>
      </trkpt>
      <trkpt lat="45.05722" lon="4.34676">
        <ele>1050</ele>
        <time>2019-08-11T10:09:42.000Z</time>
      </trkpt>
      <trkpt lat="45.05721" lon="4.34674">
        <ele>1050.4000244141</ele>
        <time>2019-08-11T10:09:43.000Z</time>
      </trkpt>
      <trkpt lat="45.0572" lon="4.34673">
        <ele>1050.5999755859</ele>
        <time>2019-08-11T10:09:44.000Z</time>
      </trkpt>
      <trkpt lat="45.05719" lon="4.34671">
        <ele>1050.5999755859</ele>
        <time>2019-08-11T10:09:45.000Z</time>
      </trkpt>
      <trkpt lat="45.05703" lon="4.34648">
        <ele>1052.1999511719</ele>
        <time>2019-08-11T10:10:00.000Z</time>
      </trkpt>
      <trkpt lat="45.05702" lon="4.34647">
        <ele>1052.4000244141</ele>
        <time>2019-08-11T10:10:01.000Z</time>
      </trkpt>
      <trkpt lat="45.05701" lon="4.34646">
        <ele>1052.4000244141</ele>
        <time>2019-08-11T10:10:02.000Z</time>
      </trkpt>
      <trkpt lat="45.057" lon="4.34646">
        <ele>1052.5999755859</ele>
        <time>2019-08-11T10:10:03.000Z</time>
      </trkpt>
      <trkpt lat="45.05699" lon="4.34645">
        <ele>1052.5999755859</ele>
        <time>2019-08-11T10:10:04.000Z</time>
      </trkpt>
      <trkpt lat="45.05698" lon="4.34644">
        <ele>1052.8000488281</ele>
        <time>2019-08-11T10:10:05.000Z</time>
      </trkpt>
      <trkpt lat="45.05698" lon="4.34643">
        <ele>1053</ele>
        <time>2019-08-11T10:10:06.000Z</time>
      </trkpt>
      <trkpt lat="45.05697" lon="4.34642">
        <ele>1053.4000244141</ele>
        <time>2019-08-11T10:10:07.000Z</time>
      </trkpt>
      <trkpt lat="45.0568" lon="4.3462">
        <ele>1055.8000488281</ele>
        <time>2019-08-11T10:10:22.000Z</time>
      </trkpt>
      <trkpt lat="45.0568" lon="4.34618">
        <ele>1056</ele>
        <time>2019-08-11T10:10:23.000Z</time>
      </trkpt>
      <trkpt lat="45.05679" lon="4.34615">
        <ele>1056</ele>
        <time>2019-08-11T10:10:24.000Z</time>
      </trkpt>
      <trkpt lat="45.05678" lon="4.34613">
        <ele>1056.1999511719</ele>
        <time>2019-08-11T10:10:25.000Z</time>
      </trkpt>
      <trkpt lat="45.05678" lon="4.3461">
        <ele>1056.4000244141</ele>
        <time>2019-08-11T10:10:26.000Z</time>
      </trkpt>
      <trkpt lat="45.05678" lon="4.34608">
        <ele>1056.8000488281</ele>
        <time>2019-08-11T10:10:27.000Z</time>
      </trkpt>
      <trkpt lat="45.05678" lon="4.34605">
        <ele>1057</ele>
        <time>2019-08-11T10:10:28.000Z</time>
      </trkpt>
      <trkpt lat="45.05677" lon="4.34602">
        <ele>1057.1999511719</ele>
        <time>2019-08-11T10:10:29.000Z</time>
      </trkpt>
      <trkpt lat="45.05676" lon="4.34598">
        <ele>1057.5999755859</ele>
        <time>2019-08-11T10:10:31.000Z</time>
      </trkpt>
      <trkpt lat="45.05675" lon="4.34595">
        <ele>1057.5999755859</ele>
        <time>2019-08-11T10:10:32.000Z</time>
      </trkpt>
      <trkpt lat="45.05674" lon="4.34593">
        <ele>1057.5999755859</ele>
        <time>2019-08-11T10:10:33.000Z</time>
      </trkpt>
      <trkpt lat="45.05672" lon="4.34591">
        <ele>1057.5999755859</ele>
        <time>2019-08-11T10:10:34.000Z</time>
      </trkpt>
      <trkpt lat="45.0567" lon="4.34589">
        <ele>1057.4000244141</ele>
        <time>2019-08-11T10:10:35.000Z</time>
      </trkpt>
      <trkpt lat="45.05668" lon="4.34586">
        <ele>1057.5999755859</ele>
        <time>2019-08-11T10:10:36.000Z</time>
      </trkpt>
      <trkpt lat="45.05666" lon="4.34584">
        <ele>1057.8000488281</ele>
        <time>2019-08-11T10:10:37.000Z</time>
      </trkpt>
      <trkpt lat="45.05638" lon="4.34508">
        <ele>1059.5999755859</ele>
        <time>2019-08-11T10:11:04.000Z</time>
      </trkpt>
      <trkpt lat="45.05627" lon="4.3448">
        <ele>1057.8000488281</ele>
        <time>2019-08-11T10:11:09.000Z</time>
      </trkpt>
      <trkpt lat="45.05626" lon="4.34471">
        <ele>1057.4000244141</ele>
        <time>2019-08-11T10:11:10.000Z</time>
      </trkpt>
      <trkpt lat="45.05618" lon="4.34429">
        <ele>1055.4000244141</ele>
        <time>2019-08-11T10:11:15.000Z</time>
      </trkpt>
      <trkpt lat="45.05603" lon="4.34373">
        <ele>1052.1999511719</ele>
        <time>2019-08-11T10:11:21.000Z</time>
      </trkpt>
      <trkpt lat="45.05602" lon="4.34361">
        <ele>1050.8000488281</ele>
        <time>2019-08-11T10:11:22.000Z</time>
      </trkpt>
      <trkpt lat="45.05601" lon="4.34349">
        <ele>1049.8000488281</ele>
        <time>2019-08-11T10:11:23.000Z</time>
      </trkpt>
      <trkpt lat="45.05601" lon="4.34337">
        <ele>1049</ele>
        <time>2019-08-11T10:11:24.000Z</time>
      </trkpt>
      <trkpt lat="45.05601" lon="4.34314">
        <ele>1047.8000488281</ele>
        <time>2019-08-11T10:11:26.000Z</time>
      </trkpt>
      <trkpt lat="45.05596" lon="4.34305">
        <ele>1047.4000244141</ele>
        <time>2019-08-11T10:11:27.000Z</time>
      </trkpt>
      <trkpt lat="45.0559" lon="4.34299">
        <ele>1047.4000244141</ele>
        <time>2019-08-11T10:11:28.000Z</time>
      </trkpt>
      <trkpt lat="45.05584" lon="4.34294">
        <ele>1047.8000488281</ele>
        <time>2019-08-11T10:11:29.000Z</time>
      </trkpt>
      <trkpt lat="45.05579" lon="4.34289">
        <ele>1048.4000244141</ele>
        <time>2019-08-11T10:11:30.000Z</time>
      </trkpt>
      <trkpt lat="45.05574" lon="4.34284">
        <ele>1048.8000488281</ele>
        <time>2019-08-11T10:11:31.000Z</time>
      </trkpt>
      <trkpt lat="45.0557" lon="4.34279">
        <ele>1049.4000244141</ele>
        <time>2019-08-11T10:11:32.000Z</time>
      </trkpt>
      <trkpt lat="45.05567" lon="4.34274">
        <ele>1050.1999511719</ele>
        <time>2019-08-11T10:11:33.000Z</time>
      </trkpt>
      <trkpt lat="45.05563" lon="4.34263">
        <ele>1051.5999755859</ele>
        <time>2019-08-11T10:11:35.000Z</time>
      </trkpt>
      <trkpt lat="45.05562" lon="4.34257">
        <ele>1052.4000244141</ele>
        <time>2019-08-11T10:11:36.000Z</time>
      </trkpt>
      <trkpt lat="45.05561" lon="4.34246">
        <ele>1053</ele>
        <time>2019-08-11T10:11:38.000Z</time>
      </trkpt>
      <trkpt lat="45.05558" lon="4.34219">
        <ele>1054.5999755859</ele>
        <time>2019-08-11T10:11:43.000Z</time>
      </trkpt>
      <trkpt lat="45.05557" lon="4.34213">
        <ele>1055.1999511719</ele>
        <time>2019-08-11T10:11:44.000Z</time>
      </trkpt>
      <trkpt lat="45.05557" lon="4.34208">
        <ele>1055.4000244141</ele>
        <time>2019-08-11T10:11:45.000Z</time>
      </trkpt>
      <trkpt lat="45.05556" lon="4.34194">
        <ele>1055</ele>
        <time>2019-08-11T10:11:47.000Z</time>
      </trkpt>
      <trkpt lat="45.05555" lon="4.34188">
        <ele>1054.8000488281</ele>
        <time>2019-08-11T10:11:48.000Z</time>
      </trkpt>
      <trkpt lat="45.05552" lon="4.34183">
        <ele>1054.5999755859</ele>
        <time>2019-08-11T10:11:49.000Z</time>
      </trkpt>
      <trkpt lat="45.05549" lon="4.34179">
        <ele>1054.5999755859</ele>
        <time>2019-08-11T10:11:50.000Z</time>
      </trkpt>
      <trkpt lat="45.05545" lon="4.34175">
        <ele>1055</ele>
        <time>2019-08-11T10:11:51.000Z</time>
      </trkpt>
      <trkpt lat="45.05542" lon="4.34172">
        <ele>1055.8000488281</ele>
        <time>2019-08-11T10:11:52.000Z</time>
      </trkpt>
      <trkpt lat="45.05539" lon="4.3417">
        <ele>1056.4000244141</ele>
        <time>2019-08-11T10:11:53.000Z</time>
      </trkpt>
      <trkpt lat="45.05535" lon="4.34169">
        <ele>1056.5999755859</ele>
        <time>2019-08-11T10:11:54.000Z</time>
      </trkpt>
      <trkpt lat="45.05532" lon="4.34167">
        <ele>1056.8000488281</ele>
        <time>2019-08-11T10:11:55.000Z</time>
      </trkpt>
      <trkpt lat="45.05529" lon="4.34167">
        <ele>1056.8000488281</ele>
        <time>2019-08-11T10:11:56.000Z</time>
      </trkpt>
      <trkpt lat="45.0551" lon="4.34162">
        <ele>1058.5999755859</ele>
        <time>2019-08-11T10:12:03.000Z</time>
      </trkpt>
      <trkpt lat="45.05469" lon="4.34147">
        <ele>1060</ele>
        <time>2019-08-11T10:12:18.000Z</time>
      </trkpt>
      <trkpt lat="45.05456" lon="4.34137">
        <ele>1059.1999511719</ele>
        <time>2019-08-11T10:12:24.000Z</time>
      </trkpt>
      <trkpt lat="45.05456" lon="4.34135">
        <ele>1059.4000244141</ele>
        <time>2019-08-11T10:12:25.000Z</time>
      </trkpt>
      <trkpt lat="45.05457" lon="4.34134">
        <ele>1059.5999755859</ele>
        <time>2019-08-11T10:12:26.000Z</time>
      </trkpt>
      <trkpt lat="45.0546" lon="4.34134">
        <ele>1060.1999511719</ele>
        <time>2019-08-11T10:12:30.000Z</time>
      </trkpt>
      <trkpt lat="45.05489" lon="4.34134">
        <ele>1061.8000488281</ele>
        <time>2019-08-11T10:12:46.000Z</time>
      </trkpt>
      <trkpt lat="45.0549" lon="4.34133">
        <ele>1062</ele>
        <time>2019-08-11T10:12:47.000Z</time>
      </trkpt>
      <trkpt lat="45.05493" lon="4.34129">
        <ele>1062.4000244141</ele>
        <time>2019-08-11T10:12:50.000Z</time>
      </trkpt>
      <trkpt lat="45.05494" lon="4.34127">
        <ele>1062.5999755859</ele>
        <time>2019-08-11T10:12:51.000Z</time>
      </trkpt>
      <trkpt lat="45.05497" lon="4.34122">
        <ele>1063.1999511719</ele>
        <time>2019-08-11T10:12:55.000Z</time>
      </trkpt>
      <trkpt lat="45.05512" lon="4.34102">
        <ele>1065.1999511719</ele>
        <time>2019-08-11T10:13:08.000Z</time>
      </trkpt>
      <trkpt lat="45.05513" lon="4.34101">
        <ele>1065.1999511719</ele>
        <time>2019-08-11T10:13:09.000Z</time>
      </trkpt>
      <trkpt lat="45.05514" lon="4.34099">
        <ele>1065.4000244141</ele>
        <time>2019-08-11T10:13:10.000Z</time>
      </trkpt>
      <trkpt lat="45.05515" lon="4.34098">
        <ele>1065.5999755859</ele>
        <time>2019-08-11T10:13:11.000Z</time>
      </trkpt>
      <trkpt lat="45.05517" lon="4.34096">
        <ele>1065.8000488281</ele>
        <time>2019-08-11T10:13:12.000Z</time>
      </trkpt>
      <trkpt lat="45.05518" lon="4.34095">
        <ele>1065.8000488281</ele>
        <time>2019-08-11T10:13:13.000Z</time>
      </trkpt>
      <trkpt lat="45.05519" lon="4.34093">
        <ele>1066</ele>
        <time>2019-08-11T10:13:14.000Z</time>
      </trkpt>
      <trkpt lat="45.0552" lon="4.34091">
        <ele>1066</ele>
        <time>2019-08-11T10:13:15.000Z</time>
      </trkpt>
      <trkpt lat="45.05521" lon="4.3409">
        <ele>1066.1999511719</ele>
        <time>2019-08-11T10:13:16.000Z</time>
      </trkpt>
      <trkpt lat="45.05522" lon="4.34089">
        <ele>1066.1999511719</ele>
        <time>2019-08-11T10:13:17.000Z</time>
      </trkpt>
      <trkpt lat="45.05527" lon="4.34054">
        <ele>1069.4000244141</ele>
        <time>2019-08-11T10:13:36.000Z</time>
      </trkpt>
      <trkpt lat="45.05529" lon="4.34043">
        <ele>1070.1999511719</ele>
        <time>2019-08-11T10:13:41.000Z</time>
      </trkpt>
      <trkpt lat="45.05529" lon="4.34041">
        <ele>1070.1999511719</ele>
        <time>2019-08-11T10:13:42.000Z</time>
      </trkpt>
      <trkpt lat="45.05529" lon="4.34039">
        <ele>1070.4000244141</ele>
        <time>2019-08-11T10:13:43.000Z</time>
      </trkpt>
      <trkpt lat="45.0553" lon="4.34038">
        <ele>1070.4000244141</ele>
        <time>2019-08-11T10:13:44.000Z</time>
      </trkpt>
      <trkpt lat="45.0553" lon="4.34036">
        <ele>1070.5999755859</ele>
        <time>2019-08-11T10:13:45.000Z</time>
      </trkpt>
      <trkpt lat="45.05531" lon="4.34034">
        <ele>1070.5999755859</ele>
        <time>2019-08-11T10:13:46.000Z</time>
      </trkpt>
      <trkpt lat="45.05532" lon="4.34027">
        <ele>1071</ele>
        <time>2019-08-11T10:13:49.000Z</time>
      </trkpt>
      <trkpt lat="45.05532" lon="4.34024">
        <ele>1071</ele>
        <time>2019-08-11T10:13:50.000Z</time>
      </trkpt>
      <trkpt lat="45.05532" lon="4.34021">
        <ele>1071</ele>
        <time>2019-08-11T10:13:51.000Z</time>
      </trkpt>
      <trkpt lat="45.05532" lon="4.34019">
        <ele>1071</ele>
        <time>2019-08-11T10:13:52.000Z</time>
      </trkpt>
      <trkpt lat="45.05532" lon="4.34017">
        <ele>1071.1999511719</ele>
        <time>2019-08-11T10:13:53.000Z</time>
      </trkpt>
      <trkpt lat="45.05532" lon="4.34015">
        <ele>1071.1999511719</ele>
        <time>2019-08-11T10:13:54.000Z</time>
      </trkpt>
      <trkpt lat="45.05531" lon="4.3399">
        <ele>1071.8000488281</ele>
        <time>2019-08-11T10:14:03.000Z</time>
      </trkpt>
      <trkpt lat="45.0552" lon="4.33935">
        <ele>1072.5999755859</ele>
        <time>2019-08-11T10:14:19.000Z</time>
      </trkpt>
      <trkpt lat="45.05502" lon="4.3385">
        <ele>1075</ele>
        <time>2019-08-11T10:14:45.000Z</time>
      </trkpt>
      <trkpt lat="45.055" lon="4.33814">
        <ele>1077.5999755859</ele>
        <time>2019-08-11T10:14:59.000Z</time>
      </trkpt>
      <trkpt lat="45.05502" lon="4.33796">
        <ele>1078.5999755859</ele>
        <time>2019-08-11T10:15:06.000Z</time>
      </trkpt>
      <trkpt lat="45.05501" lon="4.33794">
        <ele>1078.8000488281</ele>
        <time>2019-08-11T10:15:07.000Z</time>
      </trkpt>
      <trkpt lat="45.05501" lon="4.33792">
        <ele>1079</ele>
        <time>2019-08-11T10:15:08.000Z</time>
      </trkpt>
      <trkpt lat="45.05501" lon="4.3379">
        <ele>1079.1999511719</ele>
        <time>2019-08-11T10:15:09.000Z</time>
      </trkpt>
      <trkpt lat="45.055" lon="4.33788">
        <ele>1079.1999511719</ele>
        <time>2019-08-11T10:15:10.000Z</time>
      </trkpt>
      <trkpt lat="45.05501" lon="4.33784">
        <ele>1079.5999755859</ele>
        <time>2019-08-11T10:15:12.000Z</time>
      </trkpt>
      <trkpt lat="45.05501" lon="4.33782">
        <ele>1079.8000488281</ele>
        <time>2019-08-11T10:15:13.000Z</time>
      </trkpt>
      <trkpt lat="45.05501" lon="4.33779">
        <ele>1080</ele>
        <time>2019-08-11T10:15:14.000Z</time>
      </trkpt>
      <trkpt lat="45.05502" lon="4.33777">
        <ele>1080.1999511719</ele>
        <time>2019-08-11T10:15:15.000Z</time>
      </trkpt>
      <trkpt lat="45.05502" lon="4.33775">
        <ele>1080.5999755859</ele>
        <time>2019-08-11T10:15:16.000Z</time>
      </trkpt>
      <trkpt lat="45.05502" lon="4.33773">
        <ele>1080.8000488281</ele>
        <time>2019-08-11T10:15:17.000Z</time>
      </trkpt>
      <trkpt lat="45.05501" lon="4.33771">
        <ele>1081</ele>
        <time>2019-08-11T10:15:18.000Z</time>
      </trkpt>
      <trkpt lat="45.055" lon="4.33769">
        <ele>1081.1999511719</ele>
        <time>2019-08-11T10:15:19.000Z</time>
      </trkpt>
      <trkpt lat="45.05499" lon="4.33766">
        <ele>1081.5999755859</ele>
        <time>2019-08-11T10:15:20.000Z</time>
      </trkpt>
      <trkpt lat="45.05497" lon="4.33763">
        <ele>1081.8000488281</ele>
        <time>2019-08-11T10:15:21.000Z</time>
      </trkpt>
      <trkpt lat="45.05496" lon="4.3376">
        <ele>1082</ele>
        <time>2019-08-11T10:15:22.000Z</time>
      </trkpt>
      <trkpt lat="45.05494" lon="4.33757">
        <ele>1082</ele>
        <time>2019-08-11T10:15:23.000Z</time>
      </trkpt>
      <trkpt lat="45.05487" lon="4.33739">
        <ele>1082.8000488281</ele>
        <time>2019-08-11T10:15:29.000Z</time>
      </trkpt>
      <trkpt lat="45.05481" lon="4.33725">
        <ele>1083.1999511719</ele>
        <time>2019-08-11T10:15:34.000Z</time>
      </trkpt>
      <trkpt lat="45.05478" lon="4.3372">
        <ele>1083.1999511719</ele>
        <time>2019-08-11T10:15:36.000Z</time>
      </trkpt>
      <trkpt lat="45.05456" lon="4.33678">
        <ele>1080.8000488281</ele>
        <time>2019-08-11T10:15:46.000Z</time>
      </trkpt>
      <trkpt lat="45.05445" lon="4.33657">
        <ele>1079.5999755859</ele>
        <time>2019-08-11T10:15:50.000Z</time>
      </trkpt>
      <trkpt lat="45.05442" lon="4.3365">
        <ele>1079.1999511719</ele>
        <time>2019-08-11T10:15:51.000Z</time>
      </trkpt>
      <trkpt lat="45.0544" lon="4.33643">
        <ele>1078.8000488281</ele>
        <time>2019-08-11T10:15:52.000Z</time>
      </trkpt>
      <trkpt lat="45.05437" lon="4.33637">
        <ele>1078.4000244141</ele>
        <time>2019-08-11T10:15:53.000Z</time>
      </trkpt>
      <trkpt lat="45.05434" lon="4.33631">
        <ele>1077.8000488281</ele>
        <time>2019-08-11T10:15:54.000Z</time>
      </trkpt>
      <trkpt lat="45.0543" lon="4.33624">
        <ele>1077.4000244141</ele>
        <time>2019-08-11T10:15:55.000Z</time>
      </trkpt>
      <trkpt lat="45.05417" lon="4.336">
        <ele>1076.1999511719</ele>
        <time>2019-08-11T10:15:58.000Z</time>
      </trkpt>
      <trkpt lat="45.05399" lon="4.33569">
        <ele>1073.5999755859</ele>
        <time>2019-08-11T10:16:02.000Z</time>
      </trkpt>
      <trkpt lat="45.05393" lon="4.33555">
        <ele>1073</ele>
        <time>2019-08-11T10:16:04.000Z</time>
      </trkpt>
      <trkpt lat="45.05389" lon="4.33548">
        <ele>1072.8000488281</ele>
        <time>2019-08-11T10:16:05.000Z</time>
      </trkpt>
      <trkpt lat="45.05385" lon="4.3354">
        <ele>1072.5999755859</ele>
        <time>2019-08-11T10:16:06.000Z</time>
      </trkpt>
      <trkpt lat="45.05378" lon="4.33517">
        <ele>1072</ele>
        <time>2019-08-11T10:16:12.000Z</time>
      </trkpt>
      <trkpt lat="45.05377" lon="4.33516">
        <ele>1071.8000488281</ele>
        <time>2019-08-11T10:16:15.000Z</time>
      </trkpt>
      <trkpt lat="45.05379" lon="4.33516">
        <ele>1071.8000488281</ele>
        <time>2019-08-11T10:16:18.000Z</time>
      </trkpt>
      <trkpt lat="45.05379" lon="4.33514">
        <ele>1072</ele>
        <time>2019-08-11T10:16:22.000Z</time>
      </trkpt>
      <trkpt lat="45.05379" lon="4.33514">
        <ele>1071.8000488281</ele>
        <time>2019-08-11T10:16:25.000Z</time>
      </trkpt>
      <trkpt lat="45.05372" lon="4.33517">
        <ele>1070.8000488281</ele>
        <time>2019-08-11T10:16:43.000Z</time>
      </trkpt>
      <trkpt lat="45.05369" lon="4.33515">
        <ele>1070.4000244141</ele>
        <time>2019-08-11T10:16:45.000Z</time>
      </trkpt>
      <trkpt lat="45.05362" lon="4.3351">
        <ele>1069.8000488281</ele>
        <time>2019-08-11T10:16:49.000Z</time>
      </trkpt>
      <trkpt lat="45.05349" lon="4.33497">
        <ele>1069.1999511719</ele>
        <time>2019-08-11T10:16:55.000Z</time>
      </trkpt>
      <trkpt lat="45.05344" lon="4.33486">
        <ele>1068.5999755859</ele>
        <time>2019-08-11T10:17:00.000Z</time>
      </trkpt>
      <trkpt lat="45.05344" lon="4.33483">
        <ele>1068.5999755859</ele>
        <time>2019-08-11T10:17:03.000Z</time>
      </trkpt>
      <trkpt lat="45.05345" lon="4.33483">
        <ele>1068.5999755859</ele>
        <time>2019-08-11T10:17:04.000Z</time>
      </trkpt>
      <trkpt lat="45.05345" lon="4.33482">
        <ele>1068.5999755859</ele>
        <time>2019-08-11T10:17:05.000Z</time>
      </trkpt>
      <trkpt lat="45.05346" lon="4.33481">
        <ele>1068.4000244141</ele>
        <time>2019-08-11T10:17:06.000Z</time>
      </trkpt>
      <trkpt lat="45.05347" lon="4.3348">
        <ele>1068.1999511719</ele>
        <time>2019-08-11T10:17:07.000Z</time>
      </trkpt>
      <trkpt lat="45.05349" lon="4.33479">
        <ele>1068.1999511719</ele>
        <time>2019-08-11T10:17:08.000Z</time>
      </trkpt>
      <trkpt lat="45.05351" lon="4.33478">
        <ele>1068.1999511719</ele>
        <time>2019-08-11T10:17:09.000Z</time>
      </trkpt>
      <trkpt lat="45.05354" lon="4.33477">
        <ele>1068</ele>
        <time>2019-08-11T10:17:10.000Z</time>
      </trkpt>
      <trkpt lat="45.05362" lon="4.33468">
        <ele>1068</ele>
        <time>2019-08-11T10:17:14.000Z</time>
      </trkpt>
      <trkpt lat="45.05374" lon="4.33452">
        <ele>1069</ele>
        <time>2019-08-11T10:17:21.000Z</time>
      </trkpt>
      <trkpt lat="45.05387" lon="4.33439">
        <ele>1069.1999511719</ele>
        <time>2019-08-11T10:17:27.000Z</time>
      </trkpt>
      <trkpt lat="45.05399" lon="4.33426">
        <ele>1069.4000244141</ele>
        <time>2019-08-11T10:17:32.000Z</time>
      </trkpt>
      <trkpt lat="45.05419" lon="4.33414">
        <ele>1069.8000488281</ele>
        <time>2019-08-11T10:17:39.000Z</time>
      </trkpt>
      <trkpt lat="45.05429" lon="4.33411">
        <ele>1070.1999511719</ele>
        <time>2019-08-11T10:17:42.000Z</time>
      </trkpt>
      <trkpt lat="45.05432" lon="4.33409">
        <ele>1070.1999511719</ele>
        <time>2019-08-11T10:17:43.000Z</time>
      </trkpt>
      <trkpt lat="45.05435" lon="4.33406">
        <ele>1070.1999511719</ele>
        <time>2019-08-11T10:17:44.000Z</time>
      </trkpt>
      <trkpt lat="45.05447" lon="4.33393">
        <ele>1068.8000488281</ele>
        <time>2019-08-11T10:17:49.000Z</time>
      </trkpt>
      <trkpt lat="45.0545" lon="4.33387">
        <ele>1067.5999755859</ele>
        <time>2019-08-11T10:17:50.000Z</time>
      </trkpt>
      <trkpt lat="45.05451" lon="4.33383">
        <ele>1067.8000488281</ele>
        <time>2019-08-11T10:17:51.000Z</time>
      </trkpt>
      <trkpt lat="45.05467" lon="4.33318">
        <ele>1067.8000488281</ele>
        <time>2019-08-11T10:18:06.000Z</time>
      </trkpt>
      <trkpt lat="45.0547" lon="4.33305">
        <ele>1067.4000244141</ele>
        <time>2019-08-11T10:18:08.000Z</time>
      </trkpt>
      <trkpt lat="45.05472" lon="4.33299">
        <ele>1067</ele>
        <time>2019-08-11T10:18:09.000Z</time>
      </trkpt>
      <trkpt lat="45.05481" lon="4.33266">
        <ele>1063.5999755859</ele>
        <time>2019-08-11T10:18:14.000Z</time>
      </trkpt>
      <trkpt lat="45.05483" lon="4.33251">
        <ele>1062.4000244141</ele>
        <time>2019-08-11T10:18:16.000Z</time>
      </trkpt>
      <trkpt lat="45.05483" lon="4.33245">
        <ele>1061.8000488281</ele>
        <time>2019-08-11T10:18:17.000Z</time>
      </trkpt>
      <trkpt lat="45.05483" lon="4.33241">
        <ele>1061.4000244141</ele>
        <time>2019-08-11T10:18:18.000Z</time>
      </trkpt>
      <trkpt lat="45.05481" lon="4.33235">
        <ele>1060.5999755859</ele>
        <time>2019-08-11T10:18:19.000Z</time>
      </trkpt>
      <trkpt lat="45.0548" lon="4.33228">
        <ele>1059.4000244141</ele>
        <time>2019-08-11T10:18:20.000Z</time>
      </trkpt>
      <trkpt lat="45.05478" lon="4.33221">
        <ele>1058.4000244141</ele>
        <time>2019-08-11T10:18:21.000Z</time>
      </trkpt>
      <trkpt lat="45.05474" lon="4.33197">
        <ele>1055.1999511719</ele>
        <time>2019-08-11T10:18:25.000Z</time>
      </trkpt>
      <trkpt lat="45.05468" lon="4.33172">
        <ele>1051.1999511719</ele>
        <time>2019-08-11T10:18:29.000Z</time>
      </trkpt>
      <trkpt lat="45.05463" lon="4.33152">
        <ele>1048.1999511719</ele>
        <time>2019-08-11T10:18:32.000Z</time>
      </trkpt>
      <trkpt lat="45.0546" lon="4.33137">
        <ele>1047.4000244141</ele>
        <time>2019-08-11T10:18:34.000Z</time>
      </trkpt>
      <trkpt lat="45.05457" lon="4.33119">
        <ele>1047</ele>
        <time>2019-08-11T10:18:37.000Z</time>
      </trkpt>
      <trkpt lat="45.05458" lon="4.33113">
        <ele>1047</ele>
        <time>2019-08-11T10:18:38.000Z</time>
      </trkpt>
      <trkpt lat="45.05459" lon="4.33108">
        <ele>1047</ele>
        <time>2019-08-11T10:18:39.000Z</time>
      </trkpt>
      <trkpt lat="45.05462" lon="4.33104">
        <ele>1046.8000488281</ele>
        <time>2019-08-11T10:18:40.000Z</time>
      </trkpt>
      <trkpt lat="45.05463" lon="4.33101">
        <ele>1046.8000488281</ele>
        <time>2019-08-11T10:18:41.000Z</time>
      </trkpt>
      <trkpt lat="45.05464" lon="4.33096">
        <ele>1046.8000488281</ele>
        <time>2019-08-11T10:18:42.000Z</time>
      </trkpt>
      <trkpt lat="45.05465" lon="4.33091">
        <ele>1046.5999755859</ele>
        <time>2019-08-11T10:18:43.000Z</time>
      </trkpt>
      <trkpt lat="45.05468" lon="4.3308">
        <ele>1046.1999511719</ele>
        <time>2019-08-11T10:18:45.000Z</time>
      </trkpt>
      <trkpt lat="45.05469" lon="4.33073">
        <ele>1045.5999755859</ele>
        <time>2019-08-11T10:18:46.000Z</time>
      </trkpt>
      <trkpt lat="45.05469" lon="4.33054">
        <ele>1044.1999511719</ele>
        <time>2019-08-11T10:18:48.000Z</time>
      </trkpt>
      <trkpt lat="45.05467" lon="4.33011">
        <ele>1042.4000244141</ele>
        <time>2019-08-11T10:18:52.000Z</time>
      </trkpt>
      <trkpt lat="45.05463" lon="4.32967">
        <ele>1040.5999755859</ele>
        <time>2019-08-11T10:18:56.000Z</time>
      </trkpt>
      <trkpt lat="45.05458" lon="4.32944">
        <ele>1039.1999511719</ele>
        <time>2019-08-11T10:18:58.000Z</time>
      </trkpt>
      <trkpt lat="45.05455" lon="4.32926">
        <ele>1038.8000488281</ele>
        <time>2019-08-11T10:19:00.000Z</time>
      </trkpt>
      <trkpt lat="45.05449" lon="4.32903">
        <ele>1038.4000244141</ele>
        <time>2019-08-11T10:19:03.000Z</time>
      </trkpt>
      <trkpt lat="45.05446" lon="4.32897">
        <ele>1039</ele>
        <time>2019-08-11T10:19:04.000Z</time>
      </trkpt>
      <trkpt lat="45.05443" lon="4.3289">
        <ele>1039.5999755859</ele>
        <time>2019-08-11T10:19:05.000Z</time>
      </trkpt>
      <trkpt lat="45.05435" lon="4.32879">
        <ele>1040.4000244141</ele>
        <time>2019-08-11T10:19:07.000Z</time>
      </trkpt>
      <trkpt lat="45.05431" lon="4.32874">
        <ele>1040.5999755859</ele>
        <time>2019-08-11T10:19:08.000Z</time>
      </trkpt>
      <trkpt lat="45.05389" lon="4.3281">
        <ele>1038.8000488281</ele>
        <time>2019-08-11T10:19:19.000Z</time>
      </trkpt>
      <trkpt lat="45.05386" lon="4.32803">
        <ele>1039.1999511719</ele>
        <time>2019-08-11T10:19:20.000Z</time>
      </trkpt>
      <trkpt lat="45.0538" lon="4.3279">
        <ele>1038.1999511719</ele>
        <time>2019-08-11T10:19:22.000Z</time>
      </trkpt>
      <trkpt lat="45.05376" lon="4.32786">
        <ele>1037.8000488281</ele>
        <time>2019-08-11T10:19:23.000Z</time>
      </trkpt>
      <trkpt lat="45.05354" lon="4.3276">
        <ele>1034.5999755859</ele>
        <time>2019-08-11T10:19:28.000Z</time>
      </trkpt>
      <trkpt lat="45.05337" lon="4.3274">
        <ele>1031</ele>
        <time>2019-08-11T10:19:32.000Z</time>
      </trkpt>
      <trkpt lat="45.05324" lon="4.32719">
        <ele>1026.4000244141</ele>
        <time>2019-08-11T10:19:35.000Z</time>
      </trkpt>
      <trkpt lat="45.05307" lon="4.32689">
        <ele>1024.8000488281</ele>
        <time>2019-08-11T10:19:38.000Z</time>
      </trkpt>
      <trkpt lat="45.05304" lon="4.32675">
        <ele>1023.799987793</ele>
        <time>2019-08-11T10:19:39.000Z</time>
      </trkpt>
      <trkpt lat="45.05301" lon="4.32662">
        <ele>1022.799987793</ele>
        <time>2019-08-11T10:19:40.000Z</time>
      </trkpt>
      <trkpt lat="45.05299" lon="4.32649">
        <ele>1021.799987793</ele>
        <time>2019-08-11T10:19:41.000Z</time>
      </trkpt>
      <trkpt lat="45.05299" lon="4.32636">
        <ele>1021.799987793</ele>
        <time>2019-08-11T10:19:42.000Z</time>
      </trkpt>
      <trkpt lat="45.05299" lon="4.32624">
        <ele>1022.5999755859</ele>
        <time>2019-08-11T10:19:43.000Z</time>
      </trkpt>
      <trkpt lat="45.053" lon="4.32614">
        <ele>1023.4000244141</ele>
        <time>2019-08-11T10:19:44.000Z</time>
      </trkpt>
      <trkpt lat="45.05301" lon="4.32605">
        <ele>1023.5999755859</ele>
        <time>2019-08-11T10:19:45.000Z</time>
      </trkpt>
      <trkpt lat="45.05305" lon="4.32582">
        <ele>1026.1999511719</ele>
        <time>2019-08-11T10:19:48.000Z</time>
      </trkpt>
      <trkpt lat="45.05307" lon="4.32575">
        <ele>1026.8000488281</ele>
        <time>2019-08-11T10:19:49.000Z</time>
      </trkpt>
      <trkpt lat="45.05309" lon="4.3257">
        <ele>1027</ele>
        <time>2019-08-11T10:19:50.000Z</time>
      </trkpt>
      <trkpt lat="45.05315" lon="4.32551">
        <ele>1028</ele>
        <time>2019-08-11T10:19:54.000Z</time>
      </trkpt>
      <trkpt lat="45.05318" lon="4.32533">
        <ele>1028.8000488281</ele>
        <time>2019-08-11T10:19:58.000Z</time>
      </trkpt>
      <trkpt lat="45.05325" lon="4.32499">
        <ele>1028</ele>
        <time>2019-08-11T10:20:05.000Z</time>
      </trkpt>
      <trkpt lat="45.05327" lon="4.32494">
        <ele>1027.8000488281</ele>
        <time>2019-08-11T10:20:06.000Z</time>
      </trkpt>
      <trkpt lat="45.05339" lon="4.3243">
        <ele>1024.1999511719</ele>
        <time>2019-08-11T10:20:16.000Z</time>
      </trkpt>
      <trkpt lat="45.05339" lon="4.32422">
        <ele>1023.4000244141</ele>
        <time>2019-08-11T10:20:17.000Z</time>
      </trkpt>
      <trkpt lat="45.05338" lon="4.32414">
        <ele>1022.5999755859</ele>
        <time>2019-08-11T10:20:18.000Z</time>
      </trkpt>
      <trkpt lat="45.05336" lon="4.32406">
        <ele>1021.799987793</ele>
        <time>2019-08-11T10:20:19.000Z</time>
      </trkpt>
      <trkpt lat="45.0533" lon="4.324">
        <ele>1021</ele>
        <time>2019-08-11T10:20:20.000Z</time>
      </trkpt>
      <trkpt lat="45.05323" lon="4.32395">
        <ele>1020.4000244141</ele>
        <time>2019-08-11T10:20:21.000Z</time>
      </trkpt>
      <trkpt lat="45.05315" lon="4.3239">
        <ele>1019.5999755859</ele>
        <time>2019-08-11T10:20:22.000Z</time>
      </trkpt>
      <trkpt lat="45.05292" lon="4.32373">
        <ele>1015.5999755859</ele>
        <time>2019-08-11T10:20:25.000Z</time>
      </trkpt>
      <trkpt lat="45.05275" lon="4.32362">
        <ele>1014</ele>
        <time>2019-08-11T10:20:27.000Z</time>
      </trkpt>
      <trkpt lat="45.05238" lon="4.32345">
        <ele>1010.4000244141</ele>
        <time>2019-08-11T10:20:31.000Z</time>
      </trkpt>
      <trkpt lat="45.05221" lon="4.32334">
        <ele>1009.4000244141</ele>
        <time>2019-08-11T10:20:33.000Z</time>
      </trkpt>
      <trkpt lat="45.05214" lon="4.32328">
        <ele>1008.4000244141</ele>
        <time>2019-08-11T10:20:34.000Z</time>
      </trkpt>
      <trkpt lat="45.05191" lon="4.32304">
        <ele>1006</ele>
        <time>2019-08-11T10:20:38.000Z</time>
      </trkpt>
      <trkpt lat="45.05187" lon="4.32297">
        <ele>1005.200012207</ele>
        <time>2019-08-11T10:20:39.000Z</time>
      </trkpt>
      <trkpt lat="45.05187" lon="4.32288">
        <ele>1004.4000244141</ele>
        <time>2019-08-11T10:20:40.000Z</time>
      </trkpt>
      <trkpt lat="45.05188" lon="4.32268">
        <ele>1002.200012207</ele>
        <time>2019-08-11T10:20:42.000Z</time>
      </trkpt>
      <trkpt lat="45.0519" lon="4.32259">
        <ele>1001</ele>
        <time>2019-08-11T10:20:43.000Z</time>
      </trkpt>
      <trkpt lat="45.05203" lon="4.32228">
        <ele>997.79998779297</ele>
        <time>2019-08-11T10:20:47.000Z</time>
      </trkpt>
      <trkpt lat="45.05207" lon="4.32223">
        <ele>997</ele>
        <time>2019-08-11T10:20:48.000Z</time>
      </trkpt>
      <trkpt lat="45.05212" lon="4.32221">
        <ele>995.79998779297</ele>
        <time>2019-08-11T10:20:49.000Z</time>
      </trkpt>
      <trkpt lat="45.05217" lon="4.32219">
        <ele>994.79998779297</ele>
        <time>2019-08-11T10:20:50.000Z</time>
      </trkpt>
      <trkpt lat="45.05223" lon="4.32219">
        <ele>993.59997558594</ele>
        <time>2019-08-11T10:20:51.000Z</time>
      </trkpt>
      <trkpt lat="45.05229" lon="4.32221">
        <ele>992.59997558594</ele>
        <time>2019-08-11T10:20:52.000Z</time>
      </trkpt>
      <trkpt lat="45.05236" lon="4.32223">
        <ele>991.79998779297</ele>
        <time>2019-08-11T10:20:53.000Z</time>
      </trkpt>
      <trkpt lat="45.05242" lon="4.32223">
        <ele>991.20001220703</ele>
        <time>2019-08-11T10:20:54.000Z</time>
      </trkpt>
      <trkpt lat="45.05249" lon="4.32223">
        <ele>990.40002441406</ele>
        <time>2019-08-11T10:20:55.000Z</time>
      </trkpt>
      <trkpt lat="45.05256" lon="4.32222">
        <ele>988.79998779297</ele>
        <time>2019-08-11T10:20:56.000Z</time>
      </trkpt>
      <trkpt lat="45.05263" lon="4.3222">
        <ele>987.40002441406</ele>
        <time>2019-08-11T10:20:57.000Z</time>
      </trkpt>
      <trkpt lat="45.05268" lon="4.32217">
        <ele>986.40002441406</ele>
        <time>2019-08-11T10:20:58.000Z</time>
      </trkpt>
      <trkpt lat="45.05272" lon="4.32214">
        <ele>985</ele>
        <time>2019-08-11T10:20:59.000Z</time>
      </trkpt>
      <trkpt lat="45.05273" lon="4.3221">
        <ele>984.20001220703</ele>
        <time>2019-08-11T10:21:00.000Z</time>
      </trkpt>
      <trkpt lat="45.05273" lon="4.32208">
        <ele>983.40002441406</ele>
        <time>2019-08-11T10:21:01.000Z</time>
      </trkpt>
      <trkpt lat="45.0527" lon="4.32207">
        <ele>982.59997558594</ele>
        <time>2019-08-11T10:21:02.000Z</time>
      </trkpt>
      <trkpt lat="45.05266" lon="4.32203">
        <ele>981.40002441406</ele>
        <time>2019-08-11T10:21:03.000Z</time>
      </trkpt>
      <trkpt lat="45.05249" lon="4.32189">
        <ele>977.59997558594</ele>
        <time>2019-08-11T10:21:06.000Z</time>
      </trkpt>
      <trkpt lat="45.05238" lon="4.32181">
        <ele>976.40002441406</ele>
        <time>2019-08-11T10:21:08.000Z</time>
      </trkpt>
      <trkpt lat="45.05233" lon="4.32177">
        <ele>976.79998779297</ele>
        <time>2019-08-11T10:21:09.000Z</time>
      </trkpt>
      <trkpt lat="45.0523" lon="4.32172">
        <ele>976.59997558594</ele>
        <time>2019-08-11T10:21:10.000Z</time>
      </trkpt>
      <trkpt lat="45.05206" lon="4.3214">
        <ele>972.79998779297</ele>
        <time>2019-08-11T10:21:16.000Z</time>
      </trkpt>
      <trkpt lat="45.05198" lon="4.3212">
        <ele>970.40002441406</ele>
        <time>2019-08-11T10:21:21.000Z</time>
      </trkpt>
      <trkpt lat="45.05201" lon="4.32118">
        <ele>970.20001220703</ele>
        <time>2019-08-11T10:21:22.000Z</time>
      </trkpt>
      <trkpt lat="45.05204" lon="4.32117">
        <ele>970.20001220703</ele>
        <time>2019-08-11T10:21:23.000Z</time>
      </trkpt>
      <trkpt lat="45.05207" lon="4.32117">
        <ele>970.20001220703</ele>
        <time>2019-08-11T10:21:24.000Z</time>
      </trkpt>
      <trkpt lat="45.05211" lon="4.32117">
        <ele>970</ele>
        <time>2019-08-11T10:21:25.000Z</time>
      </trkpt>
      <trkpt lat="45.05213" lon="4.32116">
        <ele>969.79998779297</ele>
        <time>2019-08-11T10:21:26.000Z</time>
      </trkpt>
      <trkpt lat="45.05216" lon="4.32115">
        <ele>969.79998779297</ele>
        <time>2019-08-11T10:21:27.000Z</time>
      </trkpt>
      <trkpt lat="45.05243" lon="4.32091">
        <ele>969.59997558594</ele>
        <time>2019-08-11T10:21:37.000Z</time>
      </trkpt>
      <trkpt lat="45.05258" lon="4.32036">
        <ele>971.59997558594</ele>
        <time>2019-08-11T10:21:50.000Z</time>
      </trkpt>
      <trkpt lat="45.05268" lon="4.31972">
        <ele>972.20001220703</ele>
        <time>2019-08-11T10:22:04.000Z</time>
      </trkpt>
      <trkpt lat="45.05272" lon="4.31946">
        <ele>972.79998779297</ele>
        <time>2019-08-11T10:22:10.000Z</time>
      </trkpt>
      <trkpt lat="45.05283" lon="4.31874">
        <ele>973.20001220703</ele>
        <time>2019-08-11T10:22:24.000Z</time>
      </trkpt>
      <trkpt lat="45.05293" lon="4.31849">
        <ele>973.79998779297</ele>
        <time>2019-08-11T10:22:30.000Z</time>
      </trkpt>
      <trkpt lat="45.05294" lon="4.31842">
        <ele>974.20001220703</ele>
        <time>2019-08-11T10:22:32.000Z</time>
      </trkpt>
      <trkpt lat="45.05293" lon="4.31839">
        <ele>974</ele>
        <time>2019-08-11T10:22:33.000Z</time>
      </trkpt>
      <trkpt lat="45.05291" lon="4.31835">
        <ele>974.20001220703</ele>
        <time>2019-08-11T10:22:34.000Z</time>
      </trkpt>
      <trkpt lat="45.0529" lon="4.31831">
        <ele>974.20001220703</ele>
        <time>2019-08-11T10:22:35.000Z</time>
      </trkpt>
      <trkpt lat="45.0529" lon="4.31827">
        <ele>974</ele>
        <time>2019-08-11T10:22:36.000Z</time>
      </trkpt>
      <trkpt lat="45.0529" lon="4.31823">
        <ele>973.20001220703</ele>
        <time>2019-08-11T10:22:37.000Z</time>
      </trkpt>
      <trkpt lat="45.05291" lon="4.31819">
        <ele>972</ele>
        <time>2019-08-11T10:22:38.000Z</time>
      </trkpt>
      <trkpt lat="45.05293" lon="4.31814">
        <ele>971.20001220703</ele>
        <time>2019-08-11T10:22:39.000Z</time>
      </trkpt>
      <trkpt lat="45.05301" lon="4.31792">
        <ele>967.40002441406</ele>
        <time>2019-08-11T10:22:44.000Z</time>
      </trkpt>
      <trkpt lat="45.05317" lon="4.31759">
        <ele>963.59997558594</ele>
        <time>2019-08-11T10:22:51.000Z</time>
      </trkpt>
      <trkpt lat="45.05318" lon="4.31737">
        <ele>959.79998779297</ele>
        <time>2019-08-11T10:22:55.000Z</time>
      </trkpt>
      <trkpt lat="45.05315" lon="4.31724">
        <ele>957.59997558594</ele>
        <time>2019-08-11T10:22:59.000Z</time>
      </trkpt>
      <trkpt lat="45.05311" lon="4.3172">
        <ele>956.59997558594</ele>
        <time>2019-08-11T10:23:02.000Z</time>
      </trkpt>
      <trkpt lat="45.0531" lon="4.31718">
        <ele>956.59997558594</ele>
        <time>2019-08-11T10:23:06.000Z</time>
      </trkpt>
      <trkpt lat="45.05309" lon="4.31717">
        <ele>956.79998779297</ele>
        <time>2019-08-11T10:23:08.000Z</time>
      </trkpt>
      <trkpt lat="45.05309" lon="4.31716">
        <ele>956.79998779297</ele>
        <time>2019-08-11T10:23:09.000Z</time>
      </trkpt>
      <trkpt lat="45.05307" lon="4.31715">
        <ele>956.40002441406</ele>
        <time>2019-08-11T10:23:15.000Z</time>
      </trkpt>
      <trkpt lat="45.05306" lon="4.31715">
        <ele>956.59997558594</ele>
        <time>2019-08-11T10:23:17.000Z</time>
      </trkpt>
      <trkpt lat="45.05306" lon="4.31705">
        <ele>956</ele>
        <time>2019-08-11T10:23:32.000Z</time>
      </trkpt>
      <trkpt lat="45.05306" lon="4.31702">
        <ele>955</ele>
        <time>2019-08-11T10:23:36.000Z</time>
      </trkpt>
      <trkpt lat="45.05305" lon="4.317">
        <ele>955</ele>
        <time>2019-08-11T10:23:38.000Z</time>
      </trkpt>
      <trkpt lat="45.05304" lon="4.31695">
        <ele>956</ele>
        <time>2019-08-11T10:23:44.000Z</time>
      </trkpt>
      <trkpt lat="45.05303" lon="4.31694">
        <ele>956</ele>
        <time>2019-08-11T10:23:45.000Z</time>
      </trkpt>
      <trkpt lat="45.05302" lon="4.31692">
        <ele>955.59997558594</ele>
        <time>2019-08-11T10:23:50.000Z</time>
      </trkpt>
      <trkpt lat="45.05303" lon="4.31693">
        <ele>955.40002441406</ele>
        <time>2019-08-11T10:23:51.000Z</time>
      </trkpt>
      <trkpt lat="45.05305" lon="4.31695">
        <ele>955.40002441406</ele>
        <time>2019-08-11T10:24:00.000Z</time>
      </trkpt>
      <trkpt lat="45.05304" lon="4.31695">
        <ele>955.40002441406</ele>
        <time>2019-08-11T10:28:35.000Z</time>
      </trkpt>
      <trkpt lat="45.05304" lon="4.31693">
        <ele>955.59997558594</ele>
        <time>2019-08-11T10:28:36.000Z</time>
      </trkpt>
      <trkpt lat="45.05304" lon="4.31693">
        <ele>955.40002441406</ele>
        <time>2019-08-11T10:28:42.000Z</time>
      </trkpt>
      <trkpt lat="45.053" lon="4.31676">
        <ele>954.20001220703</ele>
        <time>2019-08-11T10:29:27.000Z</time>
      </trkpt>
      <trkpt lat="45.053" lon="4.31674">
        <ele>954</ele>
        <time>2019-08-11T10:29:28.000Z</time>
      </trkpt>
      <trkpt lat="45.053" lon="4.31671">
        <ele>954</ele>
        <time>2019-08-11T10:29:29.000Z</time>
      </trkpt>
      <trkpt lat="45.05301" lon="4.31667">
        <ele>953.79998779297</ele>
        <time>2019-08-11T10:29:31.000Z</time>
      </trkpt>
      <trkpt lat="45.05301" lon="4.31665">
        <ele>953.79998779297</ele>
        <time>2019-08-11T10:29:32.000Z</time>
      </trkpt>
      <trkpt lat="45.05301" lon="4.3166">
        <ele>953.59997558594</ele>
        <time>2019-08-11T10:29:34.000Z</time>
      </trkpt>
      <trkpt lat="45.05302" lon="4.31655">
        <ele>953.40002441406</ele>
        <time>2019-08-11T10:29:36.000Z</time>
      </trkpt>
      <trkpt lat="45.05302" lon="4.31652">
        <ele>953.20001220703</ele>
        <time>2019-08-11T10:29:38.000Z</time>
      </trkpt>
      <trkpt lat="45.05301" lon="4.31651">
        <ele>953.20001220703</ele>
        <time>2019-08-11T10:29:39.000Z</time>
      </trkpt>
      <trkpt lat="45.05299" lon="4.3165">
        <ele>952.59997558594</ele>
        <time>2019-08-11T10:29:40.000Z</time>
      </trkpt>
      <trkpt lat="45.05297" lon="4.31649">
        <ele>951.79998779297</ele>
        <time>2019-08-11T10:29:41.000Z</time>
      </trkpt>
      <trkpt lat="45.05295" lon="4.31649">
        <ele>951.20001220703</ele>
        <time>2019-08-11T10:29:42.000Z</time>
      </trkpt>
      <trkpt lat="45.05255" lon="4.31643">
        <ele>951.40002441406</ele>
        <time>2019-08-11T10:30:00.000Z</time>
      </trkpt>
      <trkpt lat="45.05248" lon="4.31645">
        <ele>951.79998779297</ele>
        <time>2019-08-11T10:30:03.000Z</time>
      </trkpt>
      <trkpt lat="45.05241" lon="4.3165">
        <ele>952.79998779297</ele>
        <time>2019-08-11T10:30:06.000Z</time>
      </trkpt>
      <trkpt lat="45.05236" lon="4.31656">
        <ele>953.40002441406</ele>
        <time>2019-08-11T10:30:09.000Z</time>
      </trkpt>
      <trkpt lat="45.0523" lon="4.3166">
        <ele>953.20001220703</ele>
        <time>2019-08-11T10:30:12.000Z</time>
      </trkpt>
      <trkpt lat="45.05221" lon="4.31669">
        <ele>954.20001220703</ele>
        <time>2019-08-11T10:30:17.000Z</time>
      </trkpt>
      <trkpt lat="45.05214" lon="4.31679">
        <ele>955.59997558594</ele>
        <time>2019-08-11T10:30:22.000Z</time>
      </trkpt>
      <trkpt lat="45.05206" lon="4.31693">
        <ele>956.40002441406</ele>
        <time>2019-08-11T10:30:28.000Z</time>
      </trkpt>
      <trkpt lat="45.05198" lon="4.31709">
        <ele>957</ele>
        <time>2019-08-11T10:30:34.000Z</time>
      </trkpt>
      <trkpt lat="45.05193" lon="4.31727">
        <ele>957.79998779297</ele>
        <time>2019-08-11T10:30:40.000Z</time>
      </trkpt>
      <trkpt lat="45.05187" lon="4.31746">
        <ele>959.20001220703</ele>
        <time>2019-08-11T10:30:47.000Z</time>
      </trkpt>
      <trkpt lat="45.0518" lon="4.31772">
        <ele>959.40002441406</ele>
        <time>2019-08-11T10:30:56.000Z</time>
      </trkpt>
      <trkpt lat="45.05161" lon="4.3181">
        <ele>960.59997558594</ele>
        <time>2019-08-11T10:31:12.000Z</time>
      </trkpt>
      <trkpt lat="45.05159" lon="4.3181">
        <ele>960.59997558594</ele>
        <time>2019-08-11T10:31:13.000Z</time>
      </trkpt>
      <trkpt lat="45.05157" lon="4.31809">
        <ele>960.79998779297</ele>
        <time>2019-08-11T10:31:14.000Z</time>
      </trkpt>
      <trkpt lat="45.05147" lon="4.31775">
        <ele>963.79998779297</ele>
        <time>2019-08-11T10:31:28.000Z</time>
      </trkpt>
      <trkpt lat="45.05143" lon="4.31754">
        <ele>964.59997558594</ele>
        <time>2019-08-11T10:31:36.000Z</time>
      </trkpt>
      <trkpt lat="45.05142" lon="4.31746">
        <ele>964.59997558594</ele>
        <time>2019-08-11T10:31:39.000Z</time>
      </trkpt>
      <trkpt lat="45.05137" lon="4.31725">
        <ele>966.59997558594</ele>
        <time>2019-08-11T10:31:47.000Z</time>
      </trkpt>
      <trkpt lat="45.0514" lon="4.31677">
        <ele>969.59997558594</ele>
        <time>2019-08-11T10:32:05.000Z</time>
      </trkpt>
      <trkpt lat="45.0514" lon="4.31665">
        <ele>971.40002441406</ele>
        <time>2019-08-11T10:32:11.000Z</time>
      </trkpt>
      <trkpt lat="45.05141" lon="4.31664">
        <ele>971.40002441406</ele>
        <time>2019-08-11T10:32:12.000Z</time>
      </trkpt>
      <trkpt lat="45.05143" lon="4.31664">
        <ele>971.40002441406</ele>
        <time>2019-08-11T10:32:13.000Z</time>
      </trkpt>
      <trkpt lat="45.05148" lon="4.31666">
        <ele>971.40002441406</ele>
        <time>2019-08-11T10:32:23.000Z</time>
      </trkpt>
      <trkpt lat="45.05155" lon="4.31652">
        <ele>971.79998779297</ele>
        <time>2019-08-11T10:32:43.000Z</time>
      </trkpt>
      <trkpt lat="45.05156" lon="4.3165">
        <ele>971.79998779297</ele>
        <time>2019-08-11T10:32:44.000Z</time>
      </trkpt>
      <trkpt lat="45.05157" lon="4.31648">
        <ele>972</ele>
        <time>2019-08-11T10:32:45.000Z</time>
      </trkpt>
      <trkpt lat="45.05207" lon="4.31605">
        <ele>973.59997558594</ele>
        <time>2019-08-11T10:33:09.000Z</time>
      </trkpt>
      <trkpt lat="45.05217" lon="4.31593">
        <ele>973.20001220703</ele>
        <time>2019-08-11T10:33:13.000Z</time>
      </trkpt>
      <trkpt lat="45.05248" lon="4.31516">
        <ele>970.40002441406</ele>
        <time>2019-08-11T10:33:28.000Z</time>
      </trkpt>
      <trkpt lat="45.05257" lon="4.31491">
        <ele>970.40002441406</ele>
        <time>2019-08-11T10:33:33.000Z</time>
      </trkpt>
      <trkpt lat="45.05261" lon="4.31482">
        <ele>970.40002441406</ele>
        <time>2019-08-11T10:33:35.000Z</time>
      </trkpt>
      <trkpt lat="45.05269" lon="4.31456">
        <ele>970.40002441406</ele>
        <time>2019-08-11T10:33:40.000Z</time>
      </trkpt>
      <trkpt lat="45.0527" lon="4.3145">
        <ele>970.20001220703</ele>
        <time>2019-08-11T10:33:41.000Z</time>
      </trkpt>
      <trkpt lat="45.05273" lon="4.31443">
        <ele>969.59997558594</ele>
        <time>2019-08-11T10:33:42.000Z</time>
      </trkpt>
      <trkpt lat="45.05282" lon="4.31417">
        <ele>968</ele>
        <time>2019-08-11T10:33:46.000Z</time>
      </trkpt>
      <trkpt lat="45.0529" lon="4.31393">
        <ele>968</ele>
        <time>2019-08-11T10:33:50.000Z</time>
      </trkpt>
      <trkpt lat="45.05294" lon="4.31382">
        <ele>968.20001220703</ele>
        <time>2019-08-11T10:33:52.000Z</time>
      </trkpt>
      <trkpt lat="45.0532" lon="4.31326">
        <ele>964.79998779297</ele>
        <time>2019-08-11T10:34:04.000Z</time>
      </trkpt>
      <trkpt lat="45.05324" lon="4.31309">
        <ele>963.59997558594</ele>
        <time>2019-08-11T10:34:08.000Z</time>
      </trkpt>
      <trkpt lat="45.05325" lon="4.31305">
        <ele>963.40002441406</ele>
        <time>2019-08-11T10:34:10.000Z</time>
      </trkpt>
      <trkpt lat="45.05321" lon="4.31293">
        <ele>962.20001220703</ele>
        <time>2019-08-11T10:34:21.000Z</time>
      </trkpt>
      <trkpt lat="45.0532" lon="4.3129">
        <ele>962</ele>
        <time>2019-08-11T10:34:23.000Z</time>
      </trkpt>
      <trkpt lat="45.0532" lon="4.31285">
        <ele>961.40002441406</ele>
        <time>2019-08-11T10:34:28.000Z</time>
      </trkpt>
      <trkpt lat="45.0532" lon="4.31282">
        <ele>961</ele>
        <time>2019-08-11T10:34:31.000Z</time>
      </trkpt>
      <trkpt lat="45.05321" lon="4.31277">
        <ele>960</ele>
        <time>2019-08-11T10:34:36.000Z</time>
      </trkpt>
      <trkpt lat="45.05322" lon="4.31275">
        <ele>959</ele>
        <time>2019-08-11T10:34:39.000Z</time>
      </trkpt>
      <trkpt lat="45.05323" lon="4.31274">
        <ele>958.79998779297</ele>
        <time>2019-08-11T10:34:40.000Z</time>
      </trkpt>
      <trkpt lat="45.05324" lon="4.31275">
        <ele>958.59997558594</ele>
        <time>2019-08-11T10:34:41.000Z</time>
      </trkpt>
      <trkpt lat="45.05326" lon="4.31273">
        <ele>958.40002441406</ele>
        <time>2019-08-11T10:34:42.000Z</time>
      </trkpt>
      <trkpt lat="45.05329" lon="4.31274">
        <ele>958.40002441406</ele>
        <time>2019-08-11T10:34:45.000Z</time>
      </trkpt>
      <trkpt lat="45.05331" lon="4.31273">
        <ele>958.40002441406</ele>
        <time>2019-08-11T10:34:46.000Z</time>
      </trkpt>
      <trkpt lat="45.05336" lon="4.31268">
        <ele>959.40002441406</ele>
        <time>2019-08-11T10:34:51.000Z</time>
      </trkpt>
      <trkpt lat="45.05338" lon="4.31267">
        <ele>960</ele>
        <time>2019-08-11T10:34:53.000Z</time>
      </trkpt>
      <trkpt lat="45.05342" lon="4.31266">
        <ele>961.20001220703</ele>
        <time>2019-08-11T10:34:57.000Z</time>
      </trkpt>
      <trkpt lat="45.05344" lon="4.31265">
        <ele>961.20001220703</ele>
        <time>2019-08-11T10:34:58.000Z</time>
      </trkpt>
      <trkpt lat="45.0535" lon="4.31261">
        <ele>962.20001220703</ele>
        <time>2019-08-11T10:35:05.000Z</time>
      </trkpt>
      <trkpt lat="45.05351" lon="4.3126">
        <ele>962.40002441406</ele>
        <time>2019-08-11T10:35:06.000Z</time>
      </trkpt>
      <trkpt lat="45.05354" lon="4.31255">
        <ele>963</ele>
        <time>2019-08-11T10:35:10.000Z</time>
      </trkpt>
      <trkpt lat="45.05354" lon="4.31254">
        <ele>963</ele>
        <time>2019-08-11T10:35:11.000Z</time>
      </trkpt>
      <trkpt lat="45.05354" lon="4.31251">
        <ele>963.20001220703</ele>
        <time>2019-08-11T10:35:13.000Z</time>
      </trkpt>
      <trkpt lat="45.05355" lon="4.31248">
        <ele>963.59997558594</ele>
        <time>2019-08-11T10:35:18.000Z</time>
      </trkpt>
      <trkpt lat="45.0536" lon="4.3124">
        <ele>964.40002441406</ele>
        <time>2019-08-11T10:35:30.000Z</time>
      </trkpt>
      <trkpt lat="45.05364" lon="4.31235">
        <ele>964.59997558594</ele>
        <time>2019-08-11T10:35:35.000Z</time>
      </trkpt>
      <trkpt lat="45.05365" lon="4.31233">
        <ele>964.59997558594</ele>
        <time>2019-08-11T10:35:36.000Z</time>
      </trkpt>
      <trkpt lat="45.05366" lon="4.31232">
        <ele>964.59997558594</ele>
        <time>2019-08-11T10:35:37.000Z</time>
      </trkpt>
      <trkpt lat="45.05371" lon="4.31221">
        <ele>965.59997558594</ele>
        <time>2019-08-11T10:35:44.000Z</time>
      </trkpt>
      <trkpt lat="45.05371" lon="4.31219">
        <ele>965.79998779297</ele>
        <time>2019-08-11T10:35:45.000Z</time>
      </trkpt>
      <trkpt lat="45.05371" lon="4.31217">
        <ele>965.79998779297</ele>
        <time>2019-08-11T10:35:46.000Z</time>
      </trkpt>
      <trkpt lat="45.05371" lon="4.31215">
        <ele>966</ele>
        <time>2019-08-11T10:35:47.000Z</time>
      </trkpt>
      <trkpt lat="45.05372" lon="4.31212">
        <ele>966</ele>
        <time>2019-08-11T10:35:48.000Z</time>
      </trkpt>
      <trkpt lat="45.05356" lon="4.31159">
        <ele>969.20001220703</ele>
        <time>2019-08-11T10:36:10.000Z</time>
      </trkpt>
      <trkpt lat="45.05355" lon="4.31157">
        <ele>969.40002441406</ele>
        <time>2019-08-11T10:36:11.000Z</time>
      </trkpt>
      <trkpt lat="45.05354" lon="4.31155">
        <ele>969.59997558594</ele>
        <time>2019-08-11T10:36:12.000Z</time>
      </trkpt>
      <trkpt lat="45.05353" lon="4.31152">
        <ele>970</ele>
        <time>2019-08-11T10:36:13.000Z</time>
      </trkpt>
      <trkpt lat="45.05353" lon="4.3115">
        <ele>970.20001220703</ele>
        <time>2019-08-11T10:36:14.000Z</time>
      </trkpt>
      <trkpt lat="45.05353" lon="4.31148">
        <ele>970.40002441406</ele>
        <time>2019-08-11T10:36:15.000Z</time>
      </trkpt>
      <trkpt lat="45.05353" lon="4.31146">
        <ele>970.40002441406</ele>
        <time>2019-08-11T10:36:16.000Z</time>
      </trkpt>
      <trkpt lat="45.05397" lon="4.31078">
        <ele>972</ele>
        <time>2019-08-11T10:36:45.000Z</time>
      </trkpt>
      <trkpt lat="45.05437" lon="4.31005">
        <ele>972.40002441406</ele>
        <time>2019-08-11T10:37:02.000Z</time>
      </trkpt>
      <trkpt lat="45.0544" lon="4.30999">
        <ele>972.40002441406</ele>
        <time>2019-08-11T10:37:03.000Z</time>
      </trkpt>
      <trkpt lat="45.05443" lon="4.30994">
        <ele>972.40002441406</ele>
        <time>2019-08-11T10:37:04.000Z</time>
      </trkpt>
      <trkpt lat="45.05464" lon="4.30945">
        <ele>972.59997558594</ele>
        <time>2019-08-11T10:37:13.000Z</time>
      </trkpt>
      <trkpt lat="45.05467" lon="4.30939">
        <ele>972.20001220703</ele>
        <time>2019-08-11T10:37:14.000Z</time>
      </trkpt>
      <trkpt lat="45.05471" lon="4.30935">
        <ele>972.20001220703</ele>
        <time>2019-08-11T10:37:15.000Z</time>
      </trkpt>
      <trkpt lat="45.05514" lon="4.3087">
        <ele>972.59997558594</ele>
        <time>2019-08-11T10:37:30.000Z</time>
      </trkpt>
      <trkpt lat="45.05524" lon="4.30854">
        <ele>973.20001220703</ele>
        <time>2019-08-11T10:37:34.000Z</time>
      </trkpt>
      <trkpt lat="45.05566" lon="4.30796">
        <ele>973</ele>
        <time>2019-08-11T10:37:49.000Z</time>
      </trkpt>
      <trkpt lat="45.05569" lon="4.30791">
        <ele>973.20001220703</ele>
        <time>2019-08-11T10:37:50.000Z</time>
      </trkpt>
      <trkpt lat="45.05578" lon="4.30778">
        <ele>973.20001220703</ele>
        <time>2019-08-11T10:37:53.000Z</time>
      </trkpt>
      <trkpt lat="45.0558" lon="4.30773">
        <ele>973.20001220703</ele>
        <time>2019-08-11T10:37:54.000Z</time>
      </trkpt>
      <trkpt lat="45.05583" lon="4.30769">
        <ele>973.20001220703</ele>
        <time>2019-08-11T10:37:55.000Z</time>
      </trkpt>
      <trkpt lat="45.05599" lon="4.30737">
        <ele>972.59997558594</ele>
        <time>2019-08-11T10:38:01.000Z</time>
      </trkpt>
      <trkpt lat="45.05607" lon="4.30721">
        <ele>971.79998779297</ele>
        <time>2019-08-11T10:38:04.000Z</time>
      </trkpt>
      <trkpt lat="45.05613" lon="4.30709">
        <ele>971.40002441406</ele>
        <time>2019-08-11T10:38:06.000Z</time>
      </trkpt>
      <trkpt lat="45.05618" lon="4.30695">
        <ele>971</ele>
        <time>2019-08-11T10:38:08.000Z</time>
      </trkpt>
      <trkpt lat="45.05628" lon="4.30675">
        <ele>970.20001220703</ele>
        <time>2019-08-11T10:38:11.000Z</time>
      </trkpt>
      <trkpt lat="45.05633" lon="4.3067">
        <ele>970</ele>
        <time>2019-08-11T10:38:12.000Z</time>
      </trkpt>
      <trkpt lat="45.05639" lon="4.30665">
        <ele>969.79998779297</ele>
        <time>2019-08-11T10:38:13.000Z</time>
      </trkpt>
      <trkpt lat="45.05674" lon="4.30633">
        <ele>966.20001220703</ele>
        <time>2019-08-11T10:38:19.000Z</time>
      </trkpt>
      <trkpt lat="45.05693" lon="4.30615">
        <ele>964.79998779297</ele>
        <time>2019-08-11T10:38:22.000Z</time>
      </trkpt>
      <trkpt lat="45.05699" lon="4.30608">
        <ele>964.40002441406</ele>
        <time>2019-08-11T10:38:23.000Z</time>
      </trkpt>
      <trkpt lat="45.05704" lon="4.30601">
        <ele>964</ele>
        <time>2019-08-11T10:38:24.000Z</time>
      </trkpt>
      <trkpt lat="45.05709" lon="4.30593">
        <ele>963.40002441406</ele>
        <time>2019-08-11T10:38:25.000Z</time>
      </trkpt>
      <trkpt lat="45.05714" lon="4.30585">
        <ele>963.40002441406</ele>
        <time>2019-08-11T10:38:26.000Z</time>
      </trkpt>
      <trkpt lat="45.05716" lon="4.30577">
        <ele>963.59997558594</ele>
        <time>2019-08-11T10:38:27.000Z</time>
      </trkpt>
      <trkpt lat="45.05718" lon="4.3057">
        <ele>963.79998779297</ele>
        <time>2019-08-11T10:38:28.000Z</time>
      </trkpt>
      <trkpt lat="45.05719" lon="4.30563">
        <ele>963.79998779297</ele>
        <time>2019-08-11T10:38:29.000Z</time>
      </trkpt>
      <trkpt lat="45.05721" lon="4.30554">
        <ele>963.20001220703</ele>
        <time>2019-08-11T10:38:30.000Z</time>
      </trkpt>
      <trkpt lat="45.05722" lon="4.30544">
        <ele>961.79998779297</ele>
        <time>2019-08-11T10:38:31.000Z</time>
      </trkpt>
      <trkpt lat="45.05726" lon="4.30534">
        <ele>960.59997558594</ele>
        <time>2019-08-11T10:38:32.000Z</time>
      </trkpt>
      <trkpt lat="45.05731" lon="4.30525">
        <ele>959.20001220703</ele>
        <time>2019-08-11T10:38:33.000Z</time>
      </trkpt>
      <trkpt lat="45.05735" lon="4.3052">
        <ele>957.79998779297</ele>
        <time>2019-08-11T10:38:34.000Z</time>
      </trkpt>
      <trkpt lat="45.05737" lon="4.30517">
        <ele>957.20001220703</ele>
        <time>2019-08-11T10:38:35.000Z</time>
      </trkpt>
      <trkpt lat="45.05738" lon="4.30514">
        <ele>957</ele>
        <time>2019-08-11T10:38:36.000Z</time>
      </trkpt>
      <trkpt lat="45.05737" lon="4.30511">
        <ele>957</ele>
        <time>2019-08-11T10:38:37.000Z</time>
      </trkpt>
      <trkpt lat="45.05736" lon="4.3051">
        <ele>957.20001220703</ele>
        <time>2019-08-11T10:38:38.000Z</time>
      </trkpt>
      <trkpt lat="45.05734" lon="4.3051">
        <ele>957.40002441406</ele>
        <time>2019-08-11T10:38:44.000Z</time>
      </trkpt>
      <trkpt lat="45.05733" lon="4.30509">
        <ele>957.40002441406</ele>
        <time>2019-08-11T10:38:45.000Z</time>
      </trkpt>
      <trkpt lat="45.05733" lon="4.30508">
        <ele>957.59997558594</ele>
        <time>2019-08-11T10:38:46.000Z</time>
      </trkpt>
      <trkpt lat="45.05732" lon="4.30507">
        <ele>957.79998779297</ele>
        <time>2019-08-11T10:38:47.000Z</time>
      </trkpt>
      <trkpt lat="45.05733" lon="4.30505">
        <ele>957.79998779297</ele>
        <time>2019-08-11T10:38:48.000Z</time>
      </trkpt>
      <trkpt lat="45.05733" lon="4.30502">
        <ele>957.40002441406</ele>
        <time>2019-08-11T10:38:49.000Z</time>
      </trkpt>
      <trkpt lat="45.05733" lon="4.30499">
        <ele>957.20001220703</ele>
        <time>2019-08-11T10:38:50.000Z</time>
      </trkpt>
      <trkpt lat="45.05736" lon="4.30488">
        <ele>955.20001220703</ele>
        <time>2019-08-11T10:38:54.000Z</time>
      </trkpt>
      <trkpt lat="45.05739" lon="4.30474">
        <ele>952</ele>
        <time>2019-08-11T10:38:59.000Z</time>
      </trkpt>
      <trkpt lat="45.05741" lon="4.30467">
        <ele>950.40002441406</ele>
        <time>2019-08-11T10:39:02.000Z</time>
      </trkpt>
      <trkpt lat="45.05741" lon="4.30448">
        <ele>947</ele>
        <time>2019-08-11T10:39:08.000Z</time>
      </trkpt>
      <trkpt lat="45.05738" lon="4.30445">
        <ele>946.59997558594</ele>
        <time>2019-08-11T10:39:09.000Z</time>
      </trkpt>
      <trkpt lat="45.05734" lon="4.30443">
        <ele>946.20001220703</ele>
        <time>2019-08-11T10:39:10.000Z</time>
      </trkpt>
      <trkpt lat="45.05688" lon="4.30404">
        <ele>946.20001220703</ele>
        <time>2019-08-11T10:39:24.000Z</time>
      </trkpt>
      <trkpt lat="45.05682" lon="4.30387">
        <ele>946.40002441406</ele>
        <time>2019-08-11T10:39:27.000Z</time>
      </trkpt>
      <trkpt lat="45.05677" lon="4.30371">
        <ele>946.20001220703</ele>
        <time>2019-08-11T10:39:30.000Z</time>
      </trkpt>
      <trkpt lat="45.05674" lon="4.30287">
        <ele>946.40002441406</ele>
        <time>2019-08-11T10:39:44.000Z</time>
      </trkpt>
      <trkpt lat="45.05675" lon="4.30264">
        <ele>946.40002441406</ele>
        <time>2019-08-11T10:39:48.000Z</time>
      </trkpt>
      <trkpt lat="45.05682" lon="4.30235">
        <ele>946.40002441406</ele>
        <time>2019-08-11T10:39:53.000Z</time>
      </trkpt>
      <trkpt lat="45.05684" lon="4.30229">
        <ele>946.40002441406</ele>
        <time>2019-08-11T10:39:54.000Z</time>
      </trkpt>
      <trkpt lat="45.05703" lon="4.3018">
        <ele>945.79998779297</ele>
        <time>2019-08-11T10:40:01.000Z</time>
      </trkpt>
      <trkpt lat="45.05727" lon="4.30098">
        <ele>946.59997558594</ele>
        <time>2019-08-11T10:40:13.000Z</time>
      </trkpt>
      <trkpt lat="45.05736" lon="4.3005">
        <ele>947.59997558594</ele>
        <time>2019-08-11T10:40:24.000Z</time>
      </trkpt>
      <trkpt lat="45.05734" lon="4.30049">
        <ele>947.59997558594</ele>
        <time>2019-08-11T10:40:25.000Z</time>
      </trkpt>
      <trkpt lat="45.05733" lon="4.30048">
        <ele>947.59997558594</ele>
        <time>2019-08-11T10:40:26.000Z</time>
      </trkpt>
      <trkpt lat="45.05731" lon="4.30047">
        <ele>947.79998779297</ele>
        <time>2019-08-11T10:40:27.000Z</time>
      </trkpt>
      <trkpt lat="45.05729" lon="4.30046">
        <ele>948</ele>
        <time>2019-08-11T10:40:28.000Z</time>
      </trkpt>
      <trkpt lat="45.05728" lon="4.30046">
        <ele>948</ele>
        <time>2019-08-11T10:40:29.000Z</time>
      </trkpt>
      <trkpt lat="45.05727" lon="4.30046">
        <ele>948.20001220703</ele>
        <time>2019-08-11T10:40:30.000Z</time>
      </trkpt>
      <trkpt lat="45.05726" lon="4.30046">
        <ele>948.40002441406</ele>
        <time>2019-08-11T10:40:31.000Z</time>
      </trkpt>
      <trkpt lat="45.05725" lon="4.30046">
        <ele>948.59997558594</ele>
        <time>2019-08-11T10:40:32.000Z</time>
      </trkpt>
      <trkpt lat="45.05726" lon="4.30049">
        <ele>948.59997558594</ele>
        <time>2019-08-11T10:40:38.000Z</time>
      </trkpt>
      <trkpt lat="45.05728" lon="4.30048">
        <ele>948.40002441406</ele>
        <time>2019-08-11T10:40:41.000Z</time>
      </trkpt>
      <trkpt lat="45.05729" lon="4.30049">
        <ele>948.20001220703</ele>
        <time>2019-08-11T10:40:42.000Z</time>
      </trkpt>
      <trkpt lat="45.0573" lon="4.3005">
        <ele>948</ele>
        <time>2019-08-11T10:40:43.000Z</time>
      </trkpt>
      <trkpt lat="45.05731" lon="4.30051">
        <ele>947.79998779297</ele>
        <time>2019-08-11T10:40:44.000Z</time>
      </trkpt>
      <trkpt lat="45.05732" lon="4.30052">
        <ele>947.59997558594</ele>
        <time>2019-08-11T10:40:45.000Z</time>
      </trkpt>
      <trkpt lat="45.05734" lon="4.30053">
        <ele>947.20001220703</ele>
        <time>2019-08-11T10:40:46.000Z</time>
      </trkpt>
      <trkpt lat="45.05735" lon="4.30052">
        <ele>947.20001220703</ele>
        <time>2019-08-11T10:40:47.000Z</time>
      </trkpt>
      <trkpt lat="45.05736" lon="4.30051">
        <ele>947.20001220703</ele>
        <time>2019-08-11T10:40:48.000Z</time>
      </trkpt>
      <trkpt lat="45.05738" lon="4.30048">
        <ele>947</ele>
        <time>2019-08-11T10:40:49.000Z</time>
      </trkpt>
      <trkpt lat="45.05739" lon="4.30046">
        <ele>947</ele>
        <time>2019-08-11T10:40:50.000Z</time>
      </trkpt>
      <trkpt lat="45.0574" lon="4.30043">
        <ele>947</ele>
        <time>2019-08-11T10:40:51.000Z</time>
      </trkpt>
      <trkpt lat="45.0574" lon="4.30039">
        <ele>947</ele>
        <time>2019-08-11T10:40:52.000Z</time>
      </trkpt>
      <trkpt lat="45.0574" lon="4.30037">
        <ele>947.20001220703</ele>
        <time>2019-08-11T10:40:53.000Z</time>
      </trkpt>
      <trkpt lat="45.05741" lon="4.30034">
        <ele>947.20001220703</ele>
        <time>2019-08-11T10:40:54.000Z</time>
      </trkpt>
      <trkpt lat="45.05741" lon="4.30031">
        <ele>947.20001220703</ele>
        <time>2019-08-11T10:40:55.000Z</time>
      </trkpt>
      <trkpt lat="45.05744" lon="4.30028">
        <ele>946.40002441406</ele>
        <time>2019-08-11T10:41:05.000Z</time>
      </trkpt>
      <trkpt lat="45.05747" lon="4.30027">
        <ele>945.40002441406</ele>
        <time>2019-08-11T10:41:10.000Z</time>
      </trkpt>
      <trkpt lat="45.05754" lon="4.30026">
        <ele>945.20001220703</ele>
        <time>2019-08-11T10:41:15.000Z</time>
      </trkpt>
      <trkpt lat="45.05756" lon="4.30026">
        <ele>945.20001220703</ele>
        <time>2019-08-11T10:41:16.000Z</time>
      </trkpt>
      <trkpt lat="45.05765" lon="4.30023">
        <ele>943.20001220703</ele>
        <time>2019-08-11T10:41:20.000Z</time>
      </trkpt>
      <trkpt lat="45.05776" lon="4.30023">
        <ele>939.20001220703</ele>
        <time>2019-08-11T10:41:24.000Z</time>
      </trkpt>
      <trkpt lat="45.05781" lon="4.30019">
        <ele>937.59997558594</ele>
        <time>2019-08-11T10:41:26.000Z</time>
      </trkpt>
      <trkpt lat="45.05783" lon="4.30016">
        <ele>937.40002441406</ele>
        <time>2019-08-11T10:41:27.000Z</time>
      </trkpt>
      <trkpt lat="45.05786" lon="4.30013">
        <ele>937.20001220703</ele>
        <time>2019-08-11T10:41:28.000Z</time>
      </trkpt>
      <trkpt lat="45.05812" lon="4.2993">
        <ele>937.79998779297</ele>
        <time>2019-08-11T10:41:47.000Z</time>
      </trkpt>
      <trkpt lat="45.05813" lon="4.29922">
        <ele>937.79998779297</ele>
        <time>2019-08-11T10:41:48.000Z</time>
      </trkpt>
      <trkpt lat="45.05815" lon="4.29915">
        <ele>938</ele>
        <time>2019-08-11T10:41:49.000Z</time>
      </trkpt>
      <trkpt lat="45.05817" lon="4.29909">
        <ele>938.20001220703</ele>
        <time>2019-08-11T10:41:50.000Z</time>
      </trkpt>
      <trkpt lat="45.05819" lon="4.29904">
        <ele>938</ele>
        <time>2019-08-11T10:41:51.000Z</time>
      </trkpt>
      <trkpt lat="45.0582" lon="4.29898">
        <ele>938</ele>
        <time>2019-08-11T10:41:52.000Z</time>
      </trkpt>
      <trkpt lat="45.05822" lon="4.29892">
        <ele>938.20001220703</ele>
        <time>2019-08-11T10:41:53.000Z</time>
      </trkpt>
      <trkpt lat="45.05824" lon="4.29887">
        <ele>938.20001220703</ele>
        <time>2019-08-11T10:41:54.000Z</time>
      </trkpt>
      <trkpt lat="45.05826" lon="4.29883">
        <ele>938.40002441406</ele>
        <time>2019-08-11T10:41:55.000Z</time>
      </trkpt>
      <trkpt lat="45.05833" lon="4.29871">
        <ele>938.79998779297</ele>
        <time>2019-08-11T10:41:58.000Z</time>
      </trkpt>
      <trkpt lat="45.0584" lon="4.29853">
        <ele>939.20001220703</ele>
        <time>2019-08-11T10:42:02.000Z</time>
      </trkpt>
      <trkpt lat="45.05851" lon="4.29819">
        <ele>939</ele>
        <time>2019-08-11T10:42:11.000Z</time>
      </trkpt>
      <trkpt lat="45.05853" lon="4.29808">
        <ele>938.79998779297</ele>
        <time>2019-08-11T10:42:13.000Z</time>
      </trkpt>
      <trkpt lat="45.05855" lon="4.29802">
        <ele>938.79998779297</ele>
        <time>2019-08-11T10:42:14.000Z</time>
      </trkpt>
      <trkpt lat="45.05878" lon="4.29714">
        <ele>939.59997558594</ele>
        <time>2019-08-11T10:42:33.000Z</time>
      </trkpt>
      <trkpt lat="45.05881" lon="4.29654">
        <ele>942.79998779297</ele>
        <time>2019-08-11T10:42:50.000Z</time>
      </trkpt>
      <trkpt lat="45.05883" lon="4.29615">
        <ele>945.20001220703</ele>
        <time>2019-08-11T10:43:04.000Z</time>
      </trkpt>
      <trkpt lat="45.05889" lon="4.2959">
        <ele>947.40002441406</ele>
        <time>2019-08-11T10:43:13.000Z</time>
      </trkpt>
      <trkpt lat="45.05896" lon="4.29565">
        <ele>948.40002441406</ele>
        <time>2019-08-11T10:43:21.000Z</time>
      </trkpt>
      <trkpt lat="45.05923" lon="4.29514">
        <ele>949.40002441406</ele>
        <time>2019-08-11T10:43:37.000Z</time>
      </trkpt>
      <trkpt lat="45.05964" lon="4.29449">
        <ele>948.40002441406</ele>
        <time>2019-08-11T10:43:52.000Z</time>
      </trkpt>
      <trkpt lat="45.05973" lon="4.2943">
        <ele>946.59997558594</ele>
        <time>2019-08-11T10:43:59.000Z</time>
      </trkpt>
      <trkpt lat="45.05984" lon="4.29386">
        <ele>943.20001220703</ele>
        <time>2019-08-11T10:44:08.000Z</time>
      </trkpt>
      <trkpt lat="45.05985" lon="4.29365">
        <ele>942</ele>
        <time>2019-08-11T10:44:11.000Z</time>
      </trkpt>
      <trkpt lat="45.05987" lon="4.29328">
        <ele>939.59997558594</ele>
        <time>2019-08-11T10:44:15.000Z</time>
      </trkpt>
      <trkpt lat="45.05987" lon="4.29319">
        <ele>939.20001220703</ele>
        <time>2019-08-11T10:44:16.000Z</time>
      </trkpt>
      <trkpt lat="45.05991" lon="4.29276">
        <ele>938</ele>
        <time>2019-08-11T10:44:21.000Z</time>
      </trkpt>
      <trkpt lat="45.05992" lon="4.2927">
        <ele>938.59997558594</ele>
        <time>2019-08-11T10:44:22.000Z</time>
      </trkpt>
      <trkpt lat="45.05994" lon="4.29265">
        <ele>939</ele>
        <time>2019-08-11T10:44:23.000Z</time>
      </trkpt>
      <trkpt lat="45.05996" lon="4.29261">
        <ele>939.40002441406</ele>
        <time>2019-08-11T10:44:24.000Z</time>
      </trkpt>
      <trkpt lat="45.05998" lon="4.29258">
        <ele>939.79998779297</ele>
        <time>2019-08-11T10:44:25.000Z</time>
      </trkpt>
      <trkpt lat="45.05999" lon="4.29255">
        <ele>940</ele>
        <time>2019-08-11T10:44:26.000Z</time>
      </trkpt>
      <trkpt lat="45.06003" lon="4.29245">
        <ele>941.20001220703</ele>
        <time>2019-08-11T10:44:30.000Z</time>
      </trkpt>
      <trkpt lat="45.06008" lon="4.29234">
        <ele>942.20001220703</ele>
        <time>2019-08-11T10:44:34.000Z</time>
      </trkpt>
      <trkpt lat="45.06035" lon="4.29196">
        <ele>944.20001220703</ele>
        <time>2019-08-11T10:44:49.000Z</time>
      </trkpt>
      <trkpt lat="45.0604" lon="4.29183">
        <ele>945.40002441406</ele>
        <time>2019-08-11T10:44:54.000Z</time>
      </trkpt>
      <trkpt lat="45.06045" lon="4.29164">
        <ele>947</ele>
        <time>2019-08-11T10:45:01.000Z</time>
      </trkpt>
      <trkpt lat="45.06051" lon="4.29143">
        <ele>948.59997558594</ele>
        <time>2019-08-11T10:45:08.000Z</time>
      </trkpt>
      <trkpt lat="45.06063" lon="4.2911">
        <ele>949.20001220703</ele>
        <time>2019-08-11T10:45:18.000Z</time>
      </trkpt>
      <trkpt lat="45.06074" lon="4.29074">
        <ele>949.79998779297</ele>
        <time>2019-08-11T10:45:28.000Z</time>
      </trkpt>
      <trkpt lat="45.06075" lon="4.29067">
        <ele>949.79998779297</ele>
        <time>2019-08-11T10:45:30.000Z</time>
      </trkpt>
      <trkpt lat="45.06078" lon="4.29037">
        <ele>951.79998779297</ele>
        <time>2019-08-11T10:45:39.000Z</time>
      </trkpt>
      <trkpt lat="45.06076" lon="4.29">
        <ele>954</ele>
        <time>2019-08-11T10:45:54.000Z</time>
      </trkpt>
      <trkpt lat="45.06076" lon="4.28996">
        <ele>954.59997558594</ele>
        <time>2019-08-11T10:45:56.000Z</time>
      </trkpt>
      <trkpt lat="45.06077" lon="4.28993">
        <ele>955.20001220703</ele>
        <time>2019-08-11T10:45:58.000Z</time>
      </trkpt>
      <trkpt lat="45.06079" lon="4.28992">
        <ele>955.59997558594</ele>
        <time>2019-08-11T10:45:59.000Z</time>
      </trkpt>
      <trkpt lat="45.0608" lon="4.28991">
        <ele>955.79998779297</ele>
        <time>2019-08-11T10:46:00.000Z</time>
      </trkpt>
      <trkpt lat="45.06081" lon="4.2899">
        <ele>956</ele>
        <time>2019-08-11T10:46:01.000Z</time>
      </trkpt>
      <trkpt lat="45.06082" lon="4.28989">
        <ele>956</ele>
        <time>2019-08-11T10:46:02.000Z</time>
      </trkpt>
      <trkpt lat="45.06097" lon="4.28967">
        <ele>959</ele>
        <time>2019-08-11T10:46:20.000Z</time>
      </trkpt>
      <trkpt lat="45.06098" lon="4.28966">
        <ele>959.20001220703</ele>
        <time>2019-08-11T10:46:21.000Z</time>
      </trkpt>
      <trkpt lat="45.061" lon="4.28965">
        <ele>959.20001220703</ele>
        <time>2019-08-11T10:46:22.000Z</time>
      </trkpt>
      <trkpt lat="45.06101" lon="4.28963">
        <ele>959.20001220703</ele>
        <time>2019-08-11T10:46:23.000Z</time>
      </trkpt>
      <trkpt lat="45.06101" lon="4.28962">
        <ele>959.59997558594</ele>
        <time>2019-08-11T10:46:24.000Z</time>
      </trkpt>
      <trkpt lat="45.06102" lon="4.2896">
        <ele>959.59997558594</ele>
        <time>2019-08-11T10:46:25.000Z</time>
      </trkpt>
      <trkpt lat="45.06102" lon="4.28958">
        <ele>959.79998779297</ele>
        <time>2019-08-11T10:46:26.000Z</time>
      </trkpt>
      <trkpt lat="45.06103" lon="4.28957">
        <ele>960</ele>
        <time>2019-08-11T10:46:27.000Z</time>
      </trkpt>
      <trkpt lat="45.06103" lon="4.28955">
        <ele>960.40002441406</ele>
        <time>2019-08-11T10:46:28.000Z</time>
      </trkpt>
      <trkpt lat="45.06103" lon="4.28954">
        <ele>960.79998779297</ele>
        <time>2019-08-11T10:46:29.000Z</time>
      </trkpt>
      <trkpt lat="45.06105" lon="4.28949">
        <ele>961.59997558594</ele>
        <time>2019-08-11T10:46:33.000Z</time>
      </trkpt>
      <trkpt lat="45.06106" lon="4.28861">
        <ele>963.79998779297</ele>
        <time>2019-08-11T10:47:02.000Z</time>
      </trkpt>
      <trkpt lat="45.06107" lon="4.28832">
        <ele>964.40002441406</ele>
        <time>2019-08-11T10:47:09.000Z</time>
      </trkpt>
      <trkpt lat="45.06107" lon="4.28747">
        <ele>964.59997558594</ele>
        <time>2019-08-11T10:47:27.000Z</time>
      </trkpt>
      <trkpt lat="45.06109" lon="4.28728">
        <ele>964.79998779297</ele>
        <time>2019-08-11T10:47:32.000Z</time>
      </trkpt>
      <trkpt lat="45.06109" lon="4.28702">
        <ele>963.79998779297</ele>
        <time>2019-08-11T10:47:38.000Z</time>
      </trkpt>
      <trkpt lat="45.06104" lon="4.2868">
        <ele>963</ele>
        <time>2019-08-11T10:47:42.000Z</time>
      </trkpt>
      <trkpt lat="45.061" lon="4.28624">
        <ele>961.59997558594</ele>
        <time>2019-08-11T10:47:51.000Z</time>
      </trkpt>
      <trkpt lat="45.06099" lon="4.28613">
        <ele>961.59997558594</ele>
        <time>2019-08-11T10:47:53.000Z</time>
      </trkpt>
      <trkpt lat="45.06105" lon="4.28581">
        <ele>961.40002441406</ele>
        <time>2019-08-11T10:48:00.000Z</time>
      </trkpt>
      <trkpt lat="45.06158" lon="4.28551">
        <ele>963</ele>
        <time>2019-08-11T10:48:19.000Z</time>
      </trkpt>
      <trkpt lat="45.06202" lon="4.28539">
        <ele>965.59997558594</ele>
        <time>2019-08-11T10:48:39.000Z</time>
      </trkpt>
      <trkpt lat="45.0622" lon="4.28531">
        <ele>967.79998779297</ele>
        <time>2019-08-11T10:48:49.000Z</time>
      </trkpt>
      <trkpt lat="45.06222" lon="4.28529">
        <ele>968.20001220703</ele>
        <time>2019-08-11T10:48:51.000Z</time>
      </trkpt>
      <trkpt lat="45.06227" lon="4.28526">
        <ele>968.59997558594</ele>
        <time>2019-08-11T10:48:54.000Z</time>
      </trkpt>
      <trkpt lat="45.06238" lon="4.28518">
        <ele>969.59997558594</ele>
        <time>2019-08-11T10:49:01.000Z</time>
      </trkpt>
      <trkpt lat="45.06262" lon="4.28503">
        <ele>971.40002441406</ele>
        <time>2019-08-11T10:49:17.000Z</time>
      </trkpt>
      <trkpt lat="45.06292" lon="4.28496">
        <ele>970.79998779297</ele>
        <time>2019-08-11T10:49:29.000Z</time>
      </trkpt>
      <trkpt lat="45.06295" lon="4.28492">
        <ele>970.40002441406</ele>
        <time>2019-08-11T10:49:30.000Z</time>
      </trkpt>
      <trkpt lat="45.06298" lon="4.28487">
        <ele>970</ele>
        <time>2019-08-11T10:49:31.000Z</time>
      </trkpt>
      <trkpt lat="45.06302" lon="4.28483">
        <ele>969.59997558594</ele>
        <time>2019-08-11T10:49:32.000Z</time>
      </trkpt>
      <trkpt lat="45.06304" lon="4.28479">
        <ele>969.40002441406</ele>
        <time>2019-08-11T10:49:33.000Z</time>
      </trkpt>
      <trkpt lat="45.06307" lon="4.28475">
        <ele>969.40002441406</ele>
        <time>2019-08-11T10:49:34.000Z</time>
      </trkpt>
      <trkpt lat="45.06312" lon="4.2847">
        <ele>969.20001220703</ele>
        <time>2019-08-11T10:49:35.000Z</time>
      </trkpt>
      <trkpt lat="45.06315" lon="4.28465">
        <ele>968.59997558594</ele>
        <time>2019-08-11T10:49:36.000Z</time>
      </trkpt>
      <trkpt lat="45.06318" lon="4.28459">
        <ele>968</ele>
        <time>2019-08-11T10:49:37.000Z</time>
      </trkpt>
      <trkpt lat="45.06329" lon="4.28436">
        <ele>967</ele>
        <time>2019-08-11T10:49:41.000Z</time>
      </trkpt>
      <trkpt lat="45.06334" lon="4.28417">
        <ele>966.40002441406</ele>
        <time>2019-08-11T10:49:44.000Z</time>
      </trkpt>
      <trkpt lat="45.06343" lon="4.28389">
        <ele>964.20001220703</ele>
        <time>2019-08-11T10:49:48.000Z</time>
      </trkpt>
      <trkpt lat="45.06355" lon="4.28347">
        <ele>962.59997558594</ele>
        <time>2019-08-11T10:49:55.000Z</time>
      </trkpt>
      <trkpt lat="45.06363" lon="4.28341">
        <ele>963</ele>
        <time>2019-08-11T10:50:03.000Z</time>
      </trkpt>
      <trkpt lat="45.06362" lon="4.28339">
        <ele>962.79998779297</ele>
        <time>2019-08-11T10:50:08.000Z</time>
      </trkpt>
      <trkpt lat="45.06361" lon="4.28337">
        <ele>963</ele>
        <time>2019-08-11T10:50:12.000Z</time>
      </trkpt>
      <trkpt lat="45.0636" lon="4.28327">
        <ele>961.20001220703</ele>
        <time>2019-08-11T10:50:24.000Z</time>
      </trkpt>
      <trkpt lat="45.06361" lon="4.28322">
        <ele>961</ele>
        <time>2019-08-11T10:50:25.000Z</time>
      </trkpt>
      <trkpt lat="45.06363" lon="4.28317">
        <ele>960.40002441406</ele>
        <time>2019-08-11T10:50:26.000Z</time>
      </trkpt>
      <trkpt lat="45.06369" lon="4.2829">
        <ele>957.20001220703</ele>
        <time>2019-08-11T10:50:31.000Z</time>
      </trkpt>
      <trkpt lat="45.06369" lon="4.28265">
        <ele>954.20001220703</ele>
        <time>2019-08-11T10:50:37.000Z</time>
      </trkpt>
      <trkpt lat="45.06367" lon="4.28253">
        <ele>951</ele>
        <time>2019-08-11T10:50:40.000Z</time>
      </trkpt>
      <trkpt lat="45.06365" lon="4.28245">
        <ele>949.59997558594</ele>
        <time>2019-08-11T10:50:41.000Z</time>
      </trkpt>
      <trkpt lat="45.06363" lon="4.28237">
        <ele>948.79998779297</ele>
        <time>2019-08-11T10:50:42.000Z</time>
      </trkpt>
      <trkpt lat="45.06361" lon="4.28227">
        <ele>948</ele>
        <time>2019-08-11T10:50:43.000Z</time>
      </trkpt>
      <trkpt lat="45.06358" lon="4.28219">
        <ele>947.20001220703</ele>
        <time>2019-08-11T10:50:44.000Z</time>
      </trkpt>
      <trkpt lat="45.06355" lon="4.28209">
        <ele>946.40002441406</ele>
        <time>2019-08-11T10:50:45.000Z</time>
      </trkpt>
      <trkpt lat="45.0635" lon="4.28193">
        <ele>945.20001220703</ele>
        <time>2019-08-11T10:50:47.000Z</time>
      </trkpt>
      <trkpt lat="45.06347" lon="4.28189">
        <ele>945.40002441406</ele>
        <time>2019-08-11T10:50:48.000Z</time>
      </trkpt>
      <trkpt lat="45.06344" lon="4.28186">
        <ele>946</ele>
        <time>2019-08-11T10:50:49.000Z</time>
      </trkpt>
      <trkpt lat="45.06341" lon="4.28184">
        <ele>946.20001220703</ele>
        <time>2019-08-11T10:50:50.000Z</time>
      </trkpt>
      <trkpt lat="45.06338" lon="4.28182">
        <ele>946.59997558594</ele>
        <time>2019-08-11T10:50:51.000Z</time>
      </trkpt>
      <trkpt lat="45.06335" lon="4.28181">
        <ele>946.79998779297</ele>
        <time>2019-08-11T10:50:52.000Z</time>
      </trkpt>
      <trkpt lat="45.06311" lon="4.28171">
        <ele>947.59997558594</ele>
        <time>2019-08-11T10:51:02.000Z</time>
      </trkpt>
      <trkpt lat="45.06301" lon="4.28168">
        <ele>948.20001220703</ele>
        <time>2019-08-11T10:51:06.000Z</time>
      </trkpt>
      <trkpt lat="45.0629" lon="4.28168">
        <ele>949.20001220703</ele>
        <time>2019-08-11T10:51:11.000Z</time>
      </trkpt>
      <trkpt lat="45.06277" lon="4.28166">
        <ele>950.59997558594</ele>
        <time>2019-08-11T10:51:17.000Z</time>
      </trkpt>
      <trkpt lat="45.0627" lon="4.28163">
        <ele>951.20001220703</ele>
        <time>2019-08-11T10:51:20.000Z</time>
      </trkpt>
      <trkpt lat="45.06264" lon="4.2816">
        <ele>951.59997558594</ele>
        <time>2019-08-11T10:51:24.000Z</time>
      </trkpt>
      <trkpt lat="45.06257" lon="4.28154">
        <ele>951.59997558594</ele>
        <time>2019-08-11T10:51:28.000Z</time>
      </trkpt>
      <trkpt lat="45.0624" lon="4.28145">
        <ele>953.20001220703</ele>
        <time>2019-08-11T10:51:37.000Z</time>
      </trkpt>
      <trkpt lat="45.06236" lon="4.2814">
        <ele>953.79998779297</ele>
        <time>2019-08-11T10:51:40.000Z</time>
      </trkpt>
      <trkpt lat="45.06235" lon="4.2814">
        <ele>954</ele>
        <time>2019-08-11T10:51:41.000Z</time>
      </trkpt>
      <trkpt lat="45.06233" lon="4.2814">
        <ele>954.59997558594</ele>
        <time>2019-08-11T10:51:43.000Z</time>
      </trkpt>
      <trkpt lat="45.06207" lon="4.28133">
        <ele>956.40002441406</ele>
        <time>2019-08-11T10:51:56.000Z</time>
      </trkpt>
      <trkpt lat="45.06204" lon="4.28132">
        <ele>956.79998779297</ele>
        <time>2019-08-11T10:51:58.000Z</time>
      </trkpt>
      <trkpt lat="45.0619" lon="4.28125">
        <ele>959.20001220703</ele>
        <time>2019-08-11T10:52:09.000Z</time>
      </trkpt>
      <trkpt lat="45.06153" lon="4.28112">
        <ele>961</ele>
        <time>2019-08-11T10:52:32.000Z</time>
      </trkpt>
      <trkpt lat="45.06138" lon="4.28108">
        <ele>961.40002441406</ele>
        <time>2019-08-11T10:52:37.000Z</time>
      </trkpt>
      <trkpt lat="45.06129" lon="4.2811">
        <ele>961.40002441406</ele>
        <time>2019-08-11T10:52:40.000Z</time>
      </trkpt>
      <trkpt lat="45.06127" lon="4.28112">
        <ele>961.59997558594</ele>
        <time>2019-08-11T10:52:41.000Z</time>
      </trkpt>
      <trkpt lat="45.06095" lon="4.28152">
        <ele>962.79998779297</ele>
        <time>2019-08-11T10:52:56.000Z</time>
      </trkpt>
      <trkpt lat="45.06087" lon="4.28167">
        <ele>963.40002441406</ele>
        <time>2019-08-11T10:53:02.000Z</time>
      </trkpt>
      <trkpt lat="45.06086" lon="4.28169">
        <ele>963.40002441406</ele>
        <time>2019-08-11T10:53:03.000Z</time>
      </trkpt>
      <trkpt lat="45.06084" lon="4.28169">
        <ele>963.40002441406</ele>
        <time>2019-08-11T10:53:04.000Z</time>
      </trkpt>
      <trkpt lat="45.06083" lon="4.28168">
        <ele>963.59997558594</ele>
        <time>2019-08-11T10:53:05.000Z</time>
      </trkpt>
      <trkpt lat="45.06082" lon="4.28166">
        <ele>963.59997558594</ele>
        <time>2019-08-11T10:53:06.000Z</time>
      </trkpt>
      <trkpt lat="45.06082" lon="4.28164">
        <ele>963.40002441406</ele>
        <time>2019-08-11T10:53:07.000Z</time>
      </trkpt>
      <trkpt lat="45.06082" lon="4.28162">
        <ele>963.20001220703</ele>
        <time>2019-08-11T10:53:08.000Z</time>
      </trkpt>
      <trkpt lat="45.06082" lon="4.2816">
        <ele>963.20001220703</ele>
        <time>2019-08-11T10:53:09.000Z</time>
      </trkpt>
      <trkpt lat="45.06083" lon="4.28158">
        <ele>963</ele>
        <time>2019-08-11T10:53:10.000Z</time>
      </trkpt>
      <trkpt lat="45.06084" lon="4.28156">
        <ele>962.59997558594</ele>
        <time>2019-08-11T10:53:11.000Z</time>
      </trkpt>
      <trkpt lat="45.06086" lon="4.28149">
        <ele>961.79998779297</ele>
        <time>2019-08-11T10:53:13.000Z</time>
      </trkpt>
      <trkpt lat="45.06087" lon="4.2811">
        <ele>958.20001220703</ele>
        <time>2019-08-11T10:53:20.000Z</time>
      </trkpt>
      <trkpt lat="45.06085" lon="4.28096">
        <ele>955.59997558594</ele>
        <time>2019-08-11T10:53:22.000Z</time>
      </trkpt>
      <trkpt lat="45.06083" lon="4.28087">
        <ele>954.20001220703</ele>
        <time>2019-08-11T10:53:23.000Z</time>
      </trkpt>
      <trkpt lat="45.0608" lon="4.28079">
        <ele>953.40002441406</ele>
        <time>2019-08-11T10:53:24.000Z</time>
      </trkpt>
      <trkpt lat="45.06077" lon="4.28073">
        <ele>953</ele>
        <time>2019-08-11T10:53:25.000Z</time>
      </trkpt>
      <trkpt lat="45.06073" lon="4.28069">
        <ele>953.20001220703</ele>
        <time>2019-08-11T10:53:26.000Z</time>
      </trkpt>
      <trkpt lat="45.06069" lon="4.28065">
        <ele>953.20001220703</ele>
        <time>2019-08-11T10:53:27.000Z</time>
      </trkpt>
      <trkpt lat="45.06066" lon="4.28064">
        <ele>953.20001220703</ele>
        <time>2019-08-11T10:53:28.000Z</time>
      </trkpt>
      <trkpt lat="45.06063" lon="4.28062">
        <ele>954</ele>
        <time>2019-08-11T10:53:29.000Z</time>
      </trkpt>
      <trkpt lat="45.06062" lon="4.28061">
        <ele>954.40002441406</ele>
        <time>2019-08-11T10:53:30.000Z</time>
      </trkpt>
      <trkpt lat="45.06061" lon="4.2806">
        <ele>954.59997558594</ele>
        <time>2019-08-11T10:53:31.000Z</time>
      </trkpt>
      <trkpt lat="45.06062" lon="4.2806">
        <ele>955.20001220703</ele>
        <time>2019-08-11T10:53:34.000Z</time>
      </trkpt>
      <trkpt lat="45.06062" lon="4.28059">
        <ele>955.20001220703</ele>
        <time>2019-08-11T10:53:38.000Z</time>
      </trkpt>
      <trkpt lat="45.06057" lon="4.28059">
        <ele>955.79998779297</ele>
        <time>2019-08-11T10:53:46.000Z</time>
      </trkpt>
      <trkpt lat="45.06055" lon="4.28059">
        <ele>955.79998779297</ele>
        <time>2019-08-11T10:53:47.000Z</time>
      </trkpt>
      <trkpt lat="45.06043" lon="4.28054">
        <ele>958.40002441406</ele>
        <time>2019-08-11T10:53:59.000Z</time>
      </trkpt>
      <trkpt lat="45.06035" lon="4.28051">
        <ele>959.59997558594</ele>
        <time>2019-08-11T10:54:05.000Z</time>
      </trkpt>
      <trkpt lat="45.06032" lon="4.28049">
        <ele>960</ele>
        <time>2019-08-11T10:54:09.000Z</time>
      </trkpt>
      <trkpt lat="45.06031" lon="4.28049">
        <ele>960.20001220703</ele>
        <time>2019-08-11T10:54:10.000Z</time>
      </trkpt>
      <trkpt lat="45.06028" lon="4.28049">
        <ele>960.59997558594</ele>
        <time>2019-08-11T10:54:15.000Z</time>
      </trkpt>
      <trkpt lat="45.06028" lon="4.28051">
        <ele>960.59997558594</ele>
        <time>2019-08-11T10:54:17.000Z</time>
      </trkpt>
      <trkpt lat="45.06027" lon="4.28051">
        <ele>960.40002441406</ele>
        <time>2019-08-11T10:54:20.000Z</time>
      </trkpt>
      <trkpt lat="45.06024" lon="4.28051">
        <ele>960.20001220703</ele>
        <time>2019-08-11T10:54:23.000Z</time>
      </trkpt>
      <trkpt lat="45.06023" lon="4.28052">
        <ele>960.40002441406</ele>
        <time>2019-08-11T10:54:24.000Z</time>
      </trkpt>
      <trkpt lat="45.06009" lon="4.28055">
        <ele>961</ele>
        <time>2019-08-11T10:54:33.000Z</time>
      </trkpt>
      <trkpt lat="45.06007" lon="4.28055">
        <ele>961</ele>
        <time>2019-08-11T10:54:34.000Z</time>
      </trkpt>
      <trkpt lat="45.06005" lon="4.28055">
        <ele>961</ele>
        <time>2019-08-11T10:54:35.000Z</time>
      </trkpt>
      <trkpt lat="45.06004" lon="4.28055">
        <ele>961.20001220703</ele>
        <time>2019-08-11T10:54:36.000Z</time>
      </trkpt>
      <trkpt lat="45.06002" lon="4.28055">
        <ele>961.40002441406</ele>
        <time>2019-08-11T10:54:37.000Z</time>
      </trkpt>
      <trkpt lat="45.06" lon="4.28056">
        <ele>961.59997558594</ele>
        <time>2019-08-11T10:54:38.000Z</time>
      </trkpt>
      <trkpt lat="45.05998" lon="4.28056">
        <ele>961.79998779297</ele>
        <time>2019-08-11T10:54:39.000Z</time>
      </trkpt>
      <trkpt lat="45.05977" lon="4.28061">
        <ele>964.79998779297</ele>
        <time>2019-08-11T10:54:56.000Z</time>
      </trkpt>
      <trkpt lat="45.05976" lon="4.2806">
        <ele>965</ele>
        <time>2019-08-11T10:54:57.000Z</time>
      </trkpt>
      <trkpt lat="45.05973" lon="4.28058">
        <ele>965.40002441406</ele>
        <time>2019-08-11T10:54:59.000Z</time>
      </trkpt>
      <trkpt lat="45.05971" lon="4.28055">
        <ele>966</ele>
        <time>2019-08-11T10:55:03.000Z</time>
      </trkpt>
      <trkpt lat="45.05984" lon="4.28034">
        <ele>969</ele>
        <time>2019-08-11T10:55:19.000Z</time>
      </trkpt>
      <trkpt lat="45.05989" lon="4.28026">
        <ele>969.79998779297</ele>
        <time>2019-08-11T10:55:26.000Z</time>
      </trkpt>
      <trkpt lat="45.05993" lon="4.28021">
        <ele>970.40002441406</ele>
        <time>2019-08-11T10:55:31.000Z</time>
      </trkpt>
      <trkpt lat="45.06" lon="4.28011">
        <ele>971.59997558594</ele>
        <time>2019-08-11T10:55:40.000Z</time>
      </trkpt>
      <trkpt lat="45.06" lon="4.2801">
        <ele>971.79998779297</ele>
        <time>2019-08-11T10:55:41.000Z</time>
      </trkpt>
      <trkpt lat="45.06001" lon="4.28009">
        <ele>971.79998779297</ele>
        <time>2019-08-11T10:55:42.000Z</time>
      </trkpt>
      <trkpt lat="45.06017" lon="4.27997">
        <ele>974.59997558594</ele>
        <time>2019-08-11T10:55:58.000Z</time>
      </trkpt>
      <trkpt lat="45.06016" lon="4.27991">
        <ele>975.40002441406</ele>
        <time>2019-08-11T10:56:03.000Z</time>
      </trkpt>
      <trkpt lat="45.06015" lon="4.27989">
        <ele>975.40002441406</ele>
        <time>2019-08-11T10:56:04.000Z</time>
      </trkpt>
      <trkpt lat="45.06015" lon="4.27988">
        <ele>975.59997558594</ele>
        <time>2019-08-11T10:56:05.000Z</time>
      </trkpt>
      <trkpt lat="45.06014" lon="4.27985">
        <ele>975.79998779297</ele>
        <time>2019-08-11T10:56:07.000Z</time>
      </trkpt>
      <trkpt lat="45.06013" lon="4.27983">
        <ele>975.79998779297</ele>
        <time>2019-08-11T10:56:08.000Z</time>
      </trkpt>
      <trkpt lat="45.0601" lon="4.2797">
        <ele>976.59997558594</ele>
        <time>2019-08-11T10:56:15.000Z</time>
      </trkpt>
      <trkpt lat="45.0601" lon="4.27968">
        <ele>976.79998779297</ele>
        <time>2019-08-11T10:56:16.000Z</time>
      </trkpt>
      <trkpt lat="45.0601" lon="4.27967">
        <ele>976.79998779297</ele>
        <time>2019-08-11T10:56:17.000Z</time>
      </trkpt>
      <trkpt lat="45.06009" lon="4.27965">
        <ele>976.79998779297</ele>
        <time>2019-08-11T10:56:18.000Z</time>
      </trkpt>
      <trkpt lat="45.06009" lon="4.27964">
        <ele>977</ele>
        <time>2019-08-11T10:56:19.000Z</time>
      </trkpt>
      <trkpt lat="45.06008" lon="4.27963">
        <ele>977</ele>
        <time>2019-08-11T10:56:20.000Z</time>
      </trkpt>
      <trkpt lat="45.06008" lon="4.27961">
        <ele>977</ele>
        <time>2019-08-11T10:56:21.000Z</time>
      </trkpt>
      <trkpt lat="45.06007" lon="4.2796">
        <ele>977.20001220703</ele>
        <time>2019-08-11T10:56:22.000Z</time>
      </trkpt>
      <trkpt lat="45.06004" lon="4.27951">
        <ele>977.59997558594</ele>
        <time>2019-08-11T10:56:28.000Z</time>
      </trkpt>
      <trkpt lat="45.05995" lon="4.27927">
        <ele>980.59997558594</ele>
        <time>2019-08-11T10:56:45.000Z</time>
      </trkpt>
      <trkpt lat="45.05982" lon="4.27898">
        <ele>983.59997558594</ele>
        <time>2019-08-11T10:57:07.000Z</time>
      </trkpt>
      <trkpt lat="45.05973" lon="4.27883">
        <ele>985.20001220703</ele>
        <time>2019-08-11T10:57:20.000Z</time>
      </trkpt>
      <trkpt lat="45.05971" lon="4.27879">
        <ele>986</ele>
        <time>2019-08-11T10:57:24.000Z</time>
      </trkpt>
      <trkpt lat="45.05957" lon="4.27856">
        <ele>987.59997558594</ele>
        <time>2019-08-11T10:57:38.000Z</time>
      </trkpt>
      <trkpt lat="45.05957" lon="4.27855">
        <ele>987.79998779297</ele>
        <time>2019-08-11T10:57:39.000Z</time>
      </trkpt>
      <trkpt lat="45.05954" lon="4.2785">
        <ele>988.40002441406</ele>
        <time>2019-08-11T10:57:42.000Z</time>
      </trkpt>
      <trkpt lat="45.05953" lon="4.27848">
        <ele>988.79998779297</ele>
        <time>2019-08-11T10:57:43.000Z</time>
      </trkpt>
      <trkpt lat="45.0594" lon="4.27828">
        <ele>990.20001220703</ele>
        <time>2019-08-11T10:57:54.000Z</time>
      </trkpt>
      <trkpt lat="45.05934" lon="4.27819">
        <ele>990.59997558594</ele>
        <time>2019-08-11T10:57:58.000Z</time>
      </trkpt>
      <trkpt lat="45.05929" lon="4.27812">
        <ele>990.79998779297</ele>
        <time>2019-08-11T10:58:02.000Z</time>
      </trkpt>
      <trkpt lat="45.05922" lon="4.27804">
        <ele>991</ele>
        <time>2019-08-11T10:58:17.000Z</time>
      </trkpt>
      <trkpt lat="45.05928" lon="4.27805">
        <ele>990.59997558594</ele>
        <time>2019-08-11T11:01:12.000Z</time>
      </trkpt>
      <trkpt lat="45.05926" lon="4.27806">
        <ele>990.59997558594</ele>
        <time>2019-08-11T11:01:14.000Z</time>
      </trkpt>
      <trkpt lat="45.05926" lon="4.27806">
        <ele>990.59997558594</ele>
        <time>2019-08-11T11:01:15.000Z</time>
      </trkpt>
      <trkpt lat="45.05924" lon="4.27807">
        <ele>990.59997558594</ele>
        <time>2019-08-11T11:01:18.000Z</time>
      </trkpt>
      <trkpt lat="45.05918" lon="4.27792">
        <ele>991.20001220703</ele>
        <time>2019-08-11T11:05:08.000Z</time>
      </trkpt>
      <trkpt lat="45.05917" lon="4.2779">
        <ele>991.20001220703</ele>
        <time>2019-08-11T11:05:09.000Z</time>
      </trkpt>
      <trkpt lat="45.05916" lon="4.27788">
        <ele>991.20001220703</ele>
        <time>2019-08-11T11:05:10.000Z</time>
      </trkpt>
      <trkpt lat="45.05884" lon="4.27727">
        <ele>988</ele>
        <time>2019-08-11T11:05:26.000Z</time>
      </trkpt>
      <trkpt lat="45.05863" lon="4.27668">
        <ele>988</ele>
        <time>2019-08-11T11:05:41.000Z</time>
      </trkpt>
      <trkpt lat="45.05865" lon="4.27643">
        <ele>986.59997558594</ele>
        <time>2019-08-11T11:05:45.000Z</time>
      </trkpt>
      <trkpt lat="45.05865" lon="4.27637">
        <ele>986.59997558594</ele>
        <time>2019-08-11T11:05:46.000Z</time>
      </trkpt>
      <trkpt lat="45.05866" lon="4.2763">
        <ele>986.59997558594</ele>
        <time>2019-08-11T11:05:47.000Z</time>
      </trkpt>
      <trkpt lat="45.05867" lon="4.27605">
        <ele>986.20001220703</ele>
        <time>2019-08-11T11:05:51.000Z</time>
      </trkpt>
      <trkpt lat="45.05869" lon="4.27598">
        <ele>986.20001220703</ele>
        <time>2019-08-11T11:05:52.000Z</time>
      </trkpt>
      <trkpt lat="45.05871" lon="4.27593">
        <ele>986</ele>
        <time>2019-08-11T11:05:53.000Z</time>
      </trkpt>
      <trkpt lat="45.05874" lon="4.27587">
        <ele>985.79998779297</ele>
        <time>2019-08-11T11:05:54.000Z</time>
      </trkpt>
      <trkpt lat="45.05875" lon="4.27581">
        <ele>985.79998779297</ele>
        <time>2019-08-11T11:05:55.000Z</time>
      </trkpt>
      <trkpt lat="45.05877" lon="4.27575">
        <ele>985.79998779297</ele>
        <time>2019-08-11T11:05:56.000Z</time>
      </trkpt>
      <trkpt lat="45.05878" lon="4.27568">
        <ele>985.59997558594</ele>
        <time>2019-08-11T11:05:57.000Z</time>
      </trkpt>
      <trkpt lat="45.05878" lon="4.27561">
        <ele>985.20001220703</ele>
        <time>2019-08-11T11:05:58.000Z</time>
      </trkpt>
      <trkpt lat="45.05878" lon="4.27553">
        <ele>984.20001220703</ele>
        <time>2019-08-11T11:05:59.000Z</time>
      </trkpt>
      <trkpt lat="45.05877" lon="4.27545">
        <ele>983.59997558594</ele>
        <time>2019-08-11T11:06:00.000Z</time>
      </trkpt>
      <trkpt lat="45.05876" lon="4.27537">
        <ele>983.40002441406</ele>
        <time>2019-08-11T11:06:01.000Z</time>
      </trkpt>
      <trkpt lat="45.05873" lon="4.27518">
        <ele>982.40002441406</ele>
        <time>2019-08-11T11:06:04.000Z</time>
      </trkpt>
      <trkpt lat="45.0587" lon="4.27513">
        <ele>981.79998779297</ele>
        <time>2019-08-11T11:06:05.000Z</time>
      </trkpt>
      <trkpt lat="45.05868" lon="4.27507">
        <ele>980.79998779297</ele>
        <time>2019-08-11T11:06:06.000Z</time>
      </trkpt>
      <trkpt lat="45.05858" lon="4.27491">
        <ele>979</ele>
        <time>2019-08-11T11:06:09.000Z</time>
      </trkpt>
      <trkpt lat="45.05851" lon="4.27481">
        <ele>977.79998779297</ele>
        <time>2019-08-11T11:06:11.000Z</time>
      </trkpt>
      <trkpt lat="45.05847" lon="4.27475">
        <ele>977</ele>
        <time>2019-08-11T11:06:12.000Z</time>
      </trkpt>
      <trkpt lat="45.05843" lon="4.27468">
        <ele>976.40002441406</ele>
        <time>2019-08-11T11:06:13.000Z</time>
      </trkpt>
      <trkpt lat="45.05838" lon="4.27454">
        <ele>976</ele>
        <time>2019-08-11T11:06:15.000Z</time>
      </trkpt>
      <trkpt lat="45.05834" lon="4.27448">
        <ele>976.20001220703</ele>
        <time>2019-08-11T11:06:16.000Z</time>
      </trkpt>
      <trkpt lat="45.0583" lon="4.27444">
        <ele>976.20001220703</ele>
        <time>2019-08-11T11:06:17.000Z</time>
      </trkpt>
      <trkpt lat="45.05816" lon="4.27433">
        <ele>977.79998779297</ele>
        <time>2019-08-11T11:06:23.000Z</time>
      </trkpt>
      <trkpt lat="45.05813" lon="4.27431">
        <ele>978.40002441406</ele>
        <time>2019-08-11T11:06:26.000Z</time>
      </trkpt>
      <trkpt lat="45.05811" lon="4.27428">
        <ele>979.59997558594</ele>
        <time>2019-08-11T11:06:29.000Z</time>
      </trkpt>
      <trkpt lat="45.05808" lon="4.27427">
        <ele>980.20001220703</ele>
        <time>2019-08-11T11:06:32.000Z</time>
      </trkpt>
      <trkpt lat="45.05802" lon="4.27422">
        <ele>981.40002441406</ele>
        <time>2019-08-11T11:06:37.000Z</time>
      </trkpt>
      <trkpt lat="45.05798" lon="4.27414">
        <ele>981.79998779297</ele>
        <time>2019-08-11T11:06:42.000Z</time>
      </trkpt>
      <trkpt lat="45.05793" lon="4.27412">
        <ele>982.59997558594</ele>
        <time>2019-08-11T11:06:47.000Z</time>
      </trkpt>
      <trkpt lat="45.0579" lon="4.27413">
        <ele>983.59997558594</ele>
        <time>2019-08-11T11:06:51.000Z</time>
      </trkpt>
      <trkpt lat="45.05787" lon="4.27413">
        <ele>984.59997558594</ele>
        <time>2019-08-11T11:06:54.000Z</time>
      </trkpt>
      <trkpt lat="45.05787" lon="4.27414">
        <ele>984.79998779297</ele>
        <time>2019-08-11T11:06:55.000Z</time>
      </trkpt>
      <trkpt lat="45.05779" lon="4.27418">
        <ele>985.59997558594</ele>
        <time>2019-08-11T11:07:00.000Z</time>
      </trkpt>
      <trkpt lat="45.05778" lon="4.27418">
        <ele>985.59997558594</ele>
        <time>2019-08-11T11:07:01.000Z</time>
      </trkpt>
      <trkpt lat="45.05772" lon="4.2742">
        <ele>986</ele>
        <time>2019-08-11T11:07:06.000Z</time>
      </trkpt>
      <trkpt lat="45.0577" lon="4.27423">
        <ele>987</ele>
        <time>2019-08-11T11:07:11.000Z</time>
      </trkpt>
      <trkpt lat="45.05768" lon="4.27424">
        <ele>987.40002441406</ele>
        <time>2019-08-11T11:07:13.000Z</time>
      </trkpt>
      <trkpt lat="45.05766" lon="4.27424">
        <ele>987.59997558594</ele>
        <time>2019-08-11T11:07:14.000Z</time>
      </trkpt>
      <trkpt lat="45.05765" lon="4.27425">
        <ele>987.79998779297</ele>
        <time>2019-08-11T11:07:15.000Z</time>
      </trkpt>
      <trkpt lat="45.05764" lon="4.27426">
        <ele>987.79998779297</ele>
        <time>2019-08-11T11:07:16.000Z</time>
      </trkpt>
      <trkpt lat="45.05762" lon="4.27427">
        <ele>988</ele>
        <time>2019-08-11T11:07:17.000Z</time>
      </trkpt>
      <trkpt lat="45.05761" lon="4.27426">
        <ele>988.20001220703</ele>
        <time>2019-08-11T11:07:18.000Z</time>
      </trkpt>
      <trkpt lat="45.0576" lon="4.27426">
        <ele>988.40002441406</ele>
        <time>2019-08-11T11:07:19.000Z</time>
      </trkpt>
      <trkpt lat="45.05754" lon="4.27424">
        <ele>989.20001220703</ele>
        <time>2019-08-11T11:07:24.000Z</time>
      </trkpt>
      <trkpt lat="45.05752" lon="4.27424">
        <ele>989.40002441406</ele>
        <time>2019-08-11T11:07:25.000Z</time>
      </trkpt>
      <trkpt lat="45.05738" lon="4.27425">
        <ele>990.79998779297</ele>
        <time>2019-08-11T11:07:34.000Z</time>
      </trkpt>
      <trkpt lat="45.05702" lon="4.27378">
        <ele>993.20001220703</ele>
        <time>2019-08-11T11:08:06.000Z</time>
      </trkpt>
      <trkpt lat="45.05701" lon="4.27376">
        <ele>993.40002441406</ele>
        <time>2019-08-11T11:08:07.000Z</time>
      </trkpt>
      <trkpt lat="45.05701" lon="4.27374">
        <ele>993.40002441406</ele>
        <time>2019-08-11T11:08:08.000Z</time>
      </trkpt>
      <trkpt lat="45.05701" lon="4.27372">
        <ele>993.40002441406</ele>
        <time>2019-08-11T11:08:09.000Z</time>
      </trkpt>
      <trkpt lat="45.057" lon="4.2737">
        <ele>993.59997558594</ele>
        <time>2019-08-11T11:08:10.000Z</time>
      </trkpt>
      <trkpt lat="45.05699" lon="4.27367">
        <ele>994</ele>
        <time>2019-08-11T11:08:11.000Z</time>
      </trkpt>
      <trkpt lat="45.05698" lon="4.27364">
        <ele>994.20001220703</ele>
        <time>2019-08-11T11:08:12.000Z</time>
      </trkpt>
      <trkpt lat="45.05655" lon="4.27277">
        <ele>993.79998779297</ele>
        <time>2019-08-11T11:08:33.000Z</time>
      </trkpt>
      <trkpt lat="45.05671" lon="4.27218">
        <ele>994.59997558594</ele>
        <time>2019-08-11T11:08:48.000Z</time>
      </trkpt>
      <trkpt lat="45.05676" lon="4.27197">
        <ele>994.79998779297</ele>
        <time>2019-08-11T11:08:53.000Z</time>
      </trkpt>
      <trkpt lat="45.0568" lon="4.27176">
        <ele>995</ele>
        <time>2019-08-11T11:08:58.000Z</time>
      </trkpt>
      <trkpt lat="45.05683" lon="4.2716">
        <ele>993.40002441406</ele>
        <time>2019-08-11T11:09:02.000Z</time>
      </trkpt>
      <trkpt lat="45.05699" lon="4.27114">
        <ele>989.79998779297</ele>
        <time>2019-08-11T11:09:08.000Z</time>
      </trkpt>
      <trkpt lat="45.05702" lon="4.27084">
        <ele>988.79998779297</ele>
        <time>2019-08-11T11:09:11.000Z</time>
      </trkpt>
      <trkpt lat="45.05706" lon="4.27064">
        <ele>987.79998779297</ele>
        <time>2019-08-11T11:09:13.000Z</time>
      </trkpt>
      <trkpt lat="45.05707" lon="4.27055">
        <ele>988</ele>
        <time>2019-08-11T11:09:14.000Z</time>
      </trkpt>
      <trkpt lat="45.05707" lon="4.27047">
        <ele>988</ele>
        <time>2019-08-11T11:09:15.000Z</time>
      </trkpt>
      <trkpt lat="45.05705" lon="4.27031">
        <ele>988.20001220703</ele>
        <time>2019-08-11T11:09:17.000Z</time>
      </trkpt>
      <trkpt lat="45.05704" lon="4.27024">
        <ele>988.40002441406</ele>
        <time>2019-08-11T11:09:18.000Z</time>
      </trkpt>
      <trkpt lat="45.05695" lon="4.26991">
        <ele>988.79998779297</ele>
        <time>2019-08-11T11:09:23.000Z</time>
      </trkpt>
      <trkpt lat="45.05691" lon="4.26978">
        <ele>988.59997558594</ele>
        <time>2019-08-11T11:09:25.000Z</time>
      </trkpt>
      <trkpt lat="45.05691" lon="4.2697">
        <ele>988.79998779297</ele>
        <time>2019-08-11T11:09:26.000Z</time>
      </trkpt>
      <trkpt lat="45.05692" lon="4.26963">
        <ele>989.20001220703</ele>
        <time>2019-08-11T11:09:27.000Z</time>
      </trkpt>
      <trkpt lat="45.05692" lon="4.26957">
        <ele>989.20001220703</ele>
        <time>2019-08-11T11:09:28.000Z</time>
      </trkpt>
      <trkpt lat="45.05693" lon="4.26951">
        <ele>989.20001220703</ele>
        <time>2019-08-11T11:09:29.000Z</time>
      </trkpt>
      <trkpt lat="45.0568" lon="4.26881">
        <ele>988.79998779297</ele>
        <time>2019-08-11T11:09:41.000Z</time>
      </trkpt>
      <trkpt lat="45.05679" lon="4.26875">
        <ele>988.59997558594</ele>
        <time>2019-08-11T11:09:42.000Z</time>
      </trkpt>
      <trkpt lat="45.05673" lon="4.2686">
        <ele>987.79998779297</ele>
        <time>2019-08-11T11:09:45.000Z</time>
      </trkpt>
      <trkpt lat="45.05668" lon="4.26852">
        <ele>987.59997558594</ele>
        <time>2019-08-11T11:09:47.000Z</time>
      </trkpt>
      <trkpt lat="45.05658" lon="4.2683">
        <ele>989</ele>
        <time>2019-08-11T11:09:52.000Z</time>
      </trkpt>
      <trkpt lat="45.0564" lon="4.26753">
        <ele>989</ele>
        <time>2019-08-11T11:10:11.000Z</time>
      </trkpt>
      <trkpt lat="45.05641" lon="4.26744">
        <ele>988.40002441406</ele>
        <time>2019-08-11T11:10:12.000Z</time>
      </trkpt>
      <trkpt lat="45.05642" lon="4.26736">
        <ele>988</ele>
        <time>2019-08-11T11:10:13.000Z</time>
      </trkpt>
      <trkpt lat="45.05644" lon="4.26729">
        <ele>987.59997558594</ele>
        <time>2019-08-11T11:10:14.000Z</time>
      </trkpt>
      <trkpt lat="45.05646" lon="4.26723">
        <ele>987.59997558594</ele>
        <time>2019-08-11T11:10:15.000Z</time>
      </trkpt>
      <trkpt lat="45.05652" lon="4.26701">
        <ele>987.59997558594</ele>
        <time>2019-08-11T11:10:22.000Z</time>
      </trkpt>
      <trkpt lat="45.05652" lon="4.26699">
        <ele>987.40002441406</ele>
        <time>2019-08-11T11:10:23.000Z</time>
      </trkpt>
      <trkpt lat="45.05653" lon="4.26697">
        <ele>987.20001220703</ele>
        <time>2019-08-11T11:10:24.000Z</time>
      </trkpt>
      <trkpt lat="45.05654" lon="4.26695">
        <ele>987.40002441406</ele>
        <time>2019-08-11T11:10:25.000Z</time>
      </trkpt>
      <trkpt lat="45.05654" lon="4.26692">
        <ele>987.59997558594</ele>
        <time>2019-08-11T11:10:26.000Z</time>
      </trkpt>
      <trkpt lat="45.05655" lon="4.2669">
        <ele>987.79998779297</ele>
        <time>2019-08-11T11:10:27.000Z</time>
      </trkpt>
      <trkpt lat="45.05669" lon="4.26674">
        <ele>988.40002441406</ele>
        <time>2019-08-11T11:10:39.000Z</time>
      </trkpt>
      <trkpt lat="45.05671" lon="4.26671">
        <ele>989</ele>
        <time>2019-08-11T11:10:42.000Z</time>
      </trkpt>
      <trkpt lat="45.05672" lon="4.26669">
        <ele>989.20001220703</ele>
        <time>2019-08-11T11:10:43.000Z</time>
      </trkpt>
      <trkpt lat="45.05673" lon="4.26667">
        <ele>989.40002441406</ele>
        <time>2019-08-11T11:10:44.000Z</time>
      </trkpt>
      <trkpt lat="45.05673" lon="4.26665">
        <ele>989.79998779297</ele>
        <time>2019-08-11T11:10:45.000Z</time>
      </trkpt>
      <trkpt lat="45.05674" lon="4.26663">
        <ele>989.79998779297</ele>
        <time>2019-08-11T11:10:46.000Z</time>
      </trkpt>
      <trkpt lat="45.05681" lon="4.26648">
        <ele>992.59997558594</ele>
        <time>2019-08-11T11:10:56.000Z</time>
      </trkpt>
      <trkpt lat="45.05688" lon="4.26633">
        <ele>994</ele>
        <time>2019-08-11T11:11:14.000Z</time>
      </trkpt>
      <trkpt lat="45.05689" lon="4.26626">
        <ele>994.40002441406</ele>
        <time>2019-08-11T11:11:19.000Z</time>
      </trkpt>
      <trkpt lat="45.05692" lon="4.26617">
        <ele>995</ele>
        <time>2019-08-11T11:11:25.000Z</time>
      </trkpt>
      <trkpt lat="45.05692" lon="4.26615">
        <ele>995.20001220703</ele>
        <time>2019-08-11T11:11:27.000Z</time>
      </trkpt>
      <trkpt lat="45.0569" lon="4.2661">
        <ele>995.79998779297</ele>
        <time>2019-08-11T11:11:31.000Z</time>
      </trkpt>
      <trkpt lat="45.05691" lon="4.26606">
        <ele>996</ele>
        <time>2019-08-11T11:11:35.000Z</time>
      </trkpt>
      <trkpt lat="45.05691" lon="4.26606">
        <ele>996.20001220703</ele>
        <time>2019-08-11T11:11:38.000Z</time>
      </trkpt>
      <trkpt lat="45.05691" lon="4.26599">
        <ele>996</ele>
        <time>2019-08-11T11:11:49.000Z</time>
      </trkpt>
      <trkpt lat="45.05692" lon="4.26597">
        <ele>996</ele>
        <time>2019-08-11T11:11:50.000Z</time>
      </trkpt>
      <trkpt lat="45.05692" lon="4.26595">
        <ele>996</ele>
        <time>2019-08-11T11:11:51.000Z</time>
      </trkpt>
      <trkpt lat="45.05692" lon="4.26593">
        <ele>996.20001220703</ele>
        <time>2019-08-11T11:11:52.000Z</time>
      </trkpt>
      <trkpt lat="45.05692" lon="4.26591">
        <ele>996.20001220703</ele>
        <time>2019-08-11T11:11:53.000Z</time>
      </trkpt>
      <trkpt lat="45.05692" lon="4.26589">
        <ele>996.59997558594</ele>
        <time>2019-08-11T11:11:54.000Z</time>
      </trkpt>
      <trkpt lat="45.05692" lon="4.26587">
        <ele>996.79998779297</ele>
        <time>2019-08-11T11:11:55.000Z</time>
      </trkpt>
      <trkpt lat="45.0569" lon="4.26567">
        <ele>997.40002441406</ele>
        <time>2019-08-11T11:12:04.000Z</time>
      </trkpt>
      <trkpt lat="45.05686" lon="4.26535">
        <ele>997.40002441406</ele>
        <time>2019-08-11T11:12:15.000Z</time>
      </trkpt>
      <trkpt lat="45.05684" lon="4.26525">
        <ele>997.59997558594</ele>
        <time>2019-08-11T11:12:18.000Z</time>
      </trkpt>
      <trkpt lat="45.05672" lon="4.26447">
        <ele>1000.799987793</ele>
        <time>2019-08-11T11:12:46.000Z</time>
      </trkpt>
      <trkpt lat="45.05671" lon="4.26435">
        <ele>1002.4000244141</ele>
        <time>2019-08-11T11:12:52.000Z</time>
      </trkpt>
      <trkpt lat="45.05671" lon="4.26433">
        <ele>1002.5999755859</ele>
        <time>2019-08-11T11:12:53.000Z</time>
      </trkpt>
      <trkpt lat="45.05668" lon="4.26396">
        <ele>1005.5999755859</ele>
        <time>2019-08-11T11:13:10.000Z</time>
      </trkpt>
      <trkpt lat="45.05668" lon="4.26392">
        <ele>1006</ele>
        <time>2019-08-11T11:13:12.000Z</time>
      </trkpt>
      <trkpt lat="45.05668" lon="4.26388">
        <ele>1006.5999755859</ele>
        <time>2019-08-11T11:13:15.000Z</time>
      </trkpt>
      <trkpt lat="45.05667" lon="4.26361">
        <ele>1008.5999755859</ele>
        <time>2019-08-11T11:13:29.000Z</time>
      </trkpt>
      <trkpt lat="45.05666" lon="4.26357">
        <ele>1009</ele>
        <time>2019-08-11T11:13:31.000Z</time>
      </trkpt>
      <trkpt lat="45.05666" lon="4.26356">
        <ele>1008.799987793</ele>
        <time>2019-08-11T11:13:32.000Z</time>
      </trkpt>
      <trkpt lat="45.05666" lon="4.26354">
        <ele>1008.799987793</ele>
        <time>2019-08-11T11:13:33.000Z</time>
      </trkpt>
      <trkpt lat="45.05666" lon="4.26352">
        <ele>1008.799987793</ele>
        <time>2019-08-11T11:13:34.000Z</time>
      </trkpt>
      <trkpt lat="45.05666" lon="4.2635">
        <ele>1009</ele>
        <time>2019-08-11T11:13:35.000Z</time>
      </trkpt>
      <trkpt lat="45.05666" lon="4.26347">
        <ele>1009.200012207</ele>
        <time>2019-08-11T11:13:36.000Z</time>
      </trkpt>
      <trkpt lat="45.05668" lon="4.26297">
        <ele>1012.200012207</ele>
        <time>2019-08-11T11:13:59.000Z</time>
      </trkpt>
      <trkpt lat="45.05666" lon="4.26233">
        <ele>1015</ele>
        <time>2019-08-11T11:14:22.000Z</time>
      </trkpt>
      <trkpt lat="45.05667" lon="4.26204">
        <ele>1014.200012207</ele>
        <time>2019-08-11T11:14:30.000Z</time>
      </trkpt>
      <trkpt lat="45.05665" lon="4.26193">
        <ele>1014.4000244141</ele>
        <time>2019-08-11T11:14:33.000Z</time>
      </trkpt>
      <trkpt lat="45.05656" lon="4.26162">
        <ele>1015</ele>
        <time>2019-08-11T11:14:41.000Z</time>
      </trkpt>
      <trkpt lat="45.05652" lon="4.26137">
        <ele>1015.4000244141</ele>
        <time>2019-08-11T11:14:46.000Z</time>
      </trkpt>
      <trkpt lat="45.05651" lon="4.26117">
        <ele>1015</ele>
        <time>2019-08-11T11:14:50.000Z</time>
      </trkpt>
      <trkpt lat="45.05648" lon="4.26048">
        <ele>1017</ele>
        <time>2019-08-11T11:15:04.000Z</time>
      </trkpt>
      <trkpt lat="45.0565" lon="4.26045">
        <ele>1016.799987793</ele>
        <time>2019-08-11T11:15:05.000Z</time>
      </trkpt>
      <trkpt lat="45.05651" lon="4.26041">
        <ele>1016.799987793</ele>
        <time>2019-08-11T11:15:06.000Z</time>
      </trkpt>
      <trkpt lat="45.05652" lon="4.26037">
        <ele>1016.799987793</ele>
        <time>2019-08-11T11:15:07.000Z</time>
      </trkpt>
      <trkpt lat="45.05652" lon="4.26032">
        <ele>1016.799987793</ele>
        <time>2019-08-11T11:15:08.000Z</time>
      </trkpt>
      <trkpt lat="45.05652" lon="4.26028">
        <ele>1017</ele>
        <time>2019-08-11T11:15:09.000Z</time>
      </trkpt>
      <trkpt lat="45.05652" lon="4.26023">
        <ele>1017.200012207</ele>
        <time>2019-08-11T11:15:10.000Z</time>
      </trkpt>
      <trkpt lat="45.05652" lon="4.26019">
        <ele>1017.4000244141</ele>
        <time>2019-08-11T11:15:11.000Z</time>
      </trkpt>
      <trkpt lat="45.05652" lon="4.26015">
        <ele>1017.5999755859</ele>
        <time>2019-08-11T11:15:12.000Z</time>
      </trkpt>
      <trkpt lat="45.05653" lon="4.26011">
        <ele>1018.200012207</ele>
        <time>2019-08-11T11:15:13.000Z</time>
      </trkpt>
      <trkpt lat="45.05657" lon="4.25959">
        <ele>1018.5999755859</ele>
        <time>2019-08-11T11:15:24.000Z</time>
      </trkpt>
      <trkpt lat="45.05669" lon="4.25875">
        <ele>1020.5999755859</ele>
        <time>2019-08-11T11:15:41.000Z</time>
      </trkpt>
      <trkpt lat="45.05665" lon="4.25795">
        <ele>1022.4000244141</ele>
        <time>2019-08-11T11:15:58.000Z</time>
      </trkpt>
      <trkpt lat="45.05665" lon="4.25787">
        <ele>1022</ele>
        <time>2019-08-11T11:16:00.000Z</time>
      </trkpt>
      <trkpt lat="45.05664" lon="4.25776">
        <ele>1022.5999755859</ele>
        <time>2019-08-11T11:16:03.000Z</time>
      </trkpt>
      <trkpt lat="45.05655" lon="4.25695">
        <ele>1025.5999755859</ele>
        <time>2019-08-11T11:16:22.000Z</time>
      </trkpt>
      <trkpt lat="45.05631" lon="4.25621">
        <ele>1026.5999755859</ele>
        <time>2019-08-11T11:16:38.000Z</time>
      </trkpt>
      <trkpt lat="45.05614" lon="4.25555">
        <ele>1026.1999511719</ele>
        <time>2019-08-11T11:16:51.000Z</time>
      </trkpt>
      <trkpt lat="45.05603" lon="4.25517">
        <ele>1023.799987793</ele>
        <time>2019-08-11T11:16:57.000Z</time>
      </trkpt>
      <trkpt lat="45.05601" lon="4.25509">
        <ele>1023.200012207</ele>
        <time>2019-08-11T11:16:58.000Z</time>
      </trkpt>
      <trkpt lat="45.05595" lon="4.25494">
        <ele>1021.799987793</ele>
        <time>2019-08-11T11:17:00.000Z</time>
      </trkpt>
      <trkpt lat="45.05587" lon="4.25464">
        <ele>1018.5999755859</ele>
        <time>2019-08-11T11:17:03.000Z</time>
      </trkpt>
      <trkpt lat="45.05585" lon="4.25453">
        <ele>1017.5999755859</ele>
        <time>2019-08-11T11:17:04.000Z</time>
      </trkpt>
      <trkpt lat="45.05585" lon="4.25442">
        <ele>1017</ele>
        <time>2019-08-11T11:17:05.000Z</time>
      </trkpt>
      <trkpt lat="45.05585" lon="4.25433">
        <ele>1016.4000244141</ele>
        <time>2019-08-11T11:17:06.000Z</time>
      </trkpt>
      <trkpt lat="45.05584" lon="4.25425">
        <ele>1016</ele>
        <time>2019-08-11T11:17:07.000Z</time>
      </trkpt>
      <trkpt lat="45.05582" lon="4.25419">
        <ele>1015.799987793</ele>
        <time>2019-08-11T11:17:08.000Z</time>
      </trkpt>
      <trkpt lat="45.05581" lon="4.25414">
        <ele>1015.5999755859</ele>
        <time>2019-08-11T11:17:09.000Z</time>
      </trkpt>
      <trkpt lat="45.05578" lon="4.25405">
        <ele>1014.5999755859</ele>
        <time>2019-08-11T11:17:11.000Z</time>
      </trkpt>
      <trkpt lat="45.05577" lon="4.25401">
        <ele>1014.4000244141</ele>
        <time>2019-08-11T11:17:12.000Z</time>
      </trkpt>
      <trkpt lat="45.05576" lon="4.25392">
        <ele>1013.799987793</ele>
        <time>2019-08-11T11:17:14.000Z</time>
      </trkpt>
      <trkpt lat="45.05576" lon="4.25386">
        <ele>1013.4000244141</ele>
        <time>2019-08-11T11:17:15.000Z</time>
      </trkpt>
      <trkpt lat="45.05576" lon="4.2536">
        <ele>1012.200012207</ele>
        <time>2019-08-11T11:17:19.000Z</time>
      </trkpt>
      <trkpt lat="45.05576" lon="4.25345">
        <ele>1011.4000244141</ele>
        <time>2019-08-11T11:17:21.000Z</time>
      </trkpt>
      <trkpt lat="45.05577" lon="4.2533">
        <ele>1010.4000244141</ele>
        <time>2019-08-11T11:17:23.000Z</time>
      </trkpt>
      <trkpt lat="45.0558" lon="4.25295">
        <ele>1011.200012207</ele>
        <time>2019-08-11T11:17:28.000Z</time>
      </trkpt>
      <trkpt lat="45.05588" lon="4.25225">
        <ele>1014.200012207</ele>
        <time>2019-08-11T11:17:42.000Z</time>
      </trkpt>
      <trkpt lat="45.0559" lon="4.25208">
        <ele>1015</ele>
        <time>2019-08-11T11:17:48.000Z</time>
      </trkpt>
      <trkpt lat="45.05589" lon="4.25206">
        <ele>1015</ele>
        <time>2019-08-11T11:17:49.000Z</time>
      </trkpt>
      <trkpt lat="45.05589" lon="4.25204">
        <ele>1015</ele>
        <time>2019-08-11T11:17:50.000Z</time>
      </trkpt>
      <trkpt lat="45.05588" lon="4.25205">
        <ele>1015.4000244141</ele>
        <time>2019-08-11T11:17:55.000Z</time>
      </trkpt>
      <trkpt lat="45.05588" lon="4.25205">
        <ele>1015.4000244141</ele>
        <time>2019-08-11T11:17:56.000Z</time>
      </trkpt>
      <trkpt lat="45.05587" lon="4.25196">
        <ele>1015.200012207</ele>
        <time>2019-08-11T11:26:26.000Z</time>
      </trkpt>
      <trkpt lat="45.05588" lon="4.25193">
        <ele>1015.200012207</ele>
        <time>2019-08-11T11:26:27.000Z</time>
      </trkpt>
      <trkpt lat="45.05589" lon="4.2519">
        <ele>1015</ele>
        <time>2019-08-11T11:26:28.000Z</time>
      </trkpt>
      <trkpt lat="45.05607" lon="4.25112">
        <ele>1013</ele>
        <time>2019-08-11T11:26:44.000Z</time>
      </trkpt>
      <trkpt lat="45.05614" lon="4.25083">
        <ele>1012.200012207</ele>
        <time>2019-08-11T11:26:49.000Z</time>
      </trkpt>
      <trkpt lat="45.05617" lon="4.25059">
        <ele>1012.799987793</ele>
        <time>2019-08-11T11:26:53.000Z</time>
      </trkpt>
      <trkpt lat="45.05618" lon="4.25053">
        <ele>1013</ele>
        <time>2019-08-11T11:26:54.000Z</time>
      </trkpt>
      <trkpt lat="45.05618" lon="4.25047">
        <ele>1013</ele>
        <time>2019-08-11T11:26:55.000Z</time>
      </trkpt>
      <trkpt lat="45.05621" lon="4.25023">
        <ele>1012.5999755859</ele>
        <time>2019-08-11T11:26:59.000Z</time>
      </trkpt>
      <trkpt lat="45.05621" lon="4.25017">
        <ele>1012.4000244141</ele>
        <time>2019-08-11T11:27:00.000Z</time>
      </trkpt>
      <trkpt lat="45.05624" lon="4.24994">
        <ele>1012.200012207</ele>
        <time>2019-08-11T11:27:05.000Z</time>
      </trkpt>
      <trkpt lat="45.0563" lon="4.24913">
        <ele>1010.200012207</ele>
        <time>2019-08-11T11:27:27.000Z</time>
      </trkpt>
      <trkpt lat="45.0564" lon="4.24889">
        <ele>1009.799987793</ele>
        <time>2019-08-11T11:27:33.000Z</time>
      </trkpt>
      <trkpt lat="45.05681" lon="4.24854">
        <ele>1008.5999755859</ele>
        <time>2019-08-11T11:27:46.000Z</time>
      </trkpt>
      <trkpt lat="45.05679" lon="4.24849">
        <ele>1008.200012207</ele>
        <time>2019-08-11T11:27:47.000Z</time>
      </trkpt>
      <trkpt lat="45.05665" lon="4.24813">
        <ele>1004.5999755859</ele>
        <time>2019-08-11T11:27:52.000Z</time>
      </trkpt>
      <trkpt lat="45.0565" lon="4.24776">
        <ele>1001.5999755859</ele>
        <time>2019-08-11T11:27:56.000Z</time>
      </trkpt>
      <trkpt lat="45.05634" lon="4.24713">
        <ele>998.79998779297</ele>
        <time>2019-08-11T11:28:02.000Z</time>
      </trkpt>
      <trkpt lat="45.05611" lon="4.24633">
        <ele>999.79998779297</ele>
        <time>2019-08-11T11:28:11.000Z</time>
      </trkpt>
      <trkpt lat="45.05592" lon="4.24596">
        <ele>1000.5999755859</ele>
        <time>2019-08-11T11:28:17.000Z</time>
      </trkpt>
      <trkpt lat="45.05565" lon="4.24564">
        <ele>1002.5999755859</ele>
        <time>2019-08-11T11:28:25.000Z</time>
      </trkpt>
      <trkpt lat="45.05556" lon="4.24553">
        <ele>1003.5999755859</ele>
        <time>2019-08-11T11:28:28.000Z</time>
      </trkpt>
      <trkpt lat="45.05544" lon="4.24539">
        <ele>1004.5999755859</ele>
        <time>2019-08-11T11:28:32.000Z</time>
      </trkpt>
      <trkpt lat="45.05533" lon="4.24508">
        <ele>1005.200012207</ele>
        <time>2019-08-11T11:28:40.000Z</time>
      </trkpt>
      <trkpt lat="45.0552" lon="4.24469">
        <ele>1005.4000244141</ele>
        <time>2019-08-11T11:28:50.000Z</time>
      </trkpt>
      <trkpt lat="45.05516" lon="4.24429">
        <ele>1006.799987793</ele>
        <time>2019-08-11T11:28:59.000Z</time>
      </trkpt>
      <trkpt lat="45.05511" lon="4.24409">
        <ele>1007.5999755859</ele>
        <time>2019-08-11T11:29:04.000Z</time>
      </trkpt>
      <trkpt lat="45.05512" lon="4.24398">
        <ele>1008.200012207</ele>
        <time>2019-08-11T11:29:07.000Z</time>
      </trkpt>
      <trkpt lat="45.05513" lon="4.24395">
        <ele>1008.4000244141</ele>
        <time>2019-08-11T11:29:08.000Z</time>
      </trkpt>
      <trkpt lat="45.05514" lon="4.24393">
        <ele>1008.4000244141</ele>
        <time>2019-08-11T11:29:09.000Z</time>
      </trkpt>
      <trkpt lat="45.05515" lon="4.24391">
        <ele>1008.5999755859</ele>
        <time>2019-08-11T11:29:10.000Z</time>
      </trkpt>
      <trkpt lat="45.05515" lon="4.24389">
        <ele>1008.4000244141</ele>
        <time>2019-08-11T11:29:11.000Z</time>
      </trkpt>
      <trkpt lat="45.05514" lon="4.24386">
        <ele>1008.5999755859</ele>
        <time>2019-08-11T11:29:12.000Z</time>
      </trkpt>
      <trkpt lat="45.05513" lon="4.24384">
        <ele>1008.5999755859</ele>
        <time>2019-08-11T11:29:13.000Z</time>
      </trkpt>
      <trkpt lat="45.05511" lon="4.24382">
        <ele>1008.5999755859</ele>
        <time>2019-08-11T11:29:14.000Z</time>
      </trkpt>
      <trkpt lat="45.05509" lon="4.2438">
        <ele>1008.5999755859</ele>
        <time>2019-08-11T11:29:15.000Z</time>
      </trkpt>
      <trkpt lat="45.05477" lon="4.24314">
        <ele>1010.5999755859</ele>
        <time>2019-08-11T11:29:41.000Z</time>
      </trkpt>
      <trkpt lat="45.05458" lon="4.24278">
        <ele>1013.5999755859</ele>
        <time>2019-08-11T11:29:56.000Z</time>
      </trkpt>
      <trkpt lat="45.0545" lon="4.24262">
        <ele>1015.5999755859</ele>
        <time>2019-08-11T11:30:02.000Z</time>
      </trkpt>
      <trkpt lat="45.05439" lon="4.24238">
        <ele>1017.200012207</ele>
        <time>2019-08-11T11:30:11.000Z</time>
      </trkpt>
      <trkpt lat="45.0543" lon="4.24218">
        <ele>1018.5999755859</ele>
        <time>2019-08-11T11:30:18.000Z</time>
      </trkpt>
      <trkpt lat="45.05431" lon="4.24191">
        <ele>1019.799987793</ele>
        <time>2019-08-11T11:30:27.000Z</time>
      </trkpt>
      <trkpt lat="45.05433" lon="4.24185">
        <ele>1020</ele>
        <time>2019-08-11T11:30:29.000Z</time>
      </trkpt>
      <trkpt lat="45.05448" lon="4.24149">
        <ele>1019.4000244141</ele>
        <time>2019-08-11T11:30:39.000Z</time>
      </trkpt>
      <trkpt lat="45.0545" lon="4.24129">
        <ele>1019</ele>
        <time>2019-08-11T11:30:42.000Z</time>
      </trkpt>
      <trkpt lat="45.05455" lon="4.24095">
        <ele>1017.5999755859</ele>
        <time>2019-08-11T11:30:47.000Z</time>
      </trkpt>
      <trkpt lat="45.05457" lon="4.24088">
        <ele>1017.200012207</ele>
        <time>2019-08-11T11:30:48.000Z</time>
      </trkpt>
      <trkpt lat="45.05462" lon="4.24074">
        <ele>1016.200012207</ele>
        <time>2019-08-11T11:30:50.000Z</time>
      </trkpt>
      <trkpt lat="45.05468" lon="4.2406">
        <ele>1015.5999755859</ele>
        <time>2019-08-11T11:30:52.000Z</time>
      </trkpt>
      <trkpt lat="45.05472" lon="4.24054">
        <ele>1015.4000244141</ele>
        <time>2019-08-11T11:30:53.000Z</time>
      </trkpt>
      <trkpt lat="45.05476" lon="4.24049">
        <ele>1015</ele>
        <time>2019-08-11T11:30:54.000Z</time>
      </trkpt>
      <trkpt lat="45.05481" lon="4.24046">
        <ele>1014.799987793</ele>
        <time>2019-08-11T11:30:55.000Z</time>
      </trkpt>
      <trkpt lat="45.05487" lon="4.24045">
        <ele>1014.4000244141</ele>
        <time>2019-08-11T11:30:56.000Z</time>
      </trkpt>
      <trkpt lat="45.05493" lon="4.24044">
        <ele>1013.799987793</ele>
        <time>2019-08-11T11:30:57.000Z</time>
      </trkpt>
      <trkpt lat="45.05504" lon="4.2404">
        <ele>1012.4000244141</ele>
        <time>2019-08-11T11:30:59.000Z</time>
      </trkpt>
      <trkpt lat="45.05516" lon="4.24034">
        <ele>1011.200012207</ele>
        <time>2019-08-11T11:31:01.000Z</time>
      </trkpt>
      <trkpt lat="45.0552" lon="4.24027">
        <ele>1010.799987793</ele>
        <time>2019-08-11T11:31:02.000Z</time>
      </trkpt>
      <trkpt lat="45.05524" lon="4.24019">
        <ele>1010</ele>
        <time>2019-08-11T11:31:03.000Z</time>
      </trkpt>
      <trkpt lat="45.05526" lon="4.2401">
        <ele>1009.200012207</ele>
        <time>2019-08-11T11:31:04.000Z</time>
      </trkpt>
      <trkpt lat="45.05528" lon="4.24001">
        <ele>1008.799987793</ele>
        <time>2019-08-11T11:31:05.000Z</time>
      </trkpt>
      <trkpt lat="45.0553" lon="4.23993">
        <ele>1008.5999755859</ele>
        <time>2019-08-11T11:31:06.000Z</time>
      </trkpt>
      <trkpt lat="45.05532" lon="4.23985">
        <ele>1008.799987793</ele>
        <time>2019-08-11T11:31:07.000Z</time>
      </trkpt>
      <trkpt lat="45.05534" lon="4.23978">
        <ele>1009</ele>
        <time>2019-08-11T11:31:08.000Z</time>
      </trkpt>
      <trkpt lat="45.05537" lon="4.23972">
        <ele>1009.5999755859</ele>
        <time>2019-08-11T11:31:09.000Z</time>
      </trkpt>
      <trkpt lat="45.0554" lon="4.23968">
        <ele>1010.5999755859</ele>
        <time>2019-08-11T11:31:10.000Z</time>
      </trkpt>
      <trkpt lat="45.05553" lon="4.23949">
        <ele>1013.799987793</ele>
        <time>2019-08-11T11:31:16.000Z</time>
      </trkpt>
      <trkpt lat="45.05572" lon="4.23894">
        <ele>1015.4000244141</ele>
        <time>2019-08-11T11:31:31.000Z</time>
      </trkpt>
      <trkpt lat="45.05577" lon="4.23861">
        <ele>1015</ele>
        <time>2019-08-11T11:31:38.000Z</time>
      </trkpt>
      <trkpt lat="45.05581" lon="4.23859">
        <ele>1015</ele>
        <time>2019-08-11T11:31:39.000Z</time>
      </trkpt>
      <trkpt lat="45.05585" lon="4.23859">
        <ele>1014.5999755859</ele>
        <time>2019-08-11T11:31:40.000Z</time>
      </trkpt>
      <trkpt lat="45.05589" lon="4.23859">
        <ele>1014.5999755859</ele>
        <time>2019-08-11T11:31:41.000Z</time>
      </trkpt>
      <trkpt lat="45.05593" lon="4.2386">
        <ele>1014.4000244141</ele>
        <time>2019-08-11T11:31:42.000Z</time>
      </trkpt>
      <trkpt lat="45.05611" lon="4.23861">
        <ele>1013</ele>
        <time>2019-08-11T11:31:46.000Z</time>
      </trkpt>
      <trkpt lat="45.05615" lon="4.23858">
        <ele>1013.200012207</ele>
        <time>2019-08-11T11:31:47.000Z</time>
      </trkpt>
      <trkpt lat="45.05618" lon="4.23854">
        <ele>1013.200012207</ele>
        <time>2019-08-11T11:31:48.000Z</time>
      </trkpt>
      <trkpt lat="45.0562" lon="4.2385">
        <ele>1013.4000244141</ele>
        <time>2019-08-11T11:31:49.000Z</time>
      </trkpt>
      <trkpt lat="45.05622" lon="4.23846">
        <ele>1013.4000244141</ele>
        <time>2019-08-11T11:31:50.000Z</time>
      </trkpt>
      <trkpt lat="45.05652" lon="4.23787">
        <ele>1013.799987793</ele>
        <time>2019-08-11T11:32:03.000Z</time>
      </trkpt>
      <trkpt lat="45.0566" lon="4.2372">
        <ele>1013.4000244141</ele>
        <time>2019-08-11T11:32:14.000Z</time>
      </trkpt>
      <trkpt lat="45.05661" lon="4.23698">
        <ele>1012.200012207</ele>
        <time>2019-08-11T11:32:17.000Z</time>
      </trkpt>
      <trkpt lat="45.05665" lon="4.23656">
        <ele>1011.799987793</ele>
        <time>2019-08-11T11:32:23.000Z</time>
      </trkpt>
      <trkpt lat="45.05655" lon="4.23603">
        <ele>1015</ele>
        <time>2019-08-11T11:32:35.000Z</time>
      </trkpt>
      <trkpt lat="45.0564" lon="4.2359">
        <ele>1015.799987793</ele>
        <time>2019-08-11T11:32:41.000Z</time>
      </trkpt>
      <trkpt lat="45.05626" lon="4.23582">
        <ele>1017.799987793</ele>
        <time>2019-08-11T11:32:47.000Z</time>
      </trkpt>
      <trkpt lat="45.05608" lon="4.23576">
        <ele>1019.4000244141</ele>
        <time>2019-08-11T11:32:54.000Z</time>
      </trkpt>
      <trkpt lat="45.056" lon="4.23565">
        <ele>1021</ele>
        <time>2019-08-11T11:33:00.000Z</time>
      </trkpt>
      <trkpt lat="45.05601" lon="4.23563">
        <ele>1021</ele>
        <time>2019-08-11T11:33:01.000Z</time>
      </trkpt>
      <trkpt lat="45.05602" lon="4.2356">
        <ele>1021</ele>
        <time>2019-08-11T11:33:02.000Z</time>
      </trkpt>
      <trkpt lat="45.05604" lon="4.23557">
        <ele>1021</ele>
        <time>2019-08-11T11:33:03.000Z</time>
      </trkpt>
      <trkpt lat="45.05607" lon="4.23554">
        <ele>1021</ele>
        <time>2019-08-11T11:33:04.000Z</time>
      </trkpt>
      <trkpt lat="45.05609" lon="4.23551">
        <ele>1020.799987793</ele>
        <time>2019-08-11T11:33:05.000Z</time>
      </trkpt>
      <trkpt lat="45.05611" lon="4.23547">
        <ele>1020.799987793</ele>
        <time>2019-08-11T11:33:06.000Z</time>
      </trkpt>
      <trkpt lat="45.05613" lon="4.23542">
        <ele>1020.5999755859</ele>
        <time>2019-08-11T11:33:07.000Z</time>
      </trkpt>
      <trkpt lat="45.05614" lon="4.23538">
        <ele>1020.4000244141</ele>
        <time>2019-08-11T11:33:08.000Z</time>
      </trkpt>
      <trkpt lat="45.0562" lon="4.23519">
        <ele>1020.200012207</ele>
        <time>2019-08-11T11:33:12.000Z</time>
      </trkpt>
      <trkpt lat="45.05625" lon="4.23508">
        <ele>1020.200012207</ele>
        <time>2019-08-11T11:33:14.000Z</time>
      </trkpt>
      <trkpt lat="45.05635" lon="4.23489">
        <ele>1020.4000244141</ele>
        <time>2019-08-11T11:33:18.000Z</time>
      </trkpt>
      <trkpt lat="45.05639" lon="4.23484">
        <ele>1020.200012207</ele>
        <time>2019-08-11T11:33:19.000Z</time>
      </trkpt>
      <trkpt lat="45.05656" lon="4.23466">
        <ele>1019.799987793</ele>
        <time>2019-08-11T11:33:23.000Z</time>
      </trkpt>
      <trkpt lat="45.05675" lon="4.23445">
        <ele>1017.799987793</ele>
        <time>2019-08-11T11:33:27.000Z</time>
      </trkpt>
      <trkpt lat="45.05697" lon="4.23418">
        <ele>1014</ele>
        <time>2019-08-11T11:33:31.000Z</time>
      </trkpt>
      <trkpt lat="45.05712" lon="4.23398">
        <ele>1013</ele>
        <time>2019-08-11T11:33:34.000Z</time>
      </trkpt>
      <trkpt lat="45.05715" lon="4.23392">
        <ele>1013</ele>
        <time>2019-08-11T11:33:35.000Z</time>
      </trkpt>
      <trkpt lat="45.05717" lon="4.23385">
        <ele>1012.200012207</ele>
        <time>2019-08-11T11:33:36.000Z</time>
      </trkpt>
      <trkpt lat="45.05718" lon="4.23377">
        <ele>1011.5999755859</ele>
        <time>2019-08-11T11:33:37.000Z</time>
      </trkpt>
      <trkpt lat="45.05718" lon="4.23369">
        <ele>1011.200012207</ele>
        <time>2019-08-11T11:33:38.000Z</time>
      </trkpt>
      <trkpt lat="45.05717" lon="4.2336">
        <ele>1011</ele>
        <time>2019-08-11T11:33:39.000Z</time>
      </trkpt>
      <trkpt lat="45.05708" lon="4.23284">
        <ele>1008</ele>
        <time>2019-08-11T11:33:47.000Z</time>
      </trkpt>
      <trkpt lat="45.05708" lon="4.23275">
        <ele>1008</ele>
        <time>2019-08-11T11:33:48.000Z</time>
      </trkpt>
      <trkpt lat="45.05707" lon="4.23259">
        <ele>1007.5999755859</ele>
        <time>2019-08-11T11:33:50.000Z</time>
      </trkpt>
      <trkpt lat="45.05708" lon="4.23244">
        <ele>1007.799987793</ele>
        <time>2019-08-11T11:33:52.000Z</time>
      </trkpt>
      <trkpt lat="45.0571" lon="4.23239">
        <ele>1008</ele>
        <time>2019-08-11T11:33:53.000Z</time>
      </trkpt>
      <trkpt lat="45.05713" lon="4.23234">
        <ele>1008.200012207</ele>
        <time>2019-08-11T11:33:54.000Z</time>
      </trkpt>
      <trkpt lat="45.05715" lon="4.23231">
        <ele>1008.5999755859</ele>
        <time>2019-08-11T11:33:55.000Z</time>
      </trkpt>
      <trkpt lat="45.05718" lon="4.23227">
        <ele>1009.200012207</ele>
        <time>2019-08-11T11:33:56.000Z</time>
      </trkpt>
      <trkpt lat="45.05721" lon="4.23224">
        <ele>1009.4000244141</ele>
        <time>2019-08-11T11:33:57.000Z</time>
      </trkpt>
      <trkpt lat="45.05731" lon="4.2321">
        <ele>1010.4000244141</ele>
        <time>2019-08-11T11:34:01.000Z</time>
      </trkpt>
      <trkpt lat="45.05745" lon="4.2319">
        <ele>1011.200012207</ele>
        <time>2019-08-11T11:34:08.000Z</time>
      </trkpt>
      <trkpt lat="45.05755" lon="4.23173">
        <ele>1012.799987793</ele>
        <time>2019-08-11T11:34:14.000Z</time>
      </trkpt>
      <trkpt lat="45.05767" lon="4.23154">
        <ele>1013.5999755859</ele>
        <time>2019-08-11T11:34:22.000Z</time>
      </trkpt>
      <trkpt lat="45.05772" lon="4.23145">
        <ele>1014.200012207</ele>
        <time>2019-08-11T11:34:26.000Z</time>
      </trkpt>
      <trkpt lat="45.05779" lon="4.23133">
        <ele>1015</ele>
        <time>2019-08-11T11:34:31.000Z</time>
      </trkpt>
      <trkpt lat="45.05786" lon="4.2312">
        <ele>1015.5999755859</ele>
        <time>2019-08-11T11:34:37.000Z</time>
      </trkpt>
      <trkpt lat="45.05806" lon="4.23092">
        <ele>1017.5999755859</ele>
        <time>2019-08-11T11:34:51.000Z</time>
      </trkpt>
      <trkpt lat="45.05817" lon="4.23078">
        <ele>1018.799987793</ele>
        <time>2019-08-11T11:34:59.000Z</time>
      </trkpt>
      <trkpt lat="45.0582" lon="4.23074">
        <ele>1019.200012207</ele>
        <time>2019-08-11T11:35:01.000Z</time>
      </trkpt>
      <trkpt lat="45.05846" lon="4.23038">
        <ele>1021.200012207</ele>
        <time>2019-08-11T11:35:22.000Z</time>
      </trkpt>
      <trkpt lat="45.05853" lon="4.23025">
        <ele>1022.200012207</ele>
        <time>2019-08-11T11:35:29.000Z</time>
      </trkpt>
      <trkpt lat="45.05867" lon="4.22996">
        <ele>1025.1999511719</ele>
        <time>2019-08-11T11:35:45.000Z</time>
      </trkpt>
      <trkpt lat="45.05884" lon="4.22967">
        <ele>1027.4000244141</ele>
        <time>2019-08-11T11:36:01.000Z</time>
      </trkpt>
      <trkpt lat="45.0589" lon="4.22958">
        <ele>1028.1999511719</ele>
        <time>2019-08-11T11:36:06.000Z</time>
      </trkpt>
      <trkpt lat="45.05919" lon="4.22931">
        <ele>1030.8000488281</ele>
        <time>2019-08-11T11:36:27.000Z</time>
      </trkpt>
      <trkpt lat="45.05956" lon="4.22934">
        <ele>1033.8000488281</ele>
        <time>2019-08-11T11:36:49.000Z</time>
      </trkpt>
      <trkpt lat="45.05976" lon="4.2294">
        <ele>1036</ele>
        <time>2019-08-11T11:37:01.000Z</time>
      </trkpt>
      <trkpt lat="45.0599" lon="4.22943">
        <ele>1037.5999755859</ele>
        <time>2019-08-11T11:37:11.000Z</time>
      </trkpt>
      <trkpt lat="45.06" lon="4.22939">
        <ele>1038.1999511719</ele>
        <time>2019-08-11T11:37:18.000Z</time>
      </trkpt>
      <trkpt lat="45.06001" lon="4.22938">
        <ele>1038.1999511719</ele>
        <time>2019-08-11T11:37:19.000Z</time>
      </trkpt>
      <trkpt lat="45.06007" lon="4.22933">
        <ele>1038.4000244141</ele>
        <time>2019-08-11T11:37:23.000Z</time>
      </trkpt>
      <trkpt lat="45.0604" lon="4.22906">
        <ele>1041.5999755859</ele>
        <time>2019-08-11T11:37:44.000Z</time>
      </trkpt>
      <trkpt lat="45.06058" lon="4.2289">
        <ele>1043.1999511719</ele>
        <time>2019-08-11T11:37:58.000Z</time>
      </trkpt>
      <trkpt lat="45.06065" lon="4.22883">
        <ele>1043.8000488281</ele>
        <time>2019-08-11T11:38:03.000Z</time>
      </trkpt>
      <trkpt lat="45.06069" lon="4.22878">
        <ele>1044.1999511719</ele>
        <time>2019-08-11T11:38:06.000Z</time>
      </trkpt>
      <trkpt lat="45.061" lon="4.22845">
        <ele>1047.1999511719</ele>
        <time>2019-08-11T11:38:28.000Z</time>
      </trkpt>
      <trkpt lat="45.06118" lon="4.2283">
        <ele>1048.8000488281</ele>
        <time>2019-08-11T11:38:41.000Z</time>
      </trkpt>
      <trkpt lat="45.06121" lon="4.22827">
        <ele>1049.1999511719</ele>
        <time>2019-08-11T11:38:43.000Z</time>
      </trkpt>
      <trkpt lat="45.06136" lon="4.22805">
        <ele>1051.5999755859</ele>
        <time>2019-08-11T11:38:57.000Z</time>
      </trkpt>
      <trkpt lat="45.06143" lon="4.22795">
        <ele>1053</ele>
        <time>2019-08-11T11:39:05.000Z</time>
      </trkpt>
      <trkpt lat="45.06145" lon="4.22791">
        <ele>1053.4000244141</ele>
        <time>2019-08-11T11:39:08.000Z</time>
      </trkpt>
      <trkpt lat="45.06149" lon="4.22784">
        <ele>1054</ele>
        <time>2019-08-11T11:39:12.000Z</time>
      </trkpt>
      <trkpt lat="45.06153" lon="4.22778">
        <ele>1054.5999755859</ele>
        <time>2019-08-11T11:39:16.000Z</time>
      </trkpt>
      <trkpt lat="45.06166" lon="4.22765">
        <ele>1056.8000488281</ele>
        <time>2019-08-11T11:39:28.000Z</time>
      </trkpt>
      <trkpt lat="45.06172" lon="4.22757">
        <ele>1057.4000244141</ele>
        <time>2019-08-11T11:39:33.000Z</time>
      </trkpt>
      <trkpt lat="45.06187" lon="4.22744">
        <ele>1060.4000244141</ele>
        <time>2019-08-11T11:39:46.000Z</time>
      </trkpt>
      <trkpt lat="45.06201" lon="4.22728">
        <ele>1063.1999511719</ele>
        <time>2019-08-11T11:40:00.000Z</time>
      </trkpt>
      <trkpt lat="45.06201" lon="4.22727">
        <ele>1063.1999511719</ele>
        <time>2019-08-11T11:40:01.000Z</time>
      </trkpt>
      <trkpt lat="45.06202" lon="4.22725">
        <ele>1063.4000244141</ele>
        <time>2019-08-11T11:40:02.000Z</time>
      </trkpt>
      <trkpt lat="45.06202" lon="4.22723">
        <ele>1063.5999755859</ele>
        <time>2019-08-11T11:40:03.000Z</time>
      </trkpt>
      <trkpt lat="45.06202" lon="4.22721">
        <ele>1063.5999755859</ele>
        <time>2019-08-11T11:40:04.000Z</time>
      </trkpt>
      <trkpt lat="45.06203" lon="4.22719">
        <ele>1063.8000488281</ele>
        <time>2019-08-11T11:40:05.000Z</time>
      </trkpt>
      <trkpt lat="45.06204" lon="4.22718">
        <ele>1064</ele>
        <time>2019-08-11T11:40:06.000Z</time>
      </trkpt>
      <trkpt lat="45.06212" lon="4.22706">
        <ele>1065.4000244141</ele>
        <time>2019-08-11T11:40:15.000Z</time>
      </trkpt>
      <trkpt lat="45.06212" lon="4.22705">
        <ele>1065.5999755859</ele>
        <time>2019-08-11T11:40:16.000Z</time>
      </trkpt>
      <trkpt lat="45.06212" lon="4.22703">
        <ele>1065.8000488281</ele>
        <time>2019-08-11T11:40:17.000Z</time>
      </trkpt>
      <trkpt lat="45.06212" lon="4.22702">
        <ele>1065.8000488281</ele>
        <time>2019-08-11T11:40:18.000Z</time>
      </trkpt>
      <trkpt lat="45.06212" lon="4.227">
        <ele>1066.1999511719</ele>
        <time>2019-08-11T11:40:19.000Z</time>
      </trkpt>
      <trkpt lat="45.06214" lon="4.22691">
        <ele>1067.1999511719</ele>
        <time>2019-08-11T11:40:24.000Z</time>
      </trkpt>
      <trkpt lat="45.06215" lon="4.22661">
        <ele>1070.4000244141</ele>
        <time>2019-08-11T11:40:41.000Z</time>
      </trkpt>
      <trkpt lat="45.06216" lon="4.22655">
        <ele>1070.5999755859</ele>
        <time>2019-08-11T11:40:44.000Z</time>
      </trkpt>
      <trkpt lat="45.06218" lon="4.2265">
        <ele>1071</ele>
        <time>2019-08-11T11:40:47.000Z</time>
      </trkpt>
      <trkpt lat="45.06231" lon="4.22623">
        <ele>1072.5999755859</ele>
        <time>2019-08-11T11:41:04.000Z</time>
      </trkpt>
      <trkpt lat="45.06233" lon="4.22618">
        <ele>1072.8000488281</ele>
        <time>2019-08-11T11:41:07.000Z</time>
      </trkpt>
      <trkpt lat="45.06236" lon="4.22609">
        <ele>1073.1999511719</ele>
        <time>2019-08-11T11:41:12.000Z</time>
      </trkpt>
      <trkpt lat="45.06242" lon="4.22593">
        <ele>1074.8000488281</ele>
        <time>2019-08-11T11:41:21.000Z</time>
      </trkpt>
      <trkpt lat="45.06251" lon="4.22571">
        <ele>1078</ele>
        <time>2019-08-11T11:41:34.000Z</time>
      </trkpt>
      <trkpt lat="45.06254" lon="4.22564">
        <ele>1079.5999755859</ele>
        <time>2019-08-11T11:41:39.000Z</time>
      </trkpt>
      <trkpt lat="45.06255" lon="4.22562">
        <ele>1079.8000488281</ele>
        <time>2019-08-11T11:41:40.000Z</time>
      </trkpt>
      <trkpt lat="45.06257" lon="4.2256">
        <ele>1080.1999511719</ele>
        <time>2019-08-11T11:41:42.000Z</time>
      </trkpt>
      <trkpt lat="45.06258" lon="4.22559">
        <ele>1080.5999755859</ele>
        <time>2019-08-11T11:41:43.000Z</time>
      </trkpt>
      <trkpt lat="45.0626" lon="4.22559">
        <ele>1080.8000488281</ele>
        <time>2019-08-11T11:41:44.000Z</time>
      </trkpt>
      <trkpt lat="45.06261" lon="4.22558">
        <ele>1081.1999511719</ele>
        <time>2019-08-11T11:41:45.000Z</time>
      </trkpt>
      <trkpt lat="45.06261" lon="4.22556">
        <ele>1081.4000244141</ele>
        <time>2019-08-11T11:41:46.000Z</time>
      </trkpt>
      <trkpt lat="45.06262" lon="4.22555">
        <ele>1081.8000488281</ele>
        <time>2019-08-11T11:41:47.000Z</time>
      </trkpt>
      <trkpt lat="45.06274" lon="4.22526">
        <ele>1084.1999511719</ele>
        <time>2019-08-11T11:42:05.000Z</time>
      </trkpt>
      <trkpt lat="45.0628" lon="4.2251">
        <ele>1085.4000244141</ele>
        <time>2019-08-11T11:42:13.000Z</time>
      </trkpt>
      <trkpt lat="45.06282" lon="4.22505">
        <ele>1086</ele>
        <time>2019-08-11T11:42:16.000Z</time>
      </trkpt>
      <trkpt lat="45.06283" lon="4.22493">
        <ele>1086.1999511719</ele>
        <time>2019-08-11T11:42:21.000Z</time>
      </trkpt>
      <trkpt lat="45.06282" lon="4.22465">
        <ele>1085.1999511719</ele>
        <time>2019-08-11T11:42:26.000Z</time>
      </trkpt>
      <trkpt lat="45.06282" lon="4.22453">
        <ele>1084.8000488281</ele>
        <time>2019-08-11T11:42:28.000Z</time>
      </trkpt>
      <trkpt lat="45.06281" lon="4.22447">
        <ele>1084.5999755859</ele>
        <time>2019-08-11T11:42:29.000Z</time>
      </trkpt>
      <trkpt lat="45.0628" lon="4.22442">
        <ele>1084.5999755859</ele>
        <time>2019-08-11T11:42:30.000Z</time>
      </trkpt>
      <trkpt lat="45.06278" lon="4.22437">
        <ele>1084.4000244141</ele>
        <time>2019-08-11T11:42:31.000Z</time>
      </trkpt>
      <trkpt lat="45.06277" lon="4.22433">
        <ele>1084</ele>
        <time>2019-08-11T11:42:32.000Z</time>
      </trkpt>
      <trkpt lat="45.06274" lon="4.22422">
        <ele>1083.1999511719</ele>
        <time>2019-08-11T11:42:34.000Z</time>
      </trkpt>
      <trkpt lat="45.06273" lon="4.22409">
        <ele>1082.1999511719</ele>
        <time>2019-08-11T11:42:36.000Z</time>
      </trkpt>
      <trkpt lat="45.06272" lon="4.22402">
        <ele>1081.5999755859</ele>
        <time>2019-08-11T11:42:37.000Z</time>
      </trkpt>
      <trkpt lat="45.06273" lon="4.22395">
        <ele>1081.1999511719</ele>
        <time>2019-08-11T11:42:38.000Z</time>
      </trkpt>
      <trkpt lat="45.06276" lon="4.22373">
        <ele>1079.5999755859</ele>
        <time>2019-08-11T11:42:41.000Z</time>
      </trkpt>
      <trkpt lat="45.0628" lon="4.22357">
        <ele>1078.1999511719</ele>
        <time>2019-08-11T11:42:43.000Z</time>
      </trkpt>
      <trkpt lat="45.06294" lon="4.22319">
        <ele>1076.1999511719</ele>
        <time>2019-08-11T11:42:48.000Z</time>
      </trkpt>
      <trkpt lat="45.06296" lon="4.22312">
        <ele>1076.4000244141</ele>
        <time>2019-08-11T11:42:49.000Z</time>
      </trkpt>
      <trkpt lat="45.06308" lon="4.22271">
        <ele>1075.8000488281</ele>
        <time>2019-08-11T11:42:55.000Z</time>
      </trkpt>
      <trkpt lat="45.06326" lon="4.22193">
        <ele>1076.1999511719</ele>
        <time>2019-08-11T11:43:10.000Z</time>
      </trkpt>
      <trkpt lat="45.0633" lon="4.22148">
        <ele>1078.5999755859</ele>
        <time>2019-08-11T11:43:26.000Z</time>
      </trkpt>
      <trkpt lat="45.06337" lon="4.22136">
        <ele>1079.5999755859</ele>
        <time>2019-08-11T11:43:33.000Z</time>
      </trkpt>
      <trkpt lat="45.06354" lon="4.22104">
        <ele>1082.8000488281</ele>
        <time>2019-08-11T11:43:55.000Z</time>
      </trkpt>
      <trkpt lat="45.0636" lon="4.22094">
        <ele>1084.1999511719</ele>
        <time>2019-08-11T11:44:03.000Z</time>
      </trkpt>
      <trkpt lat="45.06365" lon="4.22089">
        <ele>1085</ele>
        <time>2019-08-11T11:44:08.000Z</time>
      </trkpt>
      <trkpt lat="45.0637" lon="4.2208">
        <ele>1085.1999511719</ele>
        <time>2019-08-11T11:44:14.000Z</time>
      </trkpt>
      <trkpt lat="45.06389" lon="4.22004">
        <ele>1087.8000488281</ele>
        <time>2019-08-11T11:44:42.000Z</time>
      </trkpt>
      <trkpt lat="45.06412" lon="4.21932">
        <ele>1091</ele>
        <time>2019-08-11T11:45:05.000Z</time>
      </trkpt>
      <trkpt lat="45.06448" lon="4.21883">
        <ele>1094.1999511719</ele>
        <time>2019-08-11T11:45:26.000Z</time>
      </trkpt>
      <trkpt lat="45.06477" lon="4.21812">
        <ele>1096.5999755859</ele>
        <time>2019-08-11T11:45:50.000Z</time>
      </trkpt>
      <trkpt lat="45.06496" lon="4.21733">
        <ele>1098.5999755859</ele>
        <time>2019-08-11T11:46:10.000Z</time>
      </trkpt>
      <trkpt lat="45.06503" lon="4.21689">
        <ele>1099</ele>
        <time>2019-08-11T11:46:19.000Z</time>
      </trkpt>
      <trkpt lat="45.06511" lon="4.21625">
        <ele>1099.8000488281</ele>
        <time>2019-08-11T11:46:31.000Z</time>
      </trkpt>
      <trkpt lat="45.06512" lon="4.21604">
        <ele>1100</ele>
        <time>2019-08-11T11:46:35.000Z</time>
      </trkpt>
      <trkpt lat="45.06513" lon="4.21592">
        <ele>1100</ele>
        <time>2019-08-11T11:46:37.000Z</time>
      </trkpt>
      <trkpt lat="45.06515" lon="4.21575">
        <ele>1100</ele>
        <time>2019-08-11T11:46:40.000Z</time>
      </trkpt>
      <trkpt lat="45.06516" lon="4.21563">
        <ele>1100</ele>
        <time>2019-08-11T11:46:42.000Z</time>
      </trkpt>
      <trkpt lat="45.06516" lon="4.21557">
        <ele>1100</ele>
        <time>2019-08-11T11:46:43.000Z</time>
      </trkpt>
      <trkpt lat="45.06519" lon="4.21535">
        <ele>1099.5999755859</ele>
        <time>2019-08-11T11:46:47.000Z</time>
      </trkpt>
      <trkpt lat="45.0652" lon="4.21515">
        <ele>1099.8000488281</ele>
        <time>2019-08-11T11:46:51.000Z</time>
      </trkpt>
      <trkpt lat="45.06522" lon="4.21486">
        <ele>1100</ele>
        <time>2019-08-11T11:46:57.000Z</time>
      </trkpt>
      <trkpt lat="45.06535" lon="4.2141">
        <ele>1099.5999755859</ele>
        <time>2019-08-11T11:47:12.000Z</time>
      </trkpt>
      <trkpt lat="45.06523" lon="4.21356">
        <ele>1100.4000244141</ele>
        <time>2019-08-11T11:47:24.000Z</time>
      </trkpt>
      <trkpt lat="45.06507" lon="4.21318">
        <ele>1100.4000244141</ele>
        <time>2019-08-11T11:47:34.000Z</time>
      </trkpt>
      <trkpt lat="45.06487" lon="4.21255">
        <ele>1103.4000244141</ele>
        <time>2019-08-11T11:47:51.000Z</time>
      </trkpt>
      <trkpt lat="45.06485" lon="4.21252">
        <ele>1103.4000244141</ele>
        <time>2019-08-11T11:47:52.000Z</time>
      </trkpt>
      <trkpt lat="45.06484" lon="4.21249">
        <ele>1103.5999755859</ele>
        <time>2019-08-11T11:47:53.000Z</time>
      </trkpt>
      <trkpt lat="45.06483" lon="4.21246">
        <ele>1103.8000488281</ele>
        <time>2019-08-11T11:47:54.000Z</time>
      </trkpt>
      <trkpt lat="45.06462" lon="4.21187">
        <ele>1106.4000244141</ele>
        <time>2019-08-11T11:48:15.000Z</time>
      </trkpt>
      <trkpt lat="45.06443" lon="4.21138">
        <ele>1108.5999755859</ele>
        <time>2019-08-11T11:48:35.000Z</time>
      </trkpt>
      <trkpt lat="45.0642" lon="4.21067">
        <ele>1111.8000488281</ele>
        <time>2019-08-11T11:49:08.000Z</time>
      </trkpt>
      <trkpt lat="45.06419" lon="4.21062">
        <ele>1112.1999511719</ele>
        <time>2019-08-11T11:49:10.000Z</time>
      </trkpt>
      <trkpt lat="45.06419" lon="4.2106">
        <ele>1112.4000244141</ele>
        <time>2019-08-11T11:49:11.000Z</time>
      </trkpt>
      <trkpt lat="45.06418" lon="4.21058">
        <ele>1112.4000244141</ele>
        <time>2019-08-11T11:49:12.000Z</time>
      </trkpt>
      <trkpt lat="45.06417" lon="4.21056">
        <ele>1112.5999755859</ele>
        <time>2019-08-11T11:49:13.000Z</time>
      </trkpt>
      <trkpt lat="45.06417" lon="4.21054">
        <ele>1112.8000488281</ele>
        <time>2019-08-11T11:49:14.000Z</time>
      </trkpt>
      <trkpt lat="45.06416" lon="4.21051">
        <ele>1113</ele>
        <time>2019-08-11T11:49:15.000Z</time>
      </trkpt>
      <trkpt lat="45.06415" lon="4.21049">
        <ele>1113.1999511719</ele>
        <time>2019-08-11T11:49:16.000Z</time>
      </trkpt>
      <trkpt lat="45.06406" lon="4.21026">
        <ele>1115.1999511719</ele>
        <time>2019-08-11T11:49:29.000Z</time>
      </trkpt>
      <trkpt lat="45.06406" lon="4.21024">
        <ele>1115.4000244141</ele>
        <time>2019-08-11T11:49:30.000Z</time>
      </trkpt>
      <trkpt lat="45.06406" lon="4.21022">
        <ele>1115.8000488281</ele>
        <time>2019-08-11T11:49:31.000Z</time>
      </trkpt>
      <trkpt lat="45.06406" lon="4.2102">
        <ele>1116.1999511719</ele>
        <time>2019-08-11T11:49:32.000Z</time>
      </trkpt>
      <trkpt lat="45.06405" lon="4.21019">
        <ele>1116.4000244141</ele>
        <time>2019-08-11T11:49:33.000Z</time>
      </trkpt>
      <trkpt lat="45.06405" lon="4.21017">
        <ele>1116.4000244141</ele>
        <time>2019-08-11T11:49:34.000Z</time>
      </trkpt>
      <trkpt lat="45.06403" lon="4.21009">
        <ele>1117.1999511719</ele>
        <time>2019-08-11T11:49:39.000Z</time>
      </trkpt>
      <trkpt lat="45.06402" lon="4.21008">
        <ele>1117.1999511719</ele>
        <time>2019-08-11T11:49:40.000Z</time>
      </trkpt>
      <trkpt lat="45.06401" lon="4.21006">
        <ele>1117.4000244141</ele>
        <time>2019-08-11T11:49:41.000Z</time>
      </trkpt>
      <trkpt lat="45.06401" lon="4.21004">
        <ele>1117.4000244141</ele>
        <time>2019-08-11T11:49:42.000Z</time>
      </trkpt>
      <trkpt lat="45.064" lon="4.21003">
        <ele>1117.4000244141</ele>
        <time>2019-08-11T11:49:43.000Z</time>
      </trkpt>
      <trkpt lat="45.064" lon="4.21001">
        <ele>1117.5999755859</ele>
        <time>2019-08-11T11:49:44.000Z</time>
      </trkpt>
      <trkpt lat="45.064" lon="4.20999">
        <ele>1117.5999755859</ele>
        <time>2019-08-11T11:49:45.000Z</time>
      </trkpt>
      <trkpt lat="45.06399" lon="4.20997">
        <ele>1117.8000488281</ele>
        <time>2019-08-11T11:49:46.000Z</time>
      </trkpt>
      <trkpt lat="45.06399" lon="4.20996">
        <ele>1117.8000488281</ele>
        <time>2019-08-11T11:49:47.000Z</time>
      </trkpt>
      <trkpt lat="45.06398" lon="4.20994">
        <ele>1118</ele>
        <time>2019-08-11T11:49:48.000Z</time>
      </trkpt>
      <trkpt lat="45.06392" lon="4.20982">
        <ele>1118.8000488281</ele>
        <time>2019-08-11T11:49:56.000Z</time>
      </trkpt>
      <trkpt lat="45.06373" lon="4.2095">
        <ele>1121.8000488281</ele>
        <time>2019-08-11T11:50:21.000Z</time>
      </trkpt>
      <trkpt lat="45.06364" lon="4.20938">
        <ele>1123.8000488281</ele>
        <time>2019-08-11T11:50:33.000Z</time>
      </trkpt>
      <trkpt lat="45.06358" lon="4.20928">
        <ele>1124.8000488281</ele>
        <time>2019-08-11T11:50:41.000Z</time>
      </trkpt>
      <trkpt lat="45.06349" lon="4.20911">
        <ele>1126.4000244141</ele>
        <time>2019-08-11T11:50:53.000Z</time>
      </trkpt>
      <trkpt lat="45.06345" lon="4.20901">
        <ele>1127.5999755859</ele>
        <time>2019-08-11T11:51:00.000Z</time>
      </trkpt>
      <trkpt lat="45.06349" lon="4.20893">
        <ele>1128.5999755859</ele>
        <time>2019-08-11T11:51:05.000Z</time>
      </trkpt>
      <trkpt lat="45.0635" lon="4.20891">
        <ele>1128.5999755859</ele>
        <time>2019-08-11T11:51:06.000Z</time>
      </trkpt>
      <trkpt lat="45.06357" lon="4.20879">
        <ele>1129</ele>
        <time>2019-08-11T11:51:12.000Z</time>
      </trkpt>
      <trkpt lat="45.0636" lon="4.20872">
        <ele>1129.1999511719</ele>
        <time>2019-08-11T11:51:15.000Z</time>
      </trkpt>
      <trkpt lat="45.0637" lon="4.20858">
        <ele>1129.5999755859</ele>
        <time>2019-08-11T11:51:21.000Z</time>
      </trkpt>
      <trkpt lat="45.06375" lon="4.2085">
        <ele>1129.5999755859</ele>
        <time>2019-08-11T11:51:24.000Z</time>
      </trkpt>
      <trkpt lat="45.06398" lon="4.20825">
        <ele>1130.1999511719</ele>
        <time>2019-08-11T11:51:34.000Z</time>
      </trkpt>
      <trkpt lat="45.06407" lon="4.20815">
        <ele>1130.4000244141</ele>
        <time>2019-08-11T11:51:38.000Z</time>
      </trkpt>
      <trkpt lat="45.06416" lon="4.20804">
        <ele>1130.5999755859</ele>
        <time>2019-08-11T11:51:43.000Z</time>
      </trkpt>
      <trkpt lat="45.06422" lon="4.20799">
        <ele>1130.8000488281</ele>
        <time>2019-08-11T11:51:46.000Z</time>
      </trkpt>
      <trkpt lat="45.06434" lon="4.20791">
        <ele>1130.5999755859</ele>
        <time>2019-08-11T11:51:50.000Z</time>
      </trkpt>
      <trkpt lat="45.06448" lon="4.20779">
        <ele>1130.4000244141</ele>
        <time>2019-08-11T11:51:55.000Z</time>
      </trkpt>
      <trkpt lat="45.06456" lon="4.2077">
        <ele>1130.4000244141</ele>
        <time>2019-08-11T11:51:58.000Z</time>
      </trkpt>
      <trkpt lat="45.06502" lon="4.20748">
        <ele>1129.1999511719</ele>
        <time>2019-08-11T11:52:10.000Z</time>
      </trkpt>
      <trkpt lat="45.06507" lon="4.20747">
        <ele>1128.8000488281</ele>
        <time>2019-08-11T11:52:11.000Z</time>
      </trkpt>
      <trkpt lat="45.06512" lon="4.20745">
        <ele>1128</ele>
        <time>2019-08-11T11:52:12.000Z</time>
      </trkpt>
      <trkpt lat="45.06522" lon="4.20741">
        <ele>1126.8000488281</ele>
        <time>2019-08-11T11:52:14.000Z</time>
      </trkpt>
      <trkpt lat="45.06538" lon="4.20737">
        <ele>1126.5999755859</ele>
        <time>2019-08-11T11:52:17.000Z</time>
      </trkpt>
      <trkpt lat="45.06569" lon="4.20728">
        <ele>1122.5999755859</ele>
        <time>2019-08-11T11:52:22.000Z</time>
      </trkpt>
      <trkpt lat="45.06593" lon="4.20723">
        <ele>1119.4000244141</ele>
        <time>2019-08-11T11:52:25.000Z</time>
      </trkpt>
      <trkpt lat="45.06602" lon="4.20725">
        <ele>1118.8000488281</ele>
        <time>2019-08-11T11:52:26.000Z</time>
      </trkpt>
      <trkpt lat="45.06629" lon="4.20727">
        <ele>1115.5999755859</ele>
        <time>2019-08-11T11:52:29.000Z</time>
      </trkpt>
      <trkpt lat="45.06635" lon="4.20722">
        <ele>1115.4000244141</ele>
        <time>2019-08-11T11:52:30.000Z</time>
      </trkpt>
      <trkpt lat="45.0664" lon="4.20717">
        <ele>1115.5999755859</ele>
        <time>2019-08-11T11:52:31.000Z</time>
      </trkpt>
      <trkpt lat="45.06643" lon="4.20711">
        <ele>1116</ele>
        <time>2019-08-11T11:52:32.000Z</time>
      </trkpt>
      <trkpt lat="45.06645" lon="4.20706">
        <ele>1116.5999755859</ele>
        <time>2019-08-11T11:52:33.000Z</time>
      </trkpt>
      <trkpt lat="45.06645" lon="4.20702">
        <ele>1117.1999511719</ele>
        <time>2019-08-11T11:52:34.000Z</time>
      </trkpt>
      <trkpt lat="45.06646" lon="4.20697">
        <ele>1117.5999755859</ele>
        <time>2019-08-11T11:52:35.000Z</time>
      </trkpt>
      <trkpt lat="45.06648" lon="4.20694">
        <ele>1118.1999511719</ele>
        <time>2019-08-11T11:52:36.000Z</time>
      </trkpt>
      <trkpt lat="45.0665" lon="4.20691">
        <ele>1118.5999755859</ele>
        <time>2019-08-11T11:52:37.000Z</time>
      </trkpt>
      <trkpt lat="45.06651" lon="4.20688">
        <ele>1119</ele>
        <time>2019-08-11T11:52:38.000Z</time>
      </trkpt>
      <trkpt lat="45.06658" lon="4.20685">
        <ele>1119.4000244141</ele>
        <time>2019-08-11T11:52:39.000Z</time>
      </trkpt>
      <trkpt lat="45.06662" lon="4.20684">
        <ele>1119.8000488281</ele>
        <time>2019-08-11T11:52:40.000Z</time>
      </trkpt>
      <trkpt lat="45.06663" lon="4.20682">
        <ele>1120</ele>
        <time>2019-08-11T11:52:41.000Z</time>
      </trkpt>
      <trkpt lat="45.06665" lon="4.2068">
        <ele>1120.1999511719</ele>
        <time>2019-08-11T11:52:42.000Z</time>
      </trkpt>
      <trkpt lat="45.06676" lon="4.20665">
        <ele>1121.1999511719</ele>
        <time>2019-08-11T11:52:51.000Z</time>
      </trkpt>
      <trkpt lat="45.06694" lon="4.20641">
        <ele>1124</ele>
        <time>2019-08-11T11:53:11.000Z</time>
      </trkpt>
      <trkpt lat="45.06695" lon="4.20637">
        <ele>1124.4000244141</ele>
        <time>2019-08-11T11:53:14.000Z</time>
      </trkpt>
      <trkpt lat="45.06696" lon="4.20633">
        <ele>1124.8000488281</ele>
        <time>2019-08-11T11:53:17.000Z</time>
      </trkpt>
      <trkpt lat="45.06693" lon="4.20632">
        <ele>1125.1999511719</ele>
        <time>2019-08-11T11:53:20.000Z</time>
      </trkpt>
      <trkpt lat="45.06691" lon="4.20631">
        <ele>1125.1999511719</ele>
        <time>2019-08-11T11:53:21.000Z</time>
      </trkpt>
      <trkpt lat="45.0669" lon="4.20628">
        <ele>1126</ele>
        <time>2019-08-11T11:53:24.000Z</time>
      </trkpt>
      <trkpt lat="45.06689" lon="4.20626">
        <ele>1126.1999511719</ele>
        <time>2019-08-11T11:53:25.000Z</time>
      </trkpt>
      <trkpt lat="45.06689" lon="4.20625">
        <ele>1126.4000244141</ele>
        <time>2019-08-11T11:53:26.000Z</time>
      </trkpt>
      <trkpt lat="45.06686" lon="4.20615">
        <ele>1127.5999755859</ele>
        <time>2019-08-11T11:53:34.000Z</time>
      </trkpt>
      <trkpt lat="45.06688" lon="4.20593">
        <ele>1130.1999511719</ele>
        <time>2019-08-11T11:53:51.000Z</time>
      </trkpt>
      <trkpt lat="45.0671" lon="4.20559">
        <ele>1132.5999755859</ele>
        <time>2019-08-11T11:54:20.000Z</time>
      </trkpt>
      <trkpt lat="45.06749" lon="4.20507">
        <ele>1132.1999511719</ele>
        <time>2019-08-11T11:54:39.000Z</time>
      </trkpt>
      <trkpt lat="45.06754" lon="4.20492">
        <ele>1133.1999511719</ele>
        <time>2019-08-11T11:54:47.000Z</time>
      </trkpt>
      <trkpt lat="45.06753" lon="4.20492">
        <ele>1133.4000244141</ele>
        <time>2019-08-11T11:54:48.000Z</time>
      </trkpt>
      <trkpt lat="45.06753" lon="4.20493">
        <ele>1133.4000244141</ele>
        <time>2019-08-11T11:54:49.000Z</time>
      </trkpt>
      <trkpt lat="45.06751" lon="4.20493">
        <ele>1133.8000488281</ele>
        <time>2019-08-11T11:54:50.000Z</time>
      </trkpt>
      <trkpt lat="45.0675" lon="4.20493">
        <ele>1133.8000488281</ele>
        <time>2019-08-11T11:54:51.000Z</time>
      </trkpt>
      <trkpt lat="45.0675" lon="4.20494">
        <ele>1134</ele>
        <time>2019-08-11T11:54:52.000Z</time>
      </trkpt>
      <trkpt lat="45.06728" lon="4.20498">
        <ele>1136.8000488281</ele>
        <time>2019-08-11T11:55:13.000Z</time>
      </trkpt>
      <trkpt lat="45.06725" lon="4.20498">
        <ele>1137.5999755859</ele>
        <time>2019-08-11T11:55:17.000Z</time>
      </trkpt>
      <trkpt lat="45.06724" lon="4.20498">
        <ele>1137.8000488281</ele>
        <time>2019-08-11T11:55:18.000Z</time>
      </trkpt>
      <trkpt lat="45.067" lon="4.20502">
        <ele>1140.8000488281</ele>
        <time>2019-08-11T11:55:41.000Z</time>
      </trkpt>
      <trkpt lat="45.0669" lon="4.20499">
        <ele>1142</ele>
        <time>2019-08-11T11:55:51.000Z</time>
      </trkpt>
      <trkpt lat="45.06668" lon="4.20495">
        <ele>1145.1999511719</ele>
        <time>2019-08-11T11:56:09.000Z</time>
      </trkpt>
      <trkpt lat="45.06642" lon="4.205">
        <ele>1147.5999755859</ele>
        <time>2019-08-11T11:56:29.000Z</time>
      </trkpt>
      <trkpt lat="45.06623" lon="4.20499">
        <ele>1149.5999755859</ele>
        <time>2019-08-11T11:56:47.000Z</time>
      </trkpt>
      <trkpt lat="45.06587" lon="4.20501">
        <ele>1152.5999755859</ele>
        <time>2019-08-11T11:57:18.000Z</time>
      </trkpt>
      <trkpt lat="45.06568" lon="4.20501">
        <ele>1154.8000488281</ele>
        <time>2019-08-11T11:57:33.000Z</time>
      </trkpt>
      <trkpt lat="45.06537" lon="4.20495">
        <ele>1157.8000488281</ele>
        <time>2019-08-11T11:57:55.000Z</time>
      </trkpt>
      <trkpt lat="45.06516" lon="4.20494">
        <ele>1158.8000488281</ele>
        <time>2019-08-11T11:58:06.000Z</time>
      </trkpt>
      <trkpt lat="45.06514" lon="4.20493">
        <ele>1159</ele>
        <time>2019-08-11T11:58:07.000Z</time>
      </trkpt>
      <trkpt lat="45.06512" lon="4.20493">
        <ele>1159.1999511719</ele>
        <time>2019-08-11T11:58:08.000Z</time>
      </trkpt>
      <trkpt lat="45.06499" lon="4.20493">
        <ele>1159.8000488281</ele>
        <time>2019-08-11T11:58:15.000Z</time>
      </trkpt>
      <trkpt lat="45.06497" lon="4.20493">
        <ele>1160</ele>
        <time>2019-08-11T11:58:16.000Z</time>
      </trkpt>
      <trkpt lat="45.06495" lon="4.20493">
        <ele>1160.1999511719</ele>
        <time>2019-08-11T11:58:17.000Z</time>
      </trkpt>
      <trkpt lat="45.0648" lon="4.20491">
        <ele>1161</ele>
        <time>2019-08-11T11:58:27.000Z</time>
      </trkpt>
      <trkpt lat="45.06477" lon="4.20491">
        <ele>1161.1999511719</ele>
        <time>2019-08-11T11:58:28.000Z</time>
      </trkpt>
      <trkpt lat="45.06442" lon="4.20474">
        <ele>1163.5999755859</ele>
        <time>2019-08-11T11:58:55.000Z</time>
      </trkpt>
      <trkpt lat="45.06443" lon="4.20473">
        <ele>1163.5999755859</ele>
        <time>2019-08-11T11:58:56.000Z</time>
      </trkpt>
      <trkpt lat="45.06453" lon="4.20468">
        <ele>1163</ele>
        <time>2019-08-11T11:59:03.000Z</time>
      </trkpt>
      <trkpt lat="45.06459" lon="4.20465">
        <ele>1162.8000488281</ele>
        <time>2019-08-11T11:59:08.000Z</time>
      </trkpt>
      <trkpt lat="45.06469" lon="4.20461">
        <ele>1162.1999511719</ele>
        <time>2019-08-11T11:59:13.000Z</time>
      </trkpt>
      <trkpt lat="45.06498" lon="4.20448">
        <ele>1161.8000488281</ele>
        <time>2019-08-11T11:59:24.000Z</time>
      </trkpt>
      <trkpt lat="45.0651" lon="4.20442">
        <ele>1162.1999511719</ele>
        <time>2019-08-11T11:59:29.000Z</time>
      </trkpt>
      <trkpt lat="45.06543" lon="4.20428">
        <ele>1161.1999511719</ele>
        <time>2019-08-11T11:59:42.000Z</time>
      </trkpt>
      <trkpt lat="45.06548" lon="4.20426">
        <ele>1161</ele>
        <time>2019-08-11T11:59:44.000Z</time>
      </trkpt>
      <trkpt lat="45.06611" lon="4.20385">
        <ele>1159.8000488281</ele>
        <time>2019-08-11T12:00:06.000Z</time>
      </trkpt>
      <trkpt lat="45.06646" lon="4.20344">
        <ele>1160.8000488281</ele>
        <time>2019-08-11T12:00:19.000Z</time>
      </trkpt>
      <trkpt lat="45.06693" lon="4.20305">
        <ele>1160.1999511719</ele>
        <time>2019-08-11T12:00:38.000Z</time>
      </trkpt>
      <trkpt lat="45.0674" lon="4.20253">
        <ele>1158.4000244141</ele>
        <time>2019-08-11T12:00:57.000Z</time>
      </trkpt>
      <trkpt lat="45.06746" lon="4.20245">
        <ele>1158.4000244141</ele>
        <time>2019-08-11T12:00:59.000Z</time>
      </trkpt>
      <trkpt lat="45.06764" lon="4.20218">
        <ele>1158.5999755859</ele>
        <time>2019-08-11T12:01:06.000Z</time>
      </trkpt>
      <trkpt lat="45.0677" lon="4.20206">
        <ele>1159</ele>
        <time>2019-08-11T12:01:10.000Z</time>
      </trkpt>
      <trkpt lat="45.06805" lon="4.20141">
        <ele>1158.8000488281</ele>
        <time>2019-08-11T12:01:28.000Z</time>
      </trkpt>
      <trkpt lat="45.06831" lon="4.20064">
        <ele>1159</ele>
        <time>2019-08-11T12:01:45.000Z</time>
      </trkpt>
      <trkpt lat="45.0684" lon="4.20045">
        <ele>1159.1999511719</ele>
        <time>2019-08-11T12:01:50.000Z</time>
      </trkpt>
      <trkpt lat="45.06847" lon="4.20023">
        <ele>1159.4000244141</ele>
        <time>2019-08-11T12:01:55.000Z</time>
      </trkpt>
      <trkpt lat="45.06858" lon="4.19972">
        <ele>1159.8000488281</ele>
        <time>2019-08-11T12:02:05.000Z</time>
      </trkpt>
      <trkpt lat="45.06862" lon="4.19931">
        <ele>1160.4000244141</ele>
        <time>2019-08-11T12:02:13.000Z</time>
      </trkpt>
      <trkpt lat="45.06868" lon="4.19903">
        <ele>1161.5999755859</ele>
        <time>2019-08-11T12:02:21.000Z</time>
      </trkpt>
      <trkpt lat="45.06868" lon="4.19884">
        <ele>1162.4000244141</ele>
        <time>2019-08-11T12:02:27.000Z</time>
      </trkpt>
      <trkpt lat="45.06898" lon="4.19813">
        <ele>1162.5999755859</ele>
        <time>2019-08-11T12:02:48.000Z</time>
      </trkpt>
      <trkpt lat="45.06924" lon="4.19767">
        <ele>1162.5999755859</ele>
        <time>2019-08-11T12:02:57.000Z</time>
      </trkpt>
      <trkpt lat="45.06931" lon="4.1975">
        <ele>1162.1999511719</ele>
        <time>2019-08-11T12:03:00.000Z</time>
      </trkpt>
      <trkpt lat="45.06949" lon="4.19686">
        <ele>1162.5999755859</ele>
        <time>2019-08-11T12:03:09.000Z</time>
      </trkpt>
      <trkpt lat="45.06956" lon="4.19652">
        <ele>1162.5999755859</ele>
        <time>2019-08-11T12:03:14.000Z</time>
      </trkpt>
      <trkpt lat="45.06959" lon="4.19638">
        <ele>1163</ele>
        <time>2019-08-11T12:03:16.000Z</time>
      </trkpt>
      <trkpt lat="45.0697" lon="4.19615">
        <ele>1162.4000244141</ele>
        <time>2019-08-11T12:03:21.000Z</time>
      </trkpt>
      <trkpt lat="45.06973" lon="4.19615">
        <ele>1162</ele>
        <time>2019-08-11T12:03:22.000Z</time>
      </trkpt>
      <trkpt lat="45.06976" lon="4.19617">
        <ele>1161.5999755859</ele>
        <time>2019-08-11T12:03:23.000Z</time>
      </trkpt>
      <trkpt lat="45.0698" lon="4.1962">
        <ele>1161</ele>
        <time>2019-08-11T12:03:24.000Z</time>
      </trkpt>
      <trkpt lat="45.06984" lon="4.19624">
        <ele>1160.5999755859</ele>
        <time>2019-08-11T12:03:25.000Z</time>
      </trkpt>
      <trkpt lat="45.07001" lon="4.19646">
        <ele>1157.1999511719</ele>
        <time>2019-08-11T12:03:29.000Z</time>
      </trkpt>
      <trkpt lat="45.07006" lon="4.19653">
        <ele>1156.1999511719</ele>
        <time>2019-08-11T12:03:30.000Z</time>
      </trkpt>
      <trkpt lat="45.0701" lon="4.19662">
        <ele>1155.4000244141</ele>
        <time>2019-08-11T12:03:31.000Z</time>
      </trkpt>
      <trkpt lat="45.07013" lon="4.19671">
        <ele>1153.8000488281</ele>
        <time>2019-08-11T12:03:32.000Z</time>
      </trkpt>
      <trkpt lat="45.07015" lon="4.19679">
        <ele>1152.8000488281</ele>
        <time>2019-08-11T12:03:33.000Z</time>
      </trkpt>
      <trkpt lat="45.07016" lon="4.19686">
        <ele>1152.5999755859</ele>
        <time>2019-08-11T12:03:34.000Z</time>
      </trkpt>
      <trkpt lat="45.07021" lon="4.19694">
        <ele>1152.4000244141</ele>
        <time>2019-08-11T12:03:38.000Z</time>
      </trkpt>
      <trkpt lat="45.0704" lon="4.19702">
        <ele>1150.1999511719</ele>
        <time>2019-08-11T12:03:46.000Z</time>
      </trkpt>
      <trkpt lat="45.07041" lon="4.19702">
        <ele>1149.8000488281</ele>
        <time>2019-08-11T12:03:48.000Z</time>
      </trkpt>
      <trkpt lat="45.07042" lon="4.19702">
        <ele>1149.4000244141</ele>
        <time>2019-08-11T12:03:53.000Z</time>
      </trkpt>
      <trkpt lat="45.07032" lon="4.19689">
        <ele>1149.8000488281</ele>
        <time>2019-08-11T12:04:49.000Z</time>
      </trkpt>
      <trkpt lat="45.07033" lon="4.19691">
        <ele>1149.5999755859</ele>
        <time>2019-08-11T12:04:50.000Z</time>
      </trkpt>
      <trkpt lat="45.07034" lon="4.19692">
        <ele>1149.5999755859</ele>
        <time>2019-08-11T12:04:51.000Z</time>
      </trkpt>
      <trkpt lat="45.07035" lon="4.19694">
        <ele>1149.5999755859</ele>
        <time>2019-08-11T12:04:52.000Z</time>
      </trkpt>
      <trkpt lat="45.07035" lon="4.19697">
        <ele>1149.4000244141</ele>
        <time>2019-08-11T12:04:54.000Z</time>
      </trkpt>
      <trkpt lat="45.07035" lon="4.19698">
        <ele>1149.1999511719</ele>
        <time>2019-08-11T12:04:55.000Z</time>
      </trkpt>
      <trkpt lat="45.07036" lon="4.197">
        <ele>1149.1999511719</ele>
        <time>2019-08-11T12:05:00.000Z</time>
      </trkpt>
      <trkpt lat="45.07037" lon="4.19699">
        <ele>1149.1999511719</ele>
        <time>2019-08-11T12:05:02.000Z</time>
      </trkpt>
      <trkpt lat="45.07049" lon="4.19697">
        <ele>1147</ele>
        <time>2019-08-11T12:07:57.000Z</time>
      </trkpt>
      <trkpt lat="45.07051" lon="4.19695">
        <ele>1146.5999755859</ele>
        <time>2019-08-11T12:07:58.000Z</time>
      </trkpt>
      <trkpt lat="45.07055" lon="4.19693">
        <ele>1146.1999511719</ele>
        <time>2019-08-11T12:07:59.000Z</time>
      </trkpt>
      <trkpt lat="45.07076" lon="4.19685">
        <ele>1142.8000488281</ele>
        <time>2019-08-11T12:08:04.000Z</time>
      </trkpt>
      <trkpt lat="45.07089" lon="4.19677">
        <ele>1141.1999511719</ele>
        <time>2019-08-11T12:08:06.000Z</time>
      </trkpt>
      <trkpt lat="45.07094" lon="4.19673">
        <ele>1140</ele>
        <time>2019-08-11T12:08:07.000Z</time>
      </trkpt>
      <trkpt lat="45.07129" lon="4.19648">
        <ele>1136.1999511719</ele>
        <time>2019-08-11T12:08:12.000Z</time>
      </trkpt>
      <trkpt lat="45.0715" lon="4.1963">
        <ele>1134.1999511719</ele>
        <time>2019-08-11T12:08:15.000Z</time>
      </trkpt>
      <trkpt lat="45.07156" lon="4.19622">
        <ele>1134</ele>
        <time>2019-08-11T12:08:16.000Z</time>
      </trkpt>
      <trkpt lat="45.07194" lon="4.19579">
        <ele>1132</ele>
        <time>2019-08-11T12:08:22.000Z</time>
      </trkpt>
      <trkpt lat="45.07226" lon="4.19551">
        <ele>1128.5999755859</ele>
        <time>2019-08-11T12:08:27.000Z</time>
      </trkpt>
      <trkpt lat="45.07237" lon="4.19539">
        <ele>1128</ele>
        <time>2019-08-11T12:08:29.000Z</time>
      </trkpt>
      <trkpt lat="45.07285" lon="4.19495">
        <ele>1125.5999755859</ele>
        <time>2019-08-11T12:08:37.000Z</time>
      </trkpt>
      <trkpt lat="45.07302" lon="4.19492">
        <ele>1124.5999755859</ele>
        <time>2019-08-11T12:08:39.000Z</time>
      </trkpt>
      <trkpt lat="45.0731" lon="4.19493">
        <ele>1123.8000488281</ele>
        <time>2019-08-11T12:08:40.000Z</time>
      </trkpt>
      <trkpt lat="45.07342" lon="4.19496">
        <ele>1120.1999511719</ele>
        <time>2019-08-11T12:08:44.000Z</time>
      </trkpt>
      <trkpt lat="45.07349" lon="4.19498">
        <ele>1119.5999755859</ele>
        <time>2019-08-11T12:08:45.000Z</time>
      </trkpt>
      <trkpt lat="45.07358" lon="4.19502">
        <ele>1119</ele>
        <time>2019-08-11T12:08:46.000Z</time>
      </trkpt>
      <trkpt lat="45.07383" lon="4.19513">
        <ele>1115.8000488281</ele>
        <time>2019-08-11T12:08:49.000Z</time>
      </trkpt>
      <trkpt lat="45.07404" lon="4.19526">
        <ele>1114.1999511719</ele>
        <time>2019-08-11T12:08:52.000Z</time>
      </trkpt>
      <trkpt lat="45.07438" lon="4.19546">
        <ele>1111.4000244141</ele>
        <time>2019-08-11T12:08:58.000Z</time>
      </trkpt>
      <trkpt lat="45.07445" lon="4.19547">
        <ele>1111.4000244141</ele>
        <time>2019-08-11T12:08:59.000Z</time>
      </trkpt>
      <trkpt lat="45.0745" lon="4.19547">
        <ele>1111.5999755859</ele>
        <time>2019-08-11T12:09:00.000Z</time>
      </trkpt>
      <trkpt lat="45.07455" lon="4.19546">
        <ele>1111.8000488281</ele>
        <time>2019-08-11T12:09:01.000Z</time>
      </trkpt>
      <trkpt lat="45.07518" lon="4.19529">
        <ele>1111.8000488281</ele>
        <time>2019-08-11T12:09:15.000Z</time>
      </trkpt>
      <trkpt lat="45.07524" lon="4.1951">
        <ele>1114</ele>
        <time>2019-08-11T12:09:23.000Z</time>
      </trkpt>
      <trkpt lat="45.0752" lon="4.1949">
        <ele>1115.4000244141</ele>
        <time>2019-08-11T12:09:31.000Z</time>
      </trkpt>
      <trkpt lat="45.07512" lon="4.19477">
        <ele>1116</ele>
        <time>2019-08-11T12:09:39.000Z</time>
      </trkpt>
      <trkpt lat="45.07508" lon="4.19474">
        <ele>1116.1999511719</ele>
        <time>2019-08-11T12:09:44.000Z</time>
      </trkpt>
      <trkpt lat="45.07501" lon="4.19469">
        <ele>1116.5999755859</ele>
        <time>2019-08-11T12:09:48.000Z</time>
      </trkpt>
      <trkpt lat="45.07498" lon="4.19465">
        <ele>1117.1999511719</ele>
        <time>2019-08-11T12:09:52.000Z</time>
      </trkpt>
      <trkpt lat="45.07484" lon="4.19445">
        <ele>1118.8000488281</ele>
        <time>2019-08-11T12:10:06.000Z</time>
      </trkpt>
      <trkpt lat="45.07481" lon="4.1944">
        <ele>1119.4000244141</ele>
        <time>2019-08-11T12:10:09.000Z</time>
      </trkpt>
      <trkpt lat="45.0748" lon="4.19438">
        <ele>1119.4000244141</ele>
        <time>2019-08-11T12:10:10.000Z</time>
      </trkpt>
      <trkpt lat="45.07478" lon="4.19436">
        <ele>1119.5999755859</ele>
        <time>2019-08-11T12:10:11.000Z</time>
      </trkpt>
      <trkpt lat="45.07476" lon="4.19435">
        <ele>1120</ele>
        <time>2019-08-11T12:10:12.000Z</time>
      </trkpt>
      <trkpt lat="45.07476" lon="4.19433">
        <ele>1120</ele>
        <time>2019-08-11T12:10:13.000Z</time>
      </trkpt>
      <trkpt lat="45.07474" lon="4.1943">
        <ele>1120.1999511719</ele>
        <time>2019-08-11T12:10:14.000Z</time>
      </trkpt>
      <trkpt lat="45.07473" lon="4.19426">
        <ele>1120.5999755859</ele>
        <time>2019-08-11T12:10:16.000Z</time>
      </trkpt>
      <trkpt lat="45.07472" lon="4.19423">
        <ele>1120.8000488281</ele>
        <time>2019-08-11T12:10:17.000Z</time>
      </trkpt>
      <trkpt lat="45.07469" lon="4.1942">
        <ele>1120.8000488281</ele>
        <time>2019-08-11T12:10:18.000Z</time>
      </trkpt>
      <trkpt lat="45.07467" lon="4.19417">
        <ele>1121.1999511719</ele>
        <time>2019-08-11T12:10:19.000Z</time>
      </trkpt>
      <trkpt lat="45.07466" lon="4.19415">
        <ele>1121.1999511719</ele>
        <time>2019-08-11T12:10:20.000Z</time>
      </trkpt>
      <trkpt lat="45.07465" lon="4.19413">
        <ele>1121.5999755859</ele>
        <time>2019-08-11T12:10:21.000Z</time>
      </trkpt>
      <trkpt lat="45.07464" lon="4.19407">
        <ele>1122</ele>
        <time>2019-08-11T12:10:24.000Z</time>
      </trkpt>
      <trkpt lat="45.07462" lon="4.19401">
        <ele>1122.4000244141</ele>
        <time>2019-08-11T12:10:27.000Z</time>
      </trkpt>
      <trkpt lat="45.07468" lon="4.19376">
        <ele>1124</ele>
        <time>2019-08-11T12:10:39.000Z</time>
      </trkpt>
      <trkpt lat="45.07469" lon="4.19374">
        <ele>1124.1999511719</ele>
        <time>2019-08-11T12:10:40.000Z</time>
      </trkpt>
      <trkpt lat="45.07477" lon="4.19344">
        <ele>1125</ele>
        <time>2019-08-11T12:10:56.000Z</time>
      </trkpt>
      <trkpt lat="45.07476" lon="4.19338">
        <ele>1125.4000244141</ele>
        <time>2019-08-11T12:10:59.000Z</time>
      </trkpt>
      <trkpt lat="45.07483" lon="4.19323">
        <ele>1126</ele>
        <time>2019-08-11T12:11:07.000Z</time>
      </trkpt>
      <trkpt lat="45.07515" lon="4.19272">
        <ele>1128</ele>
        <time>2019-08-11T12:11:28.000Z</time>
      </trkpt>
      <trkpt lat="45.07519" lon="4.1926">
        <ele>1129</ele>
        <time>2019-08-11T12:11:35.000Z</time>
      </trkpt>
      <trkpt lat="45.07526" lon="4.19246">
        <ele>1130</ele>
        <time>2019-08-11T12:11:41.000Z</time>
      </trkpt>
      <trkpt lat="45.07554" lon="4.19196">
        <ele>1132.4000244141</ele>
        <time>2019-08-11T12:12:05.000Z</time>
      </trkpt>
      <trkpt lat="45.07563" lon="4.19183">
        <ele>1132.4000244141</ele>
        <time>2019-08-11T12:12:11.000Z</time>
      </trkpt>
      <trkpt lat="45.07558" lon="4.1914">
        <ele>1134.5999755859</ele>
        <time>2019-08-11T12:12:29.000Z</time>
      </trkpt>
      <trkpt lat="45.07558" lon="4.19138">
        <ele>1134.8000488281</ele>
        <time>2019-08-11T12:12:30.000Z</time>
      </trkpt>
      <trkpt lat="45.07556" lon="4.19135">
        <ele>1135</ele>
        <time>2019-08-11T12:12:31.000Z</time>
      </trkpt>
      <trkpt lat="45.07554" lon="4.19133">
        <ele>1135</ele>
        <time>2019-08-11T12:12:32.000Z</time>
      </trkpt>
      <trkpt lat="45.07553" lon="4.1913">
        <ele>1135</ele>
        <time>2019-08-11T12:12:33.000Z</time>
      </trkpt>
      <trkpt lat="45.0755" lon="4.19125">
        <ele>1135.1999511719</ele>
        <time>2019-08-11T12:12:34.000Z</time>
      </trkpt>
      <trkpt lat="45.07549" lon="4.19122">
        <ele>1135.1999511719</ele>
        <time>2019-08-11T12:12:35.000Z</time>
      </trkpt>
      <trkpt lat="45.07522" lon="4.19066">
        <ele>1138.1999511719</ele>
        <time>2019-08-11T12:12:56.000Z</time>
      </trkpt>
      <trkpt lat="45.07522" lon="4.19063">
        <ele>1138.4000244141</ele>
        <time>2019-08-11T12:12:57.000Z</time>
      </trkpt>
      <trkpt lat="45.07522" lon="4.1906">
        <ele>1138.8000488281</ele>
        <time>2019-08-11T12:12:58.000Z</time>
      </trkpt>
      <trkpt lat="45.07522" lon="4.19058">
        <ele>1138.8000488281</ele>
        <time>2019-08-11T12:12:59.000Z</time>
      </trkpt>
      <trkpt lat="45.07522" lon="4.19056">
        <ele>1139</ele>
        <time>2019-08-11T12:13:00.000Z</time>
      </trkpt>
      <trkpt lat="45.07522" lon="4.19054">
        <ele>1139</ele>
        <time>2019-08-11T12:13:01.000Z</time>
      </trkpt>
      <trkpt lat="45.07523" lon="4.19051">
        <ele>1139</ele>
        <time>2019-08-11T12:13:02.000Z</time>
      </trkpt>
      <trkpt lat="45.07524" lon="4.19049">
        <ele>1139.1999511719</ele>
        <time>2019-08-11T12:13:03.000Z</time>
      </trkpt>
      <trkpt lat="45.07537" lon="4.19023">
        <ele>1139</ele>
        <time>2019-08-11T12:13:14.000Z</time>
      </trkpt>
      <trkpt lat="45.07568" lon="4.18994">
        <ele>1138.8000488281</ele>
        <time>2019-08-11T12:13:27.000Z</time>
      </trkpt>
      <trkpt lat="45.07573" lon="4.18983">
        <ele>1138.8000488281</ele>
        <time>2019-08-11T12:13:30.000Z</time>
      </trkpt>
      <trkpt lat="45.07575" lon="4.18979">
        <ele>1138.5999755859</ele>
        <time>2019-08-11T12:13:31.000Z</time>
      </trkpt>
      <trkpt lat="45.07576" lon="4.18975">
        <ele>1138.5999755859</ele>
        <time>2019-08-11T12:13:32.000Z</time>
      </trkpt>
      <trkpt lat="45.07576" lon="4.18968">
        <ele>1138.4000244141</ele>
        <time>2019-08-11T12:13:34.000Z</time>
      </trkpt>
      <trkpt lat="45.07576" lon="4.18965">
        <ele>1138.5999755859</ele>
        <time>2019-08-11T12:13:35.000Z</time>
      </trkpt>
      <trkpt lat="45.07575" lon="4.18962">
        <ele>1138.5999755859</ele>
        <time>2019-08-11T12:13:36.000Z</time>
      </trkpt>
      <trkpt lat="45.07574" lon="4.18956">
        <ele>1138.5999755859</ele>
        <time>2019-08-11T12:13:39.000Z</time>
      </trkpt>
      <trkpt lat="45.07574" lon="4.1895">
        <ele>1138.4000244141</ele>
        <time>2019-08-11T12:13:43.000Z</time>
      </trkpt>
      <trkpt lat="45.07575" lon="4.18948">
        <ele>1138.4000244141</ele>
        <time>2019-08-11T12:13:44.000Z</time>
      </trkpt>
      <trkpt lat="45.07577" lon="4.18945">
        <ele>1138.4000244141</ele>
        <time>2019-08-11T12:13:52.000Z</time>
      </trkpt>
      <trkpt lat="45.07576" lon="4.18936">
        <ele>1138.5999755859</ele>
        <time>2019-08-11T12:13:59.000Z</time>
      </trkpt>
      <trkpt lat="45.07576" lon="4.18932">
        <ele>1138.5999755859</ele>
        <time>2019-08-11T12:14:00.000Z</time>
      </trkpt>
      <trkpt lat="45.07576" lon="4.18928">
        <ele>1138.4000244141</ele>
        <time>2019-08-11T12:14:01.000Z</time>
      </trkpt>
      <trkpt lat="45.07577" lon="4.18923">
        <ele>1138.4000244141</ele>
        <time>2019-08-11T12:14:02.000Z</time>
      </trkpt>
      <trkpt lat="45.07577" lon="4.18918">
        <ele>1138.4000244141</ele>
        <time>2019-08-11T12:14:03.000Z</time>
      </trkpt>
      <trkpt lat="45.07577" lon="4.18913">
        <ele>1138.5999755859</ele>
        <time>2019-08-11T12:14:04.000Z</time>
      </trkpt>
      <trkpt lat="45.0758" lon="4.18824">
        <ele>1140.4000244141</ele>
        <time>2019-08-11T12:14:22.000Z</time>
      </trkpt>
      <trkpt lat="45.07584" lon="4.18768">
        <ele>1140</ele>
        <time>2019-08-11T12:14:33.000Z</time>
      </trkpt>
      <trkpt lat="45.07582" lon="4.18755">
        <ele>1139.8000488281</ele>
        <time>2019-08-11T12:14:35.000Z</time>
      </trkpt>
      <trkpt lat="45.07581" lon="4.18748">
        <ele>1139.8000488281</ele>
        <time>2019-08-11T12:14:36.000Z</time>
      </trkpt>
      <trkpt lat="45.07581" lon="4.18741">
        <ele>1139.8000488281</ele>
        <time>2019-08-11T12:14:37.000Z</time>
      </trkpt>
      <trkpt lat="45.0758" lon="4.18735">
        <ele>1139.8000488281</ele>
        <time>2019-08-11T12:14:38.000Z</time>
      </trkpt>
      <trkpt lat="45.07579" lon="4.18728">
        <ele>1139.8000488281</ele>
        <time>2019-08-11T12:14:39.000Z</time>
      </trkpt>
      <trkpt lat="45.07578" lon="4.18722">
        <ele>1139.5999755859</ele>
        <time>2019-08-11T12:14:40.000Z</time>
      </trkpt>
      <trkpt lat="45.07577" lon="4.18716">
        <ele>1139.5999755859</ele>
        <time>2019-08-11T12:14:41.000Z</time>
      </trkpt>
      <trkpt lat="45.07577" lon="4.1871">
        <ele>1139.5999755859</ele>
        <time>2019-08-11T12:14:42.000Z</time>
      </trkpt>
      <trkpt lat="45.07576" lon="4.18704">
        <ele>1139.5999755859</ele>
        <time>2019-08-11T12:14:43.000Z</time>
      </trkpt>
      <trkpt lat="45.07574" lon="4.18698">
        <ele>1139.1999511719</ele>
        <time>2019-08-11T12:14:44.000Z</time>
      </trkpt>
      <trkpt lat="45.07573" lon="4.18692">
        <ele>1139.1999511719</ele>
        <time>2019-08-11T12:14:45.000Z</time>
      </trkpt>
      <trkpt lat="45.07556" lon="4.18659">
        <ele>1139.4000244141</ele>
        <time>2019-08-11T12:14:52.000Z</time>
      </trkpt>
      <trkpt lat="45.07554" lon="4.18653">
        <ele>1139.4000244141</ele>
        <time>2019-08-11T12:14:53.000Z</time>
      </trkpt>
      <trkpt lat="45.07536" lon="4.1862">
        <ele>1139.8000488281</ele>
        <time>2019-08-11T12:14:59.000Z</time>
      </trkpt>
      <trkpt lat="45.07531" lon="4.18615">
        <ele>1139.8000488281</ele>
        <time>2019-08-11T12:15:00.000Z</time>
      </trkpt>
      <trkpt lat="45.07526" lon="4.18609">
        <ele>1139.8000488281</ele>
        <time>2019-08-11T12:15:01.000Z</time>
      </trkpt>
      <trkpt lat="45.07497" lon="4.18546">
        <ele>1140.5999755859</ele>
        <time>2019-08-11T12:15:11.000Z</time>
      </trkpt>
      <trkpt lat="45.07496" lon="4.18541">
        <ele>1140.5999755859</ele>
        <time>2019-08-11T12:15:12.000Z</time>
      </trkpt>
      <trkpt lat="45.07494" lon="4.18534">
        <ele>1140.5999755859</ele>
        <time>2019-08-11T12:15:13.000Z</time>
      </trkpt>
      <trkpt lat="45.07483" lon="4.18479">
        <ele>1140.8000488281</ele>
        <time>2019-08-11T12:15:25.000Z</time>
      </trkpt>
      <trkpt lat="45.07483" lon="4.18475">
        <ele>1140.5999755859</ele>
        <time>2019-08-11T12:15:26.000Z</time>
      </trkpt>
      <trkpt lat="45.07461" lon="4.18422">
        <ele>1141.5999755859</ele>
        <time>2019-08-11T12:15:38.000Z</time>
      </trkpt>
      <trkpt lat="45.0745" lon="4.18389">
        <ele>1141.8000488281</ele>
        <time>2019-08-11T12:15:45.000Z</time>
      </trkpt>
      <trkpt lat="45.07431" lon="4.18353">
        <ele>1143.4000244141</ele>
        <time>2019-08-11T12:15:53.000Z</time>
      </trkpt>
      <trkpt lat="45.07417" lon="4.18315">
        <ele>1145</ele>
        <time>2019-08-11T12:16:03.000Z</time>
      </trkpt>
      <trkpt lat="45.07401" lon="4.18262">
        <ele>1146</ele>
        <time>2019-08-11T12:16:16.000Z</time>
      </trkpt>
      <trkpt lat="45.07364" lon="4.18184">
        <ele>1146.4000244141</ele>
        <time>2019-08-11T12:16:39.000Z</time>
      </trkpt>
      <trkpt lat="45.0736" lon="4.1818">
        <ele>1146.4000244141</ele>
        <time>2019-08-11T12:16:40.000Z</time>
      </trkpt>
      <trkpt lat="45.07356" lon="4.18175">
        <ele>1146.4000244141</ele>
        <time>2019-08-11T12:16:41.000Z</time>
      </trkpt>
      <trkpt lat="45.07353" lon="4.1817">
        <ele>1146.4000244141</ele>
        <time>2019-08-11T12:16:42.000Z</time>
      </trkpt>
      <trkpt lat="45.07351" lon="4.18167">
        <ele>1146.1999511719</ele>
        <time>2019-08-11T12:16:43.000Z</time>
      </trkpt>
      <trkpt lat="45.07349" lon="4.18163">
        <ele>1146</ele>
        <time>2019-08-11T12:16:44.000Z</time>
      </trkpt>
      <trkpt lat="45.07347" lon="4.18159">
        <ele>1145.8000488281</ele>
        <time>2019-08-11T12:16:45.000Z</time>
      </trkpt>
      <trkpt lat="45.07345" lon="4.18155">
        <ele>1146</ele>
        <time>2019-08-11T12:16:46.000Z</time>
      </trkpt>
      <trkpt lat="45.07343" lon="4.1815">
        <ele>1145.8000488281</ele>
        <time>2019-08-11T12:16:47.000Z</time>
      </trkpt>
      <trkpt lat="45.07341" lon="4.18146">
        <ele>1145.8000488281</ele>
        <time>2019-08-11T12:16:48.000Z</time>
      </trkpt>
      <trkpt lat="45.07338" lon="4.18142">
        <ele>1146</ele>
        <time>2019-08-11T12:16:49.000Z</time>
      </trkpt>
      <trkpt lat="45.07335" lon="4.18138">
        <ele>1146</ele>
        <time>2019-08-11T12:16:50.000Z</time>
      </trkpt>
      <trkpt lat="45.07333" lon="4.18134">
        <ele>1146</ele>
        <time>2019-08-11T12:16:51.000Z</time>
      </trkpt>
      <trkpt lat="45.07294" lon="4.18068">
        <ele>1144.8000488281</ele>
        <time>2019-08-11T12:17:07.000Z</time>
      </trkpt>
      <trkpt lat="45.07263" lon="4.18008">
        <ele>1141.4000244141</ele>
        <time>2019-08-11T12:17:21.000Z</time>
      </trkpt>
      <trkpt lat="45.07254" lon="4.1799">
        <ele>1140.8000488281</ele>
        <time>2019-08-11T12:17:24.000Z</time>
      </trkpt>
      <trkpt lat="45.0725" lon="4.17985">
        <ele>1140.1999511719</ele>
        <time>2019-08-11T12:17:25.000Z</time>
      </trkpt>
      <trkpt lat="45.07246" lon="4.17982">
        <ele>1139.8000488281</ele>
        <time>2019-08-11T12:17:26.000Z</time>
      </trkpt>
      <trkpt lat="45.07241" lon="4.17978">
        <ele>1139.5999755859</ele>
        <time>2019-08-11T12:17:27.000Z</time>
      </trkpt>
      <trkpt lat="45.07232" lon="4.1797">
        <ele>1139.4000244141</ele>
        <time>2019-08-11T12:17:29.000Z</time>
      </trkpt>
      <trkpt lat="45.07217" lon="4.17956">
        <ele>1137.4000244141</ele>
        <time>2019-08-11T12:17:32.000Z</time>
      </trkpt>
      <trkpt lat="45.07201" lon="4.17936">
        <ele>1135.4000244141</ele>
        <time>2019-08-11T12:17:36.000Z</time>
      </trkpt>
      <trkpt lat="45.07197" lon="4.17931">
        <ele>1135.4000244141</ele>
        <time>2019-08-11T12:17:37.000Z</time>
      </trkpt>
      <trkpt lat="45.07188" lon="4.17923">
        <ele>1135.1999511719</ele>
        <time>2019-08-11T12:17:39.000Z</time>
      </trkpt>
      <trkpt lat="45.07174" lon="4.17905">
        <ele>1133.1999511719</ele>
        <time>2019-08-11T12:17:43.000Z</time>
      </trkpt>
      <trkpt lat="45.07144" lon="4.17868">
        <ele>1131.4000244141</ele>
        <time>2019-08-11T12:17:54.000Z</time>
      </trkpt>
      <trkpt lat="45.07135" lon="4.1786">
        <ele>1130.5999755859</ele>
        <time>2019-08-11T12:17:56.000Z</time>
      </trkpt>
      <trkpt lat="45.07132" lon="4.17855">
        <ele>1129.5999755859</ele>
        <time>2019-08-11T12:17:57.000Z</time>
      </trkpt>
      <trkpt lat="45.07117" lon="4.17841">
        <ele>1128.5999755859</ele>
        <time>2019-08-11T12:18:00.000Z</time>
      </trkpt>
      <trkpt lat="45.07112" lon="4.17835">
        <ele>1128.1999511719</ele>
        <time>2019-08-11T12:18:01.000Z</time>
      </trkpt>
      <trkpt lat="45.0709" lon="4.1781">
        <ele>1125.1999511719</ele>
        <time>2019-08-11T12:18:05.000Z</time>
      </trkpt>
      <trkpt lat="45.07032" lon="4.17756">
        <ele>1123.4000244141</ele>
        <time>2019-08-11T12:18:14.000Z</time>
      </trkpt>
      <trkpt lat="45.07026" lon="4.17751">
        <ele>1123</ele>
        <time>2019-08-11T12:18:15.000Z</time>
      </trkpt>
      <trkpt lat="45.0701" lon="4.17729">
        <ele>1121.4000244141</ele>
        <time>2019-08-11T12:18:18.000Z</time>
      </trkpt>
      <trkpt lat="45.06998" lon="4.17709">
        <ele>1122.8000488281</ele>
        <time>2019-08-11T12:18:21.000Z</time>
      </trkpt>
      <trkpt lat="45.06997" lon="4.17704">
        <ele>1123.4000244141</ele>
        <time>2019-08-11T12:18:22.000Z</time>
      </trkpt>
      <trkpt lat="45.06997" lon="4.17698">
        <ele>1123.4000244141</ele>
        <time>2019-08-11T12:18:23.000Z</time>
      </trkpt>
      <trkpt lat="45.07" lon="4.17691">
        <ele>1123.4000244141</ele>
        <time>2019-08-11T12:18:24.000Z</time>
      </trkpt>
      <trkpt lat="45.07001" lon="4.17685">
        <ele>1122.8000488281</ele>
        <time>2019-08-11T12:18:25.000Z</time>
      </trkpt>
      <trkpt lat="45.07003" lon="4.17677">
        <ele>1121.8000488281</ele>
        <time>2019-08-11T12:18:26.000Z</time>
      </trkpt>
      <trkpt lat="45.07011" lon="4.17652">
        <ele>1118.5999755859</ele>
        <time>2019-08-11T12:18:29.000Z</time>
      </trkpt>
      <trkpt lat="45.07021" lon="4.17618">
        <ele>1114.5999755859</ele>
        <time>2019-08-11T12:18:33.000Z</time>
      </trkpt>
      <trkpt lat="45.07024" lon="4.17607">
        <ele>1114</ele>
        <time>2019-08-11T12:18:35.000Z</time>
      </trkpt>
      <trkpt lat="45.07027" lon="4.17595">
        <ele>1113.1999511719</ele>
        <time>2019-08-11T12:18:39.000Z</time>
      </trkpt>
      <trkpt lat="45.07033" lon="4.17585">
        <ele>1111.8000488281</ele>
        <time>2019-08-11T12:18:43.000Z</time>
      </trkpt>
      <trkpt lat="45.07043" lon="4.17565">
        <ele>1108.5999755859</ele>
        <time>2019-08-11T12:18:50.000Z</time>
      </trkpt>
      <trkpt lat="45.07052" lon="4.17547">
        <ele>1105.1999511719</ele>
        <time>2019-08-11T12:18:55.000Z</time>
      </trkpt>
      <trkpt lat="45.07057" lon="4.17537">
        <ele>1103.4000244141</ele>
        <time>2019-08-11T12:18:57.000Z</time>
      </trkpt>
      <trkpt lat="45.07061" lon="4.17531">
        <ele>1102.5999755859</ele>
        <time>2019-08-11T12:18:58.000Z</time>
      </trkpt>
      <trkpt lat="45.07066" lon="4.17525">
        <ele>1101.8000488281</ele>
        <time>2019-08-11T12:18:59.000Z</time>
      </trkpt>
      <trkpt lat="45.07081" lon="4.17504">
        <ele>1097.1999511719</ele>
        <time>2019-08-11T12:19:02.000Z</time>
      </trkpt>
      <trkpt lat="45.07098" lon="4.1748">
        <ele>1094</ele>
        <time>2019-08-11T12:19:05.000Z</time>
      </trkpt>
      <trkpt lat="45.07108" lon="4.17469">
        <ele>1093</ele>
        <time>2019-08-11T12:19:07.000Z</time>
      </trkpt>
      <trkpt lat="45.07136" lon="4.17445">
        <ele>1089.8000488281</ele>
        <time>2019-08-11T12:19:15.000Z</time>
      </trkpt>
      <trkpt lat="45.07155" lon="4.1743">
        <ele>1086</ele>
        <time>2019-08-11T12:19:21.000Z</time>
      </trkpt>
      <trkpt lat="45.07168" lon="4.17418">
        <ele>1083.1999511719</ele>
        <time>2019-08-11T12:19:26.000Z</time>
      </trkpt>
      <trkpt lat="45.07177" lon="4.17404">
        <ele>1081.8000488281</ele>
        <time>2019-08-11T12:19:30.000Z</time>
      </trkpt>
      <trkpt lat="45.0719" lon="4.17371">
        <ele>1078.5999755859</ele>
        <time>2019-08-11T12:19:39.000Z</time>
      </trkpt>
      <trkpt lat="45.07199" lon="4.1735">
        <ele>1075.5999755859</ele>
        <time>2019-08-11T12:19:46.000Z</time>
      </trkpt>
      <trkpt lat="45.07201" lon="4.17346">
        <ele>1075.4000244141</ele>
        <time>2019-08-11T12:19:47.000Z</time>
      </trkpt>
      <trkpt lat="45.07217" lon="4.17316">
        <ele>1072</ele>
        <time>2019-08-11T12:19:56.000Z</time>
      </trkpt>
      <trkpt lat="45.07233" lon="4.17302">
        <ele>1068.8000488281</ele>
        <time>2019-08-11T12:20:00.000Z</time>
      </trkpt>
      <trkpt lat="45.07255" lon="4.17277">
        <ele>1067</ele>
        <time>2019-08-11T12:20:05.000Z</time>
      </trkpt>
      <trkpt lat="45.07273" lon="4.17261">
        <ele>1064.5999755859</ele>
        <time>2019-08-11T12:20:09.000Z</time>
      </trkpt>
      <trkpt lat="45.07277" lon="4.17255">
        <ele>1064</ele>
        <time>2019-08-11T12:20:10.000Z</time>
      </trkpt>
      <trkpt lat="45.07281" lon="4.1725">
        <ele>1063.5999755859</ele>
        <time>2019-08-11T12:20:11.000Z</time>
      </trkpt>
      <trkpt lat="45.07285" lon="4.17243">
        <ele>1063.1999511719</ele>
        <time>2019-08-11T12:20:12.000Z</time>
      </trkpt>
      <trkpt lat="45.07289" lon="4.17235">
        <ele>1062.1999511719</ele>
        <time>2019-08-11T12:20:13.000Z</time>
      </trkpt>
      <trkpt lat="45.07291" lon="4.17227">
        <ele>1061.5999755859</ele>
        <time>2019-08-11T12:20:14.000Z</time>
      </trkpt>
      <trkpt lat="45.07292" lon="4.17219">
        <ele>1061</ele>
        <time>2019-08-11T12:20:15.000Z</time>
      </trkpt>
      <trkpt lat="45.07291" lon="4.17211">
        <ele>1060.5999755859</ele>
        <time>2019-08-11T12:20:16.000Z</time>
      </trkpt>
      <trkpt lat="45.07289" lon="4.17203">
        <ele>1060.1999511719</ele>
        <time>2019-08-11T12:20:17.000Z</time>
      </trkpt>
      <trkpt lat="45.07288" lon="4.17196">
        <ele>1060.1999511719</ele>
        <time>2019-08-11T12:20:18.000Z</time>
      </trkpt>
      <trkpt lat="45.07264" lon="4.17117">
        <ele>1059</ele>
        <time>2019-08-11T12:20:28.000Z</time>
      </trkpt>
      <trkpt lat="45.07253" lon="4.17083">
        <ele>1058.8000488281</ele>
        <time>2019-08-11T12:20:32.000Z</time>
      </trkpt>
      <trkpt lat="45.07238" lon="4.17042">
        <ele>1056.5999755859</ele>
        <time>2019-08-11T12:20:37.000Z</time>
      </trkpt>
      <trkpt lat="45.07235" lon="4.17034">
        <ele>1057.1999511719</ele>
        <time>2019-08-11T12:20:38.000Z</time>
      </trkpt>
      <trkpt lat="45.07229" lon="4.17017">
        <ele>1058</ele>
        <time>2019-08-11T12:20:40.000Z</time>
      </trkpt>
      <trkpt lat="45.07217" lon="4.16966">
        <ele>1056.4000244141</ele>
        <time>2019-08-11T12:20:49.000Z</time>
      </trkpt>
      <trkpt lat="45.07219" lon="4.16962">
        <ele>1056</ele>
        <time>2019-08-11T12:20:50.000Z</time>
      </trkpt>
      <trkpt lat="45.07221" lon="4.16959">
        <ele>1055.8000488281</ele>
        <time>2019-08-11T12:20:51.000Z</time>
      </trkpt>
      <trkpt lat="45.07224" lon="4.16955">
        <ele>1055</ele>
        <time>2019-08-11T12:20:52.000Z</time>
      </trkpt>
      <trkpt lat="45.07228" lon="4.16952">
        <ele>1054.5999755859</ele>
        <time>2019-08-11T12:20:53.000Z</time>
      </trkpt>
      <trkpt lat="45.07233" lon="4.16949">
        <ele>1054.1999511719</ele>
        <time>2019-08-11T12:20:54.000Z</time>
      </trkpt>
      <trkpt lat="45.07237" lon="4.16945">
        <ele>1053.8000488281</ele>
        <time>2019-08-11T12:20:55.000Z</time>
      </trkpt>
      <trkpt lat="45.07246" lon="4.16935">
        <ele>1051.8000488281</ele>
        <time>2019-08-11T12:20:57.000Z</time>
      </trkpt>
      <trkpt lat="45.0726" lon="4.1692">
        <ele>1049.1999511719</ele>
        <time>2019-08-11T12:21:00.000Z</time>
      </trkpt>
      <trkpt lat="45.07265" lon="4.16916">
        <ele>1049.1999511719</ele>
        <time>2019-08-11T12:21:01.000Z</time>
      </trkpt>
      <trkpt lat="45.07268" lon="4.16913">
        <ele>1049.1999511719</ele>
        <time>2019-08-11T12:21:02.000Z</time>
      </trkpt>
      <trkpt lat="45.07288" lon="4.16896">
        <ele>1047.5999755859</ele>
        <time>2019-08-11T12:21:08.000Z</time>
      </trkpt>
      <trkpt lat="45.07319" lon="4.16848">
        <ele>1044.5999755859</ele>
        <time>2019-08-11T12:21:16.000Z</time>
      </trkpt>
      <trkpt lat="45.07333" lon="4.16808">
        <ele>1041.1999511719</ele>
        <time>2019-08-11T12:21:26.000Z</time>
      </trkpt>
      <trkpt lat="45.07337" lon="4.16808">
        <ele>1040.5999755859</ele>
        <time>2019-08-11T12:21:27.000Z</time>
      </trkpt>
      <trkpt lat="45.0734" lon="4.16807">
        <ele>1040.1999511719</ele>
        <time>2019-08-11T12:21:28.000Z</time>
      </trkpt>
      <trkpt lat="45.07344" lon="4.16807">
        <ele>1039.8000488281</ele>
        <time>2019-08-11T12:21:29.000Z</time>
      </trkpt>
      <trkpt lat="45.07377" lon="4.16818">
        <ele>1036.5999755859</ele>
        <time>2019-08-11T12:21:35.000Z</time>
      </trkpt>
      <trkpt lat="45.07431" lon="4.16843">
        <ele>1033.8000488281</ele>
        <time>2019-08-11T12:21:44.000Z</time>
      </trkpt>
      <trkpt lat="45.07448" lon="4.16854">
        <ele>1032.4000244141</ele>
        <time>2019-08-11T12:21:47.000Z</time>
      </trkpt>
      <trkpt lat="45.07465" lon="4.16863">
        <ele>1035.4000244141</ele>
        <time>2019-08-11T12:21:50.000Z</time>
      </trkpt>
      <trkpt lat="45.0747" lon="4.16866">
        <ele>1035.5999755859</ele>
        <time>2019-08-11T12:21:51.000Z</time>
      </trkpt>
      <trkpt lat="45.07474" lon="4.16869">
        <ele>1035.5999755859</ele>
        <time>2019-08-11T12:21:52.000Z</time>
      </trkpt>
      <trkpt lat="45.07479" lon="4.16872">
        <ele>1035.4000244141</ele>
        <time>2019-08-11T12:21:53.000Z</time>
      </trkpt>
      <trkpt lat="45.07484" lon="4.16874">
        <ele>1034.4000244141</ele>
        <time>2019-08-11T12:21:54.000Z</time>
      </trkpt>
      <trkpt lat="45.07502" lon="4.1688">
        <ele>1033.1999511719</ele>
        <time>2019-08-11T12:21:58.000Z</time>
      </trkpt>
      <trkpt lat="45.07508" lon="4.1688">
        <ele>1032.5999755859</ele>
        <time>2019-08-11T12:21:59.000Z</time>
      </trkpt>
      <trkpt lat="45.07514" lon="4.1688">
        <ele>1032.4000244141</ele>
        <time>2019-08-11T12:22:00.000Z</time>
      </trkpt>
      <trkpt lat="45.0752" lon="4.16879">
        <ele>1032.5999755859</ele>
        <time>2019-08-11T12:22:01.000Z</time>
      </trkpt>
      <trkpt lat="45.07525" lon="4.16878">
        <ele>1032.5999755859</ele>
        <time>2019-08-11T12:22:02.000Z</time>
      </trkpt>
      <trkpt lat="45.07531" lon="4.16876">
        <ele>1032.4000244141</ele>
        <time>2019-08-11T12:22:03.000Z</time>
      </trkpt>
      <trkpt lat="45.07578" lon="4.16858">
        <ele>1028.4000244141</ele>
        <time>2019-08-11T12:22:10.000Z</time>
      </trkpt>
      <trkpt lat="45.07594" lon="4.16851">
        <ele>1025</ele>
        <time>2019-08-11T12:22:12.000Z</time>
      </trkpt>
      <trkpt lat="45.07618" lon="4.16836">
        <ele>1021.200012207</ele>
        <time>2019-08-11T12:22:15.000Z</time>
      </trkpt>
      <trkpt lat="45.07627" lon="4.16832">
        <ele>1020.4000244141</ele>
        <time>2019-08-11T12:22:16.000Z</time>
      </trkpt>
      <trkpt lat="45.07635" lon="4.1683">
        <ele>1019.5999755859</ele>
        <time>2019-08-11T12:22:17.000Z</time>
      </trkpt>
      <trkpt lat="45.07643" lon="4.1683">
        <ele>1018.799987793</ele>
        <time>2019-08-11T12:22:18.000Z</time>
      </trkpt>
      <trkpt lat="45.07651" lon="4.16831">
        <ele>1018</ele>
        <time>2019-08-11T12:22:19.000Z</time>
      </trkpt>
      <trkpt lat="45.0766" lon="4.16834">
        <ele>1017.200012207</ele>
        <time>2019-08-11T12:22:20.000Z</time>
      </trkpt>
      <trkpt lat="45.07668" lon="4.16836">
        <ele>1016.799987793</ele>
        <time>2019-08-11T12:22:21.000Z</time>
      </trkpt>
      <trkpt lat="45.07675" lon="4.16836">
        <ele>1017</ele>
        <time>2019-08-11T12:22:22.000Z</time>
      </trkpt>
      <trkpt lat="45.07681" lon="4.16835">
        <ele>1017.4000244141</ele>
        <time>2019-08-11T12:22:23.000Z</time>
      </trkpt>
      <trkpt lat="45.07688" lon="4.16835">
        <ele>1017.4000244141</ele>
        <time>2019-08-11T12:22:24.000Z</time>
      </trkpt>
      <trkpt lat="45.07694" lon="4.16836">
        <ele>1017.200012207</ele>
        <time>2019-08-11T12:22:25.000Z</time>
      </trkpt>
      <trkpt lat="45.07701" lon="4.16837">
        <ele>1017</ele>
        <time>2019-08-11T12:22:26.000Z</time>
      </trkpt>
      <trkpt lat="45.07707" lon="4.1684">
        <ele>1017</ele>
        <time>2019-08-11T12:22:27.000Z</time>
      </trkpt>
      <trkpt lat="45.07726" lon="4.16847">
        <ele>1017</ele>
        <time>2019-08-11T12:22:30.000Z</time>
      </trkpt>
      <trkpt lat="45.07743" lon="4.16854">
        <ele>1017.200012207</ele>
        <time>2019-08-11T12:22:33.000Z</time>
      </trkpt>
      <trkpt lat="45.07774" lon="4.16871">
        <ele>1017.5999755859</ele>
        <time>2019-08-11T12:22:39.000Z</time>
      </trkpt>
      <trkpt lat="45.07798" lon="4.1689">
        <ele>1019.5999755859</ele>
        <time>2019-08-11T12:22:47.000Z</time>
      </trkpt>
      <trkpt lat="45.07813" lon="4.16897">
        <ele>1020.799987793</ele>
        <time>2019-08-11T12:22:52.000Z</time>
      </trkpt>
      <trkpt lat="45.07819" lon="4.16899">
        <ele>1021.200012207</ele>
        <time>2019-08-11T12:22:54.000Z</time>
      </trkpt>
      <trkpt lat="45.07832" lon="4.169">
        <ele>1022.5999755859</ele>
        <time>2019-08-11T12:22:58.000Z</time>
      </trkpt>
      <trkpt lat="45.07842" lon="4.169">
        <ele>1023.4000244141</ele>
        <time>2019-08-11T12:23:01.000Z</time>
      </trkpt>
      <trkpt lat="45.07854" lon="4.169">
        <ele>1024</ele>
        <time>2019-08-11T12:23:05.000Z</time>
      </trkpt>
      <trkpt lat="45.07869" lon="4.16898">
        <ele>1024.5999755859</ele>
        <time>2019-08-11T12:23:10.000Z</time>
      </trkpt>
      <trkpt lat="45.07888" lon="4.16892">
        <ele>1025</ele>
        <time>2019-08-11T12:23:17.000Z</time>
      </trkpt>
      <trkpt lat="45.07903" lon="4.16885">
        <ele>1025.5999755859</ele>
        <time>2019-08-11T12:23:23.000Z</time>
      </trkpt>
      <trkpt lat="45.07916" lon="4.16876">
        <ele>1026.1999511719</ele>
        <time>2019-08-11T12:23:29.000Z</time>
      </trkpt>
      <trkpt lat="45.07926" lon="4.1687">
        <ele>1027.5999755859</ele>
        <time>2019-08-11T12:23:33.000Z</time>
      </trkpt>
      <trkpt lat="45.07942" lon="4.16861">
        <ele>1029.5999755859</ele>
        <time>2019-08-11T12:23:40.000Z</time>
      </trkpt>
      <trkpt lat="45.07962" lon="4.16853">
        <ele>1032</ele>
        <time>2019-08-11T12:23:49.000Z</time>
      </trkpt>
      <trkpt lat="45.07999" lon="4.16842">
        <ele>1035.1999511719</ele>
        <time>2019-08-11T12:24:07.000Z</time>
      </trkpt>
      <trkpt lat="45.08055" lon="4.16823">
        <ele>1036.5999755859</ele>
        <time>2019-08-11T12:24:30.000Z</time>
      </trkpt>
      <trkpt lat="45.08081" lon="4.1681">
        <ele>1035.5999755859</ele>
        <time>2019-08-11T12:24:38.000Z</time>
      </trkpt>
      <trkpt lat="45.08099" lon="4.16806">
        <ele>1033.8000488281</ele>
        <time>2019-08-11T12:24:44.000Z</time>
      </trkpt>
      <trkpt lat="45.08113" lon="4.16806">
        <ele>1033.1999511719</ele>
        <time>2019-08-11T12:24:51.000Z</time>
      </trkpt>
      <trkpt lat="45.08114" lon="4.16806">
        <ele>1033.1999511719</ele>
        <time>2019-08-11T12:24:57.000Z</time>
      </trkpt>
      <trkpt lat="45.08119" lon="4.16806">
        <ele>1033.8000488281</ele>
        <time>2019-08-11T12:25:01.000Z</time>
      </trkpt>
      <trkpt lat="45.08121" lon="4.16806">
        <ele>1033.8000488281</ele>
        <time>2019-08-11T12:25:02.000Z</time>
      </trkpt>
      <trkpt lat="45.08124" lon="4.16806">
        <ele>1033.8000488281</ele>
        <time>2019-08-11T12:25:03.000Z</time>
      </trkpt>
      <trkpt lat="45.08145" lon="4.16811">
        <ele>1031.8000488281</ele>
        <time>2019-08-11T12:25:10.000Z</time>
      </trkpt>
      <trkpt lat="45.08153" lon="4.16814">
        <ele>1031.4000244141</ele>
        <time>2019-08-11T12:25:12.000Z</time>
      </trkpt>
      <trkpt lat="45.08165" lon="4.16821">
        <ele>1030.5999755859</ele>
        <time>2019-08-11T12:25:15.000Z</time>
      </trkpt>
      <trkpt lat="45.08177" lon="4.16828">
        <ele>1030.4000244141</ele>
        <time>2019-08-11T12:25:18.000Z</time>
      </trkpt>
      <trkpt lat="45.08228" lon="4.16853">
        <ele>1029</ele>
        <time>2019-08-11T12:25:29.000Z</time>
      </trkpt>
      <trkpt lat="45.08238" lon="4.16859">
        <ele>1028.8000488281</ele>
        <time>2019-08-11T12:25:31.000Z</time>
      </trkpt>
      <trkpt lat="45.08273" lon="4.16879">
        <ele>1025.8000488281</ele>
        <time>2019-08-11T12:25:38.000Z</time>
      </trkpt>
      <trkpt lat="45.08287" lon="4.16883">
        <ele>1024.4000244141</ele>
        <time>2019-08-11T12:25:41.000Z</time>
      </trkpt>
      <trkpt lat="45.08296" lon="4.16887">
        <ele>1024</ele>
        <time>2019-08-11T12:25:44.000Z</time>
      </trkpt>
      <trkpt lat="45.08325" lon="4.16909">
        <ele>1021.200012207</ele>
        <time>2019-08-11T12:25:52.000Z</time>
      </trkpt>
      <trkpt lat="45.08343" lon="4.16921">
        <ele>1019.5999755859</ele>
        <time>2019-08-11T12:25:56.000Z</time>
      </trkpt>
      <trkpt lat="45.08373" lon="4.1695">
        <ele>1015.5999755859</ele>
        <time>2019-08-11T12:26:02.000Z</time>
      </trkpt>
      <trkpt lat="45.08399" lon="4.16976">
        <ele>1012.5999755859</ele>
        <time>2019-08-11T12:26:07.000Z</time>
      </trkpt>
      <trkpt lat="45.08423" lon="4.16998">
        <ele>1010.4000244141</ele>
        <time>2019-08-11T12:26:12.000Z</time>
      </trkpt>
      <trkpt lat="45.08441" lon="4.17016">
        <ele>1008.4000244141</ele>
        <time>2019-08-11T12:26:16.000Z</time>
      </trkpt>
      <trkpt lat="45.08475" lon="4.17035">
        <ele>1005.4000244141</ele>
        <time>2019-08-11T12:26:28.000Z</time>
      </trkpt>
      <trkpt lat="45.08479" lon="4.17036">
        <ele>1004.5999755859</ele>
        <time>2019-08-11T12:26:31.000Z</time>
      </trkpt>
      <trkpt lat="45.08505" lon="4.1705">
        <ele>1001</ele>
        <time>2019-08-11T12:26:40.000Z</time>
      </trkpt>
      <trkpt lat="45.08514" lon="4.17056">
        <ele>1000</ele>
        <time>2019-08-11T12:26:42.000Z</time>
      </trkpt>
      <trkpt lat="45.08528" lon="4.17062">
        <ele>999.20001220703</ele>
        <time>2019-08-11T12:26:48.000Z</time>
      </trkpt>
      <trkpt lat="45.08538" lon="4.17067">
        <ele>999.20001220703</ele>
        <time>2019-08-11T12:26:52.000Z</time>
      </trkpt>
      <trkpt lat="45.08554" lon="4.17071">
        <ele>999.40002441406</ele>
        <time>2019-08-11T12:26:58.000Z</time>
      </trkpt>
      <trkpt lat="45.08563" lon="4.17072">
        <ele>999.79998779297</ele>
        <time>2019-08-11T12:27:02.000Z</time>
      </trkpt>
      <trkpt lat="45.08573" lon="4.17074">
        <ele>1000.5999755859</ele>
        <time>2019-08-11T12:27:06.000Z</time>
      </trkpt>
      <trkpt lat="45.0858" lon="4.17075">
        <ele>1001.200012207</ele>
        <time>2019-08-11T12:27:09.000Z</time>
      </trkpt>
      <trkpt lat="45.08587" lon="4.17077">
        <ele>1002</ele>
        <time>2019-08-11T12:27:12.000Z</time>
      </trkpt>
      <trkpt lat="45.08596" lon="4.17077">
        <ele>1003.4000244141</ele>
        <time>2019-08-11T12:27:16.000Z</time>
      </trkpt>
      <trkpt lat="45.08599" lon="4.17079">
        <ele>1003.799987793</ele>
        <time>2019-08-11T12:27:18.000Z</time>
      </trkpt>
      <trkpt lat="45.08604" lon="4.17083">
        <ele>1004.200012207</ele>
        <time>2019-08-11T12:27:21.000Z</time>
      </trkpt>
      <trkpt lat="45.08612" lon="4.17089">
        <ele>1005.4000244141</ele>
        <time>2019-08-11T12:27:26.000Z</time>
      </trkpt>
      <trkpt lat="45.08618" lon="4.17096">
        <ele>1006.200012207</ele>
        <time>2019-08-11T12:27:31.000Z</time>
      </trkpt>
      <trkpt lat="45.08624" lon="4.17108">
        <ele>1007.4000244141</ele>
        <time>2019-08-11T12:27:39.000Z</time>
      </trkpt>
      <trkpt lat="45.08636" lon="4.1712">
        <ele>1008.799987793</ele>
        <time>2019-08-11T12:27:51.000Z</time>
      </trkpt>
      <trkpt lat="45.08655" lon="4.17128">
        <ele>1010.4000244141</ele>
        <time>2019-08-11T12:28:07.000Z</time>
      </trkpt>
      <trkpt lat="45.08656" lon="4.17128">
        <ele>1011</ele>
        <time>2019-08-11T12:28:08.000Z</time>
      </trkpt>
      <trkpt lat="45.08658" lon="4.17128">
        <ele>1011.4000244141</ele>
        <time>2019-08-11T12:28:09.000Z</time>
      </trkpt>
      <trkpt lat="45.08659" lon="4.17127">
        <ele>1011.5999755859</ele>
        <time>2019-08-11T12:28:10.000Z</time>
      </trkpt>
      <trkpt lat="45.0866" lon="4.17127">
        <ele>1011.799987793</ele>
        <time>2019-08-11T12:28:11.000Z</time>
      </trkpt>
      <trkpt lat="45.08661" lon="4.17127">
        <ele>1012</ele>
        <time>2019-08-11T12:28:12.000Z</time>
      </trkpt>
      <trkpt lat="45.08662" lon="4.17126">
        <ele>1012.4000244141</ele>
        <time>2019-08-11T12:28:13.000Z</time>
      </trkpt>
      <trkpt lat="45.08663" lon="4.17126">
        <ele>1012.5999755859</ele>
        <time>2019-08-11T12:28:14.000Z</time>
      </trkpt>
      <trkpt lat="45.08665" lon="4.17125">
        <ele>1012.5999755859</ele>
        <time>2019-08-11T12:28:16.000Z</time>
      </trkpt>
      <trkpt lat="45.08666" lon="4.17125">
        <ele>1012.799987793</ele>
        <time>2019-08-11T12:28:17.000Z</time>
      </trkpt>
      <trkpt lat="45.08667" lon="4.17124">
        <ele>1012.799987793</ele>
        <time>2019-08-11T12:28:18.000Z</time>
      </trkpt>
      <trkpt lat="45.08693" lon="4.17125">
        <ele>1015.799987793</ele>
        <time>2019-08-11T12:28:39.000Z</time>
      </trkpt>
      <trkpt lat="45.08704" lon="4.17124">
        <ele>1017.5999755859</ele>
        <time>2019-08-11T12:28:49.000Z</time>
      </trkpt>
      <trkpt lat="45.08736" lon="4.17138">
        <ele>1020.5999755859</ele>
        <time>2019-08-11T12:29:11.000Z</time>
      </trkpt>
      <trkpt lat="45.08763" lon="4.17152">
        <ele>1022.4000244141</ele>
        <time>2019-08-11T12:29:27.000Z</time>
      </trkpt>
      <trkpt lat="45.08798" lon="4.17161">
        <ele>1025.4000244141</ele>
        <time>2019-08-11T12:29:45.000Z</time>
      </trkpt>
      <trkpt lat="45.08822" lon="4.17159">
        <ele>1025.5999755859</ele>
        <time>2019-08-11T12:29:54.000Z</time>
      </trkpt>
      <trkpt lat="45.08825" lon="4.1716">
        <ele>1025.5999755859</ele>
        <time>2019-08-11T12:29:55.000Z</time>
      </trkpt>
      <trkpt lat="45.08827" lon="4.17162">
        <ele>1025.5999755859</ele>
        <time>2019-08-11T12:29:56.000Z</time>
      </trkpt>
      <trkpt lat="45.08832" lon="4.17168">
        <ele>1025.5999755859</ele>
        <time>2019-08-11T12:29:58.000Z</time>
      </trkpt>
      <trkpt lat="45.08841" lon="4.17173">
        <ele>1025.1999511719</ele>
        <time>2019-08-11T12:30:01.000Z</time>
      </trkpt>
      <trkpt lat="45.08853" lon="4.17186">
        <ele>1025</ele>
        <time>2019-08-11T12:30:06.000Z</time>
      </trkpt>
      <trkpt lat="45.08881" lon="4.17221">
        <ele>1024.1999511719</ele>
        <time>2019-08-11T12:30:18.000Z</time>
      </trkpt>
      <trkpt lat="45.08889" lon="4.17227">
        <ele>1024.1999511719</ele>
        <time>2019-08-11T12:30:21.000Z</time>
      </trkpt>
      <trkpt lat="45.08929" lon="4.17235">
        <ele>1024.8000488281</ele>
        <time>2019-08-11T12:30:33.000Z</time>
      </trkpt>
      <trkpt lat="45.08935" lon="4.17231">
        <ele>1025</ele>
        <time>2019-08-11T12:30:35.000Z</time>
      </trkpt>
      <trkpt lat="45.08973" lon="4.17243">
        <ele>1028</ele>
        <time>2019-08-11T12:30:50.000Z</time>
      </trkpt>
      <trkpt lat="45.08995" lon="4.17231">
        <ele>1030.4000244141</ele>
        <time>2019-08-11T12:31:02.000Z</time>
      </trkpt>
      <trkpt lat="45.09029" lon="4.17213">
        <ele>1032.5999755859</ele>
        <time>2019-08-11T12:31:19.000Z</time>
      </trkpt>
      <trkpt lat="45.09031" lon="4.17214">
        <ele>1032.5999755859</ele>
        <time>2019-08-11T12:31:20.000Z</time>
      </trkpt>
      <trkpt lat="45.09033" lon="4.17217">
        <ele>1032.8000488281</ele>
        <time>2019-08-11T12:31:21.000Z</time>
      </trkpt>
      <trkpt lat="45.09034" lon="4.17219">
        <ele>1032.8000488281</ele>
        <time>2019-08-11T12:31:22.000Z</time>
      </trkpt>
      <trkpt lat="45.09035" lon="4.17223">
        <ele>1032.8000488281</ele>
        <time>2019-08-11T12:31:23.000Z</time>
      </trkpt>
      <trkpt lat="45.09035" lon="4.17226">
        <ele>1032.8000488281</ele>
        <time>2019-08-11T12:31:24.000Z</time>
      </trkpt>
      <trkpt lat="45.09036" lon="4.17229">
        <ele>1032.8000488281</ele>
        <time>2019-08-11T12:31:25.000Z</time>
      </trkpt>
      <trkpt lat="45.09039" lon="4.17246">
        <ele>1032.5999755859</ele>
        <time>2019-08-11T12:31:31.000Z</time>
      </trkpt>
      <trkpt lat="45.09039" lon="4.17249">
        <ele>1032.4000244141</ele>
        <time>2019-08-11T12:31:33.000Z</time>
      </trkpt>
      <trkpt lat="45.09039" lon="4.17249">
        <ele>1031.8000488281</ele>
        <time>2019-08-11T12:31:40.000Z</time>
      </trkpt>
    </trkseg>
  </trk>
</gpx>